<?xml version="1.0" encoding="UTF-8"?>
<gpx version="1.1" creator="https://www.youtrack.es" xsi:schemaLocation="http://www.topografix.com/GPX/1/1 http://www.topografix.com/GPX/1/1/gpx.xsd http://www.garmin.com/xmlschemas/GpxExtensions/v3 http://www.garmin.com/xmlschemas/GpxExtensionsv3.xsd http://www.garmin.com/xmlschemas/TrackPointExtension/v1 http://www.garmin.com/xmlschemas/TrackPointExtensionv1.xsd" xmlns:gpxtpx="http://www.garmin.com/xmlschemas/TrackPointExtension/v1" xmlns:gpxx="http://www.garmin.com/xmlschemas/GpxExtensions/v3" xmlns:xsi="http://www.w3.org/2001/XMLSchema-instance">
  <metadata>
    <link href="https://www.youtrack.es">
      <text>YouTrack.es</text>
    </link>
    <time>2026-05-09T03:12:32Z</time>
  </metadata>
  <trk>
    <src>https://www.youtrack.es</src>
    <link href="https://www.youtrack.es/ruta/925-udana-bizkornia-alona-mendizerra-urteagain-udana">
      <text>YouTrack.es</text>
    </link>
    <trkseg>
      <trkpt lat="42.987124" lon="-2.374587">
        <ele>1274.139</ele>
        <time>2018-06-09T08:48:20Z</time>
      </trkpt>
      <trkpt lat="42.987170" lon="-2.374621">
        <ele>1274.101</ele>
        <time>2018-06-09T08:48:30Z</time>
      </trkpt>
      <trkpt lat="42.987222" lon="-2.374610">
        <ele>1274.121</ele>
        <time>2018-06-09T08:48:37Z</time>
      </trkpt>
      <trkpt lat="42.987274" lon="-2.374607">
        <ele>1274.108</ele>
        <time>2018-06-09T08:48:41Z</time>
      </trkpt>
      <trkpt lat="42.987324" lon="-2.374606">
        <ele>1274.145</ele>
        <time>2018-06-09T08:48:45Z</time>
      </trkpt>
      <trkpt lat="42.987369" lon="-2.374623">
        <ele>1274.178</ele>
        <time>2018-06-09T08:48:50Z</time>
      </trkpt>
      <trkpt lat="42.987415" lon="-2.374643">
        <ele>1274.159</ele>
        <time>2018-06-09T08:48:54Z</time>
      </trkpt>
      <trkpt lat="42.987471" lon="-2.374640">
        <ele>1274.197</ele>
        <time>2018-06-09T08:48:58Z</time>
      </trkpt>
      <trkpt lat="42.987517" lon="-2.374635">
        <ele>1274.115</ele>
        <time>2018-06-09T08:49:01Z</time>
      </trkpt>
      <trkpt lat="42.987562" lon="-2.374622">
        <ele>1274.179</ele>
        <time>2018-06-09T08:49:04Z</time>
      </trkpt>
      <trkpt lat="42.987618" lon="-2.374600">
        <ele>1274.115</ele>
        <time>2018-06-09T08:49:07Z</time>
      </trkpt>
      <trkpt lat="42.987667" lon="-2.374597">
        <ele>1274.116</ele>
        <time>2018-06-09T08:49:09Z</time>
      </trkpt>
      <trkpt lat="42.987713" lon="-2.374587">
        <ele>1274.131</ele>
        <time>2018-06-09T08:49:11Z</time>
      </trkpt>
      <trkpt lat="42.987770" lon="-2.374566">
        <ele>1274.161</ele>
        <time>2018-06-09T08:49:14Z</time>
      </trkpt>
      <trkpt lat="42.987820" lon="-2.374569">
        <ele>1274.107</ele>
        <time>2018-06-09T08:49:17Z</time>
      </trkpt>
      <trkpt lat="42.987870" lon="-2.374590">
        <ele>1272.608</ele>
        <time>2018-06-09T08:49:20Z</time>
      </trkpt>
      <trkpt lat="42.987912" lon="-2.374623">
        <ele>1271.375</ele>
        <time>2018-06-09T08:49:23Z</time>
      </trkpt>
      <trkpt lat="42.987956" lon="-2.374638">
        <ele>1269.698</ele>
        <time>2018-06-09T08:49:26Z</time>
      </trkpt>
      <trkpt lat="42.988015" lon="-2.374641">
        <ele>1268.259</ele>
        <time>2018-06-09T08:49:30Z</time>
      </trkpt>
      <trkpt lat="42.988060" lon="-2.374642">
        <ele>1266.717</ele>
        <time>2018-06-09T08:49:33Z</time>
      </trkpt>
      <trkpt lat="42.988112" lon="-2.374644">
        <ele>1265.745</ele>
        <time>2018-06-09T08:49:36Z</time>
      </trkpt>
      <trkpt lat="42.988166" lon="-2.374651">
        <ele>1263.969</ele>
        <time>2018-06-09T08:49:39Z</time>
      </trkpt>
      <trkpt lat="42.988220" lon="-2.374663">
        <ele>1262.855</ele>
        <time>2018-06-09T08:49:42Z</time>
      </trkpt>
      <trkpt lat="42.988266" lon="-2.374695">
        <ele>1261.976</ele>
        <time>2018-06-09T08:49:45Z</time>
      </trkpt>
      <trkpt lat="42.988308" lon="-2.374733">
        <ele>1260.689</ele>
        <time>2018-06-09T08:49:48Z</time>
      </trkpt>
      <trkpt lat="42.988356" lon="-2.374756">
        <ele>1259.006</ele>
        <time>2018-06-09T08:49:51Z</time>
      </trkpt>
      <trkpt lat="42.988407" lon="-2.374768">
        <ele>1257.926</ele>
        <time>2018-06-09T08:49:54Z</time>
      </trkpt>
      <trkpt lat="42.988450" lon="-2.374789">
        <ele>1257.108</ele>
        <time>2018-06-09T08:49:57Z</time>
      </trkpt>
      <trkpt lat="42.988471" lon="-2.374858">
        <ele>1256.250</ele>
        <time>2018-06-09T08:50:01Z</time>
      </trkpt>
      <trkpt lat="42.988476" lon="-2.374929">
        <ele>1255.613</ele>
        <time>2018-06-09T08:50:04Z</time>
      </trkpt>
      <trkpt lat="42.988471" lon="-2.375008">
        <ele>1255.024</ele>
        <time>2018-06-09T08:50:08Z</time>
      </trkpt>
      <trkpt lat="42.988467" lon="-2.375087">
        <ele>1254.992</ele>
        <time>2018-06-09T08:50:12Z</time>
      </trkpt>
      <trkpt lat="42.988474" lon="-2.375151">
        <ele>1254.420</ele>
        <time>2018-06-09T08:50:15Z</time>
      </trkpt>
      <trkpt lat="42.988483" lon="-2.375221">
        <ele>1253.914</ele>
        <time>2018-06-09T08:50:18Z</time>
      </trkpt>
      <trkpt lat="42.988498" lon="-2.375285">
        <ele>1253.140</ele>
        <time>2018-06-09T08:50:21Z</time>
      </trkpt>
      <trkpt lat="42.988517" lon="-2.375341">
        <ele>1252.971</ele>
        <time>2018-06-09T08:50:24Z</time>
      </trkpt>
      <trkpt lat="42.988533" lon="-2.375399">
        <ele>1252.417</ele>
        <time>2018-06-09T08:50:27Z</time>
      </trkpt>
      <trkpt lat="42.988555" lon="-2.375474">
        <ele>1251.987</ele>
        <time>2018-06-09T08:50:31Z</time>
      </trkpt>
      <trkpt lat="42.988571" lon="-2.375534">
        <ele>1251.615</ele>
        <time>2018-06-09T08:50:34Z</time>
      </trkpt>
      <trkpt lat="42.988587" lon="-2.375597">
        <ele>1251.108</ele>
        <time>2018-06-09T08:50:37Z</time>
      </trkpt>
      <trkpt lat="42.988609" lon="-2.375660">
        <ele>1251.013</ele>
        <time>2018-06-09T08:50:40Z</time>
      </trkpt>
      <trkpt lat="42.988633" lon="-2.375718">
        <ele>1251.266</ele>
        <time>2018-06-09T08:50:43Z</time>
      </trkpt>
      <trkpt lat="42.988660" lon="-2.375776">
        <ele>1250.567</ele>
        <time>2018-06-09T08:50:46Z</time>
      </trkpt>
      <trkpt lat="42.988687" lon="-2.375835">
        <ele>1249.965</ele>
        <time>2018-06-09T08:50:49Z</time>
      </trkpt>
      <trkpt lat="42.988713" lon="-2.375894">
        <ele>1249.753</ele>
        <time>2018-06-09T08:50:52Z</time>
      </trkpt>
      <trkpt lat="42.988739" lon="-2.375953">
        <ele>1249.397</ele>
        <time>2018-06-09T08:50:55Z</time>
      </trkpt>
      <trkpt lat="42.988764" lon="-2.376008">
        <ele>1248.973</ele>
        <time>2018-06-09T08:50:58Z</time>
      </trkpt>
      <trkpt lat="42.988793" lon="-2.376061">
        <ele>1248.784</ele>
        <time>2018-06-09T08:51:01Z</time>
      </trkpt>
      <trkpt lat="42.988822" lon="-2.376130">
        <ele>1248.997</ele>
        <time>2018-06-09T08:51:04Z</time>
      </trkpt>
      <trkpt lat="42.988842" lon="-2.376200">
        <ele>1249.323</ele>
        <time>2018-06-09T08:51:07Z</time>
      </trkpt>
      <trkpt lat="42.988858" lon="-2.376271">
        <ele>1249.325</ele>
        <time>2018-06-09T08:51:10Z</time>
      </trkpt>
      <trkpt lat="42.988873" lon="-2.376336">
        <ele>1249.408</ele>
        <time>2018-06-09T08:51:13Z</time>
      </trkpt>
      <trkpt lat="42.988881" lon="-2.376408">
        <ele>1249.271</ele>
        <time>2018-06-09T08:51:17Z</time>
      </trkpt>
      <trkpt lat="42.988892" lon="-2.376485">
        <ele>1249.354</ele>
        <time>2018-06-09T08:51:22Z</time>
      </trkpt>
      <trkpt lat="42.988899" lon="-2.376555">
        <ele>1249.435</ele>
        <time>2018-06-09T08:51:25Z</time>
      </trkpt>
      <trkpt lat="42.988910" lon="-2.376625">
        <ele>1249.543</ele>
        <time>2018-06-09T08:51:29Z</time>
      </trkpt>
      <trkpt lat="42.988920" lon="-2.376692">
        <ele>1249.891</ele>
        <time>2018-06-09T08:51:32Z</time>
      </trkpt>
      <trkpt lat="42.988932" lon="-2.376766">
        <ele>1249.945</ele>
        <time>2018-06-09T08:51:35Z</time>
      </trkpt>
      <trkpt lat="42.988945" lon="-2.376831">
        <ele>1249.821</ele>
        <time>2018-06-09T08:51:38Z</time>
      </trkpt>
      <trkpt lat="42.988964" lon="-2.376896">
        <ele>1249.542</ele>
        <time>2018-06-09T08:51:41Z</time>
      </trkpt>
      <trkpt lat="42.988993" lon="-2.376968">
        <ele>1249.891</ele>
        <time>2018-06-09T08:51:45Z</time>
      </trkpt>
      <trkpt lat="42.989022" lon="-2.377022">
        <ele>1249.981</ele>
        <time>2018-06-09T08:51:48Z</time>
      </trkpt>
      <trkpt lat="42.989041" lon="-2.377080">
        <ele>1250.419</ele>
        <time>2018-06-09T08:51:52Z</time>
      </trkpt>
      <trkpt lat="42.989063" lon="-2.377142">
        <ele>1250.508</ele>
        <time>2018-06-09T08:51:56Z</time>
      </trkpt>
      <trkpt lat="42.989083" lon="-2.377204">
        <ele>1250.681</ele>
        <time>2018-06-09T08:51:59Z</time>
      </trkpt>
      <trkpt lat="42.989101" lon="-2.377265">
        <ele>1250.384</ele>
        <time>2018-06-09T08:52:02Z</time>
      </trkpt>
      <trkpt lat="42.989129" lon="-2.377318">
        <ele>1250.315</ele>
        <time>2018-06-09T08:52:06Z</time>
      </trkpt>
      <trkpt lat="42.989159" lon="-2.377387">
        <ele>1250.363</ele>
        <time>2018-06-09T08:52:10Z</time>
      </trkpt>
      <trkpt lat="42.989181" lon="-2.377448">
        <ele>1250.611</ele>
        <time>2018-06-09T08:52:13Z</time>
      </trkpt>
      <trkpt lat="42.989206" lon="-2.377503">
        <ele>1250.895</ele>
        <time>2018-06-09T08:52:16Z</time>
      </trkpt>
      <trkpt lat="42.989234" lon="-2.377557">
        <ele>1250.911</ele>
        <time>2018-06-09T08:52:19Z</time>
      </trkpt>
      <trkpt lat="42.989271" lon="-2.377613">
        <ele>1251.352</ele>
        <time>2018-06-09T08:52:23Z</time>
      </trkpt>
      <trkpt lat="42.989302" lon="-2.377667">
        <ele>1252.051</ele>
        <time>2018-06-09T08:52:27Z</time>
      </trkpt>
      <trkpt lat="42.989333" lon="-2.377729">
        <ele>1253.101</ele>
        <time>2018-06-09T08:52:31Z</time>
      </trkpt>
      <trkpt lat="42.989356" lon="-2.377791">
        <ele>1253.711</ele>
        <time>2018-06-09T08:52:34Z</time>
      </trkpt>
      <trkpt lat="42.989384" lon="-2.377854">
        <ele>1254.708</ele>
        <time>2018-06-09T08:52:40Z</time>
      </trkpt>
      <trkpt lat="42.989402" lon="-2.377917">
        <ele>1255.957</ele>
        <time>2018-06-09T08:52:44Z</time>
      </trkpt>
      <trkpt lat="42.989416" lon="-2.377985">
        <ele>1257.460</ele>
        <time>2018-06-09T08:52:48Z</time>
      </trkpt>
      <trkpt lat="42.989428" lon="-2.378048">
        <ele>1258.711</ele>
        <time>2018-06-09T08:52:52Z</time>
      </trkpt>
      <trkpt lat="42.989426" lon="-2.378116">
        <ele>1260.169</ele>
        <time>2018-06-09T08:52:57Z</time>
      </trkpt>
      <trkpt lat="42.989442" lon="-2.378184">
        <ele>1261.017</ele>
        <time>2018-06-09T08:53:02Z</time>
      </trkpt>
      <trkpt lat="42.989468" lon="-2.378239">
        <ele>1262.441</ele>
        <time>2018-06-09T08:53:06Z</time>
      </trkpt>
      <trkpt lat="42.989508" lon="-2.378292">
        <ele>1263.547</ele>
        <time>2018-06-09T08:53:10Z</time>
      </trkpt>
      <trkpt lat="42.989543" lon="-2.378336">
        <ele>1264.848</ele>
        <time>2018-06-09T08:53:14Z</time>
      </trkpt>
      <trkpt lat="42.989581" lon="-2.378371">
        <ele>1265.716</ele>
        <time>2018-06-09T08:53:20Z</time>
      </trkpt>
      <trkpt lat="42.989622" lon="-2.378420">
        <ele>1266.676</ele>
        <time>2018-06-09T08:53:25Z</time>
      </trkpt>
      <trkpt lat="42.989659" lon="-2.378457">
        <ele>1267.313</ele>
        <time>2018-06-09T08:53:29Z</time>
      </trkpt>
      <trkpt lat="42.989698" lon="-2.378506">
        <ele>1267.608</ele>
        <time>2018-06-09T08:53:34Z</time>
      </trkpt>
      <trkpt lat="42.989731" lon="-2.378565">
        <ele>1267.963</ele>
        <time>2018-06-09T08:53:39Z</time>
      </trkpt>
      <trkpt lat="42.989761" lon="-2.378612">
        <ele>1267.916</ele>
        <time>2018-06-09T08:53:44Z</time>
      </trkpt>
      <trkpt lat="42.989796" lon="-2.378661">
        <ele>1267.887</ele>
        <time>2018-06-09T08:53:48Z</time>
      </trkpt>
      <trkpt lat="42.989827" lon="-2.378712">
        <ele>1268.425</ele>
        <time>2018-06-09T08:53:52Z</time>
      </trkpt>
      <trkpt lat="42.989831" lon="-2.378790">
        <ele>1270.293</ele>
        <time>2018-06-09T08:54:01Z</time>
      </trkpt>
      <trkpt lat="42.989784" lon="-2.378803">
        <ele>1271.827</ele>
        <time>2018-06-09T08:54:07Z</time>
      </trkpt>
      <trkpt lat="42.989736" lon="-2.378811">
        <ele>1272.863</ele>
        <time>2018-06-09T08:54:11Z</time>
      </trkpt>
      <trkpt lat="42.989685" lon="-2.378812">
        <ele>1273.084</ele>
        <time>2018-06-09T08:54:15Z</time>
      </trkpt>
      <trkpt lat="42.989639" lon="-2.378826">
        <ele>1272.339</ele>
        <time>2018-06-09T08:54:19Z</time>
      </trkpt>
      <trkpt lat="42.989592" lon="-2.378843">
        <ele>1272.101</ele>
        <time>2018-06-09T08:54:23Z</time>
      </trkpt>
      <trkpt lat="42.989552" lon="-2.378880">
        <ele>1272.521</ele>
        <time>2018-06-09T08:54:31Z</time>
      </trkpt>
      <trkpt lat="42.989544" lon="-2.378946">
        <ele>1272.308</ele>
        <time>2018-06-09T08:54:38Z</time>
      </trkpt>
      <trkpt lat="42.989506" lon="-2.378983">
        <ele>1273.075</ele>
        <time>2018-06-09T08:54:45Z</time>
      </trkpt>
      <trkpt lat="42.989466" lon="-2.379020">
        <ele>1273.648</ele>
        <time>2018-06-09T08:54:52Z</time>
      </trkpt>
      <trkpt lat="42.989435" lon="-2.379067">
        <ele>1274.339</ele>
        <time>2018-06-09T08:55:00Z</time>
      </trkpt>
      <trkpt lat="42.989416" lon="-2.379123">
        <ele>1274.857</ele>
        <time>2018-06-09T08:55:08Z</time>
      </trkpt>
      <trkpt lat="42.989424" lon="-2.379184">
        <ele>1275.235</ele>
        <time>2018-06-09T08:55:18Z</time>
      </trkpt>
      <trkpt lat="42.989424" lon="-2.379252">
        <ele>1275.379</ele>
        <time>2018-06-09T08:55:26Z</time>
      </trkpt>
      <trkpt lat="42.989423" lon="-2.379319">
        <ele>1275.515</ele>
        <time>2018-06-09T08:55:31Z</time>
      </trkpt>
      <trkpt lat="42.989453" lon="-2.379373">
        <ele>1276.036</ele>
        <time>2018-06-09T08:55:35Z</time>
      </trkpt>
      <trkpt lat="42.989488" lon="-2.379421">
        <ele>1277.139</ele>
        <time>2018-06-09T08:55:41Z</time>
      </trkpt>
      <trkpt lat="42.989526" lon="-2.379458">
        <ele>1278.301</ele>
        <time>2018-06-09T08:55:46Z</time>
      </trkpt>
      <trkpt lat="42.989556" lon="-2.379506">
        <ele>1279.821</ele>
        <time>2018-06-09T08:55:52Z</time>
      </trkpt>
      <trkpt lat="42.989602" lon="-2.379523">
        <ele>1280.908</ele>
        <time>2018-06-09T08:55:58Z</time>
      </trkpt>
      <trkpt lat="42.989654" lon="-2.379527">
        <ele>1281.445</ele>
        <time>2018-06-09T08:56:04Z</time>
      </trkpt>
      <trkpt lat="42.989694" lon="-2.379558">
        <ele>1281.348</ele>
        <time>2018-06-09T08:56:09Z</time>
      </trkpt>
      <trkpt lat="42.989717" lon="-2.379611">
        <ele>1281.949</ele>
        <time>2018-06-09T08:56:13Z</time>
      </trkpt>
      <trkpt lat="42.989732" lon="-2.379680">
        <ele>1281.937</ele>
        <time>2018-06-09T08:56:18Z</time>
      </trkpt>
      <trkpt lat="42.989760" lon="-2.379738">
        <ele>1281.375</ele>
        <time>2018-06-09T08:56:24Z</time>
      </trkpt>
      <trkpt lat="42.989790" lon="-2.379795">
        <ele>1281.329</ele>
        <time>2018-06-09T08:56:29Z</time>
      </trkpt>
      <trkpt lat="42.989820" lon="-2.379846">
        <ele>1281.555</ele>
        <time>2018-06-09T08:56:33Z</time>
      </trkpt>
      <trkpt lat="42.989853" lon="-2.379908">
        <ele>1282.176</ele>
        <time>2018-06-09T08:56:37Z</time>
      </trkpt>
      <trkpt lat="42.989878" lon="-2.379980">
        <ele>1282.623</ele>
        <time>2018-06-09T08:56:41Z</time>
      </trkpt>
      <trkpt lat="42.989898" lon="-2.380054">
        <ele>1283.583</ele>
        <time>2018-06-09T08:56:45Z</time>
      </trkpt>
      <trkpt lat="42.989913" lon="-2.380115">
        <ele>1284.511</ele>
        <time>2018-06-09T08:56:48Z</time>
      </trkpt>
      <trkpt lat="42.989929" lon="-2.380177">
        <ele>1284.608</ele>
        <time>2018-06-09T08:56:51Z</time>
      </trkpt>
      <trkpt lat="42.989943" lon="-2.380244">
        <ele>1284.594</ele>
        <time>2018-06-09T08:56:54Z</time>
      </trkpt>
      <trkpt lat="42.989952" lon="-2.380315">
        <ele>1284.747</ele>
        <time>2018-06-09T08:56:57Z</time>
      </trkpt>
      <trkpt lat="42.989958" lon="-2.380381">
        <ele>1285.418</ele>
        <time>2018-06-09T08:57:00Z</time>
      </trkpt>
      <trkpt lat="42.990002" lon="-2.380413">
        <ele>1285.596</ele>
        <time>2018-06-09T08:57:11Z</time>
      </trkpt>
      <trkpt lat="42.990026" lon="-2.380467">
        <ele>1285.674</ele>
        <time>2018-06-09T08:57:16Z</time>
      </trkpt>
      <trkpt lat="42.990025" lon="-2.380545">
        <ele>1285.488</ele>
        <time>2018-06-09T08:57:20Z</time>
      </trkpt>
      <trkpt lat="42.990029" lon="-2.380619">
        <ele>1285.314</ele>
        <time>2018-06-09T08:57:24Z</time>
      </trkpt>
      <trkpt lat="42.990039" lon="-2.380685">
        <ele>1285.855</ele>
        <time>2018-06-09T08:57:28Z</time>
      </trkpt>
      <trkpt lat="42.990053" lon="-2.380748">
        <ele>1286.839</ele>
        <time>2018-06-09T08:57:37Z</time>
      </trkpt>
      <trkpt lat="42.990092" lon="-2.380791">
        <ele>1288.501</ele>
        <time>2018-06-09T08:57:48Z</time>
      </trkpt>
      <trkpt lat="42.990123" lon="-2.380846">
        <ele>1289.921</ele>
        <time>2018-06-09T08:57:54Z</time>
      </trkpt>
      <trkpt lat="42.990150" lon="-2.380903">
        <ele>1290.408</ele>
        <time>2018-06-09T08:57:59Z</time>
      </trkpt>
      <trkpt lat="42.990170" lon="-2.380961">
        <ele>1291.395</ele>
        <time>2018-06-09T08:58:03Z</time>
      </trkpt>
      <trkpt lat="42.990196" lon="-2.381018">
        <ele>1292.658</ele>
        <time>2018-06-09T08:58:07Z</time>
      </trkpt>
      <trkpt lat="42.990212" lon="-2.381081">
        <ele>1293.879</ele>
        <time>2018-06-09T08:58:11Z</time>
      </trkpt>
      <trkpt lat="42.990218" lon="-2.381151">
        <ele>1294.447</ele>
        <time>2018-06-09T08:58:15Z</time>
      </trkpt>
      <trkpt lat="42.990212" lon="-2.381212">
        <ele>1294.955</ele>
        <time>2018-06-09T08:58:19Z</time>
      </trkpt>
      <trkpt lat="42.990213" lon="-2.381274">
        <ele>1295.469</ele>
        <time>2018-06-09T08:58:23Z</time>
      </trkpt>
      <trkpt lat="42.990232" lon="-2.381333">
        <ele>1295.525</ele>
        <time>2018-06-09T08:58:28Z</time>
      </trkpt>
      <trkpt lat="42.990264" lon="-2.381382">
        <ele>1295.596</ele>
        <time>2018-06-09T08:58:34Z</time>
      </trkpt>
      <trkpt lat="42.990297" lon="-2.381430">
        <ele>1295.733</ele>
        <time>2018-06-09T08:58:39Z</time>
      </trkpt>
      <trkpt lat="42.990342" lon="-2.381466">
        <ele>1295.823</ele>
        <time>2018-06-09T08:58:44Z</time>
      </trkpt>
      <trkpt lat="42.990387" lon="-2.381495">
        <ele>1296.015</ele>
        <time>2018-06-09T08:58:48Z</time>
      </trkpt>
      <trkpt lat="42.990427" lon="-2.381528">
        <ele>1296.408</ele>
        <time>2018-06-09T08:58:52Z</time>
      </trkpt>
      <trkpt lat="42.990439" lon="-2.381589">
        <ele>1297.995</ele>
        <time>2018-06-09T08:58:58Z</time>
      </trkpt>
      <trkpt lat="42.990420" lon="-2.381656">
        <ele>1300.118</ele>
        <time>2018-06-09T08:59:04Z</time>
      </trkpt>
      <trkpt lat="42.990394" lon="-2.381714">
        <ele>1302.339</ele>
        <time>2018-06-09T08:59:11Z</time>
      </trkpt>
      <trkpt lat="42.990360" lon="-2.381763">
        <ele>1304.567</ele>
        <time>2018-06-09T08:59:20Z</time>
      </trkpt>
      <trkpt lat="42.990332" lon="-2.381817">
        <ele>1306.685</ele>
        <time>2018-06-09T08:59:29Z</time>
      </trkpt>
      <trkpt lat="42.990333" lon="-2.381889">
        <ele>1307.969</ele>
        <time>2018-06-09T09:00:01Z</time>
      </trkpt>
      <trkpt lat="42.990334" lon="-2.381966">
        <ele>1308.025</ele>
        <time>2018-06-09T09:00:05Z</time>
      </trkpt>
      <trkpt lat="42.990343" lon="-2.382027">
        <ele>1308.266</ele>
        <time>2018-06-09T09:00:08Z</time>
      </trkpt>
      <trkpt lat="42.990363" lon="-2.382096">
        <ele>1307.672</ele>
        <time>2018-06-09T09:00:12Z</time>
      </trkpt>
      <trkpt lat="42.990386" lon="-2.382158">
        <ele>1307.013</ele>
        <time>2018-06-09T09:00:16Z</time>
      </trkpt>
      <trkpt lat="42.990412" lon="-2.382216">
        <ele>1306.214</ele>
        <time>2018-06-09T09:00:20Z</time>
      </trkpt>
      <trkpt lat="42.990450" lon="-2.382256">
        <ele>1304.808</ele>
        <time>2018-06-09T09:00:24Z</time>
      </trkpt>
      <trkpt lat="42.990486" lon="-2.382316">
        <ele>1303.599</ele>
        <time>2018-06-09T09:00:28Z</time>
      </trkpt>
      <trkpt lat="42.990514" lon="-2.382377">
        <ele>1302.522</ele>
        <time>2018-06-09T09:00:32Z</time>
      </trkpt>
      <trkpt lat="42.990532" lon="-2.382442">
        <ele>1301.713</ele>
        <time>2018-06-09T09:00:36Z</time>
      </trkpt>
      <trkpt lat="42.990570" lon="-2.382485">
        <ele>1300.631</ele>
        <time>2018-06-09T09:00:40Z</time>
      </trkpt>
      <trkpt lat="42.990621" lon="-2.382493">
        <ele>1299.149</ele>
        <time>2018-06-09T09:00:44Z</time>
      </trkpt>
      <trkpt lat="42.990665" lon="-2.382525">
        <ele>1297.183</ele>
        <time>2018-06-09T09:00:48Z</time>
      </trkpt>
      <trkpt lat="42.990700" lon="-2.382581">
        <ele>1295.019</ele>
        <time>2018-06-09T09:00:52Z</time>
      </trkpt>
      <trkpt lat="42.990729" lon="-2.382629">
        <ele>1293.120</ele>
        <time>2018-06-09T09:00:55Z</time>
      </trkpt>
      <trkpt lat="42.990760" lon="-2.382677">
        <ele>1291.932</ele>
        <time>2018-06-09T09:00:58Z</time>
      </trkpt>
      <trkpt lat="42.990790" lon="-2.382727">
        <ele>1291.392</ele>
        <time>2018-06-09T09:01:01Z</time>
      </trkpt>
      <trkpt lat="42.990817" lon="-2.382778">
        <ele>1291.211</ele>
        <time>2018-06-09T09:01:04Z</time>
      </trkpt>
      <trkpt lat="42.990841" lon="-2.382845">
        <ele>1291.008</ele>
        <time>2018-06-09T09:01:08Z</time>
      </trkpt>
      <trkpt lat="42.990858" lon="-2.382916">
        <ele>1292.115</ele>
        <time>2018-06-09T09:01:13Z</time>
      </trkpt>
      <trkpt lat="42.990866" lon="-2.382985">
        <ele>1292.858</ele>
        <time>2018-06-09T09:01:18Z</time>
      </trkpt>
      <trkpt lat="42.990869" lon="-2.383059">
        <ele>1293.229</ele>
        <time>2018-06-09T09:01:23Z</time>
      </trkpt>
      <trkpt lat="42.990881" lon="-2.383119">
        <ele>1294.127</ele>
        <time>2018-06-09T09:01:27Z</time>
      </trkpt>
      <trkpt lat="42.990893" lon="-2.383190">
        <ele>1295.275</ele>
        <time>2018-06-09T09:01:32Z</time>
      </trkpt>
      <trkpt lat="42.990898" lon="-2.383260">
        <ele>1296.339</ele>
        <time>2018-06-09T09:01:38Z</time>
      </trkpt>
      <trkpt lat="42.990913" lon="-2.383324">
        <ele>1298.135</ele>
        <time>2018-06-09T09:01:47Z</time>
      </trkpt>
      <trkpt lat="42.990912" lon="-2.383388">
        <ele>1299.736</ele>
        <time>2018-06-09T09:01:55Z</time>
      </trkpt>
      <trkpt lat="42.990905" lon="-2.383450">
        <ele>1301.085</ele>
        <time>2018-06-09T09:02:03Z</time>
      </trkpt>
      <trkpt lat="42.990905" lon="-2.383512">
        <ele>1301.889</ele>
        <time>2018-06-09T09:02:11Z</time>
      </trkpt>
      <trkpt lat="42.990941" lon="-2.383558">
        <ele>1304.017</ele>
        <time>2018-06-09T09:02:23Z</time>
      </trkpt>
      <trkpt lat="42.990977" lon="-2.383607">
        <ele>1306.208</ele>
        <time>2018-06-09T09:02:31Z</time>
      </trkpt>
      <trkpt lat="42.990989" lon="-2.383675">
        <ele>1308.940</ele>
        <time>2018-06-09T09:02:39Z</time>
      </trkpt>
      <trkpt lat="42.991023" lon="-2.383721">
        <ele>1311.683</ele>
        <time>2018-06-09T09:02:48Z</time>
      </trkpt>
      <trkpt lat="42.991041" lon="-2.383781">
        <ele>1314.444</ele>
        <time>2018-06-09T09:02:59Z</time>
      </trkpt>
      <trkpt lat="42.991055" lon="-2.383842">
        <ele>1317.252</ele>
        <time>2018-06-09T09:03:07Z</time>
      </trkpt>
      <trkpt lat="42.991090" lon="-2.383890">
        <ele>1320.380</ele>
        <time>2018-06-09T09:03:16Z</time>
      </trkpt>
      <trkpt lat="42.991106" lon="-2.383951">
        <ele>1322.514</ele>
        <time>2018-06-09T09:03:26Z</time>
      </trkpt>
      <trkpt lat="42.991077" lon="-2.384001">
        <ele>1325.260</ele>
        <time>2018-06-09T09:03:37Z</time>
      </trkpt>
      <trkpt lat="42.991045" lon="-2.384049">
        <ele>1327.641</ele>
        <time>2018-06-09T09:03:49Z</time>
      </trkpt>
      <trkpt lat="42.991044" lon="-2.384118">
        <ele>1329.575</ele>
        <time>2018-06-09T09:03:57Z</time>
      </trkpt>
      <trkpt lat="42.991037" lon="-2.384181">
        <ele>1330.528</ele>
        <time>2018-06-09T09:04:05Z</time>
      </trkpt>
      <trkpt lat="42.991014" lon="-2.384244">
        <ele>1331.120</ele>
        <time>2018-06-09T09:04:12Z</time>
      </trkpt>
      <trkpt lat="42.991012" lon="-2.384309">
        <ele>1331.208</ele>
        <time>2018-06-09T09:04:16Z</time>
      </trkpt>
      <trkpt lat="42.991014" lon="-2.384381">
        <ele>1330.879</ele>
        <time>2018-06-09T09:04:20Z</time>
      </trkpt>
      <trkpt lat="42.991026" lon="-2.384455">
        <ele>1330.262</ele>
        <time>2018-06-09T09:04:24Z</time>
      </trkpt>
      <trkpt lat="42.991052" lon="-2.384519">
        <ele>1329.453</ele>
        <time>2018-06-09T09:04:28Z</time>
      </trkpt>
      <trkpt lat="42.991086" lon="-2.384568">
        <ele>1328.851</ele>
        <time>2018-06-09T09:04:34Z</time>
      </trkpt>
      <trkpt lat="42.991108" lon="-2.384627">
        <ele>1328.679</ele>
        <time>2018-06-09T09:04:44Z</time>
      </trkpt>
      <trkpt lat="42.991102" lon="-2.384699">
        <ele>1328.253</ele>
        <time>2018-06-09T09:04:51Z</time>
      </trkpt>
      <trkpt lat="42.991111" lon="-2.384766">
        <ele>1327.259</ele>
        <time>2018-06-09T09:04:58Z</time>
      </trkpt>
      <trkpt lat="42.991130" lon="-2.384827">
        <ele>1326.130</ele>
        <time>2018-06-09T09:05:04Z</time>
      </trkpt>
      <trkpt lat="42.991159" lon="-2.384878">
        <ele>1325.594</ele>
        <time>2018-06-09T09:05:10Z</time>
      </trkpt>
      <trkpt lat="42.991197" lon="-2.384922">
        <ele>1325.557</ele>
        <time>2018-06-09T09:05:16Z</time>
      </trkpt>
      <trkpt lat="42.991235" lon="-2.384966">
        <ele>1324.722</ele>
        <time>2018-06-09T09:05:22Z</time>
      </trkpt>
      <trkpt lat="42.991275" lon="-2.385005">
        <ele>1324.508</ele>
        <time>2018-06-09T09:05:29Z</time>
      </trkpt>
      <trkpt lat="42.991297" lon="-2.385059">
        <ele>1324.851</ele>
        <time>2018-06-09T09:05:35Z</time>
      </trkpt>
      <trkpt lat="42.991330" lon="-2.385103">
        <ele>1326.144</ele>
        <time>2018-06-09T09:05:43Z</time>
      </trkpt>
      <trkpt lat="42.991372" lon="-2.385140">
        <ele>1327.455</ele>
        <time>2018-06-09T09:05:49Z</time>
      </trkpt>
      <trkpt lat="42.991416" lon="-2.385181">
        <ele>1328.783</ele>
        <time>2018-06-09T09:05:55Z</time>
      </trkpt>
      <trkpt lat="42.991450" lon="-2.385232">
        <ele>1329.991</ele>
        <time>2018-06-09T09:06:02Z</time>
      </trkpt>
      <trkpt lat="42.991468" lon="-2.385291">
        <ele>1330.835</ele>
        <time>2018-06-09T09:06:07Z</time>
      </trkpt>
      <trkpt lat="42.991490" lon="-2.385345">
        <ele>1331.951</ele>
        <time>2018-06-09T09:06:14Z</time>
      </trkpt>
      <trkpt lat="42.991529" lon="-2.385379">
        <ele>1334.432</ele>
        <time>2018-06-09T09:06:24Z</time>
      </trkpt>
      <trkpt lat="42.991557" lon="-2.385436">
        <ele>1335.742</ele>
        <time>2018-06-09T09:06:32Z</time>
      </trkpt>
      <trkpt lat="42.991601" lon="-2.385457">
        <ele>1337.322</ele>
        <time>2018-06-09T09:06:48Z</time>
      </trkpt>
      <trkpt lat="42.991647" lon="-2.385447">
        <ele>1340.114</ele>
        <time>2018-06-09T09:06:58Z</time>
      </trkpt>
      <trkpt lat="42.991642" lon="-2.385508">
        <ele>1343.108</ele>
        <time>2018-06-09T09:07:13Z</time>
      </trkpt>
      <trkpt lat="42.991643" lon="-2.385574">
        <ele>1345.396</ele>
        <time>2018-06-09T09:07:21Z</time>
      </trkpt>
      <trkpt lat="42.991687" lon="-2.385593">
        <ele>1347.529</ele>
        <time>2018-06-09T09:07:36Z</time>
      </trkpt>
      <trkpt lat="42.991719" lon="-2.385642">
        <ele>1350.060</ele>
        <time>2018-06-09T09:08:12Z</time>
      </trkpt>
      <trkpt lat="42.991741" lon="-2.385706">
        <ele>1351.458</ele>
        <time>2018-06-09T09:08:26Z</time>
      </trkpt>
      <trkpt lat="42.991743" lon="-2.385773">
        <ele>1351.616</ele>
        <time>2018-06-09T09:08:32Z</time>
      </trkpt>
      <trkpt lat="42.991755" lon="-2.385840">
        <ele>1351.310</ele>
        <time>2018-06-09T09:08:38Z</time>
      </trkpt>
      <trkpt lat="42.991796" lon="-2.385868">
        <ele>1350.956</ele>
        <time>2018-06-09T09:08:44Z</time>
      </trkpt>
      <trkpt lat="42.991784" lon="-2.385932">
        <ele>1349.977</ele>
        <time>2018-06-09T09:08:58Z</time>
      </trkpt>
      <trkpt lat="42.991753" lon="-2.385977">
        <ele>1348.771</ele>
        <time>2018-06-09T09:09:02Z</time>
      </trkpt>
      <trkpt lat="42.991763" lon="-2.386046">
        <ele>1347.041</ele>
        <time>2018-06-09T09:09:09Z</time>
      </trkpt>
      <trkpt lat="42.991734" lon="-2.386099">
        <ele>1345.115</ele>
        <time>2018-06-09T09:09:21Z</time>
      </trkpt>
      <trkpt lat="42.991699" lon="-2.386143">
        <ele>1343.108</ele>
        <time>2018-06-09T09:09:27Z</time>
      </trkpt>
      <trkpt lat="42.991708" lon="-2.386206">
        <ele>1340.819</ele>
        <time>2018-06-09T09:09:38Z</time>
      </trkpt>
      <trkpt lat="42.991730" lon="-2.386265">
        <ele>1338.092</ele>
        <time>2018-06-09T09:09:47Z</time>
      </trkpt>
      <trkpt lat="42.991706" lon="-2.386323">
        <ele>1335.883</ele>
        <time>2018-06-09T09:09:52Z</time>
      </trkpt>
      <trkpt lat="42.991720" lon="-2.386390">
        <ele>1333.231</ele>
        <time>2018-06-09T09:09:58Z</time>
      </trkpt>
      <trkpt lat="42.991730" lon="-2.386456">
        <ele>1331.049</ele>
        <time>2018-06-09T09:10:04Z</time>
      </trkpt>
      <trkpt lat="42.991742" lon="-2.386519">
        <ele>1328.413</ele>
        <time>2018-06-09T09:10:15Z</time>
      </trkpt>
      <trkpt lat="42.991735" lon="-2.386588">
        <ele>1325.129</ele>
        <time>2018-06-09T09:10:24Z</time>
      </trkpt>
      <trkpt lat="42.991747" lon="-2.386647">
        <ele>1321.910</ele>
        <time>2018-06-09T09:10:31Z</time>
      </trkpt>
      <trkpt lat="42.991789" lon="-2.386679">
        <ele>1317.965</ele>
        <time>2018-06-09T09:10:39Z</time>
      </trkpt>
      <trkpt lat="42.991803" lon="-2.386741">
        <ele>1314.768</ele>
        <time>2018-06-09T09:10:45Z</time>
      </trkpt>
      <trkpt lat="42.991821" lon="-2.386798">
        <ele>1312.514</ele>
        <time>2018-06-09T09:10:50Z</time>
      </trkpt>
      <trkpt lat="42.991869" lon="-2.386791">
        <ele>1310.808</ele>
        <time>2018-06-09T09:11:01Z</time>
      </trkpt>
      <trkpt lat="42.991914" lon="-2.386754">
        <ele>1309.318</ele>
        <time>2018-06-09T09:11:08Z</time>
      </trkpt>
      <trkpt lat="42.991955" lon="-2.386719">
        <ele>1307.831</ele>
        <time>2018-06-09T09:11:14Z</time>
      </trkpt>
      <trkpt lat="42.992006" lon="-2.386709">
        <ele>1306.132</ele>
        <time>2018-06-09T09:11:19Z</time>
      </trkpt>
      <trkpt lat="42.992053" lon="-2.386676">
        <ele>1304.550</ele>
        <time>2018-06-09T09:11:23Z</time>
      </trkpt>
      <trkpt lat="42.992103" lon="-2.386688">
        <ele>1302.788</ele>
        <time>2018-06-09T09:11:28Z</time>
      </trkpt>
      <trkpt lat="42.992091" lon="-2.386760">
        <ele>1300.742</ele>
        <time>2018-06-09T09:11:32Z</time>
      </trkpt>
      <trkpt lat="42.992071" lon="-2.386822">
        <ele>1299.198</ele>
        <time>2018-06-09T09:11:35Z</time>
      </trkpt>
      <trkpt lat="42.992094" lon="-2.386882">
        <ele>1297.119</ele>
        <time>2018-06-09T09:11:40Z</time>
      </trkpt>
      <trkpt lat="42.992078" lon="-2.386941">
        <ele>1295.117</ele>
        <time>2018-06-09T09:11:46Z</time>
      </trkpt>
      <trkpt lat="42.992063" lon="-2.387006">
        <ele>1293.687</ele>
        <time>2018-06-09T09:11:51Z</time>
      </trkpt>
      <trkpt lat="42.992066" lon="-2.387068">
        <ele>1290.915</ele>
        <time>2018-06-09T09:11:56Z</time>
      </trkpt>
      <trkpt lat="42.992084" lon="-2.387128">
        <ele>1288.108</ele>
        <time>2018-06-09T09:12:01Z</time>
      </trkpt>
      <trkpt lat="42.992062" lon="-2.387185">
        <ele>1285.883</ele>
        <time>2018-06-09T09:12:05Z</time>
      </trkpt>
      <trkpt lat="42.992071" lon="-2.387252">
        <ele>1282.996</ele>
        <time>2018-06-09T09:12:10Z</time>
      </trkpt>
      <trkpt lat="42.992056" lon="-2.387312">
        <ele>1281.177</ele>
        <time>2018-06-09T09:12:14Z</time>
      </trkpt>
      <trkpt lat="42.992030" lon="-2.387378">
        <ele>1279.575</ele>
        <time>2018-06-09T09:12:18Z</time>
      </trkpt>
      <trkpt lat="42.992016" lon="-2.387438">
        <ele>1277.933</ele>
        <time>2018-06-09T09:12:21Z</time>
      </trkpt>
      <trkpt lat="42.992003" lon="-2.387499">
        <ele>1276.687</ele>
        <time>2018-06-09T09:12:25Z</time>
      </trkpt>
      <trkpt lat="42.991998" lon="-2.387561">
        <ele>1275.083</ele>
        <time>2018-06-09T09:12:31Z</time>
      </trkpt>
      <trkpt lat="42.992005" lon="-2.387623">
        <ele>1272.064</ele>
        <time>2018-06-09T09:12:39Z</time>
      </trkpt>
      <trkpt lat="42.991988" lon="-2.387689">
        <ele>1269.929</ele>
        <time>2018-06-09T09:12:44Z</time>
      </trkpt>
      <trkpt lat="42.991985" lon="-2.387753">
        <ele>1268.200</ele>
        <time>2018-06-09T09:12:48Z</time>
      </trkpt>
      <trkpt lat="42.991975" lon="-2.387814">
        <ele>1266.820</ele>
        <time>2018-06-09T09:12:51Z</time>
      </trkpt>
      <trkpt lat="42.991961" lon="-2.387881">
        <ele>1265.008</ele>
        <time>2018-06-09T09:12:55Z</time>
      </trkpt>
      <trkpt lat="42.991974" lon="-2.387955">
        <ele>1262.784</ele>
        <time>2018-06-09T09:13:06Z</time>
      </trkpt>
      <trkpt lat="42.992002" lon="-2.388020">
        <ele>1260.397</ele>
        <time>2018-06-09T09:13:10Z</time>
      </trkpt>
      <trkpt lat="42.992046" lon="-2.388059">
        <ele>1258.658</ele>
        <time>2018-06-09T09:13:14Z</time>
      </trkpt>
      <trkpt lat="42.992092" lon="-2.388069">
        <ele>1257.226</ele>
        <time>2018-06-09T09:13:17Z</time>
      </trkpt>
      <trkpt lat="42.992145" lon="-2.388081">
        <ele>1255.694</ele>
        <time>2018-06-09T09:13:21Z</time>
      </trkpt>
      <trkpt lat="42.992194" lon="-2.388112">
        <ele>1254.278</ele>
        <time>2018-06-09T09:13:25Z</time>
      </trkpt>
      <trkpt lat="42.992232" lon="-2.388149">
        <ele>1252.544</ele>
        <time>2018-06-09T09:13:28Z</time>
      </trkpt>
      <trkpt lat="42.992269" lon="-2.388194">
        <ele>1250.815</ele>
        <time>2018-06-09T09:13:31Z</time>
      </trkpt>
      <trkpt lat="42.992296" lon="-2.388246">
        <ele>1249.494</ele>
        <time>2018-06-09T09:13:34Z</time>
      </trkpt>
      <trkpt lat="42.992311" lon="-2.388324">
        <ele>1247.757</ele>
        <time>2018-06-09T09:13:38Z</time>
      </trkpt>
      <trkpt lat="42.992330" lon="-2.388399">
        <ele>1246.522</ele>
        <time>2018-06-09T09:13:42Z</time>
      </trkpt>
      <trkpt lat="42.992360" lon="-2.388459">
        <ele>1244.808</ele>
        <time>2018-06-09T09:13:46Z</time>
      </trkpt>
      <trkpt lat="42.992394" lon="-2.388508">
        <ele>1242.051</ele>
        <time>2018-06-09T09:13:50Z</time>
      </trkpt>
      <trkpt lat="42.992402" lon="-2.388584">
        <ele>1239.854</ele>
        <time>2018-06-09T09:13:54Z</time>
      </trkpt>
      <trkpt lat="42.992422" lon="-2.388639">
        <ele>1237.595</ele>
        <time>2018-06-09T09:13:58Z</time>
      </trkpt>
      <trkpt lat="42.992472" lon="-2.388655">
        <ele>1235.233</ele>
        <time>2018-06-09T09:14:02Z</time>
      </trkpt>
      <trkpt lat="42.992530" lon="-2.388679">
        <ele>1232.981</ele>
        <time>2018-06-09T09:14:06Z</time>
      </trkpt>
      <trkpt lat="42.992584" lon="-2.388709">
        <ele>1230.695</ele>
        <time>2018-06-09T09:14:10Z</time>
      </trkpt>
      <trkpt lat="42.992619" lon="-2.388748">
        <ele>1229.391</ele>
        <time>2018-06-09T09:14:13Z</time>
      </trkpt>
      <trkpt lat="42.992644" lon="-2.388818">
        <ele>1228.322</ele>
        <time>2018-06-09T09:14:17Z</time>
      </trkpt>
      <trkpt lat="42.992661" lon="-2.388890">
        <ele>1228.484</ele>
        <time>2018-06-09T09:14:21Z</time>
      </trkpt>
      <trkpt lat="42.992676" lon="-2.388950">
        <ele>1228.207</ele>
        <time>2018-06-09T09:14:24Z</time>
      </trkpt>
      <trkpt lat="42.992711" lon="-2.389014">
        <ele>1227.817</ele>
        <time>2018-06-09T09:14:28Z</time>
      </trkpt>
      <trkpt lat="42.992752" lon="-2.389062">
        <ele>1227.608</ele>
        <time>2018-06-09T09:14:31Z</time>
      </trkpt>
      <trkpt lat="42.992788" lon="-2.389117">
        <ele>1227.190</ele>
        <time>2018-06-09T09:14:35Z</time>
      </trkpt>
      <trkpt lat="42.992816" lon="-2.389167">
        <ele>1226.783</ele>
        <time>2018-06-09T09:14:39Z</time>
      </trkpt>
      <trkpt lat="42.992847" lon="-2.389227">
        <ele>1227.054</ele>
        <time>2018-06-09T09:14:44Z</time>
      </trkpt>
      <trkpt lat="42.992881" lon="-2.389280">
        <ele>1227.952</ele>
        <time>2018-06-09T09:14:49Z</time>
      </trkpt>
      <trkpt lat="42.992922" lon="-2.389317">
        <ele>1229.220</ele>
        <time>2018-06-09T09:14:54Z</time>
      </trkpt>
      <trkpt lat="42.992967" lon="-2.389332">
        <ele>1230.944</ele>
        <time>2018-06-09T09:15:01Z</time>
      </trkpt>
      <trkpt lat="42.993015" lon="-2.389368">
        <ele>1232.530</ele>
        <time>2018-06-09T09:15:08Z</time>
      </trkpt>
      <trkpt lat="42.993060" lon="-2.389370">
        <ele>1234.561</ele>
        <time>2018-06-09T09:15:14Z</time>
      </trkpt>
      <trkpt lat="42.993101" lon="-2.389345">
        <ele>1235.811</ele>
        <time>2018-06-09T09:15:19Z</time>
      </trkpt>
      <trkpt lat="42.993148" lon="-2.389370">
        <ele>1238.521</ele>
        <time>2018-06-09T09:15:27Z</time>
      </trkpt>
      <trkpt lat="42.993196" lon="-2.389374">
        <ele>1240.603</ele>
        <time>2018-06-09T09:15:38Z</time>
      </trkpt>
      <trkpt lat="42.993230" lon="-2.389332">
        <ele>1242.908</ele>
        <time>2018-06-09T09:15:45Z</time>
      </trkpt>
      <trkpt lat="42.993266" lon="-2.389287">
        <ele>1244.523</ele>
        <time>2018-06-09T09:15:54Z</time>
      </trkpt>
      <trkpt lat="42.993309" lon="-2.389268">
        <ele>1246.166</ele>
        <time>2018-06-09T09:16:02Z</time>
      </trkpt>
      <trkpt lat="42.993326" lon="-2.389327">
        <ele>1248.427</ele>
        <time>2018-06-09T09:16:10Z</time>
      </trkpt>
      <trkpt lat="42.993342" lon="-2.389385">
        <ele>1250.295</ele>
        <time>2018-06-09T09:16:16Z</time>
      </trkpt>
      <trkpt lat="42.993392" lon="-2.389359">
        <ele>1251.963</ele>
        <time>2018-06-09T09:16:26Z</time>
      </trkpt>
      <trkpt lat="42.993437" lon="-2.389385">
        <ele>1253.497</ele>
        <time>2018-06-09T09:16:39Z</time>
      </trkpt>
      <trkpt lat="42.993459" lon="-2.389442">
        <ele>1255.233</ele>
        <time>2018-06-09T09:16:45Z</time>
      </trkpt>
      <trkpt lat="42.993494" lon="-2.389483">
        <ele>1257.094</ele>
        <time>2018-06-09T09:16:51Z</time>
      </trkpt>
      <trkpt lat="42.993516" lon="-2.389540">
        <ele>1258.223</ele>
        <time>2018-06-09T09:17:00Z</time>
      </trkpt>
      <trkpt lat="42.993560" lon="-2.389558">
        <ele>1260.883</ele>
        <time>2018-06-09T09:17:11Z</time>
      </trkpt>
      <trkpt lat="42.993564" lon="-2.389623">
        <ele>1263.711</ele>
        <time>2018-06-09T09:17:23Z</time>
      </trkpt>
      <trkpt lat="42.993541" lon="-2.389682">
        <ele>1265.508</ele>
        <time>2018-06-09T09:17:32Z</time>
      </trkpt>
      <trkpt lat="42.993537" lon="-2.389750">
        <ele>1267.914</ele>
        <time>2018-06-09T09:17:41Z</time>
      </trkpt>
      <trkpt lat="42.993568" lon="-2.389798">
        <ele>1270.477</ele>
        <time>2018-06-09T09:17:54Z</time>
      </trkpt>
      <trkpt lat="42.993592" lon="-2.389859">
        <ele>1273.658</ele>
        <time>2018-06-09T09:18:13Z</time>
      </trkpt>
      <trkpt lat="42.993624" lon="-2.389908">
        <ele>1275.536</ele>
        <time>2018-06-09T09:18:22Z</time>
      </trkpt>
      <trkpt lat="42.993638" lon="-2.389974">
        <ele>1277.134</ele>
        <time>2018-06-09T09:18:37Z</time>
      </trkpt>
      <trkpt lat="42.993629" lon="-2.390039">
        <ele>1277.658</ele>
        <time>2018-06-09T09:18:43Z</time>
      </trkpt>
      <trkpt lat="42.993614" lon="-2.390106">
        <ele>1278.294</ele>
        <time>2018-06-09T09:18:49Z</time>
      </trkpt>
      <trkpt lat="42.993604" lon="-2.390176">
        <ele>1279.185</ele>
        <time>2018-06-09T09:18:56Z</time>
      </trkpt>
      <trkpt lat="42.993599" lon="-2.390238">
        <ele>1278.727</ele>
        <time>2018-06-09T09:19:04Z</time>
      </trkpt>
      <trkpt lat="42.993556" lon="-2.390262">
        <ele>1278.968</ele>
        <time>2018-06-09T09:19:18Z</time>
      </trkpt>
      <trkpt lat="42.993594" lon="-2.390307">
        <ele>1279.514</ele>
        <time>2018-06-09T09:19:34Z</time>
      </trkpt>
      <trkpt lat="42.993603" lon="-2.390372">
        <ele>1279.908</ele>
        <time>2018-06-09T09:19:44Z</time>
      </trkpt>
      <trkpt lat="42.993604" lon="-2.390436">
        <ele>1281.134</ele>
        <time>2018-06-09T09:19:53Z</time>
      </trkpt>
      <trkpt lat="42.993601" lon="-2.390502">
        <ele>1282.757</ele>
        <time>2018-06-09T09:20:02Z</time>
      </trkpt>
      <trkpt lat="42.993592" lon="-2.390566">
        <ele>1285.058</ele>
        <time>2018-06-09T09:20:11Z</time>
      </trkpt>
      <trkpt lat="42.993590" lon="-2.390629">
        <ele>1287.266</ele>
        <time>2018-06-09T09:20:19Z</time>
      </trkpt>
      <trkpt lat="42.993607" lon="-2.390691">
        <ele>1290.184</ele>
        <time>2018-06-09T09:20:29Z</time>
      </trkpt>
      <trkpt lat="42.993617" lon="-2.390751">
        <ele>1291.698</ele>
        <time>2018-06-09T09:20:40Z</time>
      </trkpt>
      <trkpt lat="42.993654" lon="-2.390792">
        <ele>1292.554</ele>
        <time>2018-06-09T09:20:56Z</time>
      </trkpt>
      <trkpt lat="42.993689" lon="-2.390834">
        <ele>1293.455</ele>
        <time>2018-06-09T09:21:03Z</time>
      </trkpt>
      <trkpt lat="42.993710" lon="-2.390889">
        <ele>1296.728</ele>
        <time>2018-06-09T09:21:10Z</time>
      </trkpt>
      <trkpt lat="42.993739" lon="-2.390936">
        <ele>1299.789</ele>
        <time>2018-06-09T09:21:16Z</time>
      </trkpt>
      <trkpt lat="42.993744" lon="-2.391003">
        <ele>1302.317</ele>
        <time>2018-06-09T09:21:24Z</time>
      </trkpt>
      <trkpt lat="42.993745" lon="-2.391068">
        <ele>1304.208</ele>
        <time>2018-06-09T09:21:32Z</time>
      </trkpt>
      <trkpt lat="42.993719" lon="-2.391120">
        <ele>1306.514</ele>
        <time>2018-06-09T09:21:43Z</time>
      </trkpt>
      <trkpt lat="42.993703" lon="-2.391181">
        <ele>1310.537</ele>
        <time>2018-06-09T09:21:56Z</time>
      </trkpt>
      <trkpt lat="42.993739" lon="-2.391223">
        <ele>1314.518</ele>
        <time>2018-06-09T09:22:05Z</time>
      </trkpt>
      <trkpt lat="42.993767" lon="-2.391272">
        <ele>1318.536</ele>
        <time>2018-06-09T09:22:16Z</time>
      </trkpt>
      <trkpt lat="42.993808" lon="-2.391312">
        <ele>1322.584</ele>
        <time>2018-06-09T09:22:24Z</time>
      </trkpt>
      <trkpt lat="42.993848" lon="-2.391344">
        <ele>1326.548</ele>
        <time>2018-06-09T09:22:30Z</time>
      </trkpt>
      <trkpt lat="42.993882" lon="-2.391391">
        <ele>1330.584</ele>
        <time>2018-06-09T09:22:38Z</time>
      </trkpt>
      <trkpt lat="42.993921" lon="-2.391425">
        <ele>1334.525</ele>
        <time>2018-06-09T09:22:49Z</time>
      </trkpt>
      <trkpt lat="42.993937" lon="-2.391488">
        <ele>1337.878</ele>
        <time>2018-06-09T09:23:00Z</time>
      </trkpt>
      <trkpt lat="42.993966" lon="-2.391536">
        <ele>1340.033</ele>
        <time>2018-06-09T09:23:08Z</time>
      </trkpt>
      <trkpt lat="42.994007" lon="-2.391574">
        <ele>1341.326</ele>
        <time>2018-06-09T09:23:16Z</time>
      </trkpt>
      <trkpt lat="42.994050" lon="-2.391609">
        <ele>1342.508</ele>
        <time>2018-06-09T09:23:25Z</time>
      </trkpt>
      <trkpt lat="42.994059" lon="-2.391679">
        <ele>1343.939</ele>
        <time>2018-06-09T09:23:34Z</time>
      </trkpt>
      <trkpt lat="42.994064" lon="-2.391748">
        <ele>1344.792</ele>
        <time>2018-06-09T09:23:40Z</time>
      </trkpt>
      <trkpt lat="42.994089" lon="-2.391808">
        <ele>1345.223</ele>
        <time>2018-06-09T09:23:45Z</time>
      </trkpt>
      <trkpt lat="42.994121" lon="-2.391862">
        <ele>1345.911</ele>
        <time>2018-06-09T09:23:50Z</time>
      </trkpt>
      <trkpt lat="42.994155" lon="-2.391912">
        <ele>1346.289</ele>
        <time>2018-06-09T09:23:55Z</time>
      </trkpt>
      <trkpt lat="42.994191" lon="-2.391958">
        <ele>1346.623</ele>
        <time>2018-06-09T09:24:00Z</time>
      </trkpt>
      <trkpt lat="42.994220" lon="-2.392020">
        <ele>1346.439</ele>
        <time>2018-06-09T09:24:05Z</time>
      </trkpt>
      <trkpt lat="42.994241" lon="-2.392081">
        <ele>1346.010</ele>
        <time>2018-06-09T09:24:12Z</time>
      </trkpt>
      <trkpt lat="42.994261" lon="-2.392139">
        <ele>1345.322</ele>
        <time>2018-06-09T09:24:21Z</time>
      </trkpt>
      <trkpt lat="42.994276" lon="-2.392208">
        <ele>1344.362</ele>
        <time>2018-06-09T09:24:30Z</time>
      </trkpt>
      <trkpt lat="42.994275" lon="-2.392271">
        <ele>1344.308</ele>
        <time>2018-06-09T09:24:44Z</time>
      </trkpt>
      <trkpt lat="42.994322" lon="-2.392258">
        <ele>1346.408</ele>
        <time>2018-06-09T09:25:06Z</time>
      </trkpt>
      <trkpt lat="42.994368" lon="-2.392232">
        <ele>1347.834</ele>
        <time>2018-06-09T09:25:14Z</time>
      </trkpt>
      <trkpt lat="42.994412" lon="-2.392212">
        <ele>1349.477</ele>
        <time>2018-06-09T09:25:22Z</time>
      </trkpt>
      <trkpt lat="42.994459" lon="-2.392199">
        <ele>1352.538</ele>
        <time>2018-06-09T09:25:29Z</time>
      </trkpt>
      <trkpt lat="42.994487" lon="-2.392251">
        <ele>1355.746</ele>
        <time>2018-06-09T09:25:40Z</time>
      </trkpt>
      <trkpt lat="42.994545" lon="-2.392275">
        <ele>1359.744</ele>
        <time>2018-06-09T09:27:01Z</time>
      </trkpt>
      <trkpt lat="42.994500" lon="-2.392268">
        <ele>1361.488</ele>
        <time>2018-06-09T09:27:26Z</time>
      </trkpt>
      <trkpt lat="42.994455" lon="-2.392291">
        <ele>1360.964</ele>
        <time>2018-06-09T09:27:38Z</time>
      </trkpt>
      <trkpt lat="42.994420" lon="-2.392336">
        <ele>1359.555</ele>
        <time>2018-06-09T09:27:45Z</time>
      </trkpt>
      <trkpt lat="42.994430" lon="-2.392401">
        <ele>1360.827</ele>
        <time>2018-06-09T09:28:16Z</time>
      </trkpt>
      <trkpt lat="42.994447" lon="-2.392458">
        <ele>1362.268</ele>
        <time>2018-06-09T09:28:38Z</time>
      </trkpt>
      <trkpt lat="42.994432" lon="-2.392522">
        <ele>1362.414</ele>
        <time>2018-06-09T09:28:47Z</time>
      </trkpt>
      <trkpt lat="42.994398" lon="-2.392564">
        <ele>1361.208</ele>
        <time>2018-06-09T09:28:57Z</time>
      </trkpt>
      <trkpt lat="42.994367" lon="-2.392609">
        <ele>1358.584</ele>
        <time>2018-06-09T09:29:11Z</time>
      </trkpt>
      <trkpt lat="42.994323" lon="-2.392644">
        <ele>1355.767</ele>
        <time>2018-06-09T09:29:17Z</time>
      </trkpt>
      <trkpt lat="42.994274" lon="-2.392685">
        <ele>1352.988</ele>
        <time>2018-06-09T09:29:22Z</time>
      </trkpt>
      <trkpt lat="42.994240" lon="-2.392739">
        <ele>1352.826</ele>
        <time>2018-06-09T09:29:27Z</time>
      </trkpt>
      <trkpt lat="42.994232" lon="-2.392810">
        <ele>1351.014</ele>
        <time>2018-06-09T09:29:33Z</time>
      </trkpt>
      <trkpt lat="42.994200" lon="-2.392862">
        <ele>1348.528</ele>
        <time>2018-06-09T09:29:39Z</time>
      </trkpt>
      <trkpt lat="42.994165" lon="-2.392909">
        <ele>1345.614</ele>
        <time>2018-06-09T09:29:45Z</time>
      </trkpt>
      <trkpt lat="42.994171" lon="-2.392979">
        <ele>1342.755</ele>
        <time>2018-06-09T09:29:51Z</time>
      </trkpt>
      <trkpt lat="42.994174" lon="-2.393053">
        <ele>1340.952</ele>
        <time>2018-06-09T09:29:57Z</time>
      </trkpt>
      <trkpt lat="42.994164" lon="-2.393125">
        <ele>1338.753</ele>
        <time>2018-06-09T09:30:03Z</time>
      </trkpt>
      <trkpt lat="42.994169" lon="-2.393193">
        <ele>1336.908</ele>
        <time>2018-06-09T09:30:08Z</time>
      </trkpt>
      <trkpt lat="42.994180" lon="-2.393266">
        <ele>1334.308</ele>
        <time>2018-06-09T09:30:13Z</time>
      </trkpt>
      <trkpt lat="42.994189" lon="-2.393330">
        <ele>1332.897</ele>
        <time>2018-06-09T09:30:17Z</time>
      </trkpt>
      <trkpt lat="42.994203" lon="-2.393402">
        <ele>1331.540</ele>
        <time>2018-06-09T09:30:21Z</time>
      </trkpt>
      <trkpt lat="42.994200" lon="-2.393483">
        <ele>1330.491</ele>
        <time>2018-06-09T09:30:24Z</time>
      </trkpt>
      <trkpt lat="42.994210" lon="-2.393555">
        <ele>1329.949</ele>
        <time>2018-06-09T09:30:27Z</time>
      </trkpt>
      <trkpt lat="42.994220" lon="-2.393621">
        <ele>1329.187</ele>
        <time>2018-06-09T09:30:30Z</time>
      </trkpt>
      <trkpt lat="42.994226" lon="-2.393683">
        <ele>1328.231</ele>
        <time>2018-06-09T09:30:33Z</time>
      </trkpt>
      <trkpt lat="42.994234" lon="-2.393745">
        <ele>1327.487</ele>
        <time>2018-06-09T09:30:36Z</time>
      </trkpt>
      <trkpt lat="42.994239" lon="-2.393814">
        <ele>1326.778</ele>
        <time>2018-06-09T09:30:40Z</time>
      </trkpt>
      <trkpt lat="42.994258" lon="-2.393879">
        <ele>1326.012</ele>
        <time>2018-06-09T09:30:44Z</time>
      </trkpt>
      <trkpt lat="42.994300" lon="-2.393915">
        <ele>1325.232</ele>
        <time>2018-06-09T09:30:48Z</time>
      </trkpt>
      <trkpt lat="42.994347" lon="-2.393939">
        <ele>1324.505</ele>
        <time>2018-06-09T09:30:52Z</time>
      </trkpt>
      <trkpt lat="42.994392" lon="-2.393944">
        <ele>1323.408</ele>
        <time>2018-06-09T09:30:57Z</time>
      </trkpt>
      <trkpt lat="42.994438" lon="-2.393955">
        <ele>1322.743</ele>
        <time>2018-06-09T09:31:01Z</time>
      </trkpt>
      <trkpt lat="42.994493" lon="-2.393969">
        <ele>1322.446</ele>
        <time>2018-06-09T09:31:05Z</time>
      </trkpt>
      <trkpt lat="42.994538" lon="-2.393970">
        <ele>1321.727</ele>
        <time>2018-06-09T09:31:08Z</time>
      </trkpt>
      <trkpt lat="42.994588" lon="-2.393998">
        <ele>1320.415</ele>
        <time>2018-06-09T09:31:12Z</time>
      </trkpt>
      <trkpt lat="42.994600" lon="-2.394058">
        <ele>1319.993</ele>
        <time>2018-06-09T09:31:16Z</time>
      </trkpt>
      <trkpt lat="42.994629" lon="-2.394110">
        <ele>1319.387</ele>
        <time>2018-06-09T09:31:21Z</time>
      </trkpt>
      <trkpt lat="42.994674" lon="-2.394095">
        <ele>1317.763</ele>
        <time>2018-06-09T09:31:25Z</time>
      </trkpt>
      <trkpt lat="42.994720" lon="-2.394093">
        <ele>1316.484</ele>
        <time>2018-06-09T09:31:28Z</time>
      </trkpt>
      <trkpt lat="42.994766" lon="-2.394112">
        <ele>1315.469</ele>
        <time>2018-06-09T09:31:31Z</time>
      </trkpt>
      <trkpt lat="42.994806" lon="-2.394143">
        <ele>1314.004</ele>
        <time>2018-06-09T09:31:34Z</time>
      </trkpt>
      <trkpt lat="42.994843" lon="-2.394189">
        <ele>1313.224</ele>
        <time>2018-06-09T09:31:37Z</time>
      </trkpt>
      <trkpt lat="42.994881" lon="-2.394236">
        <ele>1311.708</ele>
        <time>2018-06-09T09:31:40Z</time>
      </trkpt>
      <trkpt lat="42.994928" lon="-2.394269">
        <ele>1310.218</ele>
        <time>2018-06-09T09:31:43Z</time>
      </trkpt>
      <trkpt lat="42.994985" lon="-2.394303">
        <ele>1308.881</ele>
        <time>2018-06-09T09:31:46Z</time>
      </trkpt>
      <trkpt lat="42.995027" lon="-2.394340">
        <ele>1307.782</ele>
        <time>2018-06-09T09:31:49Z</time>
      </trkpt>
      <trkpt lat="42.995064" lon="-2.394402">
        <ele>1306.540</ele>
        <time>2018-06-09T09:31:53Z</time>
      </trkpt>
      <trkpt lat="42.995085" lon="-2.394458">
        <ele>1305.428</ele>
        <time>2018-06-09T09:31:56Z</time>
      </trkpt>
      <trkpt lat="42.995110" lon="-2.394513">
        <ele>1304.722</ele>
        <time>2018-06-09T09:31:59Z</time>
      </trkpt>
      <trkpt lat="42.995137" lon="-2.394565">
        <ele>1304.178</ele>
        <time>2018-06-09T09:32:02Z</time>
      </trkpt>
      <trkpt lat="42.995165" lon="-2.394616">
        <ele>1303.939</ele>
        <time>2018-06-09T09:32:05Z</time>
      </trkpt>
      <trkpt lat="42.995193" lon="-2.394668">
        <ele>1303.777</ele>
        <time>2018-06-09T09:32:08Z</time>
      </trkpt>
      <trkpt lat="42.995222" lon="-2.394721">
        <ele>1303.261</ele>
        <time>2018-06-09T09:32:11Z</time>
      </trkpt>
      <trkpt lat="42.995250" lon="-2.394779">
        <ele>1303.327</ele>
        <time>2018-06-09T09:32:15Z</time>
      </trkpt>
      <trkpt lat="42.995271" lon="-2.394834">
        <ele>1303.308</ele>
        <time>2018-06-09T09:32:19Z</time>
      </trkpt>
      <trkpt lat="42.995306" lon="-2.394885">
        <ele>1303.189</ele>
        <time>2018-06-09T09:32:24Z</time>
      </trkpt>
      <trkpt lat="42.995339" lon="-2.394936">
        <ele>1302.422</ele>
        <time>2018-06-09T09:32:29Z</time>
      </trkpt>
      <trkpt lat="42.995383" lon="-2.394974">
        <ele>1302.253</ele>
        <time>2018-06-09T09:32:35Z</time>
      </trkpt>
      <trkpt lat="42.995425" lon="-2.395012">
        <ele>1302.691</ele>
        <time>2018-06-09T09:32:41Z</time>
      </trkpt>
      <trkpt lat="42.995469" lon="-2.395048">
        <ele>1302.759</ele>
        <time>2018-06-09T09:32:47Z</time>
      </trkpt>
      <trkpt lat="42.995513" lon="-2.395072">
        <ele>1303.483</ele>
        <time>2018-06-09T09:32:53Z</time>
      </trkpt>
      <trkpt lat="42.995560" lon="-2.395054">
        <ele>1305.519</ele>
        <time>2018-06-09T09:33:03Z</time>
      </trkpt>
      <trkpt lat="42.995606" lon="-2.395038">
        <ele>1308.040</ele>
        <time>2018-06-09T09:33:17Z</time>
      </trkpt>
      <trkpt lat="42.995656" lon="-2.395035">
        <ele>1310.519</ele>
        <time>2018-06-09T09:33:25Z</time>
      </trkpt>
      <trkpt lat="42.995700" lon="-2.395018">
        <ele>1313.209</ele>
        <time>2018-06-09T09:33:34Z</time>
      </trkpt>
      <trkpt lat="42.995746" lon="-2.395019">
        <ele>1316.519</ele>
        <time>2018-06-09T09:33:50Z</time>
      </trkpt>
      <trkpt lat="42.995780" lon="-2.395061">
        <ele>1319.308</ele>
        <time>2018-06-09T09:34:01Z</time>
      </trkpt>
      <trkpt lat="42.995831" lon="-2.395053">
        <ele>1321.933</ele>
        <time>2018-06-09T09:34:12Z</time>
      </trkpt>
      <trkpt lat="42.995872" lon="-2.395080">
        <ele>1324.396</ele>
        <time>2018-06-09T09:34:22Z</time>
      </trkpt>
      <trkpt lat="42.995914" lon="-2.395051">
        <ele>1326.757</ele>
        <time>2018-06-09T09:34:38Z</time>
      </trkpt>
      <trkpt lat="42.995961" lon="-2.395048">
        <ele>1328.815</ele>
        <time>2018-06-09T09:34:52Z</time>
      </trkpt>
      <trkpt lat="42.995997" lon="-2.395094">
        <ele>1331.483</ele>
        <time>2018-06-09T09:35:01Z</time>
      </trkpt>
      <trkpt lat="42.996029" lon="-2.395143">
        <ele>1334.047</ele>
        <time>2018-06-09T09:35:07Z</time>
      </trkpt>
      <trkpt lat="42.996067" lon="-2.395179">
        <ele>1335.733</ele>
        <time>2018-06-09T09:35:13Z</time>
      </trkpt>
      <trkpt lat="42.996116" lon="-2.395213">
        <ele>1337.194</ele>
        <time>2018-06-09T09:35:19Z</time>
      </trkpt>
      <trkpt lat="42.996152" lon="-2.395251">
        <ele>1338.551</ele>
        <time>2018-06-09T09:35:24Z</time>
      </trkpt>
      <trkpt lat="42.996152" lon="-2.395320">
        <ele>1340.501</ele>
        <time>2018-06-09T09:36:18Z</time>
      </trkpt>
      <trkpt lat="42.996195" lon="-2.395338">
        <ele>1341.911</ele>
        <time>2018-06-09T09:36:53Z</time>
      </trkpt>
      <trkpt lat="42.996202" lon="-2.395409">
        <ele>1342.508</ele>
        <time>2018-06-09T09:36:59Z</time>
      </trkpt>
      <trkpt lat="42.996250" lon="-2.395416">
        <ele>1341.027</ele>
        <time>2018-06-09T09:37:27Z</time>
      </trkpt>
      <trkpt lat="42.996270" lon="-2.395487">
        <ele>1340.740</ele>
        <time>2018-06-09T09:37:31Z</time>
      </trkpt>
      <trkpt lat="42.996270" lon="-2.395563">
        <ele>1339.971</ele>
        <time>2018-06-09T09:37:34Z</time>
      </trkpt>
      <trkpt lat="42.996273" lon="-2.395635">
        <ele>1339.469</ele>
        <time>2018-06-09T09:37:38Z</time>
      </trkpt>
      <trkpt lat="42.996271" lon="-2.395701">
        <ele>1338.957</ele>
        <time>2018-06-09T09:37:41Z</time>
      </trkpt>
      <trkpt lat="42.996279" lon="-2.395767">
        <ele>1338.111</ele>
        <time>2018-06-09T09:37:44Z</time>
      </trkpt>
      <trkpt lat="42.996306" lon="-2.395820">
        <ele>1336.097</ele>
        <time>2018-06-09T09:37:50Z</time>
      </trkpt>
      <trkpt lat="42.996271" lon="-2.395861">
        <ele>1333.878</ele>
        <time>2018-06-09T09:38:19Z</time>
      </trkpt>
      <trkpt lat="42.996258" lon="-2.395929">
        <ele>1332.198</ele>
        <time>2018-06-09T09:38:24Z</time>
      </trkpt>
      <trkpt lat="42.996218" lon="-2.395977">
        <ele>1330.015</ele>
        <time>2018-06-09T09:38:31Z</time>
      </trkpt>
      <trkpt lat="42.996177" lon="-2.396021">
        <ele>1328.526</ele>
        <time>2018-06-09T09:38:37Z</time>
      </trkpt>
      <trkpt lat="42.996159" lon="-2.396079">
        <ele>1327.208</ele>
        <time>2018-06-09T09:38:42Z</time>
      </trkpt>
      <trkpt lat="42.996157" lon="-2.396143">
        <ele>1326.011</ele>
        <time>2018-06-09T09:38:50Z</time>
      </trkpt>
      <trkpt lat="42.996144" lon="-2.396205">
        <ele>1324.324</ele>
        <time>2018-06-09T09:38:55Z</time>
      </trkpt>
      <trkpt lat="42.996122" lon="-2.396259">
        <ele>1323.045</ele>
        <time>2018-06-09T09:38:59Z</time>
      </trkpt>
      <trkpt lat="42.996098" lon="-2.396321">
        <ele>1322.483</ele>
        <time>2018-06-09T09:39:03Z</time>
      </trkpt>
      <trkpt lat="42.996076" lon="-2.396378">
        <ele>1322.521</ele>
        <time>2018-06-09T09:39:06Z</time>
      </trkpt>
      <trkpt lat="42.996054" lon="-2.396451">
        <ele>1322.875</ele>
        <time>2018-06-09T09:39:10Z</time>
      </trkpt>
      <trkpt lat="42.996056" lon="-2.396528">
        <ele>1322.511</ele>
        <time>2018-06-09T09:39:14Z</time>
      </trkpt>
      <trkpt lat="42.996073" lon="-2.396606">
        <ele>1322.022</ele>
        <time>2018-06-09T09:39:18Z</time>
      </trkpt>
      <trkpt lat="42.996094" lon="-2.396664">
        <ele>1321.641</ele>
        <time>2018-06-09T09:39:21Z</time>
      </trkpt>
      <trkpt lat="42.996118" lon="-2.396725">
        <ele>1321.081</ele>
        <time>2018-06-09T09:39:24Z</time>
      </trkpt>
      <trkpt lat="42.996141" lon="-2.396793">
        <ele>1319.509</ele>
        <time>2018-06-09T09:39:27Z</time>
      </trkpt>
      <trkpt lat="42.996168" lon="-2.396845">
        <ele>1318.308</ele>
        <time>2018-06-09T09:39:30Z</time>
      </trkpt>
      <trkpt lat="42.996203" lon="-2.396910">
        <ele>1317.796</ele>
        <time>2018-06-09T09:39:34Z</time>
      </trkpt>
      <trkpt lat="42.996228" lon="-2.396963">
        <ele>1316.379</ele>
        <time>2018-06-09T09:39:37Z</time>
      </trkpt>
      <trkpt lat="42.996257" lon="-2.397017">
        <ele>1315.250</ele>
        <time>2018-06-09T09:39:40Z</time>
      </trkpt>
      <trkpt lat="42.996290" lon="-2.397072">
        <ele>1313.748</ele>
        <time>2018-06-09T09:39:43Z</time>
      </trkpt>
      <trkpt lat="42.996321" lon="-2.397133">
        <ele>1312.516</ele>
        <time>2018-06-09T09:39:46Z</time>
      </trkpt>
      <trkpt lat="42.996351" lon="-2.397192">
        <ele>1311.880</ele>
        <time>2018-06-09T09:39:49Z</time>
      </trkpt>
      <trkpt lat="42.996384" lon="-2.397245">
        <ele>1311.166</ele>
        <time>2018-06-09T09:39:52Z</time>
      </trkpt>
      <trkpt lat="42.996418" lon="-2.397288">
        <ele>1310.287</ele>
        <time>2018-06-09T09:39:55Z</time>
      </trkpt>
      <trkpt lat="42.996454" lon="-2.397336">
        <ele>1310.094</ele>
        <time>2018-06-09T09:39:58Z</time>
      </trkpt>
      <trkpt lat="42.996489" lon="-2.397390">
        <ele>1309.357</ele>
        <time>2018-06-09T09:40:01Z</time>
      </trkpt>
      <trkpt lat="42.996524" lon="-2.397446">
        <ele>1308.622</ele>
        <time>2018-06-09T09:40:04Z</time>
      </trkpt>
      <trkpt lat="42.996563" lon="-2.397508">
        <ele>1308.408</ele>
        <time>2018-06-09T09:40:07Z</time>
      </trkpt>
      <trkpt lat="42.996601" lon="-2.397574">
        <ele>1308.071</ele>
        <time>2018-06-09T09:40:10Z</time>
      </trkpt>
      <trkpt lat="42.996639" lon="-2.397639">
        <ele>1307.564</ele>
        <time>2018-06-09T09:40:13Z</time>
      </trkpt>
      <trkpt lat="42.996676" lon="-2.397695">
        <ele>1306.545</ele>
        <time>2018-06-09T09:40:16Z</time>
      </trkpt>
      <trkpt lat="42.996712" lon="-2.397746">
        <ele>1305.713</ele>
        <time>2018-06-09T09:40:19Z</time>
      </trkpt>
      <trkpt lat="42.996750" lon="-2.397786">
        <ele>1304.951</ele>
        <time>2018-06-09T09:40:22Z</time>
      </trkpt>
      <trkpt lat="42.996792" lon="-2.397818">
        <ele>1303.885</ele>
        <time>2018-06-09T09:40:25Z</time>
      </trkpt>
      <trkpt lat="42.996837" lon="-2.397845">
        <ele>1302.291</ele>
        <time>2018-06-09T09:40:28Z</time>
      </trkpt>
      <trkpt lat="42.996878" lon="-2.397872">
        <ele>1301.442</ele>
        <time>2018-06-09T09:40:31Z</time>
      </trkpt>
      <trkpt lat="42.996919" lon="-2.397904">
        <ele>1300.117</ele>
        <time>2018-06-09T09:40:34Z</time>
      </trkpt>
      <trkpt lat="42.996962" lon="-2.397927">
        <ele>1298.687</ele>
        <time>2018-06-09T09:40:37Z</time>
      </trkpt>
      <trkpt lat="42.997015" lon="-2.397946">
        <ele>1297.615</ele>
        <time>2018-06-09T09:40:41Z</time>
      </trkpt>
      <trkpt lat="42.997052" lon="-2.398002">
        <ele>1296.608</ele>
        <time>2018-06-09T09:40:45Z</time>
      </trkpt>
      <trkpt lat="42.997082" lon="-2.398057">
        <ele>1296.033</ele>
        <time>2018-06-09T09:40:48Z</time>
      </trkpt>
      <trkpt lat="42.997106" lon="-2.398118">
        <ele>1295.066</ele>
        <time>2018-06-09T09:40:51Z</time>
      </trkpt>
      <trkpt lat="42.997124" lon="-2.398191">
        <ele>1293.697</ele>
        <time>2018-06-09T09:40:55Z</time>
      </trkpt>
      <trkpt lat="42.997144" lon="-2.398263">
        <ele>1292.775</ele>
        <time>2018-06-09T09:40:59Z</time>
      </trkpt>
      <trkpt lat="42.997172" lon="-2.398327">
        <ele>1291.453</ele>
        <time>2018-06-09T09:41:03Z</time>
      </trkpt>
      <trkpt lat="42.997193" lon="-2.398393">
        <ele>1290.027</ele>
        <time>2018-06-09T09:41:08Z</time>
      </trkpt>
      <trkpt lat="42.997208" lon="-2.398453">
        <ele>1288.973</ele>
        <time>2018-06-09T09:41:11Z</time>
      </trkpt>
      <trkpt lat="42.997227" lon="-2.398517">
        <ele>1288.014</ele>
        <time>2018-06-09T09:41:14Z</time>
      </trkpt>
      <trkpt lat="42.997250" lon="-2.398573">
        <ele>1287.474</ele>
        <time>2018-06-09T09:41:17Z</time>
      </trkpt>
      <trkpt lat="42.997281" lon="-2.398629">
        <ele>1286.356</ele>
        <time>2018-06-09T09:41:21Z</time>
      </trkpt>
      <trkpt lat="42.997311" lon="-2.398690">
        <ele>1285.721</ele>
        <time>2018-06-09T09:41:25Z</time>
      </trkpt>
      <trkpt lat="42.997335" lon="-2.398744">
        <ele>1284.908</ele>
        <time>2018-06-09T09:41:28Z</time>
      </trkpt>
      <trkpt lat="42.997367" lon="-2.398794">
        <ele>1284.329</ele>
        <time>2018-06-09T09:41:31Z</time>
      </trkpt>
      <trkpt lat="42.997399" lon="-2.398838">
        <ele>1284.492</ele>
        <time>2018-06-09T09:41:34Z</time>
      </trkpt>
      <trkpt lat="42.997433" lon="-2.398879">
        <ele>1284.653</ele>
        <time>2018-06-09T09:41:38Z</time>
      </trkpt>
      <trkpt lat="42.997474" lon="-2.398916">
        <ele>1283.411</ele>
        <time>2018-06-09T09:41:43Z</time>
      </trkpt>
      <trkpt lat="42.997437" lon="-2.398956">
        <ele>1283.149</ele>
        <time>2018-06-09T09:41:50Z</time>
      </trkpt>
      <trkpt lat="42.997388" lon="-2.398944">
        <ele>1283.633</ele>
        <time>2018-06-09T09:41:53Z</time>
      </trkpt>
      <trkpt lat="42.997335" lon="-2.398963">
        <ele>1283.699</ele>
        <time>2018-06-09T09:41:57Z</time>
      </trkpt>
      <trkpt lat="42.997311" lon="-2.399020">
        <ele>1282.250</ele>
        <time>2018-06-09T09:42:01Z</time>
      </trkpt>
      <trkpt lat="42.997339" lon="-2.399084">
        <ele>1281.226</ele>
        <time>2018-06-09T09:42:06Z</time>
      </trkpt>
      <trkpt lat="42.997389" lon="-2.399122">
        <ele>1279.747</ele>
        <time>2018-06-09T09:42:10Z</time>
      </trkpt>
      <trkpt lat="42.997431" lon="-2.399165">
        <ele>1278.511</ele>
        <time>2018-06-09T09:42:14Z</time>
      </trkpt>
      <trkpt lat="42.997451" lon="-2.399234">
        <ele>1277.108</ele>
        <time>2018-06-09T09:42:18Z</time>
      </trkpt>
      <trkpt lat="42.997471" lon="-2.399312">
        <ele>1275.844</ele>
        <time>2018-06-09T09:42:22Z</time>
      </trkpt>
      <trkpt lat="42.997483" lon="-2.399377">
        <ele>1275.257</ele>
        <time>2018-06-09T09:42:25Z</time>
      </trkpt>
      <trkpt lat="42.997500" lon="-2.399449">
        <ele>1274.728</ele>
        <time>2018-06-09T09:42:29Z</time>
      </trkpt>
      <trkpt lat="42.997529" lon="-2.399496">
        <ele>1273.856</ele>
        <time>2018-06-09T09:42:37Z</time>
      </trkpt>
      <trkpt lat="42.997565" lon="-2.399538">
        <ele>1273.714</ele>
        <time>2018-06-09T09:42:48Z</time>
      </trkpt>
      <trkpt lat="42.997598" lon="-2.399581">
        <ele>1274.678</ele>
        <time>2018-06-09T09:42:57Z</time>
      </trkpt>
      <trkpt lat="42.997605" lon="-2.399646">
        <ele>1274.654</ele>
        <time>2018-06-09T09:43:07Z</time>
      </trkpt>
      <trkpt lat="42.997627" lon="-2.399703">
        <ele>1274.445</ele>
        <time>2018-06-09T09:43:11Z</time>
      </trkpt>
      <trkpt lat="42.997666" lon="-2.399741">
        <ele>1275.058</ele>
        <time>2018-06-09T09:43:15Z</time>
      </trkpt>
      <trkpt lat="42.997713" lon="-2.399754">
        <ele>1275.652</ele>
        <time>2018-06-09T09:43:19Z</time>
      </trkpt>
      <trkpt lat="42.997766" lon="-2.399767">
        <ele>1276.117</ele>
        <time>2018-06-09T09:43:24Z</time>
      </trkpt>
      <trkpt lat="42.997818" lon="-2.399783">
        <ele>1276.708</ele>
        <time>2018-06-09T09:43:29Z</time>
      </trkpt>
      <trkpt lat="42.997866" lon="-2.399799">
        <ele>1277.477</ele>
        <time>2018-06-09T09:43:34Z</time>
      </trkpt>
      <trkpt lat="42.997912" lon="-2.399802">
        <ele>1277.960</ele>
        <time>2018-06-09T09:43:39Z</time>
      </trkpt>
      <trkpt lat="42.997964" lon="-2.399808">
        <ele>1279.671</ele>
        <time>2018-06-09T09:43:44Z</time>
      </trkpt>
      <trkpt lat="42.998010" lon="-2.399826">
        <ele>1280.669</ele>
        <time>2018-06-09T09:43:48Z</time>
      </trkpt>
      <trkpt lat="42.998058" lon="-2.399847">
        <ele>1281.817</ele>
        <time>2018-06-09T09:43:52Z</time>
      </trkpt>
      <trkpt lat="42.998107" lon="-2.399856">
        <ele>1282.551</ele>
        <time>2018-06-09T09:43:56Z</time>
      </trkpt>
      <trkpt lat="42.998152" lon="-2.399868">
        <ele>1283.437</ele>
        <time>2018-06-09T09:44:01Z</time>
      </trkpt>
      <trkpt lat="42.998210" lon="-2.399999">
        <ele>1284.158</ele>
        <time>2018-06-09T09:45:06Z</time>
      </trkpt>
      <trkpt lat="42.998258" lon="-2.400011">
        <ele>1284.532</ele>
        <time>2018-06-09T09:45:07Z</time>
      </trkpt>
      <trkpt lat="42.998196" lon="-2.399973">
        <ele>1284.992</ele>
        <time>2018-06-09T09:45:14Z</time>
      </trkpt>
      <trkpt lat="42.998172" lon="-2.399913">
        <ele>1284.011</ele>
        <time>2018-06-09T09:45:19Z</time>
      </trkpt>
      <trkpt lat="42.998205" lon="-2.399865">
        <ele>1284.308</ele>
        <time>2018-06-09T09:45:25Z</time>
      </trkpt>
      <trkpt lat="42.998254" lon="-2.399899">
        <ele>1285.695</ele>
        <time>2018-06-09T09:45:30Z</time>
      </trkpt>
      <trkpt lat="42.998289" lon="-2.399940">
        <ele>1286.498</ele>
        <time>2018-06-09T09:45:34Z</time>
      </trkpt>
      <trkpt lat="42.998322" lon="-2.399996">
        <ele>1287.099</ele>
        <time>2018-06-09T09:45:39Z</time>
      </trkpt>
      <trkpt lat="42.998361" lon="-2.400047">
        <ele>1287.947</ele>
        <time>2018-06-09T09:45:44Z</time>
      </trkpt>
      <trkpt lat="42.998387" lon="-2.400105">
        <ele>1288.645</ele>
        <time>2018-06-09T09:45:55Z</time>
      </trkpt>
      <trkpt lat="42.998400" lon="-2.400164">
        <ele>1288.589</ele>
        <time>2018-06-09T09:46:00Z</time>
      </trkpt>
      <trkpt lat="42.998417" lon="-2.400235">
        <ele>1289.375</ele>
        <time>2018-06-09T09:46:05Z</time>
      </trkpt>
      <trkpt lat="42.998443" lon="-2.400294">
        <ele>1289.786</ele>
        <time>2018-06-09T09:46:24Z</time>
      </trkpt>
      <trkpt lat="42.998466" lon="-2.400354">
        <ele>1290.254</ele>
        <time>2018-06-09T09:46:30Z</time>
      </trkpt>
      <trkpt lat="42.998475" lon="-2.400430">
        <ele>1290.656</ele>
        <time>2018-06-09T09:46:35Z</time>
      </trkpt>
      <trkpt lat="42.998477" lon="-2.400507">
        <ele>1290.711</ele>
        <time>2018-06-09T09:46:39Z</time>
      </trkpt>
      <trkpt lat="42.998476" lon="-2.400581">
        <ele>1290.408</ele>
        <time>2018-06-09T09:46:43Z</time>
      </trkpt>
      <trkpt lat="42.998487" lon="-2.400646">
        <ele>1290.017</ele>
        <time>2018-06-09T09:46:47Z</time>
      </trkpt>
      <trkpt lat="42.998497" lon="-2.400709">
        <ele>1289.940</ele>
        <time>2018-06-09T09:48:22Z</time>
      </trkpt>
      <trkpt lat="42.998521" lon="-2.400776">
        <ele>1289.281</ele>
        <time>2018-06-09T09:49:13Z</time>
      </trkpt>
      <trkpt lat="42.998516" lon="-2.400845">
        <ele>1288.759</ele>
        <time>2018-06-09T09:49:17Z</time>
      </trkpt>
      <trkpt lat="42.998509" lon="-2.400911">
        <ele>1288.177</ele>
        <time>2018-06-09T09:49:22Z</time>
      </trkpt>
      <trkpt lat="42.998505" lon="-2.400976">
        <ele>1287.581</ele>
        <time>2018-06-09T09:49:28Z</time>
      </trkpt>
      <trkpt lat="42.998514" lon="-2.401039">
        <ele>1286.827</ele>
        <time>2018-06-09T09:50:36Z</time>
      </trkpt>
      <trkpt lat="42.998513" lon="-2.401106">
        <ele>1286.178</ele>
        <time>2018-06-09T09:50:57Z</time>
      </trkpt>
      <trkpt lat="42.998504" lon="-2.401167">
        <ele>1285.151</ele>
        <time>2018-06-09T09:51:03Z</time>
      </trkpt>
      <trkpt lat="42.998493" lon="-2.401229">
        <ele>1283.601</ele>
        <time>2018-06-09T09:51:22Z</time>
      </trkpt>
      <trkpt lat="42.998461" lon="-2.401278">
        <ele>1281.911</ele>
        <time>2018-06-09T09:51:30Z</time>
      </trkpt>
      <trkpt lat="42.998428" lon="-2.401329">
        <ele>1280.108</ele>
        <time>2018-06-09T09:51:34Z</time>
      </trkpt>
      <trkpt lat="42.998401" lon="-2.401397">
        <ele>1278.757</ele>
        <time>2018-06-09T09:51:38Z</time>
      </trkpt>
      <trkpt lat="42.998396" lon="-2.401459">
        <ele>1277.540</ele>
        <time>2018-06-09T09:51:41Z</time>
      </trkpt>
      <trkpt lat="42.998392" lon="-2.401535">
        <ele>1276.141</ele>
        <time>2018-06-09T09:51:45Z</time>
      </trkpt>
      <trkpt lat="42.998396" lon="-2.401604">
        <ele>1275.619</ele>
        <time>2018-06-09T09:51:48Z</time>
      </trkpt>
      <trkpt lat="42.998384" lon="-2.401670">
        <ele>1275.117</ele>
        <time>2018-06-09T09:51:51Z</time>
      </trkpt>
      <trkpt lat="42.998367" lon="-2.401731">
        <ele>1274.141</ele>
        <time>2018-06-09T09:51:54Z</time>
      </trkpt>
      <trkpt lat="42.998370" lon="-2.401807">
        <ele>1273.467</ele>
        <time>2018-06-09T09:51:58Z</time>
      </trkpt>
      <trkpt lat="42.998368" lon="-2.401877">
        <ele>1270.958</ele>
        <time>2018-06-09T09:52:02Z</time>
      </trkpt>
      <trkpt lat="42.998375" lon="-2.401948">
        <ele>1268.556</ele>
        <time>2018-06-09T09:52:06Z</time>
      </trkpt>
      <trkpt lat="42.998381" lon="-2.402027">
        <ele>1266.159</ele>
        <time>2018-06-09T09:52:10Z</time>
      </trkpt>
      <trkpt lat="42.998390" lon="-2.402090">
        <ele>1263.714</ele>
        <time>2018-06-09T09:52:13Z</time>
      </trkpt>
      <trkpt lat="42.998396" lon="-2.402156">
        <ele>1261.708</ele>
        <time>2018-06-09T09:52:16Z</time>
      </trkpt>
      <trkpt lat="42.998410" lon="-2.402217">
        <ele>1259.667</ele>
        <time>2018-06-09T09:52:19Z</time>
      </trkpt>
      <trkpt lat="42.998439" lon="-2.402287">
        <ele>1256.880</ele>
        <time>2018-06-09T09:52:23Z</time>
      </trkpt>
      <trkpt lat="42.998447" lon="-2.402364">
        <ele>1253.981</ele>
        <time>2018-06-09T09:52:27Z</time>
      </trkpt>
      <trkpt lat="42.998439" lon="-2.402435">
        <ele>1251.539</ele>
        <time>2018-06-09T09:52:30Z</time>
      </trkpt>
      <trkpt lat="42.998438" lon="-2.402504">
        <ele>1249.777</ele>
        <time>2018-06-09T09:52:33Z</time>
      </trkpt>
      <trkpt lat="42.998440" lon="-2.402577">
        <ele>1248.251</ele>
        <time>2018-06-09T09:52:36Z</time>
      </trkpt>
      <trkpt lat="42.998438" lon="-2.402648">
        <ele>1246.617</ele>
        <time>2018-06-09T09:52:39Z</time>
      </trkpt>
      <trkpt lat="42.998440" lon="-2.402722">
        <ele>1244.758</ele>
        <time>2018-06-09T09:52:43Z</time>
      </trkpt>
      <trkpt lat="42.998451" lon="-2.402783">
        <ele>1243.414</ele>
        <time>2018-06-09T09:52:47Z</time>
      </trkpt>
      <trkpt lat="42.998485" lon="-2.402842">
        <ele>1241.654</ele>
        <time>2018-06-09T09:52:52Z</time>
      </trkpt>
      <trkpt lat="42.998489" lon="-2.402903">
        <ele>1239.909</ele>
        <time>2018-06-09T09:52:57Z</time>
      </trkpt>
      <trkpt lat="42.998471" lon="-2.402967">
        <ele>1238.508</ele>
        <time>2018-06-09T09:53:02Z</time>
      </trkpt>
      <trkpt lat="42.998471" lon="-2.403035">
        <ele>1237.313</ele>
        <time>2018-06-09T09:53:06Z</time>
      </trkpt>
      <trkpt lat="42.998485" lon="-2.403113">
        <ele>1234.986</ele>
        <time>2018-06-09T09:53:10Z</time>
      </trkpt>
      <trkpt lat="42.998506" lon="-2.403168">
        <ele>1232.797</ele>
        <time>2018-06-09T09:53:13Z</time>
      </trkpt>
      <trkpt lat="42.998523" lon="-2.403239">
        <ele>1230.645</ele>
        <time>2018-06-09T09:53:17Z</time>
      </trkpt>
      <trkpt lat="42.998539" lon="-2.403300">
        <ele>1228.563</ele>
        <time>2018-06-09T09:53:21Z</time>
      </trkpt>
      <trkpt lat="42.998540" lon="-2.403362">
        <ele>1225.867</ele>
        <time>2018-06-09T09:53:25Z</time>
      </trkpt>
      <trkpt lat="42.998534" lon="-2.403439">
        <ele>1222.413</ele>
        <time>2018-06-09T09:53:29Z</time>
      </trkpt>
      <trkpt lat="42.998542" lon="-2.403517">
        <ele>1220.284</ele>
        <time>2018-06-09T09:53:33Z</time>
      </trkpt>
      <trkpt lat="42.998545" lon="-2.403594">
        <ele>1217.651</ele>
        <time>2018-06-09T09:53:37Z</time>
      </trkpt>
      <trkpt lat="42.998545" lon="-2.403671">
        <ele>1215.101</ele>
        <time>2018-06-09T09:53:41Z</time>
      </trkpt>
      <trkpt lat="42.998551" lon="-2.403753">
        <ele>1212.911</ele>
        <time>2018-06-09T09:53:45Z</time>
      </trkpt>
      <trkpt lat="42.998554" lon="-2.403815">
        <ele>1210.708</ele>
        <time>2018-06-09T09:53:48Z</time>
      </trkpt>
      <trkpt lat="42.998560" lon="-2.403882">
        <ele>1207.497</ele>
        <time>2018-06-09T09:53:52Z</time>
      </trkpt>
      <trkpt lat="42.998574" lon="-2.403955">
        <ele>1204.120</ele>
        <time>2018-06-09T09:53:57Z</time>
      </trkpt>
      <trkpt lat="42.998593" lon="-2.404023">
        <ele>1201.871</ele>
        <time>2018-06-09T09:54:01Z</time>
      </trkpt>
      <trkpt lat="42.998607" lon="-2.404083">
        <ele>1199.889</ele>
        <time>2018-06-09T09:54:04Z</time>
      </trkpt>
      <trkpt lat="42.998620" lon="-2.404148">
        <ele>1197.817</ele>
        <time>2018-06-09T09:54:07Z</time>
      </trkpt>
      <trkpt lat="42.998635" lon="-2.404216">
        <ele>1196.521</ele>
        <time>2018-06-09T09:54:10Z</time>
      </trkpt>
      <trkpt lat="42.998645" lon="-2.404286">
        <ele>1195.347</ele>
        <time>2018-06-09T09:54:13Z</time>
      </trkpt>
      <trkpt lat="42.998651" lon="-2.404360">
        <ele>1194.438</ele>
        <time>2018-06-09T09:54:16Z</time>
      </trkpt>
      <trkpt lat="42.998662" lon="-2.404448">
        <ele>1192.671</ele>
        <time>2018-06-09T09:54:19Z</time>
      </trkpt>
      <trkpt lat="42.998680" lon="-2.404521">
        <ele>1190.341</ele>
        <time>2018-06-09T09:54:21Z</time>
      </trkpt>
      <trkpt lat="42.998705" lon="-2.404605">
        <ele>1188.715</ele>
        <time>2018-06-09T09:54:23Z</time>
      </trkpt>
      <trkpt lat="42.998731" lon="-2.404697">
        <ele>1187.308</ele>
        <time>2018-06-09T09:54:25Z</time>
      </trkpt>
      <trkpt lat="42.998757" lon="-2.404789">
        <ele>1186.459</ele>
        <time>2018-06-09T09:54:27Z</time>
      </trkpt>
      <trkpt lat="42.998782" lon="-2.404869">
        <ele>1185.372</ele>
        <time>2018-06-09T09:54:29Z</time>
      </trkpt>
      <trkpt lat="42.998807" lon="-2.404947">
        <ele>1183.643</ele>
        <time>2018-06-09T09:54:32Z</time>
      </trkpt>
      <trkpt lat="42.998827" lon="-2.405011">
        <ele>1182.571</ele>
        <time>2018-06-09T09:54:36Z</time>
      </trkpt>
      <trkpt lat="42.998849" lon="-2.405083">
        <ele>1182.379</ele>
        <time>2018-06-09T09:54:41Z</time>
      </trkpt>
      <trkpt lat="42.998878" lon="-2.405154">
        <ele>1181.973</ele>
        <time>2018-06-09T09:54:45Z</time>
      </trkpt>
      <trkpt lat="42.998911" lon="-2.405222">
        <ele>1181.439</ele>
        <time>2018-06-09T09:54:48Z</time>
      </trkpt>
      <trkpt lat="42.998945" lon="-2.405298">
        <ele>1180.920</ele>
        <time>2018-06-09T09:54:51Z</time>
      </trkpt>
      <trkpt lat="42.998974" lon="-2.405372">
        <ele>1180.553</ele>
        <time>2018-06-09T09:54:54Z</time>
      </trkpt>
      <trkpt lat="42.999000" lon="-2.405445">
        <ele>1179.704</ele>
        <time>2018-06-09T09:54:57Z</time>
      </trkpt>
      <trkpt lat="42.999025" lon="-2.405515">
        <ele>1179.114</ele>
        <time>2018-06-09T09:55:00Z</time>
      </trkpt>
      <trkpt lat="42.999053" lon="-2.405584">
        <ele>1178.308</ele>
        <time>2018-06-09T09:55:03Z</time>
      </trkpt>
      <trkpt lat="42.999078" lon="-2.405648">
        <ele>1177.437</ele>
        <time>2018-06-09T09:55:06Z</time>
      </trkpt>
      <trkpt lat="42.999103" lon="-2.405712">
        <ele>1175.850</ele>
        <time>2018-06-09T09:55:09Z</time>
      </trkpt>
      <trkpt lat="42.999125" lon="-2.405773">
        <ele>1174.371</ele>
        <time>2018-06-09T09:55:12Z</time>
      </trkpt>
      <trkpt lat="42.999151" lon="-2.405828">
        <ele>1173.149</ele>
        <time>2018-06-09T09:55:15Z</time>
      </trkpt>
      <trkpt lat="42.999195" lon="-2.405933">
        <ele>1172.277</ele>
        <time>2018-06-09T09:55:18Z</time>
      </trkpt>
      <trkpt lat="42.999212" lon="-2.406001">
        <ele>1170.891</ele>
        <time>2018-06-09T09:55:22Z</time>
      </trkpt>
      <trkpt lat="42.999224" lon="-2.406068">
        <ele>1169.127</ele>
        <time>2018-06-09T09:55:26Z</time>
      </trkpt>
      <trkpt lat="42.999240" lon="-2.406135">
        <ele>1167.278</ele>
        <time>2018-06-09T09:55:30Z</time>
      </trkpt>
      <trkpt lat="42.999265" lon="-2.406199">
        <ele>1165.118</ele>
        <time>2018-06-09T09:55:34Z</time>
      </trkpt>
      <trkpt lat="42.999292" lon="-2.406252">
        <ele>1163.398</ele>
        <time>2018-06-09T09:55:37Z</time>
      </trkpt>
      <trkpt lat="42.999322" lon="-2.406298">
        <ele>1161.317</ele>
        <time>2018-06-09T09:55:40Z</time>
      </trkpt>
      <trkpt lat="42.999354" lon="-2.406354">
        <ele>1159.408</ele>
        <time>2018-06-09T09:55:44Z</time>
      </trkpt>
      <trkpt lat="42.999380" lon="-2.406413">
        <ele>1157.593</ele>
        <time>2018-06-09T09:55:48Z</time>
      </trkpt>
      <trkpt lat="42.999415" lon="-2.406474">
        <ele>1156.236</ele>
        <time>2018-06-09T09:55:52Z</time>
      </trkpt>
      <trkpt lat="42.999438" lon="-2.406534">
        <ele>1155.647</ele>
        <time>2018-06-09T09:55:55Z</time>
      </trkpt>
      <trkpt lat="42.999458" lon="-2.406598">
        <ele>1154.665</ele>
        <time>2018-06-09T09:55:58Z</time>
      </trkpt>
      <trkpt lat="42.999481" lon="-2.406654">
        <ele>1153.863</ele>
        <time>2018-06-09T09:56:01Z</time>
      </trkpt>
      <trkpt lat="42.999508" lon="-2.406712">
        <ele>1153.227</ele>
        <time>2018-06-09T09:56:04Z</time>
      </trkpt>
      <trkpt lat="42.999534" lon="-2.406768">
        <ele>1152.313</ele>
        <time>2018-06-09T09:56:07Z</time>
      </trkpt>
      <trkpt lat="42.999575" lon="-2.406825">
        <ele>1151.774</ele>
        <time>2018-06-09T09:56:11Z</time>
      </trkpt>
      <trkpt lat="42.999605" lon="-2.406871">
        <ele>1150.293</ele>
        <time>2018-06-09T09:56:14Z</time>
      </trkpt>
      <trkpt lat="42.999638" lon="-2.406930">
        <ele>1148.065</ele>
        <time>2018-06-09T09:56:18Z</time>
      </trkpt>
      <trkpt lat="42.999661" lon="-2.406992">
        <ele>1145.921</ele>
        <time>2018-06-09T09:56:22Z</time>
      </trkpt>
      <trkpt lat="42.999693" lon="-2.407047">
        <ele>1143.708</ele>
        <time>2018-06-09T09:56:26Z</time>
      </trkpt>
      <trkpt lat="42.999734" lon="-2.407098">
        <ele>1142.341</ele>
        <time>2018-06-09T09:56:30Z</time>
      </trkpt>
      <trkpt lat="42.999767" lon="-2.407141">
        <ele>1139.834</ele>
        <time>2018-06-09T09:56:33Z</time>
      </trkpt>
      <trkpt lat="42.999801" lon="-2.407188">
        <ele>1138.075</ele>
        <time>2018-06-09T09:56:36Z</time>
      </trkpt>
      <trkpt lat="42.999835" lon="-2.407232">
        <ele>1136.543</ele>
        <time>2018-06-09T09:56:39Z</time>
      </trkpt>
      <trkpt lat="42.999867" lon="-2.407280">
        <ele>1135.081</ele>
        <time>2018-06-09T09:56:42Z</time>
      </trkpt>
      <trkpt lat="42.999897" lon="-2.407331">
        <ele>1134.085</ele>
        <time>2018-06-09T09:56:45Z</time>
      </trkpt>
      <trkpt lat="42.999922" lon="-2.407383">
        <ele>1132.581</ele>
        <time>2018-06-09T09:56:48Z</time>
      </trkpt>
      <trkpt lat="42.999944" lon="-2.407440">
        <ele>1130.632</ele>
        <time>2018-06-09T09:56:51Z</time>
      </trkpt>
      <trkpt lat="42.999966" lon="-2.407497">
        <ele>1129.333</ele>
        <time>2018-06-09T09:56:54Z</time>
      </trkpt>
      <trkpt lat="42.999998" lon="-2.407563">
        <ele>1127.723</ele>
        <time>2018-06-09T09:56:58Z</time>
      </trkpt>
      <trkpt lat="43.000036" lon="-2.407628">
        <ele>1126.315</ele>
        <time>2018-06-09T09:57:02Z</time>
      </trkpt>
      <trkpt lat="43.000066" lon="-2.407680">
        <ele>1124.808</ele>
        <time>2018-06-09T09:57:05Z</time>
      </trkpt>
      <trkpt lat="43.000093" lon="-2.407733">
        <ele>1123.675</ele>
        <time>2018-06-09T09:57:08Z</time>
      </trkpt>
      <trkpt lat="43.000121" lon="-2.407785">
        <ele>1122.418</ele>
        <time>2018-06-09T09:57:11Z</time>
      </trkpt>
      <trkpt lat="43.000149" lon="-2.407839">
        <ele>1120.859</ele>
        <time>2018-06-09T09:57:14Z</time>
      </trkpt>
      <trkpt lat="43.000176" lon="-2.407890">
        <ele>1119.667</ele>
        <time>2018-06-09T09:57:17Z</time>
      </trkpt>
      <trkpt lat="43.000203" lon="-2.407941">
        <ele>1118.365</ele>
        <time>2018-06-09T09:57:20Z</time>
      </trkpt>
      <trkpt lat="43.000235" lon="-2.407993">
        <ele>1117.519</ele>
        <time>2018-06-09T09:57:23Z</time>
      </trkpt>
      <trkpt lat="43.000269" lon="-2.408042">
        <ele>1117.335</ele>
        <time>2018-06-09T09:57:26Z</time>
      </trkpt>
      <trkpt lat="43.000301" lon="-2.408092">
        <ele>1116.456</ele>
        <time>2018-06-09T09:57:29Z</time>
      </trkpt>
      <trkpt lat="43.000329" lon="-2.408146">
        <ele>1114.626</ele>
        <time>2018-06-09T09:57:32Z</time>
      </trkpt>
      <trkpt lat="43.000354" lon="-2.408204">
        <ele>1113.047</ele>
        <time>2018-06-09T09:57:35Z</time>
      </trkpt>
      <trkpt lat="43.000372" lon="-2.408268">
        <ele>1110.711</ele>
        <time>2018-06-09T09:57:38Z</time>
      </trkpt>
      <trkpt lat="43.000396" lon="-2.408338">
        <ele>1109.108</ele>
        <time>2018-06-09T09:57:41Z</time>
      </trkpt>
      <trkpt lat="43.000421" lon="-2.408404">
        <ele>1108.034</ele>
        <time>2018-06-09T09:57:44Z</time>
      </trkpt>
      <trkpt lat="43.000449" lon="-2.408462">
        <ele>1106.697</ele>
        <time>2018-06-09T09:57:47Z</time>
      </trkpt>
      <trkpt lat="43.000474" lon="-2.408516">
        <ele>1105.788</ele>
        <time>2018-06-09T09:57:50Z</time>
      </trkpt>
      <trkpt lat="43.000503" lon="-2.408576">
        <ele>1104.246</ele>
        <time>2018-06-09T09:57:54Z</time>
      </trkpt>
      <trkpt lat="43.000532" lon="-2.408644">
        <ele>1102.944</ele>
        <time>2018-06-09T09:57:58Z</time>
      </trkpt>
      <trkpt lat="43.000555" lon="-2.408705">
        <ele>1101.548</ele>
        <time>2018-06-09T09:58:01Z</time>
      </trkpt>
      <trkpt lat="43.000580" lon="-2.408773">
        <ele>1100.764</ele>
        <time>2018-06-09T09:58:04Z</time>
      </trkpt>
      <trkpt lat="43.000615" lon="-2.408833">
        <ele>1100.035</ele>
        <time>2018-06-09T09:58:07Z</time>
      </trkpt>
      <trkpt lat="43.000652" lon="-2.408893">
        <ele>1099.383</ele>
        <time>2018-06-09T09:58:10Z</time>
      </trkpt>
      <trkpt lat="43.000681" lon="-2.408960">
        <ele>1097.825</ele>
        <time>2018-06-09T09:58:13Z</time>
      </trkpt>
      <trkpt lat="43.000706" lon="-2.409013">
        <ele>1096.417</ele>
        <time>2018-06-09T09:58:16Z</time>
      </trkpt>
      <trkpt lat="43.000733" lon="-2.409067">
        <ele>1094.508</ele>
        <time>2018-06-09T09:58:19Z</time>
      </trkpt>
      <trkpt lat="43.000764" lon="-2.409122">
        <ele>1093.070</ele>
        <time>2018-06-09T09:58:22Z</time>
      </trkpt>
      <trkpt lat="43.000790" lon="-2.409181">
        <ele>1091.353</ele>
        <time>2018-06-09T09:58:25Z</time>
      </trkpt>
      <trkpt lat="43.000813" lon="-2.409236">
        <ele>1090.174</ele>
        <time>2018-06-09T09:58:28Z</time>
      </trkpt>
      <trkpt lat="43.000837" lon="-2.409289">
        <ele>1089.212</ele>
        <time>2018-06-09T09:58:31Z</time>
      </trkpt>
      <trkpt lat="43.000867" lon="-2.409339">
        <ele>1087.940</ele>
        <time>2018-06-09T09:58:34Z</time>
      </trkpt>
      <trkpt lat="43.000898" lon="-2.409391">
        <ele>1086.864</ele>
        <time>2018-06-09T09:58:37Z</time>
      </trkpt>
      <trkpt lat="43.000929" lon="-2.409444">
        <ele>1085.690</ele>
        <time>2018-06-09T09:58:40Z</time>
      </trkpt>
      <trkpt lat="43.000961" lon="-2.409496">
        <ele>1084.981</ele>
        <time>2018-06-09T09:58:43Z</time>
      </trkpt>
      <trkpt lat="43.000988" lon="-2.409550">
        <ele>1084.549</ele>
        <time>2018-06-09T09:58:46Z</time>
      </trkpt>
      <trkpt lat="43.001018" lon="-2.409604">
        <ele>1083.002</ele>
        <time>2018-06-09T09:58:49Z</time>
      </trkpt>
      <trkpt lat="43.001051" lon="-2.409651">
        <ele>1082.622</ele>
        <time>2018-06-09T09:58:52Z</time>
      </trkpt>
      <trkpt lat="43.001084" lon="-2.409700">
        <ele>1081.708</ele>
        <time>2018-06-09T09:58:55Z</time>
      </trkpt>
      <trkpt lat="43.001115" lon="-2.409749">
        <ele>1080.636</ele>
        <time>2018-06-09T09:58:58Z</time>
      </trkpt>
      <trkpt lat="43.001145" lon="-2.409801">
        <ele>1079.339</ele>
        <time>2018-06-09T09:59:01Z</time>
      </trkpt>
      <trkpt lat="43.001177" lon="-2.409852">
        <ele>1078.140</ele>
        <time>2018-06-09T09:59:04Z</time>
      </trkpt>
      <trkpt lat="43.001205" lon="-2.409903">
        <ele>1077.568</ele>
        <time>2018-06-09T09:59:07Z</time>
      </trkpt>
      <trkpt lat="43.001239" lon="-2.409968">
        <ele>1077.026</ele>
        <time>2018-06-09T09:59:11Z</time>
      </trkpt>
      <trkpt lat="43.001275" lon="-2.410031">
        <ele>1076.040</ele>
        <time>2018-06-09T09:59:15Z</time>
      </trkpt>
      <trkpt lat="43.001299" lon="-2.410102">
        <ele>1075.176</ele>
        <time>2018-06-09T09:59:19Z</time>
      </trkpt>
      <trkpt lat="43.001321" lon="-2.410157">
        <ele>1074.617</ele>
        <time>2018-06-09T09:59:22Z</time>
      </trkpt>
      <trkpt lat="43.001346" lon="-2.410211">
        <ele>1074.242</ele>
        <time>2018-06-09T09:59:25Z</time>
      </trkpt>
      <trkpt lat="43.001370" lon="-2.410269">
        <ele>1074.022</ele>
        <time>2018-06-09T09:59:28Z</time>
      </trkpt>
      <trkpt lat="43.001394" lon="-2.410327">
        <ele>1073.414</ele>
        <time>2018-06-09T09:59:31Z</time>
      </trkpt>
      <trkpt lat="43.001419" lon="-2.410385">
        <ele>1072.608</ele>
        <time>2018-06-09T09:59:34Z</time>
      </trkpt>
      <trkpt lat="43.001443" lon="-2.410446">
        <ele>1071.796</ele>
        <time>2018-06-09T09:59:37Z</time>
      </trkpt>
      <trkpt lat="43.001463" lon="-2.410508">
        <ele>1070.129</ele>
        <time>2018-06-09T09:59:40Z</time>
      </trkpt>
      <trkpt lat="43.001487" lon="-2.410574">
        <ele>1068.410</ele>
        <time>2018-06-09T09:59:43Z</time>
      </trkpt>
      <trkpt lat="43.001513" lon="-2.410643">
        <ele>1066.848</ele>
        <time>2018-06-09T09:59:46Z</time>
      </trkpt>
      <trkpt lat="43.001540" lon="-2.410709">
        <ele>1065.116</ele>
        <time>2018-06-09T09:59:49Z</time>
      </trkpt>
      <trkpt lat="43.001566" lon="-2.410774">
        <ele>1063.770</ele>
        <time>2018-06-09T09:59:52Z</time>
      </trkpt>
      <trkpt lat="43.001595" lon="-2.410837">
        <ele>1062.336</ele>
        <time>2018-06-09T09:59:55Z</time>
      </trkpt>
      <trkpt lat="43.001621" lon="-2.410899">
        <ele>1061.247</ele>
        <time>2018-06-09T09:59:58Z</time>
      </trkpt>
      <trkpt lat="43.001648" lon="-2.410960">
        <ele>1060.318</ele>
        <time>2018-06-09T10:00:01Z</time>
      </trkpt>
      <trkpt lat="43.001676" lon="-2.411024">
        <ele>1059.698</ele>
        <time>2018-06-09T10:00:04Z</time>
      </trkpt>
      <trkpt lat="43.001704" lon="-2.411092">
        <ele>1058.717</ele>
        <time>2018-06-09T10:00:07Z</time>
      </trkpt>
      <trkpt lat="43.001731" lon="-2.411158">
        <ele>1057.508</ele>
        <time>2018-06-09T10:00:10Z</time>
      </trkpt>
      <trkpt lat="43.001757" lon="-2.411221">
        <ele>1056.673</ele>
        <time>2018-06-09T10:00:13Z</time>
      </trkpt>
      <trkpt lat="43.001783" lon="-2.411284">
        <ele>1056.016</ele>
        <time>2018-06-09T10:00:16Z</time>
      </trkpt>
      <trkpt lat="43.001806" lon="-2.411345">
        <ele>1055.477</ele>
        <time>2018-06-09T10:00:19Z</time>
      </trkpt>
      <trkpt lat="43.001831" lon="-2.411403">
        <ele>1054.085</ele>
        <time>2018-06-09T10:00:22Z</time>
      </trkpt>
      <trkpt lat="43.001859" lon="-2.411459">
        <ele>1052.853</ele>
        <time>2018-06-09T10:00:25Z</time>
      </trkpt>
      <trkpt lat="43.001886" lon="-2.411513">
        <ele>1051.927</ele>
        <time>2018-06-09T10:00:28Z</time>
      </trkpt>
      <trkpt lat="43.001908" lon="-2.411566">
        <ele>1051.463</ele>
        <time>2018-06-09T10:00:31Z</time>
      </trkpt>
      <trkpt lat="43.001932" lon="-2.411621">
        <ele>1051.174</ele>
        <time>2018-06-09T10:00:34Z</time>
      </trkpt>
      <trkpt lat="43.001955" lon="-2.411678">
        <ele>1050.623</ele>
        <time>2018-06-09T10:00:37Z</time>
      </trkpt>
      <trkpt lat="43.001978" lon="-2.411735">
        <ele>1049.883</ele>
        <time>2018-06-09T10:00:40Z</time>
      </trkpt>
      <trkpt lat="43.002001" lon="-2.411794">
        <ele>1049.711</ele>
        <time>2018-06-09T10:00:43Z</time>
      </trkpt>
      <trkpt lat="43.002028" lon="-2.411855">
        <ele>1049.308</ele>
        <time>2018-06-09T10:00:46Z</time>
      </trkpt>
      <trkpt lat="43.002052" lon="-2.411920">
        <ele>1049.434</ele>
        <time>2018-06-09T10:00:49Z</time>
      </trkpt>
      <trkpt lat="43.002076" lon="-2.411982">
        <ele>1049.287</ele>
        <time>2018-06-09T10:00:52Z</time>
      </trkpt>
      <trkpt lat="43.002101" lon="-2.412044">
        <ele>1048.578</ele>
        <time>2018-06-09T10:00:55Z</time>
      </trkpt>
      <trkpt lat="43.002128" lon="-2.412105">
        <ele>1047.916</ele>
        <time>2018-06-09T10:00:58Z</time>
      </trkpt>
      <trkpt lat="43.002154" lon="-2.412170">
        <ele>1047.764</ele>
        <time>2018-06-09T10:01:01Z</time>
      </trkpt>
      <trkpt lat="43.002178" lon="-2.412237">
        <ele>1047.548</ele>
        <time>2018-06-09T10:01:04Z</time>
      </trkpt>
      <trkpt lat="43.002199" lon="-2.412306">
        <ele>1047.324</ele>
        <time>2018-06-09T10:01:07Z</time>
      </trkpt>
      <trkpt lat="43.002219" lon="-2.412370">
        <ele>1046.745</ele>
        <time>2018-06-09T10:01:10Z</time>
      </trkpt>
      <trkpt lat="43.002244" lon="-2.412429">
        <ele>1045.541</ele>
        <time>2018-06-09T10:01:13Z</time>
      </trkpt>
      <trkpt lat="43.002278" lon="-2.412489">
        <ele>1043.781</ele>
        <time>2018-06-09T10:01:16Z</time>
      </trkpt>
      <trkpt lat="43.002308" lon="-2.412544">
        <ele>1042.009</ele>
        <time>2018-06-09T10:01:19Z</time>
      </trkpt>
      <trkpt lat="43.002337" lon="-2.412608">
        <ele>1040.408</ele>
        <time>2018-06-09T10:01:22Z</time>
      </trkpt>
      <trkpt lat="43.002357" lon="-2.412665">
        <ele>1039.026</ele>
        <time>2018-06-09T10:01:25Z</time>
      </trkpt>
      <trkpt lat="43.002374" lon="-2.412731">
        <ele>1037.929</ele>
        <time>2018-06-09T10:01:28Z</time>
      </trkpt>
      <trkpt lat="43.002379" lon="-2.412793">
        <ele>1036.840</ele>
        <time>2018-06-09T10:01:37Z</time>
      </trkpt>
      <trkpt lat="43.002387" lon="-2.412854">
        <ele>1035.588</ele>
        <time>2018-06-09T10:01:49Z</time>
      </trkpt>
      <trkpt lat="43.002401" lon="-2.412914">
        <ele>1034.126</ele>
        <time>2018-06-09T10:01:53Z</time>
      </trkpt>
      <trkpt lat="43.002412" lon="-2.412975">
        <ele>1032.410</ele>
        <time>2018-06-09T10:01:57Z</time>
      </trkpt>
      <trkpt lat="43.002436" lon="-2.413037">
        <ele>1031.336</ele>
        <time>2018-06-09T10:02:02Z</time>
      </trkpt>
      <trkpt lat="43.002466" lon="-2.413092">
        <ele>1030.047</ele>
        <time>2018-06-09T10:02:07Z</time>
      </trkpt>
      <trkpt lat="43.002498" lon="-2.413155">
        <ele>1029.221</ele>
        <time>2018-06-09T10:02:11Z</time>
      </trkpt>
      <trkpt lat="43.002522" lon="-2.413207">
        <ele>1028.541</ele>
        <time>2018-06-09T10:02:14Z</time>
      </trkpt>
      <trkpt lat="43.002549" lon="-2.413262">
        <ele>1027.405</ele>
        <time>2018-06-09T10:02:17Z</time>
      </trkpt>
      <trkpt lat="43.002574" lon="-2.413317">
        <ele>1026.308</ele>
        <time>2018-06-09T10:02:20Z</time>
      </trkpt>
      <trkpt lat="43.002596" lon="-2.413380">
        <ele>1025.054</ele>
        <time>2018-06-09T10:02:23Z</time>
      </trkpt>
      <trkpt lat="43.002609" lon="-2.413454">
        <ele>1023.647</ele>
        <time>2018-06-09T10:02:26Z</time>
      </trkpt>
      <trkpt lat="43.002617" lon="-2.413535">
        <ele>1022.438</ele>
        <time>2018-06-09T10:02:29Z</time>
      </trkpt>
      <trkpt lat="43.002626" lon="-2.413622">
        <ele>1022.086</ele>
        <time>2018-06-09T10:02:32Z</time>
      </trkpt>
      <trkpt lat="43.002644" lon="-2.413700">
        <ele>1021.744</ele>
        <time>2018-06-09T10:02:35Z</time>
      </trkpt>
      <trkpt lat="43.002668" lon="-2.413761">
        <ele>1020.528</ele>
        <time>2018-06-09T10:02:38Z</time>
      </trkpt>
      <trkpt lat="43.002700" lon="-2.413828">
        <ele>1019.314</ele>
        <time>2018-06-09T10:02:42Z</time>
      </trkpt>
      <trkpt lat="43.002719" lon="-2.413902">
        <ele>1018.065</ele>
        <time>2018-06-09T10:02:46Z</time>
      </trkpt>
      <trkpt lat="43.002733" lon="-2.413964">
        <ele>1016.323</ele>
        <time>2018-06-09T10:02:49Z</time>
      </trkpt>
      <trkpt lat="43.002752" lon="-2.414027">
        <ele>1015.083</ele>
        <time>2018-06-09T10:02:52Z</time>
      </trkpt>
      <trkpt lat="43.002767" lon="-2.414097">
        <ele>1013.911</ele>
        <time>2018-06-09T10:02:55Z</time>
      </trkpt>
      <trkpt lat="43.002783" lon="-2.414170">
        <ele>1013.108</ele>
        <time>2018-06-09T10:02:58Z</time>
      </trkpt>
      <trkpt lat="43.002801" lon="-2.414247">
        <ele>1012.594</ele>
        <time>2018-06-09T10:03:01Z</time>
      </trkpt>
      <trkpt lat="43.002825" lon="-2.414315">
        <ele>1011.487</ele>
        <time>2018-06-09T10:03:04Z</time>
      </trkpt>
      <trkpt lat="43.002848" lon="-2.414378">
        <ele>1010.538</ele>
        <time>2018-06-09T10:03:07Z</time>
      </trkpt>
      <trkpt lat="43.002869" lon="-2.414445">
        <ele>1010.026</ele>
        <time>2018-06-09T10:03:10Z</time>
      </trkpt>
      <trkpt lat="43.002888" lon="-2.414513">
        <ele>1009.374</ele>
        <time>2018-06-09T10:03:13Z</time>
      </trkpt>
      <trkpt lat="43.002897" lon="-2.414582">
        <ele>1008.278</ele>
        <time>2018-06-09T10:03:16Z</time>
      </trkpt>
      <trkpt lat="43.002905" lon="-2.414651">
        <ele>1007.164</ele>
        <time>2018-06-09T10:03:19Z</time>
      </trkpt>
      <trkpt lat="43.002922" lon="-2.414719">
        <ele>1006.215</ele>
        <time>2018-06-09T10:03:22Z</time>
      </trkpt>
      <trkpt lat="43.002940" lon="-2.414783">
        <ele>1004.877</ele>
        <time>2018-06-09T10:03:25Z</time>
      </trkpt>
      <trkpt lat="43.002956" lon="-2.414845">
        <ele>1004.061</ele>
        <time>2018-06-09T10:03:28Z</time>
      </trkpt>
      <trkpt lat="43.002970" lon="-2.414905">
        <ele>1003.127</ele>
        <time>2018-06-09T10:03:31Z</time>
      </trkpt>
      <trkpt lat="43.002987" lon="-2.414982">
        <ele>1003.008</ele>
        <time>2018-06-09T10:03:35Z</time>
      </trkpt>
      <trkpt lat="43.003002" lon="-2.415061">
        <ele>1002.969</ele>
        <time>2018-06-09T10:03:39Z</time>
      </trkpt>
      <trkpt lat="43.003015" lon="-2.415124">
        <ele>1002.452</ele>
        <time>2018-06-09T10:03:42Z</time>
      </trkpt>
      <trkpt lat="43.003031" lon="-2.415192">
        <ele>1001.923</ele>
        <time>2018-06-09T10:03:45Z</time>
      </trkpt>
      <trkpt lat="43.003046" lon="-2.415263">
        <ele>1001.681</ele>
        <time>2018-06-09T10:03:48Z</time>
      </trkpt>
      <trkpt lat="43.003060" lon="-2.415339">
        <ele>1001.429</ele>
        <time>2018-06-09T10:03:51Z</time>
      </trkpt>
      <trkpt lat="43.003080" lon="-2.415403">
        <ele>1001.163</ele>
        <time>2018-06-09T10:03:54Z</time>
      </trkpt>
      <trkpt lat="43.003101" lon="-2.415461">
        <ele>1000.779</ele>
        <time>2018-06-09T10:03:57Z</time>
      </trkpt>
      <trkpt lat="43.003120" lon="-2.415519">
        <ele>1000.040</ele>
        <time>2018-06-09T10:04:00Z</time>
      </trkpt>
      <trkpt lat="43.003137" lon="-2.415580">
        <ele>999.658</ele>
        <time>2018-06-09T10:04:03Z</time>
      </trkpt>
      <trkpt lat="43.003152" lon="-2.415645">
        <ele>999.252</ele>
        <time>2018-06-09T10:04:06Z</time>
      </trkpt>
      <trkpt lat="43.003166" lon="-2.415706">
        <ele>998.517</ele>
        <time>2018-06-09T10:04:09Z</time>
      </trkpt>
      <trkpt lat="43.003177" lon="-2.415775">
        <ele>998.308</ele>
        <time>2018-06-09T10:04:12Z</time>
      </trkpt>
      <trkpt lat="43.003189" lon="-2.415844">
        <ele>997.777</ele>
        <time>2018-06-09T10:04:15Z</time>
      </trkpt>
      <trkpt lat="43.003202" lon="-2.415906">
        <ele>997.090</ele>
        <time>2018-06-09T10:04:18Z</time>
      </trkpt>
      <trkpt lat="43.003216" lon="-2.415967">
        <ele>996.281</ele>
        <time>2018-06-09T10:04:21Z</time>
      </trkpt>
      <trkpt lat="43.003231" lon="-2.416026">
        <ele>995.729</ele>
        <time>2018-06-09T10:04:24Z</time>
      </trkpt>
      <trkpt lat="43.003247" lon="-2.416086">
        <ele>995.267</ele>
        <time>2018-06-09T10:04:27Z</time>
      </trkpt>
      <trkpt lat="43.003265" lon="-2.416148">
        <ele>994.031</ele>
        <time>2018-06-09T10:04:30Z</time>
      </trkpt>
      <trkpt lat="43.003280" lon="-2.416209">
        <ele>993.437</ele>
        <time>2018-06-09T10:04:33Z</time>
      </trkpt>
      <trkpt lat="43.003293" lon="-2.416271">
        <ele>993.598</ele>
        <time>2018-06-09T10:04:36Z</time>
      </trkpt>
      <trkpt lat="43.003305" lon="-2.416336">
        <ele>993.983</ele>
        <time>2018-06-09T10:04:39Z</time>
      </trkpt>
      <trkpt lat="43.003314" lon="-2.416402">
        <ele>993.625</ele>
        <time>2018-06-09T10:04:42Z</time>
      </trkpt>
      <trkpt lat="43.003323" lon="-2.416474">
        <ele>993.617</ele>
        <time>2018-06-09T10:04:45Z</time>
      </trkpt>
      <trkpt lat="43.003329" lon="-2.416558">
        <ele>992.608</ele>
        <time>2018-06-09T10:04:48Z</time>
      </trkpt>
      <trkpt lat="43.003330" lon="-2.416621">
        <ele>992.140</ele>
        <time>2018-06-09T10:04:50Z</time>
      </trkpt>
      <trkpt lat="43.003328" lon="-2.416683">
        <ele>991.323</ele>
        <time>2018-06-09T10:04:52Z</time>
      </trkpt>
      <trkpt lat="43.003335" lon="-2.416768">
        <ele>990.454</ele>
        <time>2018-06-09T10:04:55Z</time>
      </trkpt>
      <trkpt lat="43.003344" lon="-2.416838">
        <ele>989.862</ele>
        <time>2018-06-09T10:04:58Z</time>
      </trkpt>
      <trkpt lat="43.003354" lon="-2.416901">
        <ele>989.290</ele>
        <time>2018-06-09T10:05:01Z</time>
      </trkpt>
      <trkpt lat="43.003363" lon="-2.416963">
        <ele>989.674</ele>
        <time>2018-06-09T10:05:04Z</time>
      </trkpt>
      <trkpt lat="43.003371" lon="-2.417029">
        <ele>989.330</ele>
        <time>2018-06-09T10:05:07Z</time>
      </trkpt>
      <trkpt lat="43.003379" lon="-2.417096">
        <ele>988.761</ele>
        <time>2018-06-09T10:05:10Z</time>
      </trkpt>
      <trkpt lat="43.003389" lon="-2.417160">
        <ele>987.748</ele>
        <time>2018-06-09T10:05:13Z</time>
      </trkpt>
      <trkpt lat="43.003401" lon="-2.417223">
        <ele>986.561</ele>
        <time>2018-06-09T10:05:16Z</time>
      </trkpt>
      <trkpt lat="43.003412" lon="-2.417289">
        <ele>985.417</ele>
        <time>2018-06-09T10:05:19Z</time>
      </trkpt>
      <trkpt lat="43.003425" lon="-2.417360">
        <ele>984.508</ele>
        <time>2018-06-09T10:05:22Z</time>
      </trkpt>
      <trkpt lat="43.003439" lon="-2.417432">
        <ele>983.276</ele>
        <time>2018-06-09T10:05:25Z</time>
      </trkpt>
      <trkpt lat="43.003448" lon="-2.417504">
        <ele>982.549</ele>
        <time>2018-06-09T10:05:28Z</time>
      </trkpt>
      <trkpt lat="43.003454" lon="-2.417575">
        <ele>981.880</ele>
        <time>2018-06-09T10:05:31Z</time>
      </trkpt>
      <trkpt lat="43.003462" lon="-2.417646">
        <ele>980.458</ele>
        <time>2018-06-09T10:05:34Z</time>
      </trkpt>
      <trkpt lat="43.003471" lon="-2.417713">
        <ele>979.466</ele>
        <time>2018-06-09T10:05:37Z</time>
      </trkpt>
      <trkpt lat="43.003480" lon="-2.417779">
        <ele>978.570</ele>
        <time>2018-06-09T10:05:40Z</time>
      </trkpt>
      <trkpt lat="43.003491" lon="-2.417839">
        <ele>977.956</ele>
        <time>2018-06-09T10:05:43Z</time>
      </trkpt>
      <trkpt lat="43.003505" lon="-2.417918">
        <ele>977.527</ele>
        <time>2018-06-09T10:05:47Z</time>
      </trkpt>
      <trkpt lat="43.003515" lon="-2.417980">
        <ele>977.175</ele>
        <time>2018-06-09T10:05:50Z</time>
      </trkpt>
      <trkpt lat="43.003525" lon="-2.418044">
        <ele>976.728</ele>
        <time>2018-06-09T10:05:53Z</time>
      </trkpt>
      <trkpt lat="43.003535" lon="-2.418108">
        <ele>975.720</ele>
        <time>2018-06-09T10:05:56Z</time>
      </trkpt>
      <trkpt lat="43.003543" lon="-2.418173">
        <ele>974.908</ele>
        <time>2018-06-09T10:05:59Z</time>
      </trkpt>
      <trkpt lat="43.003552" lon="-2.418239">
        <ele>974.239</ele>
        <time>2018-06-09T10:06:02Z</time>
      </trkpt>
      <trkpt lat="43.003561" lon="-2.418307">
        <ele>973.642</ele>
        <time>2018-06-09T10:06:05Z</time>
      </trkpt>
      <trkpt lat="43.003573" lon="-2.418376">
        <ele>972.733</ele>
        <time>2018-06-09T10:06:08Z</time>
      </trkpt>
      <trkpt lat="43.003584" lon="-2.418446">
        <ele>972.271</ele>
        <time>2018-06-09T10:06:11Z</time>
      </trkpt>
      <trkpt lat="43.003588" lon="-2.418516">
        <ele>971.789</ele>
        <time>2018-06-09T10:06:14Z</time>
      </trkpt>
      <trkpt lat="43.003589" lon="-2.418586">
        <ele>971.123</ele>
        <time>2018-06-09T10:06:17Z</time>
      </trkpt>
      <trkpt lat="43.003591" lon="-2.418657">
        <ele>970.199</ele>
        <time>2018-06-09T10:06:20Z</time>
      </trkpt>
      <trkpt lat="43.003589" lon="-2.418729">
        <ele>969.370</ele>
        <time>2018-06-09T10:06:23Z</time>
      </trkpt>
      <trkpt lat="43.003593" lon="-2.418803">
        <ele>968.431</ele>
        <time>2018-06-09T10:06:26Z</time>
      </trkpt>
      <trkpt lat="43.003592" lon="-2.418877">
        <ele>967.861</ele>
        <time>2018-06-09T10:06:29Z</time>
      </trkpt>
      <trkpt lat="43.003593" lon="-2.418948">
        <ele>967.407</ele>
        <time>2018-06-09T10:06:32Z</time>
      </trkpt>
      <trkpt lat="43.003595" lon="-2.419022">
        <ele>967.108</ele>
        <time>2018-06-09T10:06:35Z</time>
      </trkpt>
      <trkpt lat="43.003597" lon="-2.419094">
        <ele>966.485</ele>
        <time>2018-06-09T10:06:38Z</time>
      </trkpt>
      <trkpt lat="43.003595" lon="-2.419166">
        <ele>965.858</ele>
        <time>2018-06-09T10:06:41Z</time>
      </trkpt>
      <trkpt lat="43.003594" lon="-2.419237">
        <ele>965.229</ele>
        <time>2018-06-09T10:06:44Z</time>
      </trkpt>
      <trkpt lat="43.003594" lon="-2.419305">
        <ele>964.427</ele>
        <time>2018-06-09T10:06:47Z</time>
      </trkpt>
      <trkpt lat="43.003598" lon="-2.419374">
        <ele>964.155</ele>
        <time>2018-06-09T10:06:50Z</time>
      </trkpt>
      <trkpt lat="43.003601" lon="-2.419442">
        <ele>963.889</ele>
        <time>2018-06-09T10:06:53Z</time>
      </trkpt>
      <trkpt lat="43.003612" lon="-2.419517">
        <ele>962.725</ele>
        <time>2018-06-09T10:06:56Z</time>
      </trkpt>
      <trkpt lat="43.003623" lon="-2.419600">
        <ele>961.956</ele>
        <time>2018-06-09T10:07:00Z</time>
      </trkpt>
      <trkpt lat="43.003623" lon="-2.419673">
        <ele>961.118</ele>
        <time>2018-06-09T10:07:03Z</time>
      </trkpt>
      <trkpt lat="43.003622" lon="-2.419737">
        <ele>960.298</ele>
        <time>2018-06-09T10:07:06Z</time>
      </trkpt>
      <trkpt lat="43.003621" lon="-2.419807">
        <ele>959.517</ele>
        <time>2018-06-09T10:07:09Z</time>
      </trkpt>
      <trkpt lat="43.003620" lon="-2.419878">
        <ele>958.908</ele>
        <time>2018-06-09T10:07:12Z</time>
      </trkpt>
      <trkpt lat="43.003613" lon="-2.419950">
        <ele>958.223</ele>
        <time>2018-06-09T10:07:16Z</time>
      </trkpt>
      <trkpt lat="43.003597" lon="-2.420017">
        <ele>957.696</ele>
        <time>2018-06-09T10:07:19Z</time>
      </trkpt>
      <trkpt lat="43.003576" lon="-2.420077">
        <ele>957.267</ele>
        <time>2018-06-09T10:07:22Z</time>
      </trkpt>
      <trkpt lat="43.003558" lon="-2.420139">
        <ele>956.985</ele>
        <time>2018-06-09T10:07:25Z</time>
      </trkpt>
      <trkpt lat="43.003538" lon="-2.420212">
        <ele>956.533</ele>
        <time>2018-06-09T10:07:28Z</time>
      </trkpt>
      <trkpt lat="43.003524" lon="-2.420291">
        <ele>956.347</ele>
        <time>2018-06-09T10:07:32Z</time>
      </trkpt>
      <trkpt lat="43.003513" lon="-2.420358">
        <ele>956.163</ele>
        <time>2018-06-09T10:07:36Z</time>
      </trkpt>
      <trkpt lat="43.003511" lon="-2.420420">
        <ele>955.934</ele>
        <time>2018-06-09T10:07:39Z</time>
      </trkpt>
      <trkpt lat="43.003518" lon="-2.420492">
        <ele>955.548</ele>
        <time>2018-06-09T10:07:43Z</time>
      </trkpt>
      <trkpt lat="43.003534" lon="-2.420558">
        <ele>955.361</ele>
        <time>2018-06-09T10:07:47Z</time>
      </trkpt>
      <trkpt lat="43.003543" lon="-2.420626">
        <ele>955.117</ele>
        <time>2018-06-09T10:07:50Z</time>
      </trkpt>
      <trkpt lat="43.003569" lon="-2.420694">
        <ele>954.908</ele>
        <time>2018-06-09T10:07:54Z</time>
      </trkpt>
      <trkpt lat="43.003602" lon="-2.420757">
        <ele>954.336</ele>
        <time>2018-06-09T10:07:58Z</time>
      </trkpt>
      <trkpt lat="43.003630" lon="-2.420807">
        <ele>954.079</ele>
        <time>2018-06-09T10:08:01Z</time>
      </trkpt>
      <trkpt lat="43.003660" lon="-2.420863">
        <ele>953.990</ele>
        <time>2018-06-09T10:08:05Z</time>
      </trkpt>
      <trkpt lat="43.003687" lon="-2.420917">
        <ele>953.638</ele>
        <time>2018-06-09T10:08:09Z</time>
      </trkpt>
      <trkpt lat="43.003717" lon="-2.420975">
        <ele>953.416</ele>
        <time>2018-06-09T10:08:12Z</time>
      </trkpt>
      <trkpt lat="43.003749" lon="-2.421025">
        <ele>953.310</ele>
        <time>2018-06-09T10:08:15Z</time>
      </trkpt>
      <trkpt lat="43.003793" lon="-2.421075">
        <ele>953.196</ele>
        <time>2018-06-09T10:08:19Z</time>
      </trkpt>
      <trkpt lat="43.003829" lon="-2.421115">
        <ele>952.857</ele>
        <time>2018-06-09T10:08:22Z</time>
      </trkpt>
      <trkpt lat="43.003865" lon="-2.421172">
        <ele>952.552</ele>
        <time>2018-06-09T10:08:25Z</time>
      </trkpt>
      <trkpt lat="43.003896" lon="-2.421223">
        <ele>952.253</ele>
        <time>2018-06-09T10:08:28Z</time>
      </trkpt>
      <trkpt lat="43.003925" lon="-2.421281">
        <ele>951.708</ele>
        <time>2018-06-09T10:08:31Z</time>
      </trkpt>
      <trkpt lat="43.003954" lon="-2.421349">
        <ele>951.308</ele>
        <time>2018-06-09T10:08:34Z</time>
      </trkpt>
      <trkpt lat="43.003980" lon="-2.421399">
        <ele>951.067</ele>
        <time>2018-06-09T10:08:37Z</time>
      </trkpt>
      <trkpt lat="43.004013" lon="-2.421453">
        <ele>951.090</ele>
        <time>2018-06-09T10:08:40Z</time>
      </trkpt>
      <trkpt lat="43.004044" lon="-2.421502">
        <ele>950.961</ele>
        <time>2018-06-09T10:08:43Z</time>
      </trkpt>
      <trkpt lat="43.004077" lon="-2.421557">
        <ele>950.689</ele>
        <time>2018-06-09T10:08:47Z</time>
      </trkpt>
      <trkpt lat="43.004116" lon="-2.421608">
        <ele>950.687</ele>
        <time>2018-06-09T10:08:51Z</time>
      </trkpt>
      <trkpt lat="43.004159" lon="-2.421657">
        <ele>950.841</ele>
        <time>2018-06-09T10:08:55Z</time>
      </trkpt>
      <trkpt lat="43.004201" lon="-2.421715">
        <ele>950.517</ele>
        <time>2018-06-09T10:08:59Z</time>
      </trkpt>
      <trkpt lat="43.004232" lon="-2.421765">
        <ele>950.358</ele>
        <time>2018-06-09T10:09:02Z</time>
      </trkpt>
      <trkpt lat="43.004264" lon="-2.421817">
        <ele>950.218</ele>
        <time>2018-06-09T10:09:05Z</time>
      </trkpt>
      <trkpt lat="43.004292" lon="-2.421867">
        <ele>950.198</ele>
        <time>2018-06-09T10:09:08Z</time>
      </trkpt>
      <trkpt lat="43.004334" lon="-2.421924">
        <ele>950.417</ele>
        <time>2018-06-09T10:09:12Z</time>
      </trkpt>
      <trkpt lat="43.004369" lon="-2.421963">
        <ele>950.808</ele>
        <time>2018-06-09T10:09:15Z</time>
      </trkpt>
      <trkpt lat="43.004403" lon="-2.422004">
        <ele>950.743</ele>
        <time>2018-06-09T10:09:18Z</time>
      </trkpt>
      <trkpt lat="43.004448" lon="-2.422053">
        <ele>951.266</ele>
        <time>2018-06-09T10:09:22Z</time>
      </trkpt>
      <trkpt lat="43.004489" lon="-2.422101">
        <ele>952.047</ele>
        <time>2018-06-09T10:09:26Z</time>
      </trkpt>
      <trkpt lat="43.004517" lon="-2.422152">
        <ele>952.545</ele>
        <time>2018-06-09T10:09:29Z</time>
      </trkpt>
      <trkpt lat="43.004564" lon="-2.422168">
        <ele>952.613</ele>
        <time>2018-06-09T10:09:33Z</time>
      </trkpt>
      <trkpt lat="43.004606" lon="-2.422130">
        <ele>952.977</ele>
        <time>2018-06-09T10:09:37Z</time>
      </trkpt>
      <trkpt lat="43.004617" lon="-2.422063">
        <ele>952.783</ele>
        <time>2018-06-09T10:09:42Z</time>
      </trkpt>
      <trkpt lat="43.004609" lon="-2.421991">
        <ele>951.994</ele>
        <time>2018-06-09T10:09:54Z</time>
      </trkpt>
      <trkpt lat="43.004635" lon="-2.421934">
        <ele>950.521</ele>
        <time>2018-06-09T10:09:59Z</time>
      </trkpt>
      <trkpt lat="43.004668" lon="-2.421890">
        <ele>949.041</ele>
        <time>2018-06-09T10:10:03Z</time>
      </trkpt>
      <trkpt lat="43.004702" lon="-2.421846">
        <ele>947.505</ele>
        <time>2018-06-09T10:10:06Z</time>
      </trkpt>
      <trkpt lat="43.004749" lon="-2.421858">
        <ele>945.308</ele>
        <time>2018-06-09T10:10:12Z</time>
      </trkpt>
      <trkpt lat="43.004795" lon="-2.421864">
        <ele>943.444</ele>
        <time>2018-06-09T10:10:16Z</time>
      </trkpt>
      <trkpt lat="43.004840" lon="-2.421865">
        <ele>941.227</ele>
        <time>2018-06-09T10:10:23Z</time>
      </trkpt>
      <trkpt lat="43.004894" lon="-2.421898">
        <ele>939.218</ele>
        <time>2018-06-09T10:10:27Z</time>
      </trkpt>
      <trkpt lat="43.004948" lon="-2.421879">
        <ele>937.016</ele>
        <time>2018-06-09T10:10:31Z</time>
      </trkpt>
      <trkpt lat="43.004998" lon="-2.421849">
        <ele>934.414</ele>
        <time>2018-06-09T10:10:36Z</time>
      </trkpt>
      <trkpt lat="43.005043" lon="-2.421849">
        <ele>931.668</ele>
        <time>2018-06-09T10:10:42Z</time>
      </trkpt>
      <trkpt lat="43.005086" lon="-2.421894">
        <ele>928.774</ele>
        <time>2018-06-09T10:10:46Z</time>
      </trkpt>
      <trkpt lat="43.005123" lon="-2.421948">
        <ele>926.135</ele>
        <time>2018-06-09T10:10:50Z</time>
      </trkpt>
      <trkpt lat="43.005154" lon="-2.422008">
        <ele>923.977</ele>
        <time>2018-06-09T10:10:56Z</time>
      </trkpt>
      <trkpt lat="43.005170" lon="-2.422071">
        <ele>922.161</ele>
        <time>2018-06-09T10:10:59Z</time>
      </trkpt>
      <trkpt lat="43.005187" lon="-2.422143">
        <ele>920.827</ele>
        <time>2018-06-09T10:11:02Z</time>
      </trkpt>
      <trkpt lat="43.005204" lon="-2.422216">
        <ele>919.608</ele>
        <time>2018-06-09T10:11:05Z</time>
      </trkpt>
      <trkpt lat="43.005217" lon="-2.422285">
        <ele>918.789</ele>
        <time>2018-06-09T10:11:08Z</time>
      </trkpt>
      <trkpt lat="43.005227" lon="-2.422360">
        <ele>917.892</ele>
        <time>2018-06-09T10:11:11Z</time>
      </trkpt>
      <trkpt lat="43.005237" lon="-2.422430">
        <ele>917.163</ele>
        <time>2018-06-09T10:11:14Z</time>
      </trkpt>
      <trkpt lat="43.005243" lon="-2.422496">
        <ele>916.351</ele>
        <time>2018-06-09T10:11:17Z</time>
      </trkpt>
      <trkpt lat="43.005258" lon="-2.422557">
        <ele>915.339</ele>
        <time>2018-06-09T10:11:20Z</time>
      </trkpt>
      <trkpt lat="43.005293" lon="-2.422600">
        <ele>914.273</ele>
        <time>2018-06-09T10:11:23Z</time>
      </trkpt>
      <trkpt lat="43.005323" lon="-2.422661">
        <ele>912.519</ele>
        <time>2018-06-09T10:11:27Z</time>
      </trkpt>
      <trkpt lat="43.005350" lon="-2.422720">
        <ele>910.870</ele>
        <time>2018-06-09T10:11:32Z</time>
      </trkpt>
      <trkpt lat="43.005367" lon="-2.422790">
        <ele>909.389</ele>
        <time>2018-06-09T10:11:37Z</time>
      </trkpt>
      <trkpt lat="43.005372" lon="-2.422851">
        <ele>907.906</ele>
        <time>2018-06-09T10:11:41Z</time>
      </trkpt>
      <trkpt lat="43.005410" lon="-2.422910">
        <ele>906.026</ele>
        <time>2018-06-09T10:11:46Z</time>
      </trkpt>
      <trkpt lat="43.005455" lon="-2.422935">
        <ele>903.308</ele>
        <time>2018-06-09T10:11:50Z</time>
      </trkpt>
      <trkpt lat="43.005488" lon="-2.422992">
        <ele>901.660</ele>
        <time>2018-06-09T10:11:54Z</time>
      </trkpt>
      <trkpt lat="43.005518" lon="-2.423061">
        <ele>899.693</ele>
        <time>2018-06-09T10:11:58Z</time>
      </trkpt>
      <trkpt lat="43.005548" lon="-2.423111">
        <ele>897.254</ele>
        <time>2018-06-09T10:12:01Z</time>
      </trkpt>
      <trkpt lat="43.005567" lon="-2.423174">
        <ele>895.172</ele>
        <time>2018-06-09T10:12:04Z</time>
      </trkpt>
      <trkpt lat="43.005583" lon="-2.423243">
        <ele>893.110</ele>
        <time>2018-06-09T10:12:07Z</time>
      </trkpt>
      <trkpt lat="43.005602" lon="-2.423312">
        <ele>891.574</ele>
        <time>2018-06-09T10:12:10Z</time>
      </trkpt>
      <trkpt lat="43.005635" lon="-2.423365">
        <ele>889.150</ele>
        <time>2018-06-09T10:12:13Z</time>
      </trkpt>
      <trkpt lat="43.005676" lon="-2.423415">
        <ele>886.931</ele>
        <time>2018-06-09T10:12:16Z</time>
      </trkpt>
      <trkpt lat="43.005705" lon="-2.423471">
        <ele>884.859</ele>
        <time>2018-06-09T10:12:19Z</time>
      </trkpt>
      <trkpt lat="43.005722" lon="-2.423549">
        <ele>882.303</ele>
        <time>2018-06-09T10:12:23Z</time>
      </trkpt>
      <trkpt lat="43.005755" lon="-2.423615">
        <ele>879.923</ele>
        <time>2018-06-09T10:12:27Z</time>
      </trkpt>
      <trkpt lat="43.005760" lon="-2.423692">
        <ele>877.408</ele>
        <time>2018-06-09T10:12:31Z</time>
      </trkpt>
      <trkpt lat="43.005763" lon="-2.423770">
        <ele>874.997</ele>
        <time>2018-06-09T10:12:35Z</time>
      </trkpt>
      <trkpt lat="43.005771" lon="-2.423840">
        <ele>872.550</ele>
        <time>2018-06-09T10:12:38Z</time>
      </trkpt>
      <trkpt lat="43.005782" lon="-2.423936">
        <ele>871.071</ele>
        <time>2018-06-09T10:12:41Z</time>
      </trkpt>
      <trkpt lat="43.005793" lon="-2.424011">
        <ele>869.869</ele>
        <time>2018-06-09T10:12:43Z</time>
      </trkpt>
      <trkpt lat="43.005803" lon="-2.424081">
        <ele>868.477</ele>
        <time>2018-06-09T10:12:45Z</time>
      </trkpt>
      <trkpt lat="43.005811" lon="-2.424151">
        <ele>866.431</ele>
        <time>2018-06-09T10:12:47Z</time>
      </trkpt>
      <trkpt lat="43.005819" lon="-2.424225">
        <ele>864.327</ele>
        <time>2018-06-09T10:12:49Z</time>
      </trkpt>
      <trkpt lat="43.006285" lon="-2.426627">
        <ele>805.368</ele>
        <time>2018-06-09T10:14:48Z</time>
      </trkpt>
      <trkpt lat="43.006269" lon="-2.426690">
        <ele>804.378</ele>
        <time>2018-06-09T10:14:58Z</time>
      </trkpt>
      <trkpt lat="43.006285" lon="-2.426755">
        <ele>803.733</ele>
        <time>2018-06-09T10:15:09Z</time>
      </trkpt>
      <trkpt lat="43.006331" lon="-2.426764">
        <ele>802.726</ele>
        <time>2018-06-09T10:15:14Z</time>
      </trkpt>
      <trkpt lat="43.006345" lon="-2.426835">
        <ele>801.108</ele>
        <time>2018-06-09T10:15:19Z</time>
      </trkpt>
      <trkpt lat="43.006362" lon="-2.426901">
        <ele>799.379</ele>
        <time>2018-06-09T10:15:23Z</time>
      </trkpt>
      <trkpt lat="43.006374" lon="-2.426965">
        <ele>797.542</ele>
        <time>2018-06-09T10:15:28Z</time>
      </trkpt>
      <trkpt lat="43.006388" lon="-2.427027">
        <ele>795.373</ele>
        <time>2018-06-09T10:15:33Z</time>
      </trkpt>
      <trkpt lat="43.006408" lon="-2.427093">
        <ele>793.241</ele>
        <time>2018-06-09T10:15:38Z</time>
      </trkpt>
      <trkpt lat="43.006426" lon="-2.427165">
        <ele>790.579</ele>
        <time>2018-06-09T10:15:43Z</time>
      </trkpt>
      <trkpt lat="43.006438" lon="-2.427233">
        <ele>787.733</ele>
        <time>2018-06-09T10:15:47Z</time>
      </trkpt>
      <trkpt lat="43.006433" lon="-2.427304">
        <ele>784.829</ele>
        <time>2018-06-09T10:15:52Z</time>
      </trkpt>
      <trkpt lat="43.006440" lon="-2.427374">
        <ele>781.980</ele>
        <time>2018-06-09T10:15:57Z</time>
      </trkpt>
      <trkpt lat="43.006469" lon="-2.427423">
        <ele>779.083</ele>
        <time>2018-06-09T10:16:01Z</time>
      </trkpt>
      <trkpt lat="43.006504" lon="-2.427488">
        <ele>776.525</ele>
        <time>2018-06-09T10:16:05Z</time>
      </trkpt>
      <trkpt lat="43.006538" lon="-2.427561">
        <ele>774.217</ele>
        <time>2018-06-09T10:16:08Z</time>
      </trkpt>
      <trkpt lat="43.006556" lon="-2.427619">
        <ele>772.008</ele>
        <time>2018-06-09T10:16:10Z</time>
      </trkpt>
      <trkpt lat="43.006568" lon="-2.427683">
        <ele>770.120</ele>
        <time>2018-06-09T10:16:12Z</time>
      </trkpt>
      <trkpt lat="43.006577" lon="-2.427750">
        <ele>768.493</ele>
        <time>2018-06-09T10:16:14Z</time>
      </trkpt>
      <trkpt lat="43.006589" lon="-2.427812">
        <ele>767.064</ele>
        <time>2018-06-09T10:16:16Z</time>
      </trkpt>
      <trkpt lat="43.006600" lon="-2.427898">
        <ele>765.252</ele>
        <time>2018-06-09T10:16:19Z</time>
      </trkpt>
      <trkpt lat="43.006596" lon="-2.427978">
        <ele>763.070</ele>
        <time>2018-06-09T10:16:22Z</time>
      </trkpt>
      <trkpt lat="43.006600" lon="-2.428060">
        <ele>761.084</ele>
        <time>2018-06-09T10:16:25Z</time>
      </trkpt>
      <trkpt lat="43.006613" lon="-2.428138">
        <ele>759.640</ele>
        <time>2018-06-09T10:16:28Z</time>
      </trkpt>
      <trkpt lat="43.006629" lon="-2.428219">
        <ele>757.371</ele>
        <time>2018-06-09T10:16:31Z</time>
      </trkpt>
      <trkpt lat="43.006644" lon="-2.428305">
        <ele>754.887</ele>
        <time>2018-06-09T10:16:34Z</time>
      </trkpt>
      <trkpt lat="43.006665" lon="-2.428391">
        <ele>751.942</ele>
        <time>2018-06-09T10:16:37Z</time>
      </trkpt>
      <trkpt lat="43.006674" lon="-2.428452">
        <ele>749.526</ele>
        <time>2018-06-09T10:16:39Z</time>
      </trkpt>
      <trkpt lat="43.006680" lon="-2.428530">
        <ele>747.408</ele>
        <time>2018-06-09T10:16:41Z</time>
      </trkpt>
      <trkpt lat="43.006688" lon="-2.428603">
        <ele>745.770</ele>
        <time>2018-06-09T10:16:43Z</time>
      </trkpt>
      <trkpt lat="43.006708" lon="-2.428681">
        <ele>744.113</ele>
        <time>2018-06-09T10:16:45Z</time>
      </trkpt>
      <trkpt lat="43.006734" lon="-2.428744">
        <ele>742.814</ele>
        <time>2018-06-09T10:16:47Z</time>
      </trkpt>
      <trkpt lat="43.006765" lon="-2.428816">
        <ele>741.032</ele>
        <time>2018-06-09T10:16:50Z</time>
      </trkpt>
      <trkpt lat="43.006786" lon="-2.428870">
        <ele>739.170</ele>
        <time>2018-06-09T10:16:53Z</time>
      </trkpt>
      <trkpt lat="43.006790" lon="-2.428946">
        <ele>737.054</ele>
        <time>2018-06-09T10:16:57Z</time>
      </trkpt>
      <trkpt lat="43.006784" lon="-2.429012">
        <ele>734.780</ele>
        <time>2018-06-09T10:17:02Z</time>
      </trkpt>
      <trkpt lat="43.006787" lon="-2.429078">
        <ele>731.831</ele>
        <time>2018-06-09T10:17:12Z</time>
      </trkpt>
      <trkpt lat="43.006802" lon="-2.429143">
        <ele>729.732</ele>
        <time>2018-06-09T10:17:16Z</time>
      </trkpt>
      <trkpt lat="43.006853" lon="-2.429188">
        <ele>727.892</ele>
        <time>2018-06-09T10:17:20Z</time>
      </trkpt>
      <trkpt lat="43.006898" lon="-2.429209">
        <ele>726.211</ele>
        <time>2018-06-09T10:17:23Z</time>
      </trkpt>
      <trkpt lat="43.006943" lon="-2.429244">
        <ele>723.808</ele>
        <time>2018-06-09T10:17:27Z</time>
      </trkpt>
      <trkpt lat="43.006981" lon="-2.429280">
        <ele>722.215</ele>
        <time>2018-06-09T10:17:32Z</time>
      </trkpt>
      <trkpt lat="43.006998" lon="-2.429342">
        <ele>720.128</ele>
        <time>2018-06-09T10:17:36Z</time>
      </trkpt>
      <trkpt lat="43.007018" lon="-2.429400">
        <ele>718.159</ele>
        <time>2018-06-09T10:17:39Z</time>
      </trkpt>
      <trkpt lat="43.007030" lon="-2.429463">
        <ele>716.867</ele>
        <time>2018-06-09T10:17:42Z</time>
      </trkpt>
      <trkpt lat="43.007039" lon="-2.429525">
        <ele>715.855</ele>
        <time>2018-06-09T10:17:45Z</time>
      </trkpt>
      <trkpt lat="43.007046" lon="-2.429595">
        <ele>714.859</ele>
        <time>2018-06-09T10:17:48Z</time>
      </trkpt>
      <trkpt lat="43.007071" lon="-2.429652">
        <ele>713.515</ele>
        <time>2018-06-09T10:17:52Z</time>
      </trkpt>
      <trkpt lat="43.007109" lon="-2.429599">
        <ele>712.066</ele>
        <time>2018-06-09T10:17:56Z</time>
      </trkpt>
      <trkpt lat="43.007125" lon="-2.429533">
        <ele>710.525</ele>
        <time>2018-06-09T10:17:59Z</time>
      </trkpt>
      <trkpt lat="43.007130" lon="-2.429466">
        <ele>709.326</ele>
        <time>2018-06-09T10:18:02Z</time>
      </trkpt>
      <trkpt lat="43.007144" lon="-2.429390">
        <ele>708.208</ele>
        <time>2018-06-09T10:18:05Z</time>
      </trkpt>
      <trkpt lat="43.007164" lon="-2.429327">
        <ele>707.308</ele>
        <time>2018-06-09T10:18:08Z</time>
      </trkpt>
      <trkpt lat="43.007183" lon="-2.429264">
        <ele>706.724</ele>
        <time>2018-06-09T10:18:11Z</time>
      </trkpt>
      <trkpt lat="43.007200" lon="-2.429192">
        <ele>706.067</ele>
        <time>2018-06-09T10:18:14Z</time>
      </trkpt>
      <trkpt lat="43.007222" lon="-2.429110">
        <ele>705.828</ele>
        <time>2018-06-09T10:18:17Z</time>
      </trkpt>
      <trkpt lat="43.007239" lon="-2.429024">
        <ele>705.526</ele>
        <time>2018-06-09T10:18:20Z</time>
      </trkpt>
      <trkpt lat="43.007260" lon="-2.428948">
        <ele>705.414</ele>
        <time>2018-06-09T10:18:23Z</time>
      </trkpt>
      <trkpt lat="43.007283" lon="-2.428881">
        <ele>704.438</ele>
        <time>2018-06-09T10:18:26Z</time>
      </trkpt>
      <trkpt lat="43.007304" lon="-2.428808">
        <ele>703.734</ele>
        <time>2018-06-09T10:18:30Z</time>
      </trkpt>
      <trkpt lat="43.007332" lon="-2.428738">
        <ele>703.625</ele>
        <time>2018-06-09T10:18:34Z</time>
      </trkpt>
      <trkpt lat="43.007355" lon="-2.428684">
        <ele>703.554</ele>
        <time>2018-06-09T10:18:37Z</time>
      </trkpt>
      <trkpt lat="43.007374" lon="-2.428608">
        <ele>702.156</ele>
        <time>2018-06-09T10:18:41Z</time>
      </trkpt>
      <trkpt lat="43.007367" lon="-2.428529">
        <ele>700.811</ele>
        <time>2018-06-09T10:18:45Z</time>
      </trkpt>
      <trkpt lat="43.007373" lon="-2.428451">
        <ele>699.908</ele>
        <time>2018-06-09T10:18:49Z</time>
      </trkpt>
      <trkpt lat="43.007388" lon="-2.428393">
        <ele>699.577</ele>
        <time>2018-06-09T10:18:52Z</time>
      </trkpt>
      <trkpt lat="43.007409" lon="-2.428338">
        <ele>699.020</ele>
        <time>2018-06-09T10:18:55Z</time>
      </trkpt>
      <trkpt lat="43.007431" lon="-2.428285">
        <ele>698.711</ele>
        <time>2018-06-09T10:18:58Z</time>
      </trkpt>
      <trkpt lat="43.007466" lon="-2.428221">
        <ele>697.879</ele>
        <time>2018-06-09T10:19:02Z</time>
      </trkpt>
      <trkpt lat="43.007497" lon="-2.428163">
        <ele>697.477</ele>
        <time>2018-06-09T10:19:06Z</time>
      </trkpt>
      <trkpt lat="43.007534" lon="-2.428107">
        <ele>696.111</ele>
        <time>2018-06-09T10:19:10Z</time>
      </trkpt>
      <trkpt lat="43.007555" lon="-2.428042">
        <ele>693.567</ele>
        <time>2018-06-09T10:19:14Z</time>
      </trkpt>
      <trkpt lat="43.007572" lon="-2.427974">
        <ele>691.948</ele>
        <time>2018-06-09T10:19:19Z</time>
      </trkpt>
      <trkpt lat="43.007598" lon="-2.427914">
        <ele>690.796</ele>
        <time>2018-06-09T10:19:23Z</time>
      </trkpt>
      <trkpt lat="43.007636" lon="-2.427857">
        <ele>689.231</ele>
        <time>2018-06-09T10:19:27Z</time>
      </trkpt>
      <trkpt lat="43.007680" lon="-2.427805">
        <ele>687.824</ele>
        <time>2018-06-09T10:19:31Z</time>
      </trkpt>
      <trkpt lat="43.007715" lon="-2.427745">
        <ele>686.708</ele>
        <time>2018-06-09T10:19:35Z</time>
      </trkpt>
      <trkpt lat="43.007736" lon="-2.427688">
        <ele>686.291</ele>
        <time>2018-06-09T10:19:38Z</time>
      </trkpt>
      <trkpt lat="43.007757" lon="-2.427628">
        <ele>685.994</ele>
        <time>2018-06-09T10:19:41Z</time>
      </trkpt>
      <trkpt lat="43.007783" lon="-2.427567">
        <ele>686.045</ele>
        <time>2018-06-09T10:19:44Z</time>
      </trkpt>
      <trkpt lat="43.007803" lon="-2.427499">
        <ele>686.323</ele>
        <time>2018-06-09T10:19:47Z</time>
      </trkpt>
      <trkpt lat="43.007814" lon="-2.427420">
        <ele>686.011</ele>
        <time>2018-06-09T10:19:50Z</time>
      </trkpt>
      <trkpt lat="43.007818" lon="-2.427354">
        <ele>685.925</ele>
        <time>2018-06-09T10:19:53Z</time>
      </trkpt>
      <trkpt lat="43.007840" lon="-2.427278">
        <ele>685.111</ele>
        <time>2018-06-09T10:19:57Z</time>
      </trkpt>
      <trkpt lat="43.007869" lon="-2.427215">
        <ele>684.392</ele>
        <time>2018-06-09T10:20:00Z</time>
      </trkpt>
      <trkpt lat="43.007899" lon="-2.427154">
        <ele>684.064</ele>
        <time>2018-06-09T10:20:03Z</time>
      </trkpt>
      <trkpt lat="43.007914" lon="-2.427076">
        <ele>683.006</ele>
        <time>2018-06-09T10:20:06Z</time>
      </trkpt>
      <trkpt lat="43.007943" lon="-2.427011">
        <ele>681.616</ele>
        <time>2018-06-09T10:20:10Z</time>
      </trkpt>
      <trkpt lat="43.007962" lon="-2.426945">
        <ele>680.908</ele>
        <time>2018-06-09T10:20:13Z</time>
      </trkpt>
      <trkpt lat="43.007968" lon="-2.426878">
        <ele>679.418</ele>
        <time>2018-06-09T10:20:17Z</time>
      </trkpt>
      <trkpt lat="43.007961" lon="-2.426813">
        <ele>678.321</ele>
        <time>2018-06-09T10:20:20Z</time>
      </trkpt>
      <trkpt lat="43.007950" lon="-2.426735">
        <ele>676.922</ele>
        <time>2018-06-09T10:20:24Z</time>
      </trkpt>
      <trkpt lat="43.007942" lon="-2.426674">
        <ele>675.590</ele>
        <time>2018-06-09T10:20:27Z</time>
      </trkpt>
      <trkpt lat="43.007940" lon="-2.426603">
        <ele>674.348</ele>
        <time>2018-06-09T10:20:30Z</time>
      </trkpt>
      <trkpt lat="43.007938" lon="-2.426531">
        <ele>674.032</ele>
        <time>2018-06-09T10:20:33Z</time>
      </trkpt>
      <trkpt lat="43.007945" lon="-2.426467">
        <ele>673.818</ele>
        <time>2018-06-09T10:20:36Z</time>
      </trkpt>
      <trkpt lat="43.007953" lon="-2.426404">
        <ele>673.439</ele>
        <time>2018-06-09T10:20:38Z</time>
      </trkpt>
      <trkpt lat="43.007965" lon="-2.426326">
        <ele>673.018</ele>
        <time>2018-06-09T10:20:41Z</time>
      </trkpt>
      <trkpt lat="43.007989" lon="-2.426252">
        <ele>672.498</ele>
        <time>2018-06-09T10:20:45Z</time>
      </trkpt>
      <trkpt lat="43.008026" lon="-2.426190">
        <ele>672.617</ele>
        <time>2018-06-09T10:20:48Z</time>
      </trkpt>
      <trkpt lat="43.008063" lon="-2.426131">
        <ele>671.908</ele>
        <time>2018-06-09T10:20:51Z</time>
      </trkpt>
      <trkpt lat="43.008097" lon="-2.426069">
        <ele>670.963</ele>
        <time>2018-06-09T10:20:54Z</time>
      </trkpt>
      <trkpt lat="43.008133" lon="-2.426008">
        <ele>670.486</ele>
        <time>2018-06-09T10:20:57Z</time>
      </trkpt>
      <trkpt lat="43.008166" lon="-2.425953">
        <ele>670.197</ele>
        <time>2018-06-09T10:21:01Z</time>
      </trkpt>
      <trkpt lat="43.008204" lon="-2.425916">
        <ele>669.925</ele>
        <time>2018-06-09T10:21:04Z</time>
      </trkpt>
      <trkpt lat="43.008244" lon="-2.425878">
        <ele>669.163</ele>
        <time>2018-06-09T10:21:09Z</time>
      </trkpt>
      <trkpt lat="43.008289" lon="-2.425900">
        <ele>668.257</ele>
        <time>2018-06-09T10:21:13Z</time>
      </trkpt>
      <trkpt lat="43.008339" lon="-2.425876">
        <ele>666.383</ele>
        <time>2018-06-09T10:21:19Z</time>
      </trkpt>
      <trkpt lat="43.008390" lon="-2.425847">
        <ele>665.344</ele>
        <time>2018-06-09T10:21:25Z</time>
      </trkpt>
      <trkpt lat="43.008448" lon="-2.425842">
        <ele>664.545</ele>
        <time>2018-06-09T10:21:29Z</time>
      </trkpt>
      <trkpt lat="43.008494" lon="-2.425824">
        <ele>663.347</ele>
        <time>2018-06-09T10:21:32Z</time>
      </trkpt>
      <trkpt lat="43.008546" lon="-2.425812">
        <ele>662.511</ele>
        <time>2018-06-09T10:21:37Z</time>
      </trkpt>
      <trkpt lat="43.008594" lon="-2.425775">
        <ele>661.908</ele>
        <time>2018-06-09T10:21:41Z</time>
      </trkpt>
      <trkpt lat="43.008647" lon="-2.425729">
        <ele>660.766</ele>
        <time>2018-06-09T10:21:45Z</time>
      </trkpt>
      <trkpt lat="43.008692" lon="-2.425732">
        <ele>658.739</ele>
        <time>2018-06-09T10:21:49Z</time>
      </trkpt>
      <trkpt lat="43.008746" lon="-2.425745">
        <ele>656.230</ele>
        <time>2018-06-09T10:21:53Z</time>
      </trkpt>
      <trkpt lat="43.008799" lon="-2.425752">
        <ele>653.968</ele>
        <time>2018-06-09T10:21:57Z</time>
      </trkpt>
      <trkpt lat="43.008854" lon="-2.425758">
        <ele>651.576</ele>
        <time>2018-06-09T10:22:01Z</time>
      </trkpt>
      <trkpt lat="43.008913" lon="-2.425774">
        <ele>648.940</ele>
        <time>2018-06-09T10:22:05Z</time>
      </trkpt>
      <trkpt lat="43.008976" lon="-2.425759">
        <ele>646.746</ele>
        <time>2018-06-09T10:22:09Z</time>
      </trkpt>
      <trkpt lat="43.009031" lon="-2.425734">
        <ele>645.147</ele>
        <time>2018-06-09T10:22:12Z</time>
      </trkpt>
      <trkpt lat="43.009076" lon="-2.425707">
        <ele>643.522</ele>
        <time>2018-06-09T10:22:15Z</time>
      </trkpt>
      <trkpt lat="43.009126" lon="-2.425689">
        <ele>642.062</ele>
        <time>2018-06-09T10:22:18Z</time>
      </trkpt>
      <trkpt lat="43.009163" lon="-2.425727">
        <ele>639.508</ele>
        <time>2018-06-09T10:25:49Z</time>
      </trkpt>
      <trkpt lat="43.009206" lon="-2.425705">
        <ele>638.308</ele>
        <time>2018-06-09T10:25:56Z</time>
      </trkpt>
      <trkpt lat="43.009259" lon="-2.425698">
        <ele>637.274</ele>
        <time>2018-06-09T10:26:00Z</time>
      </trkpt>
      <trkpt lat="43.009310" lon="-2.425680">
        <ele>636.257</ele>
        <time>2018-06-09T10:26:04Z</time>
      </trkpt>
      <trkpt lat="43.009344" lon="-2.425638">
        <ele>636.198</ele>
        <time>2018-06-09T10:26:11Z</time>
      </trkpt>
      <trkpt lat="43.009294" lon="-2.425647">
        <ele>635.756</ele>
        <time>2018-06-09T10:26:29Z</time>
      </trkpt>
      <trkpt lat="43.009244" lon="-2.425664">
        <ele>635.294</ele>
        <time>2018-06-09T10:26:32Z</time>
      </trkpt>
      <trkpt lat="43.009186" lon="-2.425697">
        <ele>635.128</ele>
        <time>2018-06-09T10:26:36Z</time>
      </trkpt>
      <trkpt lat="43.009185" lon="-2.425779">
        <ele>635.114</ele>
        <time>2018-06-09T10:26:40Z</time>
      </trkpt>
      <trkpt lat="43.009214" lon="-2.425843">
        <ele>634.945</ele>
        <time>2018-06-09T10:26:44Z</time>
      </trkpt>
      <trkpt lat="43.009239" lon="-2.425897">
        <ele>635.131</ele>
        <time>2018-06-09T10:26:47Z</time>
      </trkpt>
      <trkpt lat="43.009246" lon="-2.425958">
        <ele>635.561</ele>
        <time>2018-06-09T10:26:50Z</time>
      </trkpt>
      <trkpt lat="43.009238" lon="-2.426033">
        <ele>634.307</ele>
        <time>2018-06-09T10:26:54Z</time>
      </trkpt>
      <trkpt lat="43.009230" lon="-2.426119">
        <ele>633.808</ele>
        <time>2018-06-09T10:26:58Z</time>
      </trkpt>
      <trkpt lat="43.009232" lon="-2.426200">
        <ele>633.225</ele>
        <time>2018-06-09T10:27:02Z</time>
      </trkpt>
      <trkpt lat="43.009231" lon="-2.426266">
        <ele>632.398</ele>
        <time>2018-06-09T10:27:06Z</time>
      </trkpt>
      <trkpt lat="43.009224" lon="-2.426328">
        <ele>631.379</ele>
        <time>2018-06-09T10:27:10Z</time>
      </trkpt>
      <trkpt lat="43.009212" lon="-2.426401">
        <ele>630.857</ele>
        <time>2018-06-09T10:27:13Z</time>
      </trkpt>
      <trkpt lat="43.009202" lon="-2.426480">
        <ele>630.145</ele>
        <time>2018-06-09T10:27:17Z</time>
      </trkpt>
      <trkpt lat="43.009185" lon="-2.426558">
        <ele>629.649</ele>
        <time>2018-06-09T10:27:21Z</time>
      </trkpt>
      <trkpt lat="43.009182" lon="-2.426642">
        <ele>629.035</ele>
        <time>2018-06-09T10:27:25Z</time>
      </trkpt>
      <trkpt lat="43.009176" lon="-2.426706">
        <ele>628.856</ele>
        <time>2018-06-09T10:27:28Z</time>
      </trkpt>
      <trkpt lat="43.009171" lon="-2.426793">
        <ele>628.228</ele>
        <time>2018-06-09T10:27:31Z</time>
      </trkpt>
      <trkpt lat="43.009200" lon="-2.426860">
        <ele>627.389</ele>
        <time>2018-06-09T10:27:34Z</time>
      </trkpt>
      <trkpt lat="43.009225" lon="-2.426913">
        <ele>626.217</ele>
        <time>2018-06-09T10:27:37Z</time>
      </trkpt>
      <trkpt lat="43.009257" lon="-2.426972">
        <ele>625.908</ele>
        <time>2018-06-09T10:27:40Z</time>
      </trkpt>
      <trkpt lat="43.009287" lon="-2.427024">
        <ele>624.514</ele>
        <time>2018-06-09T10:27:43Z</time>
      </trkpt>
      <trkpt lat="43.009311" lon="-2.427085">
        <ele>623.157</ele>
        <time>2018-06-09T10:27:46Z</time>
      </trkpt>
      <trkpt lat="43.009340" lon="-2.427132">
        <ele>621.558</ele>
        <time>2018-06-09T10:27:49Z</time>
      </trkpt>
      <trkpt lat="43.009384" lon="-2.427176">
        <ele>620.786</ele>
        <time>2018-06-09T10:27:53Z</time>
      </trkpt>
      <trkpt lat="43.009423" lon="-2.427215">
        <ele>619.664</ele>
        <time>2018-06-09T10:27:57Z</time>
      </trkpt>
      <trkpt lat="43.009466" lon="-2.427266">
        <ele>617.688</ele>
        <time>2018-06-09T10:28:01Z</time>
      </trkpt>
      <trkpt lat="43.009503" lon="-2.427310">
        <ele>616.314</ele>
        <time>2018-06-09T10:28:17Z</time>
      </trkpt>
      <trkpt lat="43.009472" lon="-2.427241">
        <ele>615.275</ele>
        <time>2018-06-09T10:28:23Z</time>
      </trkpt>
      <trkpt lat="43.009436" lon="-2.427202">
        <ele>615.214</ele>
        <time>2018-06-09T10:28:26Z</time>
      </trkpt>
      <trkpt lat="43.009400" lon="-2.427163">
        <ele>615.154</ele>
        <time>2018-06-09T10:28:30Z</time>
      </trkpt>
      <trkpt lat="43.009353" lon="-2.427125">
        <ele>615.109</ele>
        <time>2018-06-09T10:28:34Z</time>
      </trkpt>
      <trkpt lat="43.009309" lon="-2.427080">
        <ele>614.308</ele>
        <time>2018-06-09T10:28:38Z</time>
      </trkpt>
      <trkpt lat="43.009267" lon="-2.427026">
        <ele>614.333</ele>
        <time>2018-06-09T10:28:42Z</time>
      </trkpt>
      <trkpt lat="43.009225" lon="-2.426972">
        <ele>615.156</ele>
        <time>2018-06-09T10:28:48Z</time>
      </trkpt>
      <trkpt lat="43.009187" lon="-2.426932">
        <ele>615.957</ele>
        <time>2018-06-09T10:28:53Z</time>
      </trkpt>
      <trkpt lat="43.009153" lon="-2.426889">
        <ele>616.055</ele>
        <time>2018-06-09T10:28:57Z</time>
      </trkpt>
      <trkpt lat="43.009117" lon="-2.426824">
        <ele>616.933</ele>
        <time>2018-06-09T10:29:02Z</time>
      </trkpt>
      <trkpt lat="43.009111" lon="-2.426761">
        <ele>618.347</ele>
        <time>2018-06-09T10:29:08Z</time>
      </trkpt>
      <trkpt lat="43.009117" lon="-2.426698">
        <ele>619.963</ele>
        <time>2018-06-09T10:29:20Z</time>
      </trkpt>
      <trkpt lat="43.009126" lon="-2.426630">
        <ele>620.384</ele>
        <time>2018-06-09T10:29:25Z</time>
      </trkpt>
      <trkpt lat="43.009135" lon="-2.426564">
        <ele>621.083</ele>
        <time>2018-06-09T10:29:29Z</time>
      </trkpt>
      <trkpt lat="43.009150" lon="-2.426503">
        <ele>621.825</ele>
        <time>2018-06-09T10:29:32Z</time>
      </trkpt>
      <trkpt lat="43.009166" lon="-2.426438">
        <ele>621.117</ele>
        <time>2018-06-09T10:29:36Z</time>
      </trkpt>
      <trkpt lat="43.009182" lon="-2.426377">
        <ele>621.108</ele>
        <time>2018-06-09T10:29:39Z</time>
      </trkpt>
      <trkpt lat="43.009196" lon="-2.426314">
        <ele>621.410</ele>
        <time>2018-06-09T10:29:42Z</time>
      </trkpt>
      <trkpt lat="43.009207" lon="-2.426251">
        <ele>623.033</ele>
        <time>2018-06-09T10:29:45Z</time>
      </trkpt>
      <trkpt lat="43.009206" lon="-2.426180">
        <ele>624.674</ele>
        <time>2018-06-09T10:29:48Z</time>
      </trkpt>
      <trkpt lat="43.009197" lon="-2.426119">
        <ele>625.622</ele>
        <time>2018-06-09T10:29:51Z</time>
      </trkpt>
      <trkpt lat="43.009188" lon="-2.426052">
        <ele>626.540</ele>
        <time>2018-06-09T10:29:55Z</time>
      </trkpt>
      <trkpt lat="43.009170" lon="-2.425989">
        <ele>627.634</ele>
        <time>2018-06-09T10:29:59Z</time>
      </trkpt>
      <trkpt lat="43.009164" lon="-2.425915">
        <ele>628.160</ele>
        <time>2018-06-09T10:30:03Z</time>
      </trkpt>
      <trkpt lat="43.009152" lon="-2.425852">
        <ele>628.511</ele>
        <time>2018-06-09T10:30:06Z</time>
      </trkpt>
      <trkpt lat="43.009134" lon="-2.425787">
        <ele>628.757</ele>
        <time>2018-06-09T10:30:11Z</time>
      </trkpt>
      <trkpt lat="43.009116" lon="-2.425719">
        <ele>629.200</ele>
        <time>2018-06-09T10:30:16Z</time>
      </trkpt>
      <trkpt lat="43.009080" lon="-2.425672">
        <ele>630.420</ele>
        <time>2018-06-09T10:30:21Z</time>
      </trkpt>
      <trkpt lat="43.009052" lon="-2.425621">
        <ele>632.008</ele>
        <time>2018-06-09T10:30:26Z</time>
      </trkpt>
      <trkpt lat="43.009021" lon="-2.425574">
        <ele>633.517</ele>
        <time>2018-06-09T10:30:30Z</time>
      </trkpt>
      <trkpt lat="43.008997" lon="-2.425506">
        <ele>635.060</ele>
        <time>2018-06-09T10:30:35Z</time>
      </trkpt>
      <trkpt lat="43.008975" lon="-2.425447">
        <ele>636.781</ele>
        <time>2018-06-09T10:30:39Z</time>
      </trkpt>
      <trkpt lat="43.008960" lon="-2.425381">
        <ele>637.729</ele>
        <time>2018-06-09T10:30:43Z</time>
      </trkpt>
      <trkpt lat="43.008951" lon="-2.425318">
        <ele>639.037</ele>
        <time>2018-06-09T10:30:47Z</time>
      </trkpt>
      <trkpt lat="43.008937" lon="-2.425249">
        <ele>640.171</ele>
        <time>2018-06-09T10:30:51Z</time>
      </trkpt>
      <trkpt lat="43.008926" lon="-2.425181">
        <ele>641.017</ele>
        <time>2018-06-09T10:30:55Z</time>
      </trkpt>
      <trkpt lat="43.008912" lon="-2.425106">
        <ele>642.058</ele>
        <time>2018-06-09T10:31:00Z</time>
      </trkpt>
      <trkpt lat="43.008912" lon="-2.425042">
        <ele>643.279</ele>
        <time>2018-06-09T10:31:03Z</time>
      </trkpt>
      <trkpt lat="43.008913" lon="-2.424972">
        <ele>644.005</ele>
        <time>2018-06-09T10:31:07Z</time>
      </trkpt>
      <trkpt lat="43.008918" lon="-2.424910">
        <ele>645.125</ele>
        <time>2018-06-09T10:31:11Z</time>
      </trkpt>
      <trkpt lat="43.008913" lon="-2.424845">
        <ele>645.808</ele>
        <time>2018-06-09T10:31:16Z</time>
      </trkpt>
      <trkpt lat="43.008907" lon="-2.424780">
        <ele>647.019</ele>
        <time>2018-06-09T10:31:20Z</time>
      </trkpt>
      <trkpt lat="43.008918" lon="-2.424713">
        <ele>647.332</ele>
        <time>2018-06-09T10:31:27Z</time>
      </trkpt>
      <trkpt lat="43.008936" lon="-2.424644">
        <ele>648.393</ele>
        <time>2018-06-09T10:31:31Z</time>
      </trkpt>
      <trkpt lat="43.008950" lon="-2.424577">
        <ele>649.381</ele>
        <time>2018-06-09T10:31:37Z</time>
      </trkpt>
      <trkpt lat="43.008921" lon="-2.424506">
        <ele>650.489</ele>
        <time>2018-06-09T10:31:42Z</time>
      </trkpt>
      <trkpt lat="43.008900" lon="-2.424450">
        <ele>651.713</ele>
        <time>2018-06-09T10:31:48Z</time>
      </trkpt>
      <trkpt lat="43.008910" lon="-2.424388">
        <ele>653.049</ele>
        <time>2018-06-09T10:31:54Z</time>
      </trkpt>
      <trkpt lat="43.008958" lon="-2.424341">
        <ele>653.730</ele>
        <time>2018-06-09T10:32:10Z</time>
      </trkpt>
      <trkpt lat="43.008915" lon="-2.424367">
        <ele>653.966</ele>
        <time>2018-06-09T10:32:22Z</time>
      </trkpt>
      <trkpt lat="43.008881" lon="-2.424325">
        <ele>654.029</ele>
        <time>2018-06-09T10:32:26Z</time>
      </trkpt>
      <trkpt lat="43.008863" lon="-2.424251">
        <ele>655.221</ele>
        <time>2018-06-09T10:32:31Z</time>
      </trkpt>
      <trkpt lat="43.008851" lon="-2.424191">
        <ele>656.308</ele>
        <time>2018-06-09T10:32:35Z</time>
      </trkpt>
      <trkpt lat="43.008834" lon="-2.424126">
        <ele>657.268</ele>
        <time>2018-06-09T10:32:39Z</time>
      </trkpt>
      <trkpt lat="43.008821" lon="-2.424061">
        <ele>658.221</ele>
        <time>2018-06-09T10:32:43Z</time>
      </trkpt>
      <trkpt lat="43.008803" lon="-2.423987">
        <ele>658.692</ele>
        <time>2018-06-09T10:32:48Z</time>
      </trkpt>
      <trkpt lat="43.008789" lon="-2.423919">
        <ele>659.170</ele>
        <time>2018-06-09T10:32:52Z</time>
      </trkpt>
      <trkpt lat="43.008783" lon="-2.423857">
        <ele>660.498</ele>
        <time>2018-06-09T10:32:56Z</time>
      </trkpt>
      <trkpt lat="43.008764" lon="-2.423791">
        <ele>660.222</ele>
        <time>2018-06-09T10:33:01Z</time>
      </trkpt>
      <trkpt lat="43.008732" lon="-2.423733">
        <ele>659.818</ele>
        <time>2018-06-09T10:33:06Z</time>
      </trkpt>
      <trkpt lat="43.008693" lon="-2.423699">
        <ele>659.679</ele>
        <time>2018-06-09T10:33:11Z</time>
      </trkpt>
      <trkpt lat="43.008648" lon="-2.423667">
        <ele>660.246</ele>
        <time>2018-06-09T10:33:16Z</time>
      </trkpt>
      <trkpt lat="43.008612" lon="-2.423615">
        <ele>661.388</ele>
        <time>2018-06-09T10:33:20Z</time>
      </trkpt>
      <trkpt lat="43.008591" lon="-2.423549">
        <ele>662.716</ele>
        <time>2018-06-09T10:33:24Z</time>
      </trkpt>
      <trkpt lat="43.008564" lon="-2.423485">
        <ele>662.908</ele>
        <time>2018-06-09T10:33:29Z</time>
      </trkpt>
      <trkpt lat="43.008535" lon="-2.423433">
        <ele>663.796</ele>
        <time>2018-06-09T10:33:34Z</time>
      </trkpt>
      <trkpt lat="43.008505" lon="-2.423380">
        <ele>663.899</ele>
        <time>2018-06-09T10:33:40Z</time>
      </trkpt>
      <trkpt lat="43.008527" lon="-2.423322">
        <ele>664.430</ele>
        <time>2018-06-09T10:33:45Z</time>
      </trkpt>
      <trkpt lat="43.008540" lon="-2.423258">
        <ele>665.218</ele>
        <time>2018-06-09T10:33:50Z</time>
      </trkpt>
      <trkpt lat="43.008515" lon="-2.423195">
        <ele>667.926</ele>
        <time>2018-06-09T10:33:56Z</time>
      </trkpt>
      <trkpt lat="43.008501" lon="-2.423132">
        <ele>670.120</ele>
        <time>2018-06-09T10:34:02Z</time>
      </trkpt>
      <trkpt lat="43.008506" lon="-2.423060">
        <ele>671.896</ele>
        <time>2018-06-09T10:34:07Z</time>
      </trkpt>
      <trkpt lat="43.008501" lon="-2.422989">
        <ele>673.147</ele>
        <time>2018-06-09T10:34:12Z</time>
      </trkpt>
      <trkpt lat="43.008488" lon="-2.422924">
        <ele>674.758</ele>
        <time>2018-06-09T10:34:16Z</time>
      </trkpt>
      <trkpt lat="43.008463" lon="-2.422852">
        <ele>676.052</ele>
        <time>2018-06-09T10:34:20Z</time>
      </trkpt>
      <trkpt lat="43.008432" lon="-2.422782">
        <ele>677.517</ele>
        <time>2018-06-09T10:34:23Z</time>
      </trkpt>
      <trkpt lat="43.008407" lon="-2.422723">
        <ele>679.108</ele>
        <time>2018-06-09T10:34:26Z</time>
      </trkpt>
      <trkpt lat="43.008379" lon="-2.422658">
        <ele>680.587</ele>
        <time>2018-06-09T10:34:30Z</time>
      </trkpt>
      <trkpt lat="43.008345" lon="-2.422605">
        <ele>681.590</ele>
        <time>2018-06-09T10:34:34Z</time>
      </trkpt>
      <trkpt lat="43.008302" lon="-2.422565">
        <ele>682.061</ele>
        <time>2018-06-09T10:34:38Z</time>
      </trkpt>
      <trkpt lat="43.008263" lon="-2.422521">
        <ele>682.699</ele>
        <time>2018-06-09T10:34:42Z</time>
      </trkpt>
      <trkpt lat="43.008240" lon="-2.422464">
        <ele>684.347</ele>
        <time>2018-06-09T10:34:47Z</time>
      </trkpt>
      <trkpt lat="43.008231" lon="-2.422392">
        <ele>686.271</ele>
        <time>2018-06-09T10:34:53Z</time>
      </trkpt>
      <trkpt lat="43.008229" lon="-2.422320">
        <ele>688.047</ele>
        <time>2018-06-09T10:34:57Z</time>
      </trkpt>
      <trkpt lat="43.008233" lon="-2.422256">
        <ele>689.678</ele>
        <time>2018-06-09T10:35:00Z</time>
      </trkpt>
      <trkpt lat="43.008231" lon="-2.422189">
        <ele>690.422</ele>
        <time>2018-06-09T10:35:03Z</time>
      </trkpt>
      <trkpt lat="43.008224" lon="-2.422121">
        <ele>691.162</ele>
        <time>2018-06-09T10:35:06Z</time>
      </trkpt>
      <trkpt lat="43.008211" lon="-2.422044">
        <ele>691.408</ele>
        <time>2018-06-09T10:35:10Z</time>
      </trkpt>
      <trkpt lat="43.008200" lon="-2.421964">
        <ele>692.108</ele>
        <time>2018-06-09T10:35:14Z</time>
      </trkpt>
      <trkpt lat="43.008205" lon="-2.421888">
        <ele>693.254</ele>
        <time>2018-06-09T10:35:18Z</time>
      </trkpt>
      <trkpt lat="43.008206" lon="-2.421814">
        <ele>693.877</ele>
        <time>2018-06-09T10:35:22Z</time>
      </trkpt>
      <trkpt lat="43.008197" lon="-2.421740">
        <ele>694.348</ele>
        <time>2018-06-09T10:35:26Z</time>
      </trkpt>
      <trkpt lat="43.008196" lon="-2.421664">
        <ele>695.746</ele>
        <time>2018-06-09T10:35:30Z</time>
      </trkpt>
      <trkpt lat="43.008194" lon="-2.421590">
        <ele>696.434</ele>
        <time>2018-06-09T10:35:34Z</time>
      </trkpt>
      <trkpt lat="43.008185" lon="-2.421523">
        <ele>696.838</ele>
        <time>2018-06-09T10:35:38Z</time>
      </trkpt>
      <trkpt lat="43.008167" lon="-2.421453">
        <ele>696.434</ele>
        <time>2018-06-09T10:35:42Z</time>
      </trkpt>
      <trkpt lat="43.008143" lon="-2.421381">
        <ele>697.235</ele>
        <time>2018-06-09T10:35:46Z</time>
      </trkpt>
      <trkpt lat="43.008122" lon="-2.421307">
        <ele>696.831</ele>
        <time>2018-06-09T10:35:50Z</time>
      </trkpt>
      <trkpt lat="43.008091" lon="-2.421237">
        <ele>696.661</ele>
        <time>2018-06-09T10:35:54Z</time>
      </trkpt>
      <trkpt lat="43.008059" lon="-2.421191">
        <ele>696.607</ele>
        <time>2018-06-09T10:35:57Z</time>
      </trkpt>
      <trkpt lat="43.008024" lon="-2.421148">
        <ele>696.808</ele>
        <time>2018-06-09T10:36:00Z</time>
      </trkpt>
      <trkpt lat="43.007986" lon="-2.421093">
        <ele>697.065</ele>
        <time>2018-06-09T10:36:04Z</time>
      </trkpt>
      <trkpt lat="43.007957" lon="-2.421032">
        <ele>697.098</ele>
        <time>2018-06-09T10:36:08Z</time>
      </trkpt>
      <trkpt lat="43.007924" lon="-2.420974">
        <ele>696.979</ele>
        <time>2018-06-09T10:36:12Z</time>
      </trkpt>
      <trkpt lat="43.007890" lon="-2.420931">
        <ele>696.727</ele>
        <time>2018-06-09T10:36:16Z</time>
      </trkpt>
      <trkpt lat="43.007852" lon="-2.420877">
        <ele>696.355</ele>
        <time>2018-06-09T10:36:21Z</time>
      </trkpt>
      <trkpt lat="43.007819" lon="-2.420826">
        <ele>696.119</ele>
        <time>2018-06-09T10:36:25Z</time>
      </trkpt>
      <trkpt lat="43.007782" lon="-2.420762">
        <ele>696.195</ele>
        <time>2018-06-09T10:36:29Z</time>
      </trkpt>
      <trkpt lat="43.007754" lon="-2.420706">
        <ele>695.756</ele>
        <time>2018-06-09T10:36:32Z</time>
      </trkpt>
      <trkpt lat="43.007722" lon="-2.420652">
        <ele>695.275</ele>
        <time>2018-06-09T10:36:35Z</time>
      </trkpt>
      <trkpt lat="43.007687" lon="-2.420605">
        <ele>694.028</ele>
        <time>2018-06-09T10:36:38Z</time>
      </trkpt>
      <trkpt lat="43.007652" lon="-2.420565">
        <ele>693.920</ele>
        <time>2018-06-09T10:36:41Z</time>
      </trkpt>
      <trkpt lat="43.007613" lon="-2.420512">
        <ele>693.508</ele>
        <time>2018-06-09T10:36:45Z</time>
      </trkpt>
      <trkpt lat="43.007578" lon="-2.420472">
        <ele>694.499</ele>
        <time>2018-06-09T10:36:49Z</time>
      </trkpt>
      <trkpt lat="43.007584" lon="-2.420404">
        <ele>695.712</ele>
        <time>2018-06-09T10:36:54Z</time>
      </trkpt>
      <trkpt lat="43.007611" lon="-2.420355">
        <ele>697.283</ele>
        <time>2018-06-09T10:36:58Z</time>
      </trkpt>
      <trkpt lat="43.007644" lon="-2.420297">
        <ele>699.521</ele>
        <time>2018-06-09T10:37:03Z</time>
      </trkpt>
      <trkpt lat="43.007647" lon="-2.420219">
        <ele>700.729</ele>
        <time>2018-06-09T10:37:07Z</time>
      </trkpt>
      <trkpt lat="43.007633" lon="-2.420153">
        <ele>701.573</ele>
        <time>2018-06-09T10:37:10Z</time>
      </trkpt>
      <trkpt lat="43.007608" lon="-2.420089">
        <ele>702.499</ele>
        <time>2018-06-09T10:37:13Z</time>
      </trkpt>
      <trkpt lat="43.007588" lon="-2.420031">
        <ele>702.790</ele>
        <time>2018-06-09T10:37:16Z</time>
      </trkpt>
      <trkpt lat="43.007561" lon="-2.419960">
        <ele>703.324</ele>
        <time>2018-06-09T10:37:20Z</time>
      </trkpt>
      <trkpt lat="43.007536" lon="-2.419903">
        <ele>703.904</ele>
        <time>2018-06-09T10:37:23Z</time>
      </trkpt>
      <trkpt lat="43.007515" lon="-2.419848">
        <ele>703.814</ele>
        <time>2018-06-09T10:37:26Z</time>
      </trkpt>
      <trkpt lat="43.007487" lon="-2.419778">
        <ele>703.508</ele>
        <time>2018-06-09T10:37:30Z</time>
      </trkpt>
      <trkpt lat="43.007471" lon="-2.419705">
        <ele>703.474</ele>
        <time>2018-06-09T10:37:34Z</time>
      </trkpt>
      <trkpt lat="43.007461" lon="-2.419629">
        <ele>703.937</ele>
        <time>2018-06-09T10:37:38Z</time>
      </trkpt>
      <trkpt lat="43.007443" lon="-2.419558">
        <ele>704.468</ele>
        <time>2018-06-09T10:37:42Z</time>
      </trkpt>
      <trkpt lat="43.007435" lon="-2.419483">
        <ele>705.996</ele>
        <time>2018-06-09T10:37:46Z</time>
      </trkpt>
      <trkpt lat="43.007435" lon="-2.419419">
        <ele>706.784</ele>
        <time>2018-06-09T10:37:49Z</time>
      </trkpt>
      <trkpt lat="43.007434" lon="-2.419347">
        <ele>708.228</ele>
        <time>2018-06-09T10:37:53Z</time>
      </trkpt>
      <trkpt lat="43.007439" lon="-2.419272">
        <ele>709.724</ele>
        <time>2018-06-09T10:37:57Z</time>
      </trkpt>
      <trkpt lat="43.007444" lon="-2.419197">
        <ele>711.055</ele>
        <time>2018-06-09T10:38:01Z</time>
      </trkpt>
      <trkpt lat="43.007438" lon="-2.419128">
        <ele>711.831</ele>
        <time>2018-06-09T10:38:05Z</time>
      </trkpt>
      <trkpt lat="43.007432" lon="-2.419057">
        <ele>712.961</ele>
        <time>2018-06-09T10:38:09Z</time>
      </trkpt>
      <trkpt lat="43.007423" lon="-2.418994">
        <ele>713.807</ele>
        <time>2018-06-09T10:38:12Z</time>
      </trkpt>
      <trkpt lat="43.007410" lon="-2.418933">
        <ele>714.508</ele>
        <time>2018-06-09T10:38:15Z</time>
      </trkpt>
      <trkpt lat="43.007392" lon="-2.418861">
        <ele>715.215</ele>
        <time>2018-06-09T10:38:19Z</time>
      </trkpt>
      <trkpt lat="43.007367" lon="-2.418802">
        <ele>714.928</ele>
        <time>2018-06-09T10:38:23Z</time>
      </trkpt>
      <trkpt lat="43.007345" lon="-2.418743">
        <ele>714.929</ele>
        <time>2018-06-09T10:38:27Z</time>
      </trkpt>
      <trkpt lat="43.007328" lon="-2.418686">
        <ele>714.857</ele>
        <time>2018-06-09T10:38:30Z</time>
      </trkpt>
      <trkpt lat="43.007303" lon="-2.418615">
        <ele>714.115</ele>
        <time>2018-06-09T10:38:34Z</time>
      </trkpt>
      <trkpt lat="43.007275" lon="-2.418548">
        <ele>714.699</ele>
        <time>2018-06-09T10:38:38Z</time>
      </trkpt>
      <trkpt lat="43.007258" lon="-2.418488">
        <ele>715.365</ele>
        <time>2018-06-09T10:38:41Z</time>
      </trkpt>
      <trkpt lat="43.007243" lon="-2.418424">
        <ele>716.796</ele>
        <time>2018-06-09T10:38:44Z</time>
      </trkpt>
      <trkpt lat="43.007231" lon="-2.418352">
        <ele>717.691</ele>
        <time>2018-06-09T10:38:47Z</time>
      </trkpt>
      <trkpt lat="43.007224" lon="-2.418277">
        <ele>717.581</ele>
        <time>2018-06-09T10:38:50Z</time>
      </trkpt>
      <trkpt lat="43.007218" lon="-2.418201">
        <ele>717.619</ele>
        <time>2018-06-09T10:38:53Z</time>
      </trkpt>
      <trkpt lat="43.007212" lon="-2.418130">
        <ele>718.108</ele>
        <time>2018-06-09T10:38:56Z</time>
      </trkpt>
      <trkpt lat="43.007204" lon="-2.418053">
        <ele>718.891</ele>
        <time>2018-06-09T10:38:59Z</time>
      </trkpt>
      <trkpt lat="43.007197" lon="-2.417981">
        <ele>719.714</ele>
        <time>2018-06-09T10:39:02Z</time>
      </trkpt>
      <trkpt lat="43.007207" lon="-2.417910">
        <ele>721.065</ele>
        <time>2018-06-09T10:39:06Z</time>
      </trkpt>
      <trkpt lat="43.007227" lon="-2.417843">
        <ele>722.333</ele>
        <time>2018-06-09T10:39:09Z</time>
      </trkpt>
      <trkpt lat="43.007244" lon="-2.417781">
        <ele>723.151</ele>
        <time>2018-06-09T10:39:12Z</time>
      </trkpt>
      <trkpt lat="43.007261" lon="-2.417720">
        <ele>723.895</ele>
        <time>2018-06-09T10:39:15Z</time>
      </trkpt>
      <trkpt lat="43.007273" lon="-2.417654">
        <ele>724.731</ele>
        <time>2018-06-09T10:39:18Z</time>
      </trkpt>
      <trkpt lat="43.007279" lon="-2.417593">
        <ele>725.252</ele>
        <time>2018-06-09T10:39:21Z</time>
      </trkpt>
      <trkpt lat="43.007290" lon="-2.417526">
        <ele>725.421</ele>
        <time>2018-06-09T10:39:24Z</time>
      </trkpt>
      <trkpt lat="43.007281" lon="-2.417457">
        <ele>725.941</ele>
        <time>2018-06-09T10:39:28Z</time>
      </trkpt>
      <trkpt lat="43.007265" lon="-2.417374">
        <ele>726.305</ele>
        <time>2018-06-09T10:39:32Z</time>
      </trkpt>
      <trkpt lat="43.007256" lon="-2.417298">
        <ele>726.708</ele>
        <time>2018-06-09T10:39:35Z</time>
      </trkpt>
      <trkpt lat="43.007240" lon="-2.417232">
        <ele>727.054</ele>
        <time>2018-06-09T10:39:39Z</time>
      </trkpt>
      <trkpt lat="43.007217" lon="-2.417171">
        <ele>727.057</ele>
        <time>2018-06-09T10:39:43Z</time>
      </trkpt>
      <trkpt lat="43.007207" lon="-2.417109">
        <ele>726.658</ele>
        <time>2018-06-09T10:39:47Z</time>
      </trkpt>
      <trkpt lat="43.007199" lon="-2.417038">
        <ele>726.026</ele>
        <time>2018-06-09T10:39:51Z</time>
      </trkpt>
      <trkpt lat="43.007202" lon="-2.416973">
        <ele>725.724</ele>
        <time>2018-06-09T10:39:55Z</time>
      </trkpt>
      <trkpt lat="43.007213" lon="-2.416905">
        <ele>726.678</ele>
        <time>2018-06-09T10:39:59Z</time>
      </trkpt>
      <trkpt lat="43.007219" lon="-2.416831">
        <ele>727.594</ele>
        <time>2018-06-09T10:40:03Z</time>
      </trkpt>
      <trkpt lat="43.007214" lon="-2.416752">
        <ele>728.165</ele>
        <time>2018-06-09T10:40:07Z</time>
      </trkpt>
      <trkpt lat="43.007190" lon="-2.416679">
        <ele>728.457</ele>
        <time>2018-06-09T10:40:11Z</time>
      </trkpt>
      <trkpt lat="43.007162" lon="-2.416615">
        <ele>728.300</ele>
        <time>2018-06-09T10:40:15Z</time>
      </trkpt>
      <trkpt lat="43.007132" lon="-2.416548">
        <ele>728.420</ele>
        <time>2018-06-09T10:40:20Z</time>
      </trkpt>
      <trkpt lat="43.007103" lon="-2.416486">
        <ele>727.808</ele>
        <time>2018-06-09T10:40:24Z</time>
      </trkpt>
      <trkpt lat="43.007073" lon="-2.416430">
        <ele>726.877</ele>
        <time>2018-06-09T10:40:29Z</time>
      </trkpt>
      <trkpt lat="43.007041" lon="-2.416363">
        <ele>724.920</ele>
        <time>2018-06-09T10:40:33Z</time>
      </trkpt>
      <trkpt lat="43.007012" lon="-2.416314">
        <ele>722.931</ele>
        <time>2018-06-09T10:40:36Z</time>
      </trkpt>
      <trkpt lat="43.006986" lon="-2.416261">
        <ele>722.169</ele>
        <time>2018-06-09T10:40:39Z</time>
      </trkpt>
      <trkpt lat="43.006958" lon="-2.416206">
        <ele>721.627</ele>
        <time>2018-06-09T10:40:42Z</time>
      </trkpt>
      <trkpt lat="43.006930" lon="-2.416149">
        <ele>721.221</ele>
        <time>2018-06-09T10:40:45Z</time>
      </trkpt>
      <trkpt lat="43.006892" lon="-2.416104">
        <ele>721.277</ele>
        <time>2018-06-09T10:40:48Z</time>
      </trkpt>
      <trkpt lat="43.006871" lon="-2.416039">
        <ele>721.668</ele>
        <time>2018-06-09T10:40:52Z</time>
      </trkpt>
      <trkpt lat="43.006872" lon="-2.415964">
        <ele>722.292</ele>
        <time>2018-06-09T10:40:57Z</time>
      </trkpt>
      <trkpt lat="43.006861" lon="-2.415904">
        <ele>722.973</ele>
        <time>2018-06-09T10:41:01Z</time>
      </trkpt>
      <trkpt lat="43.006845" lon="-2.415845">
        <ele>723.120</ele>
        <time>2018-06-09T10:41:05Z</time>
      </trkpt>
      <trkpt lat="43.006823" lon="-2.415791">
        <ele>722.508</ele>
        <time>2018-06-09T10:41:08Z</time>
      </trkpt>
      <trkpt lat="43.006804" lon="-2.415730">
        <ele>722.591</ele>
        <time>2018-06-09T10:41:11Z</time>
      </trkpt>
      <trkpt lat="43.006797" lon="-2.415662">
        <ele>722.534</ele>
        <time>2018-06-09T10:41:14Z</time>
      </trkpt>
      <trkpt lat="43.006804" lon="-2.415592">
        <ele>723.525</ele>
        <time>2018-06-09T10:41:17Z</time>
      </trkpt>
      <trkpt lat="43.006811" lon="-2.415526">
        <ele>725.563</ele>
        <time>2018-06-09T10:41:20Z</time>
      </trkpt>
      <trkpt lat="43.006831" lon="-2.415452">
        <ele>727.761</ele>
        <time>2018-06-09T10:41:23Z</time>
      </trkpt>
      <trkpt lat="43.006862" lon="-2.415382">
        <ele>729.545</ele>
        <time>2018-06-09T10:41:26Z</time>
      </trkpt>
      <trkpt lat="43.006881" lon="-2.415326">
        <ele>730.621</ele>
        <time>2018-06-09T10:41:29Z</time>
      </trkpt>
      <trkpt lat="43.006871" lon="-2.415263">
        <ele>731.582</ele>
        <time>2018-06-09T10:41:33Z</time>
      </trkpt>
      <trkpt lat="43.006863" lon="-2.415187">
        <ele>732.021</ele>
        <time>2018-06-09T10:41:38Z</time>
      </trkpt>
      <trkpt lat="43.006881" lon="-2.415116">
        <ele>732.341</ele>
        <time>2018-06-09T10:41:42Z</time>
      </trkpt>
      <trkpt lat="43.006905" lon="-2.415049">
        <ele>733.305</ele>
        <time>2018-06-09T10:41:45Z</time>
      </trkpt>
      <trkpt lat="43.006937" lon="-2.414982">
        <ele>734.408</ele>
        <time>2018-06-09T10:41:48Z</time>
      </trkpt>
      <trkpt lat="43.006974" lon="-2.414916">
        <ele>735.754</ele>
        <time>2018-06-09T10:41:51Z</time>
      </trkpt>
      <trkpt lat="43.007007" lon="-2.414856">
        <ele>736.697</ele>
        <time>2018-06-09T10:41:54Z</time>
      </trkpt>
      <trkpt lat="43.007024" lon="-2.414797">
        <ele>737.518</ele>
        <time>2018-06-09T10:41:57Z</time>
      </trkpt>
      <trkpt lat="43.007043" lon="-2.414728">
        <ele>738.246</ele>
        <time>2018-06-09T10:42:00Z</time>
      </trkpt>
      <trkpt lat="43.007075" lon="-2.414656">
        <ele>739.054</ele>
        <time>2018-06-09T10:42:03Z</time>
      </trkpt>
      <trkpt lat="43.007113" lon="-2.414592">
        <ele>739.888</ele>
        <time>2018-06-09T10:42:06Z</time>
      </trkpt>
      <trkpt lat="43.007145" lon="-2.414528">
        <ele>740.394</ele>
        <time>2018-06-09T10:42:09Z</time>
      </trkpt>
      <trkpt lat="43.007172" lon="-2.414462">
        <ele>740.675</ele>
        <time>2018-06-09T10:42:12Z</time>
      </trkpt>
      <trkpt lat="43.007194" lon="-2.414401">
        <ele>740.329</ele>
        <time>2018-06-09T10:42:15Z</time>
      </trkpt>
      <trkpt lat="43.007213" lon="-2.414325">
        <ele>740.500</ele>
        <time>2018-06-09T10:42:19Z</time>
      </trkpt>
      <trkpt lat="43.007225" lon="-2.414252">
        <ele>742.420</ele>
        <time>2018-06-09T10:42:23Z</time>
      </trkpt>
      <trkpt lat="43.007236" lon="-2.414184">
        <ele>743.508</ele>
        <time>2018-06-09T10:42:27Z</time>
      </trkpt>
      <trkpt lat="43.007246" lon="-2.414113">
        <ele>743.994</ele>
        <time>2018-06-09T10:42:31Z</time>
      </trkpt>
      <trkpt lat="43.007254" lon="-2.414041">
        <ele>744.197</ele>
        <time>2018-06-09T10:42:35Z</time>
      </trkpt>
      <trkpt lat="43.007251" lon="-2.413964">
        <ele>742.598</ele>
        <time>2018-06-09T10:42:39Z</time>
      </trkpt>
      <trkpt lat="43.007234" lon="-2.413893">
        <ele>742.886</ele>
        <time>2018-06-09T10:42:43Z</time>
      </trkpt>
      <trkpt lat="43.007199" lon="-2.413834">
        <ele>743.914</ele>
        <time>2018-06-09T10:42:57Z</time>
      </trkpt>
      <trkpt lat="43.007198" lon="-2.413768">
        <ele>745.558</ele>
        <time>2018-06-09T10:43:06Z</time>
      </trkpt>
      <trkpt lat="43.007190" lon="-2.413707">
        <ele>746.664</ele>
        <time>2018-06-09T10:43:11Z</time>
      </trkpt>
      <trkpt lat="43.007176" lon="-2.413642">
        <ele>747.115</ele>
        <time>2018-06-09T10:43:15Z</time>
      </trkpt>
      <trkpt lat="43.007152" lon="-2.413583">
        <ele>747.565</ele>
        <time>2018-06-09T10:43:18Z</time>
      </trkpt>
      <trkpt lat="43.007128" lon="-2.413523">
        <ele>748.568</ele>
        <time>2018-06-09T10:43:22Z</time>
      </trkpt>
      <trkpt lat="43.007111" lon="-2.413458">
        <ele>748.014</ele>
        <time>2018-06-09T10:43:26Z</time>
      </trkpt>
      <trkpt lat="43.007105" lon="-2.413392">
        <ele>747.608</ele>
        <time>2018-06-09T10:43:29Z</time>
      </trkpt>
      <trkpt lat="43.007097" lon="-2.413324">
        <ele>746.818</ele>
        <time>2018-06-09T10:43:32Z</time>
      </trkpt>
      <trkpt lat="43.007061" lon="-2.413267">
        <ele>746.451</ele>
        <time>2018-06-09T10:43:36Z</time>
      </trkpt>
      <trkpt lat="43.007026" lon="-2.413221">
        <ele>746.782</ele>
        <time>2018-06-09T10:43:40Z</time>
      </trkpt>
      <trkpt lat="43.006992" lon="-2.413157">
        <ele>746.980</ele>
        <time>2018-06-09T10:43:44Z</time>
      </trkpt>
      <trkpt lat="43.006959" lon="-2.413098">
        <ele>747.228</ele>
        <time>2018-06-09T10:43:48Z</time>
      </trkpt>
      <trkpt lat="43.006936" lon="-2.413022">
        <ele>747.472</ele>
        <time>2018-06-09T10:43:52Z</time>
      </trkpt>
      <trkpt lat="43.006916" lon="-2.412964">
        <ele>748.248</ele>
        <time>2018-06-09T10:43:56Z</time>
      </trkpt>
      <trkpt lat="43.006893" lon="-2.412907">
        <ele>749.289</ele>
        <time>2018-06-09T10:44:01Z</time>
      </trkpt>
      <trkpt lat="43.006857" lon="-2.412856">
        <ele>750.581</ele>
        <time>2018-06-09T10:44:07Z</time>
      </trkpt>
      <trkpt lat="43.006816" lon="-2.412805">
        <ele>751.461</ele>
        <time>2018-06-09T10:44:12Z</time>
      </trkpt>
      <trkpt lat="43.006785" lon="-2.412757">
        <ele>751.217</ele>
        <time>2018-06-09T10:44:16Z</time>
      </trkpt>
      <trkpt lat="43.006757" lon="-2.412702">
        <ele>751.008</ele>
        <time>2018-06-09T10:44:21Z</time>
      </trkpt>
      <trkpt lat="43.006720" lon="-2.412638">
        <ele>750.530</ele>
        <time>2018-06-09T10:44:24Z</time>
      </trkpt>
      <trkpt lat="43.006691" lon="-2.412583">
        <ele>749.733</ele>
        <time>2018-06-09T10:44:26Z</time>
      </trkpt>
      <trkpt lat="43.006659" lon="-2.412527">
        <ele>749.444</ele>
        <time>2018-06-09T10:44:28Z</time>
      </trkpt>
      <trkpt lat="43.006624" lon="-2.412471">
        <ele>749.212</ele>
        <time>2018-06-09T10:44:30Z</time>
      </trkpt>
      <trkpt lat="43.006581" lon="-2.412416">
        <ele>749.470</ele>
        <time>2018-06-09T10:44:32Z</time>
      </trkpt>
      <trkpt lat="43.006540" lon="-2.412355">
        <ele>749.164</ele>
        <time>2018-06-09T10:44:34Z</time>
      </trkpt>
      <trkpt lat="43.006495" lon="-2.412295">
        <ele>748.590</ele>
        <time>2018-06-09T10:44:36Z</time>
      </trkpt>
      <trkpt lat="43.006443" lon="-2.412237">
        <ele>748.141</ele>
        <time>2018-06-09T10:44:38Z</time>
      </trkpt>
      <trkpt lat="43.006394" lon="-2.412157">
        <ele>748.442</ele>
        <time>2018-06-09T10:44:40Z</time>
      </trkpt>
      <trkpt lat="43.006364" lon="-2.412056">
        <ele>749.222</ele>
        <time>2018-06-09T10:44:42Z</time>
      </trkpt>
      <trkpt lat="43.006362" lon="-2.411953">
        <ele>749.614</ele>
        <time>2018-06-09T10:44:44Z</time>
      </trkpt>
      <trkpt lat="43.006375" lon="-2.411850">
        <ele>750.008</ele>
        <time>2018-06-09T10:44:46Z</time>
      </trkpt>
      <trkpt lat="43.006379" lon="-2.411754">
        <ele>750.676</ele>
        <time>2018-06-09T10:44:48Z</time>
      </trkpt>
      <trkpt lat="43.006379" lon="-2.411674">
        <ele>751.019</ele>
        <time>2018-06-09T10:44:50Z</time>
      </trkpt>
      <trkpt lat="43.006380" lon="-2.411608">
        <ele>750.550</ele>
        <time>2018-06-09T10:44:52Z</time>
      </trkpt>
      <trkpt lat="43.006382" lon="-2.411529">
        <ele>750.368</ele>
        <time>2018-06-09T10:44:55Z</time>
      </trkpt>
      <trkpt lat="43.006392" lon="-2.411453">
        <ele>750.866</ele>
        <time>2018-06-09T10:44:58Z</time>
      </trkpt>
      <trkpt lat="43.006410" lon="-2.411387">
        <ele>750.620</ele>
        <time>2018-06-09T10:45:01Z</time>
      </trkpt>
      <trkpt lat="43.006405" lon="-2.411321">
        <ele>750.016</ele>
        <time>2018-06-09T10:45:05Z</time>
      </trkpt>
      <trkpt lat="43.006396" lon="-2.411258">
        <ele>749.267</ele>
        <time>2018-06-09T10:45:09Z</time>
      </trkpt>
      <trkpt lat="43.006409" lon="-2.411190">
        <ele>748.495</ele>
        <time>2018-06-09T10:45:13Z</time>
      </trkpt>
      <trkpt lat="43.006429" lon="-2.411118">
        <ele>748.149</ele>
        <time>2018-06-09T10:45:17Z</time>
      </trkpt>
      <trkpt lat="43.006442" lon="-2.411056">
        <ele>748.623</ele>
        <time>2018-06-09T10:45:20Z</time>
      </trkpt>
      <trkpt lat="43.006455" lon="-2.410995">
        <ele>749.308</ele>
        <time>2018-06-09T10:45:23Z</time>
      </trkpt>
      <trkpt lat="43.006465" lon="-2.410932">
        <ele>749.271</ele>
        <time>2018-06-09T10:45:27Z</time>
      </trkpt>
      <trkpt lat="43.006478" lon="-2.410873">
        <ele>749.774</ele>
        <time>2018-06-09T10:45:32Z</time>
      </trkpt>
      <trkpt lat="43.006511" lon="-2.410817">
        <ele>750.215</ele>
        <time>2018-06-09T10:45:36Z</time>
      </trkpt>
      <trkpt lat="43.006520" lon="-2.410755">
        <ele>749.943</ele>
        <time>2018-06-09T10:45:40Z</time>
      </trkpt>
      <trkpt lat="43.006523" lon="-2.410684">
        <ele>750.231</ele>
        <time>2018-06-09T10:45:44Z</time>
      </trkpt>
      <trkpt lat="43.006508" lon="-2.410609">
        <ele>750.225</ele>
        <time>2018-06-09T10:45:48Z</time>
      </trkpt>
      <trkpt lat="43.006476" lon="-2.410545">
        <ele>750.071</ele>
        <time>2018-06-09T10:45:51Z</time>
      </trkpt>
      <trkpt lat="43.006447" lon="-2.410497">
        <ele>749.322</ele>
        <time>2018-06-09T10:45:53Z</time>
      </trkpt>
      <trkpt lat="43.006432" lon="-2.410423">
        <ele>748.816</ele>
        <time>2018-06-09T10:45:56Z</time>
      </trkpt>
      <trkpt lat="43.006424" lon="-2.410350">
        <ele>748.776</ele>
        <time>2018-06-09T10:45:59Z</time>
      </trkpt>
      <trkpt lat="43.006406" lon="-2.410283">
        <ele>748.613</ele>
        <time>2018-06-09T10:46:02Z</time>
      </trkpt>
      <trkpt lat="43.006383" lon="-2.410216">
        <ele>749.208</ele>
        <time>2018-06-09T10:46:05Z</time>
      </trkpt>
      <trkpt lat="43.006361" lon="-2.410154">
        <ele>750.273</ele>
        <time>2018-06-09T10:46:08Z</time>
      </trkpt>
      <trkpt lat="43.006339" lon="-2.410099">
        <ele>750.226</ele>
        <time>2018-06-09T10:46:12Z</time>
      </trkpt>
      <trkpt lat="43.006304" lon="-2.410056">
        <ele>750.097</ele>
        <time>2018-06-09T10:46:15Z</time>
      </trkpt>
      <trkpt lat="43.006262" lon="-2.410027">
        <ele>749.635</ele>
        <time>2018-06-09T10:46:18Z</time>
      </trkpt>
      <trkpt lat="43.006219" lon="-2.409992">
        <ele>749.483</ele>
        <time>2018-06-09T10:46:21Z</time>
      </trkpt>
      <trkpt lat="43.006181" lon="-2.409945">
        <ele>748.997</ele>
        <time>2018-06-09T10:46:24Z</time>
      </trkpt>
      <trkpt lat="43.006150" lon="-2.409890">
        <ele>749.183</ele>
        <time>2018-06-09T10:46:27Z</time>
      </trkpt>
      <trkpt lat="43.006127" lon="-2.409819">
        <ele>749.724</ele>
        <time>2018-06-09T10:46:30Z</time>
      </trkpt>
      <trkpt lat="43.006110" lon="-2.409742">
        <ele>749.697</ele>
        <time>2018-06-09T10:46:33Z</time>
      </trkpt>
      <trkpt lat="43.006099" lon="-2.409668">
        <ele>749.823</ele>
        <time>2018-06-09T10:46:36Z</time>
      </trkpt>
      <trkpt lat="43.006091" lon="-2.409604">
        <ele>750.825</ele>
        <time>2018-06-09T10:46:40Z</time>
      </trkpt>
      <trkpt lat="43.006072" lon="-2.409539">
        <ele>750.808</ele>
        <time>2018-06-09T10:46:44Z</time>
      </trkpt>
      <trkpt lat="43.006044" lon="-2.409489">
        <ele>750.471</ele>
        <time>2018-06-09T10:46:47Z</time>
      </trkpt>
      <trkpt lat="43.005999" lon="-2.409441">
        <ele>750.254</ele>
        <time>2018-06-09T10:46:50Z</time>
      </trkpt>
      <trkpt lat="43.005952" lon="-2.409401">
        <ele>750.365</ele>
        <time>2018-06-09T10:46:53Z</time>
      </trkpt>
      <trkpt lat="43.005921" lon="-2.409348">
        <ele>750.183</ele>
        <time>2018-06-09T10:46:56Z</time>
      </trkpt>
      <trkpt lat="43.005877" lon="-2.409299">
        <ele>750.251</ele>
        <time>2018-06-09T10:47:00Z</time>
      </trkpt>
      <trkpt lat="43.005832" lon="-2.409265">
        <ele>750.685</ele>
        <time>2018-06-09T10:47:03Z</time>
      </trkpt>
      <trkpt lat="43.005783" lon="-2.409237">
        <ele>751.381</ele>
        <time>2018-06-09T10:47:06Z</time>
      </trkpt>
      <trkpt lat="43.005734" lon="-2.409217">
        <ele>752.112</ele>
        <time>2018-06-09T10:47:09Z</time>
      </trkpt>
      <trkpt lat="43.005677" lon="-2.409186">
        <ele>751.237</ele>
        <time>2018-06-09T10:47:13Z</time>
      </trkpt>
      <trkpt lat="43.005630" lon="-2.409152">
        <ele>751.249</ele>
        <time>2018-06-09T10:47:16Z</time>
      </trkpt>
      <trkpt lat="43.005592" lon="-2.409116">
        <ele>750.113</ele>
        <time>2018-06-09T10:47:19Z</time>
      </trkpt>
      <trkpt lat="43.005549" lon="-2.409077">
        <ele>749.908</ele>
        <time>2018-06-09T10:47:22Z</time>
      </trkpt>
      <trkpt lat="43.005506" lon="-2.409040">
        <ele>750.355</ele>
        <time>2018-06-09T10:47:25Z</time>
      </trkpt>
      <trkpt lat="43.005465" lon="-2.409009">
        <ele>750.338</ele>
        <time>2018-06-09T10:47:28Z</time>
      </trkpt>
      <trkpt lat="43.005426" lon="-2.408962">
        <ele>750.689</ele>
        <time>2018-06-09T10:47:31Z</time>
      </trkpt>
      <trkpt lat="43.005381" lon="-2.408906">
        <ele>750.437</ele>
        <time>2018-06-09T10:47:34Z</time>
      </trkpt>
      <trkpt lat="43.005332" lon="-2.408869">
        <ele>749.945</ele>
        <time>2018-06-09T10:47:37Z</time>
      </trkpt>
      <trkpt lat="43.005281" lon="-2.408844">
        <ele>749.989</ele>
        <time>2018-06-09T10:47:40Z</time>
      </trkpt>
      <trkpt lat="43.005231" lon="-2.408813">
        <ele>749.765</ele>
        <time>2018-06-09T10:47:43Z</time>
      </trkpt>
      <trkpt lat="43.005183" lon="-2.408785">
        <ele>749.116</ele>
        <time>2018-06-09T10:47:46Z</time>
      </trkpt>
      <trkpt lat="43.005139" lon="-2.408763">
        <ele>749.455</ele>
        <time>2018-06-09T10:47:49Z</time>
      </trkpt>
      <trkpt lat="43.005094" lon="-2.408742">
        <ele>750.807</ele>
        <time>2018-06-09T10:47:52Z</time>
      </trkpt>
      <trkpt lat="43.005049" lon="-2.408711">
        <ele>751.217</ele>
        <time>2018-06-09T10:47:55Z</time>
      </trkpt>
      <trkpt lat="43.005011" lon="-2.408676">
        <ele>751.608</ele>
        <time>2018-06-09T10:47:58Z</time>
      </trkpt>
      <trkpt lat="43.004977" lon="-2.408625">
        <ele>752.177</ele>
        <time>2018-06-09T10:48:01Z</time>
      </trkpt>
      <trkpt lat="43.004950" lon="-2.408574">
        <ele>752.210</ele>
        <time>2018-06-09T10:48:04Z</time>
      </trkpt>
      <trkpt lat="43.004924" lon="-2.408517">
        <ele>753.271</ele>
        <time>2018-06-09T10:48:07Z</time>
      </trkpt>
      <trkpt lat="43.004901" lon="-2.408456">
        <ele>753.529</ele>
        <time>2018-06-09T10:48:10Z</time>
      </trkpt>
      <trkpt lat="43.004875" lon="-2.408393">
        <ele>753.737</ele>
        <time>2018-06-09T10:48:13Z</time>
      </trkpt>
      <trkpt lat="43.004852" lon="-2.408332">
        <ele>753.941</ele>
        <time>2018-06-09T10:48:16Z</time>
      </trkpt>
      <trkpt lat="43.004818" lon="-2.408270">
        <ele>753.857</ele>
        <time>2018-06-09T10:48:20Z</time>
      </trkpt>
      <trkpt lat="43.004780" lon="-2.408220">
        <ele>753.988</ele>
        <time>2018-06-09T10:48:24Z</time>
      </trkpt>
      <trkpt lat="43.004745" lon="-2.408177">
        <ele>753.964</ele>
        <time>2018-06-09T10:48:28Z</time>
      </trkpt>
      <trkpt lat="43.004714" lon="-2.408125">
        <ele>753.306</ele>
        <time>2018-06-09T10:48:32Z</time>
      </trkpt>
      <trkpt lat="43.004679" lon="-2.408084">
        <ele>753.116</ele>
        <time>2018-06-09T10:48:36Z</time>
      </trkpt>
      <trkpt lat="43.004640" lon="-2.408030">
        <ele>752.308</ele>
        <time>2018-06-09T10:48:41Z</time>
      </trkpt>
      <trkpt lat="43.004601" lon="-2.407987">
        <ele>752.088</ele>
        <time>2018-06-09T10:48:45Z</time>
      </trkpt>
      <trkpt lat="43.004556" lon="-2.407961">
        <ele>752.721</ele>
        <time>2018-06-09T10:48:49Z</time>
      </trkpt>
      <trkpt lat="43.004515" lon="-2.407913">
        <ele>753.542</ele>
        <time>2018-06-09T10:48:53Z</time>
      </trkpt>
      <trkpt lat="43.004501" lon="-2.407847">
        <ele>756.250</ele>
        <time>2018-06-09T10:49:01Z</time>
      </trkpt>
      <trkpt lat="43.004498" lon="-2.407775">
        <ele>757.788</ele>
        <time>2018-06-09T10:49:06Z</time>
      </trkpt>
      <trkpt lat="43.004480" lon="-2.407710">
        <ele>759.972</ele>
        <time>2018-06-09T10:49:11Z</time>
      </trkpt>
      <trkpt lat="43.004461" lon="-2.407651">
        <ele>761.258</ele>
        <time>2018-06-09T10:49:15Z</time>
      </trkpt>
      <trkpt lat="43.004462" lon="-2.407589">
        <ele>761.729</ele>
        <time>2018-06-09T10:49:18Z</time>
      </trkpt>
      <trkpt lat="43.004466" lon="-2.407508">
        <ele>760.966</ele>
        <time>2018-06-09T10:49:22Z</time>
      </trkpt>
      <trkpt lat="43.004461" lon="-2.407441">
        <ele>759.129</ele>
        <time>2018-06-09T10:49:25Z</time>
      </trkpt>
      <trkpt lat="43.004452" lon="-2.407518">
        <ele>758.421</ele>
        <time>2018-06-09T10:49:38Z</time>
      </trkpt>
      <trkpt lat="43.004452" lon="-2.407588">
        <ele>757.908</ele>
        <time>2018-06-09T10:49:42Z</time>
      </trkpt>
      <trkpt lat="43.004462" lon="-2.407649">
        <ele>757.428</ele>
        <time>2018-06-09T10:49:45Z</time>
      </trkpt>
      <trkpt lat="43.004483" lon="-2.407717">
        <ele>756.621</ele>
        <time>2018-06-09T10:49:49Z</time>
      </trkpt>
      <trkpt lat="43.004498" lon="-2.407775">
        <ele>755.892</ele>
        <time>2018-06-09T10:49:52Z</time>
      </trkpt>
      <trkpt lat="43.004513" lon="-2.407842">
        <ele>755.250</ele>
        <time>2018-06-09T10:49:56Z</time>
      </trkpt>
      <trkpt lat="43.004523" lon="-2.407771">
        <ele>759.238</ele>
        <time>2018-06-09T10:50:26Z</time>
      </trkpt>
      <trkpt lat="43.004472" lon="-2.407738">
        <ele>763.282</ele>
        <time>2018-06-09T10:50:33Z</time>
      </trkpt>
      <trkpt lat="43.004427" lon="-2.407719">
        <ele>766.098</ele>
        <time>2018-06-09T10:50:38Z</time>
      </trkpt>
      <trkpt lat="43.004387" lon="-2.407686">
        <ele>768.439</ele>
        <time>2018-06-09T10:50:42Z</time>
      </trkpt>
      <trkpt lat="43.004348" lon="-2.407647">
        <ele>769.558</ele>
        <time>2018-06-09T10:50:47Z</time>
      </trkpt>
      <trkpt lat="43.004315" lon="-2.407596">
        <ele>770.852</ele>
        <time>2018-06-09T10:50:51Z</time>
      </trkpt>
      <trkpt lat="43.004290" lon="-2.407530">
        <ele>772.017</ele>
        <time>2018-06-09T10:50:55Z</time>
      </trkpt>
      <trkpt lat="43.004262" lon="-2.407469">
        <ele>772.408</ele>
        <time>2018-06-09T10:50:59Z</time>
      </trkpt>
      <trkpt lat="43.004238" lon="-2.407412">
        <ele>772.747</ele>
        <time>2018-06-09T10:51:03Z</time>
      </trkpt>
      <trkpt lat="43.004205" lon="-2.407357">
        <ele>772.830</ele>
        <time>2018-06-09T10:51:07Z</time>
      </trkpt>
      <trkpt lat="43.004165" lon="-2.407312">
        <ele>772.981</ele>
        <time>2018-06-09T10:51:11Z</time>
      </trkpt>
      <trkpt lat="43.004119" lon="-2.407280">
        <ele>773.359</ele>
        <time>2018-06-09T10:51:14Z</time>
      </trkpt>
      <trkpt lat="43.004090" lon="-2.407211">
        <ele>773.477</ele>
        <time>2018-06-09T10:51:18Z</time>
      </trkpt>
      <trkpt lat="43.004063" lon="-2.407161">
        <ele>773.421</ele>
        <time>2018-06-09T10:51:22Z</time>
      </trkpt>
      <trkpt lat="43.004025" lon="-2.407114">
        <ele>773.797</ele>
        <time>2018-06-09T10:51:26Z</time>
      </trkpt>
      <trkpt lat="43.003973" lon="-2.407075">
        <ele>774.368</ele>
        <time>2018-06-09T10:51:31Z</time>
      </trkpt>
      <trkpt lat="43.003926" lon="-2.407026">
        <ele>775.124</ele>
        <time>2018-06-09T10:51:35Z</time>
      </trkpt>
      <trkpt lat="43.003894" lon="-2.406978">
        <ele>775.704</ele>
        <time>2018-06-09T10:51:38Z</time>
      </trkpt>
      <trkpt lat="43.003867" lon="-2.406917">
        <ele>775.514</ele>
        <time>2018-06-09T10:51:42Z</time>
      </trkpt>
      <trkpt lat="43.003837" lon="-2.406862">
        <ele>776.308</ele>
        <time>2018-06-09T10:51:46Z</time>
      </trkpt>
      <trkpt lat="43.003811" lon="-2.406794">
        <ele>778.034</ele>
        <time>2018-06-09T10:51:51Z</time>
      </trkpt>
      <trkpt lat="43.003792" lon="-2.406738">
        <ele>779.747</ele>
        <time>2018-06-09T10:51:56Z</time>
      </trkpt>
      <trkpt lat="43.003751" lon="-2.406706">
        <ele>781.358</ele>
        <time>2018-06-09T10:52:01Z</time>
      </trkpt>
      <trkpt lat="43.003725" lon="-2.406655">
        <ele>782.256</ele>
        <time>2018-06-09T10:52:05Z</time>
      </trkpt>
      <trkpt lat="43.003702" lon="-2.406580">
        <ele>783.234</ele>
        <time>2018-06-09T10:52:09Z</time>
      </trkpt>
      <trkpt lat="43.003684" lon="-2.406516">
        <ele>784.438</ele>
        <time>2018-06-09T10:52:13Z</time>
      </trkpt>
      <trkpt lat="43.003662" lon="-2.406444">
        <ele>784.274</ele>
        <time>2018-06-09T10:52:17Z</time>
      </trkpt>
      <trkpt lat="43.003637" lon="-2.406382">
        <ele>784.215</ele>
        <time>2018-06-09T10:52:21Z</time>
      </trkpt>
      <trkpt lat="43.003619" lon="-2.406321">
        <ele>783.996</ele>
        <time>2018-06-09T10:52:24Z</time>
      </trkpt>
      <trkpt lat="43.003589" lon="-2.406258">
        <ele>783.931</ele>
        <time>2018-06-09T10:52:28Z</time>
      </trkpt>
      <trkpt lat="43.003571" lon="-2.406199">
        <ele>784.524</ele>
        <time>2018-06-09T10:52:32Z</time>
      </trkpt>
      <trkpt lat="43.003553" lon="-2.406136">
        <ele>785.008</ele>
        <time>2018-06-09T10:52:35Z</time>
      </trkpt>
      <trkpt lat="43.003534" lon="-2.406075">
        <ele>785.611</ele>
        <time>2018-06-09T10:52:38Z</time>
      </trkpt>
      <trkpt lat="43.003498" lon="-2.406013">
        <ele>786.084</ele>
        <time>2018-06-09T10:52:43Z</time>
      </trkpt>
      <trkpt lat="43.003478" lon="-2.405947">
        <ele>787.185</ele>
        <time>2018-06-09T10:52:48Z</time>
      </trkpt>
      <trkpt lat="43.003466" lon="-2.405874">
        <ele>788.053</ele>
        <time>2018-06-09T10:52:52Z</time>
      </trkpt>
      <trkpt lat="43.003442" lon="-2.405802">
        <ele>788.571</ele>
        <time>2018-06-09T10:52:56Z</time>
      </trkpt>
      <trkpt lat="43.003414" lon="-2.405744">
        <ele>788.465</ele>
        <time>2018-06-09T10:53:00Z</time>
      </trkpt>
      <trkpt lat="43.003386" lon="-2.405689">
        <ele>788.311</ele>
        <time>2018-06-09T10:53:04Z</time>
      </trkpt>
      <trkpt lat="43.003361" lon="-2.405625">
        <ele>788.442</ele>
        <time>2018-06-09T10:53:08Z</time>
      </trkpt>
      <trkpt lat="43.003331" lon="-2.405579">
        <ele>788.943</ele>
        <time>2018-06-09T10:53:11Z</time>
      </trkpt>
      <trkpt lat="43.003295" lon="-2.405543">
        <ele>788.864</ele>
        <time>2018-06-09T10:53:14Z</time>
      </trkpt>
      <trkpt lat="43.003250" lon="-2.405513">
        <ele>788.010</ele>
        <time>2018-06-09T10:53:18Z</time>
      </trkpt>
      <trkpt lat="43.003202" lon="-2.405494">
        <ele>788.108</ele>
        <time>2018-06-09T10:53:21Z</time>
      </trkpt>
      <trkpt lat="43.003151" lon="-2.405486">
        <ele>788.056</ele>
        <time>2018-06-09T10:53:24Z</time>
      </trkpt>
      <trkpt lat="43.003105" lon="-2.405472">
        <ele>788.549</ele>
        <time>2018-06-09T10:53:28Z</time>
      </trkpt>
      <trkpt lat="43.003057" lon="-2.405439">
        <ele>789.090</ele>
        <time>2018-06-09T10:53:32Z</time>
      </trkpt>
      <trkpt lat="43.003024" lon="-2.405390">
        <ele>789.258</ele>
        <time>2018-06-09T10:53:35Z</time>
      </trkpt>
      <trkpt lat="43.002990" lon="-2.405343">
        <ele>788.816</ele>
        <time>2018-06-09T10:53:38Z</time>
      </trkpt>
      <trkpt lat="43.002966" lon="-2.405283">
        <ele>788.340</ele>
        <time>2018-06-09T10:53:41Z</time>
      </trkpt>
      <trkpt lat="43.002946" lon="-2.405219">
        <ele>787.856</ele>
        <time>2018-06-09T10:53:44Z</time>
      </trkpt>
      <trkpt lat="43.002938" lon="-2.405148">
        <ele>786.757</ele>
        <time>2018-06-09T10:53:47Z</time>
      </trkpt>
      <trkpt lat="43.002932" lon="-2.405073">
        <ele>786.592</ele>
        <time>2018-06-09T10:53:50Z</time>
      </trkpt>
      <trkpt lat="43.002922" lon="-2.404996">
        <ele>786.273</ele>
        <time>2018-06-09T10:53:53Z</time>
      </trkpt>
      <trkpt lat="43.002914" lon="-2.404922">
        <ele>787.820</ele>
        <time>2018-06-09T10:53:56Z</time>
      </trkpt>
      <trkpt lat="43.002915" lon="-2.404833">
        <ele>789.708</ele>
        <time>2018-06-09T10:53:59Z</time>
      </trkpt>
      <trkpt lat="43.002911" lon="-2.404747">
        <ele>790.071</ele>
        <time>2018-06-09T10:54:02Z</time>
      </trkpt>
      <trkpt lat="43.002890" lon="-2.404676">
        <ele>790.594</ele>
        <time>2018-06-09T10:54:05Z</time>
      </trkpt>
      <trkpt lat="43.002877" lon="-2.404616">
        <ele>791.845</ele>
        <time>2018-06-09T10:54:08Z</time>
      </trkpt>
      <trkpt lat="43.002854" lon="-2.404561">
        <ele>791.773</ele>
        <time>2018-06-09T10:54:12Z</time>
      </trkpt>
      <trkpt lat="43.002814" lon="-2.404517">
        <ele>791.821</ele>
        <time>2018-06-09T10:54:17Z</time>
      </trkpt>
      <trkpt lat="43.002792" lon="-2.404460">
        <ele>792.335</ele>
        <time>2018-06-09T10:54:21Z</time>
      </trkpt>
      <trkpt lat="43.002765" lon="-2.404395">
        <ele>791.781</ele>
        <time>2018-06-09T10:54:26Z</time>
      </trkpt>
      <trkpt lat="43.002737" lon="-2.404339">
        <ele>790.952</ele>
        <time>2018-06-09T10:54:30Z</time>
      </trkpt>
      <trkpt lat="43.002709" lon="-2.404284">
        <ele>789.778</ele>
        <time>2018-06-09T10:54:34Z</time>
      </trkpt>
      <trkpt lat="43.002673" lon="-2.404232">
        <ele>789.933</ele>
        <time>2018-06-09T10:54:39Z</time>
      </trkpt>
      <trkpt lat="43.002635" lon="-2.404184">
        <ele>790.226</ele>
        <time>2018-06-09T10:54:43Z</time>
      </trkpt>
      <trkpt lat="43.002609" lon="-2.404133">
        <ele>793.008</ele>
        <time>2018-06-09T10:54:47Z</time>
      </trkpt>
      <trkpt lat="43.002593" lon="-2.404069">
        <ele>797.049</ele>
        <time>2018-06-09T10:54:53Z</time>
      </trkpt>
      <trkpt lat="43.002581" lon="-2.404005">
        <ele>800.322</ele>
        <time>2018-06-09T10:54:59Z</time>
      </trkpt>
      <trkpt lat="43.002561" lon="-2.403945">
        <ele>803.163</ele>
        <time>2018-06-09T10:55:09Z</time>
      </trkpt>
      <trkpt lat="43.002522" lon="-2.403912">
        <ele>805.561</ele>
        <time>2018-06-09T10:55:18Z</time>
      </trkpt>
      <trkpt lat="43.002480" lon="-2.403882">
        <ele>807.829</ele>
        <time>2018-06-09T10:55:24Z</time>
      </trkpt>
      <trkpt lat="43.002443" lon="-2.403835">
        <ele>809.243</ele>
        <time>2018-06-09T10:55:32Z</time>
      </trkpt>
      <trkpt lat="43.002452" lon="-2.403764">
        <ele>808.829</ele>
        <time>2018-06-09T10:55:41Z</time>
      </trkpt>
      <trkpt lat="43.002440" lon="-2.403703">
        <ele>809.020</ele>
        <time>2018-06-09T10:55:49Z</time>
      </trkpt>
      <trkpt lat="43.002390" lon="-2.403683">
        <ele>808.518</ele>
        <time>2018-06-09T10:55:55Z</time>
      </trkpt>
      <trkpt lat="43.002367" lon="-2.403629">
        <ele>808.498</ele>
        <time>2018-06-09T10:56:02Z</time>
      </trkpt>
      <trkpt lat="43.002396" lon="-2.403577">
        <ele>809.217</ele>
        <time>2018-06-09T10:56:08Z</time>
      </trkpt>
      <trkpt lat="43.002414" lon="-2.403520">
        <ele>810.308</ele>
        <time>2018-06-09T10:56:13Z</time>
      </trkpt>
      <trkpt lat="43.002410" lon="-2.403455">
        <ele>812.533</ele>
        <time>2018-06-09T10:56:18Z</time>
      </trkpt>
      <trkpt lat="43.002404" lon="-2.403379">
        <ele>814.586</ele>
        <time>2018-06-09T10:56:23Z</time>
      </trkpt>
      <trkpt lat="43.002381" lon="-2.403316">
        <ele>816.047</ele>
        <time>2018-06-09T10:56:28Z</time>
      </trkpt>
      <trkpt lat="43.002369" lon="-2.403246">
        <ele>818.175</ele>
        <time>2018-06-09T10:56:35Z</time>
      </trkpt>
      <trkpt lat="43.002374" lon="-2.403181">
        <ele>820.233</ele>
        <time>2018-06-09T10:56:41Z</time>
      </trkpt>
      <trkpt lat="43.002368" lon="-2.403117">
        <ele>822.077</ele>
        <time>2018-06-09T10:56:48Z</time>
      </trkpt>
      <trkpt lat="43.002375" lon="-2.403053">
        <ele>822.933</ele>
        <time>2018-06-09T10:57:02Z</time>
      </trkpt>
      <trkpt lat="43.002371" lon="-2.402990">
        <ele>826.654</ele>
        <time>2018-06-09T10:57:16Z</time>
      </trkpt>
      <trkpt lat="43.002406" lon="-2.402941">
        <ele>829.336</ele>
        <time>2018-06-09T10:57:22Z</time>
      </trkpt>
      <trkpt lat="43.002441" lon="-2.402898">
        <ele>831.417</ele>
        <time>2018-06-09T10:57:27Z</time>
      </trkpt>
      <trkpt lat="43.002460" lon="-2.402833">
        <ele>833.318</ele>
        <time>2018-06-09T10:57:33Z</time>
      </trkpt>
      <trkpt lat="43.002454" lon="-2.402772">
        <ele>836.108</ele>
        <time>2018-06-09T10:57:39Z</time>
      </trkpt>
      <trkpt lat="43.002418" lon="-2.402719">
        <ele>837.885</ele>
        <time>2018-06-09T10:57:46Z</time>
      </trkpt>
      <trkpt lat="43.002375" lon="-2.402685">
        <ele>839.038</ele>
        <time>2018-06-09T10:57:53Z</time>
      </trkpt>
      <trkpt lat="43.002363" lon="-2.402623">
        <ele>841.029</ele>
        <time>2018-06-09T10:58:03Z</time>
      </trkpt>
      <trkpt lat="43.002331" lon="-2.402575">
        <ele>842.937</ele>
        <time>2018-06-09T10:58:12Z</time>
      </trkpt>
      <trkpt lat="43.002300" lon="-2.402526">
        <ele>844.395</ele>
        <time>2018-06-09T10:58:20Z</time>
      </trkpt>
      <trkpt lat="43.002269" lon="-2.402474">
        <ele>845.069</ele>
        <time>2018-06-09T10:58:26Z</time>
      </trkpt>
      <trkpt lat="43.002296" lon="-2.402417">
        <ele>845.435</ele>
        <time>2018-06-09T10:58:34Z</time>
      </trkpt>
      <trkpt lat="43.002318" lon="-2.402361">
        <ele>846.286</ele>
        <time>2018-06-09T10:58:40Z</time>
      </trkpt>
      <trkpt lat="43.002289" lon="-2.402307">
        <ele>847.418</ele>
        <time>2018-06-09T10:58:46Z</time>
      </trkpt>
      <trkpt lat="43.002255" lon="-2.402263">
        <ele>847.898</ele>
        <time>2018-06-09T10:58:51Z</time>
      </trkpt>
      <trkpt lat="43.002233" lon="-2.402209">
        <ele>848.917</ele>
        <time>2018-06-09T10:58:57Z</time>
      </trkpt>
      <trkpt lat="43.002237" lon="-2.402141">
        <ele>849.408</ele>
        <time>2018-06-09T10:59:04Z</time>
      </trkpt>
      <trkpt lat="43.002262" lon="-2.402085">
        <ele>850.693</ele>
        <time>2018-06-09T10:59:11Z</time>
      </trkpt>
      <trkpt lat="43.002293" lon="-2.402035">
        <ele>851.086</ele>
        <time>2018-06-09T10:59:22Z</time>
      </trkpt>
      <trkpt lat="43.002332" lon="-2.401988">
        <ele>852.767</ele>
        <time>2018-06-09T10:59:35Z</time>
      </trkpt>
      <trkpt lat="43.002353" lon="-2.401931">
        <ele>855.035</ele>
        <time>2018-06-09T10:59:45Z</time>
      </trkpt>
      <trkpt lat="43.002396" lon="-2.401901">
        <ele>858.813</ele>
        <time>2018-06-09T11:00:03Z</time>
      </trkpt>
      <trkpt lat="43.002438" lon="-2.401877">
        <ele>861.747</ele>
        <time>2018-06-09T11:00:15Z</time>
      </trkpt>
      <trkpt lat="43.002478" lon="-2.401834">
        <ele>863.583</ele>
        <time>2018-06-09T11:00:22Z</time>
      </trkpt>
      <trkpt lat="43.002511" lon="-2.401783">
        <ele>866.054</ele>
        <time>2018-06-09T11:00:32Z</time>
      </trkpt>
      <trkpt lat="43.002521" lon="-2.401723">
        <ele>868.257</ele>
        <time>2018-06-09T11:00:40Z</time>
      </trkpt>
      <trkpt lat="43.002513" lon="-2.401660">
        <ele>868.700</ele>
        <time>2018-06-09T11:00:48Z</time>
      </trkpt>
      <trkpt lat="43.002484" lon="-2.401604">
        <ele>869.620</ele>
        <time>2018-06-09T11:00:55Z</time>
      </trkpt>
      <trkpt lat="43.002461" lon="-2.401545">
        <ele>871.308</ele>
        <time>2018-06-09T11:01:03Z</time>
      </trkpt>
      <trkpt lat="43.002462" lon="-2.401483">
        <ele>872.977</ele>
        <time>2018-06-09T11:01:34Z</time>
      </trkpt>
      <trkpt lat="43.002425" lon="-2.401428">
        <ele>874.890</ele>
        <time>2018-06-09T11:01:50Z</time>
      </trkpt>
      <trkpt lat="43.002400" lon="-2.401374">
        <ele>876.991</ele>
        <time>2018-06-09T11:01:59Z</time>
      </trkpt>
      <trkpt lat="43.002394" lon="-2.401306">
        <ele>879.679</ele>
        <time>2018-06-09T11:02:11Z</time>
      </trkpt>
      <trkpt lat="43.002392" lon="-2.401238">
        <ele>881.317</ele>
        <time>2018-06-09T11:02:24Z</time>
      </trkpt>
      <trkpt lat="43.002381" lon="-2.401176">
        <ele>883.291</ele>
        <time>2018-06-09T11:02:35Z</time>
      </trkpt>
      <trkpt lat="43.002356" lon="-2.401124">
        <ele>885.287</ele>
        <time>2018-06-09T11:02:56Z</time>
      </trkpt>
      <trkpt lat="43.002388" lon="-2.401076">
        <ele>886.698</ele>
        <time>2018-06-09T11:03:06Z</time>
      </trkpt>
      <trkpt lat="43.002375" lon="-2.401012">
        <ele>889.016</ele>
        <time>2018-06-09T11:03:18Z</time>
      </trkpt>
      <trkpt lat="43.002354" lon="-2.400953">
        <ele>890.876</ele>
        <time>2018-06-09T11:03:28Z</time>
      </trkpt>
      <trkpt lat="43.002360" lon="-2.400885">
        <ele>894.513</ele>
        <time>2018-06-09T11:03:37Z</time>
      </trkpt>
      <trkpt lat="43.002358" lon="-2.400819">
        <ele>896.708</ele>
        <time>2018-06-09T11:03:47Z</time>
      </trkpt>
      <trkpt lat="43.002361" lon="-2.400754">
        <ele>900.773</ele>
        <time>2018-06-09T11:03:58Z</time>
      </trkpt>
      <trkpt lat="43.002377" lon="-2.400696">
        <ele>904.196</ele>
        <time>2018-06-09T11:04:11Z</time>
      </trkpt>
      <trkpt lat="43.002382" lon="-2.400635">
        <ele>905.497</ele>
        <time>2018-06-09T11:04:24Z</time>
      </trkpt>
      <trkpt lat="43.002368" lon="-2.400570">
        <ele>906.995</ele>
        <time>2018-06-09T11:04:32Z</time>
      </trkpt>
      <trkpt lat="43.002363" lon="-2.400499">
        <ele>908.813</ele>
        <time>2018-06-09T11:04:40Z</time>
      </trkpt>
      <trkpt lat="43.002330" lon="-2.400446">
        <ele>910.477</ele>
        <time>2018-06-09T11:04:45Z</time>
      </trkpt>
      <trkpt lat="43.002290" lon="-2.400408">
        <ele>912.713</ele>
        <time>2018-06-09T11:04:52Z</time>
      </trkpt>
      <trkpt lat="43.002274" lon="-2.400344">
        <ele>915.374</ele>
        <time>2018-06-09T11:05:10Z</time>
      </trkpt>
      <trkpt lat="43.002224" lon="-2.400321">
        <ele>917.752</ele>
        <time>2018-06-09T11:05:17Z</time>
      </trkpt>
      <trkpt lat="43.002172" lon="-2.400307">
        <ele>918.953</ele>
        <time>2018-06-09T11:05:24Z</time>
      </trkpt>
      <trkpt lat="43.002166" lon="-2.400240">
        <ele>919.908</ele>
        <time>2018-06-09T11:05:36Z</time>
      </trkpt>
      <trkpt lat="43.002179" lon="-2.400169">
        <ele>921.908</ele>
        <time>2018-06-09T11:05:46Z</time>
      </trkpt>
      <trkpt lat="43.002184" lon="-2.400094">
        <ele>922.427</ele>
        <time>2018-06-09T11:05:53Z</time>
      </trkpt>
      <trkpt lat="43.002156" lon="-2.400044">
        <ele>924.760</ele>
        <time>2018-06-09T11:06:01Z</time>
      </trkpt>
      <trkpt lat="43.002139" lon="-2.399982">
        <ele>926.421</ele>
        <time>2018-06-09T11:06:08Z</time>
      </trkpt>
      <trkpt lat="43.002124" lon="-2.399919">
        <ele>928.049</ele>
        <time>2018-06-09T11:06:15Z</time>
      </trkpt>
      <trkpt lat="43.002096" lon="-2.399852">
        <ele>928.967</ele>
        <time>2018-06-09T11:06:22Z</time>
      </trkpt>
      <trkpt lat="43.002095" lon="-2.399788">
        <ele>930.591</ele>
        <time>2018-06-09T11:06:29Z</time>
      </trkpt>
      <trkpt lat="43.002065" lon="-2.399736">
        <ele>930.977</ele>
        <time>2018-06-09T11:06:36Z</time>
      </trkpt>
      <trkpt lat="43.002077" lon="-2.399674">
        <ele>932.558</ele>
        <time>2018-06-09T11:06:42Z</time>
      </trkpt>
      <trkpt lat="43.002046" lon="-2.399617">
        <ele>933.771</ele>
        <time>2018-06-09T11:06:49Z</time>
      </trkpt>
      <trkpt lat="43.002011" lon="-2.399559">
        <ele>936.041</ele>
        <time>2018-06-09T11:06:56Z</time>
      </trkpt>
      <trkpt lat="43.001982" lon="-2.399510">
        <ele>938.015</ele>
        <time>2018-06-09T11:07:03Z</time>
      </trkpt>
      <trkpt lat="43.001971" lon="-2.399438">
        <ele>939.708</ele>
        <time>2018-06-09T11:07:11Z</time>
      </trkpt>
      <trkpt lat="43.001957" lon="-2.399377">
        <ele>940.859</ele>
        <time>2018-06-09T11:07:16Z</time>
      </trkpt>
      <trkpt lat="43.001939" lon="-2.399319">
        <ele>941.422</ele>
        <time>2018-06-09T11:07:21Z</time>
      </trkpt>
      <trkpt lat="43.001913" lon="-2.399256">
        <ele>941.423</ele>
        <time>2018-06-09T11:07:26Z</time>
      </trkpt>
      <trkpt lat="43.001897" lon="-2.399196">
        <ele>941.771</ele>
        <time>2018-06-09T11:07:32Z</time>
      </trkpt>
      <trkpt lat="43.001885" lon="-2.399128">
        <ele>941.139</ele>
        <time>2018-06-09T11:07:38Z</time>
      </trkpt>
      <trkpt lat="43.001878" lon="-2.399064">
        <ele>942.473</ele>
        <time>2018-06-09T11:07:43Z</time>
      </trkpt>
      <trkpt lat="43.001884" lon="-2.398989">
        <ele>942.829</ele>
        <time>2018-06-09T11:07:48Z</time>
      </trkpt>
      <trkpt lat="43.001877" lon="-2.398919">
        <ele>944.080</ele>
        <time>2018-06-09T11:07:52Z</time>
      </trkpt>
      <trkpt lat="43.001863" lon="-2.398853">
        <ele>945.651</ele>
        <time>2018-06-09T11:07:56Z</time>
      </trkpt>
      <trkpt lat="43.001851" lon="-2.398784">
        <ele>946.101</ele>
        <time>2018-06-09T11:08:00Z</time>
      </trkpt>
      <trkpt lat="43.001821" lon="-2.398710">
        <ele>946.611</ele>
        <time>2018-06-09T11:08:05Z</time>
      </trkpt>
      <trkpt lat="43.001796" lon="-2.398654">
        <ele>946.808</ele>
        <time>2018-06-09T11:08:08Z</time>
      </trkpt>
      <trkpt lat="43.001775" lon="-2.398597">
        <ele>946.417</ele>
        <time>2018-06-09T11:08:11Z</time>
      </trkpt>
      <trkpt lat="43.001737" lon="-2.398536">
        <ele>946.350</ele>
        <time>2018-06-09T11:08:15Z</time>
      </trkpt>
      <trkpt lat="43.001705" lon="-2.398487">
        <ele>946.091</ele>
        <time>2018-06-09T11:08:18Z</time>
      </trkpt>
      <trkpt lat="43.001673" lon="-2.398440">
        <ele>946.449</ele>
        <time>2018-06-09T11:08:21Z</time>
      </trkpt>
      <trkpt lat="43.001639" lon="-2.398397">
        <ele>946.677</ele>
        <time>2018-06-09T11:08:24Z</time>
      </trkpt>
      <trkpt lat="43.001608" lon="-2.398336">
        <ele>947.651</ele>
        <time>2018-06-09T11:08:28Z</time>
      </trkpt>
      <trkpt lat="43.001583" lon="-2.398280">
        <ele>948.547</ele>
        <time>2018-06-09T11:08:32Z</time>
      </trkpt>
      <trkpt lat="43.001557" lon="-2.398222">
        <ele>948.598</ele>
        <time>2018-06-09T11:08:36Z</time>
      </trkpt>
      <trkpt lat="43.001519" lon="-2.398170">
        <ele>948.749</ele>
        <time>2018-06-09T11:08:40Z</time>
      </trkpt>
      <trkpt lat="43.001477" lon="-2.398129">
        <ele>949.402</ele>
        <time>2018-06-09T11:08:43Z</time>
      </trkpt>
      <trkpt lat="43.001437" lon="-2.398080">
        <ele>950.022</ele>
        <time>2018-06-09T11:08:46Z</time>
      </trkpt>
      <trkpt lat="43.001398" lon="-2.398033">
        <ele>950.108</ele>
        <time>2018-06-09T11:08:49Z</time>
      </trkpt>
      <trkpt lat="43.001371" lon="-2.397975">
        <ele>950.346</ele>
        <time>2018-06-09T11:08:52Z</time>
      </trkpt>
      <trkpt lat="43.001344" lon="-2.397910">
        <ele>950.199</ele>
        <time>2018-06-09T11:08:55Z</time>
      </trkpt>
      <trkpt lat="43.001314" lon="-2.397851">
        <ele>950.540</ele>
        <time>2018-06-09T11:08:58Z</time>
      </trkpt>
      <trkpt lat="43.001286" lon="-2.397795">
        <ele>951.488</ele>
        <time>2018-06-09T11:09:01Z</time>
      </trkpt>
      <trkpt lat="43.001262" lon="-2.397725">
        <ele>952.886</ele>
        <time>2018-06-09T11:09:05Z</time>
      </trkpt>
      <trkpt lat="43.001245" lon="-2.397657">
        <ele>952.310</ele>
        <time>2018-06-09T11:09:09Z</time>
      </trkpt>
      <trkpt lat="43.001223" lon="-2.397589">
        <ele>952.286</ele>
        <time>2018-06-09T11:09:13Z</time>
      </trkpt>
      <trkpt lat="43.001198" lon="-2.397520">
        <ele>952.087</ele>
        <time>2018-06-09T11:09:17Z</time>
      </trkpt>
      <trkpt lat="43.001168" lon="-2.397458">
        <ele>951.547</ele>
        <time>2018-06-09T11:09:21Z</time>
      </trkpt>
      <trkpt lat="43.001134" lon="-2.397413">
        <ele>952.029</ele>
        <time>2018-06-09T11:09:25Z</time>
      </trkpt>
      <trkpt lat="43.001102" lon="-2.397365">
        <ele>952.621</ele>
        <time>2018-06-09T11:09:30Z</time>
      </trkpt>
      <trkpt lat="43.001063" lon="-2.397315">
        <ele>953.008</ele>
        <time>2018-06-09T11:09:35Z</time>
      </trkpt>
      <trkpt lat="43.001033" lon="-2.397268">
        <ele>954.126</ele>
        <time>2018-06-09T11:09:39Z</time>
      </trkpt>
      <trkpt lat="43.001006" lon="-2.397203">
        <ele>955.129</ele>
        <time>2018-06-09T11:09:43Z</time>
      </trkpt>
      <trkpt lat="43.000984" lon="-2.397128">
        <ele>955.680</ele>
        <time>2018-06-09T11:09:47Z</time>
      </trkpt>
      <trkpt lat="43.000956" lon="-2.397062">
        <ele>956.538</ele>
        <time>2018-06-09T11:09:51Z</time>
      </trkpt>
      <trkpt lat="43.000923" lon="-2.397004">
        <ele>957.546</ele>
        <time>2018-06-09T11:09:55Z</time>
      </trkpt>
      <trkpt lat="43.000891" lon="-2.396955">
        <ele>957.450</ele>
        <time>2018-06-09T11:09:58Z</time>
      </trkpt>
      <trkpt lat="43.000851" lon="-2.396896">
        <ele>957.636</ele>
        <time>2018-06-09T11:10:01Z</time>
      </trkpt>
      <trkpt lat="43.000827" lon="-2.396840">
        <ele>956.957</ele>
        <time>2018-06-09T11:10:05Z</time>
      </trkpt>
      <trkpt lat="43.000807" lon="-2.396783">
        <ele>956.925</ele>
        <time>2018-06-09T11:10:09Z</time>
      </trkpt>
      <trkpt lat="43.000800" lon="-2.396715">
        <ele>957.426</ele>
        <time>2018-06-09T11:10:13Z</time>
      </trkpt>
      <trkpt lat="43.000787" lon="-2.396649">
        <ele>958.308</ele>
        <time>2018-06-09T11:10:17Z</time>
      </trkpt>
      <trkpt lat="43.000754" lon="-2.396587">
        <ele>958.808</ele>
        <time>2018-06-09T11:10:21Z</time>
      </trkpt>
      <trkpt lat="43.000733" lon="-2.396524">
        <ele>959.384</ele>
        <time>2018-06-09T11:10:25Z</time>
      </trkpt>
      <trkpt lat="43.000721" lon="-2.396461">
        <ele>959.517</ele>
        <time>2018-06-09T11:10:29Z</time>
      </trkpt>
      <trkpt lat="43.000688" lon="-2.396410">
        <ele>958.318</ele>
        <time>2018-06-09T11:10:33Z</time>
      </trkpt>
      <trkpt lat="43.000650" lon="-2.396365">
        <ele>958.466</ele>
        <time>2018-06-09T11:10:37Z</time>
      </trkpt>
      <trkpt lat="43.000626" lon="-2.396312">
        <ele>959.514</ele>
        <time>2018-06-09T11:10:42Z</time>
      </trkpt>
      <trkpt lat="43.000610" lon="-2.396236">
        <ele>960.978</ele>
        <time>2018-06-09T11:10:46Z</time>
      </trkpt>
      <trkpt lat="43.000587" lon="-2.396177">
        <ele>960.724</ele>
        <time>2018-06-09T11:10:49Z</time>
      </trkpt>
      <trkpt lat="43.000564" lon="-2.396121">
        <ele>960.285</ele>
        <time>2018-06-09T11:10:52Z</time>
      </trkpt>
      <trkpt lat="43.000546" lon="-2.396062">
        <ele>960.087</ele>
        <time>2018-06-09T11:10:55Z</time>
      </trkpt>
      <trkpt lat="43.000532" lon="-2.395993">
        <ele>960.042</ele>
        <time>2018-06-09T11:10:58Z</time>
      </trkpt>
      <trkpt lat="43.000514" lon="-2.395918">
        <ele>960.426</ele>
        <time>2018-06-09T11:11:01Z</time>
      </trkpt>
      <trkpt lat="43.000494" lon="-2.395848">
        <ele>960.908</ele>
        <time>2018-06-09T11:11:04Z</time>
      </trkpt>
      <trkpt lat="43.000472" lon="-2.395789">
        <ele>960.930</ele>
        <time>2018-06-09T11:11:07Z</time>
      </trkpt>
      <trkpt lat="43.000459" lon="-2.395729">
        <ele>960.783</ele>
        <time>2018-06-09T11:11:11Z</time>
      </trkpt>
      <trkpt lat="43.000440" lon="-2.395661">
        <ele>961.764</ele>
        <time>2018-06-09T11:11:16Z</time>
      </trkpt>
      <trkpt lat="43.000414" lon="-2.395604">
        <ele>964.262</ele>
        <time>2018-06-09T11:11:20Z</time>
      </trkpt>
      <trkpt lat="43.000393" lon="-2.395534">
        <ele>964.810</ele>
        <time>2018-06-09T11:11:25Z</time>
      </trkpt>
      <trkpt lat="43.000370" lon="-2.395463">
        <ele>964.914</ele>
        <time>2018-06-09T11:11:30Z</time>
      </trkpt>
      <trkpt lat="43.000338" lon="-2.395416">
        <ele>964.950</ele>
        <time>2018-06-09T11:11:34Z</time>
      </trkpt>
      <trkpt lat="43.000305" lon="-2.395370">
        <ele>964.961</ele>
        <time>2018-06-09T11:11:38Z</time>
      </trkpt>
      <trkpt lat="43.000267" lon="-2.395336">
        <ele>965.755</ele>
        <time>2018-06-09T11:11:42Z</time>
      </trkpt>
      <trkpt lat="43.000224" lon="-2.395294">
        <ele>966.407</ele>
        <time>2018-06-09T11:11:47Z</time>
      </trkpt>
      <trkpt lat="43.000187" lon="-2.395250">
        <ele>966.917</ele>
        <time>2018-06-09T11:11:55Z</time>
      </trkpt>
      <trkpt lat="43.000157" lon="-2.395200">
        <ele>967.408</ele>
        <time>2018-06-09T11:12:04Z</time>
      </trkpt>
      <trkpt lat="43.000132" lon="-2.395138">
        <ele>967.787</ele>
        <time>2018-06-09T11:12:10Z</time>
      </trkpt>
      <trkpt lat="43.000111" lon="-2.395079">
        <ele>968.550</ele>
        <time>2018-06-09T11:12:14Z</time>
      </trkpt>
      <trkpt lat="43.000091" lon="-2.395024">
        <ele>968.411</ele>
        <time>2018-06-09T11:12:18Z</time>
      </trkpt>
      <trkpt lat="43.000058" lon="-2.394968">
        <ele>968.529</ele>
        <time>2018-06-09T11:12:22Z</time>
      </trkpt>
      <trkpt lat="43.000024" lon="-2.394919">
        <ele>968.867</ele>
        <time>2018-06-09T11:12:26Z</time>
      </trkpt>
      <trkpt lat="42.999986" lon="-2.394880">
        <ele>969.311</ele>
        <time>2018-06-09T11:12:31Z</time>
      </trkpt>
      <trkpt lat="42.999941" lon="-2.394830">
        <ele>970.217</ele>
        <time>2018-06-09T11:12:36Z</time>
      </trkpt>
      <trkpt lat="42.999912" lon="-2.394780">
        <ele>970.188</ele>
        <time>2018-06-09T11:12:39Z</time>
      </trkpt>
      <trkpt lat="42.999887" lon="-2.394724">
        <ele>971.566</ele>
        <time>2018-06-09T11:12:42Z</time>
      </trkpt>
      <trkpt lat="42.999864" lon="-2.394670">
        <ele>972.329</ele>
        <time>2018-06-09T11:12:45Z</time>
      </trkpt>
      <trkpt lat="42.999839" lon="-2.394607">
        <ele>973.321</ele>
        <time>2018-06-09T11:12:49Z</time>
      </trkpt>
      <trkpt lat="42.999805" lon="-2.394551">
        <ele>975.108</ele>
        <time>2018-06-09T11:12:53Z</time>
      </trkpt>
      <trkpt lat="42.999760" lon="-2.394508">
        <ele>976.728</ele>
        <time>2018-06-09T11:12:56Z</time>
      </trkpt>
      <trkpt lat="42.999718" lon="-2.394461">
        <ele>978.521</ele>
        <time>2018-06-09T11:12:59Z</time>
      </trkpt>
      <trkpt lat="42.999680" lon="-2.394400">
        <ele>980.442</ele>
        <time>2018-06-09T11:13:03Z</time>
      </trkpt>
      <trkpt lat="42.999640" lon="-2.394358">
        <ele>982.870</ele>
        <time>2018-06-09T11:13:08Z</time>
      </trkpt>
      <trkpt lat="42.999606" lon="-2.394308">
        <ele>985.578</ele>
        <time>2018-06-09T11:13:17Z</time>
      </trkpt>
      <trkpt lat="42.999561" lon="-2.394262">
        <ele>987.642</ele>
        <time>2018-06-09T11:13:21Z</time>
      </trkpt>
      <trkpt lat="42.999519" lon="-2.394219">
        <ele>988.718</ele>
        <time>2018-06-09T11:13:24Z</time>
      </trkpt>
      <trkpt lat="42.999481" lon="-2.394174">
        <ele>990.049</ele>
        <time>2018-06-09T11:13:27Z</time>
      </trkpt>
      <trkpt lat="42.999447" lon="-2.394130">
        <ele>991.094</ele>
        <time>2018-06-09T11:13:30Z</time>
      </trkpt>
      <trkpt lat="42.999411" lon="-2.394079">
        <ele>992.357</ele>
        <time>2018-06-09T11:13:34Z</time>
      </trkpt>
      <trkpt lat="42.999363" lon="-2.394045">
        <ele>994.122</ele>
        <time>2018-06-09T11:13:39Z</time>
      </trkpt>
      <trkpt lat="42.999328" lon="-2.393981">
        <ele>995.308</ele>
        <time>2018-06-09T11:13:44Z</time>
      </trkpt>
      <trkpt lat="42.999297" lon="-2.393931">
        <ele>995.621</ele>
        <time>2018-06-09T11:13:49Z</time>
      </trkpt>
      <trkpt lat="42.999258" lon="-2.393885">
        <ele>996.194</ele>
        <time>2018-06-09T11:13:56Z</time>
      </trkpt>
      <trkpt lat="42.999247" lon="-2.393810">
        <ele>995.665</ele>
        <time>2018-06-09T11:14:01Z</time>
      </trkpt>
      <trkpt lat="42.999220" lon="-2.393760">
        <ele>995.353</ele>
        <time>2018-06-09T11:14:06Z</time>
      </trkpt>
      <trkpt lat="42.999171" lon="-2.393743">
        <ele>996.251</ele>
        <time>2018-06-09T11:14:11Z</time>
      </trkpt>
      <trkpt lat="42.999141" lon="-2.393681">
        <ele>997.475</ele>
        <time>2018-06-09T11:14:17Z</time>
      </trkpt>
      <trkpt lat="42.999109" lon="-2.393637">
        <ele>997.721</ele>
        <time>2018-06-09T11:14:20Z</time>
      </trkpt>
      <trkpt lat="42.999064" lon="-2.393586">
        <ele>998.492</ele>
        <time>2018-06-09T11:14:24Z</time>
      </trkpt>
      <trkpt lat="42.999030" lon="-2.393534">
        <ele>999.881</ele>
        <time>2018-06-09T11:14:28Z</time>
      </trkpt>
      <trkpt lat="42.999010" lon="-2.393457">
        <ele>1000.461</ele>
        <time>2018-06-09T11:14:32Z</time>
      </trkpt>
      <trkpt lat="42.998992" lon="-2.393399">
        <ele>1001.017</ele>
        <time>2018-06-09T11:14:36Z</time>
      </trkpt>
      <trkpt lat="42.998961" lon="-2.393344">
        <ele>1000.608</ele>
        <time>2018-06-09T11:14:40Z</time>
      </trkpt>
      <trkpt lat="42.998921" lon="-2.393285">
        <ele>1000.190</ele>
        <time>2018-06-09T11:14:44Z</time>
      </trkpt>
      <trkpt lat="42.998885" lon="-2.393231">
        <ele>1000.083</ele>
        <time>2018-06-09T11:14:48Z</time>
      </trkpt>
      <trkpt lat="42.998838" lon="-2.393190">
        <ele>1000.234</ele>
        <time>2018-06-09T11:14:53Z</time>
      </trkpt>
      <trkpt lat="42.998788" lon="-2.393171">
        <ele>1000.772</ele>
        <time>2018-06-09T11:14:57Z</time>
      </trkpt>
      <trkpt lat="42.998739" lon="-2.393158">
        <ele>1000.710</ele>
        <time>2018-06-09T11:15:02Z</time>
      </trkpt>
      <trkpt lat="42.998695" lon="-2.393113">
        <ele>1001.624</ele>
        <time>2018-06-09T11:15:08Z</time>
      </trkpt>
      <trkpt lat="42.998654" lon="-2.393075">
        <ele>1002.320</ele>
        <time>2018-06-09T11:15:13Z</time>
      </trkpt>
      <trkpt lat="42.998618" lon="-2.393025">
        <ele>1004.041</ele>
        <time>2018-06-09T11:15:18Z</time>
      </trkpt>
      <trkpt lat="42.998593" lon="-2.392970">
        <ele>1005.069</ele>
        <time>2018-06-09T11:15:23Z</time>
      </trkpt>
      <trkpt lat="42.998571" lon="-2.392902">
        <ele>1006.604</ele>
        <time>2018-06-09T11:15:29Z</time>
      </trkpt>
      <trkpt lat="42.998527" lon="-2.392869">
        <ele>1008.024</ele>
        <time>2018-06-09T11:15:35Z</time>
      </trkpt>
      <trkpt lat="42.998480" lon="-2.392850">
        <ele>1008.308</ele>
        <time>2018-06-09T11:15:40Z</time>
      </trkpt>
      <trkpt lat="42.998435" lon="-2.392821">
        <ele>1008.928</ele>
        <time>2018-06-09T11:15:46Z</time>
      </trkpt>
      <trkpt lat="42.998424" lon="-2.392760">
        <ele>1009.881</ele>
        <time>2018-06-09T11:15:52Z</time>
      </trkpt>
      <trkpt lat="42.998405" lon="-2.392703">
        <ele>1010.352</ele>
        <time>2018-06-09T11:15:56Z</time>
      </trkpt>
      <trkpt lat="42.998396" lon="-2.392637">
        <ele>1010.430</ele>
        <time>2018-06-09T11:16:03Z</time>
      </trkpt>
      <trkpt lat="42.998364" lon="-2.392587">
        <ele>1009.368</ele>
        <time>2018-06-09T11:16:10Z</time>
      </trkpt>
      <trkpt lat="42.998327" lon="-2.392546">
        <ele>1009.292</ele>
        <time>2018-06-09T11:16:15Z</time>
      </trkpt>
      <trkpt lat="42.998299" lon="-2.392483">
        <ele>1009.848</ele>
        <time>2018-06-09T11:16:19Z</time>
      </trkpt>
      <trkpt lat="42.998280" lon="-2.392426">
        <ele>1010.849</ele>
        <time>2018-06-09T11:16:22Z</time>
      </trkpt>
      <trkpt lat="42.998263" lon="-2.392351">
        <ele>1011.529</ele>
        <time>2018-06-09T11:16:26Z</time>
      </trkpt>
      <trkpt lat="42.998247" lon="-2.392290">
        <ele>1013.300</ele>
        <time>2018-06-09T11:16:30Z</time>
      </trkpt>
      <trkpt lat="42.998224" lon="-2.392225">
        <ele>1015.620</ele>
        <time>2018-06-09T11:16:34Z</time>
      </trkpt>
      <trkpt lat="42.998200" lon="-2.392172">
        <ele>1017.308</ele>
        <time>2018-06-09T11:16:38Z</time>
      </trkpt>
      <trkpt lat="42.998169" lon="-2.392108">
        <ele>1018.564</ele>
        <time>2018-06-09T11:16:43Z</time>
      </trkpt>
      <trkpt lat="42.998137" lon="-2.392052">
        <ele>1019.797</ele>
        <time>2018-06-09T11:16:47Z</time>
      </trkpt>
      <trkpt lat="42.998105" lon="-2.391999">
        <ele>1019.788</ele>
        <time>2018-06-09T11:16:52Z</time>
      </trkpt>
      <trkpt lat="42.998082" lon="-2.391930">
        <ele>1019.776</ele>
        <time>2018-06-09T11:16:57Z</time>
      </trkpt>
      <trkpt lat="42.998080" lon="-2.391856">
        <ele>1020.184</ele>
        <time>2018-06-09T11:17:02Z</time>
      </trkpt>
      <trkpt lat="42.998075" lon="-2.391788">
        <ele>1020.848</ele>
        <time>2018-06-09T11:17:06Z</time>
      </trkpt>
      <trkpt lat="42.998059" lon="-2.391720">
        <ele>1020.964</ele>
        <time>2018-06-09T11:17:10Z</time>
      </trkpt>
      <trkpt lat="42.998030" lon="-2.391653">
        <ele>1020.525</ele>
        <time>2018-06-09T11:17:14Z</time>
      </trkpt>
      <trkpt lat="42.997999" lon="-2.391594">
        <ele>1020.454</ele>
        <time>2018-06-09T11:17:18Z</time>
      </trkpt>
      <trkpt lat="42.997983" lon="-2.391536">
        <ele>1019.856</ele>
        <time>2018-06-09T11:17:22Z</time>
      </trkpt>
      <trkpt lat="42.997969" lon="-2.391461">
        <ele>1019.111</ele>
        <time>2018-06-09T11:17:26Z</time>
      </trkpt>
      <trkpt lat="42.997953" lon="-2.391403">
        <ele>1018.508</ele>
        <time>2018-06-09T11:17:29Z</time>
      </trkpt>
      <trkpt lat="42.997928" lon="-2.391339">
        <ele>1017.517</ele>
        <time>2018-06-09T11:17:33Z</time>
      </trkpt>
      <trkpt lat="42.997898" lon="-2.391288">
        <ele>1017.750</ele>
        <time>2018-06-09T11:17:37Z</time>
      </trkpt>
      <trkpt lat="42.997878" lon="-2.391214">
        <ele>1018.081</ele>
        <time>2018-06-09T11:17:41Z</time>
      </trkpt>
      <trkpt lat="42.997864" lon="-2.391131">
        <ele>1018.919</ele>
        <time>2018-06-09T11:17:51Z</time>
      </trkpt>
      <trkpt lat="42.997872" lon="-2.391065">
        <ele>1018.597</ele>
        <time>2018-06-09T11:17:56Z</time>
      </trkpt>
      <trkpt lat="42.997852" lon="-2.391006">
        <ele>1016.571</ele>
        <time>2018-06-09T11:18:02Z</time>
      </trkpt>
      <trkpt lat="42.997838" lon="-2.390946">
        <ele>1015.197</ele>
        <time>2018-06-09T11:18:06Z</time>
      </trkpt>
      <trkpt lat="42.997809" lon="-2.390898">
        <ele>1014.088</ele>
        <time>2018-06-09T11:18:12Z</time>
      </trkpt>
      <trkpt lat="42.997790" lon="-2.390827">
        <ele>1012.782</ele>
        <time>2018-06-09T11:18:16Z</time>
      </trkpt>
      <trkpt lat="42.997766" lon="-2.390762">
        <ele>1012.643</ele>
        <time>2018-06-09T11:18:20Z</time>
      </trkpt>
      <trkpt lat="42.997743" lon="-2.390696">
        <ele>1011.817</ele>
        <time>2018-06-09T11:18:24Z</time>
      </trkpt>
      <trkpt lat="42.997727" lon="-2.390630">
        <ele>1011.108</ele>
        <time>2018-06-09T11:18:28Z</time>
      </trkpt>
      <trkpt lat="42.997725" lon="-2.390562">
        <ele>1011.220</ele>
        <time>2018-06-09T11:18:31Z</time>
      </trkpt>
      <trkpt lat="42.997710" lon="-2.390486">
        <ele>1010.773</ele>
        <time>2018-06-09T11:18:35Z</time>
      </trkpt>
      <trkpt lat="42.997691" lon="-2.390429">
        <ele>1009.144</ele>
        <time>2018-06-09T11:18:39Z</time>
      </trkpt>
      <trkpt lat="42.997671" lon="-2.390363">
        <ele>1007.892</ele>
        <time>2018-06-09T11:18:43Z</time>
      </trkpt>
      <trkpt lat="42.997646" lon="-2.390291">
        <ele>1006.330</ele>
        <time>2018-06-09T11:18:47Z</time>
      </trkpt>
      <trkpt lat="42.997628" lon="-2.390230">
        <ele>1005.834</ele>
        <time>2018-06-09T11:18:50Z</time>
      </trkpt>
      <trkpt lat="42.997608" lon="-2.390156">
        <ele>1005.880</ele>
        <time>2018-06-09T11:18:54Z</time>
      </trkpt>
      <trkpt lat="42.997600" lon="-2.390093">
        <ele>1006.261</ele>
        <time>2018-06-09T11:18:57Z</time>
      </trkpt>
      <trkpt lat="42.997605" lon="-2.390020">
        <ele>1006.183</ele>
        <time>2018-06-09T11:19:01Z</time>
      </trkpt>
      <trkpt lat="42.997613" lon="-2.389939">
        <ele>1006.025</ele>
        <time>2018-06-09T11:19:05Z</time>
      </trkpt>
      <trkpt lat="42.997614" lon="-2.389873">
        <ele>1004.917</ele>
        <time>2018-06-09T11:19:08Z</time>
      </trkpt>
      <trkpt lat="42.997619" lon="-2.389792">
        <ele>1003.708</ele>
        <time>2018-06-09T11:19:12Z</time>
      </trkpt>
      <trkpt lat="42.997626" lon="-2.389729">
        <ele>1002.210</ele>
        <time>2018-06-09T11:19:15Z</time>
      </trkpt>
      <trkpt lat="42.997634" lon="-2.389668">
        <ele>1000.933</ele>
        <time>2018-06-09T11:19:19Z</time>
      </trkpt>
      <trkpt lat="42.997624" lon="-2.389587">
        <ele>1000.094</ele>
        <time>2018-06-09T11:19:23Z</time>
      </trkpt>
      <trkpt lat="42.997603" lon="-2.389513">
        <ele>998.972</ele>
        <time>2018-06-09T11:19:27Z</time>
      </trkpt>
      <trkpt lat="42.997566" lon="-2.389452">
        <ele>998.130</ele>
        <time>2018-06-09T11:19:31Z</time>
      </trkpt>
      <trkpt lat="42.997539" lon="-2.389396">
        <ele>997.744</ele>
        <time>2018-06-09T11:19:35Z</time>
      </trkpt>
      <trkpt lat="42.997513" lon="-2.389336">
        <ele>998.120</ele>
        <time>2018-06-09T11:19:39Z</time>
      </trkpt>
      <trkpt lat="42.997491" lon="-2.389280">
        <ele>999.061</ele>
        <time>2018-06-09T11:19:42Z</time>
      </trkpt>
      <trkpt lat="42.997464" lon="-2.389231">
        <ele>1000.256</ele>
        <time>2018-06-09T11:19:45Z</time>
      </trkpt>
      <trkpt lat="42.997414" lon="-2.389208">
        <ele>1002.059</ele>
        <time>2018-06-09T11:19:50Z</time>
      </trkpt>
      <trkpt lat="42.997369" lon="-2.389192">
        <ele>1003.814</ele>
        <time>2018-06-09T11:19:54Z</time>
      </trkpt>
      <trkpt lat="42.997325" lon="-2.389152">
        <ele>1005.208</ele>
        <time>2018-06-09T11:19:58Z</time>
      </trkpt>
      <trkpt lat="42.997283" lon="-2.389092">
        <ele>1005.737</ele>
        <time>2018-06-09T11:20:02Z</time>
      </trkpt>
      <trkpt lat="42.997272" lon="-2.389030">
        <ele>1006.970</ele>
        <time>2018-06-09T11:20:05Z</time>
      </trkpt>
      <trkpt lat="42.997249" lon="-2.388971">
        <ele>1008.781</ele>
        <time>2018-06-09T11:20:09Z</time>
      </trkpt>
      <trkpt lat="42.997222" lon="-2.388915">
        <ele>1011.049</ele>
        <time>2018-06-09T11:20:13Z</time>
      </trkpt>
      <trkpt lat="42.997195" lon="-2.388860">
        <ele>1013.397</ele>
        <time>2018-06-09T11:20:17Z</time>
      </trkpt>
      <trkpt lat="42.997175" lon="-2.388803">
        <ele>1015.281</ele>
        <time>2018-06-09T11:20:20Z</time>
      </trkpt>
      <trkpt lat="42.997161" lon="-2.388744">
        <ele>1015.517</ele>
        <time>2018-06-09T11:20:23Z</time>
      </trkpt>
      <trkpt lat="42.997151" lon="-2.388683">
        <ele>1015.278</ele>
        <time>2018-06-09T11:20:27Z</time>
      </trkpt>
      <trkpt lat="42.997164" lon="-2.388621">
        <ele>1015.383</ele>
        <time>2018-06-09T11:20:33Z</time>
      </trkpt>
      <trkpt lat="42.997198" lon="-2.388571">
        <ele>1015.425</ele>
        <time>2018-06-09T11:20:38Z</time>
      </trkpt>
      <trkpt lat="42.997229" lon="-2.388526">
        <ele>1015.617</ele>
        <time>2018-06-09T11:20:42Z</time>
      </trkpt>
      <trkpt lat="42.997260" lon="-2.388472">
        <ele>1016.408</ele>
        <time>2018-06-09T11:20:47Z</time>
      </trkpt>
      <trkpt lat="42.997268" lon="-2.388401">
        <ele>1017.060</ele>
        <time>2018-06-09T11:20:54Z</time>
      </trkpt>
      <trkpt lat="42.997296" lon="-2.388339">
        <ele>1018.193</ele>
        <time>2018-06-09T11:21:00Z</time>
      </trkpt>
      <trkpt lat="42.997325" lon="-2.388291">
        <ele>1018.294</ele>
        <time>2018-06-09T11:21:05Z</time>
      </trkpt>
      <trkpt lat="42.997336" lon="-2.388230">
        <ele>1017.942</ele>
        <time>2018-06-09T11:21:09Z</time>
      </trkpt>
      <trkpt lat="42.997352" lon="-2.388162">
        <ele>1017.520</ele>
        <time>2018-06-09T11:21:13Z</time>
      </trkpt>
      <trkpt lat="42.997363" lon="-2.388086">
        <ele>1017.834</ele>
        <time>2018-06-09T11:21:17Z</time>
      </trkpt>
      <trkpt lat="42.997378" lon="-2.388009">
        <ele>1018.950</ele>
        <time>2018-06-09T11:21:21Z</time>
      </trkpt>
      <trkpt lat="42.997392" lon="-2.387935">
        <ele>1019.271</ele>
        <time>2018-06-09T11:21:25Z</time>
      </trkpt>
      <trkpt lat="42.997416" lon="-2.387877">
        <ele>1019.532</ele>
        <time>2018-06-09T11:21:28Z</time>
      </trkpt>
      <trkpt lat="42.997455" lon="-2.387835">
        <ele>1020.892</ele>
        <time>2018-06-09T11:21:38Z</time>
      </trkpt>
      <trkpt lat="42.997493" lon="-2.387786">
        <ele>1021.211</ele>
        <time>2018-06-09T11:21:43Z</time>
      </trkpt>
      <trkpt lat="42.997531" lon="-2.387748">
        <ele>1021.408</ele>
        <time>2018-06-09T11:21:48Z</time>
      </trkpt>
      <trkpt lat="42.997574" lon="-2.387705">
        <ele>1022.685</ele>
        <time>2018-06-09T11:21:54Z</time>
      </trkpt>
      <trkpt lat="42.997598" lon="-2.387642">
        <ele>1023.858</ele>
        <time>2018-06-09T11:21:59Z</time>
      </trkpt>
      <trkpt lat="42.997614" lon="-2.387571">
        <ele>1024.749</ele>
        <time>2018-06-09T11:22:05Z</time>
      </trkpt>
      <trkpt lat="42.997649" lon="-2.387508">
        <ele>1025.647</ele>
        <time>2018-06-09T11:22:09Z</time>
      </trkpt>
      <trkpt lat="42.997657" lon="-2.387439">
        <ele>1026.945</ele>
        <time>2018-06-09T11:22:13Z</time>
      </trkpt>
      <trkpt lat="42.997660" lon="-2.387369">
        <ele>1027.959</ele>
        <time>2018-06-09T11:22:17Z</time>
      </trkpt>
      <trkpt lat="42.997663" lon="-2.387302">
        <ele>1028.465</ele>
        <time>2018-06-09T11:22:21Z</time>
      </trkpt>
      <trkpt lat="42.997654" lon="-2.387233">
        <ele>1029.096</ele>
        <time>2018-06-09T11:22:25Z</time>
      </trkpt>
      <trkpt lat="42.997627" lon="-2.387167">
        <ele>1029.325</ele>
        <time>2018-06-09T11:22:30Z</time>
      </trkpt>
      <trkpt lat="42.997613" lon="-2.387107">
        <ele>1029.526</ele>
        <time>2018-06-09T11:22:34Z</time>
      </trkpt>
      <trkpt lat="42.997594" lon="-2.387045">
        <ele>1029.508</ele>
        <time>2018-06-09T11:22:40Z</time>
      </trkpt>
      <trkpt lat="42.997611" lon="-2.386977">
        <ele>1029.008</ele>
        <time>2018-06-09T11:22:48Z</time>
      </trkpt>
      <trkpt lat="42.997646" lon="-2.386916">
        <ele>1029.494</ele>
        <time>2018-06-09T11:22:53Z</time>
      </trkpt>
      <trkpt lat="42.997651" lon="-2.386848">
        <ele>1029.597</ele>
        <time>2018-06-09T11:22:57Z</time>
      </trkpt>
      <trkpt lat="42.997639" lon="-2.386782">
        <ele>1029.988</ele>
        <time>2018-06-09T11:23:01Z</time>
      </trkpt>
      <trkpt lat="42.997630" lon="-2.386715">
        <ele>1030.286</ele>
        <time>2018-06-09T11:23:05Z</time>
      </trkpt>
      <trkpt lat="42.997622" lon="-2.386641">
        <ele>1030.734</ele>
        <time>2018-06-09T11:23:09Z</time>
      </trkpt>
      <trkpt lat="42.997610" lon="-2.386581">
        <ele>1031.538</ele>
        <time>2018-06-09T11:23:12Z</time>
      </trkpt>
      <trkpt lat="42.997588" lon="-2.386518">
        <ele>1032.644</ele>
        <time>2018-06-09T11:23:16Z</time>
      </trkpt>
      <trkpt lat="42.997582" lon="-2.386453">
        <ele>1033.515</ele>
        <time>2018-06-09T11:23:20Z</time>
      </trkpt>
      <trkpt lat="42.997593" lon="-2.386392">
        <ele>1034.669</ele>
        <time>2018-06-09T11:23:24Z</time>
      </trkpt>
      <trkpt lat="42.997568" lon="-2.386337">
        <ele>1035.604</ele>
        <time>2018-06-09T11:23:28Z</time>
      </trkpt>
      <trkpt lat="42.997523" lon="-2.386300">
        <ele>1036.724</ele>
        <time>2018-06-09T11:23:32Z</time>
      </trkpt>
      <trkpt lat="42.997480" lon="-2.386273">
        <ele>1037.208</ele>
        <time>2018-06-09T11:23:37Z</time>
      </trkpt>
      <trkpt lat="42.997432" lon="-2.386290">
        <ele>1037.848</ele>
        <time>2018-06-09T11:23:49Z</time>
      </trkpt>
      <trkpt lat="42.997386" lon="-2.386287">
        <ele>1037.861</ele>
        <time>2018-06-09T11:23:57Z</time>
      </trkpt>
      <trkpt lat="42.997386" lon="-2.386216">
        <ele>1037.542</ele>
        <time>2018-06-09T11:24:01Z</time>
      </trkpt>
      <trkpt lat="42.997377" lon="-2.386144">
        <ele>1036.710</ele>
        <time>2018-06-09T11:24:05Z</time>
      </trkpt>
      <trkpt lat="42.997368" lon="-2.386078">
        <ele>1036.278</ele>
        <time>2018-06-09T11:24:09Z</time>
      </trkpt>
      <trkpt lat="42.997362" lon="-2.386005">
        <ele>1035.892</ele>
        <time>2018-06-09T11:24:14Z</time>
      </trkpt>
      <trkpt lat="42.997361" lon="-2.385937">
        <ele>1035.318</ele>
        <time>2018-06-09T11:24:19Z</time>
      </trkpt>
      <trkpt lat="42.997380" lon="-2.385875">
        <ele>1035.169</ele>
        <time>2018-06-09T11:24:24Z</time>
      </trkpt>
      <trkpt lat="42.997388" lon="-2.385810">
        <ele>1034.744</ele>
        <time>2018-06-09T11:24:28Z</time>
      </trkpt>
      <trkpt lat="42.997374" lon="-2.385748">
        <ele>1033.905</ele>
        <time>2018-06-09T11:24:33Z</time>
      </trkpt>
      <trkpt lat="42.997364" lon="-2.385670">
        <ele>1033.615</ele>
        <time>2018-06-09T11:24:37Z</time>
      </trkpt>
      <trkpt lat="42.997364" lon="-2.385589">
        <ele>1033.508</ele>
        <time>2018-06-09T11:24:41Z</time>
      </trkpt>
      <trkpt lat="42.997374" lon="-2.385528">
        <ele>1033.536</ele>
        <time>2018-06-09T11:24:44Z</time>
      </trkpt>
      <trkpt lat="42.997386" lon="-2.385464">
        <ele>1033.949</ele>
        <time>2018-06-09T11:24:47Z</time>
      </trkpt>
      <trkpt lat="42.997393" lon="-2.385388">
        <ele>1034.370</ele>
        <time>2018-06-09T11:24:51Z</time>
      </trkpt>
      <trkpt lat="42.997399" lon="-2.385315">
        <ele>1034.838</ele>
        <time>2018-06-09T11:24:55Z</time>
      </trkpt>
      <trkpt lat="42.997418" lon="-2.385238">
        <ele>1033.986</ele>
        <time>2018-06-09T11:24:59Z</time>
      </trkpt>
      <trkpt lat="42.997441" lon="-2.385182">
        <ele>1033.490</ele>
        <time>2018-06-09T11:25:02Z</time>
      </trkpt>
      <trkpt lat="42.997457" lon="-2.385122">
        <ele>1033.356</ele>
        <time>2018-06-09T11:25:06Z</time>
      </trkpt>
      <trkpt lat="42.997476" lon="-2.385060">
        <ele>1033.057</ele>
        <time>2018-06-09T11:25:11Z</time>
      </trkpt>
      <trkpt lat="42.997456" lon="-2.384991">
        <ele>1034.585</ele>
        <time>2018-06-09T11:25:26Z</time>
      </trkpt>
      <trkpt lat="42.997440" lon="-2.384919">
        <ele>1036.289</ele>
        <time>2018-06-09T11:25:33Z</time>
      </trkpt>
      <trkpt lat="42.997457" lon="-2.384852">
        <ele>1037.317</ele>
        <time>2018-06-09T11:25:41Z</time>
      </trkpt>
      <trkpt lat="42.997442" lon="-2.384786">
        <ele>1037.808</ele>
        <time>2018-06-09T11:25:46Z</time>
      </trkpt>
      <trkpt lat="42.997420" lon="-2.384728">
        <ele>1038.430</ele>
        <time>2018-06-09T11:25:50Z</time>
      </trkpt>
      <trkpt lat="42.997410" lon="-2.384667">
        <ele>1039.453</ele>
        <time>2018-06-09T11:25:55Z</time>
      </trkpt>
      <trkpt lat="42.997378" lon="-2.384621">
        <ele>1041.114</ele>
        <time>2018-06-09T11:26:15Z</time>
      </trkpt>
      <trkpt lat="42.997330" lon="-2.384638">
        <ele>1043.152</ele>
        <time>2018-06-09T11:26:25Z</time>
      </trkpt>
      <trkpt lat="42.997292" lon="-2.384605">
        <ele>1044.920</ele>
        <time>2018-06-09T11:26:40Z</time>
      </trkpt>
      <trkpt lat="42.997290" lon="-2.384531">
        <ele>1046.694</ele>
        <time>2018-06-09T11:26:46Z</time>
      </trkpt>
      <trkpt lat="42.997295" lon="-2.384462">
        <ele>1047.940</ele>
        <time>2018-06-09T11:26:50Z</time>
      </trkpt>
      <trkpt lat="42.997300" lon="-2.384394">
        <ele>1048.971</ele>
        <time>2018-06-09T11:26:54Z</time>
      </trkpt>
      <trkpt lat="42.997297" lon="-2.384327">
        <ele>1049.628</ele>
        <time>2018-06-09T11:26:58Z</time>
      </trkpt>
      <trkpt lat="42.997287" lon="-2.384260">
        <ele>1050.589</ele>
        <time>2018-06-09T11:27:02Z</time>
      </trkpt>
      <trkpt lat="42.997254" lon="-2.384209">
        <ele>1051.117</ele>
        <time>2018-06-09T11:27:05Z</time>
      </trkpt>
      <trkpt lat="42.997210" lon="-2.384162">
        <ele>1051.808</ele>
        <time>2018-06-09T11:27:09Z</time>
      </trkpt>
      <trkpt lat="42.997169" lon="-2.384134">
        <ele>1052.144</ele>
        <time>2018-06-09T11:27:14Z</time>
      </trkpt>
      <trkpt lat="42.997136" lon="-2.384087">
        <ele>1052.337</ele>
        <time>2018-06-09T11:27:18Z</time>
      </trkpt>
      <trkpt lat="42.997098" lon="-2.384045">
        <ele>1052.718</ele>
        <time>2018-06-09T11:27:23Z</time>
      </trkpt>
      <trkpt lat="42.997051" lon="-2.384009">
        <ele>1052.636</ele>
        <time>2018-06-09T11:27:27Z</time>
      </trkpt>
      <trkpt lat="42.997011" lon="-2.383974">
        <ele>1052.154</ele>
        <time>2018-06-09T11:27:32Z</time>
      </trkpt>
      <trkpt lat="42.996968" lon="-2.383945">
        <ele>1051.548</ele>
        <time>2018-06-09T11:27:36Z</time>
      </trkpt>
      <trkpt lat="42.996922" lon="-2.383920">
        <ele>1050.694</ele>
        <time>2018-06-09T11:27:40Z</time>
      </trkpt>
      <trkpt lat="42.996872" lon="-2.383893">
        <ele>1049.465</ele>
        <time>2018-06-09T11:27:44Z</time>
      </trkpt>
      <trkpt lat="42.996826" lon="-2.383857">
        <ele>1048.676</ele>
        <time>2018-06-09T11:27:48Z</time>
      </trkpt>
      <trkpt lat="42.996778" lon="-2.383825">
        <ele>1047.790</ele>
        <time>2018-06-09T11:27:52Z</time>
      </trkpt>
      <trkpt lat="42.996732" lon="-2.383797">
        <ele>1047.019</ele>
        <time>2018-06-09T11:27:56Z</time>
      </trkpt>
      <trkpt lat="42.996686" lon="-2.383782">
        <ele>1046.808</ele>
        <time>2018-06-09T11:28:01Z</time>
      </trkpt>
      <trkpt lat="42.996650" lon="-2.383729">
        <ele>1046.899</ele>
        <time>2018-06-09T11:28:06Z</time>
      </trkpt>
      <trkpt lat="42.996619" lon="-2.383664">
        <ele>1046.782</ele>
        <time>2018-06-09T11:28:11Z</time>
      </trkpt>
      <trkpt lat="42.996607" lon="-2.383586">
        <ele>1047.413</ele>
        <time>2018-06-09T11:28:15Z</time>
      </trkpt>
      <trkpt lat="42.996592" lon="-2.383510">
        <ele>1048.141</ele>
        <time>2018-06-09T11:28:19Z</time>
      </trkpt>
      <trkpt lat="42.996579" lon="-2.383436">
        <ele>1048.859</ele>
        <time>2018-06-09T11:28:23Z</time>
      </trkpt>
      <trkpt lat="42.996577" lon="-2.383366">
        <ele>1049.343</ele>
        <time>2018-06-09T11:28:27Z</time>
      </trkpt>
      <trkpt lat="42.996569" lon="-2.383292">
        <ele>1050.349</ele>
        <time>2018-06-09T11:28:31Z</time>
      </trkpt>
      <trkpt lat="42.996555" lon="-2.383227">
        <ele>1051.130</ele>
        <time>2018-06-09T11:28:35Z</time>
      </trkpt>
      <trkpt lat="42.996554" lon="-2.383165">
        <ele>1050.938</ele>
        <time>2018-06-09T11:28:39Z</time>
      </trkpt>
      <trkpt lat="42.996555" lon="-2.383097">
        <ele>1050.170</ele>
        <time>2018-06-09T11:28:43Z</time>
      </trkpt>
      <trkpt lat="42.996549" lon="-2.383021">
        <ele>1050.117</ele>
        <time>2018-06-09T11:28:47Z</time>
      </trkpt>
      <trkpt lat="42.996541" lon="-2.382940">
        <ele>1050.608</ele>
        <time>2018-06-09T11:28:51Z</time>
      </trkpt>
      <trkpt lat="42.996525" lon="-2.382863">
        <ele>1050.995</ele>
        <time>2018-06-09T11:28:55Z</time>
      </trkpt>
      <trkpt lat="42.996493" lon="-2.382800">
        <ele>1051.158</ele>
        <time>2018-06-09T11:28:59Z</time>
      </trkpt>
      <trkpt lat="42.996456" lon="-2.382739">
        <ele>1052.169</ele>
        <time>2018-06-09T11:29:03Z</time>
      </trkpt>
      <trkpt lat="42.996423" lon="-2.382685">
        <ele>1052.537</ele>
        <time>2018-06-09T11:29:06Z</time>
      </trkpt>
      <trkpt lat="42.996396" lon="-2.382633">
        <ele>1052.515</ele>
        <time>2018-06-09T11:29:09Z</time>
      </trkpt>
      <trkpt lat="42.996373" lon="-2.382576">
        <ele>1052.439</ele>
        <time>2018-06-09T11:29:12Z</time>
      </trkpt>
      <trkpt lat="42.996353" lon="-2.382514">
        <ele>1052.825</ele>
        <time>2018-06-09T11:29:15Z</time>
      </trkpt>
      <trkpt lat="42.996340" lon="-2.382453">
        <ele>1053.246</ele>
        <time>2018-06-09T11:29:19Z</time>
      </trkpt>
      <trkpt lat="42.996315" lon="-2.382392">
        <ele>1053.539</ele>
        <time>2018-06-09T11:29:23Z</time>
      </trkpt>
      <trkpt lat="42.996273" lon="-2.382346">
        <ele>1053.101</ele>
        <time>2018-06-09T11:29:27Z</time>
      </trkpt>
      <trkpt lat="42.996221" lon="-2.382314">
        <ele>1052.521</ele>
        <time>2018-06-09T11:29:31Z</time>
      </trkpt>
      <trkpt lat="42.996165" lon="-2.382293">
        <ele>1052.108</ele>
        <time>2018-06-09T11:29:35Z</time>
      </trkpt>
      <trkpt lat="42.996111" lon="-2.382267">
        <ele>1051.955</ele>
        <time>2018-06-09T11:29:39Z</time>
      </trkpt>
      <trkpt lat="42.996066" lon="-2.382230">
        <ele>1051.458</ele>
        <time>2018-06-09T11:29:43Z</time>
      </trkpt>
      <trkpt lat="42.996039" lon="-2.382177">
        <ele>1051.239</ele>
        <time>2018-06-09T11:29:47Z</time>
      </trkpt>
      <trkpt lat="42.996027" lon="-2.382111">
        <ele>1050.677</ele>
        <time>2018-06-09T11:29:51Z</time>
      </trkpt>
      <trkpt lat="42.996022" lon="-2.382049">
        <ele>1050.045</ele>
        <time>2018-06-09T11:29:55Z</time>
      </trkpt>
      <trkpt lat="42.995995" lon="-2.381991">
        <ele>1049.779</ele>
        <time>2018-06-09T11:29:59Z</time>
      </trkpt>
      <trkpt lat="42.995962" lon="-2.381944">
        <ele>1048.895</ele>
        <time>2018-06-09T11:30:03Z</time>
      </trkpt>
      <trkpt lat="42.995957" lon="-2.381876">
        <ele>1047.236</ele>
        <time>2018-06-09T11:30:07Z</time>
      </trkpt>
      <trkpt lat="42.995964" lon="-2.381812">
        <ele>1046.768</ele>
        <time>2018-06-09T11:30:10Z</time>
      </trkpt>
      <trkpt lat="42.995971" lon="-2.381747">
        <ele>1046.242</ele>
        <time>2018-06-09T11:30:13Z</time>
      </trkpt>
      <trkpt lat="42.995974" lon="-2.381669">
        <ele>1046.326</ele>
        <time>2018-06-09T11:30:17Z</time>
      </trkpt>
      <trkpt lat="42.995972" lon="-2.381591">
        <ele>1046.508</ele>
        <time>2018-06-09T11:30:21Z</time>
      </trkpt>
      <trkpt lat="42.995962" lon="-2.381515">
        <ele>1047.118</ele>
        <time>2018-06-09T11:30:25Z</time>
      </trkpt>
      <trkpt lat="42.995928" lon="-2.381452">
        <ele>1046.631</ele>
        <time>2018-06-09T11:30:29Z</time>
      </trkpt>
      <trkpt lat="42.995898" lon="-2.381399">
        <ele>1046.482</ele>
        <time>2018-06-09T11:30:32Z</time>
      </trkpt>
      <trkpt lat="42.995872" lon="-2.381347">
        <ele>1045.610</ele>
        <time>2018-06-09T11:30:35Z</time>
      </trkpt>
      <trkpt lat="42.995837" lon="-2.381289">
        <ele>1045.198</ele>
        <time>2018-06-09T11:30:39Z</time>
      </trkpt>
      <trkpt lat="42.995789" lon="-2.381249">
        <ele>1045.082</ele>
        <time>2018-06-09T11:30:43Z</time>
      </trkpt>
      <trkpt lat="42.995742" lon="-2.381201">
        <ele>1045.138</ele>
        <time>2018-06-09T11:30:47Z</time>
      </trkpt>
      <trkpt lat="42.995694" lon="-2.381160">
        <ele>1044.169</ele>
        <time>2018-06-09T11:30:51Z</time>
      </trkpt>
      <trkpt lat="42.995639" lon="-2.381147">
        <ele>1043.879</ele>
        <time>2018-06-09T11:30:55Z</time>
      </trkpt>
      <trkpt lat="42.995591" lon="-2.381105">
        <ele>1043.505</ele>
        <time>2018-06-09T11:30:59Z</time>
      </trkpt>
      <trkpt lat="42.995571" lon="-2.381036">
        <ele>1044.425</ele>
        <time>2018-06-09T11:31:03Z</time>
      </trkpt>
      <trkpt lat="42.995561" lon="-2.380963">
        <ele>1045.108</ele>
        <time>2018-06-09T11:31:07Z</time>
      </trkpt>
      <trkpt lat="42.995541" lon="-2.380898">
        <ele>1045.329</ele>
        <time>2018-06-09T11:31:11Z</time>
      </trkpt>
      <trkpt lat="42.995515" lon="-2.380838">
        <ele>1045.562</ele>
        <time>2018-06-09T11:31:15Z</time>
      </trkpt>
      <trkpt lat="42.995490" lon="-2.380771">
        <ele>1045.283</ele>
        <time>2018-06-09T11:31:19Z</time>
      </trkpt>
      <trkpt lat="42.995458" lon="-2.380711">
        <ele>1044.611</ele>
        <time>2018-06-09T11:31:23Z</time>
      </trkpt>
      <trkpt lat="42.995412" lon="-2.380660">
        <ele>1044.919</ele>
        <time>2018-06-09T11:31:27Z</time>
      </trkpt>
      <trkpt lat="42.995371" lon="-2.380618">
        <ele>1044.863</ele>
        <time>2018-06-09T11:31:30Z</time>
      </trkpt>
      <trkpt lat="42.995325" lon="-2.380583">
        <ele>1046.789</ele>
        <time>2018-06-09T11:31:34Z</time>
      </trkpt>
      <trkpt lat="42.995276" lon="-2.380588">
        <ele>1047.290</ele>
        <time>2018-06-09T11:31:38Z</time>
      </trkpt>
      <trkpt lat="42.995221" lon="-2.380607">
        <ele>1046.347</ele>
        <time>2018-06-09T11:31:42Z</time>
      </trkpt>
      <trkpt lat="42.995173" lon="-2.380610">
        <ele>1045.229</ele>
        <time>2018-06-09T11:31:45Z</time>
      </trkpt>
      <trkpt lat="42.995125" lon="-2.380595">
        <ele>1044.421</ele>
        <time>2018-06-09T11:31:48Z</time>
      </trkpt>
      <trkpt lat="42.995075" lon="-2.380583">
        <ele>1043.408</ele>
        <time>2018-06-09T11:31:51Z</time>
      </trkpt>
      <trkpt lat="42.995027" lon="-2.380584">
        <ele>1042.686</ele>
        <time>2018-06-09T11:31:54Z</time>
      </trkpt>
      <trkpt lat="42.994983" lon="-2.380559">
        <ele>1042.279</ele>
        <time>2018-06-09T11:31:58Z</time>
      </trkpt>
      <trkpt lat="42.994956" lon="-2.380492">
        <ele>1042.450</ele>
        <time>2018-06-09T11:32:02Z</time>
      </trkpt>
      <trkpt lat="42.994935" lon="-2.380420">
        <ele>1042.588</ele>
        <time>2018-06-09T11:32:06Z</time>
      </trkpt>
      <trkpt lat="42.994923" lon="-2.380355">
        <ele>1042.966</ele>
        <time>2018-06-09T11:32:10Z</time>
      </trkpt>
      <trkpt lat="42.994922" lon="-2.380291">
        <ele>1043.260</ele>
        <time>2018-06-09T11:32:14Z</time>
      </trkpt>
      <trkpt lat="42.994898" lon="-2.380233">
        <ele>1043.156</ele>
        <time>2018-06-09T11:32:18Z</time>
      </trkpt>
      <trkpt lat="42.994855" lon="-2.380198">
        <ele>1043.187</ele>
        <time>2018-06-09T11:32:22Z</time>
      </trkpt>
      <trkpt lat="42.994809" lon="-2.380190">
        <ele>1043.193</ele>
        <time>2018-06-09T11:32:27Z</time>
      </trkpt>
      <trkpt lat="42.994770" lon="-2.380227">
        <ele>1043.165</ele>
        <time>2018-06-09T11:32:32Z</time>
      </trkpt>
      <trkpt lat="42.994754" lon="-2.380164">
        <ele>1041.921</ele>
        <time>2018-06-09T11:34:30Z</time>
      </trkpt>
      <trkpt lat="42.994725" lon="-2.380095">
        <ele>1042.108</ele>
        <time>2018-06-09T11:34:35Z</time>
      </trkpt>
      <trkpt lat="42.994700" lon="-2.380036">
        <ele>1041.681</ele>
        <time>2018-06-09T11:34:39Z</time>
      </trkpt>
      <trkpt lat="42.994681" lon="-2.379967">
        <ele>1041.224</ele>
        <time>2018-06-09T11:34:44Z</time>
      </trkpt>
      <trkpt lat="42.994660" lon="-2.379903">
        <ele>1041.115</ele>
        <time>2018-06-09T11:34:48Z</time>
      </trkpt>
      <trkpt lat="42.994630" lon="-2.379844">
        <ele>1041.263</ele>
        <time>2018-06-09T11:34:52Z</time>
      </trkpt>
      <trkpt lat="42.994590" lon="-2.379794">
        <ele>1040.511</ele>
        <time>2018-06-09T11:34:56Z</time>
      </trkpt>
      <trkpt lat="42.994548" lon="-2.379740">
        <ele>1040.425</ele>
        <time>2018-06-09T11:35:00Z</time>
      </trkpt>
      <trkpt lat="42.994513" lon="-2.379676">
        <ele>1039.931</ele>
        <time>2018-06-09T11:35:04Z</time>
      </trkpt>
      <trkpt lat="42.994484" lon="-2.379604">
        <ele>1039.662</ele>
        <time>2018-06-09T11:35:08Z</time>
      </trkpt>
      <trkpt lat="42.994460" lon="-2.379535">
        <ele>1038.955</ele>
        <time>2018-06-09T11:35:12Z</time>
      </trkpt>
      <trkpt lat="42.994437" lon="-2.379462">
        <ele>1039.107</ele>
        <time>2018-06-09T11:35:16Z</time>
      </trkpt>
      <trkpt lat="42.994416" lon="-2.379404">
        <ele>1039.017</ele>
        <time>2018-06-09T11:35:19Z</time>
      </trkpt>
      <trkpt lat="42.994401" lon="-2.379341">
        <ele>1038.508</ele>
        <time>2018-06-09T11:35:22Z</time>
      </trkpt>
      <trkpt lat="42.994389" lon="-2.379278">
        <ele>1038.227</ele>
        <time>2018-06-09T11:35:25Z</time>
      </trkpt>
      <trkpt lat="42.994370" lon="-2.379210">
        <ele>1037.610</ele>
        <time>2018-06-09T11:35:28Z</time>
      </trkpt>
      <trkpt lat="42.994346" lon="-2.379135">
        <ele>1035.881</ele>
        <time>2018-06-09T11:35:31Z</time>
      </trkpt>
      <trkpt lat="42.994338" lon="-2.379068">
        <ele>1034.019</ele>
        <time>2018-06-09T11:35:34Z</time>
      </trkpt>
      <trkpt lat="42.994329" lon="-2.379001">
        <ele>1032.757</ele>
        <time>2018-06-09T11:35:37Z</time>
      </trkpt>
      <trkpt lat="42.994318" lon="-2.378938">
        <ele>1032.181</ele>
        <time>2018-06-09T11:35:40Z</time>
      </trkpt>
      <trkpt lat="42.994310" lon="-2.378873">
        <ele>1031.967</ele>
        <time>2018-06-09T11:35:43Z</time>
      </trkpt>
      <trkpt lat="42.994299" lon="-2.378787">
        <ele>1032.338</ele>
        <time>2018-06-09T11:35:46Z</time>
      </trkpt>
      <trkpt lat="42.994289" lon="-2.378716">
        <ele>1032.568</ele>
        <time>2018-06-09T11:35:48Z</time>
      </trkpt>
      <trkpt lat="42.994279" lon="-2.378643">
        <ele>1032.242</ele>
        <time>2018-06-09T11:35:50Z</time>
      </trkpt>
      <trkpt lat="42.994265" lon="-2.378574">
        <ele>1031.726</ele>
        <time>2018-06-09T11:35:52Z</time>
      </trkpt>
      <trkpt lat="42.994246" lon="-2.378508">
        <ele>1030.708</ele>
        <time>2018-06-09T11:35:54Z</time>
      </trkpt>
      <trkpt lat="42.994228" lon="-2.378442">
        <ele>1030.158</ele>
        <time>2018-06-09T11:35:56Z</time>
      </trkpt>
      <trkpt lat="42.994214" lon="-2.378368">
        <ele>1029.151</ele>
        <time>2018-06-09T11:35:58Z</time>
      </trkpt>
      <trkpt lat="42.994211" lon="-2.378284">
        <ele>1028.622</ele>
        <time>2018-06-09T11:36:00Z</time>
      </trkpt>
      <trkpt lat="42.994211" lon="-2.378201">
        <ele>1028.590</ele>
        <time>2018-06-09T11:36:02Z</time>
      </trkpt>
      <trkpt lat="42.994208" lon="-2.378115">
        <ele>1028.658</ele>
        <time>2018-06-09T11:36:04Z</time>
      </trkpt>
      <trkpt lat="42.994201" lon="-2.378037">
        <ele>1029.152</ele>
        <time>2018-06-09T11:36:06Z</time>
      </trkpt>
      <trkpt lat="42.994190" lon="-2.377957">
        <ele>1028.268</ele>
        <time>2018-06-09T11:36:08Z</time>
      </trkpt>
      <trkpt lat="42.994184" lon="-2.377887">
        <ele>1027.179</ele>
        <time>2018-06-09T11:36:10Z</time>
      </trkpt>
      <trkpt lat="42.994191" lon="-2.377823">
        <ele>1026.263</ele>
        <time>2018-06-09T11:36:12Z</time>
      </trkpt>
      <trkpt lat="42.994199" lon="-2.377760">
        <ele>1025.444</ele>
        <time>2018-06-09T11:36:14Z</time>
      </trkpt>
      <trkpt lat="42.994206" lon="-2.377697">
        <ele>1024.618</ele>
        <time>2018-06-09T11:36:16Z</time>
      </trkpt>
      <trkpt lat="42.994221" lon="-2.377637">
        <ele>1023.608</ele>
        <time>2018-06-09T11:36:18Z</time>
      </trkpt>
      <trkpt lat="42.994242" lon="-2.377570">
        <ele>1022.228</ele>
        <time>2018-06-09T11:36:21Z</time>
      </trkpt>
      <trkpt lat="42.994251" lon="-2.377491">
        <ele>1020.381</ele>
        <time>2018-06-09T11:36:24Z</time>
      </trkpt>
      <trkpt lat="42.994252" lon="-2.377426">
        <ele>1018.632</ele>
        <time>2018-06-09T11:36:26Z</time>
      </trkpt>
      <trkpt lat="42.994266" lon="-2.377361">
        <ele>1016.670</ele>
        <time>2018-06-09T11:36:28Z</time>
      </trkpt>
      <trkpt lat="42.994290" lon="-2.377298">
        <ele>1014.688</ele>
        <time>2018-06-09T11:36:30Z</time>
      </trkpt>
      <trkpt lat="42.994315" lon="-2.377221">
        <ele>1012.212</ele>
        <time>2018-06-09T11:36:33Z</time>
      </trkpt>
      <trkpt lat="42.994322" lon="-2.377138">
        <ele>1010.318</ele>
        <time>2018-06-09T11:36:36Z</time>
      </trkpt>
      <trkpt lat="42.994319" lon="-2.377050">
        <ele>1009.119</ele>
        <time>2018-06-09T11:36:38Z</time>
      </trkpt>
      <trkpt lat="42.994310" lon="-2.376964">
        <ele>1007.891</ele>
        <time>2018-06-09T11:36:40Z</time>
      </trkpt>
      <trkpt lat="42.994289" lon="-2.376896">
        <ele>1003.881</ele>
        <time>2018-06-09T11:36:42Z</time>
      </trkpt>
      <trkpt lat="42.994261" lon="-2.376837">
        <ele>1000.719</ele>
        <time>2018-06-09T11:36:44Z</time>
      </trkpt>
      <trkpt lat="42.994234" lon="-2.376765">
        <ele>998.708</ele>
        <time>2018-06-09T11:36:46Z</time>
      </trkpt>
      <trkpt lat="42.994214" lon="-2.376701">
        <ele>997.211</ele>
        <time>2018-06-09T11:36:48Z</time>
      </trkpt>
      <trkpt lat="42.994194" lon="-2.376635">
        <ele>996.524</ele>
        <time>2018-06-09T11:36:50Z</time>
      </trkpt>
      <trkpt lat="42.994174" lon="-2.376560">
        <ele>995.815</ele>
        <time>2018-06-09T11:36:52Z</time>
      </trkpt>
      <trkpt lat="42.994151" lon="-2.376483">
        <ele>995.473</ele>
        <time>2018-06-09T11:36:54Z</time>
      </trkpt>
      <trkpt lat="42.994122" lon="-2.376415">
        <ele>995.181</ele>
        <time>2018-06-09T11:36:56Z</time>
      </trkpt>
      <trkpt lat="42.994085" lon="-2.376355">
        <ele>994.585</ele>
        <time>2018-06-09T11:36:58Z</time>
      </trkpt>
      <trkpt lat="42.994049" lon="-2.376303">
        <ele>993.781</ele>
        <time>2018-06-09T11:37:00Z</time>
      </trkpt>
      <trkpt lat="42.994009" lon="-2.376241">
        <ele>992.482</ele>
        <time>2018-06-09T11:37:03Z</time>
      </trkpt>
      <trkpt lat="42.993977" lon="-2.376178">
        <ele>991.255</ele>
        <time>2018-06-09T11:37:06Z</time>
      </trkpt>
      <trkpt lat="42.993950" lon="-2.376123">
        <ele>990.107</ele>
        <time>2018-06-09T11:37:09Z</time>
      </trkpt>
      <trkpt lat="42.993918" lon="-2.376067">
        <ele>989.517</ele>
        <time>2018-06-09T11:37:12Z</time>
      </trkpt>
      <trkpt lat="42.993881" lon="-2.376010">
        <ele>989.308</ele>
        <time>2018-06-09T11:37:15Z</time>
      </trkpt>
      <trkpt lat="42.993841" lon="-2.375957">
        <ele>989.637</ele>
        <time>2018-06-09T11:37:18Z</time>
      </trkpt>
      <trkpt lat="42.993804" lon="-2.375900">
        <ele>989.730</ele>
        <time>2018-06-09T11:37:21Z</time>
      </trkpt>
      <trkpt lat="42.993780" lon="-2.375831">
        <ele>988.721</ele>
        <time>2018-06-09T11:37:24Z</time>
      </trkpt>
      <trkpt lat="42.993764" lon="-2.375760">
        <ele>988.169</ele>
        <time>2018-06-09T11:37:27Z</time>
      </trkpt>
      <trkpt lat="42.993756" lon="-2.375688">
        <ele>987.437</ele>
        <time>2018-06-09T11:37:30Z</time>
      </trkpt>
      <trkpt lat="42.993749" lon="-2.375616">
        <ele>986.891</ele>
        <time>2018-06-09T11:37:33Z</time>
      </trkpt>
      <trkpt lat="42.993741" lon="-2.375540">
        <ele>986.427</ele>
        <time>2018-06-09T11:37:36Z</time>
      </trkpt>
      <trkpt lat="42.993728" lon="-2.375465">
        <ele>985.868</ele>
        <time>2018-06-09T11:37:39Z</time>
      </trkpt>
      <trkpt lat="42.993711" lon="-2.375400">
        <ele>985.322</ele>
        <time>2018-06-09T11:37:42Z</time>
      </trkpt>
      <trkpt lat="42.993691" lon="-2.375343">
        <ele>984.862</ele>
        <time>2018-06-09T11:37:45Z</time>
      </trkpt>
      <trkpt lat="42.993672" lon="-2.375287">
        <ele>984.508</ele>
        <time>2018-06-09T11:37:48Z</time>
      </trkpt>
      <trkpt lat="42.993651" lon="-2.375211">
        <ele>984.108</ele>
        <time>2018-06-09T11:37:52Z</time>
      </trkpt>
      <trkpt lat="42.993629" lon="-2.375145">
        <ele>983.444</ele>
        <time>2018-06-09T11:37:56Z</time>
      </trkpt>
      <trkpt lat="42.993598" lon="-2.375085">
        <ele>983.257</ele>
        <time>2018-06-09T11:38:00Z</time>
      </trkpt>
      <trkpt lat="42.993564" lon="-2.375029">
        <ele>983.178</ele>
        <time>2018-06-09T11:38:04Z</time>
      </trkpt>
      <trkpt lat="42.993528" lon="-2.374977">
        <ele>982.126</ele>
        <time>2018-06-09T11:38:08Z</time>
      </trkpt>
      <trkpt lat="42.993492" lon="-2.374919">
        <ele>981.964</ele>
        <time>2018-06-09T11:38:12Z</time>
      </trkpt>
      <trkpt lat="42.993465" lon="-2.374869">
        <ele>981.658</ele>
        <time>2018-06-09T11:38:15Z</time>
      </trkpt>
      <trkpt lat="42.993440" lon="-2.374810">
        <ele>981.134</ele>
        <time>2018-06-09T11:38:18Z</time>
      </trkpt>
      <trkpt lat="42.993417" lon="-2.374744">
        <ele>980.585</ele>
        <time>2018-06-09T11:38:21Z</time>
      </trkpt>
      <trkpt lat="42.993397" lon="-2.374677">
        <ele>980.317</ele>
        <time>2018-06-09T11:38:24Z</time>
      </trkpt>
      <trkpt lat="42.993379" lon="-2.374611">
        <ele>979.387</ele>
        <time>2018-06-09T11:38:27Z</time>
      </trkpt>
      <trkpt lat="42.993364" lon="-2.374540">
        <ele>978.615</ele>
        <time>2018-06-09T11:38:30Z</time>
      </trkpt>
      <trkpt lat="42.993354" lon="-2.374462">
        <ele>977.408</ele>
        <time>2018-06-09T11:38:33Z</time>
      </trkpt>
      <trkpt lat="42.993345" lon="-2.374385">
        <ele>976.673</ele>
        <time>2018-06-09T11:38:36Z</time>
      </trkpt>
      <trkpt lat="42.993334" lon="-2.374306">
        <ele>976.186</ele>
        <time>2018-06-09T11:38:39Z</time>
      </trkpt>
      <trkpt lat="42.993321" lon="-2.374228">
        <ele>975.717</ele>
        <time>2018-06-09T11:38:42Z</time>
      </trkpt>
      <trkpt lat="42.993308" lon="-2.374159">
        <ele>975.245</ele>
        <time>2018-06-09T11:38:45Z</time>
      </trkpt>
      <trkpt lat="42.993296" lon="-2.374094">
        <ele>975.023</ele>
        <time>2018-06-09T11:38:48Z</time>
      </trkpt>
      <trkpt lat="42.993285" lon="-2.374031">
        <ele>975.127</ele>
        <time>2018-06-09T11:38:51Z</time>
      </trkpt>
      <trkpt lat="42.993273" lon="-2.373965">
        <ele>974.723</ele>
        <time>2018-06-09T11:38:54Z</time>
      </trkpt>
      <trkpt lat="42.993263" lon="-2.373899">
        <ele>973.934</ele>
        <time>2018-06-09T11:38:57Z</time>
      </trkpt>
      <trkpt lat="42.993256" lon="-2.373832">
        <ele>973.533</ele>
        <time>2018-06-09T11:39:00Z</time>
      </trkpt>
      <trkpt lat="42.993249" lon="-2.373764">
        <ele>973.123</ele>
        <time>2018-06-09T11:39:03Z</time>
      </trkpt>
      <trkpt lat="42.993248" lon="-2.373689">
        <ele>972.815</ele>
        <time>2018-06-09T11:39:06Z</time>
      </trkpt>
      <trkpt lat="42.993254" lon="-2.373607">
        <ele>972.208</ele>
        <time>2018-06-09T11:39:09Z</time>
      </trkpt>
      <trkpt lat="42.993266" lon="-2.373525">
        <ele>971.715</ele>
        <time>2018-06-09T11:39:12Z</time>
      </trkpt>
      <trkpt lat="42.993275" lon="-2.373446">
        <ele>971.888</ele>
        <time>2018-06-09T11:39:15Z</time>
      </trkpt>
      <trkpt lat="42.993274" lon="-2.373368">
        <ele>971.749</ele>
        <time>2018-06-09T11:39:18Z</time>
      </trkpt>
      <trkpt lat="42.993271" lon="-2.373283">
        <ele>971.067</ele>
        <time>2018-06-09T11:39:21Z</time>
      </trkpt>
      <trkpt lat="42.993272" lon="-2.373197">
        <ele>970.245</ele>
        <time>2018-06-09T11:39:24Z</time>
      </trkpt>
      <trkpt lat="42.993273" lon="-2.373112">
        <ele>970.319</ele>
        <time>2018-06-09T11:39:27Z</time>
      </trkpt>
      <trkpt lat="42.993270" lon="-2.373028">
        <ele>971.245</ele>
        <time>2018-06-09T11:39:30Z</time>
      </trkpt>
      <trkpt lat="42.993276" lon="-2.372941">
        <ele>971.196</ele>
        <time>2018-06-09T11:39:33Z</time>
      </trkpt>
      <trkpt lat="42.993284" lon="-2.372880">
        <ele>971.221</ele>
        <time>2018-06-09T11:39:35Z</time>
      </trkpt>
      <trkpt lat="42.993289" lon="-2.372802">
        <ele>970.841</ele>
        <time>2018-06-09T11:39:38Z</time>
      </trkpt>
      <trkpt lat="42.993295" lon="-2.372735">
        <ele>970.405</ele>
        <time>2018-06-09T11:39:42Z</time>
      </trkpt>
      <trkpt lat="42.993284" lon="-2.372670">
        <ele>970.308</ele>
        <time>2018-06-09T11:39:47Z</time>
      </trkpt>
      <trkpt lat="42.993267" lon="-2.372605">
        <ele>969.864</ele>
        <time>2018-06-09T11:39:50Z</time>
      </trkpt>
      <trkpt lat="42.993246" lon="-2.372537">
        <ele>969.337</ele>
        <time>2018-06-09T11:39:53Z</time>
      </trkpt>
      <trkpt lat="42.993226" lon="-2.372469">
        <ele>969.188</ele>
        <time>2018-06-09T11:39:56Z</time>
      </trkpt>
      <trkpt lat="42.993205" lon="-2.372402">
        <ele>968.816</ele>
        <time>2018-06-09T11:39:59Z</time>
      </trkpt>
      <trkpt lat="42.993180" lon="-2.372332">
        <ele>969.124</ele>
        <time>2018-06-09T11:40:02Z</time>
      </trkpt>
      <trkpt lat="42.993159" lon="-2.372257">
        <ele>969.178</ele>
        <time>2018-06-09T11:40:05Z</time>
      </trkpt>
      <trkpt lat="42.993143" lon="-2.372176">
        <ele>968.684</ele>
        <time>2018-06-09T11:40:08Z</time>
      </trkpt>
      <trkpt lat="42.993128" lon="-2.372088">
        <ele>967.715</ele>
        <time>2018-06-09T11:40:11Z</time>
      </trkpt>
      <trkpt lat="42.993116" lon="-2.372006">
        <ele>967.036</ele>
        <time>2018-06-09T11:40:14Z</time>
      </trkpt>
      <trkpt lat="42.993110" lon="-2.371927">
        <ele>966.917</ele>
        <time>2018-06-09T11:40:17Z</time>
      </trkpt>
      <trkpt lat="42.993107" lon="-2.371859">
        <ele>966.218</ele>
        <time>2018-06-09T11:40:20Z</time>
      </trkpt>
      <trkpt lat="42.993103" lon="-2.371777">
        <ele>965.808</ele>
        <time>2018-06-09T11:40:24Z</time>
      </trkpt>
      <trkpt lat="42.993099" lon="-2.371709">
        <ele>965.295</ele>
        <time>2018-06-09T11:40:27Z</time>
      </trkpt>
      <trkpt lat="42.993094" lon="-2.371640">
        <ele>964.958</ele>
        <time>2018-06-09T11:40:30Z</time>
      </trkpt>
      <trkpt lat="42.993092" lon="-2.371570">
        <ele>964.529</ele>
        <time>2018-06-09T11:40:33Z</time>
      </trkpt>
      <trkpt lat="42.993091" lon="-2.371500">
        <ele>964.067</ele>
        <time>2018-06-09T11:40:36Z</time>
      </trkpt>
      <trkpt lat="42.993091" lon="-2.371434">
        <ele>962.985</ele>
        <time>2018-06-09T11:40:39Z</time>
      </trkpt>
      <trkpt lat="42.993092" lon="-2.371371">
        <ele>961.589</ele>
        <time>2018-06-09T11:40:42Z</time>
      </trkpt>
      <trkpt lat="42.993093" lon="-2.371308">
        <ele>959.955</ele>
        <time>2018-06-09T11:40:45Z</time>
      </trkpt>
      <trkpt lat="42.993093" lon="-2.371244">
        <ele>959.076</ele>
        <time>2018-06-09T11:40:48Z</time>
      </trkpt>
      <trkpt lat="42.993088" lon="-2.371176">
        <ele>958.226</ele>
        <time>2018-06-09T11:40:51Z</time>
      </trkpt>
      <trkpt lat="42.993082" lon="-2.371108">
        <ele>957.847</ele>
        <time>2018-06-09T11:40:54Z</time>
      </trkpt>
      <trkpt lat="42.993075" lon="-2.371046">
        <ele>957.311</ele>
        <time>2018-06-09T11:40:57Z</time>
      </trkpt>
      <trkpt lat="42.993073" lon="-2.370969">
        <ele>956.108</ele>
        <time>2018-06-09T11:41:01Z</time>
      </trkpt>
      <trkpt lat="42.993063" lon="-2.370900">
        <ele>955.434</ele>
        <time>2018-06-09T11:41:05Z</time>
      </trkpt>
      <trkpt lat="42.993051" lon="-2.370830">
        <ele>955.237</ele>
        <time>2018-06-09T11:41:09Z</time>
      </trkpt>
      <trkpt lat="42.993047" lon="-2.370750">
        <ele>955.228</ele>
        <time>2018-06-09T11:41:13Z</time>
      </trkpt>
      <trkpt lat="42.993046" lon="-2.370686">
        <ele>955.296</ele>
        <time>2018-06-09T11:41:16Z</time>
      </trkpt>
      <trkpt lat="42.993047" lon="-2.370622">
        <ele>955.134</ele>
        <time>2018-06-09T11:41:19Z</time>
      </trkpt>
      <trkpt lat="42.993047" lon="-2.370556">
        <ele>955.768</ele>
        <time>2018-06-09T11:41:22Z</time>
      </trkpt>
      <trkpt lat="42.993048" lon="-2.370483">
        <ele>955.694</ele>
        <time>2018-06-09T11:41:25Z</time>
      </trkpt>
      <trkpt lat="42.993047" lon="-2.370388">
        <ele>953.825</ele>
        <time>2018-06-09T11:41:28Z</time>
      </trkpt>
      <trkpt lat="42.993049" lon="-2.370318">
        <ele>953.284</ele>
        <time>2018-06-09T11:41:30Z</time>
      </trkpt>
      <trkpt lat="42.993048" lon="-2.370242">
        <ele>951.707</ele>
        <time>2018-06-09T11:41:32Z</time>
      </trkpt>
      <trkpt lat="42.993051" lon="-2.370159">
        <ele>950.817</ele>
        <time>2018-06-09T11:41:34Z</time>
      </trkpt>
      <trkpt lat="42.993048" lon="-2.370079">
        <ele>949.908</ele>
        <time>2018-06-09T11:41:36Z</time>
      </trkpt>
      <trkpt lat="42.993047" lon="-2.370005">
        <ele>949.460</ele>
        <time>2018-06-09T11:41:38Z</time>
      </trkpt>
      <trkpt lat="42.993050" lon="-2.369935">
        <ele>948.373</ele>
        <time>2018-06-09T11:41:40Z</time>
      </trkpt>
      <trkpt lat="42.993052" lon="-2.369858">
        <ele>947.364</ele>
        <time>2018-06-09T11:41:43Z</time>
      </trkpt>
      <trkpt lat="42.993060" lon="-2.369785">
        <ele>946.492</ele>
        <time>2018-06-09T11:41:47Z</time>
      </trkpt>
      <trkpt lat="42.993073" lon="-2.369712">
        <ele>945.390</ele>
        <time>2018-06-09T11:41:50Z</time>
      </trkpt>
      <trkpt lat="42.993088" lon="-2.369638">
        <ele>943.594</ele>
        <time>2018-06-09T11:41:53Z</time>
      </trkpt>
      <trkpt lat="42.993099" lon="-2.369559">
        <ele>940.620</ele>
        <time>2018-06-09T11:41:56Z</time>
      </trkpt>
      <trkpt lat="42.993112" lon="-2.369482">
        <ele>937.891</ele>
        <time>2018-06-09T11:41:59Z</time>
      </trkpt>
      <trkpt lat="42.993141" lon="-2.369414">
        <ele>934.955</ele>
        <time>2018-06-09T11:42:02Z</time>
      </trkpt>
      <trkpt lat="42.993188" lon="-2.369362">
        <ele>932.707</ele>
        <time>2018-06-09T11:42:05Z</time>
      </trkpt>
      <trkpt lat="42.993244" lon="-2.369328">
        <ele>930.617</ele>
        <time>2018-06-09T11:42:08Z</time>
      </trkpt>
      <trkpt lat="42.993297" lon="-2.369300">
        <ele>929.008</ele>
        <time>2018-06-09T11:42:10Z</time>
      </trkpt>
      <trkpt lat="42.993358" lon="-2.369270">
        <ele>927.657</ele>
        <time>2018-06-09T11:42:12Z</time>
      </trkpt>
      <trkpt lat="42.993420" lon="-2.369247">
        <ele>926.160</ele>
        <time>2018-06-09T11:42:14Z</time>
      </trkpt>
      <trkpt lat="42.993486" lon="-2.369220">
        <ele>924.951</ele>
        <time>2018-06-09T11:42:16Z</time>
      </trkpt>
      <trkpt lat="42.993552" lon="-2.369193">
        <ele>923.959</ele>
        <time>2018-06-09T11:42:18Z</time>
      </trkpt>
      <trkpt lat="42.993618" lon="-2.369173">
        <ele>923.117</ele>
        <time>2018-06-09T11:42:20Z</time>
      </trkpt>
      <trkpt lat="42.993684" lon="-2.369154">
        <ele>922.141</ele>
        <time>2018-06-09T11:42:22Z</time>
      </trkpt>
      <trkpt lat="42.993751" lon="-2.369137">
        <ele>921.137</ele>
        <time>2018-06-09T11:42:24Z</time>
      </trkpt>
      <trkpt lat="42.993819" lon="-2.369120">
        <ele>920.018</ele>
        <time>2018-06-09T11:42:26Z</time>
      </trkpt>
      <trkpt lat="42.993885" lon="-2.369103">
        <ele>918.787</ele>
        <time>2018-06-09T11:42:28Z</time>
      </trkpt>
      <trkpt lat="42.993951" lon="-2.369086">
        <ele>917.842</ele>
        <time>2018-06-09T11:42:30Z</time>
      </trkpt>
      <trkpt lat="42.994015" lon="-2.369077">
        <ele>916.826</ele>
        <time>2018-06-09T11:42:32Z</time>
      </trkpt>
      <trkpt lat="42.994073" lon="-2.369095">
        <ele>915.608</ele>
        <time>2018-06-09T11:42:34Z</time>
      </trkpt>
      <trkpt lat="42.994120" lon="-2.369140">
        <ele>915.140</ele>
        <time>2018-06-09T11:42:36Z</time>
      </trkpt>
      <trkpt lat="42.994163" lon="-2.369182">
        <ele>915.043</ele>
        <time>2018-06-09T11:42:38Z</time>
      </trkpt>
      <trkpt lat="42.994205" lon="-2.369207">
        <ele>914.654</ele>
        <time>2018-06-09T11:42:40Z</time>
      </trkpt>
      <trkpt lat="42.994261" lon="-2.369222">
        <ele>914.162</ele>
        <time>2018-06-09T11:42:43Z</time>
      </trkpt>
      <trkpt lat="42.994311" lon="-2.369215">
        <ele>913.420</ele>
        <time>2018-06-09T11:42:46Z</time>
      </trkpt>
      <trkpt lat="42.994363" lon="-2.369190">
        <ele>913.054</ele>
        <time>2018-06-09T11:42:49Z</time>
      </trkpt>
      <trkpt lat="42.994405" lon="-2.369157">
        <ele>912.730</ele>
        <time>2018-06-09T11:42:52Z</time>
      </trkpt>
      <trkpt lat="42.994454" lon="-2.369129">
        <ele>912.361</ele>
        <time>2018-06-09T11:42:55Z</time>
      </trkpt>
      <trkpt lat="42.994511" lon="-2.369115">
        <ele>912.239</ele>
        <time>2018-06-09T11:42:58Z</time>
      </trkpt>
      <trkpt lat="42.994566" lon="-2.369110">
        <ele>911.601</ele>
        <time>2018-06-09T11:43:01Z</time>
      </trkpt>
      <trkpt lat="42.994615" lon="-2.369106">
        <ele>911.521</ele>
        <time>2018-06-09T11:43:04Z</time>
      </trkpt>
      <trkpt lat="42.994661" lon="-2.369096">
        <ele>910.408</ele>
        <time>2018-06-09T11:43:08Z</time>
      </trkpt>
      <trkpt lat="42.994713" lon="-2.369078">
        <ele>908.755</ele>
        <time>2018-06-09T11:43:13Z</time>
      </trkpt>
      <trkpt lat="42.994771" lon="-2.369079">
        <ele>906.368</ele>
        <time>2018-06-09T11:43:17Z</time>
      </trkpt>
      <trkpt lat="42.994824" lon="-2.369071">
        <ele>904.449</ele>
        <time>2018-06-09T11:43:20Z</time>
      </trkpt>
      <trkpt lat="42.994877" lon="-2.369023">
        <ele>902.887</ele>
        <time>2018-06-09T11:43:23Z</time>
      </trkpt>
      <trkpt lat="42.994919" lon="-2.368976">
        <ele>901.335</ele>
        <time>2018-06-09T11:43:25Z</time>
      </trkpt>
      <trkpt lat="42.994964" lon="-2.368925">
        <ele>900.299</ele>
        <time>2018-06-09T11:43:27Z</time>
      </trkpt>
      <trkpt lat="42.995010" lon="-2.368872">
        <ele>898.645</ele>
        <time>2018-06-09T11:43:29Z</time>
      </trkpt>
      <trkpt lat="42.995054" lon="-2.368813">
        <ele>897.796</ele>
        <time>2018-06-09T11:43:31Z</time>
      </trkpt>
      <trkpt lat="42.995085" lon="-2.368747">
        <ele>896.976</ele>
        <time>2018-06-09T11:43:33Z</time>
      </trkpt>
      <trkpt lat="42.995110" lon="-2.368678">
        <ele>895.990</ele>
        <time>2018-06-09T11:43:35Z</time>
      </trkpt>
      <trkpt lat="42.995141" lon="-2.368613">
        <ele>894.319</ele>
        <time>2018-06-09T11:43:37Z</time>
      </trkpt>
      <trkpt lat="42.995169" lon="-2.368553">
        <ele>892.808</ele>
        <time>2018-06-09T11:43:39Z</time>
      </trkpt>
      <trkpt lat="42.995192" lon="-2.368492">
        <ele>891.529</ele>
        <time>2018-06-09T11:43:41Z</time>
      </trkpt>
      <trkpt lat="42.995204" lon="-2.368426">
        <ele>890.432</ele>
        <time>2018-06-09T11:43:43Z</time>
      </trkpt>
      <trkpt lat="42.995217" lon="-2.368357">
        <ele>889.633</ele>
        <time>2018-06-09T11:43:45Z</time>
      </trkpt>
      <trkpt lat="42.995237" lon="-2.368282">
        <ele>888.991</ele>
        <time>2018-06-09T11:43:47Z</time>
      </trkpt>
      <trkpt lat="42.995252" lon="-2.368204">
        <ele>888.549</ele>
        <time>2018-06-09T11:43:49Z</time>
      </trkpt>
      <trkpt lat="42.995266" lon="-2.368129">
        <ele>888.173</ele>
        <time>2018-06-09T11:43:51Z</time>
      </trkpt>
      <trkpt lat="42.995275" lon="-2.368056">
        <ele>886.239</ele>
        <time>2018-06-09T11:43:54Z</time>
      </trkpt>
      <trkpt lat="42.995281" lon="-2.367966">
        <ele>884.320</ele>
        <time>2018-06-09T11:43:58Z</time>
      </trkpt>
      <trkpt lat="42.995288" lon="-2.367896">
        <ele>882.922</ele>
        <time>2018-06-09T11:44:00Z</time>
      </trkpt>
      <trkpt lat="42.995281" lon="-2.367816">
        <ele>882.362</ele>
        <time>2018-06-09T11:44:03Z</time>
      </trkpt>
      <trkpt lat="42.995274" lon="-2.367751">
        <ele>881.808</ele>
        <time>2018-06-09T11:44:06Z</time>
      </trkpt>
      <trkpt lat="42.995274" lon="-2.367663">
        <ele>880.808</ele>
        <time>2018-06-09T11:44:09Z</time>
      </trkpt>
      <trkpt lat="42.995300" lon="-2.367534">
        <ele>880.354</ele>
        <time>2018-06-09T11:44:11Z</time>
      </trkpt>
      <trkpt lat="42.995338" lon="-2.367465">
        <ele>879.597</ele>
        <time>2018-06-09T11:44:14Z</time>
      </trkpt>
      <trkpt lat="42.995378" lon="-2.367403">
        <ele>878.448</ele>
        <time>2018-06-09T11:44:17Z</time>
      </trkpt>
      <trkpt lat="42.995407" lon="-2.367335">
        <ele>877.426</ele>
        <time>2018-06-09T11:44:20Z</time>
      </trkpt>
      <trkpt lat="42.995433" lon="-2.367261">
        <ele>876.454</ele>
        <time>2018-06-09T11:44:23Z</time>
      </trkpt>
      <trkpt lat="42.995466" lon="-2.367199">
        <ele>875.278</ele>
        <time>2018-06-09T11:44:26Z</time>
      </trkpt>
      <trkpt lat="42.995496" lon="-2.367123">
        <ele>874.814</ele>
        <time>2018-06-09T11:44:29Z</time>
      </trkpt>
      <trkpt lat="42.995510" lon="-2.367063">
        <ele>874.655</ele>
        <time>2018-06-09T11:44:31Z</time>
      </trkpt>
      <trkpt lat="42.995519" lon="-2.366987">
        <ele>873.933</ele>
        <time>2018-06-09T11:44:34Z</time>
      </trkpt>
      <trkpt lat="42.995521" lon="-2.366912">
        <ele>872.623</ele>
        <time>2018-06-09T11:44:37Z</time>
      </trkpt>
      <trkpt lat="42.995543" lon="-2.366830">
        <ele>871.015</ele>
        <time>2018-06-09T11:44:40Z</time>
      </trkpt>
      <trkpt lat="42.995570" lon="-2.366772">
        <ele>869.308</ele>
        <time>2018-06-09T11:44:42Z</time>
      </trkpt>
      <trkpt lat="42.995602" lon="-2.366719">
        <ele>866.345</ele>
        <time>2018-06-09T11:44:44Z</time>
      </trkpt>
      <trkpt lat="42.995640" lon="-2.366673">
        <ele>863.618</ele>
        <time>2018-06-09T11:44:46Z</time>
      </trkpt>
      <trkpt lat="42.995692" lon="-2.366627">
        <ele>860.789</ele>
        <time>2018-06-09T11:44:49Z</time>
      </trkpt>
      <trkpt lat="42.995734" lon="-2.366597">
        <ele>858.457</ele>
        <time>2018-06-09T11:44:51Z</time>
      </trkpt>
      <trkpt lat="42.995776" lon="-2.366574">
        <ele>855.765</ele>
        <time>2018-06-09T11:44:53Z</time>
      </trkpt>
      <trkpt lat="42.995842" lon="-2.366557">
        <ele>853.119</ele>
        <time>2018-06-09T11:44:56Z</time>
      </trkpt>
      <trkpt lat="42.995890" lon="-2.366536">
        <ele>851.215</ele>
        <time>2018-06-09T11:44:58Z</time>
      </trkpt>
      <trkpt lat="42.995937" lon="-2.366507">
        <ele>849.966</ele>
        <time>2018-06-09T11:45:00Z</time>
      </trkpt>
      <trkpt lat="42.995978" lon="-2.366476">
        <ele>848.671</ele>
        <time>2018-06-09T11:45:02Z</time>
      </trkpt>
      <trkpt lat="42.996038" lon="-2.366438">
        <ele>847.041</ele>
        <time>2018-06-09T11:45:05Z</time>
      </trkpt>
      <trkpt lat="42.996087" lon="-2.366383">
        <ele>845.415</ele>
        <time>2018-06-09T11:45:08Z</time>
      </trkpt>
      <trkpt lat="42.996129" lon="-2.366318">
        <ele>844.308</ele>
        <time>2018-06-09T11:45:11Z</time>
      </trkpt>
      <trkpt lat="42.996181" lon="-2.366264">
        <ele>842.819</ele>
        <time>2018-06-09T11:45:14Z</time>
      </trkpt>
      <trkpt lat="42.996228" lon="-2.366231">
        <ele>842.132</ele>
        <time>2018-06-09T11:45:16Z</time>
      </trkpt>
      <trkpt lat="42.996280" lon="-2.366203">
        <ele>840.873</ele>
        <time>2018-06-09T11:45:18Z</time>
      </trkpt>
      <trkpt lat="42.996331" lon="-2.366174">
        <ele>839.741</ele>
        <time>2018-06-09T11:45:20Z</time>
      </trkpt>
      <trkpt lat="42.996377" lon="-2.366147">
        <ele>838.719</ele>
        <time>2018-06-09T11:45:22Z</time>
      </trkpt>
      <trkpt lat="42.996422" lon="-2.366128">
        <ele>838.093</ele>
        <time>2018-06-09T11:45:24Z</time>
      </trkpt>
      <trkpt lat="42.996482" lon="-2.366107">
        <ele>837.239</ele>
        <time>2018-06-09T11:45:27Z</time>
      </trkpt>
      <trkpt lat="42.996531" lon="-2.366070">
        <ele>836.770</ele>
        <time>2018-06-09T11:45:30Z</time>
      </trkpt>
      <trkpt lat="42.996572" lon="-2.366044">
        <ele>836.236</ele>
        <time>2018-06-09T11:45:32Z</time>
      </trkpt>
      <trkpt lat="42.996617" lon="-2.366012">
        <ele>835.417</ele>
        <time>2018-06-09T11:45:34Z</time>
      </trkpt>
      <trkpt lat="42.996661" lon="-2.365973">
        <ele>833.918</ele>
        <time>2018-06-09T11:45:36Z</time>
      </trkpt>
      <trkpt lat="42.996706" lon="-2.365933">
        <ele>833.308</ele>
        <time>2018-06-09T11:45:38Z</time>
      </trkpt>
      <trkpt lat="42.996750" lon="-2.365901">
        <ele>832.375</ele>
        <time>2018-06-09T11:45:40Z</time>
      </trkpt>
      <trkpt lat="42.996794" lon="-2.365873">
        <ele>831.038</ele>
        <time>2018-06-09T11:45:42Z</time>
      </trkpt>
      <trkpt lat="42.996840" lon="-2.365853">
        <ele>830.369</ele>
        <time>2018-06-09T11:45:44Z</time>
      </trkpt>
      <trkpt lat="42.996891" lon="-2.365839">
        <ele>829.657</ele>
        <time>2018-06-09T11:45:46Z</time>
      </trkpt>
      <trkpt lat="42.996942" lon="-2.365826">
        <ele>829.065</ele>
        <time>2018-06-09T11:45:48Z</time>
      </trkpt>
      <trkpt lat="42.996991" lon="-2.365815">
        <ele>828.049</ele>
        <time>2018-06-09T11:45:50Z</time>
      </trkpt>
      <trkpt lat="42.997056" lon="-2.365798">
        <ele>827.165</ele>
        <time>2018-06-09T11:45:53Z</time>
      </trkpt>
      <trkpt lat="42.997108" lon="-2.365772">
        <ele>826.256</ele>
        <time>2018-06-09T11:45:56Z</time>
      </trkpt>
      <trkpt lat="42.997148" lon="-2.365729">
        <ele>824.598</ele>
        <time>2018-06-09T11:46:00Z</time>
      </trkpt>
      <trkpt lat="42.997190" lon="-2.365696">
        <ele>822.315</ele>
        <time>2018-06-09T11:46:03Z</time>
      </trkpt>
      <trkpt lat="42.997243" lon="-2.365656">
        <ele>820.826</ele>
        <time>2018-06-09T11:46:06Z</time>
      </trkpt>
      <trkpt lat="42.997284" lon="-2.365630">
        <ele>819.608</ele>
        <time>2018-06-09T11:46:08Z</time>
      </trkpt>
      <trkpt lat="42.997341" lon="-2.365587">
        <ele>818.551</ele>
        <time>2018-06-09T11:46:11Z</time>
      </trkpt>
      <trkpt lat="42.997398" lon="-2.365547">
        <ele>816.954</ele>
        <time>2018-06-09T11:46:14Z</time>
      </trkpt>
      <trkpt lat="42.997449" lon="-2.365506">
        <ele>814.385</ele>
        <time>2018-06-09T11:46:17Z</time>
      </trkpt>
      <trkpt lat="42.997494" lon="-2.365443">
        <ele>811.533</ele>
        <time>2018-06-09T11:46:20Z</time>
      </trkpt>
      <trkpt lat="42.997534" lon="-2.365377">
        <ele>809.591</ele>
        <time>2018-06-09T11:46:23Z</time>
      </trkpt>
      <trkpt lat="42.997584" lon="-2.365322">
        <ele>808.115</ele>
        <time>2018-06-09T11:46:26Z</time>
      </trkpt>
      <trkpt lat="42.997624" lon="-2.365266">
        <ele>806.361</ele>
        <time>2018-06-09T11:46:29Z</time>
      </trkpt>
      <trkpt lat="42.997661" lon="-2.365222">
        <ele>803.032</ele>
        <time>2018-06-09T11:46:33Z</time>
      </trkpt>
      <trkpt lat="42.997704" lon="-2.365193">
        <ele>801.044</ele>
        <time>2018-06-09T11:46:36Z</time>
      </trkpt>
      <trkpt lat="42.997757" lon="-2.365168">
        <ele>799.405</ele>
        <time>2018-06-09T11:46:39Z</time>
      </trkpt>
      <trkpt lat="42.997811" lon="-2.365157">
        <ele>798.415</ele>
        <time>2018-06-09T11:46:42Z</time>
      </trkpt>
      <trkpt lat="42.997862" lon="-2.365146">
        <ele>797.508</ele>
        <time>2018-06-09T11:46:45Z</time>
      </trkpt>
      <trkpt lat="42.997919" lon="-2.365109">
        <ele>795.976</ele>
        <time>2018-06-09T11:46:48Z</time>
      </trkpt>
      <trkpt lat="42.997959" lon="-2.365068">
        <ele>795.189</ele>
        <time>2018-06-09T11:46:50Z</time>
      </trkpt>
      <trkpt lat="42.997994" lon="-2.365023">
        <ele>794.320</ele>
        <time>2018-06-09T11:46:52Z</time>
      </trkpt>
      <trkpt lat="42.998034" lon="-2.364965">
        <ele>793.268</ele>
        <time>2018-06-09T11:46:55Z</time>
      </trkpt>
      <trkpt lat="42.998079" lon="-2.364928">
        <ele>792.236</ele>
        <time>2018-06-09T11:46:58Z</time>
      </trkpt>
      <trkpt lat="42.998122" lon="-2.364897">
        <ele>790.810</ele>
        <time>2018-06-09T11:47:01Z</time>
      </trkpt>
      <trkpt lat="42.998168" lon="-2.364867">
        <ele>788.976</ele>
        <time>2018-06-09T11:47:04Z</time>
      </trkpt>
      <trkpt lat="42.998210" lon="-2.364831">
        <ele>786.147</ele>
        <time>2018-06-09T11:47:07Z</time>
      </trkpt>
      <trkpt lat="42.998245" lon="-2.364789">
        <ele>783.449</ele>
        <time>2018-06-09T11:47:10Z</time>
      </trkpt>
      <trkpt lat="42.998287" lon="-2.364737">
        <ele>781.302</ele>
        <time>2018-06-09T11:47:13Z</time>
      </trkpt>
      <trkpt lat="42.998336" lon="-2.364692">
        <ele>779.622</ele>
        <time>2018-06-09T11:47:16Z</time>
      </trkpt>
      <trkpt lat="42.998386" lon="-2.364658">
        <ele>777.508</ele>
        <time>2018-06-09T11:47:19Z</time>
      </trkpt>
      <trkpt lat="42.998427" lon="-2.364619">
        <ele>775.796</ele>
        <time>2018-06-09T11:47:22Z</time>
      </trkpt>
      <trkpt lat="42.998475" lon="-2.364576">
        <ele>773.969</ele>
        <time>2018-06-09T11:47:25Z</time>
      </trkpt>
      <trkpt lat="42.998529" lon="-2.364525">
        <ele>772.580</ele>
        <time>2018-06-09T11:47:28Z</time>
      </trkpt>
      <trkpt lat="42.998579" lon="-2.364468">
        <ele>771.458</ele>
        <time>2018-06-09T11:47:31Z</time>
      </trkpt>
      <trkpt lat="42.998611" lon="-2.364423">
        <ele>769.716</ele>
        <time>2018-06-09T11:47:33Z</time>
      </trkpt>
      <trkpt lat="42.998648" lon="-2.364383">
        <ele>768.140</ele>
        <time>2018-06-09T11:47:35Z</time>
      </trkpt>
      <trkpt lat="42.998704" lon="-2.364331">
        <ele>766.916</ele>
        <time>2018-06-09T11:47:38Z</time>
      </trkpt>
      <trkpt lat="42.998747" lon="-2.364302">
        <ele>765.657</ele>
        <time>2018-06-09T11:47:40Z</time>
      </trkpt>
      <trkpt lat="42.998793" lon="-2.364290">
        <ele>764.649</ele>
        <time>2018-06-09T11:47:42Z</time>
      </trkpt>
      <trkpt lat="42.998840" lon="-2.364287">
        <ele>764.002</ele>
        <time>2018-06-09T11:47:44Z</time>
      </trkpt>
      <trkpt lat="42.998895" lon="-2.364287">
        <ele>763.622</ele>
        <time>2018-06-09T11:47:46Z</time>
      </trkpt>
      <trkpt lat="42.998951" lon="-2.364292">
        <ele>763.008</ele>
        <time>2018-06-09T11:47:48Z</time>
      </trkpt>
      <trkpt lat="42.999005" lon="-2.364300">
        <ele>762.526</ele>
        <time>2018-06-09T11:47:50Z</time>
      </trkpt>
      <trkpt lat="42.999066" lon="-2.364314">
        <ele>761.099</ele>
        <time>2018-06-09T11:47:53Z</time>
      </trkpt>
      <trkpt lat="42.999115" lon="-2.364333">
        <ele>759.960</ele>
        <time>2018-06-09T11:47:55Z</time>
      </trkpt>
      <trkpt lat="42.999172" lon="-2.364341">
        <ele>759.238</ele>
        <time>2018-06-09T11:47:57Z</time>
      </trkpt>
      <trkpt lat="42.999232" lon="-2.364340">
        <ele>758.656</ele>
        <time>2018-06-09T11:47:59Z</time>
      </trkpt>
      <trkpt lat="42.999291" lon="-2.364335">
        <ele>757.610</ele>
        <time>2018-06-09T11:48:01Z</time>
      </trkpt>
      <trkpt lat="42.999347" lon="-2.364337">
        <ele>756.726</ele>
        <time>2018-06-09T11:48:03Z</time>
      </trkpt>
      <trkpt lat="42.999412" lon="-2.364363">
        <ele>756.767</ele>
        <time>2018-06-09T11:48:06Z</time>
      </trkpt>
      <trkpt lat="42.999453" lon="-2.364403">
        <ele>756.748</ele>
        <time>2018-06-09T11:48:08Z</time>
      </trkpt>
      <trkpt lat="42.999493" lon="-2.364448">
        <ele>756.461</ele>
        <time>2018-06-09T11:48:10Z</time>
      </trkpt>
      <trkpt lat="42.999527" lon="-2.364495">
        <ele>756.217</ele>
        <time>2018-06-09T11:48:12Z</time>
      </trkpt>
      <trkpt lat="42.999558" lon="-2.364542">
        <ele>755.408</ele>
        <time>2018-06-09T11:48:14Z</time>
      </trkpt>
      <trkpt lat="42.999591" lon="-2.364590">
        <ele>755.016</ele>
        <time>2018-06-09T11:48:16Z</time>
      </trkpt>
      <trkpt lat="42.999632" lon="-2.364644">
        <ele>754.839</ele>
        <time>2018-06-09T11:48:18Z</time>
      </trkpt>
      <trkpt lat="42.999680" lon="-2.364693">
        <ele>754.670</ele>
        <time>2018-06-09T11:48:20Z</time>
      </trkpt>
      <trkpt lat="42.999723" lon="-2.364724">
        <ele>754.268</ele>
        <time>2018-06-09T11:48:22Z</time>
      </trkpt>
      <trkpt lat="42.999794" lon="-2.364739">
        <ele>753.396</ele>
        <time>2018-06-09T11:48:25Z</time>
      </trkpt>
      <trkpt lat="42.999864" lon="-2.364738">
        <ele>752.620</ele>
        <time>2018-06-09T11:48:27Z</time>
      </trkpt>
      <trkpt lat="42.999927" lon="-2.364738">
        <ele>751.816</ele>
        <time>2018-06-09T11:48:29Z</time>
      </trkpt>
      <trkpt lat="42.999987" lon="-2.364735">
        <ele>749.957</ele>
        <time>2018-06-09T11:48:31Z</time>
      </trkpt>
      <trkpt lat="43.000040" lon="-2.364728">
        <ele>748.662</ele>
        <time>2018-06-09T11:48:33Z</time>
      </trkpt>
      <trkpt lat="43.000091" lon="-2.364717">
        <ele>747.583</ele>
        <time>2018-06-09T11:48:35Z</time>
      </trkpt>
      <trkpt lat="43.000142" lon="-2.364706">
        <ele>746.811</ele>
        <time>2018-06-09T11:48:37Z</time>
      </trkpt>
      <trkpt lat="43.000194" lon="-2.364693">
        <ele>745.808</ele>
        <time>2018-06-09T11:48:39Z</time>
      </trkpt>
      <trkpt lat="43.000248" lon="-2.364685">
        <ele>744.388</ele>
        <time>2018-06-09T11:48:41Z</time>
      </trkpt>
      <trkpt lat="43.000305" lon="-2.364684">
        <ele>743.541</ele>
        <time>2018-06-09T11:48:43Z</time>
      </trkpt>
      <trkpt lat="43.000362" lon="-2.364675">
        <ele>742.332</ele>
        <time>2018-06-09T11:48:45Z</time>
      </trkpt>
      <trkpt lat="43.000420" lon="-2.364668">
        <ele>741.470</ele>
        <time>2018-06-09T11:48:47Z</time>
      </trkpt>
      <trkpt lat="43.000469" lon="-2.364667">
        <ele>740.598</ele>
        <time>2018-06-09T11:48:49Z</time>
      </trkpt>
      <trkpt lat="43.000529" lon="-2.364660">
        <ele>739.322</ele>
        <time>2018-06-09T11:48:52Z</time>
      </trkpt>
      <trkpt lat="43.000572" lon="-2.364637">
        <ele>736.678</ele>
        <time>2018-06-09T11:48:55Z</time>
      </trkpt>
      <trkpt lat="43.000607" lon="-2.364595">
        <ele>734.329</ele>
        <time>2018-06-09T11:48:59Z</time>
      </trkpt>
      <trkpt lat="43.000656" lon="-2.364566">
        <ele>732.156</ele>
        <time>2018-06-09T11:49:03Z</time>
      </trkpt>
      <trkpt lat="43.000696" lon="-2.364528">
        <ele>730.359</ele>
        <time>2018-06-09T11:49:06Z</time>
      </trkpt>
      <trkpt lat="43.000750" lon="-2.364514">
        <ele>728.014</ele>
        <time>2018-06-09T11:49:10Z</time>
      </trkpt>
      <trkpt lat="43.000799" lon="-2.364502">
        <ele>725.908</ele>
        <time>2018-06-09T11:49:16Z</time>
      </trkpt>
      <trkpt lat="43.000846" lon="-2.364481">
        <ele>723.997</ele>
        <time>2018-06-09T11:49:19Z</time>
      </trkpt>
      <trkpt lat="43.000897" lon="-2.364469">
        <ele>722.060</ele>
        <time>2018-06-09T11:49:22Z</time>
      </trkpt>
      <trkpt lat="43.000951" lon="-2.364458">
        <ele>720.741</ele>
        <time>2018-06-09T11:49:25Z</time>
      </trkpt>
      <trkpt lat="43.001009" lon="-2.364452">
        <ele>719.089</ele>
        <time>2018-06-09T11:49:28Z</time>
      </trkpt>
      <trkpt lat="43.001065" lon="-2.364448">
        <ele>716.297</ele>
        <time>2018-06-09T11:49:32Z</time>
      </trkpt>
      <trkpt lat="43.001118" lon="-2.364452">
        <ele>714.141</ele>
        <time>2018-06-09T11:49:35Z</time>
      </trkpt>
      <trkpt lat="43.001177" lon="-2.364473">
        <ele>711.987</ele>
        <time>2018-06-09T11:49:38Z</time>
      </trkpt>
      <trkpt lat="43.001224" lon="-2.364479">
        <ele>709.828</ele>
        <time>2018-06-09T11:49:40Z</time>
      </trkpt>
      <trkpt lat="43.001278" lon="-2.364477">
        <ele>708.365</ele>
        <time>2018-06-09T11:49:42Z</time>
      </trkpt>
      <trkpt lat="43.001333" lon="-2.364480">
        <ele>706.968</ele>
        <time>2018-06-09T11:49:44Z</time>
      </trkpt>
      <trkpt lat="43.001388" lon="-2.364480">
        <ele>706.214</ele>
        <time>2018-06-09T11:49:46Z</time>
      </trkpt>
      <trkpt lat="43.001448" lon="-2.364476">
        <ele>705.808</ele>
        <time>2018-06-09T11:49:48Z</time>
      </trkpt>
      <trkpt lat="43.001508" lon="-2.364469">
        <ele>705.568</ele>
        <time>2018-06-09T11:49:50Z</time>
      </trkpt>
      <trkpt lat="43.001561" lon="-2.364465">
        <ele>705.571</ele>
        <time>2018-06-09T11:49:52Z</time>
      </trkpt>
      <trkpt lat="43.001616" lon="-2.364463">
        <ele>705.242</ele>
        <time>2018-06-09T11:49:55Z</time>
      </trkpt>
      <trkpt lat="43.001661" lon="-2.364463">
        <ele>704.950</ele>
        <time>2018-06-09T11:49:58Z</time>
      </trkpt>
      <trkpt lat="43.001707" lon="-2.364458">
        <ele>704.588</ele>
        <time>2018-06-09T11:50:01Z</time>
      </trkpt>
      <trkpt lat="43.001754" lon="-2.364446">
        <ele>704.472</ele>
        <time>2018-06-09T11:50:04Z</time>
      </trkpt>
      <trkpt lat="43.001804" lon="-2.364436">
        <ele>705.268</ele>
        <time>2018-06-09T11:50:07Z</time>
      </trkpt>
      <trkpt lat="43.001854" lon="-2.364426">
        <ele>705.439</ele>
        <time>2018-06-09T11:50:10Z</time>
      </trkpt>
      <trkpt lat="43.001904" lon="-2.364422">
        <ele>705.269</ele>
        <time>2018-06-09T11:50:13Z</time>
      </trkpt>
      <trkpt lat="43.001951" lon="-2.364409">
        <ele>704.004</ele>
        <time>2018-06-09T11:50:16Z</time>
      </trkpt>
      <trkpt lat="43.001995" lon="-2.364388">
        <ele>703.024</ele>
        <time>2018-06-09T11:50:19Z</time>
      </trkpt>
      <trkpt lat="43.002041" lon="-2.364386">
        <ele>701.808</ele>
        <time>2018-06-09T11:50:22Z</time>
      </trkpt>
      <trkpt lat="43.002090" lon="-2.364349">
        <ele>700.558</ele>
        <time>2018-06-09T11:50:27Z</time>
      </trkpt>
      <trkpt lat="43.002137" lon="-2.364312">
        <ele>699.631</ele>
        <time>2018-06-09T11:50:31Z</time>
      </trkpt>
      <trkpt lat="43.002192" lon="-2.364304">
        <ele>699.732</ele>
        <time>2018-06-09T11:50:34Z</time>
      </trkpt>
      <trkpt lat="43.002238" lon="-2.364299">
        <ele>699.610</ele>
        <time>2018-06-09T11:50:36Z</time>
      </trkpt>
      <trkpt lat="43.002297" lon="-2.364287">
        <ele>700.098</ele>
        <time>2018-06-09T11:50:39Z</time>
      </trkpt>
      <trkpt lat="43.002358" lon="-2.364289">
        <ele>700.152</ele>
        <time>2018-06-09T11:50:42Z</time>
      </trkpt>
      <trkpt lat="43.002424" lon="-2.364294">
        <ele>699.928</ele>
        <time>2018-06-09T11:50:45Z</time>
      </trkpt>
      <trkpt lat="43.002469" lon="-2.364302">
        <ele>699.419</ele>
        <time>2018-06-09T11:50:47Z</time>
      </trkpt>
      <trkpt lat="43.002515" lon="-2.364312">
        <ele>699.019</ele>
        <time>2018-06-09T11:50:49Z</time>
      </trkpt>
      <trkpt lat="43.002562" lon="-2.364320">
        <ele>698.909</ele>
        <time>2018-06-09T11:50:51Z</time>
      </trkpt>
      <trkpt lat="43.002611" lon="-2.364324">
        <ele>698.619</ele>
        <time>2018-06-09T11:50:53Z</time>
      </trkpt>
      <trkpt lat="43.002664" lon="-2.364320">
        <ele>698.008</ele>
        <time>2018-06-09T11:50:55Z</time>
      </trkpt>
      <trkpt lat="43.002715" lon="-2.364298">
        <ele>696.913</ele>
        <time>2018-06-09T11:50:57Z</time>
      </trkpt>
      <trkpt lat="43.002760" lon="-2.364259">
        <ele>695.786</ele>
        <time>2018-06-09T11:50:59Z</time>
      </trkpt>
      <trkpt lat="43.002803" lon="-2.364216">
        <ele>694.967</ele>
        <time>2018-06-09T11:51:01Z</time>
      </trkpt>
      <trkpt lat="43.002842" lon="-2.364164">
        <ele>694.395</ele>
        <time>2018-06-09T11:51:03Z</time>
      </trkpt>
      <trkpt lat="43.002877" lon="-2.364107">
        <ele>693.663</ele>
        <time>2018-06-09T11:51:05Z</time>
      </trkpt>
      <trkpt lat="43.002911" lon="-2.364050">
        <ele>693.187</ele>
        <time>2018-06-09T11:51:07Z</time>
      </trkpt>
      <trkpt lat="43.002949" lon="-2.364005">
        <ele>692.783</ele>
        <time>2018-06-09T11:51:09Z</time>
      </trkpt>
      <trkpt lat="43.002992" lon="-2.363952">
        <ele>692.264</ele>
        <time>2018-06-09T11:51:12Z</time>
      </trkpt>
      <trkpt lat="43.003017" lon="-2.363897">
        <ele>692.417</ele>
        <time>2018-06-09T11:51:15Z</time>
      </trkpt>
      <trkpt lat="43.003032" lon="-2.363819">
        <ele>691.787</ele>
        <time>2018-06-09T11:51:19Z</time>
      </trkpt>
      <trkpt lat="43.003052" lon="-2.363763">
        <ele>690.315</ele>
        <time>2018-06-09T11:51:22Z</time>
      </trkpt>
      <trkpt lat="43.003080" lon="-2.363704">
        <ele>689.308</ele>
        <time>2018-06-09T11:51:25Z</time>
      </trkpt>
      <trkpt lat="43.003115" lon="-2.363649">
        <ele>687.443</ele>
        <time>2018-06-09T11:51:28Z</time>
      </trkpt>
      <trkpt lat="43.003167" lon="-2.363618">
        <ele>685.676</ele>
        <time>2018-06-09T11:51:32Z</time>
      </trkpt>
      <trkpt lat="43.003210" lon="-2.363559">
        <ele>684.577</ele>
        <time>2018-06-09T11:51:36Z</time>
      </trkpt>
      <trkpt lat="43.003254" lon="-2.363524">
        <ele>683.525</ele>
        <time>2018-06-09T11:51:39Z</time>
      </trkpt>
      <trkpt lat="43.003304" lon="-2.363500">
        <ele>682.533</ele>
        <time>2018-06-09T11:51:42Z</time>
      </trkpt>
      <trkpt lat="43.003357" lon="-2.363501">
        <ele>681.437</ele>
        <time>2018-06-09T11:51:44Z</time>
      </trkpt>
      <trkpt lat="43.003402" lon="-2.363513">
        <ele>681.283</ele>
        <time>2018-06-09T11:51:46Z</time>
      </trkpt>
      <trkpt lat="43.003461" lon="-2.363551">
        <ele>680.554</ele>
        <time>2018-06-09T11:51:49Z</time>
      </trkpt>
      <trkpt lat="43.003521" lon="-2.363585">
        <ele>679.431</ele>
        <time>2018-06-09T11:51:52Z</time>
      </trkpt>
      <trkpt lat="43.003564" lon="-2.363610">
        <ele>678.861</ele>
        <time>2018-06-09T11:51:55Z</time>
      </trkpt>
      <trkpt lat="43.003610" lon="-2.363641">
        <ele>678.207</ele>
        <time>2018-06-09T11:51:59Z</time>
      </trkpt>
      <trkpt lat="43.003649" lon="-2.363684">
        <ele>679.008</ele>
        <time>2018-06-09T11:52:03Z</time>
      </trkpt>
      <trkpt lat="43.003697" lon="-2.363722">
        <ele>679.715</ele>
        <time>2018-06-09T11:52:06Z</time>
      </trkpt>
      <trkpt lat="43.003754" lon="-2.363764">
        <ele>680.348</ele>
        <time>2018-06-09T11:52:09Z</time>
      </trkpt>
      <trkpt lat="43.003812" lon="-2.363797">
        <ele>680.749</ele>
        <time>2018-06-09T11:52:12Z</time>
      </trkpt>
      <trkpt lat="43.003864" lon="-2.363833">
        <ele>681.157</ele>
        <time>2018-06-09T11:52:15Z</time>
      </trkpt>
      <trkpt lat="43.003913" lon="-2.363865">
        <ele>681.185</ele>
        <time>2018-06-09T11:52:18Z</time>
      </trkpt>
      <trkpt lat="43.003961" lon="-2.363889">
        <ele>679.819</ele>
        <time>2018-06-09T11:52:21Z</time>
      </trkpt>
      <trkpt lat="43.004008" lon="-2.363882">
        <ele>677.855</ele>
        <time>2018-06-09T11:52:25Z</time>
      </trkpt>
      <trkpt lat="43.004055" lon="-2.363856">
        <ele>676.116</ele>
        <time>2018-06-09T11:52:28Z</time>
      </trkpt>
      <trkpt lat="43.004107" lon="-2.363829">
        <ele>673.835</ele>
        <time>2018-06-09T11:52:31Z</time>
      </trkpt>
      <trkpt lat="43.004166" lon="-2.363797">
        <ele>672.086</ele>
        <time>2018-06-09T11:52:34Z</time>
      </trkpt>
      <trkpt lat="43.004210" lon="-2.363774">
        <ele>670.214</ele>
        <time>2018-06-09T11:52:36Z</time>
      </trkpt>
      <trkpt lat="43.004273" lon="-2.363744">
        <ele>668.608</ele>
        <time>2018-06-09T11:52:39Z</time>
      </trkpt>
      <trkpt lat="43.004328" lon="-2.363715">
        <ele>667.465</ele>
        <time>2018-06-09T11:52:41Z</time>
      </trkpt>
      <trkpt lat="43.004380" lon="-2.363670">
        <ele>666.188</ele>
        <time>2018-06-09T11:52:43Z</time>
      </trkpt>
      <trkpt lat="43.004419" lon="-2.363624">
        <ele>665.239</ele>
        <time>2018-06-09T11:52:45Z</time>
      </trkpt>
      <trkpt lat="43.004463" lon="-2.363571">
        <ele>664.247</ele>
        <time>2018-06-09T11:52:47Z</time>
      </trkpt>
      <trkpt lat="43.004509" lon="-2.363530">
        <ele>662.485</ele>
        <time>2018-06-09T11:52:49Z</time>
      </trkpt>
      <trkpt lat="43.004562" lon="-2.363499">
        <ele>661.169</ele>
        <time>2018-06-09T11:52:51Z</time>
      </trkpt>
      <trkpt lat="43.004618" lon="-2.363471">
        <ele>660.395</ele>
        <time>2018-06-09T11:52:53Z</time>
      </trkpt>
      <trkpt lat="43.004673" lon="-2.363448">
        <ele>659.476</ele>
        <time>2018-06-09T11:52:55Z</time>
      </trkpt>
      <trkpt lat="43.004729" lon="-2.363435">
        <ele>659.556</ele>
        <time>2018-06-09T11:52:57Z</time>
      </trkpt>
      <trkpt lat="43.004789" lon="-2.363435">
        <ele>659.059</ele>
        <time>2018-06-09T11:52:59Z</time>
      </trkpt>
      <trkpt lat="43.004842" lon="-2.363446">
        <ele>658.814</ele>
        <time>2018-06-09T11:53:01Z</time>
      </trkpt>
      <trkpt lat="43.004887" lon="-2.363465">
        <ele>658.308</ele>
        <time>2018-06-09T11:53:03Z</time>
      </trkpt>
      <trkpt lat="43.004947" lon="-2.363478">
        <ele>658.347</ele>
        <time>2018-06-09T11:53:06Z</time>
      </trkpt>
      <trkpt lat="43.005001" lon="-2.363467">
        <ele>657.840</ele>
        <time>2018-06-09T11:53:08Z</time>
      </trkpt>
      <trkpt lat="43.005059" lon="-2.363447">
        <ele>657.581</ele>
        <time>2018-06-09T11:53:10Z</time>
      </trkpt>
      <trkpt lat="43.005116" lon="-2.363426">
        <ele>657.339</ele>
        <time>2018-06-09T11:53:12Z</time>
      </trkpt>
      <trkpt lat="43.005177" lon="-2.363405">
        <ele>657.827</ele>
        <time>2018-06-09T11:53:14Z</time>
      </trkpt>
      <trkpt lat="43.005246" lon="-2.363380">
        <ele>657.411</ele>
        <time>2018-06-09T11:53:16Z</time>
      </trkpt>
      <trkpt lat="43.005317" lon="-2.363350">
        <ele>657.527</ele>
        <time>2018-06-09T11:53:18Z</time>
      </trkpt>
      <trkpt lat="43.005386" lon="-2.363323">
        <ele>658.298</ele>
        <time>2018-06-09T11:53:20Z</time>
      </trkpt>
      <trkpt lat="43.005451" lon="-2.363301">
        <ele>658.572</ele>
        <time>2018-06-09T11:53:22Z</time>
      </trkpt>
      <trkpt lat="43.005507" lon="-2.363278">
        <ele>658.913</ele>
        <time>2018-06-09T11:53:24Z</time>
      </trkpt>
      <trkpt lat="43.005556" lon="-2.363257">
        <ele>658.014</ele>
        <time>2018-06-09T11:53:26Z</time>
      </trkpt>
      <trkpt lat="43.005618" lon="-2.363245">
        <ele>656.608</ele>
        <time>2018-06-09T11:53:29Z</time>
      </trkpt>
      <trkpt lat="43.005673" lon="-2.363238">
        <ele>655.529</ele>
        <time>2018-06-09T11:53:33Z</time>
      </trkpt>
      <trkpt lat="43.005728" lon="-2.363240">
        <ele>654.842</ele>
        <time>2018-06-09T11:53:37Z</time>
      </trkpt>
      <trkpt lat="43.005779" lon="-2.363234">
        <ele>654.623</ele>
        <time>2018-06-09T11:53:40Z</time>
      </trkpt>
      <trkpt lat="43.005825" lon="-2.363221">
        <ele>654.551</ele>
        <time>2018-06-09T11:53:43Z</time>
      </trkpt>
      <trkpt lat="43.005879" lon="-2.363198">
        <ele>654.219</ele>
        <time>2018-06-09T11:53:46Z</time>
      </trkpt>
      <trkpt lat="43.005938" lon="-2.363177">
        <ele>653.653</ele>
        <time>2018-06-09T11:53:49Z</time>
      </trkpt>
      <trkpt lat="43.005998" lon="-2.363169">
        <ele>653.529</ele>
        <time>2018-06-09T11:53:52Z</time>
      </trkpt>
      <trkpt lat="43.006050" lon="-2.363172">
        <ele>653.440</ele>
        <time>2018-06-09T11:53:55Z</time>
      </trkpt>
      <trkpt lat="43.006097" lon="-2.363176">
        <ele>653.949</ele>
        <time>2018-06-09T11:53:57Z</time>
      </trkpt>
      <trkpt lat="43.006149" lon="-2.363183">
        <ele>654.402</ele>
        <time>2018-06-09T11:53:59Z</time>
      </trkpt>
      <trkpt lat="43.006212" lon="-2.363187">
        <ele>653.122</ele>
        <time>2018-06-09T11:54:02Z</time>
      </trkpt>
      <trkpt lat="43.006257" lon="-2.363187">
        <ele>651.608</ele>
        <time>2018-06-09T11:54:05Z</time>
      </trkpt>
      <trkpt lat="43.006310" lon="-2.363208">
        <ele>651.516</ele>
        <time>2018-06-09T11:54:10Z</time>
      </trkpt>
      <trkpt lat="43.006360" lon="-2.363235">
        <ele>651.569</ele>
        <time>2018-06-09T11:54:13Z</time>
      </trkpt>
      <trkpt lat="43.006413" lon="-2.363255">
        <ele>651.360</ele>
        <time>2018-06-09T11:54:16Z</time>
      </trkpt>
      <trkpt lat="43.006464" lon="-2.363280">
        <ele>651.488</ele>
        <time>2018-06-09T11:54:19Z</time>
      </trkpt>
      <trkpt lat="43.006518" lon="-2.363307">
        <ele>651.616</ele>
        <time>2018-06-09T11:54:22Z</time>
      </trkpt>
      <trkpt lat="43.006568" lon="-2.363331">
        <ele>651.910</ele>
        <time>2018-06-09T11:54:25Z</time>
      </trkpt>
      <trkpt lat="43.006619" lon="-2.363362">
        <ele>651.576</ele>
        <time>2018-06-09T11:54:28Z</time>
      </trkpt>
      <trkpt lat="43.006675" lon="-2.363377">
        <ele>650.387</ele>
        <time>2018-06-09T11:54:31Z</time>
      </trkpt>
      <trkpt lat="43.006723" lon="-2.363407">
        <ele>649.522</ele>
        <time>2018-06-09T11:54:34Z</time>
      </trkpt>
      <trkpt lat="43.006767" lon="-2.363446">
        <ele>649.162</ele>
        <time>2018-06-09T11:54:38Z</time>
      </trkpt>
      <trkpt lat="43.006813" lon="-2.363464">
        <ele>648.508</ele>
        <time>2018-06-09T11:54:41Z</time>
      </trkpt>
      <trkpt lat="43.006853" lon="-2.363492">
        <ele>647.908</ele>
        <time>2018-06-09T11:54:44Z</time>
      </trkpt>
      <trkpt lat="43.006907" lon="-2.363526">
        <ele>647.524</ele>
        <time>2018-06-09T11:54:47Z</time>
      </trkpt>
      <trkpt lat="43.006950" lon="-2.363551">
        <ele>647.157</ele>
        <time>2018-06-09T11:54:49Z</time>
      </trkpt>
      <trkpt lat="43.007009" lon="-2.363591">
        <ele>646.218</ele>
        <time>2018-06-09T11:54:52Z</time>
      </trkpt>
      <trkpt lat="43.007062" lon="-2.363622">
        <ele>645.926</ele>
        <time>2018-06-09T11:54:55Z</time>
      </trkpt>
      <trkpt lat="43.007118" lon="-2.363629">
        <ele>645.914</ele>
        <time>2018-06-09T11:54:58Z</time>
      </trkpt>
      <trkpt lat="43.007174" lon="-2.363632">
        <ele>645.018</ele>
        <time>2018-06-09T11:55:01Z</time>
      </trkpt>
      <trkpt lat="43.007229" lon="-2.363622">
        <ele>643.924</ele>
        <time>2018-06-09T11:55:04Z</time>
      </trkpt>
      <trkpt lat="43.007281" lon="-2.363600">
        <ele>644.195</ele>
        <time>2018-06-09T11:55:07Z</time>
      </trkpt>
      <trkpt lat="43.007336" lon="-2.363570">
        <ele>643.697</ele>
        <time>2018-06-09T11:55:10Z</time>
      </trkpt>
      <trkpt lat="43.007391" lon="-2.363534">
        <ele>642.823</ele>
        <time>2018-06-09T11:55:13Z</time>
      </trkpt>
      <trkpt lat="43.007446" lon="-2.363496">
        <ele>641.825</ele>
        <time>2018-06-09T11:55:16Z</time>
      </trkpt>
      <trkpt lat="43.007490" lon="-2.363457">
        <ele>641.008</ele>
        <time>2018-06-09T11:55:18Z</time>
      </trkpt>
      <trkpt lat="43.007543" lon="-2.363415">
        <ele>640.231</ele>
        <time>2018-06-09T11:55:20Z</time>
      </trkpt>
      <trkpt lat="43.007596" lon="-2.363386">
        <ele>639.574</ele>
        <time>2018-06-09T11:55:22Z</time>
      </trkpt>
      <trkpt lat="43.007658" lon="-2.363364">
        <ele>639.595</ele>
        <time>2018-06-09T11:55:25Z</time>
      </trkpt>
      <trkpt lat="43.007711" lon="-2.363358">
        <ele>639.393</ele>
        <time>2018-06-09T11:55:27Z</time>
      </trkpt>
      <trkpt lat="43.007762" lon="-2.363354">
        <ele>639.071</ele>
        <time>2018-06-09T11:55:29Z</time>
      </trkpt>
      <trkpt lat="43.007810" lon="-2.363345">
        <ele>638.635</ele>
        <time>2018-06-09T11:55:31Z</time>
      </trkpt>
      <trkpt lat="43.007862" lon="-2.363330">
        <ele>638.641</ele>
        <time>2018-06-09T11:55:33Z</time>
      </trkpt>
      <trkpt lat="43.007919" lon="-2.363319">
        <ele>638.322</ele>
        <time>2018-06-09T11:55:35Z</time>
      </trkpt>
      <trkpt lat="43.007978" lon="-2.363313">
        <ele>636.882</ele>
        <time>2018-06-09T11:55:37Z</time>
      </trkpt>
      <trkpt lat="43.008036" lon="-2.363312">
        <ele>635.943</ele>
        <time>2018-06-09T11:55:39Z</time>
      </trkpt>
      <trkpt lat="43.008094" lon="-2.363314">
        <ele>634.817</ele>
        <time>2018-06-09T11:55:41Z</time>
      </trkpt>
      <trkpt lat="43.008148" lon="-2.363296">
        <ele>633.908</ele>
        <time>2018-06-09T11:55:43Z</time>
      </trkpt>
      <trkpt lat="43.008199" lon="-2.363268">
        <ele>632.910</ele>
        <time>2018-06-09T11:55:45Z</time>
      </trkpt>
      <trkpt lat="43.008250" lon="-2.363251">
        <ele>632.233</ele>
        <time>2018-06-09T11:55:47Z</time>
      </trkpt>
      <trkpt lat="43.008310" lon="-2.363239">
        <ele>632.154</ele>
        <time>2018-06-09T11:55:49Z</time>
      </trkpt>
      <trkpt lat="43.008384" lon="-2.363221">
        <ele>630.292</ele>
        <time>2018-06-09T11:55:51Z</time>
      </trkpt>
      <trkpt lat="43.008459" lon="-2.363210">
        <ele>626.930</ele>
        <time>2018-06-09T11:55:53Z</time>
      </trkpt>
      <trkpt lat="43.008511" lon="-2.363209">
        <ele>624.674</ele>
        <time>2018-06-09T11:55:55Z</time>
      </trkpt>
      <trkpt lat="43.008569" lon="-2.363217">
        <ele>622.990</ele>
        <time>2018-06-09T11:55:57Z</time>
      </trkpt>
      <trkpt lat="43.008636" lon="-2.363231">
        <ele>621.531</ele>
        <time>2018-06-09T11:55:59Z</time>
      </trkpt>
      <trkpt lat="43.008704" lon="-2.363240">
        <ele>619.621</ele>
        <time>2018-06-09T11:56:01Z</time>
      </trkpt>
      <trkpt lat="43.008776" lon="-2.363225">
        <ele>617.641</ele>
        <time>2018-06-09T11:56:03Z</time>
      </trkpt>
      <trkpt lat="43.008843" lon="-2.363179">
        <ele>616.205</ele>
        <time>2018-06-09T11:56:05Z</time>
      </trkpt>
      <trkpt lat="43.008903" lon="-2.363117">
        <ele>615.008</ele>
        <time>2018-06-09T11:56:07Z</time>
      </trkpt>
      <trkpt lat="43.008960" lon="-2.363057">
        <ele>614.374</ele>
        <time>2018-06-09T11:56:09Z</time>
      </trkpt>
      <trkpt lat="43.009028" lon="-2.362988">
        <ele>613.417</ele>
        <time>2018-06-09T11:56:11Z</time>
      </trkpt>
      <trkpt lat="43.009099" lon="-2.362921">
        <ele>612.768</ele>
        <time>2018-06-09T11:56:13Z</time>
      </trkpt>
      <trkpt lat="43.009168" lon="-2.362873">
        <ele>612.396</ele>
        <time>2018-06-09T11:56:15Z</time>
      </trkpt>
      <trkpt lat="43.009224" lon="-2.362831">
        <ele>611.464</ele>
        <time>2018-06-09T11:56:17Z</time>
      </trkpt>
      <trkpt lat="43.009273" lon="-2.362782">
        <ele>610.978</ele>
        <time>2018-06-09T11:56:19Z</time>
      </trkpt>
      <trkpt lat="43.009326" lon="-2.362726">
        <ele>610.784</ele>
        <time>2018-06-09T11:56:21Z</time>
      </trkpt>
      <trkpt lat="43.009370" lon="-2.362666">
        <ele>610.355</ele>
        <time>2018-06-09T11:56:23Z</time>
      </trkpt>
      <trkpt lat="43.009397" lon="-2.362604">
        <ele>609.423</ele>
        <time>2018-06-09T11:56:26Z</time>
      </trkpt>
      <trkpt lat="43.009417" lon="-2.362547">
        <ele>608.683</ele>
        <time>2018-06-09T11:56:29Z</time>
      </trkpt>
      <trkpt lat="43.009457" lon="-2.362505">
        <ele>607.611</ele>
        <time>2018-06-09T11:56:31Z</time>
      </trkpt>
      <trkpt lat="43.009510" lon="-2.362469">
        <ele>606.808</ele>
        <time>2018-06-09T11:56:33Z</time>
      </trkpt>
      <trkpt lat="43.009566" lon="-2.362448">
        <ele>606.174</ele>
        <time>2018-06-09T11:56:35Z</time>
      </trkpt>
      <trkpt lat="43.009627" lon="-2.362435">
        <ele>604.437</ele>
        <time>2018-06-09T11:56:37Z</time>
      </trkpt>
      <trkpt lat="43.009695" lon="-2.362425">
        <ele>602.918</ele>
        <time>2018-06-09T11:56:39Z</time>
      </trkpt>
      <trkpt lat="43.009764" lon="-2.362417">
        <ele>600.816</ele>
        <time>2018-06-09T11:56:41Z</time>
      </trkpt>
      <trkpt lat="43.009816" lon="-2.362409">
        <ele>598.154</ele>
        <time>2018-06-09T11:56:43Z</time>
      </trkpt>
      <trkpt lat="43.009870" lon="-2.362396">
        <ele>596.618</ele>
        <time>2018-06-09T11:56:45Z</time>
      </trkpt>
      <trkpt lat="43.009932" lon="-2.362377">
        <ele>595.574</ele>
        <time>2018-06-09T11:56:47Z</time>
      </trkpt>
      <trkpt lat="43.009998" lon="-2.362356">
        <ele>594.535</ele>
        <time>2018-06-09T11:56:49Z</time>
      </trkpt>
      <trkpt lat="43.010059" lon="-2.362327">
        <ele>593.557</ele>
        <time>2018-06-09T11:56:51Z</time>
      </trkpt>
      <trkpt lat="43.010112" lon="-2.362288">
        <ele>592.400</ele>
        <time>2018-06-09T11:56:53Z</time>
      </trkpt>
      <trkpt lat="43.010161" lon="-2.362243">
        <ele>591.420</ele>
        <time>2018-06-09T11:56:55Z</time>
      </trkpt>
      <trkpt lat="43.010208" lon="-2.362198">
        <ele>590.608</ele>
        <time>2018-06-09T11:56:57Z</time>
      </trkpt>
      <trkpt lat="43.010254" lon="-2.362161">
        <ele>589.687</ele>
        <time>2018-06-09T11:56:59Z</time>
      </trkpt>
      <trkpt lat="43.010300" lon="-2.362132">
        <ele>588.470</ele>
        <time>2018-06-09T11:57:01Z</time>
      </trkpt>
      <trkpt lat="43.010349" lon="-2.362105">
        <ele>587.161</ele>
        <time>2018-06-09T11:57:03Z</time>
      </trkpt>
      <trkpt lat="43.010400" lon="-2.362079">
        <ele>585.689</ele>
        <time>2018-06-09T11:57:05Z</time>
      </trkpt>
      <trkpt lat="43.010453" lon="-2.362051">
        <ele>584.177</ele>
        <time>2018-06-09T11:57:07Z</time>
      </trkpt>
      <trkpt lat="43.010506" lon="-2.362016">
        <ele>582.841</ele>
        <time>2018-06-09T11:57:09Z</time>
      </trkpt>
      <trkpt lat="43.010564" lon="-2.361977">
        <ele>581.777</ele>
        <time>2018-06-09T11:57:11Z</time>
      </trkpt>
      <trkpt lat="43.010621" lon="-2.361940">
        <ele>580.498</ele>
        <time>2018-06-09T11:57:13Z</time>
      </trkpt>
      <trkpt lat="43.010663" lon="-2.361896">
        <ele>578.595</ele>
        <time>2018-06-09T11:57:15Z</time>
      </trkpt>
      <trkpt lat="43.010693" lon="-2.361843">
        <ele>576.449</ele>
        <time>2018-06-09T11:57:17Z</time>
      </trkpt>
      <trkpt lat="43.010712" lon="-2.361765">
        <ele>574.223</ele>
        <time>2018-06-09T11:57:20Z</time>
      </trkpt>
      <trkpt lat="43.010709" lon="-2.361663">
        <ele>572.308</ele>
        <time>2018-06-09T11:57:23Z</time>
      </trkpt>
      <trkpt lat="43.010700" lon="-2.361566">
        <ele>571.111</ele>
        <time>2018-06-09T11:57:25Z</time>
      </trkpt>
      <trkpt lat="43.010699" lon="-2.361464">
        <ele>570.414</ele>
        <time>2018-06-09T11:57:27Z</time>
      </trkpt>
      <trkpt lat="43.010722" lon="-2.361375">
        <ele>569.535</ele>
        <time>2018-06-09T11:57:29Z</time>
      </trkpt>
      <trkpt lat="43.010767" lon="-2.361317">
        <ele>569.263</ele>
        <time>2018-06-09T11:57:31Z</time>
      </trkpt>
      <trkpt lat="43.010822" lon="-2.361280">
        <ele>569.161</ele>
        <time>2018-06-09T11:57:33Z</time>
      </trkpt>
      <trkpt lat="43.010880" lon="-2.361254">
        <ele>569.295</ele>
        <time>2018-06-09T11:57:35Z</time>
      </trkpt>
      <trkpt lat="43.010933" lon="-2.361230">
        <ele>569.571</ele>
        <time>2018-06-09T11:57:37Z</time>
      </trkpt>
      <trkpt lat="43.010981" lon="-2.361208">
        <ele>569.972</ele>
        <time>2018-06-09T11:57:39Z</time>
      </trkpt>
      <trkpt lat="43.011028" lon="-2.361186">
        <ele>570.229</ele>
        <time>2018-06-09T11:57:41Z</time>
      </trkpt>
      <trkpt lat="43.011075" lon="-2.361166">
        <ele>570.600</ele>
        <time>2018-06-09T11:57:43Z</time>
      </trkpt>
      <trkpt lat="43.011121" lon="-2.361143">
        <ele>571.120</ele>
        <time>2018-06-09T11:57:45Z</time>
      </trkpt>
      <trkpt lat="43.011166" lon="-2.361116">
        <ele>571.408</ele>
        <time>2018-06-09T11:57:47Z</time>
      </trkpt>
      <trkpt lat="43.011218" lon="-2.361084">
        <ele>571.774</ele>
        <time>2018-06-09T11:57:49Z</time>
      </trkpt>
      <trkpt lat="43.011272" lon="-2.361051">
        <ele>572.037</ele>
        <time>2018-06-09T11:57:51Z</time>
      </trkpt>
      <trkpt lat="43.011326" lon="-2.361022">
        <ele>572.218</ele>
        <time>2018-06-09T11:57:53Z</time>
      </trkpt>
      <trkpt lat="43.011379" lon="-2.360992">
        <ele>572.476</ele>
        <time>2018-06-09T11:57:55Z</time>
      </trkpt>
      <trkpt lat="43.011431" lon="-2.360961">
        <ele>572.914</ele>
        <time>2018-06-09T11:57:57Z</time>
      </trkpt>
      <trkpt lat="43.011480" lon="-2.360930">
        <ele>573.418</ele>
        <time>2018-06-09T11:57:59Z</time>
      </trkpt>
      <trkpt lat="43.011525" lon="-2.360904">
        <ele>573.814</ele>
        <time>2018-06-09T11:58:01Z</time>
      </trkpt>
      <trkpt lat="43.011573" lon="-2.360886">
        <ele>573.955</ele>
        <time>2018-06-09T11:58:04Z</time>
      </trkpt>
      <trkpt lat="43.011625" lon="-2.360881">
        <ele>574.124</ele>
        <time>2018-06-09T11:58:08Z</time>
      </trkpt>
      <trkpt lat="43.011677" lon="-2.360892">
        <ele>574.404</ele>
        <time>2018-06-09T11:58:12Z</time>
      </trkpt>
      <trkpt lat="43.011733" lon="-2.360895">
        <ele>574.514</ele>
        <time>2018-06-09T11:58:16Z</time>
      </trkpt>
      <trkpt lat="43.011788" lon="-2.360899">
        <ele>574.708</ele>
        <time>2018-06-09T11:58:20Z</time>
      </trkpt>
      <trkpt lat="43.011844" lon="-2.360887">
        <ele>576.554</ele>
        <time>2018-06-09T11:58:24Z</time>
      </trkpt>
      <trkpt lat="43.011903" lon="-2.360888">
        <ele>577.997</ele>
        <time>2018-06-09T11:58:28Z</time>
      </trkpt>
      <trkpt lat="43.011959" lon="-2.360873">
        <ele>578.638</ele>
        <time>2018-06-09T11:58:32Z</time>
      </trkpt>
      <trkpt lat="43.012016" lon="-2.360848">
        <ele>578.936</ele>
        <time>2018-06-09T11:58:36Z</time>
      </trkpt>
      <trkpt lat="43.012060" lon="-2.360822">
        <ele>579.264</ele>
        <time>2018-06-09T11:58:39Z</time>
      </trkpt>
      <trkpt lat="43.012105" lon="-2.360809">
        <ele>579.518</ele>
        <time>2018-06-09T11:58:42Z</time>
      </trkpt>
      <trkpt lat="43.012162" lon="-2.360803">
        <ele>578.884</ele>
        <time>2018-06-09T11:58:46Z</time>
      </trkpt>
      <trkpt lat="43.012218" lon="-2.360791">
        <ele>577.615</ele>
        <time>2018-06-09T11:58:50Z</time>
      </trkpt>
      <trkpt lat="43.012277" lon="-2.360775">
        <ele>576.924</ele>
        <time>2018-06-09T11:58:54Z</time>
      </trkpt>
      <trkpt lat="43.012334" lon="-2.360757">
        <ele>576.804</ele>
        <time>2018-06-09T11:58:58Z</time>
      </trkpt>
      <trkpt lat="43.012390" lon="-2.360738">
        <ele>577.314</ele>
        <time>2018-06-09T11:59:02Z</time>
      </trkpt>
      <trkpt lat="43.012434" lon="-2.360722">
        <ele>577.708</ele>
        <time>2018-06-09T11:59:05Z</time>
      </trkpt>
      <trkpt lat="43.012480" lon="-2.360707">
        <ele>578.294</ele>
        <time>2018-06-09T11:59:08Z</time>
      </trkpt>
      <trkpt lat="43.012527" lon="-2.360696">
        <ele>578.417</ele>
        <time>2018-06-09T11:59:11Z</time>
      </trkpt>
      <trkpt lat="43.012574" lon="-2.360687">
        <ele>578.328</ele>
        <time>2018-06-09T11:59:14Z</time>
      </trkpt>
      <trkpt lat="43.012621" lon="-2.360679">
        <ele>578.566</ele>
        <time>2018-06-09T11:59:17Z</time>
      </trkpt>
      <trkpt lat="43.012673" lon="-2.360671">
        <ele>578.024</ele>
        <time>2018-06-09T11:59:20Z</time>
      </trkpt>
      <trkpt lat="43.012723" lon="-2.360658">
        <ele>577.178</ele>
        <time>2018-06-09T11:59:23Z</time>
      </trkpt>
      <trkpt lat="43.012773" lon="-2.360643">
        <ele>576.974</ele>
        <time>2018-06-09T11:59:26Z</time>
      </trkpt>
      <trkpt lat="43.012818" lon="-2.360621">
        <ele>576.815</ele>
        <time>2018-06-09T11:59:29Z</time>
      </trkpt>
      <trkpt lat="43.012864" lon="-2.360595">
        <ele>577.474</ele>
        <time>2018-06-09T11:59:32Z</time>
      </trkpt>
      <trkpt lat="43.012914" lon="-2.360563">
        <ele>578.156</ele>
        <time>2018-06-09T11:59:35Z</time>
      </trkpt>
      <trkpt lat="43.012965" lon="-2.360532">
        <ele>577.821</ele>
        <time>2018-06-09T11:59:38Z</time>
      </trkpt>
      <trkpt lat="43.013015" lon="-2.360501">
        <ele>578.108</ele>
        <time>2018-06-09T11:59:41Z</time>
      </trkpt>
      <trkpt lat="43.013064" lon="-2.360467">
        <ele>578.719</ele>
        <time>2018-06-09T11:59:44Z</time>
      </trkpt>
      <trkpt lat="43.013113" lon="-2.360434">
        <ele>579.292</ele>
        <time>2018-06-09T11:59:47Z</time>
      </trkpt>
      <trkpt lat="43.013160" lon="-2.360396">
        <ele>579.223</ele>
        <time>2018-06-09T11:59:50Z</time>
      </trkpt>
      <trkpt lat="43.013196" lon="-2.360348">
        <ele>579.131</ele>
        <time>2018-06-09T11:59:53Z</time>
      </trkpt>
      <trkpt lat="43.013224" lon="-2.360294">
        <ele>579.139</ele>
        <time>2018-06-09T11:59:56Z</time>
      </trkpt>
      <trkpt lat="43.013244" lon="-2.360233">
        <ele>578.953</ele>
        <time>2018-06-09T11:59:59Z</time>
      </trkpt>
      <trkpt lat="43.013261" lon="-2.360166">
        <ele>579.449</ele>
        <time>2018-06-09T12:00:02Z</time>
      </trkpt>
      <trkpt lat="43.013278" lon="-2.360094">
        <ele>579.960</ele>
        <time>2018-06-09T12:00:05Z</time>
      </trkpt>
      <trkpt lat="43.013297" lon="-2.360022">
        <ele>580.358</ele>
        <time>2018-06-09T12:00:08Z</time>
      </trkpt>
      <trkpt lat="43.013320" lon="-2.359959">
        <ele>580.152</ele>
        <time>2018-06-09T12:00:11Z</time>
      </trkpt>
      <trkpt lat="43.013348" lon="-2.359904">
        <ele>580.017</ele>
        <time>2018-06-09T12:00:14Z</time>
      </trkpt>
      <trkpt lat="43.013390" lon="-2.359855">
        <ele>579.808</ele>
        <time>2018-06-09T12:00:17Z</time>
      </trkpt>
      <trkpt lat="43.013427" lon="-2.359813">
        <ele>579.747</ele>
        <time>2018-06-09T12:00:19Z</time>
      </trkpt>
      <trkpt lat="43.013464" lon="-2.359764">
        <ele>579.570</ele>
        <time>2018-06-09T12:00:21Z</time>
      </trkpt>
      <trkpt lat="43.013498" lon="-2.359706">
        <ele>579.171</ele>
        <time>2018-06-09T12:00:23Z</time>
      </trkpt>
      <trkpt lat="43.013526" lon="-2.359642">
        <ele>578.199</ele>
        <time>2018-06-09T12:00:25Z</time>
      </trkpt>
      <trkpt lat="43.013557" lon="-2.359578">
        <ele>576.787</ele>
        <time>2018-06-09T12:00:27Z</time>
      </trkpt>
      <trkpt lat="43.013599" lon="-2.359523">
        <ele>575.761</ele>
        <time>2018-06-09T12:00:29Z</time>
      </trkpt>
      <trkpt lat="43.013649" lon="-2.359483">
        <ele>574.867</ele>
        <time>2018-06-09T12:00:31Z</time>
      </trkpt>
      <trkpt lat="43.013708" lon="-2.359460">
        <ele>574.248</ele>
        <time>2018-06-09T12:00:33Z</time>
      </trkpt>
      <trkpt lat="43.013773" lon="-2.359450">
        <ele>573.455</ele>
        <time>2018-06-09T12:00:35Z</time>
      </trkpt>
      <trkpt lat="43.013843" lon="-2.359438">
        <ele>572.907</ele>
        <time>2018-06-09T12:00:37Z</time>
      </trkpt>
      <trkpt lat="43.013914" lon="-2.359419">
        <ele>572.817</ele>
        <time>2018-06-09T12:00:39Z</time>
      </trkpt>
      <trkpt lat="43.013983" lon="-2.359405">
        <ele>572.808</ele>
        <time>2018-06-09T12:00:41Z</time>
      </trkpt>
      <trkpt lat="43.014053" lon="-2.359394">
        <ele>572.267</ele>
        <time>2018-06-09T12:00:43Z</time>
      </trkpt>
      <trkpt lat="43.014121" lon="-2.359374">
        <ele>571.860</ele>
        <time>2018-06-09T12:00:45Z</time>
      </trkpt>
      <trkpt lat="43.014189" lon="-2.359350">
        <ele>571.871</ele>
        <time>2018-06-09T12:00:47Z</time>
      </trkpt>
      <trkpt lat="43.014263" lon="-2.359317">
        <ele>570.849</ele>
        <time>2018-06-09T12:00:49Z</time>
      </trkpt>
      <trkpt lat="43.014333" lon="-2.359283">
        <ele>569.967</ele>
        <time>2018-06-09T12:00:51Z</time>
      </trkpt>
      <trkpt lat="43.014391" lon="-2.359250">
        <ele>569.221</ele>
        <time>2018-06-09T12:00:53Z</time>
      </trkpt>
      <trkpt lat="43.014445" lon="-2.359198">
        <ele>568.887</ele>
        <time>2018-06-09T12:00:55Z</time>
      </trkpt>
      <trkpt lat="43.014502" lon="-2.359135">
        <ele>567.398</ele>
        <time>2018-06-09T12:00:57Z</time>
      </trkpt>
      <trkpt lat="43.014555" lon="-2.359071">
        <ele>566.179</ele>
        <time>2018-06-09T12:00:59Z</time>
      </trkpt>
      <trkpt lat="43.014605" lon="-2.359006">
        <ele>564.905</ele>
        <time>2018-06-09T12:01:01Z</time>
      </trkpt>
      <trkpt lat="43.014661" lon="-2.358953">
        <ele>565.325</ele>
        <time>2018-06-09T12:01:03Z</time>
      </trkpt>
      <trkpt lat="43.014717" lon="-2.358924">
        <ele>565.708</ele>
        <time>2018-06-09T12:01:05Z</time>
      </trkpt>
      <trkpt lat="43.014761" lon="-2.358895">
        <ele>565.359</ele>
        <time>2018-06-09T12:01:08Z</time>
      </trkpt>
      <trkpt lat="43.014806" lon="-2.358873">
        <ele>565.112</ele>
        <time>2018-06-09T12:01:11Z</time>
      </trkpt>
      <trkpt lat="43.014870" lon="-2.358864">
        <ele>565.313</ele>
        <time>2018-06-09T12:01:14Z</time>
      </trkpt>
      <trkpt lat="43.014929" lon="-2.358884">
        <ele>565.161</ele>
        <time>2018-06-09T12:01:17Z</time>
      </trkpt>
      <trkpt lat="43.014764" lon="-2.358778">
        <ele>503.5</ele>
        <time>2018-06-09T05:33:56.000Z</time>
      </trkpt>
      <trkpt lat="43.014675" lon="-2.358736">
        <ele>503.5</ele>
        <time>2018-06-09T05:34:02.000Z</time>
      </trkpt>
      <trkpt lat="43.014676" lon="-2.358834">
        <ele>505.723332212494</ele>
        <time>2018-06-09T05:34:14.000Z</time>
      </trkpt>
      <trkpt lat="43.014666" lon="-2.358857">
        <ele>506.162490528119</ele>
        <time>2018-06-09T05:34:16.000Z</time>
      </trkpt>
      <trkpt lat="43.014666" lon="-2.358889">
        <ele>506.399993896484</ele>
        <time>2018-06-09T05:34:19.000Z</time>
      </trkpt>
      <trkpt lat="43.014659" lon="-2.358912">
        <ele>506.512414322846</ele>
        <time>2018-06-09T05:34:22.000Z</time>
      </trkpt>
      <trkpt lat="43.014651" lon="-2.358942">
        <ele>506.700012207031</ele>
        <time>2018-06-09T05:34:25.000Z</time>
      </trkpt>
      <trkpt lat="43.014631" lon="-2.358967">
        <ele>507.100006103516</ele>
        <time>2018-06-09T05:34:27.000Z</time>
      </trkpt>
      <trkpt lat="43.014615" lon="-2.358988">
        <ele>506.892892893792</ele>
        <time>2018-06-09T05:34:30.000Z</time>
      </trkpt>
      <trkpt lat="43.014607" lon="-2.359011">
        <ele>506.903168693421</ele>
        <time>2018-06-09T05:34:32.000Z</time>
      </trkpt>
      <trkpt lat="43.014591" lon="-2.359031">
        <ele>507.250745071068</ele>
        <time>2018-06-09T05:34:35.000Z</time>
      </trkpt>
      <trkpt lat="43.014575" lon="-2.359043">
        <ele>508.249006528073</ele>
        <time>2018-06-09T05:34:37.000Z</time>
      </trkpt>
      <trkpt lat="43.014547" lon="-2.359053">
        <ele>508.299987792969</ele>
        <time>2018-06-09T05:34:38.000Z</time>
      </trkpt>
      <trkpt lat="43.01453" lon="-2.359065">
        <ele>508.299987792969</ele>
        <time>2018-06-09T05:34:39.000Z</time>
      </trkpt>
      <trkpt lat="43.014512" lon="-2.359078">
        <ele>508.251596401247</ele>
        <time>2018-06-09T05:34:40.000Z</time>
      </trkpt>
      <trkpt lat="43.014488" lon="-2.359093">
        <ele>508.127133130223</ele>
        <time>2018-06-09T05:34:42.000Z</time>
      </trkpt>
      <trkpt lat="43.01446" lon="-2.35911">
        <ele>507.985459458969</ele>
        <time>2018-06-09T05:34:44.000Z</time>
      </trkpt>
      <trkpt lat="43.014433" lon="-2.359118">
        <ele>508.100006103516</ele>
        <time>2018-06-09T05:34:46.000Z</time>
      </trkpt>
      <trkpt lat="43.014413" lon="-2.359121">
        <ele>508.136207992969</ele>
        <time>2018-06-09T05:34:48.000Z</time>
      </trkpt>
      <trkpt lat="43.014392" lon="-2.359128">
        <ele>508.371864256774</ele>
        <time>2018-06-09T05:34:52.000Z</time>
      </trkpt>
      <trkpt lat="43.014373" lon="-2.359123">
        <ele>508.899993896484</ele>
        <time>2018-06-09T05:34:54.000Z</time>
      </trkpt>
      <trkpt lat="43.014351" lon="-2.359128">
        <ele>508.899993896484</ele>
        <time>2018-06-09T05:34:56.000Z</time>
      </trkpt>
      <trkpt lat="43.014337" lon="-2.359154">
        <ele>509.137056634952</ele>
        <time>2018-06-09T05:34:58.000Z</time>
      </trkpt>
      <trkpt lat="43.014315" lon="-2.359182">
        <ele>509.200012207031</ele>
        <time>2018-06-09T05:35:00.000Z</time>
      </trkpt>
      <trkpt lat="43.014293" lon="-2.359185">
        <ele>509.200012207031</ele>
        <time>2018-06-09T05:35:02.000Z</time>
      </trkpt>
      <trkpt lat="43.014273" lon="-2.359184">
        <ele>509.200012207031</ele>
        <time>2018-06-09T05:35:04.000Z</time>
      </trkpt>
      <trkpt lat="43.01425" lon="-2.359199">
        <ele>509.275130324337</ele>
        <time>2018-06-09T05:35:06.000Z</time>
      </trkpt>
      <trkpt lat="43.014224" lon="-2.359224">
        <ele>509.574605513281</ele>
        <time>2018-06-09T05:35:08.000Z</time>
      </trkpt>
      <trkpt lat="43.014208" lon="-2.359253">
        <ele>509.625831133246</ele>
        <time>2018-06-09T05:35:10.000Z</time>
      </trkpt>
      <trkpt lat="43.014193" lon="-2.35927">
        <ele>509.200012207031</ele>
        <time>2018-06-09T05:35:13.000Z</time>
      </trkpt>
      <trkpt lat="43.01417" lon="-2.359278">
        <ele>509.200012207031</ele>
        <time>2018-06-09T05:35:15.000Z</time>
      </trkpt>
      <trkpt lat="43.014153" lon="-2.359288">
        <ele>509.237715957618</ele>
        <time>2018-06-09T05:35:16.000Z</time>
      </trkpt>
      <trkpt lat="43.014131" lon="-2.359296">
        <ele>509.375489934024</ele>
        <time>2018-06-09T05:35:17.000Z</time>
      </trkpt>
      <trkpt lat="43.014113" lon="-2.35931">
        <ele>509.5</ele>
        <time>2018-06-09T05:35:18.000Z</time>
      </trkpt>
      <trkpt lat="43.014093" lon="-2.359316">
        <ele>509.537627007407</ele>
        <time>2018-06-09T05:35:19.000Z</time>
      </trkpt>
      <trkpt lat="43.014074" lon="-2.359326">
        <ele>509.637358902092</ele>
        <time>2018-06-09T05:35:20.000Z</time>
      </trkpt>
      <trkpt lat="43.014042" lon="-2.359342">
        <ele>510</ele>
        <time>2018-06-09T05:35:22.000Z</time>
      </trkpt>
      <trkpt lat="43.014014" lon="-2.359353">
        <ele>510</ele>
        <time>2018-06-09T05:35:24.000Z</time>
      </trkpt>
      <trkpt lat="43.013995" lon="-2.359362">
        <ele>510.100006103516</ele>
        <time>2018-06-09T05:35:27.000Z</time>
      </trkpt>
      <trkpt lat="43.013901" lon="-2.359356">
        <ele>510.513814491479</ele>
        <time>2018-06-09T05:35:37.000Z</time>
      </trkpt>
      <trkpt lat="43.01381" lon="-2.359363">
        <ele>512.011032756641</ele>
        <time>2018-06-09T05:35:47.000Z</time>
      </trkpt>
      <trkpt lat="43.013712" lon="-2.359393">
        <ele>514.237165391417</ele>
        <time>2018-06-09T05:35:56.000Z</time>
      </trkpt>
      <trkpt lat="43.013618" lon="-2.359448">
        <ele>515.541658577971</ele>
        <time>2018-06-09T05:36:02.000Z</time>
      </trkpt>
      <trkpt lat="43.01355" lon="-2.359534">
        <ele>517.042813260156</ele>
        <time>2018-06-09T05:36:07.000Z</time>
      </trkpt>
      <trkpt lat="43.013453" lon="-2.359611">
        <ele>518.509440372411</ele>
        <time>2018-06-09T05:36:12.000Z</time>
      </trkpt>
      <trkpt lat="43.013399" lon="-2.359705">
        <ele>520.618469755462</ele>
        <time>2018-06-09T05:36:16.000Z</time>
      </trkpt>
      <trkpt lat="43.013368" lon="-2.359785">
        <ele>521.400024414063</ele>
        <time>2018-06-09T05:36:20.000Z</time>
      </trkpt>
      <trkpt lat="43.013342" lon="-2.359809">
        <ele>521.864905564063</ele>
        <time>2018-06-09T05:36:22.000Z</time>
      </trkpt>
      <trkpt lat="43.013327" lon="-2.359836">
        <ele>522.636252180667</ele>
        <time>2018-06-09T05:36:24.000Z</time>
      </trkpt>
      <trkpt lat="43.013319" lon="-2.359862">
        <ele>523.009600701742</ele>
        <time>2018-06-09T05:36:26.000Z</time>
      </trkpt>
      <trkpt lat="43.013311" lon="-2.359893">
        <ele>523.299987792969</ele>
        <time>2018-06-09T05:36:28.000Z</time>
      </trkpt>
      <trkpt lat="43.013295" lon="-2.359934">
        <ele>523.299987792969</ele>
        <time>2018-06-09T05:36:30.000Z</time>
      </trkpt>
      <trkpt lat="43.013281" lon="-2.359972">
        <ele>523.299987792969</ele>
        <time>2018-06-09T05:36:32.000Z</time>
      </trkpt>
      <trkpt lat="43.013267" lon="-2.359999">
        <ele>523.200012207031</ele>
        <time>2018-06-09T05:36:34.000Z</time>
      </trkpt>
      <trkpt lat="43.013263" lon="-2.360027">
        <ele>523.200012207031</ele>
        <time>2018-06-09T05:36:35.000Z</time>
      </trkpt>
      <trkpt lat="43.01326" lon="-2.360061">
        <ele>523.200012207031</ele>
        <time>2018-06-09T05:36:36.000Z</time>
      </trkpt>
      <trkpt lat="43.013246" lon="-2.36012">
        <ele>523.615799458594</ele>
        <time>2018-06-09T05:36:39.000Z</time>
      </trkpt>
      <trkpt lat="43.013233" lon="-2.360167">
        <ele>524.412891221914</ele>
        <time>2018-06-09T05:36:41.000Z</time>
      </trkpt>
      <trkpt lat="43.013229" lon="-2.360191">
        <ele>524.488792559821</ele>
        <time>2018-06-09T05:36:43.000Z</time>
      </trkpt>
      <trkpt lat="43.013227" lon="-2.360223">
        <ele>523.927873272491</ele>
        <time>2018-06-09T05:36:45.000Z</time>
      </trkpt>
      <trkpt lat="43.013209" lon="-2.360249">
        <ele>523.200012207031</ele>
        <time>2018-06-09T05:36:47.000Z</time>
      </trkpt>
      <trkpt lat="43.013183" lon="-2.360267">
        <ele>523.076004331449</ele>
        <time>2018-06-09T05:36:49.000Z</time>
      </trkpt>
      <trkpt lat="43.013154" lon="-2.360288">
        <ele>523.200012207031</ele>
        <time>2018-06-09T05:36:51.000Z</time>
      </trkpt>
      <trkpt lat="43.013134" lon="-2.360308">
        <ele>523.237652338963</ele>
        <time>2018-06-09T05:36:52.000Z</time>
      </trkpt>
      <trkpt lat="43.013121" lon="-2.360328">
        <ele>523.299987792969</ele>
        <time>2018-06-09T05:36:53.000Z</time>
      </trkpt>
      <trkpt lat="43.013104" lon="-2.360344">
        <ele>523.299987792969</ele>
        <time>2018-06-09T05:36:54.000Z</time>
      </trkpt>
      <trkpt lat="43.013082" lon="-2.360364">
        <ele>523.299987792969</ele>
        <time>2018-06-09T05:36:56.000Z</time>
      </trkpt>
      <trkpt lat="43.013054" lon="-2.360377">
        <ele>523.152926614527</ele>
        <time>2018-06-09T05:36:58.000Z</time>
      </trkpt>
      <trkpt lat="43.013023" lon="-2.360392">
        <ele>522.900024414063</ele>
        <time>2018-06-09T05:37:00.000Z</time>
      </trkpt>
      <trkpt lat="43.013009" lon="-2.360402">
        <ele>523.229982983427</ele>
        <time>2018-06-09T05:37:01.000Z</time>
      </trkpt>
      <trkpt lat="43.012985" lon="-2.360417">
        <ele>524.099975585938</ele>
        <time>2018-06-09T05:37:03.000Z</time>
      </trkpt>
      <trkpt lat="43.012959" lon="-2.36044">
        <ele>524.036938533352</ele>
        <time>2018-06-09T05:37:05.000Z</time>
      </trkpt>
      <trkpt lat="43.012938" lon="-2.360465">
        <ele>524.137200665226</ele>
        <time>2018-06-09T05:37:07.000Z</time>
      </trkpt>
      <trkpt lat="43.01292" lon="-2.360474">
        <ele>524.237289233594</ele>
        <time>2018-06-09T05:37:09.000Z</time>
      </trkpt>
      <trkpt lat="43.012892" lon="-2.360496">
        <ele>524.475255464576</ele>
        <time>2018-06-09T05:37:11.000Z</time>
      </trkpt>
      <trkpt lat="43.01287" lon="-2.360523">
        <ele>524.599975585938</ele>
        <time>2018-06-09T05:37:13.000Z</time>
      </trkpt>
      <trkpt lat="43.012842" lon="-2.360536">
        <ele>524.700012207031</ele>
        <time>2018-06-09T05:37:15.000Z</time>
      </trkpt>
      <trkpt lat="43.012807" lon="-2.360549">
        <ele>524.700012207031</ele>
        <time>2018-06-09T05:37:17.000Z</time>
      </trkpt>
      <trkpt lat="43.012773" lon="-2.360566">
        <ele>524.700012207031</ele>
        <time>2018-06-09T05:37:19.000Z</time>
      </trkpt>
      <trkpt lat="43.012757" lon="-2.360582">
        <ele>524.622762694795</ele>
        <time>2018-06-09T05:37:20.000Z</time>
      </trkpt>
      <trkpt lat="43.012729" lon="-2.360606">
        <ele>524.099975585938</ele>
        <time>2018-06-09T05:37:22.000Z</time>
      </trkpt>
      <trkpt lat="43.01271" lon="-2.360614">
        <ele>524.178180678906</ele>
        <time>2018-06-09T05:37:23.000Z</time>
      </trkpt>
      <trkpt lat="43.012691" lon="-2.36062">
        <ele>524.2217827</ele>
        <time>2018-06-09T05:37:24.000Z</time>
      </trkpt>
      <trkpt lat="43.012667" lon="-2.360635">
        <ele>524</ele>
        <time>2018-06-09T05:37:26.000Z</time>
      </trkpt>
      <trkpt lat="43.012638" lon="-2.360656">
        <ele>524.177580035524</ele>
        <time>2018-06-09T05:37:28.000Z</time>
      </trkpt>
      <trkpt lat="43.012612" lon="-2.360674">
        <ele>524.538567452113</ele>
        <time>2018-06-09T05:37:30.000Z</time>
      </trkpt>
      <trkpt lat="43.01259" lon="-2.360683">
        <ele>524.777494321007</ele>
        <time>2018-06-09T05:37:32.000Z</time>
      </trkpt>
      <trkpt lat="43.012564" lon="-2.360694">
        <ele>525.255918691086</ele>
        <time>2018-06-09T05:37:34.000Z</time>
      </trkpt>
      <trkpt lat="43.012543" lon="-2.360703">
        <ele>525.657123314146</ele>
        <time>2018-06-09T05:37:36.000Z</time>
      </trkpt>
      <trkpt lat="43.012531" lon="-2.360721">
        <ele>526.118677079675</ele>
        <time>2018-06-09T05:37:38.000Z</time>
      </trkpt>
      <trkpt lat="43.012512" lon="-2.360726">
        <ele>526.5</ele>
        <time>2018-06-09T05:37:48.000Z</time>
      </trkpt>
      <trkpt lat="43.012486" lon="-2.360721">
        <ele>526.5</ele>
        <time>2018-06-09T05:37:50.000Z</time>
      </trkpt>
      <trkpt lat="43.012462" lon="-2.360732">
        <ele>526</ele>
        <time>2018-06-09T05:37:52.000Z</time>
      </trkpt>
      <trkpt lat="43.012432" lon="-2.360742">
        <ele>525.626082142245</ele>
        <time>2018-06-09T05:37:54.000Z</time>
      </trkpt>
      <trkpt lat="43.012403" lon="-2.360751">
        <ele>525.400024414063</ele>
        <time>2018-06-09T05:37:56.000Z</time>
      </trkpt>
      <trkpt lat="43.01237" lon="-2.360753">
        <ele>525.400024414063</ele>
        <time>2018-06-09T05:37:58.000Z</time>
      </trkpt>
      <trkpt lat="43.012345" lon="-2.360758">
        <ele>525.16281280176</ele>
        <time>2018-06-09T05:38:00.000Z</time>
      </trkpt>
      <trkpt lat="43.012314" lon="-2.360763">
        <ele>524.962421917934</ele>
        <time>2018-06-09T05:38:02.000Z</time>
      </trkpt>
      <trkpt lat="43.012283" lon="-2.360764">
        <ele>524.700012207031</ele>
        <time>2018-06-09T05:38:04.000Z</time>
      </trkpt>
      <trkpt lat="43.012247" lon="-2.360761">
        <ele>524.629927094815</ele>
        <time>2018-06-09T05:38:06.000Z</time>
      </trkpt>
      <trkpt lat="43.012228" lon="-2.360757">
        <ele>524.464531264196</ele>
        <time>2018-06-09T05:38:07.000Z</time>
      </trkpt>
      <trkpt lat="43.01221" lon="-2.360751">
        <ele>524.400024414063</ele>
        <time>2018-06-09T05:38:08.000Z</time>
      </trkpt>
      <trkpt lat="43.01219" lon="-2.360746">
        <ele>524.254817471875</ele>
        <time>2018-06-09T05:38:09.000Z</time>
      </trkpt>
      <trkpt lat="43.012162" lon="-2.360751">
        <ele>523.900024414063</ele>
        <time>2018-06-09T05:38:11.000Z</time>
      </trkpt>
      <trkpt lat="43.012142" lon="-2.360754">
        <ele>523.86342091738</ele>
        <time>2018-06-09T05:38:12.000Z</time>
      </trkpt>
      <trkpt lat="43.012118" lon="-2.360758">
        <ele>523.836473805103</ele>
        <time>2018-06-09T05:38:13.000Z</time>
      </trkpt>
      <trkpt lat="43.012085" lon="-2.360759">
        <ele>523.763313144373</ele>
        <time>2018-06-09T05:38:15.000Z</time>
      </trkpt>
      <trkpt lat="43.012052" lon="-2.360768">
        <ele>523.799987792969</ele>
        <time>2018-06-09T05:38:17.000Z</time>
      </trkpt>
      <trkpt lat="43.012026" lon="-2.360778">
        <ele>523.5</ele>
        <time>2018-06-09T05:38:19.000Z</time>
      </trkpt>
      <trkpt lat="43.011994" lon="-2.36078">
        <ele>523.5</ele>
        <time>2018-06-09T05:38:21.000Z</time>
      </trkpt>
      <trkpt lat="43.011962" lon="-2.360781">
        <ele>523.162872579545</ele>
        <time>2018-06-09T05:38:23.000Z</time>
      </trkpt>
      <trkpt lat="43.011928" lon="-2.36079">
        <ele>522.662749812725</ele>
        <time>2018-06-09T05:38:25.000Z</time>
      </trkpt>
      <trkpt lat="43.011895" lon="-2.360791">
        <ele>522.487180175781</ele>
        <time>2018-06-09T05:38:27.000Z</time>
      </trkpt>
      <trkpt lat="43.011866" lon="-2.360793">
        <ele>522.224858212498</ele>
        <time>2018-06-09T05:38:29.000Z</time>
      </trkpt>
      <trkpt lat="43.011842" lon="-2.360799">
        <ele>522.175180175781</ele>
        <time>2018-06-09T05:38:31.000Z</time>
      </trkpt>
      <trkpt lat="43.011818" lon="-2.360804">
        <ele>521.887691476639</ele>
        <time>2018-06-09T05:38:33.000Z</time>
      </trkpt>
      <trkpt lat="43.011788" lon="-2.360824">
        <ele>521.5</ele>
        <time>2018-06-09T05:38:35.000Z</time>
      </trkpt>
      <trkpt lat="43.011764" lon="-2.360805">
        <ele>521.400024414063</ele>
        <time>2018-06-09T05:38:37.000Z</time>
      </trkpt>
      <trkpt lat="43.011741" lon="-2.360799">
        <ele>521.22438381875</ele>
        <time>2018-06-09T05:38:39.000Z</time>
      </trkpt>
      <trkpt lat="43.011715" lon="-2.360797">
        <ele>520.711777795757</ele>
        <time>2018-06-09T05:38:41.000Z</time>
      </trkpt>
      <trkpt lat="43.011683" lon="-2.360797">
        <ele>520.024394682813</ele>
        <time>2018-06-09T05:38:43.000Z</time>
      </trkpt>
      <trkpt lat="43.011648" lon="-2.360797">
        <ele>519.449889048267</ele>
        <time>2018-06-09T05:38:45.000Z</time>
      </trkpt>
      <trkpt lat="43.011629" lon="-2.3608">
        <ele>519.125207001562</ele>
        <time>2018-06-09T05:38:46.000Z</time>
      </trkpt>
      <trkpt lat="43.011609" lon="-2.3608">
        <ele>519.074580866223</ele>
        <time>2018-06-09T05:38:47.000Z</time>
      </trkpt>
      <trkpt lat="43.011589" lon="-2.360807">
        <ele>519.162861534021</ele>
        <time>2018-06-09T05:38:48.000Z</time>
      </trkpt>
      <trkpt lat="43.011569" lon="-2.360815">
        <ele>519.062746858964</ele>
        <time>2018-06-09T05:38:49.000Z</time>
      </trkpt>
      <trkpt lat="43.011549" lon="-2.360827">
        <ele>519</ele>
        <time>2018-06-09T05:38:50.000Z</time>
      </trkpt>
      <trkpt lat="43.011517" lon="-2.360841">
        <ele>518.613299002881</ele>
        <time>2018-06-09T05:38:52.000Z</time>
      </trkpt>
      <trkpt lat="43.011499" lon="-2.360852">
        <ele>518.225032917605</ele>
        <time>2018-06-09T05:38:53.000Z</time>
      </trkpt>
      <trkpt lat="43.011482" lon="-2.360867">
        <ele>517.950038447187</ele>
        <time>2018-06-09T05:38:54.000Z</time>
      </trkpt>
      <trkpt lat="43.011465" lon="-2.360878">
        <ele>517.700012207031</ele>
        <time>2018-06-09T05:38:55.000Z</time>
      </trkpt>
      <trkpt lat="43.011447" lon="-2.360885">
        <ele>517.624732457886</ele>
        <time>2018-06-09T05:38:56.000Z</time>
      </trkpt>
      <trkpt lat="43.011426" lon="-2.360894">
        <ele>517.5</ele>
        <time>2018-06-09T05:38:57.000Z</time>
      </trkpt>
      <trkpt lat="43.011407" lon="-2.360908">
        <ele>517.347684017947</ele>
        <time>2018-06-09T05:38:58.000Z</time>
      </trkpt>
      <trkpt lat="43.01139" lon="-2.36092">
        <ele>517.099975585938</ele>
        <time>2018-06-09T05:38:59.000Z</time>
      </trkpt>
      <trkpt lat="43.011369" lon="-2.360934">
        <ele>517.099975585938</ele>
        <time>2018-06-09T05:39:00.000Z</time>
      </trkpt>
      <trkpt lat="43.011349" lon="-2.360946">
        <ele>517.022979805125</ele>
        <time>2018-06-09T05:39:01.000Z</time>
      </trkpt>
      <trkpt lat="43.01133" lon="-2.360965">
        <ele>516.823542751646</ele>
        <time>2018-06-09T05:39:02.000Z</time>
      </trkpt>
      <trkpt lat="43.011314" lon="-2.360979">
        <ele>516.508320021553</ele>
        <time>2018-06-09T05:39:03.000Z</time>
      </trkpt>
      <trkpt lat="43.011297" lon="-2.36099">
        <ele>516.161482741075</ele>
        <time>2018-06-09T05:39:04.000Z</time>
      </trkpt>
      <trkpt lat="43.011279" lon="-2.361005">
        <ele>516.099975585938</ele>
        <time>2018-06-09T05:39:05.000Z</time>
      </trkpt>
      <trkpt lat="43.011265" lon="-2.361014">
        <ele>515.635600242187</ele>
        <time>2018-06-09T05:39:06.000Z</time>
      </trkpt>
      <trkpt lat="43.011238" lon="-2.36103">
        <ele>514.861571960633</ele>
        <time>2018-06-09T05:39:08.000Z</time>
      </trkpt>
      <trkpt lat="43.01121" lon="-2.36105">
        <ele>514.722428165078</ele>
        <time>2018-06-09T05:39:10.000Z</time>
      </trkpt>
      <trkpt lat="43.011182" lon="-2.361074">
        <ele>514.56078515625</ele>
        <time>2018-06-09T05:39:12.000Z</time>
      </trkpt>
      <trkpt lat="43.011148" lon="-2.361091">
        <ele>514.421352873052</ele>
        <time>2018-06-09T05:39:14.000Z</time>
      </trkpt>
      <trkpt lat="43.011129" lon="-2.361097">
        <ele>514.26091439592</ele>
        <time>2018-06-09T05:39:15.000Z</time>
      </trkpt>
      <trkpt lat="43.01111" lon="-2.361104">
        <ele>514.200012207031</ele>
        <time>2018-06-09T05:39:16.000Z</time>
      </trkpt>
      <trkpt lat="43.01108" lon="-2.361119">
        <ele>514.099975585938</ele>
        <time>2018-06-09T05:39:18.000Z</time>
      </trkpt>
      <trkpt lat="43.011063" lon="-2.361125">
        <ele>513.981537086836</ele>
        <time>2018-06-09T05:39:19.000Z</time>
      </trkpt>
      <trkpt lat="43.011033" lon="-2.361132">
        <ele>513.5</ele>
        <time>2018-06-09T05:39:21.000Z</time>
      </trkpt>
      <trkpt lat="43.010998" lon="-2.361148">
        <ele>513.400024414063</ele>
        <time>2018-06-09T05:39:23.000Z</time>
      </trkpt>
      <trkpt lat="43.01098" lon="-2.361153">
        <ele>513.165174661163</ele>
        <time>2018-06-09T05:39:24.000Z</time>
      </trkpt>
      <trkpt lat="43.010951" lon="-2.361166">
        <ele>512.721852378147</ele>
        <time>2018-06-09T05:39:26.000Z</time>
      </trkpt>
      <trkpt lat="43.010927" lon="-2.361181">
        <ele>511.983764237084</ele>
        <time>2018-06-09T05:39:28.000Z</time>
      </trkpt>
      <trkpt lat="43.010906" lon="-2.361192">
        <ele>511.761180990231</ele>
        <time>2018-06-09T05:39:30.000Z</time>
      </trkpt>
      <trkpt lat="43.010889" lon="-2.361198">
        <ele>511.600006103516</ele>
        <time>2018-06-09T05:39:32.000Z</time>
      </trkpt>
      <trkpt lat="43.010863" lon="-2.361209">
        <ele>511.399993896484</ele>
        <time>2018-06-09T05:39:34.000Z</time>
      </trkpt>
      <trkpt lat="43.010844" lon="-2.361233">
        <ele>511.299987792969</ele>
        <time>2018-06-09T05:39:36.000Z</time>
      </trkpt>
      <trkpt lat="43.01082" lon="-2.361257">
        <ele>510.821399005078</ele>
        <time>2018-06-09T05:39:38.000Z</time>
      </trkpt>
      <trkpt lat="43.010786" lon="-2.361276">
        <ele>510.020759551137</ele>
        <time>2018-06-09T05:39:40.000Z</time>
      </trkpt>
      <trkpt lat="43.01073" lon="-2.361374">
        <ele>509.442494623264</ele>
        <time>2018-06-09T05:39:45.000Z</time>
      </trkpt>
      <trkpt lat="43.010675" lon="-2.361499">
        <ele>508.979938991026</ele>
        <time>2018-06-09T05:39:50.000Z</time>
      </trkpt>
      <trkpt lat="43.010668" lon="-2.361632">
        <ele>508.799987792969</ele>
        <time>2018-06-09T05:39:55.000Z</time>
      </trkpt>
      <trkpt lat="43.010639" lon="-2.361707">
        <ele>510.218857346335</ele>
        <time>2018-06-09T05:40:03.000Z</time>
      </trkpt>
      <trkpt lat="43.010644" lon="-2.361708">
        <ele>512.197602227871</ele>
        <time>2018-06-09T05:40:09.000Z</time>
      </trkpt>
      <trkpt lat="43.010656" lon="-2.361735">
        <ele>512.799987792969</ele>
        <time>2018-06-09T05:40:25.000Z</time>
      </trkpt>
      <trkpt lat="43.010645" lon="-2.361756">
        <ele>512.464100895314</ele>
        <time>2018-06-09T05:40:27.000Z</time>
      </trkpt>
      <trkpt lat="43.010632" lon="-2.361782">
        <ele>512.363775286214</ele>
        <time>2018-06-09T05:40:29.000Z</time>
      </trkpt>
      <trkpt lat="43.010617" lon="-2.361807">
        <ele>512.299987792969</ele>
        <time>2018-06-09T05:40:31.000Z</time>
      </trkpt>
      <trkpt lat="43.010605" lon="-2.361828">
        <ele>512.299987792969</ele>
        <time>2018-06-09T05:40:33.000Z</time>
      </trkpt>
      <trkpt lat="43.01059" lon="-2.361854">
        <ele>512.773490367627</ele>
        <time>2018-06-09T05:40:35.000Z</time>
      </trkpt>
      <trkpt lat="43.010569" lon="-2.361855">
        <ele>513.558807989512</ele>
        <time>2018-06-09T05:40:39.000Z</time>
      </trkpt>
      <trkpt lat="43.010547" lon="-2.36186">
        <ele>514.757347556387</ele>
        <time>2018-06-09T05:40:41.000Z</time>
      </trkpt>
      <trkpt lat="43.010524" lon="-2.361864">
        <ele>515.336764551615</ele>
        <time>2018-06-09T05:40:43.000Z</time>
      </trkpt>
      <trkpt lat="43.010501" lon="-2.361873">
        <ele>516.172925349063</ele>
        <time>2018-06-09T05:40:45.000Z</time>
      </trkpt>
      <trkpt lat="43.01048" lon="-2.361884">
        <ele>517.210345383216</ele>
        <time>2018-06-09T05:40:47.000Z</time>
      </trkpt>
      <trkpt lat="43.010447" lon="-2.361894">
        <ele>517.573478160596</ele>
        <time>2018-06-09T05:40:49.000Z</time>
      </trkpt>
      <trkpt lat="43.010426" lon="-2.361902">
        <ele>518.022065513282</ele>
        <time>2018-06-09T05:40:51.000Z</time>
      </trkpt>
      <trkpt lat="43.010408" lon="-2.36191">
        <ele>518.748681562969</ele>
        <time>2018-06-09T05:40:53.000Z</time>
      </trkpt>
      <trkpt lat="43.010392" lon="-2.361942">
        <ele>519.337739129997</ele>
        <time>2018-06-09T05:40:56.000Z</time>
      </trkpt>
      <trkpt lat="43.010378" lon="-2.36195">
        <ele>519.939503964109</ele>
        <time>2018-06-09T05:40:58.000Z</time>
      </trkpt>
      <trkpt lat="43.010354" lon="-2.361965">
        <ele>521.299987792969</ele>
        <time>2018-06-09T05:41:00.000Z</time>
      </trkpt>
      <trkpt lat="43.010325" lon="-2.361987">
        <ele>521.474806792187</ele>
        <time>2018-06-09T05:41:02.000Z</time>
      </trkpt>
      <trkpt lat="43.010308" lon="-2.362007">
        <ele>521.799987792969</ele>
        <time>2018-06-09T05:41:04.000Z</time>
      </trkpt>
      <trkpt lat="43.010291" lon="-2.362016">
        <ele>523.013084713421</ele>
        <time>2018-06-09T05:41:06.000Z</time>
      </trkpt>
      <trkpt lat="43.010262" lon="-2.362041">
        <ele>523.727989801082</ele>
        <time>2018-06-09T05:41:09.000Z</time>
      </trkpt>
      <trkpt lat="43.010236" lon="-2.36206">
        <ele>524.664076458066</ele>
        <time>2018-06-09T05:41:11.000Z</time>
      </trkpt>
      <trkpt lat="43.010219" lon="-2.362078">
        <ele>525.200012207031</ele>
        <time>2018-06-09T05:41:13.000Z</time>
      </trkpt>
      <trkpt lat="43.01019" lon="-2.362092">
        <ele>525.637126258948</ele>
        <time>2018-06-09T05:41:16.000Z</time>
      </trkpt>
      <trkpt lat="43.010175" lon="-2.3621">
        <ele>526.073510208651</ele>
        <time>2018-06-09T05:41:17.000Z</time>
      </trkpt>
      <trkpt lat="43.010152" lon="-2.362115">
        <ele>527.060917839179</ele>
        <time>2018-06-09T05:41:19.000Z</time>
      </trkpt>
      <trkpt lat="43.010136" lon="-2.362125">
        <ele>527.5</ele>
        <time>2018-06-09T05:41:20.000Z</time>
      </trkpt>
      <trkpt lat="43.010106" lon="-2.362146">
        <ele>527.599975585938</ele>
        <time>2018-06-09T05:41:22.000Z</time>
      </trkpt>
      <trkpt lat="43.010087" lon="-2.36216">
        <ele>527.599975585938</ele>
        <time>2018-06-09T05:41:23.000Z</time>
      </trkpt>
      <trkpt lat="43.010067" lon="-2.362176">
        <ele>527.629576422119</ele>
        <time>2018-06-09T05:41:24.000Z</time>
      </trkpt>
      <trkpt lat="43.010051" lon="-2.362187">
        <ele>527.867741276875</ele>
        <time>2018-06-09T05:41:25.000Z</time>
      </trkpt>
      <trkpt lat="43.010023" lon="-2.362205">
        <ele>528.556003417969</ele>
        <time>2018-06-09T05:41:27.000Z</time>
      </trkpt>
      <trkpt lat="43.010006" lon="-2.362216">
        <ele>528.900024414063</ele>
        <time>2018-06-09T05:41:29.000Z</time>
      </trkpt>
      <trkpt lat="43.009982" lon="-2.362236">
        <ele>529.099975585938</ele>
        <time>2018-06-09T05:41:31.000Z</time>
      </trkpt>
      <trkpt lat="43.009951" lon="-2.36226">
        <ele>528.816609879687</ele>
        <time>2018-06-09T05:41:33.000Z</time>
      </trkpt>
      <trkpt lat="43.009923" lon="-2.362277">
        <ele>528.544188889063</ele>
        <time>2018-06-09T05:41:35.000Z</time>
      </trkpt>
      <trkpt lat="43.009899" lon="-2.36228">
        <ele>528.67205777254</ele>
        <time>2018-06-09T05:41:37.000Z</time>
      </trkpt>
      <trkpt lat="43.009865" lon="-2.362284">
        <ele>528.700012207031</ele>
        <time>2018-06-09T05:41:39.000Z</time>
      </trkpt>
      <trkpt lat="43.00984" lon="-2.362297">
        <ele>528.700012207031</ele>
        <time>2018-06-09T05:41:41.000Z</time>
      </trkpt>
      <trkpt lat="43.009813" lon="-2.36232">
        <ele>529.200012207031</ele>
        <time>2018-06-09T05:41:43.000Z</time>
      </trkpt>
      <trkpt lat="43.009793" lon="-2.362334">
        <ele>529.927790225489</ele>
        <time>2018-06-09T05:41:45.000Z</time>
      </trkpt>
      <trkpt lat="43.009766" lon="-2.362337">
        <ele>530.099975585938</ele>
        <time>2018-06-09T05:41:47.000Z</time>
      </trkpt>
      <trkpt lat="43.00974" lon="-2.362346">
        <ele>530.599975585938</ele>
        <time>2018-06-09T05:41:49.000Z</time>
      </trkpt>
      <trkpt lat="43.009717" lon="-2.362351">
        <ele>531.25904733172</ele>
        <time>2018-06-09T05:41:52.000Z</time>
      </trkpt>
      <trkpt lat="43.009697" lon="-2.362362">
        <ele>532.227305382031</ele>
        <time>2018-06-09T05:41:54.000Z</time>
      </trkpt>
      <trkpt lat="43.009592" lon="-2.362351">
        <ele>533.799987792969</ele>
        <time>2018-06-09T05:42:02.000Z</time>
      </trkpt>
      <trkpt lat="43.00951" lon="-2.362405">
        <ele>535.397505755339</ele>
        <time>2018-06-09T05:42:09.000Z</time>
      </trkpt>
      <trkpt lat="43.00949" lon="-2.362408">
        <ele>536.886977185938</ele>
        <time>2018-06-09T05:42:11.000Z</time>
      </trkpt>
      <trkpt lat="43.009404" lon="-2.362432">
        <ele>538.099975585938</ele>
        <time>2018-06-09T05:42:18.000Z</time>
      </trkpt>
      <trkpt lat="43.009337" lon="-2.362488">
        <ele>539.599975585938</ele>
        <time>2018-06-09T05:42:25.000Z</time>
      </trkpt>
      <trkpt lat="43.009258" lon="-2.362562">
        <ele>541.95866961856</ele>
        <time>2018-06-09T05:42:33.000Z</time>
      </trkpt>
      <trkpt lat="43.009231" lon="-2.362575">
        <ele>542.159216089908</ele>
        <time>2018-06-09T05:42:35.000Z</time>
      </trkpt>
      <trkpt lat="43.009171" lon="-2.362671">
        <ele>544.030253356778</ele>
        <time>2018-06-09T05:42:43.000Z</time>
      </trkpt>
      <trkpt lat="43.009097" lon="-2.362744">
        <ele>545.132885284597</ele>
        <time>2018-06-09T05:42:49.000Z</time>
      </trkpt>
      <trkpt lat="43.009019" lon="-2.362806">
        <ele>545.400024414063</ele>
        <time>2018-06-09T05:42:54.000Z</time>
      </trkpt>
      <trkpt lat="43.008946" lon="-2.362895">
        <ele>546.900024414063</ele>
        <time>2018-06-09T05:43:04.000Z</time>
      </trkpt>
      <trkpt lat="43.008868" lon="-2.36297">
        <ele>547.773690259386</ele>
        <time>2018-06-09T05:43:10.000Z</time>
      </trkpt>
      <trkpt lat="43.008854" lon="-2.362991">
        <ele>548.121857401422</ele>
        <time>2018-06-09T05:43:11.000Z</time>
      </trkpt>
      <trkpt lat="43.008842" lon="-2.363014">
        <ele>548.685685365041</ele>
        <time>2018-06-09T05:43:12.000Z</time>
      </trkpt>
      <trkpt lat="43.008826" lon="-2.363042">
        <ele>549.57502993513</ele>
        <time>2018-06-09T05:43:14.000Z</time>
      </trkpt>
      <trkpt lat="43.00881" lon="-2.363074">
        <ele>549.700012207031</ele>
        <time>2018-06-09T05:43:17.000Z</time>
      </trkpt>
      <trkpt lat="43.008782" lon="-2.363079">
        <ele>549.523347347205</ele>
        <time>2018-06-09T05:43:19.000Z</time>
      </trkpt>
      <trkpt lat="43.008763" lon="-2.363084">
        <ele>549.400024414063</ele>
        <time>2018-06-09T05:43:21.000Z</time>
      </trkpt>
      <trkpt lat="43.008741" lon="-2.363095">
        <ele>549.400024414063</ele>
        <time>2018-06-09T05:43:23.000Z</time>
      </trkpt>
      <trkpt lat="43.00872" lon="-2.363097">
        <ele>549.599975585938</ele>
        <time>2018-06-09T05:43:25.000Z</time>
      </trkpt>
      <trkpt lat="43.008697" lon="-2.363102">
        <ele>549.972533336779</ele>
        <time>2018-06-09T05:43:27.000Z</time>
      </trkpt>
      <trkpt lat="43.008679" lon="-2.363105">
        <ele>550.208809621364</ele>
        <time>2018-06-09T05:43:28.000Z</time>
      </trkpt>
      <trkpt lat="43.008651" lon="-2.363106">
        <ele>550.936452537026</ele>
        <time>2018-06-09T05:43:30.000Z</time>
      </trkpt>
      <trkpt lat="43.008633" lon="-2.36311">
        <ele>551.5</ele>
        <time>2018-06-09T05:43:34.000Z</time>
      </trkpt>
      <trkpt lat="43.008579" lon="-2.363126">
        <ele>552.900024414063</ele>
        <time>2018-06-09T05:43:40.000Z</time>
      </trkpt>
      <trkpt lat="43.008556" lon="-2.363132">
        <ele>553.072931667123</ele>
        <time>2018-06-09T05:43:42.000Z</time>
      </trkpt>
      <trkpt lat="43.008467" lon="-2.363117">
        <ele>554.574107306</ele>
        <time>2018-06-09T05:43:50.000Z</time>
      </trkpt>
      <trkpt lat="43.008379" lon="-2.363106">
        <ele>556.773163691541</ele>
        <time>2018-06-09T05:43:59.000Z</time>
      </trkpt>
      <trkpt lat="43.008286" lon="-2.36315">
        <ele>559.099975585938</ele>
        <time>2018-06-09T05:44:06.000Z</time>
      </trkpt>
      <trkpt lat="43.00819" lon="-2.363171">
        <ele>560.400024414063</ele>
        <time>2018-06-09T05:44:13.000Z</time>
      </trkpt>
      <trkpt lat="43.00809" lon="-2.363177">
        <ele>561.984697727888</ele>
        <time>2018-06-09T05:44:21.000Z</time>
      </trkpt>
      <trkpt lat="43.007988" lon="-2.363218">
        <ele>563.975330500341</ele>
        <time>2018-06-09T05:44:28.000Z</time>
      </trkpt>
      <trkpt lat="43.007892" lon="-2.363221">
        <ele>565.751431704961</ele>
        <time>2018-06-09T05:44:35.000Z</time>
      </trkpt>
      <trkpt lat="43.007811" lon="-2.36328">
        <ele>568.563891275</ele>
        <time>2018-06-09T05:44:45.000Z</time>
      </trkpt>
      <trkpt lat="43.007792" lon="-2.363279">
        <ele>569.550560940199</ele>
        <time>2018-06-09T05:44:47.000Z</time>
      </trkpt>
      <trkpt lat="43.007759" lon="-2.36327">
        <ele>570.599975585938</ele>
        <time>2018-06-09T05:44:50.000Z</time>
      </trkpt>
      <trkpt lat="43.00773" lon="-2.363279">
        <ele>570.599975585938</ele>
        <time>2018-06-09T05:44:52.000Z</time>
      </trkpt>
      <trkpt lat="43.00771" lon="-2.363285">
        <ele>570.676055876922</ele>
        <time>2018-06-09T05:44:53.000Z</time>
      </trkpt>
      <trkpt lat="43.00768" lon="-2.363297">
        <ele>571.151760793327</ele>
        <time>2018-06-09T05:44:55.000Z</time>
      </trkpt>
      <trkpt lat="43.007641" lon="-2.363307">
        <ele>571.814121035285</ele>
        <time>2018-06-09T05:44:57.000Z</time>
      </trkpt>
      <trkpt lat="43.007619" lon="-2.363309">
        <ele>572.438090995477</ele>
        <time>2018-06-09T05:44:59.000Z</time>
      </trkpt>
      <trkpt lat="43.007597" lon="-2.363313">
        <ele>572.613922872999</ele>
        <time>2018-06-09T05:45:01.000Z</time>
      </trkpt>
      <trkpt lat="43.007573" lon="-2.363319">
        <ele>573.053270707987</ele>
        <time>2018-06-09T05:45:03.000Z</time>
      </trkpt>
      <trkpt lat="43.007545" lon="-2.363327">
        <ele>573.416501303652</ele>
        <time>2018-06-09T05:45:05.000Z</time>
      </trkpt>
      <trkpt lat="43.00752" lon="-2.363328">
        <ele>573.799987792969</ele>
        <time>2018-06-09T05:45:07.000Z</time>
      </trkpt>
      <trkpt lat="43.007501" lon="-2.363338">
        <ele>574.639489571094</ele>
        <time>2018-06-09T05:45:09.000Z</time>
      </trkpt>
      <trkpt lat="43.007476" lon="-2.363354">
        <ele>574.996007661784</ele>
        <time>2018-06-09T05:45:11.000Z</time>
      </trkpt>
      <trkpt lat="43.007452" lon="-2.363369">
        <ele>575.93893701374</ele>
        <time>2018-06-09T05:45:13.000Z</time>
      </trkpt>
      <trkpt lat="43.00743" lon="-2.363385">
        <ele>576.177702696877</ele>
        <time>2018-06-09T05:45:15.000Z</time>
      </trkpt>
      <trkpt lat="43.007406" lon="-2.363395">
        <ele>576.678501662846</ele>
        <time>2018-06-09T05:45:17.000Z</time>
      </trkpt>
      <trkpt lat="43.007386" lon="-2.363414">
        <ele>577.200012207031</ele>
        <time>2018-06-09T05:45:19.000Z</time>
      </trkpt>
      <trkpt lat="43.007359" lon="-2.363431">
        <ele>577.456710923654</ele>
        <time>2018-06-09T05:45:21.000Z</time>
      </trkpt>
      <trkpt lat="43.007335" lon="-2.363447">
        <ele>578.118076343048</ele>
        <time>2018-06-09T05:45:23.000Z</time>
      </trkpt>
      <trkpt lat="43.007306" lon="-2.363451">
        <ele>578.779136762981</ele>
        <time>2018-06-09T05:45:25.000Z</time>
      </trkpt>
      <trkpt lat="43.007282" lon="-2.363463">
        <ele>579.259257565209</ele>
        <time>2018-06-09T05:45:27.000Z</time>
      </trkpt>
      <trkpt lat="43.007252" lon="-2.363478">
        <ele>579.720412845199</ele>
        <time>2018-06-09T05:45:29.000Z</time>
      </trkpt>
      <trkpt lat="43.007226" lon="-2.363488">
        <ele>580</ele>
        <time>2018-06-09T05:45:31.000Z</time>
      </trkpt>
      <trkpt lat="43.007203" lon="-2.363495">
        <ele>580.599975585938</ele>
        <time>2018-06-09T05:45:33.000Z</time>
      </trkpt>
      <trkpt lat="43.007187" lon="-2.363509">
        <ele>580.679581084375</ele>
        <time>2018-06-09T05:45:35.000Z</time>
      </trkpt>
      <trkpt lat="43.007172" lon="-2.363532">
        <ele>580.918420024851</ele>
        <time>2018-06-09T05:45:37.000Z</time>
      </trkpt>
      <trkpt lat="43.007149" lon="-2.363526">
        <ele>581.599975585938</ele>
        <time>2018-06-09T05:45:40.000Z</time>
      </trkpt>
      <trkpt lat="43.007104" lon="-2.363516">
        <ele>581.900024414063</ele>
        <time>2018-06-09T05:45:43.000Z</time>
      </trkpt>
      <trkpt lat="43.007026" lon="-2.363454">
        <ele>582.900024414063</ele>
        <time>2018-06-09T05:45:52.000Z</time>
      </trkpt>
      <trkpt lat="43.006939" lon="-2.363412">
        <ele>584.068379489614</ele>
        <time>2018-06-09T05:46:02.000Z</time>
      </trkpt>
      <trkpt lat="43.006848" lon="-2.363374">
        <ele>585.093098305598</ele>
        <time>2018-06-09T05:46:11.000Z</time>
      </trkpt>
      <trkpt lat="43.006769" lon="-2.3633">
        <ele>586.799987792969</ele>
        <time>2018-06-09T05:46:21.000Z</time>
      </trkpt>
      <trkpt lat="43.006707" lon="-2.363205">
        <ele>588.747844308115</ele>
        <time>2018-06-09T05:46:29.000Z</time>
      </trkpt>
      <trkpt lat="43.006628" lon="-2.36313">
        <ele>589.5</ele>
        <time>2018-06-09T05:46:37.000Z</time>
      </trkpt>
      <trkpt lat="43.006541" lon="-2.363085">
        <ele>590.043232248233</ele>
        <time>2018-06-09T05:46:45.000Z</time>
      </trkpt>
      <trkpt lat="43.006447" lon="-2.363078">
        <ele>590.400024414063</ele>
        <time>2018-06-09T05:46:53.000Z</time>
      </trkpt>
      <trkpt lat="43.006395" lon="-2.363089">
        <ele>590.250699349219</ele>
        <time>2018-06-09T05:46:56.000Z</time>
      </trkpt>
      <trkpt lat="43.006375" lon="-2.36309">
        <ele>590.249349909543</ele>
        <time>2018-06-09T05:46:57.000Z</time>
      </trkpt>
      <trkpt lat="43.006327" lon="-2.363102">
        <ele>590.996589854783</ele>
        <time>2018-06-09T05:46:59.000Z</time>
      </trkpt>
      <trkpt lat="43.006238" lon="-2.363119">
        <ele>591.898495160444</ele>
        <time>2018-06-09T05:47:04.000Z</time>
      </trkpt>
      <trkpt lat="43.006134" lon="-2.363134">
        <ele>592.799987792969</ele>
        <time>2018-06-09T05:47:09.000Z</time>
      </trkpt>
      <trkpt lat="43.00605" lon="-2.363129">
        <ele>592.799987792969</ele>
        <time>2018-06-09T05:47:15.000Z</time>
      </trkpt>
      <trkpt lat="43.006024" lon="-2.363122">
        <ele>592.850806406728</ele>
        <time>2018-06-09T05:47:17.000Z</time>
      </trkpt>
      <trkpt lat="43.00593" lon="-2.363138">
        <ele>592.551669171657</ele>
        <time>2018-06-09T05:47:23.000Z</time>
      </trkpt>
      <trkpt lat="43.005898" lon="-2.363132">
        <ele>592.55241824361</ele>
        <time>2018-06-09T05:47:25.000Z</time>
      </trkpt>
      <trkpt lat="43.005867" lon="-2.36312">
        <ele>592.201479165857</ele>
        <time>2018-06-09T05:47:27.000Z</time>
      </trkpt>
      <trkpt lat="43.005848" lon="-2.363118">
        <ele>592.001795632123</ele>
        <time>2018-06-09T05:47:28.000Z</time>
      </trkpt>
      <trkpt lat="43.005815" lon="-2.363123">
        <ele>591.799987792969</ele>
        <time>2018-06-09T05:47:30.000Z</time>
      </trkpt>
      <trkpt lat="43.005788" lon="-2.363129">
        <ele>591.451165460475</ele>
        <time>2018-06-09T05:47:32.000Z</time>
      </trkpt>
      <trkpt lat="43.005765" lon="-2.363138">
        <ele>591.299987792969</ele>
        <time>2018-06-09T05:47:35.000Z</time>
      </trkpt>
      <trkpt lat="43.005743" lon="-2.363143">
        <ele>591.299987792969</ele>
        <time>2018-06-09T05:47:37.000Z</time>
      </trkpt>
      <trkpt lat="43.005725" lon="-2.36315">
        <ele>591.44921079182</ele>
        <time>2018-06-09T05:47:39.000Z</time>
      </trkpt>
      <trkpt lat="43.005697" lon="-2.363166">
        <ele>591.549335750375</ele>
        <time>2018-06-09T05:47:41.000Z</time>
      </trkpt>
      <trkpt lat="43.005679" lon="-2.363176">
        <ele>591.649395192367</ele>
        <time>2018-06-09T05:47:42.000Z</time>
      </trkpt>
      <trkpt lat="43.005647" lon="-2.363198">
        <ele>591.749500282031</ele>
        <time>2018-06-09T05:47:44.000Z</time>
      </trkpt>
      <trkpt lat="43.005628" lon="-2.363212">
        <ele>591.750450259696</ele>
        <time>2018-06-09T05:47:45.000Z</time>
      </trkpt>
      <trkpt lat="43.005609" lon="-2.36323">
        <ele>591.700012207031</ele>
        <time>2018-06-09T05:47:46.000Z</time>
      </trkpt>
      <trkpt lat="43.005572" lon="-2.363242">
        <ele>591.700081636613</ele>
        <time>2018-06-09T05:47:48.000Z</time>
      </trkpt>
      <trkpt lat="43.005546" lon="-2.363263">
        <ele>591.499499142131</ele>
        <time>2018-06-09T05:47:50.000Z</time>
      </trkpt>
      <trkpt lat="43.005519" lon="-2.363287">
        <ele>591.099975585938</ele>
        <time>2018-06-09T05:47:52.000Z</time>
      </trkpt>
      <trkpt lat="43.005492" lon="-2.363305">
        <ele>590.793354511911</ele>
        <time>2018-06-09T05:47:54.000Z</time>
      </trkpt>
      <trkpt lat="43.005468" lon="-2.363308">
        <ele>590.5</ele>
        <time>2018-06-09T05:47:56.000Z</time>
      </trkpt>
      <trkpt lat="43.005441" lon="-2.36332">
        <ele>590.607357768378</ele>
        <time>2018-06-09T05:47:58.000Z</time>
      </trkpt>
      <trkpt lat="43.005411" lon="-2.363333">
        <ele>590.700012207031</ele>
        <time>2018-06-09T05:48:00.000Z</time>
      </trkpt>
      <trkpt lat="43.005384" lon="-2.363353">
        <ele>590.900024414063</ele>
        <time>2018-06-09T05:48:02.000Z</time>
      </trkpt>
      <trkpt lat="43.005361" lon="-2.363361">
        <ele>590.791893536853</ele>
        <time>2018-06-09T05:48:04.000Z</time>
      </trkpt>
      <trkpt lat="43.00533" lon="-2.363359">
        <ele>590.599975585938</ele>
        <time>2018-06-09T05:48:06.000Z</time>
      </trkpt>
      <trkpt lat="43.005298" lon="-2.363368">
        <ele>590.489981797215</ele>
        <time>2018-06-09T05:48:08.000Z</time>
      </trkpt>
      <trkpt lat="43.005267" lon="-2.363366">
        <ele>590.189491681817</ele>
        <time>2018-06-09T05:48:10.000Z</time>
      </trkpt>
      <trkpt lat="43.00524" lon="-2.363357">
        <ele>589.945058069414</ele>
        <time>2018-06-09T05:48:12.000Z</time>
      </trkpt>
      <trkpt lat="43.005214" lon="-2.363353">
        <ele>589.900024414063</ele>
        <time>2018-06-09T05:48:14.000Z</time>
      </trkpt>
      <trkpt lat="43.005186" lon="-2.363358">
        <ele>589.744935824751</ele>
        <time>2018-06-09T05:48:16.000Z</time>
      </trkpt>
      <trkpt lat="43.005159" lon="-2.363362">
        <ele>589.700012207031</ele>
        <time>2018-06-09T05:48:18.000Z</time>
      </trkpt>
      <trkpt lat="43.005139" lon="-2.363353">
        <ele>589.866204484375</ele>
        <time>2018-06-09T05:48:20.000Z</time>
      </trkpt>
      <trkpt lat="43.005116" lon="-2.363358">
        <ele>590.055821075392</ele>
        <time>2018-06-09T05:48:23.000Z</time>
      </trkpt>
      <trkpt lat="43.005073" lon="-2.363369">
        <ele>590.312418427344</ele>
        <time>2018-06-09T05:48:27.000Z</time>
      </trkpt>
      <trkpt lat="43.005051" lon="-2.363374">
        <ele>590.700012207031</ele>
        <time>2018-06-09T05:48:30.000Z</time>
      </trkpt>
      <trkpt lat="43.005024" lon="-2.363384">
        <ele>590.856838068928</ele>
        <time>2018-06-09T05:48:33.000Z</time>
      </trkpt>
      <trkpt lat="43.005003" lon="-2.363404">
        <ele>591.056786132812</ele>
        <time>2018-06-09T05:48:36.000Z</time>
      </trkpt>
      <trkpt lat="43.004981" lon="-2.363425">
        <ele>591.470251342691</ele>
        <time>2018-06-09T05:48:38.000Z</time>
      </trkpt>
      <trkpt lat="43.004948" lon="-2.363444">
        <ele>591.93909914115</ele>
        <time>2018-06-09T05:48:40.000Z</time>
      </trkpt>
      <trkpt lat="43.004929" lon="-2.363449">
        <ele>592.312505805922</ele>
        <time>2018-06-09T05:48:41.000Z</time>
      </trkpt>
      <trkpt lat="43.004834" lon="-2.363474">
        <ele>593.381473185937</ele>
        <time>2018-06-09T05:48:48.000Z</time>
      </trkpt>
      <trkpt lat="43.004794" lon="-2.363492">
        <ele>593.599975585938</ele>
        <time>2018-06-09T05:48:50.000Z</time>
      </trkpt>
      <trkpt lat="43.004771" lon="-2.363508">
        <ele>593.882477985938</ele>
        <time>2018-06-09T05:48:51.000Z</time>
      </trkpt>
      <trkpt lat="43.004752" lon="-2.363529">
        <ele>594.269504614063</ele>
        <time>2018-06-09T05:48:52.000Z</time>
      </trkpt>
      <trkpt lat="43.004729" lon="-2.363541">
        <ele>594.900024414063</ele>
        <time>2018-06-09T05:48:54.000Z</time>
      </trkpt>
      <trkpt lat="43.004708" lon="-2.363545">
        <ele>595.513144921629</ele>
        <time>2018-06-09T05:48:56.000Z</time>
      </trkpt>
      <trkpt lat="43.004679" lon="-2.363551">
        <ele>596.95671073125</ele>
        <time>2018-06-09T05:48:58.000Z</time>
      </trkpt>
      <trkpt lat="43.004652" lon="-2.363563">
        <ele>597</ele>
        <time>2018-06-09T05:49:00.000Z</time>
      </trkpt>
      <trkpt lat="43.004593" lon="-2.363586">
        <ele>597.799987792969</ele>
        <time>2018-06-09T05:49:05.000Z</time>
      </trkpt>
      <trkpt lat="43.004561" lon="-2.36359">
        <ele>598.400024414063</ele>
        <time>2018-06-09T05:49:07.000Z</time>
      </trkpt>
      <trkpt lat="43.004528" lon="-2.3636">
        <ele>599.099975585938</ele>
        <time>2018-06-09T05:49:09.000Z</time>
      </trkpt>
      <trkpt lat="43.004508" lon="-2.363603">
        <ele>599.437194246875</ele>
        <time>2018-06-09T05:49:10.000Z</time>
      </trkpt>
      <trkpt lat="43.004479" lon="-2.36361">
        <ele>600.025149399647</ele>
        <time>2018-06-09T05:49:12.000Z</time>
      </trkpt>
      <trkpt lat="43.004461" lon="-2.363623">
        <ele>600.556285775</ele>
        <time>2018-06-09T05:49:14.000Z</time>
      </trkpt>
      <trkpt lat="43.004431" lon="-2.363644">
        <ele>600.656208255708</ele>
        <time>2018-06-09T05:49:16.000Z</time>
      </trkpt>
      <trkpt lat="43.004395" lon="-2.363657">
        <ele>601.15588445492</ele>
        <time>2018-06-09T05:49:18.000Z</time>
      </trkpt>
      <trkpt lat="43.004366" lon="-2.363676">
        <ele>601.355808547656</ele>
        <time>2018-06-09T05:49:20.000Z</time>
      </trkpt>
      <trkpt lat="43.004351" lon="-2.363684">
        <ele>601.955800950945</ele>
        <time>2018-06-09T05:49:21.000Z</time>
      </trkpt>
      <trkpt lat="43.004322" lon="-2.363692">
        <ele>602.655006055936</ele>
        <time>2018-06-09T05:49:23.000Z</time>
      </trkpt>
      <trkpt lat="43.004304" lon="-2.363693">
        <ele>602.974963983324</ele>
        <time>2018-06-09T05:49:24.000Z</time>
      </trkpt>
      <trkpt lat="43.004283" lon="-2.363702">
        <ele>603.200012207031</ele>
        <time>2018-06-09T05:49:25.000Z</time>
      </trkpt>
      <trkpt lat="43.004255" lon="-2.363719">
        <ele>603.400024414063</ele>
        <time>2018-06-09T05:49:27.000Z</time>
      </trkpt>
      <trkpt lat="43.004244" lon="-2.363727">
        <ele>604.910993607813</ele>
        <time>2018-06-09T05:49:30.000Z</time>
      </trkpt>
      <trkpt lat="43.004219" lon="-2.363727">
        <ele>605.467347265823</ele>
        <time>2018-06-09T05:49:33.000Z</time>
      </trkpt>
      <trkpt lat="43.004148" lon="-2.363716">
        <ele>606.711093763482</ele>
        <time>2018-06-09T05:49:41.000Z</time>
      </trkpt>
      <trkpt lat="43.004095" lon="-2.363677">
        <ele>607.856208053906</ele>
        <time>2018-06-09T05:49:47.000Z</time>
      </trkpt>
      <trkpt lat="43.004037" lon="-2.363674">
        <ele>608.4964877496</ele>
        <time>2018-06-09T05:49:53.000Z</time>
      </trkpt>
      <trkpt lat="43.00401" lon="-2.363672">
        <ele>609.400024414063</ele>
        <time>2018-06-09T05:49:57.000Z</time>
      </trkpt>
      <trkpt lat="43.003934" lon="-2.363592">
        <ele>609.700012207031</ele>
        <time>2018-06-09T05:50:09.000Z</time>
      </trkpt>
      <trkpt lat="43.003838" lon="-2.363566">
        <ele>610.700012207031</ele>
        <time>2018-06-09T05:50:15.000Z</time>
      </trkpt>
      <trkpt lat="43.00373" lon="-2.36355">
        <ele>610.629834115443</ele>
        <time>2018-06-09T05:50:22.000Z</time>
      </trkpt>
      <trkpt lat="43.003638" lon="-2.363585">
        <ele>611.457010178125</ele>
        <time>2018-06-09T05:50:27.000Z</time>
      </trkpt>
      <trkpt lat="43.003532" lon="-2.363617">
        <ele>612.269764716626</ele>
        <time>2018-06-09T05:50:33.000Z</time>
      </trkpt>
      <trkpt lat="43.003433" lon="-2.363642">
        <ele>612.043777225301</ele>
        <time>2018-06-09T05:50:41.000Z</time>
      </trkpt>
      <trkpt lat="43.003341" lon="-2.363687">
        <ele>612.900024414063</ele>
        <time>2018-06-09T05:50:50.000Z</time>
      </trkpt>
      <trkpt lat="43.003259" lon="-2.363747">
        <ele>613</ele>
        <time>2018-06-09T05:50:57.000Z</time>
      </trkpt>
      <trkpt lat="43.003176" lon="-2.363833">
        <ele>614.156452709668</ele>
        <time>2018-06-09T05:51:06.000Z</time>
      </trkpt>
      <trkpt lat="43.003093" lon="-2.363918">
        <ele>614.6126059125</ele>
        <time>2018-06-09T05:51:12.000Z</time>
      </trkpt>
      <trkpt lat="43.00301" lon="-2.364006">
        <ele>614.912457648487</ele>
        <time>2018-06-09T05:51:15.000Z</time>
      </trkpt>
      <trkpt lat="43.002932" lon="-2.364069">
        <ele>615.188669721103</ele>
        <time>2018-06-09T05:51:19.000Z</time>
      </trkpt>
      <trkpt lat="43.00284" lon="-2.364126">
        <ele>616.612718450601</ele>
        <time>2018-06-09T05:51:27.000Z</time>
      </trkpt>
      <trkpt lat="43.002741" lon="-2.364155">
        <ele>618.855187316122</ele>
        <time>2018-06-09T05:51:38.000Z</time>
      </trkpt>
      <trkpt lat="43.002653" lon="-2.364125">
        <ele>622.055674812771</ele>
        <time>2018-06-09T05:51:50.000Z</time>
      </trkpt>
      <trkpt lat="43.00256" lon="-2.364183">
        <ele>623.035663420984</ele>
        <time>2018-06-09T05:51:55.000Z</time>
      </trkpt>
      <trkpt lat="43.002454" lon="-2.364229">
        <ele>623.836249632117</ele>
        <time>2018-06-09T05:51:59.000Z</time>
      </trkpt>
      <trkpt lat="43.002431" lon="-2.364241">
        <ele>624.21175921233</ele>
        <time>2018-06-09T05:52:00.000Z</time>
      </trkpt>
      <trkpt lat="43.002376" lon="-2.364268">
        <ele>624.956210373437</ele>
        <time>2018-06-09T05:52:04.000Z</time>
      </trkpt>
      <trkpt lat="43.002352" lon="-2.364286">
        <ele>625.335176517962</ele>
        <time>2018-06-09T05:52:05.000Z</time>
      </trkpt>
      <trkpt lat="43.002329" lon="-2.364298">
        <ele>625.933595517165</ele>
        <time>2018-06-09T05:52:06.000Z</time>
      </trkpt>
      <trkpt lat="43.002309" lon="-2.364304">
        <ele>626.255542551473</ele>
        <time>2018-06-09T05:52:07.000Z</time>
      </trkpt>
      <trkpt lat="43.002286" lon="-2.364321">
        <ele>626.299987792969</ele>
        <time>2018-06-09T05:52:08.000Z</time>
      </trkpt>
      <trkpt lat="43.002265" lon="-2.364337">
        <ele>626.511685956179</ele>
        <time>2018-06-09T05:52:10.000Z</time>
      </trkpt>
      <trkpt lat="43.002244" lon="-2.364352">
        <ele>626.955699226834</ele>
        <time>2018-06-09T05:52:12.000Z</time>
      </trkpt>
      <trkpt lat="43.002217" lon="-2.364368">
        <ele>627.655763684011</ele>
        <time>2018-06-09T05:52:14.000Z</time>
      </trkpt>
      <trkpt lat="43.002202" lon="-2.364395">
        <ele>627.923592375781</ele>
        <time>2018-06-09T05:52:15.000Z</time>
      </trkpt>
      <trkpt lat="43.002178" lon="-2.364417">
        <ele>628.256042410226</ele>
        <time>2018-06-09T05:52:17.000Z</time>
      </trkpt>
      <trkpt lat="43.002154" lon="-2.364434">
        <ele>628.467347265823</ele>
        <time>2018-06-09T05:52:19.000Z</time>
      </trkpt>
      <trkpt lat="43.002134" lon="-2.364444">
        <ele>628.88125481512</ele>
        <time>2018-06-09T05:52:22.000Z</time>
      </trkpt>
      <trkpt lat="43.002109" lon="-2.364452">
        <ele>629.299987792969</ele>
        <time>2018-06-09T05:52:25.000Z</time>
      </trkpt>
      <trkpt lat="43.002092" lon="-2.364449">
        <ele>630.5</ele>
        <time>2018-06-09T05:52:27.000Z</time>
      </trkpt>
      <trkpt lat="43.002074" lon="-2.364444">
        <ele>630.4325814375</ele>
        <time>2018-06-09T05:52:30.000Z</time>
      </trkpt>
      <trkpt lat="43.002054" lon="-2.364444">
        <ele>630.144291328906</ele>
        <time>2018-06-09T05:52:32.000Z</time>
      </trkpt>
      <trkpt lat="43.002024" lon="-2.364452">
        <ele>630.200012207031</ele>
        <time>2018-06-09T05:52:34.000Z</time>
      </trkpt>
      <trkpt lat="43.002002" lon="-2.364459">
        <ele>630.36813702309</ele>
        <time>2018-06-09T05:52:35.000Z</time>
      </trkpt>
      <trkpt lat="43.001966" lon="-2.364461">
        <ele>630.543889442187</ele>
        <time>2018-06-09T05:52:37.000Z</time>
      </trkpt>
      <trkpt lat="43.001944" lon="-2.364461">
        <ele>630.55608614375</ele>
        <time>2018-06-09T05:52:38.000Z</time>
      </trkpt>
      <trkpt lat="43.001927" lon="-2.364452">
        <ele>630.544001211818</ele>
        <time>2018-06-09T05:52:39.000Z</time>
      </trkpt>
      <trkpt lat="43.001898" lon="-2.364458">
        <ele>630.5</ele>
        <time>2018-06-09T05:52:41.000Z</time>
      </trkpt>
      <trkpt lat="43.001875" lon="-2.36445">
        <ele>630.578826169675</ele>
        <time>2018-06-09T05:52:44.000Z</time>
      </trkpt>
      <trkpt lat="43.00185" lon="-2.364438">
        <ele>630.867538604926</ele>
        <time>2018-06-09T05:52:46.000Z</time>
      </trkpt>
      <trkpt lat="43.001825" lon="-2.364443">
        <ele>631.25563160077</ele>
        <time>2018-06-09T05:52:48.000Z</time>
      </trkpt>
      <trkpt lat="43.001808" lon="-2.364424">
        <ele>631.343847943099</ele>
        <time>2018-06-09T05:52:52.000Z</time>
      </trkpt>
      <trkpt lat="43.001787" lon="-2.364425">
        <ele>631.143779537261</ele>
        <time>2018-06-09T05:52:55.000Z</time>
      </trkpt>
      <trkpt lat="43.001768" lon="-2.364439">
        <ele>631.099975585938</ele>
        <time>2018-06-09T05:52:56.000Z</time>
      </trkpt>
      <trkpt lat="43.001747" lon="-2.364458">
        <ele>632.056543138607</ele>
        <time>2018-06-09T05:52:58.000Z</time>
      </trkpt>
      <trkpt lat="43.001723" lon="-2.364454">
        <ele>632.200012207031</ele>
        <time>2018-06-09T05:53:02.000Z</time>
      </trkpt>
      <trkpt lat="43.001704" lon="-2.36444">
        <ele>632.856164263932</ele>
        <time>2018-06-09T05:53:07.000Z</time>
      </trkpt>
      <trkpt lat="43.001683" lon="-2.364449">
        <ele>633.480231635953</ele>
        <time>2018-06-09T05:53:09.000Z</time>
      </trkpt>
      <trkpt lat="43.00164" lon="-2.364467">
        <ele>633.92381582131</ele>
        <time>2018-06-09T05:53:12.000Z</time>
      </trkpt>
      <trkpt lat="43.00162" lon="-2.364472">
        <ele>634.200012207031</ele>
        <time>2018-06-09T05:53:14.000Z</time>
      </trkpt>
      <trkpt lat="43.001593" lon="-2.364475">
        <ele>635.200012207031</ele>
        <time>2018-06-09T05:53:16.000Z</time>
      </trkpt>
      <trkpt lat="43.001527" lon="-2.364487">
        <ele>635.811707833867</ele>
        <time>2018-06-09T05:53:21.000Z</time>
      </trkpt>
      <trkpt lat="43.001499" lon="-2.364488">
        <ele>636.200012207031</ele>
        <time>2018-06-09T05:53:24.000Z</time>
      </trkpt>
      <trkpt lat="43.001471" lon="-2.364483">
        <ele>637.312582434443</ele>
        <time>2018-06-09T05:53:26.000Z</time>
      </trkpt>
      <trkpt lat="43.001407" lon="-2.364494">
        <ele>638.556285775</ele>
        <time>2018-06-09T05:53:32.000Z</time>
      </trkpt>
      <trkpt lat="43.001314" lon="-2.36451">
        <ele>639.825466302638</ele>
        <time>2018-06-09T05:53:38.000Z</time>
      </trkpt>
      <trkpt lat="43.001212" lon="-2.364527">
        <ele>641.143748243472</ele>
        <time>2018-06-09T05:53:44.000Z</time>
      </trkpt>
      <trkpt lat="43.001185" lon="-2.364532">
        <ele>641.537196566406</ele>
        <time>2018-06-09T05:53:46.000Z</time>
      </trkpt>
      <trkpt lat="43.0011" lon="-2.364565">
        <ele>643.510953749274</ele>
        <time>2018-06-09T05:53:54.000Z</time>
      </trkpt>
      <trkpt lat="43.001012" lon="-2.364589">
        <ele>646.076606571307</ele>
        <time>2018-06-09T05:54:02.000Z</time>
      </trkpt>
      <trkpt lat="43.000924" lon="-2.364618">
        <ele>647.345450128658</ele>
        <time>2018-06-09T05:54:12.000Z</time>
      </trkpt>
      <trkpt lat="43.000833" lon="-2.364623">
        <ele>648.855887847604</ele>
        <time>2018-06-09T05:54:18.000Z</time>
      </trkpt>
      <trkpt lat="43.000742" lon="-2.36467">
        <ele>650.455843552703</ele>
        <time>2018-06-09T05:54:30.000Z</time>
      </trkpt>
      <trkpt lat="43.000656" lon="-2.364707">
        <ele>651.256341558432</ele>
        <time>2018-06-09T05:54:36.000Z</time>
      </trkpt>
      <trkpt lat="43.000551" lon="-2.364742">
        <ele>652.255942694158</ele>
        <time>2018-06-09T05:54:43.000Z</time>
      </trkpt>
      <trkpt lat="43.000459" lon="-2.364752">
        <ele>652.825815164294</ele>
        <time>2018-06-09T05:54:50.000Z</time>
      </trkpt>
      <trkpt lat="43.000367" lon="-2.36477">
        <ele>655.299987792969</ele>
        <time>2018-06-09T05:54:59.000Z</time>
      </trkpt>
      <trkpt lat="43.000342" lon="-2.364767">
        <ele>655.256442552911</ele>
        <time>2018-06-09T05:55:02.000Z</time>
      </trkpt>
      <trkpt lat="43.000319" lon="-2.364774">
        <ele>656.10821379146</ele>
        <time>2018-06-09T05:55:04.000Z</time>
      </trkpt>
      <trkpt lat="43.000292" lon="-2.364781">
        <ele>656.643277872255</ele>
        <time>2018-06-09T05:55:07.000Z</time>
      </trkpt>
      <trkpt lat="43.000261" lon="-2.364782">
        <ele>657.38125481512</ele>
        <time>2018-06-09T05:55:10.000Z</time>
      </trkpt>
      <trkpt lat="43.000239" lon="-2.36477">
        <ele>657.599975585938</ele>
        <time>2018-06-09T05:55:12.000Z</time>
      </trkpt>
      <trkpt lat="43.00021" lon="-2.364769">
        <ele>658.156426828257</ele>
        <time>2018-06-09T05:55:14.000Z</time>
      </trkpt>
      <trkpt lat="43.000193" lon="-2.364773">
        <ele>658.482925732644</ele>
        <time>2018-06-09T05:55:15.000Z</time>
      </trkpt>
      <trkpt lat="43.000169" lon="-2.364775">
        <ele>658.869975949613</ele>
        <time>2018-06-09T05:55:17.000Z</time>
      </trkpt>
      <trkpt lat="43.00015" lon="-2.364768">
        <ele>659.556656383136</ele>
        <time>2018-06-09T05:55:19.000Z</time>
      </trkpt>
      <trkpt lat="43.000134" lon="-2.364757">
        <ele>659.869806257812</ele>
        <time>2018-06-09T05:55:21.000Z</time>
      </trkpt>
      <trkpt lat="43.000116" lon="-2.364773">
        <ele>660.069818464844</ele>
        <time>2018-06-09T05:55:24.000Z</time>
      </trkpt>
      <trkpt lat="43.000023" lon="-2.364796">
        <ele>661.770023784576</ele>
        <time>2018-06-09T05:55:34.000Z</time>
      </trkpt>
      <trkpt lat="42.999931" lon="-2.364771">
        <ele>663.400024414063</ele>
        <time>2018-06-09T05:55:42.000Z</time>
      </trkpt>
      <trkpt lat="42.999835" lon="-2.364755">
        <ele>664.900024414063</ele>
        <time>2018-06-09T05:55:49.000Z</time>
      </trkpt>
      <trkpt lat="42.999763" lon="-2.364678">
        <ele>667.599975585938</ele>
        <time>2018-06-09T05:56:01.000Z</time>
      </trkpt>
      <trkpt lat="42.999691" lon="-2.364596">
        <ele>669.339327870884</ele>
        <time>2018-06-09T05:56:10.000Z</time>
      </trkpt>
      <trkpt lat="42.999597" lon="-2.364597">
        <ele>670.6138342378</ele>
        <time>2018-06-09T05:56:18.000Z</time>
      </trkpt>
      <trkpt lat="42.999508" lon="-2.364577">
        <ele>674.127430655673</ele>
        <time>2018-06-09T05:56:30.000Z</time>
      </trkpt>
      <trkpt lat="42.99948" lon="-2.364573">
        <ele>674.569010646444</ele>
        <time>2018-06-09T05:56:32.000Z</time>
      </trkpt>
      <trkpt lat="42.999458" lon="-2.364564">
        <ele>675.255930863222</ele>
        <time>2018-06-09T05:56:35.000Z</time>
      </trkpt>
      <trkpt lat="42.999436" lon="-2.364551">
        <ele>675.611966697127</ele>
        <time>2018-06-09T05:56:37.000Z</time>
      </trkpt>
      <trkpt lat="42.999415" lon="-2.364544">
        <ele>675.700012207031</ele>
        <time>2018-06-09T05:56:39.000Z</time>
      </trkpt>
      <trkpt lat="42.999392" lon="-2.364545">
        <ele>676</ele>
        <time>2018-06-09T05:56:41.000Z</time>
      </trkpt>
      <trkpt lat="42.99937" lon="-2.36454">
        <ele>676.468957424777</ele>
        <time>2018-06-09T05:56:44.000Z</time>
      </trkpt>
      <trkpt lat="42.999349" lon="-2.364537">
        <ele>677.013423853188</ele>
        <time>2018-06-09T05:56:46.000Z</time>
      </trkpt>
      <trkpt lat="42.999329" lon="-2.364529">
        <ele>677.200012207031</ele>
        <time>2018-06-09T05:56:48.000Z</time>
      </trkpt>
      <trkpt lat="42.999308" lon="-2.364524">
        <ele>677.087092417853</ele>
        <time>2018-06-09T05:56:50.000Z</time>
      </trkpt>
      <trkpt lat="42.999285" lon="-2.364526">
        <ele>677.65200915</ele>
        <time>2018-06-09T05:56:52.000Z</time>
      </trkpt>
      <trkpt lat="42.999261" lon="-2.364532">
        <ele>678</ele>
        <time>2018-06-09T05:56:54.000Z</time>
      </trkpt>
      <trkpt lat="42.999237" lon="-2.364529">
        <ele>678.113007857031</ele>
        <time>2018-06-09T05:56:56.000Z</time>
      </trkpt>
      <trkpt lat="42.999221" lon="-2.364504">
        <ele>678.283284431176</ele>
        <time>2018-06-09T05:57:01.000Z</time>
      </trkpt>
      <trkpt lat="42.999204" lon="-2.364501">
        <ele>678.855972559324</ele>
        <time>2018-06-09T05:57:03.000Z</time>
      </trkpt>
      <trkpt lat="42.999183" lon="-2.364504">
        <ele>679.623475215779</ele>
        <time>2018-06-09T05:57:05.000Z</time>
      </trkpt>
      <trkpt lat="42.999159" lon="-2.364513">
        <ele>680</ele>
        <time>2018-06-09T05:57:07.000Z</time>
      </trkpt>
      <trkpt lat="42.999137" lon="-2.364532">
        <ele>679.956810546875</ele>
        <time>2018-06-09T05:57:10.000Z</time>
      </trkpt>
      <trkpt lat="42.999112" lon="-2.364528">
        <ele>680.513283970097</ele>
        <time>2018-06-09T05:57:13.000Z</time>
      </trkpt>
      <trkpt lat="42.99909" lon="-2.364543">
        <ele>681.14054953403</ele>
        <time>2018-06-09T05:57:16.000Z</time>
      </trkpt>
      <trkpt lat="42.999071" lon="-2.364547">
        <ele>681.613547647131</ele>
        <time>2018-06-09T05:57:18.000Z</time>
      </trkpt>
      <trkpt lat="42.999054" lon="-2.364539">
        <ele>682.45671073125</ele>
        <time>2018-06-09T05:57:22.000Z</time>
      </trkpt>
      <trkpt lat="42.999039" lon="-2.36456">
        <ele>682.713637053594</ele>
        <time>2018-06-09T05:57:24.000Z</time>
      </trkpt>
      <trkpt lat="42.999023" lon="-2.364577">
        <ele>683.043146375783</ele>
        <time>2018-06-09T05:57:26.000Z</time>
      </trkpt>
      <trkpt lat="42.999001" lon="-2.36459">
        <ele>683.256728279488</ele>
        <time>2018-06-09T05:57:28.000Z</time>
      </trkpt>
      <trkpt lat="42.998972" lon="-2.364615">
        <ele>683.843503242969</ele>
        <time>2018-06-09T05:57:30.000Z</time>
      </trkpt>
      <trkpt lat="42.998953" lon="-2.364634">
        <ele>683.881821779287</ele>
        <time>2018-06-09T05:57:33.000Z</time>
      </trkpt>
      <trkpt lat="42.998937" lon="-2.364652">
        <ele>684.269804182813</ele>
        <time>2018-06-09T05:57:36.000Z</time>
      </trkpt>
      <trkpt lat="42.998913" lon="-2.364662">
        <ele>684.799987792969</ele>
        <time>2018-06-09T05:57:38.000Z</time>
      </trkpt>
      <trkpt lat="42.998902" lon="-2.364669">
        <ele>686.125429806495</ele>
        <time>2018-06-09T05:57:42.000Z</time>
      </trkpt>
      <trkpt lat="42.998877" lon="-2.364698">
        <ele>686.35682220414</ele>
        <time>2018-06-09T05:57:45.000Z</time>
      </trkpt>
      <trkpt lat="42.998854" lon="-2.364708">
        <ele>687.343074559797</ele>
        <time>2018-06-09T05:57:48.000Z</time>
      </trkpt>
      <trkpt lat="42.998842" lon="-2.364725">
        <ele>687.813532787385</ele>
        <time>2018-06-09T05:57:50.000Z</time>
      </trkpt>
      <trkpt lat="42.998822" lon="-2.364728">
        <ele>688.75695500716</ele>
        <time>2018-06-09T05:57:53.000Z</time>
      </trkpt>
      <trkpt lat="42.998796" lon="-2.364784">
        <ele>688.870275756753</ele>
        <time>2018-06-09T05:57:55.000Z</time>
      </trkpt>
      <trkpt lat="42.998781" lon="-2.364817">
        <ele>690.099975585938</ele>
        <time>2018-06-09T05:57:57.000Z</time>
      </trkpt>
      <trkpt lat="42.998764" lon="-2.364845">
        <ele>689.943257030632</ele>
        <time>2018-06-09T05:57:59.000Z</time>
      </trkpt>
      <trkpt lat="42.998747" lon="-2.364862">
        <ele>690.412532856645</ele>
        <time>2018-06-09T05:58:04.000Z</time>
      </trkpt>
      <trkpt lat="42.998725" lon="-2.36488">
        <ele>690.799987792969</ele>
        <time>2018-06-09T05:58:06.000Z</time>
      </trkpt>
      <trkpt lat="42.998714" lon="-2.364899">
        <ele>691.081706119397</ele>
        <time>2018-06-09T05:58:07.000Z</time>
      </trkpt>
      <trkpt lat="42.998686" lon="-2.364965">
        <ele>691.799987792969</ele>
        <time>2018-06-09T05:58:11.000Z</time>
      </trkpt>
      <trkpt lat="42.998669" lon="-2.364977">
        <ele>692.024400849219</ele>
        <time>2018-06-09T05:58:12.000Z</time>
      </trkpt>
      <trkpt lat="42.998585" lon="-2.365013">
        <ele>694.95671073125</ele>
        <time>2018-06-09T05:58:17.000Z</time>
      </trkpt>
      <trkpt lat="42.998483" lon="-2.364987">
        <ele>696.400024414063</ele>
        <time>2018-06-09T05:58:24.000Z</time>
      </trkpt>
      <trkpt lat="42.998412" lon="-2.364984">
        <ele>698.358650240787</ele>
        <time>2018-06-09T05:58:32.000Z</time>
      </trkpt>
      <trkpt lat="42.998349" lon="-2.365007">
        <ele>699.341020430093</ele>
        <time>2018-06-09T05:58:38.000Z</time>
      </trkpt>
      <trkpt lat="42.998261" lon="-2.364988">
        <ele>700.718256101002</ele>
        <time>2018-06-09T05:58:54.000Z</time>
      </trkpt>
      <trkpt lat="42.998175" lon="-2.365031">
        <ele>704</ele>
        <time>2018-06-09T05:59:08.000Z</time>
      </trkpt>
      <trkpt lat="42.998104" lon="-2.365113">
        <ele>706.754488477997</ele>
        <time>2018-06-09T05:59:20.000Z</time>
      </trkpt>
      <trkpt lat="42.998026" lon="-2.365168">
        <ele>709.700012207031</ele>
        <time>2018-06-09T05:59:30.000Z</time>
      </trkpt>
      <trkpt lat="42.997978" lon="-2.365278">
        <ele>710.599975585938</ele>
        <time>2018-06-09T05:59:48.000Z</time>
      </trkpt>
      <trkpt lat="42.997959" lon="-2.365279">
        <ele>713.599975585938</ele>
        <time>2018-06-09T05:59:58.000Z</time>
      </trkpt>
      <trkpt lat="42.997939" lon="-2.36529">
        <ele>713.599975585938</ele>
        <time>2018-06-09T06:00:01.000Z</time>
      </trkpt>
      <trkpt lat="42.997919" lon="-2.365294">
        <ele>713.46667547539</ele>
        <time>2018-06-09T06:00:04.000Z</time>
      </trkpt>
      <trkpt lat="42.997898" lon="-2.365293">
        <ele>713.942456426621</ele>
        <time>2018-06-09T06:00:08.000Z</time>
      </trkpt>
      <trkpt lat="42.99788" lon="-2.365303">
        <ele>715.5</ele>
        <time>2018-06-09T06:00:11.000Z</time>
      </trkpt>
      <trkpt lat="42.997861" lon="-2.365317">
        <ele>715.942728054371</ele>
        <time>2018-06-09T06:00:13.000Z</time>
      </trkpt>
      <trkpt lat="42.997843" lon="-2.365344">
        <ele>716.042474461442</ele>
        <time>2018-06-09T06:00:15.000Z</time>
      </trkpt>
      <trkpt lat="42.997819" lon="-2.365359">
        <ele>716.015372845934</ele>
        <time>2018-06-09T06:00:17.000Z</time>
      </trkpt>
      <trkpt lat="42.997796" lon="-2.365368">
        <ele>716.299987792969</ele>
        <time>2018-06-09T06:00:19.000Z</time>
      </trkpt>
      <trkpt lat="42.997773" lon="-2.365368">
        <ele>716.900024414063</ele>
        <time>2018-06-09T06:00:21.000Z</time>
      </trkpt>
      <trkpt lat="42.997743" lon="-2.36537">
        <ele>717</ele>
        <time>2018-06-09T06:00:23.000Z</time>
      </trkpt>
      <trkpt lat="42.997722" lon="-2.365374">
        <ele>717.288287826566</ele>
        <time>2018-06-09T06:00:25.000Z</time>
      </trkpt>
      <trkpt lat="42.997702" lon="-2.36538">
        <ele>718.218771707234</ele>
        <time>2018-06-09T06:00:27.000Z</time>
      </trkpt>
      <trkpt lat="42.997674" lon="-2.365402">
        <ele>718.657581528704</ele>
        <time>2018-06-09T06:00:29.000Z</time>
      </trkpt>
      <trkpt lat="42.997658" lon="-2.365413">
        <ele>719.302899688486</ele>
        <time>2018-06-09T06:00:31.000Z</time>
      </trkpt>
      <trkpt lat="42.997565" lon="-2.365431">
        <ele>721.887763713604</ele>
        <time>2018-06-09T06:00:50.000Z</time>
      </trkpt>
      <trkpt lat="42.997485" lon="-2.365478">
        <ele>724.239258742494</ele>
        <time>2018-06-09T06:01:06.000Z</time>
      </trkpt>
      <trkpt lat="42.997394" lon="-2.36553">
        <ele>725.735147297624</ele>
        <time>2018-06-09T06:01:12.000Z</time>
      </trkpt>
      <trkpt lat="42.997298" lon="-2.36558">
        <ele>727.599975585938</ele>
        <time>2018-06-09T06:01:20.000Z</time>
      </trkpt>
      <trkpt lat="42.997218" lon="-2.365636">
        <ele>729.015542288199</ele>
        <time>2018-06-09T06:01:27.000Z</time>
      </trkpt>
      <trkpt lat="42.997144" lon="-2.365697">
        <ele>734.157964891179</ele>
        <time>2018-06-09T06:01:47.000Z</time>
      </trkpt>
      <trkpt lat="42.997059" lon="-2.365744">
        <ele>738.200012207031</ele>
        <time>2018-06-09T06:02:09.000Z</time>
      </trkpt>
      <trkpt lat="42.996972" lon="-2.365822">
        <ele>739.940435652317</ele>
        <time>2018-06-09T06:02:21.000Z</time>
      </trkpt>
      <trkpt lat="42.996888" lon="-2.365884">
        <ele>741.840902610938</ele>
        <time>2018-06-09T06:02:25.000Z</time>
      </trkpt>
      <trkpt lat="42.996799" lon="-2.365942">
        <ele>741.881274545756</ele>
        <time>2018-06-09T06:02:30.000Z</time>
      </trkpt>
      <trkpt lat="42.996686" lon="-2.365996">
        <ele>742.799987792969</ele>
        <time>2018-06-09T06:02:36.000Z</time>
      </trkpt>
      <trkpt lat="42.996594" lon="-2.366058">
        <ele>743.612035228629</ele>
        <time>2018-06-09T06:02:40.000Z</time>
      </trkpt>
      <trkpt lat="42.996497" lon="-2.366113">
        <ele>744.776828784454</ele>
        <time>2018-06-09T06:02:44.000Z</time>
      </trkpt>
      <trkpt lat="42.996397" lon="-2.36617">
        <ele>746.123594632793</ele>
        <time>2018-06-09T06:02:49.000Z</time>
      </trkpt>
      <trkpt lat="42.996319" lon="-2.366256">
        <ele>746.900024414063</ele>
        <time>2018-06-09T06:02:56.000Z</time>
      </trkpt>
      <trkpt lat="42.996233" lon="-2.366323">
        <ele>749.135604764062</ele>
        <time>2018-06-09T06:03:06.000Z</time>
      </trkpt>
      <trkpt lat="42.996142" lon="-2.366378">
        <ele>749.459110145312</ele>
        <time>2018-06-09T06:03:08.000Z</time>
      </trkpt>
      <trkpt lat="42.996056" lon="-2.366427">
        <ele>751.194821139113</ele>
        <time>2018-06-09T06:03:16.000Z</time>
      </trkpt>
      <trkpt lat="42.995974" lon="-2.366503">
        <ele>753.94015452997</ele>
        <time>2018-06-09T06:03:28.000Z</time>
      </trkpt>
      <trkpt lat="42.995892" lon="-2.366556">
        <ele>755.299987792969</ele>
        <time>2018-06-09T06:03:38.000Z</time>
      </trkpt>
      <trkpt lat="42.995816" lon="-2.366634">
        <ele>756.900024414063</ele>
        <time>2018-06-09T06:03:50.000Z</time>
      </trkpt>
      <trkpt lat="42.995762" lon="-2.366727">
        <ele>760.272127210959</ele>
        <time>2018-06-09T06:04:03.000Z</time>
      </trkpt>
      <trkpt lat="42.995746" lon="-2.366849">
        <ele>762.940373626284</ele>
        <time>2018-06-09T06:04:14.000Z</time>
      </trkpt>
      <trkpt lat="42.995722" lon="-2.366967">
        <ele>763.86037045426</ele>
        <time>2018-06-09T06:04:23.000Z</time>
      </trkpt>
      <trkpt lat="42.995698" lon="-2.367003">
        <ele>764.301097498724</ele>
        <time>2018-06-09T06:04:26.000Z</time>
      </trkpt>
      <trkpt lat="42.995684" lon="-2.367025">
        <ele>765.140801088281</ele>
        <time>2018-06-09T06:04:29.000Z</time>
      </trkpt>
      <trkpt lat="42.995664" lon="-2.367043">
        <ele>765.599975585938</ele>
        <time>2018-06-09T06:04:32.000Z</time>
      </trkpt>
      <trkpt lat="42.995606" lon="-2.367141">
        <ele>766.188771192223</ele>
        <time>2018-06-09T06:04:41.000Z</time>
      </trkpt>
      <trkpt lat="42.995591" lon="-2.367197">
        <ele>767.063694123299</ele>
        <time>2018-06-09T06:04:44.000Z</time>
      </trkpt>
      <trkpt lat="42.995577" lon="-2.367215">
        <ele>767.907931003523</ele>
        <time>2018-06-09T06:04:46.000Z</time>
      </trkpt>
      <trkpt lat="42.995552" lon="-2.367248">
        <ele>768.134727165447</ele>
        <time>2018-06-09T06:04:48.000Z</time>
      </trkpt>
      <trkpt lat="42.995537" lon="-2.367266">
        <ele>768.597210146721</ele>
        <time>2018-06-09T06:04:50.000Z</time>
      </trkpt>
      <trkpt lat="42.995516" lon="-2.367385">
        <ele>771.203093175781</ele>
        <time>2018-06-09T06:05:03.000Z</time>
      </trkpt>
      <trkpt lat="42.995514" lon="-2.367518">
        <ele>772.970736264926</ele>
        <time>2018-06-09T06:05:13.000Z</time>
      </trkpt>
      <trkpt lat="42.995494" lon="-2.367639">
        <ele>775.219629362413</ele>
        <time>2018-06-09T06:05:23.000Z</time>
      </trkpt>
      <trkpt lat="42.995476" lon="-2.367736">
        <ele>776.42574365778</ele>
        <time>2018-06-09T06:05:31.000Z</time>
      </trkpt>
      <trkpt lat="42.995453" lon="-2.367854">
        <ele>778.156479488928</ele>
        <time>2018-06-09T06:05:42.000Z</time>
      </trkpt>
      <trkpt lat="42.995419" lon="-2.367966">
        <ele>779.560668199319</ele>
        <time>2018-06-09T06:05:50.000Z</time>
      </trkpt>
      <trkpt lat="42.995434" lon="-2.368092">
        <ele>781.044699076487</ele>
        <time>2018-06-09T06:06:02.000Z</time>
      </trkpt>
      <trkpt lat="42.995387" lon="-2.368217">
        <ele>782.282491905469</ele>
        <time>2018-06-09T06:06:10.000Z</time>
      </trkpt>
      <trkpt lat="42.995322" lon="-2.368308">
        <ele>783.569028863154</ele>
        <time>2018-06-09T06:06:16.000Z</time>
      </trkpt>
      <trkpt lat="42.995267" lon="-2.368412">
        <ele>784.862554759627</ele>
        <time>2018-06-09T06:06:26.000Z</time>
      </trkpt>
      <trkpt lat="42.995215" lon="-2.368511">
        <ele>786.609788652053</ele>
        <time>2018-06-09T06:06:36.000Z</time>
      </trkpt>
      <trkpt lat="42.995155" lon="-2.368612">
        <ele>789.192572583359</ele>
        <time>2018-06-09T06:06:44.000Z</time>
      </trkpt>
      <trkpt lat="42.995083" lon="-2.36869">
        <ele>790</ele>
        <time>2018-06-09T06:06:51.000Z</time>
      </trkpt>
      <trkpt lat="42.995001" lon="-2.368757">
        <ele>792.27887241073</ele>
        <time>2018-06-09T06:06:59.000Z</time>
      </trkpt>
      <trkpt lat="42.994908" lon="-2.368811">
        <ele>793.291527084645</ele>
        <time>2018-06-09T06:07:06.000Z</time>
      </trkpt>
      <trkpt lat="42.994813" lon="-2.368838">
        <ele>794.799987792969</ele>
        <time>2018-06-09T06:07:13.000Z</time>
      </trkpt>
      <trkpt lat="42.994724" lon="-2.368886">
        <ele>795.49939922675</ele>
        <time>2018-06-09T06:07:23.000Z</time>
      </trkpt>
      <trkpt lat="42.994634" lon="-2.368926">
        <ele>796.602388050465</ele>
        <time>2018-06-09T06:07:31.000Z</time>
      </trkpt>
      <trkpt lat="42.994555" lon="-2.36893">
        <ele>798.814400686036</ele>
        <time>2018-06-09T06:07:44.000Z</time>
      </trkpt>
      <trkpt lat="42.99452" lon="-2.368934">
        <ele>800.405645495225</ele>
        <time>2018-06-09T06:07:50.000Z</time>
      </trkpt>
      <trkpt lat="42.994501" lon="-2.368929">
        <ele>800.599975585938</ele>
        <time>2018-06-09T06:07:52.000Z</time>
      </trkpt>
      <trkpt lat="42.99448" lon="-2.368935">
        <ele>800.969029214063</ele>
        <time>2018-06-09T06:07:54.000Z</time>
      </trkpt>
      <trkpt lat="42.994461" lon="-2.368941">
        <ele>802.099975585938</ele>
        <time>2018-06-09T06:07:57.000Z</time>
      </trkpt>
      <trkpt lat="42.994447" lon="-2.368917">
        <ele>802.408966836285</ele>
        <time>2018-06-09T06:08:00.000Z</time>
      </trkpt>
      <trkpt lat="42.994427" lon="-2.368899">
        <ele>802.509917032393</ele>
        <time>2018-06-09T06:08:02.000Z</time>
      </trkpt>
      <trkpt lat="42.994409" lon="-2.368885">
        <ele>802.810091971875</ele>
        <time>2018-06-09T06:08:04.000Z</time>
      </trkpt>
      <trkpt lat="42.994388" lon="-2.368873">
        <ele>803.310222503442</ele>
        <time>2018-06-09T06:08:06.000Z</time>
      </trkpt>
      <trkpt lat="42.994368" lon="-2.368871">
        <ele>804</ele>
        <time>2018-06-09T06:08:09.000Z</time>
      </trkpt>
      <trkpt lat="42.994341" lon="-2.368858">
        <ele>804.200012207031</ele>
        <time>2018-06-09T06:08:11.000Z</time>
      </trkpt>
      <trkpt lat="42.994312" lon="-2.368854">
        <ele>804.288154912061</ele>
        <time>2018-06-09T06:08:13.000Z</time>
      </trkpt>
      <trkpt lat="42.994288" lon="-2.368866">
        <ele>804.200012207031</ele>
        <time>2018-06-09T06:08:15.000Z</time>
      </trkpt>
      <trkpt lat="42.994264" lon="-2.368869">
        <ele>804.200012207031</ele>
        <time>2018-06-09T06:08:17.000Z</time>
      </trkpt>
      <trkpt lat="42.99423" lon="-2.368876">
        <ele>804.900024414063</ele>
        <time>2018-06-09T06:08:19.000Z</time>
      </trkpt>
      <trkpt lat="42.994201" lon="-2.368902">
        <ele>804.944209974991</ele>
        <time>2018-06-09T06:08:21.000Z</time>
      </trkpt>
      <trkpt lat="42.994176" lon="-2.368921">
        <ele>805.529721783634</ele>
        <time>2018-06-09T06:08:23.000Z</time>
      </trkpt>
      <trkpt lat="42.994152" lon="-2.368933">
        <ele>806.046429530671</ele>
        <time>2018-06-09T06:08:25.000Z</time>
      </trkpt>
      <trkpt lat="42.994132" lon="-2.368947">
        <ele>806.315889154736</ele>
        <time>2018-06-09T06:08:27.000Z</time>
      </trkpt>
      <trkpt lat="42.994115" lon="-2.368961">
        <ele>806.416837098284</ele>
        <time>2018-06-09T06:08:29.000Z</time>
      </trkpt>
      <trkpt lat="42.994094" lon="-2.368969">
        <ele>806.716858563676</ele>
        <time>2018-06-09T06:08:31.000Z</time>
      </trkpt>
      <trkpt lat="42.994077" lon="-2.368974">
        <ele>807.251963403231</ele>
        <time>2018-06-09T06:08:33.000Z</time>
      </trkpt>
      <trkpt lat="42.994059" lon="-2.368996">
        <ele>807.900024414063</ele>
        <time>2018-06-09T06:08:35.000Z</time>
      </trkpt>
      <trkpt lat="42.994064" lon="-2.369033">
        <ele>808.51895263255</ele>
        <time>2018-06-09T06:08:39.000Z</time>
      </trkpt>
      <trkpt lat="42.994047" lon="-2.36904">
        <ele>808.900024414063</ele>
        <time>2018-06-09T06:08:42.000Z</time>
      </trkpt>
      <trkpt lat="42.994051" lon="-2.369075">
        <ele>810.400024414063</ele>
        <time>2018-06-09T06:08:47.000Z</time>
      </trkpt>
      <trkpt lat="42.993993" lon="-2.369115">
        <ele>810.826385290391</ele>
        <time>2018-06-09T06:08:51.000Z</time>
      </trkpt>
      <trkpt lat="42.99398" lon="-2.369135">
        <ele>811.299987792969</ele>
        <time>2018-06-09T06:08:52.000Z</time>
      </trkpt>
      <trkpt lat="42.993938" lon="-2.369212">
        <ele>812.041644116548</ele>
        <time>2018-06-09T06:08:54.000Z</time>
      </trkpt>
      <trkpt lat="42.993898" lon="-2.369269">
        <ele>812.385450892357</ele>
        <time>2018-06-09T06:08:56.000Z</time>
      </trkpt>
      <trkpt lat="42.99388" lon="-2.369295">
        <ele>812.765135499366</ele>
        <time>2018-06-09T06:08:57.000Z</time>
      </trkpt>
      <trkpt lat="42.993865" lon="-2.369311">
        <ele>813</ele>
        <time>2018-06-09T06:08:58.000Z</time>
      </trkpt>
      <trkpt lat="42.993839" lon="-2.369324">
        <ele>813.423111318612</ele>
        <time>2018-06-09T06:09:00.000Z</time>
      </trkpt>
      <trkpt lat="42.993817" lon="-2.369324">
        <ele>813.546802216406</ele>
        <time>2018-06-09T06:09:01.000Z</time>
      </trkpt>
      <trkpt lat="42.993794" lon="-2.36933">
        <ele>813.700012207031</ele>
        <time>2018-06-09T06:09:02.000Z</time>
      </trkpt>
      <trkpt lat="42.993775" lon="-2.369343">
        <ele>813.889944407234</ele>
        <time>2018-06-09T06:09:03.000Z</time>
      </trkpt>
      <trkpt lat="42.993759" lon="-2.369355">
        <ele>814.524169640905</ele>
        <time>2018-06-09T06:09:04.000Z</time>
      </trkpt>
      <trkpt lat="42.99374" lon="-2.369367">
        <ele>814.648475365156</ele>
        <time>2018-06-09T06:09:06.000Z</time>
      </trkpt>
      <trkpt lat="42.993711" lon="-2.369378">
        <ele>815.200012207031</ele>
        <time>2018-06-09T06:09:08.000Z</time>
      </trkpt>
      <trkpt lat="42.99369" lon="-2.369392">
        <ele>815.378351710136</ele>
        <time>2018-06-09T06:09:10.000Z</time>
      </trkpt>
      <trkpt lat="42.99367" lon="-2.369413">
        <ele>815.900024414063</ele>
        <time>2018-06-09T06:09:12.000Z</time>
      </trkpt>
      <trkpt lat="42.993646" lon="-2.369418">
        <ele>815.754032184965</ele>
        <time>2018-06-09T06:09:14.000Z</time>
      </trkpt>
      <trkpt lat="42.993607" lon="-2.369422">
        <ele>816.310649588284</ele>
        <time>2018-06-09T06:09:16.000Z</time>
      </trkpt>
      <trkpt lat="42.993586" lon="-2.369416">
        <ele>816.599975585938</ele>
        <time>2018-06-09T06:09:17.000Z</time>
      </trkpt>
      <trkpt lat="42.993568" lon="-2.369424">
        <ele>816.756441395087</ele>
        <time>2018-06-09T06:09:19.000Z</time>
      </trkpt>
      <trkpt lat="42.993544" lon="-2.369422">
        <ele>818</ele>
        <time>2018-06-09T06:09:21.000Z</time>
      </trkpt>
      <trkpt lat="42.99353" lon="-2.369438">
        <ele>818.088161925882</ele>
        <time>2018-06-09T06:09:23.000Z</time>
      </trkpt>
      <trkpt lat="42.993514" lon="-2.369463">
        <ele>818.700012207031</ele>
        <time>2018-06-09T06:09:26.000Z</time>
      </trkpt>
      <trkpt lat="42.993484" lon="-2.369472">
        <ele>819.099975585938</ele>
        <time>2018-06-09T06:09:28.000Z</time>
      </trkpt>
      <trkpt lat="42.993463" lon="-2.369493">
        <ele>819.195979192189</ele>
        <time>2018-06-09T06:09:30.000Z</time>
      </trkpt>
      <trkpt lat="42.993446" lon="-2.369522">
        <ele>819.732901826558</ele>
        <time>2018-06-09T06:09:32.000Z</time>
      </trkpt>
      <trkpt lat="42.993428" lon="-2.369536">
        <ele>819.933684859108</ele>
        <time>2018-06-09T06:09:34.000Z</time>
      </trkpt>
      <trkpt lat="42.993408" lon="-2.369562">
        <ele>820.169466021578</ele>
        <time>2018-06-09T06:09:36.000Z</time>
      </trkpt>
      <trkpt lat="42.99339" lon="-2.369591">
        <ele>820.548333904651</ele>
        <time>2018-06-09T06:09:38.000Z</time>
      </trkpt>
      <trkpt lat="42.993365" lon="-2.36961">
        <ele>821</ele>
        <time>2018-06-09T06:09:40.000Z</time>
      </trkpt>
      <trkpt lat="42.993339" lon="-2.369638">
        <ele>821.173927437369</ele>
        <time>2018-06-09T06:09:42.000Z</time>
      </trkpt>
      <trkpt lat="42.993314" lon="-2.369663">
        <ele>821.799987792969</ele>
        <time>2018-06-09T06:09:44.000Z</time>
      </trkpt>
      <trkpt lat="42.99329" lon="-2.369692">
        <ele>822.287038276107</ele>
        <time>2018-06-09T06:09:46.000Z</time>
      </trkpt>
      <trkpt lat="42.993275" lon="-2.369708">
        <ele>823.099975585938</ele>
        <time>2018-06-09T06:09:48.000Z</time>
      </trkpt>
      <trkpt lat="42.993258" lon="-2.369729">
        <ele>823.200012207031</ele>
        <time>2018-06-09T06:09:50.000Z</time>
      </trkpt>
      <trkpt lat="42.993249" lon="-2.369753">
        <ele>823.278530872141</ele>
        <time>2018-06-09T06:09:52.000Z</time>
      </trkpt>
      <trkpt lat="42.993237" lon="-2.369773">
        <ele>825.13946855409</ele>
        <time>2018-06-09T06:09:54.000Z</time>
      </trkpt>
      <trkpt lat="42.993213" lon="-2.369802">
        <ele>825.620656013893</ele>
        <time>2018-06-09T06:09:57.000Z</time>
      </trkpt>
      <trkpt lat="42.993193" lon="-2.369826">
        <ele>826.221739940626</ele>
        <time>2018-06-09T06:09:59.000Z</time>
      </trkpt>
      <trkpt lat="42.993175" lon="-2.36984">
        <ele>826.706324217344</ele>
        <time>2018-06-09T06:10:01.000Z</time>
      </trkpt>
      <trkpt lat="42.993164" lon="-2.369864">
        <ele>827.183514284208</ele>
        <time>2018-06-09T06:10:03.000Z</time>
      </trkpt>
      <trkpt lat="42.993149" lon="-2.369882">
        <ele>827.807594876562</ele>
        <time>2018-06-09T06:10:05.000Z</time>
      </trkpt>
      <trkpt lat="42.99314" lon="-2.369909">
        <ele>828.742471605698</ele>
        <time>2018-06-09T06:10:07.000Z</time>
      </trkpt>
      <trkpt lat="42.993128" lon="-2.369935">
        <ele>829.331026014062</ele>
        <time>2018-06-09T06:10:09.000Z</time>
      </trkpt>
      <trkpt lat="42.993119" lon="-2.369965">
        <ele>830.200012207031</ele>
        <time>2018-06-09T06:10:11.000Z</time>
      </trkpt>
      <trkpt lat="42.993103" lon="-2.369984">
        <ele>830.663677887878</ele>
        <time>2018-06-09T06:10:13.000Z</time>
      </trkpt>
      <trkpt lat="42.993091" lon="-2.370016">
        <ele>831.23252812882</ele>
        <time>2018-06-09T06:10:15.000Z</time>
      </trkpt>
      <trkpt lat="42.99307" lon="-2.370037">
        <ele>831.644581431452</ele>
        <time>2018-06-09T06:10:17.000Z</time>
      </trkpt>
      <trkpt lat="42.993052" lon="-2.370065">
        <ele>832.07970565312</ele>
        <time>2018-06-09T06:10:19.000Z</time>
      </trkpt>
      <trkpt lat="42.993041" lon="-2.370096">
        <ele>832.826884971259</ele>
        <time>2018-06-09T06:10:21.000Z</time>
      </trkpt>
      <trkpt lat="42.993029" lon="-2.370115">
        <ele>833.238088215149</ele>
        <time>2018-06-09T06:10:23.000Z</time>
      </trkpt>
      <trkpt lat="42.993011" lon="-2.37013">
        <ele>834.235206891682</ele>
        <time>2018-06-09T06:10:27.000Z</time>
      </trkpt>
      <trkpt lat="42.993009" lon="-2.370157">
        <ele>835.143195853998</ele>
        <time>2018-06-09T06:10:30.000Z</time>
      </trkpt>
      <trkpt lat="42.993008" lon="-2.370188">
        <ele>835.448008694699</ele>
        <time>2018-06-09T06:10:32.000Z</time>
      </trkpt>
      <trkpt lat="42.993007" lon="-2.370216">
        <ele>836.599975585938</ele>
        <time>2018-06-09T06:10:36.000Z</time>
      </trkpt>
      <trkpt lat="42.992991" lon="-2.370224">
        <ele>837.595406782812</ele>
        <time>2018-06-09T06:10:38.000Z</time>
      </trkpt>
      <trkpt lat="42.992973" lon="-2.37021">
        <ele>837.795609879276</ele>
        <time>2018-06-09T06:10:39.000Z</time>
      </trkpt>
      <trkpt lat="42.992986" lon="-2.370236">
        <ele>838.336483971663</ele>
        <time>2018-06-09T06:10:43.000Z</time>
      </trkpt>
      <trkpt lat="42.992982" lon="-2.37027">
        <ele>839</ele>
        <time>2018-06-09T06:10:46.000Z</time>
      </trkpt>
      <trkpt lat="42.992979" lon="-2.370299">
        <ele>839.147897714441</ele>
        <time>2018-06-09T06:10:48.000Z</time>
      </trkpt>
      <trkpt lat="42.992976" lon="-2.370331">
        <ele>839.448031021203</ele>
        <time>2018-06-09T06:10:50.000Z</time>
      </trkpt>
      <trkpt lat="42.992978" lon="-2.370359">
        <ele>840.099975585938</ele>
        <time>2018-06-09T06:10:53.000Z</time>
      </trkpt>
      <trkpt lat="42.992967" lon="-2.370394">
        <ele>840.200383155554</ele>
        <time>2018-06-09T06:10:55.000Z</time>
      </trkpt>
      <trkpt lat="42.992965" lon="-2.370429">
        <ele>840.750746554364</ele>
        <time>2018-06-09T06:10:57.000Z</time>
      </trkpt>
      <trkpt lat="42.992961" lon="-2.370453">
        <ele>841.249549176665</ele>
        <time>2018-06-09T06:10:59.000Z</time>
      </trkpt>
      <trkpt lat="42.992942" lon="-2.370493">
        <ele>842</ele>
        <time>2018-06-09T06:11:02.000Z</time>
      </trkpt>
      <trkpt lat="42.992933" lon="-2.37053">
        <ele>842.050187664958</ele>
        <time>2018-06-09T06:11:03.000Z</time>
      </trkpt>
      <trkpt lat="42.992931" lon="-2.370561">
        <ele>842.549838815136</ele>
        <time>2018-06-09T06:11:05.000Z</time>
      </trkpt>
      <trkpt lat="42.992938" lon="-2.370588">
        <ele>842.74960089459</ele>
        <time>2018-06-09T06:11:07.000Z</time>
      </trkpt>
      <trkpt lat="42.992946" lon="-2.370619">
        <ele>843.896595361066</ele>
        <time>2018-06-09T06:11:11.000Z</time>
      </trkpt>
      <trkpt lat="42.992935" lon="-2.370646">
        <ele>844.299987792969</ele>
        <time>2018-06-09T06:11:13.000Z</time>
      </trkpt>
      <trkpt lat="42.992927" lon="-2.370692">
        <ele>844.744</ele>
        <time>2018-06-09T06:11:15.000Z</time>
      </trkpt>
      <trkpt lat="42.992921" lon="-2.370735">
        <ele>845.299987792969</ele>
        <time>2018-06-09T06:11:17.000Z</time>
      </trkpt>
      <trkpt lat="42.99291" lon="-2.370772">
        <ele>845.544772561575</ele>
        <time>2018-06-09T06:11:19.000Z</time>
      </trkpt>
      <trkpt lat="42.992898" lon="-2.370802">
        <ele>846.046249891176</ele>
        <time>2018-06-09T06:11:21.000Z</time>
      </trkpt>
      <trkpt lat="42.992898" lon="-2.370835">
        <ele>846.497702695192</ele>
        <time>2018-06-09T06:11:23.000Z</time>
      </trkpt>
      <trkpt lat="42.992898" lon="-2.370865">
        <ele>846.900024414063</ele>
        <time>2018-06-09T06:11:25.000Z</time>
      </trkpt>
      <trkpt lat="42.992893" lon="-2.370912">
        <ele>847.249499282198</ele>
        <time>2018-06-09T06:11:27.000Z</time>
      </trkpt>
      <trkpt lat="42.992901" lon="-2.370955">
        <ele>847.5</ele>
        <time>2018-06-09T06:11:29.000Z</time>
      </trkpt>
      <trkpt lat="42.992907" lon="-2.370994">
        <ele>847.649693025784</ele>
        <time>2018-06-09T06:11:31.000Z</time>
      </trkpt>
      <trkpt lat="42.992908" lon="-2.371033">
        <ele>847.900194794704</ele>
        <time>2018-06-09T06:11:33.000Z</time>
      </trkpt>
      <trkpt lat="42.992899" lon="-2.371076">
        <ele>848</ele>
        <time>2018-06-09T06:11:35.000Z</time>
      </trkpt>
      <trkpt lat="42.992897" lon="-2.371108">
        <ele>848.153281114354</ele>
        <time>2018-06-09T06:11:37.000Z</time>
      </trkpt>
      <trkpt lat="42.992891" lon="-2.371142">
        <ele>848.299987792969</ele>
        <time>2018-06-09T06:11:39.000Z</time>
      </trkpt>
      <trkpt lat="42.992892" lon="-2.371172">
        <ele>848.200012207031</ele>
        <time>2018-06-09T06:11:41.000Z</time>
      </trkpt>
      <trkpt lat="42.992898" lon="-2.371203">
        <ele>848.400024414063</ele>
        <time>2018-06-09T06:11:43.000Z</time>
      </trkpt>
      <trkpt lat="42.992901" lon="-2.371238">
        <ele>848.400024414063</ele>
        <time>2018-06-09T06:11:45.000Z</time>
      </trkpt>
      <trkpt lat="42.992906" lon="-2.371269">
        <ele>848.400024414063</ele>
        <time>2018-06-09T06:11:47.000Z</time>
      </trkpt>
      <trkpt lat="42.992909" lon="-2.371302">
        <ele>848.56280681585</ele>
        <time>2018-06-09T06:11:48.000Z</time>
      </trkpt>
      <trkpt lat="42.992917" lon="-2.371337">
        <ele>848.972012207031</ele>
        <time>2018-06-09T06:11:49.000Z</time>
      </trkpt>
      <trkpt lat="42.992926" lon="-2.371371">
        <ele>849.308927588773</ele>
        <time>2018-06-09T06:11:51.000Z</time>
      </trkpt>
      <trkpt lat="42.992936" lon="-2.371409">
        <ele>849.5</ele>
        <time>2018-06-09T06:11:53.000Z</time>
      </trkpt>
      <trkpt lat="42.992943" lon="-2.371431">
        <ele>850</ele>
        <time>2018-06-09T06:11:55.000Z</time>
      </trkpt>
      <trkpt lat="42.992946" lon="-2.371456">
        <ele>849.721551212973</ele>
        <time>2018-06-09T06:11:57.000Z</time>
      </trkpt>
      <trkpt lat="42.992948" lon="-2.371492">
        <ele>849.5</ele>
        <time>2018-06-09T06:11:59.000Z</time>
      </trkpt>
      <trkpt lat="42.992951" lon="-2.371535">
        <ele>850.224364429732</ele>
        <time>2018-06-09T06:12:01.000Z</time>
      </trkpt>
      <trkpt lat="42.992947" lon="-2.371562">
        <ele>850.456010742187</ele>
        <time>2018-06-09T06:12:03.000Z</time>
      </trkpt>
      <trkpt lat="42.992948" lon="-2.371593">
        <ele>850.668929498109</ele>
        <time>2018-06-09T06:12:05.000Z</time>
      </trkpt>
      <trkpt lat="42.992948" lon="-2.371634">
        <ele>851.256511895922</ele>
        <time>2018-06-09T06:12:07.000Z</time>
      </trkpt>
      <trkpt lat="42.99296" lon="-2.371671">
        <ele>851.656796386719</ele>
        <time>2018-06-09T06:12:09.000Z</time>
      </trkpt>
      <trkpt lat="42.992956" lon="-2.371704">
        <ele>851.700012207031</ele>
        <time>2018-06-09T06:12:10.000Z</time>
      </trkpt>
      <trkpt lat="42.992944" lon="-2.371742">
        <ele>851.970081351563</ele>
        <time>2018-06-09T06:12:12.000Z</time>
      </trkpt>
      <trkpt lat="42.992932" lon="-2.371769">
        <ele>852.099975585938</ele>
        <time>2018-06-09T06:12:14.000Z</time>
      </trkpt>
      <trkpt lat="42.992933" lon="-2.37181">
        <ele>852.582923626696</ele>
        <time>2018-06-09T06:12:16.000Z</time>
      </trkpt>
      <trkpt lat="42.992935" lon="-2.371858">
        <ele>853.297596679687</ele>
        <time>2018-06-09T06:12:18.000Z</time>
      </trkpt>
      <trkpt lat="42.992938" lon="-2.371897">
        <ele>853.941054929664</ele>
        <time>2018-06-09T06:12:20.000Z</time>
      </trkpt>
      <trkpt lat="42.992932" lon="-2.371923">
        <ele>854.400024414063</ele>
        <time>2018-06-09T06:12:22.000Z</time>
      </trkpt>
      <trkpt lat="42.992928" lon="-2.371963">
        <ele>854.670263549722</ele>
        <time>2018-06-09T06:12:24.000Z</time>
      </trkpt>
      <trkpt lat="42.992925" lon="-2.371997">
        <ele>854.856894715133</ele>
        <time>2018-06-09T06:12:26.000Z</time>
      </trkpt>
      <trkpt lat="42.992925" lon="-2.372024">
        <ele>855.257069052131</ele>
        <time>2018-06-09T06:12:28.000Z</time>
      </trkpt>
      <trkpt lat="42.992934" lon="-2.372049">
        <ele>855.457153320313</ele>
        <time>2018-06-09T06:12:30.000Z</time>
      </trkpt>
      <trkpt lat="42.992942" lon="-2.372079">
        <ele>855.985940006525</ele>
        <time>2018-06-09T06:12:32.000Z</time>
      </trkpt>
      <trkpt lat="42.992948" lon="-2.37211">
        <ele>856.314448187734</ele>
        <time>2018-06-09T06:12:34.000Z</time>
      </trkpt>
      <trkpt lat="42.992953" lon="-2.372143">
        <ele>856.400024414063</ele>
        <time>2018-06-09T06:12:36.000Z</time>
      </trkpt>
      <trkpt lat="42.992956" lon="-2.372168">
        <ele>856.900024414063</ele>
        <time>2018-06-09T06:12:38.000Z</time>
      </trkpt>
      <trkpt lat="42.99297" lon="-2.37219">
        <ele>856.900024414063</ele>
        <time>2018-06-09T06:12:40.000Z</time>
      </trkpt>
      <trkpt lat="42.992982" lon="-2.372214">
        <ele>856.785818403906</ele>
        <time>2018-06-09T06:12:42.000Z</time>
      </trkpt>
      <trkpt lat="42.992988" lon="-2.372253">
        <ele>856.700012207031</ele>
        <time>2018-06-09T06:12:44.000Z</time>
      </trkpt>
      <trkpt lat="42.992989" lon="-2.372293">
        <ele>856.585806196875</ele>
        <time>2018-06-09T06:12:46.000Z</time>
      </trkpt>
      <trkpt lat="42.993001" lon="-2.372336">
        <ele>856.700012207031</ele>
        <time>2018-06-09T06:12:48.000Z</time>
      </trkpt>
      <trkpt lat="42.993011" lon="-2.372362">
        <ele>856.75765569579</ele>
        <time>2018-06-09T06:12:49.000Z</time>
      </trkpt>
      <trkpt lat="42.993021" lon="-2.372388">
        <ele>856.799987792969</ele>
        <time>2018-06-09T06:12:50.000Z</time>
      </trkpt>
      <trkpt lat="42.993031" lon="-2.372427">
        <ele>857.631139799424</ele>
        <time>2018-06-09T06:12:52.000Z</time>
      </trkpt>
      <trkpt lat="42.993039" lon="-2.372464">
        <ele>857.957537902786</ele>
        <time>2018-06-09T06:12:54.000Z</time>
      </trkpt>
      <trkpt lat="42.993041" lon="-2.372495">
        <ele>858</ele>
        <time>2018-06-09T06:12:56.000Z</time>
      </trkpt>
      <trkpt lat="42.993044" lon="-2.372531">
        <ele>858.05677258494</ele>
        <time>2018-06-09T06:12:58.000Z</time>
      </trkpt>
      <trkpt lat="42.993053" lon="-2.372564">
        <ele>857.986403320313</ele>
        <time>2018-06-09T06:13:00.000Z</time>
      </trkpt>
      <trkpt lat="42.993055" lon="-2.372611">
        <ele>858.01285801372</ele>
        <time>2018-06-09T06:13:02.000Z</time>
      </trkpt>
      <trkpt lat="42.993058" lon="-2.372637">
        <ele>858.269411298561</ele>
        <time>2018-06-09T06:13:03.000Z</time>
      </trkpt>
      <trkpt lat="42.993067" lon="-2.372683">
        <ele>858.456242181331</ele>
        <time>2018-06-09T06:13:05.000Z</time>
      </trkpt>
      <trkpt lat="42.993076" lon="-2.372704">
        <ele>858.668800423549</ele>
        <time>2018-06-09T06:13:06.000Z</time>
      </trkpt>
      <trkpt lat="42.993087" lon="-2.372727">
        <ele>859.365688579966</ele>
        <time>2018-06-09T06:13:07.000Z</time>
      </trkpt>
      <trkpt lat="42.9931" lon="-2.372754">
        <ele>860.613520580354</ele>
        <time>2018-06-09T06:13:09.000Z</time>
      </trkpt>
      <trkpt lat="42.993106" lon="-2.37279">
        <ele>861.113434054338</ele>
        <time>2018-06-09T06:13:11.000Z</time>
      </trkpt>
      <trkpt lat="42.993107" lon="-2.37283">
        <ele>861.670182842569</ele>
        <time>2018-06-09T06:13:13.000Z</time>
      </trkpt>
      <trkpt lat="42.993109" lon="-2.372862">
        <ele>862.026576050065</ele>
        <time>2018-06-09T06:13:15.000Z</time>
      </trkpt>
      <trkpt lat="42.993114" lon="-2.372889">
        <ele>862.5</ele>
        <time>2018-06-09T06:13:17.000Z</time>
      </trkpt>
      <trkpt lat="42.993115" lon="-2.372915">
        <ele>862.5</ele>
        <time>2018-06-09T06:13:19.000Z</time>
      </trkpt>
      <trkpt lat="42.993106" lon="-2.372945">
        <ele>863.335986328125</ele>
        <time>2018-06-09T06:13:22.000Z</time>
      </trkpt>
      <trkpt lat="42.993102" lon="-2.372978">
        <ele>864.511997070313</ele>
        <time>2018-06-09T06:13:24.000Z</time>
      </trkpt>
      <trkpt lat="42.993095" lon="-2.37301">
        <ele>865.211782729687</ele>
        <time>2018-06-09T06:13:26.000Z</time>
      </trkpt>
      <trkpt lat="42.993086" lon="-2.373047">
        <ele>866.111094590192</ele>
        <time>2018-06-09T06:13:29.000Z</time>
      </trkpt>
      <trkpt lat="42.99308" lon="-2.373079">
        <ele>866.533666288586</ele>
        <time>2018-06-09T06:13:30.000Z</time>
      </trkpt>
      <trkpt lat="42.993084" lon="-2.373117">
        <ele>867.489413209129</ele>
        <time>2018-06-09T06:13:32.000Z</time>
      </trkpt>
      <trkpt lat="42.993087" lon="-2.373141">
        <ele>868.354982992969</ele>
        <time>2018-06-09T06:13:33.000Z</time>
      </trkpt>
      <trkpt lat="42.993087" lon="-2.373177">
        <ele>869.511287091905</ele>
        <time>2018-06-09T06:13:35.000Z</time>
      </trkpt>
      <trkpt lat="42.993088" lon="-2.373208">
        <ele>869.855619434848</ele>
        <time>2018-06-09T06:13:37.000Z</time>
      </trkpt>
      <trkpt lat="42.99309" lon="-2.373237">
        <ele>870.211159909296</ele>
        <time>2018-06-09T06:13:39.000Z</time>
      </trkpt>
      <trkpt lat="42.993089" lon="-2.373282">
        <ele>870.72285887125</ele>
        <time>2018-06-09T06:13:41.000Z</time>
      </trkpt>
      <trkpt lat="42.993084" lon="-2.373316">
        <ele>871.56588549999</ele>
        <time>2018-06-09T06:13:43.000Z</time>
      </trkpt>
      <trkpt lat="42.993076" lon="-2.373364">
        <ele>872.210272204075</ele>
        <time>2018-06-09T06:13:45.000Z</time>
      </trkpt>
      <trkpt lat="42.993081" lon="-2.373398">
        <ele>872.910815524251</ele>
        <time>2018-06-09T06:13:47.000Z</time>
      </trkpt>
      <trkpt lat="42.993086" lon="-2.373428">
        <ele>873.411305864834</ele>
        <time>2018-06-09T06:13:49.000Z</time>
      </trkpt>
      <trkpt lat="42.993081" lon="-2.373468">
        <ele>874.367205087167</ele>
        <time>2018-06-09T06:13:51.000Z</time>
      </trkpt>
      <trkpt lat="42.993075" lon="-2.373503">
        <ele>875.11120693048</ele>
        <time>2018-06-09T06:13:53.000Z</time>
      </trkpt>
      <trkpt lat="42.993071" lon="-2.373527">
        <ele>875.366307124731</ele>
        <time>2018-06-09T06:13:54.000Z</time>
      </trkpt>
      <trkpt lat="42.993063" lon="-2.373564">
        <ele>876.077040211238</ele>
        <time>2018-06-09T06:13:56.000Z</time>
      </trkpt>
      <trkpt lat="42.993047" lon="-2.373601">
        <ele>876.776944597029</ele>
        <time>2018-06-09T06:13:58.000Z</time>
      </trkpt>
      <trkpt lat="42.993037" lon="-2.373621">
        <ele>877.221212860938</ele>
        <time>2018-06-09T06:13:59.000Z</time>
      </trkpt>
      <trkpt lat="42.993026" lon="-2.373662">
        <ele>878.140725452541</ele>
        <time>2018-06-09T06:14:01.000Z</time>
      </trkpt>
      <trkpt lat="42.993019" lon="-2.3737">
        <ele>878.765799646539</ele>
        <time>2018-06-09T06:14:03.000Z</time>
      </trkpt>
      <trkpt lat="42.993007" lon="-2.373726">
        <ele>879.410594223438</ele>
        <time>2018-06-09T06:14:05.000Z</time>
      </trkpt>
      <trkpt lat="42.992993" lon="-2.37376">
        <ele>880.276</ele>
        <time>2018-06-09T06:14:07.000Z</time>
      </trkpt>
      <trkpt lat="42.99299" lon="-2.373786">
        <ele>880.665428098305</ele>
        <time>2018-06-09T06:14:08.000Z</time>
      </trkpt>
      <trkpt lat="42.992987" lon="-2.37382">
        <ele>881.00966838936</ele>
        <time>2018-06-09T06:14:10.000Z</time>
      </trkpt>
      <trkpt lat="42.992995" lon="-2.373847">
        <ele>882.14852387797</ele>
        <time>2018-06-09T06:14:12.000Z</time>
      </trkpt>
      <trkpt lat="42.993002" lon="-2.37388">
        <ele>882.909975216176</ele>
        <time>2018-06-09T06:14:14.000Z</time>
      </trkpt>
      <trkpt lat="42.993016" lon="-2.373914">
        <ele>883.509908275234</ele>
        <time>2018-06-09T06:14:16.000Z</time>
      </trkpt>
      <trkpt lat="42.99303" lon="-2.373955">
        <ele>884.271685447747</ele>
        <time>2018-06-09T06:14:18.000Z</time>
      </trkpt>
      <trkpt lat="42.993039" lon="-2.373978">
        <ele>885.043631485024</ele>
        <time>2018-06-09T06:14:19.000Z</time>
      </trkpt>
      <trkpt lat="42.993051" lon="-2.374003">
        <ele>885.663329798717</ele>
        <time>2018-06-09T06:14:20.000Z</time>
      </trkpt>
      <trkpt lat="42.993059" lon="-2.37403">
        <ele>885.962368469534</ele>
        <time>2018-06-09T06:14:21.000Z</time>
      </trkpt>
      <trkpt lat="42.993065" lon="-2.374058">
        <ele>886.15394873132</ele>
        <time>2018-06-09T06:14:22.000Z</time>
      </trkpt>
      <trkpt lat="42.99308" lon="-2.374097">
        <ele>886.453650339005</ele>
        <time>2018-06-09T06:14:24.000Z</time>
      </trkpt>
      <trkpt lat="42.993091" lon="-2.37412">
        <ele>886.7138002434</ele>
        <time>2018-06-09T06:14:25.000Z</time>
      </trkpt>
      <trkpt lat="42.993103" lon="-2.374143">
        <ele>887.166759705548</ele>
        <time>2018-06-09T06:14:26.000Z</time>
      </trkpt>
      <trkpt lat="42.993121" lon="-2.374183">
        <ele>887.712364117213</ele>
        <time>2018-06-09T06:14:28.000Z</time>
      </trkpt>
      <trkpt lat="42.993136" lon="-2.374219">
        <ele>888.158869400315</ele>
        <time>2018-06-09T06:14:30.000Z</time>
      </trkpt>
      <trkpt lat="42.99314" lon="-2.374245">
        <ele>888.864680342251</ele>
        <time>2018-06-09T06:14:32.000Z</time>
      </trkpt>
      <trkpt lat="42.993147" lon="-2.374231">
        <ele>890.521320900068</ele>
        <time>2018-06-09T06:14:39.000Z</time>
      </trkpt>
      <trkpt lat="42.993148" lon="-2.374203">
        <ele>891.925471456173</ele>
        <time>2018-06-09T06:14:42.000Z</time>
      </trkpt>
      <trkpt lat="42.993131" lon="-2.374176">
        <ele>892.854362125615</ele>
        <time>2018-06-09T06:14:45.000Z</time>
      </trkpt>
      <trkpt lat="42.993124" lon="-2.374151">
        <ele>893.954348237721</ele>
        <time>2018-06-09T06:14:48.000Z</time>
      </trkpt>
      <trkpt lat="42.993132" lon="-2.374115">
        <ele>894.614804108594</ele>
        <time>2018-06-09T06:14:50.000Z</time>
      </trkpt>
      <trkpt lat="42.993126" lon="-2.374088">
        <ele>895.267697392769</ele>
        <time>2018-06-09T06:14:52.000Z</time>
      </trkpt>
      <trkpt lat="42.99311" lon="-2.37407">
        <ele>896.113337197339</ele>
        <time>2018-06-09T06:14:55.000Z</time>
      </trkpt>
      <trkpt lat="42.99311" lon="-2.374044">
        <ele>896.861243706159</ele>
        <time>2018-06-09T06:14:58.000Z</time>
      </trkpt>
      <trkpt lat="42.993107" lon="-2.374018">
        <ele>897.512351910182</ele>
        <time>2018-06-09T06:15:00.000Z</time>
      </trkpt>
      <trkpt lat="42.993095" lon="-2.373997">
        <ele>897.900024414063</ele>
        <time>2018-06-09T06:15:03.000Z</time>
      </trkpt>
      <trkpt lat="42.993079" lon="-2.373982">
        <ele>898.099975585938</ele>
        <time>2018-06-09T06:15:05.000Z</time>
      </trkpt>
      <trkpt lat="42.99307" lon="-2.373957">
        <ele>898.60854857563</ele>
        <time>2018-06-09T06:15:07.000Z</time>
      </trkpt>
      <trkpt lat="42.993061" lon="-2.373934">
        <ele>899.054241241956</ele>
        <time>2018-06-09T06:15:10.000Z</time>
      </trkpt>
      <trkpt lat="42.993046" lon="-2.37392">
        <ele>900.407870844811</ele>
        <time>2018-06-09T06:15:12.000Z</time>
      </trkpt>
      <trkpt lat="42.993025" lon="-2.373904">
        <ele>901.068524006079</ele>
        <time>2018-06-09T06:15:16.000Z</time>
      </trkpt>
      <trkpt lat="42.993003" lon="-2.373893">
        <ele>901.599975585938</ele>
        <time>2018-06-09T06:15:19.000Z</time>
      </trkpt>
      <trkpt lat="42.992987" lon="-2.373876">
        <ele>902.154249942205</ele>
        <time>2018-06-09T06:15:21.000Z</time>
      </trkpt>
      <trkpt lat="42.992967" lon="-2.373857">
        <ele>902.768960539595</ele>
        <time>2018-06-09T06:15:23.000Z</time>
      </trkpt>
      <trkpt lat="42.992955" lon="-2.373835">
        <ele>903.053686729687</ele>
        <time>2018-06-09T06:15:25.000Z</time>
      </trkpt>
      <trkpt lat="42.992938" lon="-2.373822">
        <ele>903.400024414063</ele>
        <time>2018-06-09T06:15:27.000Z</time>
      </trkpt>
      <trkpt lat="42.992941" lon="-2.373799">
        <ele>904.700012207031</ele>
        <time>2018-06-09T06:15:32.000Z</time>
      </trkpt>
      <trkpt lat="42.992922" lon="-2.37377">
        <ele>905.053387282813</ele>
        <time>2018-06-09T06:15:35.000Z</time>
      </trkpt>
      <trkpt lat="42.9929" lon="-2.373749">
        <ele>905.5</ele>
        <time>2018-06-09T06:15:37.000Z</time>
      </trkpt>
      <trkpt lat="42.992888" lon="-2.373724">
        <ele>905.860944497077</ele>
        <time>2018-06-09T06:15:39.000Z</time>
      </trkpt>
      <trkpt lat="42.992867" lon="-2.37369">
        <ele>906.161115171806</ele>
        <time>2018-06-09T06:15:41.000Z</time>
      </trkpt>
      <trkpt lat="42.992846" lon="-2.373674">
        <ele>906.454211501563</ele>
        <time>2018-06-09T06:15:43.000Z</time>
      </trkpt>
      <trkpt lat="42.99282" lon="-2.373667">
        <ele>907.217465866263</ele>
        <time>2018-06-09T06:15:46.000Z</time>
      </trkpt>
      <trkpt lat="42.9928" lon="-2.373663">
        <ele>907.963018382603</ele>
        <time>2018-06-09T06:15:49.000Z</time>
      </trkpt>
      <trkpt lat="42.992781" lon="-2.373659">
        <ele>908.599975585938</ele>
        <time>2018-06-09T06:15:52.000Z</time>
      </trkpt>
      <trkpt lat="42.992765" lon="-2.373646">
        <ele>909.299987792969</ele>
        <time>2018-06-09T06:15:55.000Z</time>
      </trkpt>
      <trkpt lat="42.99275" lon="-2.373621">
        <ele>909.76163255184</ele>
        <time>2018-06-09T06:15:58.000Z</time>
      </trkpt>
      <trkpt lat="42.992735" lon="-2.373602">
        <ele>910.753591948691</ele>
        <time>2018-06-09T06:16:02.000Z</time>
      </trkpt>
      <trkpt lat="42.992719" lon="-2.373588">
        <ele>911.5</ele>
        <time>2018-06-09T06:16:06.000Z</time>
      </trkpt>
      <trkpt lat="42.992707" lon="-2.373578">
        <ele>912.715329276938</ele>
        <time>2018-06-09T06:16:11.000Z</time>
      </trkpt>
      <trkpt lat="42.992688" lon="-2.373575">
        <ele>913.514114178507</ele>
        <time>2018-06-09T06:16:15.000Z</time>
      </trkpt>
      <trkpt lat="42.992675" lon="-2.373559">
        <ele>914.659593628736</ele>
        <time>2018-06-09T06:16:20.000Z</time>
      </trkpt>
      <trkpt lat="42.99266" lon="-2.373541">
        <ele>914.958556785691</ele>
        <time>2018-06-09T06:16:23.000Z</time>
      </trkpt>
      <trkpt lat="42.99265" lon="-2.37351">
        <ele>915.706194873906</ele>
        <time>2018-06-09T06:16:26.000Z</time>
      </trkpt>
      <trkpt lat="42.992642" lon="-2.373482">
        <ele>916.606714009674</ele>
        <time>2018-06-09T06:16:29.000Z</time>
      </trkpt>
      <trkpt lat="42.992632" lon="-2.373452">
        <ele>916.75329309856</ele>
        <time>2018-06-09T06:16:30.000Z</time>
      </trkpt>
      <trkpt lat="42.992602" lon="-2.373438">
        <ele>916.900024414063</ele>
        <time>2018-06-09T06:16:33.000Z</time>
      </trkpt>
      <trkpt lat="42.992584" lon="-2.373411">
        <ele>917.414150514504</ele>
        <time>2018-06-09T06:16:35.000Z</time>
      </trkpt>
      <trkpt lat="42.99256" lon="-2.373377">
        <ele>917.853661009214</ele>
        <time>2018-06-09T06:16:37.000Z</time>
      </trkpt>
      <trkpt lat="42.992539" lon="-2.373352">
        <ele>918.107621133035</ele>
        <time>2018-06-09T06:16:39.000Z</time>
      </trkpt>
      <trkpt lat="42.99253" lon="-2.373329">
        <ele>919.287536716886</ele>
        <time>2018-06-09T06:16:41.000Z</time>
      </trkpt>
      <trkpt lat="42.992518" lon="-2.373305">
        <ele>919.700012207031</ele>
        <time>2018-06-09T06:16:43.000Z</time>
      </trkpt>
      <trkpt lat="42.992507" lon="-2.373275">
        <ele>919.955186861563</ele>
        <time>2018-06-09T06:16:45.000Z</time>
      </trkpt>
      <trkpt lat="42.992493" lon="-2.373252">
        <ele>920.225541848091</ele>
        <time>2018-06-09T06:16:47.000Z</time>
      </trkpt>
      <trkpt lat="42.99248" lon="-2.373231">
        <ele>920.79989756272</ele>
        <time>2018-06-09T06:16:49.000Z</time>
      </trkpt>
      <trkpt lat="42.992472" lon="-2.373208">
        <ele>921.099975585938</ele>
        <time>2018-06-09T06:16:51.000Z</time>
      </trkpt>
      <trkpt lat="42.992457" lon="-2.373173">
        <ele>921.299987792969</ele>
        <time>2018-06-09T06:16:54.000Z</time>
      </trkpt>
      <trkpt lat="42.992438" lon="-2.373155">
        <ele>921.998002790302</ele>
        <time>2018-06-09T06:16:56.000Z</time>
      </trkpt>
      <trkpt lat="42.992413" lon="-2.373139">
        <ele>922.74137322964</ele>
        <time>2018-06-09T06:16:58.000Z</time>
      </trkpt>
      <trkpt lat="42.992399" lon="-2.373122">
        <ele>923.181557080052</ele>
        <time>2018-06-09T06:17:00.000Z</time>
      </trkpt>
      <trkpt lat="42.992388" lon="-2.373093">
        <ele>923.58194548091</ele>
        <time>2018-06-09T06:17:02.000Z</time>
      </trkpt>
      <trkpt lat="42.99238" lon="-2.373067">
        <ele>924.0611687832</ele>
        <time>2018-06-09T06:17:04.000Z</time>
      </trkpt>
      <trkpt lat="42.992376" lon="-2.37304">
        <ele>924.361294097646</ele>
        <time>2018-06-09T06:17:06.000Z</time>
      </trkpt>
      <trkpt lat="42.992365" lon="-2.37302">
        <ele>924.559219045126</ele>
        <time>2018-06-09T06:17:09.000Z</time>
      </trkpt>
      <trkpt lat="42.992369" lon="-2.372993">
        <ele>924.700012207031</ele>
        <time>2018-06-09T06:17:11.000Z</time>
      </trkpt>
      <trkpt lat="42.992368" lon="-2.372952">
        <ele>924.599975585938</ele>
        <time>2018-06-09T06:17:13.000Z</time>
      </trkpt>
      <trkpt lat="42.992374" lon="-2.372908">
        <ele>924.481604492187</ele>
        <time>2018-06-09T06:17:15.000Z</time>
      </trkpt>
      <trkpt lat="42.992371" lon="-2.372874">
        <ele>924.24018246901</ele>
        <time>2018-06-09T06:17:17.000Z</time>
      </trkpt>
      <trkpt lat="42.992365" lon="-2.372833">
        <ele>924.03950890372</ele>
        <time>2018-06-09T06:17:19.000Z</time>
      </trkpt>
      <trkpt lat="42.992356" lon="-2.372794">
        <ele>923.799987792969</ele>
        <time>2018-06-09T06:17:21.000Z</time>
      </trkpt>
      <trkpt lat="42.992348" lon="-2.372764">
        <ele>923.799987792969</ele>
        <time>2018-06-09T06:17:23.000Z</time>
      </trkpt>
      <trkpt lat="42.992352" lon="-2.372729">
        <ele>924.099975585938</ele>
        <time>2018-06-09T06:17:25.000Z</time>
      </trkpt>
      <trkpt lat="42.992322" lon="-2.372704">
        <ele>924.099975585938</ele>
        <time>2018-06-09T06:17:27.000Z</time>
      </trkpt>
      <trkpt lat="42.992301" lon="-2.372699">
        <ele>924.222228070781</ele>
        <time>2018-06-09T06:17:28.000Z</time>
      </trkpt>
      <trkpt lat="42.99228" lon="-2.37268">
        <ele>924.665906056978</ele>
        <time>2018-06-09T06:17:30.000Z</time>
      </trkpt>
      <trkpt lat="42.992268" lon="-2.372662">
        <ele>925.400024414063</ele>
        <time>2018-06-09T06:17:32.000Z</time>
      </trkpt>
      <trkpt lat="42.992252" lon="-2.372631">
        <ele>925.400024414063</ele>
        <time>2018-06-09T06:17:36.000Z</time>
      </trkpt>
      <trkpt lat="42.992239" lon="-2.372613">
        <ele>925.400024414063</ele>
        <time>2018-06-09T06:17:37.000Z</time>
      </trkpt>
      <trkpt lat="42.99222" lon="-2.37259">
        <ele>925.683408986052</ele>
        <time>2018-06-09T06:17:39.000Z</time>
      </trkpt>
      <trkpt lat="42.992226" lon="-2.372564">
        <ele>926.164939718035</ele>
        <time>2018-06-09T06:17:41.000Z</time>
      </trkpt>
      <trkpt lat="42.992208" lon="-2.372532">
        <ele>927.560745989421</ele>
        <time>2018-06-09T06:17:43.000Z</time>
      </trkpt>
      <trkpt lat="42.992187" lon="-2.37251">
        <ele>927.660941448268</ele>
        <time>2018-06-09T06:17:45.000Z</time>
      </trkpt>
      <trkpt lat="42.992168" lon="-2.372493">
        <ele>928.48341476071</ele>
        <time>2018-06-09T06:17:47.000Z</time>
      </trkpt>
      <trkpt lat="42.992147" lon="-2.37248">
        <ele>929.607795908591</ele>
        <time>2018-06-09T06:17:50.000Z</time>
      </trkpt>
      <trkpt lat="42.992136" lon="-2.372461">
        <ele>930.247213807813</ele>
        <time>2018-06-09T06:17:52.000Z</time>
      </trkpt>
      <trkpt lat="42.992126" lon="-2.372426">
        <ele>930.661897774219</ele>
        <time>2018-06-09T06:17:54.000Z</time>
      </trkpt>
      <trkpt lat="42.992116" lon="-2.372405">
        <ele>931.333128254834</ele>
        <time>2018-06-09T06:17:56.000Z</time>
      </trkpt>
      <trkpt lat="42.992109" lon="-2.372379">
        <ele>931.985678796875</ele>
        <time>2018-06-09T06:17:58.000Z</time>
      </trkpt>
      <trkpt lat="42.992099" lon="-2.372353">
        <ele>933.005736259877</ele>
        <time>2018-06-09T06:18:01.000Z</time>
      </trkpt>
      <trkpt lat="42.992086" lon="-2.372325">
        <ele>933.661214185698</ele>
        <time>2018-06-09T06:18:03.000Z</time>
      </trkpt>
      <trkpt lat="42.992075" lon="-2.3723">
        <ele>934.183474282286</ele>
        <time>2018-06-09T06:18:05.000Z</time>
      </trkpt>
      <trkpt lat="42.992057" lon="-2.37227">
        <ele>934.88388444373</ele>
        <time>2018-06-09T06:18:08.000Z</time>
      </trkpt>
      <trkpt lat="42.992048" lon="-2.372246">
        <ele>935.405393482972</ele>
        <time>2018-06-09T06:18:10.000Z</time>
      </trkpt>
      <trkpt lat="42.992037" lon="-2.372228">
        <ele>936.046095491133</ele>
        <time>2018-06-09T06:18:12.000Z</time>
      </trkpt>
      <trkpt lat="42.992015" lon="-2.372209">
        <ele>936.761920417533</ele>
        <time>2018-06-09T06:18:14.000Z</time>
      </trkpt>
      <trkpt lat="42.992001" lon="-2.372181">
        <ele>936.862111014844</ele>
        <time>2018-06-09T06:18:16.000Z</time>
      </trkpt>
      <trkpt lat="42.991997" lon="-2.372157">
        <ele>937.362435463477</ele>
        <time>2018-06-09T06:18:18.000Z</time>
      </trkpt>
      <trkpt lat="42.99198" lon="-2.372132">
        <ele>937.799987792969</ele>
        <time>2018-06-09T06:18:20.000Z</time>
      </trkpt>
      <trkpt lat="42.991959" lon="-2.372108">
        <ele>938.387991283779</ele>
        <time>2018-06-09T06:18:22.000Z</time>
      </trkpt>
      <trkpt lat="42.99195" lon="-2.372084">
        <ele>938.562873335493</ele>
        <time>2018-06-09T06:18:23.000Z</time>
      </trkpt>
      <trkpt lat="42.991937" lon="-2.372054">
        <ele>939.187304885427</ele>
        <time>2018-06-09T06:18:25.000Z</time>
      </trkpt>
      <trkpt lat="42.991913" lon="-2.372028">
        <ele>939.52504358359</ele>
        <time>2018-06-09T06:18:27.000Z</time>
      </trkpt>
      <trkpt lat="42.991899" lon="-2.371995">
        <ele>939.924244757714</ele>
        <time>2018-06-09T06:18:30.000Z</time>
      </trkpt>
      <trkpt lat="42.991886" lon="-2.371977">
        <ele>940.562071117735</ele>
        <time>2018-06-09T06:18:32.000Z</time>
      </trkpt>
      <trkpt lat="42.991866" lon="-2.371959">
        <ele>941.711525214062</ele>
        <time>2018-06-09T06:18:34.000Z</time>
      </trkpt>
      <trkpt lat="42.991849" lon="-2.371945">
        <ele>942.186520431003</ele>
        <time>2018-06-09T06:18:36.000Z</time>
      </trkpt>
      <trkpt lat="42.991832" lon="-2.371929">
        <ele>943.024993576562</ele>
        <time>2018-06-09T06:18:38.000Z</time>
      </trkpt>
      <trkpt lat="42.991813" lon="-2.371913">
        <ele>943.687304885427</ele>
        <time>2018-06-09T06:18:41.000Z</time>
      </trkpt>
      <trkpt lat="42.991798" lon="-2.371902">
        <ele>944.498393675</ele>
        <time>2018-06-09T06:18:43.000Z</time>
      </trkpt>
      <trkpt lat="42.991782" lon="-2.371884">
        <ele>945.336267372752</ele>
        <time>2018-06-09T06:18:45.000Z</time>
      </trkpt>
      <trkpt lat="42.99177" lon="-2.371863">
        <ele>946.025143002266</ele>
        <time>2018-06-09T06:18:48.000Z</time>
      </trkpt>
      <trkpt lat="42.99176" lon="-2.371836">
        <ele>947.375358539216</ele>
        <time>2018-06-09T06:18:51.000Z</time>
      </trkpt>
      <trkpt lat="42.991749" lon="-2.37181">
        <ele>947.962209548438</ele>
        <time>2018-06-09T06:18:53.000Z</time>
      </trkpt>
      <trkpt lat="42.991732" lon="-2.371793">
        <ele>948.387654450093</ele>
        <time>2018-06-09T06:18:55.000Z</time>
      </trkpt>
      <trkpt lat="42.99171" lon="-2.371773">
        <ele>949.215340825968</ele>
        <time>2018-06-09T06:18:57.000Z</time>
      </trkpt>
      <trkpt lat="42.991696" lon="-2.37175">
        <ele>949.763359839245</ele>
        <time>2018-06-09T06:18:59.000Z</time>
      </trkpt>
      <trkpt lat="42.991683" lon="-2.371719">
        <ele>950.155092333503</ele>
        <time>2018-06-09T06:19:01.000Z</time>
      </trkpt>
      <trkpt lat="42.991668" lon="-2.371707">
        <ele>951.527704542423</ele>
        <time>2018-06-09T06:19:04.000Z</time>
      </trkpt>
      <trkpt lat="42.991649" lon="-2.371691">
        <ele>952.863883643235</ele>
        <time>2018-06-09T06:19:06.000Z</time>
      </trkpt>
      <trkpt lat="42.991627" lon="-2.371676">
        <ele>953</ele>
        <time>2018-06-09T06:19:08.000Z</time>
      </trkpt>
      <trkpt lat="42.991609" lon="-2.371654">
        <ele>953.200012207031</ele>
        <time>2018-06-09T06:19:10.000Z</time>
      </trkpt>
      <trkpt lat="42.991595" lon="-2.371639">
        <ele>953.621988714581</ele>
        <time>2018-06-09T06:19:12.000Z</time>
      </trkpt>
      <trkpt lat="42.99158" lon="-2.371613">
        <ele>954.3649114</ele>
        <time>2018-06-09T06:19:14.000Z</time>
      </trkpt>
      <trkpt lat="42.991566" lon="-2.371593">
        <ele>954.895512797794</ele>
        <time>2018-06-09T06:19:16.000Z</time>
      </trkpt>
      <trkpt lat="42.99155" lon="-2.37157">
        <ele>955.230584517187</ele>
        <time>2018-06-09T06:19:18.000Z</time>
      </trkpt>
      <trkpt lat="42.991531" lon="-2.371553">
        <ele>956.230192823736</ele>
        <time>2018-06-09T06:19:21.000Z</time>
      </trkpt>
      <trkpt lat="42.991519" lon="-2.371531">
        <ele>956.5</ele>
        <time>2018-06-09T06:19:23.000Z</time>
      </trkpt>
      <trkpt lat="42.991502" lon="-2.371509">
        <ele>957.465043125943</ele>
        <time>2018-06-09T06:19:26.000Z</time>
      </trkpt>
      <trkpt lat="42.991484" lon="-2.371486">
        <ele>957.930255205469</ele>
        <time>2018-06-09T06:19:28.000Z</time>
      </trkpt>
      <trkpt lat="42.99147" lon="-2.37146">
        <ele>958.565222859884</ele>
        <time>2018-06-09T06:19:31.000Z</time>
      </trkpt>
      <trkpt lat="42.991458" lon="-2.371444">
        <ele>959.595093276738</ele>
        <time>2018-06-09T06:19:33.000Z</time>
      </trkpt>
      <trkpt lat="42.991442" lon="-2.371426">
        <ele>959.965505079251</ele>
        <time>2018-06-09T06:19:35.000Z</time>
      </trkpt>
      <trkpt lat="42.991428" lon="-2.371405">
        <ele>961.065518570634</ele>
        <time>2018-06-09T06:19:37.000Z</time>
      </trkpt>
      <trkpt lat="42.991411" lon="-2.371386">
        <ele>961.399399548565</ele>
        <time>2018-06-09T06:19:39.000Z</time>
      </trkpt>
      <trkpt lat="42.991391" lon="-2.371366">
        <ele>962.368016702377</ele>
        <time>2018-06-09T06:19:42.000Z</time>
      </trkpt>
      <trkpt lat="42.991373" lon="-2.371342">
        <ele>962.799987792969</ele>
        <time>2018-06-09T06:19:44.000Z</time>
      </trkpt>
      <trkpt lat="42.991356" lon="-2.371328">
        <ele>963.378339528921</ele>
        <time>2018-06-09T06:19:46.000Z</time>
      </trkpt>
      <trkpt lat="42.991339" lon="-2.371305">
        <ele>964.210292882813</ele>
        <time>2018-06-09T06:19:48.000Z</time>
      </trkpt>
      <trkpt lat="42.991321" lon="-2.371284">
        <ele>965.070682259375</ele>
        <time>2018-06-09T06:19:50.000Z</time>
      </trkpt>
      <trkpt lat="42.991307" lon="-2.371259">
        <ele>965.342247846061</ele>
        <time>2018-06-09T06:19:52.000Z</time>
      </trkpt>
      <trkpt lat="42.991294" lon="-2.371234">
        <ele>965.94316982104</ele>
        <time>2018-06-09T06:19:54.000Z</time>
      </trkpt>
      <trkpt lat="42.991289" lon="-2.37121">
        <ele>966.372230541637</ele>
        <time>2018-06-09T06:19:56.000Z</time>
      </trkpt>
      <trkpt lat="42.991279" lon="-2.371183">
        <ele>966.764481509921</ele>
        <time>2018-06-09T06:19:58.000Z</time>
      </trkpt>
      <trkpt lat="42.991267" lon="-2.371158">
        <ele>967.293806488421</ele>
        <time>2018-06-09T06:20:00.000Z</time>
      </trkpt>
      <trkpt lat="42.991263" lon="-2.371135">
        <ele>967.994068039624</ele>
        <time>2018-06-09T06:20:02.000Z</time>
      </trkpt>
      <trkpt lat="42.991249" lon="-2.3711">
        <ele>968.421102730469</ele>
        <time>2018-06-09T06:20:05.000Z</time>
      </trkpt>
      <trkpt lat="42.991243" lon="-2.371074">
        <ele>968.893994170312</ele>
        <time>2018-06-09T06:20:07.000Z</time>
      </trkpt>
      <trkpt lat="42.991235" lon="-2.371038">
        <ele>969.619996793639</ele>
        <time>2018-06-09T06:20:09.000Z</time>
      </trkpt>
      <trkpt lat="42.99123" lon="-2.371013">
        <ele>970.240295935146</ele>
        <time>2018-06-09T06:20:11.000Z</time>
      </trkpt>
      <trkpt lat="42.991218" lon="-2.370983">
        <ele>971.146461805635</ele>
        <time>2018-06-09T06:20:14.000Z</time>
      </trkpt>
      <trkpt lat="42.991201" lon="-2.370955">
        <ele>971.27328763552</ele>
        <time>2018-06-09T06:20:16.000Z</time>
      </trkpt>
      <trkpt lat="42.991188" lon="-2.370937">
        <ele>971.373541310262</ele>
        <time>2018-06-09T06:20:18.000Z</time>
      </trkpt>
      <trkpt lat="42.99117" lon="-2.370902">
        <ele>972.321032226387</ele>
        <time>2018-06-09T06:20:20.000Z</time>
      </trkpt>
      <trkpt lat="42.991154" lon="-2.370865">
        <ele>972.694986441113</ele>
        <time>2018-06-09T06:20:22.000Z</time>
      </trkpt>
      <trkpt lat="42.991142" lon="-2.370839">
        <ele>972.947155365406</ele>
        <time>2018-06-09T06:20:23.000Z</time>
      </trkpt>
      <trkpt lat="42.991129" lon="-2.370813">
        <ele>973</ele>
        <time>2018-06-09T06:20:24.000Z</time>
      </trkpt>
      <trkpt lat="42.991108" lon="-2.37078">
        <ele>973.473433338218</ele>
        <time>2018-06-09T06:20:26.000Z</time>
      </trkpt>
      <trkpt lat="42.991089" lon="-2.370749">
        <ele>974.167723688004</ele>
        <time>2018-06-09T06:20:28.000Z</time>
      </trkpt>
      <trkpt lat="42.991067" lon="-2.370725">
        <ele>974.473533054286</ele>
        <time>2018-06-09T06:20:30.000Z</time>
      </trkpt>
      <trkpt lat="42.991045" lon="-2.370703">
        <ele>974.791326297637</ele>
        <time>2018-06-09T06:20:32.000Z</time>
      </trkpt>
      <trkpt lat="42.991023" lon="-2.370689">
        <ele>975.266294645664</ele>
        <time>2018-06-09T06:20:35.000Z</time>
      </trkpt>
      <trkpt lat="42.991003" lon="-2.370687">
        <ele>976.194186196309</ele>
        <time>2018-06-09T06:20:38.000Z</time>
      </trkpt>
      <trkpt lat="42.990985" lon="-2.370671">
        <ele>976.694502777177</ele>
        <time>2018-06-09T06:20:40.000Z</time>
      </trkpt>
      <trkpt lat="42.990966" lon="-2.370664">
        <ele>976.873673061968</ele>
        <time>2018-06-09T06:20:43.000Z</time>
      </trkpt>
      <trkpt lat="42.99095" lon="-2.370655">
        <ele>978.308453064483</ele>
        <time>2018-06-09T06:20:46.000Z</time>
      </trkpt>
      <trkpt lat="42.990928" lon="-2.370642">
        <ele>979.197004158814</ele>
        <time>2018-06-09T06:20:49.000Z</time>
      </trkpt>
      <trkpt lat="42.990922" lon="-2.370608">
        <ele>979.700012207031</ele>
        <time>2018-06-09T06:20:52.000Z</time>
      </trkpt>
      <trkpt lat="42.990918" lon="-2.370577">
        <ele>980.748081280078</ele>
        <time>2018-06-09T06:20:54.000Z</time>
      </trkpt>
      <trkpt lat="42.990902" lon="-2.370553">
        <ele>980.799987792969</ele>
        <time>2018-06-09T06:20:57.000Z</time>
      </trkpt>
      <trkpt lat="42.990888" lon="-2.370531">
        <ele>981.047492905229</ele>
        <time>2018-06-09T06:20:59.000Z</time>
      </trkpt>
      <trkpt lat="42.990868" lon="-2.370508">
        <ele>982.389199685911</ele>
        <time>2018-06-09T06:21:02.000Z</time>
      </trkpt>
      <trkpt lat="42.990856" lon="-2.370486">
        <ele>983.647450937235</ele>
        <time>2018-06-09T06:21:04.000Z</time>
      </trkpt>
      <trkpt lat="42.990838" lon="-2.370467">
        <ele>983.996091385174</ele>
        <time>2018-06-09T06:21:06.000Z</time>
      </trkpt>
      <trkpt lat="42.990818" lon="-2.37045">
        <ele>984.574505178222</ele>
        <time>2018-06-09T06:21:08.000Z</time>
      </trkpt>
      <trkpt lat="42.990801" lon="-2.370433">
        <ele>984.824334620373</ele>
        <time>2018-06-09T06:21:10.000Z</time>
      </trkpt>
      <trkpt lat="42.99079" lon="-2.37041">
        <ele>985.449696806797</ele>
        <time>2018-06-09T06:21:12.000Z</time>
      </trkpt>
      <trkpt lat="42.990774" lon="-2.370389">
        <ele>986.574906563879</ele>
        <time>2018-06-09T06:21:14.000Z</time>
      </trkpt>
      <trkpt lat="42.990763" lon="-2.370367">
        <ele>987.098804110156</ele>
        <time>2018-06-09T06:21:16.000Z</time>
      </trkpt>
      <trkpt lat="42.990749" lon="-2.370349">
        <ele>987.374915702344</ele>
        <time>2018-06-09T06:21:18.000Z</time>
      </trkpt>
      <trkpt lat="42.990733" lon="-2.370321">
        <ele>987.474731248636</ele>
        <time>2018-06-09T06:21:20.000Z</time>
      </trkpt>
      <trkpt lat="42.990717" lon="-2.370297">
        <ele>987.650259160941</ele>
        <time>2018-06-09T06:21:22.000Z</time>
      </trkpt>
      <trkpt lat="42.990703" lon="-2.370275">
        <ele>987.950497818888</ele>
        <time>2018-06-09T06:21:24.000Z</time>
      </trkpt>
      <trkpt lat="42.990691" lon="-2.370259">
        <ele>989.125840689344</ele>
        <time>2018-06-09T06:21:26.000Z</time>
      </trkpt>
      <trkpt lat="42.990679" lon="-2.370234">
        <ele>989.751087825156</ele>
        <time>2018-06-09T06:21:28.000Z</time>
      </trkpt>
      <trkpt lat="42.990661" lon="-2.370213">
        <ele>989.799987792969</ele>
        <time>2018-06-09T06:21:30.000Z</time>
      </trkpt>
      <trkpt lat="42.990642" lon="-2.370186">
        <ele>990.833228349872</ele>
        <time>2018-06-09T06:21:33.000Z</time>
      </trkpt>
      <trkpt lat="42.990625" lon="-2.370166">
        <ele>991.727536378017</ele>
        <time>2018-06-09T06:21:35.000Z</time>
      </trkpt>
      <trkpt lat="42.990612" lon="-2.370149">
        <ele>991.799987792969</ele>
        <time>2018-06-09T06:21:37.000Z</time>
      </trkpt>
      <trkpt lat="42.990598" lon="-2.370133">
        <ele>992.556602494531</ele>
        <time>2018-06-09T06:21:39.000Z</time>
      </trkpt>
      <trkpt lat="42.990584" lon="-2.370105">
        <ele>992.776241005139</ele>
        <time>2018-06-09T06:21:42.000Z</time>
      </trkpt>
      <trkpt lat="42.990571" lon="-2.37008">
        <ele>992.97632924212</ele>
        <time>2018-06-09T06:21:44.000Z</time>
      </trkpt>
      <trkpt lat="42.990556" lon="-2.370047">
        <ele>994.180247896343</ele>
        <time>2018-06-09T06:21:47.000Z</time>
      </trkpt>
      <trkpt lat="42.990537" lon="-2.370022">
        <ele>994.606125362591</ele>
        <time>2018-06-09T06:21:49.000Z</time>
      </trkpt>
      <trkpt lat="42.99052" lon="-2.37">
        <ele>994.976659241611</ele>
        <time>2018-06-09T06:21:51.000Z</time>
      </trkpt>
      <trkpt lat="42.990499" lon="-2.369976">
        <ele>995.200012207031</ele>
        <time>2018-06-09T06:21:54.000Z</time>
      </trkpt>
      <trkpt lat="42.990481" lon="-2.369953">
        <ele>996.267748388419</ele>
        <time>2018-06-09T06:21:56.000Z</time>
      </trkpt>
      <trkpt lat="42.990468" lon="-2.369927">
        <ele>997.314795243485</ele>
        <time>2018-06-09T06:21:58.000Z</time>
      </trkpt>
      <trkpt lat="42.990455" lon="-2.369896">
        <ele>998.12064981361</ele>
        <time>2018-06-09T06:22:01.000Z</time>
      </trkpt>
      <trkpt lat="42.99044" lon="-2.369871">
        <ele>999.280973127477</ele>
        <time>2018-06-09T06:22:04.000Z</time>
      </trkpt>
      <trkpt lat="42.990429" lon="-2.369846">
        <ele>999.881491933969</ele>
        <time>2018-06-09T06:22:06.000Z</time>
      </trkpt>
      <trkpt lat="42.990417" lon="-2.369826">
        <ele>1000.57376077497</ele>
        <time>2018-06-09T06:22:08.000Z</time>
      </trkpt>
      <trkpt lat="42.990404" lon="-2.369796">
        <ele>1001.69347404424</ele>
        <time>2018-06-09T06:22:11.000Z</time>
      </trkpt>
      <trkpt lat="42.990396" lon="-2.369768">
        <ele>1002.54902312201</ele>
        <time>2018-06-09T06:22:13.000Z</time>
      </trkpt>
      <trkpt lat="42.990384" lon="-2.369744">
        <ele>1002.78372692041</ele>
        <time>2018-06-09T06:22:15.000Z</time>
      </trkpt>
      <trkpt lat="42.990372" lon="-2.369721">
        <ele>1003.33576387693</ele>
        <time>2018-06-09T06:22:17.000Z</time>
      </trkpt>
      <trkpt lat="42.990357" lon="-2.369705">
        <ele>1004.68809755106</ele>
        <time>2018-06-09T06:22:19.000Z</time>
      </trkpt>
      <trkpt lat="42.990341" lon="-2.369687">
        <ele>1005.1529806477</ele>
        <time>2018-06-09T06:22:21.000Z</time>
      </trkpt>
      <trkpt lat="42.990321" lon="-2.369667">
        <ele>1005.70001220703</ele>
        <time>2018-06-09T06:22:23.000Z</time>
      </trkpt>
      <trkpt lat="42.990305" lon="-2.369652">
        <ele>1006.50638203638</ele>
        <time>2018-06-09T06:22:25.000Z</time>
      </trkpt>
      <trkpt lat="42.990286" lon="-2.369622">
        <ele>1007.79998779297</ele>
        <time>2018-06-09T06:22:27.000Z</time>
      </trkpt>
      <trkpt lat="42.990275" lon="-2.369598">
        <ele>1007.96979783672</ele>
        <time>2018-06-09T06:22:29.000Z</time>
      </trkpt>
      <trkpt lat="42.990263" lon="-2.369574">
        <ele>1008.65372202212</ele>
        <time>2018-06-09T06:22:31.000Z</time>
      </trkpt>
      <trkpt lat="42.990251" lon="-2.369555">
        <ele>1008.88490362763</ele>
        <time>2018-06-09T06:22:33.000Z</time>
      </trkpt>
      <trkpt lat="42.990238" lon="-2.369536">
        <ele>1009.98443552758</ele>
        <time>2018-06-09T06:22:35.000Z</time>
      </trkpt>
      <trkpt lat="42.990223" lon="-2.369512">
        <ele>1010.28446085409</ele>
        <time>2018-06-09T06:22:37.000Z</time>
      </trkpt>
      <trkpt lat="42.990215" lon="-2.369492">
        <ele>1011.38426570999</ele>
        <time>2018-06-09T06:22:39.000Z</time>
      </trkpt>
      <trkpt lat="42.990202" lon="-2.369464">
        <ele>1011.83795979025</ele>
        <time>2018-06-09T06:22:41.000Z</time>
      </trkpt>
      <trkpt lat="42.990194" lon="-2.369446">
        <ele>1012.94045338683</ele>
        <time>2018-06-09T06:22:43.000Z</time>
      </trkpt>
      <trkpt lat="42.990177" lon="-2.369428">
        <ele>1013.28449205703</ele>
        <time>2018-06-09T06:22:45.000Z</time>
      </trkpt>
      <trkpt lat="42.990166" lon="-2.369404">
        <ele>1014.40002441406</ele>
        <time>2018-06-09T06:22:47.000Z</time>
      </trkpt>
      <trkpt lat="42.990153" lon="-2.369374">
        <ele>1013.90002441406</ele>
        <time>2018-06-09T06:22:49.000Z</time>
      </trkpt>
      <trkpt lat="42.990139" lon="-2.369353">
        <ele>1013.82317945807</ele>
        <time>2018-06-09T06:22:51.000Z</time>
      </trkpt>
      <trkpt lat="42.99012" lon="-2.369334">
        <ele>1014.29998779297</ele>
        <time>2018-06-09T06:22:53.000Z</time>
      </trkpt>
      <trkpt lat="42.990106" lon="-2.369312">
        <ele>1014.57047028476</ele>
        <time>2018-06-09T06:22:55.000Z</time>
      </trkpt>
      <trkpt lat="42.990093" lon="-2.369286">
        <ele>1015.6710340951</ele>
        <time>2018-06-09T06:22:57.000Z</time>
      </trkpt>
      <trkpt lat="42.990077" lon="-2.369265">
        <ele>1016.27155703426</ele>
        <time>2018-06-09T06:22:59.000Z</time>
      </trkpt>
      <trkpt lat="42.990054" lon="-2.369241">
        <ele>1017.23352565164</ele>
        <time>2018-06-09T06:23:02.000Z</time>
      </trkpt>
      <trkpt lat="42.990039" lon="-2.36922">
        <ele>1017.74599209688</ele>
        <time>2018-06-09T06:23:04.000Z</time>
      </trkpt>
      <trkpt lat="42.990023" lon="-2.369202">
        <ele>1018.18685517752</ele>
        <time>2018-06-09T06:23:06.000Z</time>
      </trkpt>
      <trkpt lat="42.990002" lon="-2.369181">
        <ele>1018.5</ele>
        <time>2018-06-09T06:23:08.000Z</time>
      </trkpt>
      <trkpt lat="42.989983" lon="-2.369163">
        <ele>1020.14535110263</ele>
        <time>2018-06-09T06:23:11.000Z</time>
      </trkpt>
      <trkpt lat="42.989968" lon="-2.36915">
        <ele>1021.34493233287</ele>
        <time>2018-06-09T06:23:15.000Z</time>
      </trkpt>
      <trkpt lat="42.989965" lon="-2.369148">
        <ele>1023.50923344315</ele>
        <time>2018-06-09T06:23:24.000Z</time>
      </trkpt>
      <trkpt lat="42.98995" lon="-2.369133">
        <ele>1024.38443690469</ele>
        <time>2018-06-09T06:23:30.000Z</time>
      </trkpt>
      <trkpt lat="42.989935" lon="-2.369118">
        <ele>1024.31537553719</ele>
        <time>2018-06-09T06:23:32.000Z</time>
      </trkpt>
      <trkpt lat="42.989917" lon="-2.36911">
        <ele>1024.91024230147</ele>
        <time>2018-06-09T06:23:34.000Z</time>
      </trkpt>
      <trkpt lat="42.989899" lon="-2.369103">
        <ele>1025.18450171017</ele>
        <time>2018-06-09T06:23:36.000Z</time>
      </trkpt>
      <trkpt lat="42.989877" lon="-2.369095">
        <ele>1025.63443088224</ele>
        <time>2018-06-09T06:23:39.000Z</time>
      </trkpt>
      <trkpt lat="42.989856" lon="-2.369093">
        <ele>1026.18377160056</ele>
        <time>2018-06-09T06:23:42.000Z</time>
      </trkpt>
      <trkpt lat="42.989841" lon="-2.369078">
        <ele>1026.95204007069</ele>
        <time>2018-06-09T06:23:44.000Z</time>
      </trkpt>
      <trkpt lat="42.989818" lon="-2.369067">
        <ele>1027.65237177128</ele>
        <time>2018-06-09T06:23:47.000Z</time>
      </trkpt>
      <trkpt lat="42.989797" lon="-2.369074">
        <ele>1028.05268063699</ele>
        <time>2018-06-09T06:23:49.000Z</time>
      </trkpt>
      <trkpt lat="42.989785" lon="-2.369088">
        <ele>1029.06932216782</ele>
        <time>2018-06-09T06:23:51.000Z</time>
      </trkpt>
      <trkpt lat="42.989775" lon="-2.369118">
        <ele>1029.30004882813</ele>
        <time>2018-06-09T06:23:53.000Z</time>
      </trkpt>
      <trkpt lat="42.989769" lon="-2.369146">
        <ele>1030.17009787644</ele>
        <time>2018-06-09T06:23:55.000Z</time>
      </trkpt>
      <trkpt lat="42.989763" lon="-2.369177">
        <ele>1030.37129890211</ele>
        <time>2018-06-09T06:23:57.000Z</time>
      </trkpt>
      <trkpt lat="42.989758" lon="-2.369208">
        <ele>1030.58586445989</ele>
        <time>2018-06-09T06:23:59.000Z</time>
      </trkpt>
      <trkpt lat="42.989759" lon="-2.369239">
        <ele>1031.128309723</ele>
        <time>2018-06-09T06:24:01.000Z</time>
      </trkpt>
      <trkpt lat="42.98976" lon="-2.369273">
        <ele>1031.97097842486</ele>
        <time>2018-06-09T06:24:04.000Z</time>
      </trkpt>
      <trkpt lat="42.98976" lon="-2.3693">
        <ele>1032.52897398594</ele>
        <time>2018-06-09T06:24:06.000Z</time>
      </trkpt>
      <trkpt lat="42.989768" lon="-2.369334">
        <ele>1033.28431730928</ele>
        <time>2018-06-09T06:24:10.000Z</time>
      </trkpt>
      <trkpt lat="42.989776" lon="-2.369362">
        <ele>1033.78433301563</ele>
        <time>2018-06-09T06:24:12.000Z</time>
      </trkpt>
      <trkpt lat="42.989784" lon="-2.369383">
        <ele>1034.38661015</ele>
        <time>2018-06-09T06:24:14.000Z</time>
      </trkpt>
      <trkpt lat="42.989789" lon="-2.36941">
        <ele>1034.9682803996</ele>
        <time>2018-06-09T06:24:16.000Z</time>
      </trkpt>
      <trkpt lat="42.989791" lon="-2.369446">
        <ele>1035.36751540195</ele>
        <time>2018-06-09T06:24:19.000Z</time>
      </trkpt>
      <trkpt lat="42.989779" lon="-2.369464">
        <ele>1036.48445751226</ele>
        <time>2018-06-09T06:24:22.000Z</time>
      </trkpt>
      <trkpt lat="42.989761" lon="-2.369438">
        <ele>1037.28402943326</ele>
        <time>2018-06-09T06:24:25.000Z</time>
      </trkpt>
      <trkpt lat="42.989746" lon="-2.369425">
        <ele>1037.56741701117</ele>
        <time>2018-06-09T06:24:27.000Z</time>
      </trkpt>
      <trkpt lat="42.989728" lon="-2.369412">
        <ele>1038.05198730469</ele>
        <time>2018-06-09T06:24:29.000Z</time>
      </trkpt>
      <trkpt lat="42.989712" lon="-2.369401">
        <ele>1038.95390834778</ele>
        <time>2018-06-09T06:24:32.000Z</time>
      </trkpt>
      <trkpt lat="42.989697" lon="-2.369384">
        <ele>1040.13938386693</ele>
        <time>2018-06-09T06:24:35.000Z</time>
      </trkpt>
      <trkpt lat="42.989682" lon="-2.369366">
        <ele>1040.7402642034</ele>
        <time>2018-06-09T06:24:38.000Z</time>
      </trkpt>
      <trkpt lat="42.989666" lon="-2.369349">
        <ele>1041.68509900501</ele>
        <time>2018-06-09T06:24:41.000Z</time>
      </trkpt>
      <trkpt lat="42.989651" lon="-2.369333">
        <ele>1042.78274999709</ele>
        <time>2018-06-09T06:24:44.000Z</time>
      </trkpt>
      <trkpt lat="42.98963" lon="-2.369319">
        <ele>1043.09997558594</ele>
        <time>2018-06-09T06:24:47.000Z</time>
      </trkpt>
      <trkpt lat="42.989615" lon="-2.369329">
        <ele>1044.07115384156</ele>
        <time>2018-06-09T06:24:50.000Z</time>
      </trkpt>
      <trkpt lat="42.9896" lon="-2.369339">
        <ele>1045.03849586895</ele>
        <time>2018-06-09T06:24:53.000Z</time>
      </trkpt>
      <trkpt lat="42.989582" lon="-2.369333">
        <ele>1045.4695770476</ele>
        <time>2018-06-09T06:24:55.000Z</time>
      </trkpt>
      <trkpt lat="42.989559" lon="-2.369322">
        <ele>1046.05304777239</ele>
        <time>2018-06-09T06:24:57.000Z</time>
      </trkpt>
      <trkpt lat="42.98954" lon="-2.369302">
        <ele>1046.65376341094</ele>
        <time>2018-06-09T06:24:59.000Z</time>
      </trkpt>
      <trkpt lat="42.989521" lon="-2.369282">
        <ele>1047.07029481242</ele>
        <time>2018-06-09T06:25:02.000Z</time>
      </trkpt>
      <trkpt lat="42.989503" lon="-2.369271">
        <ele>1048.31089327833</ele>
        <time>2018-06-09T06:25:05.000Z</time>
      </trkpt>
      <trkpt lat="42.989482" lon="-2.369253">
        <ele>1049.17110059429</ele>
        <time>2018-06-09T06:25:08.000Z</time>
      </trkpt>
      <trkpt lat="42.989466" lon="-2.369248">
        <ele>1050.21286153253</ele>
        <time>2018-06-09T06:25:10.000Z</time>
      </trkpt>
      <trkpt lat="42.989453" lon="-2.36923">
        <ele>1050.32938211791</ele>
        <time>2018-06-09T06:25:13.000Z</time>
      </trkpt>
      <trkpt lat="42.989442" lon="-2.369211">
        <ele>1051.05558507445</ele>
        <time>2018-06-09T06:25:15.000Z</time>
      </trkpt>
      <trkpt lat="42.989421" lon="-2.369199">
        <ele>1051.30004882813</ele>
        <time>2018-06-09T06:25:18.000Z</time>
      </trkpt>
      <trkpt lat="42.989415" lon="-2.369183">
        <ele>1052.67385360207</ele>
        <time>2018-06-09T06:25:21.000Z</time>
      </trkpt>
      <trkpt lat="42.989405" lon="-2.369173">
        <ele>1054.23455122812</ele>
        <time>2018-06-09T06:25:23.000Z</time>
      </trkpt>
      <trkpt lat="42.989387" lon="-2.369157">
        <ele>1054.48662964948</ele>
        <time>2018-06-09T06:25:26.000Z</time>
      </trkpt>
      <trkpt lat="42.989365" lon="-2.369143">
        <ele>1054.93487155151</ele>
        <time>2018-06-09T06:25:29.000Z</time>
      </trkpt>
      <trkpt lat="42.989344" lon="-2.369131">
        <ele>1056.07398257344</ele>
        <time>2018-06-09T06:25:32.000Z</time>
      </trkpt>
      <trkpt lat="42.989324" lon="-2.369122">
        <ele>1056.45773441396</ele>
        <time>2018-06-09T06:25:34.000Z</time>
      </trkpt>
      <trkpt lat="42.989307" lon="-2.369104">
        <ele>1057.15946057969</ele>
        <time>2018-06-09T06:25:37.000Z</time>
      </trkpt>
      <trkpt lat="42.989292" lon="-2.36909">
        <ele>1057.88642773438</ele>
        <time>2018-06-09T06:25:39.000Z</time>
      </trkpt>
      <trkpt lat="42.989278" lon="-2.369103">
        <ele>1058.58667835313</ele>
        <time>2018-06-09T06:25:42.000Z</time>
      </trkpt>
      <trkpt lat="42.989259" lon="-2.369099">
        <ele>1059.38602737135</ele>
        <time>2018-06-09T06:25:46.000Z</time>
      </trkpt>
      <trkpt lat="42.989241" lon="-2.369077">
        <ele>1060.23134296088</ele>
        <time>2018-06-09T06:25:49.000Z</time>
      </trkpt>
      <trkpt lat="42.989226" lon="-2.36906">
        <ele>1061.17124418629</ele>
        <time>2018-06-09T06:25:53.000Z</time>
      </trkpt>
      <trkpt lat="42.989207" lon="-2.369047">
        <ele>1061.78645387113</ele>
        <time>2018-06-09T06:25:56.000Z</time>
      </trkpt>
      <trkpt lat="42.989191" lon="-2.369042">
        <ele>1062.75936404656</ele>
        <time>2018-06-09T06:26:00.000Z</time>
      </trkpt>
      <trkpt lat="42.989174" lon="-2.369028">
        <ele>1064.24673720829</ele>
        <time>2018-06-09T06:26:03.000Z</time>
      </trkpt>
      <trkpt lat="42.989157" lon="-2.369005">
        <ele>1064.59997558594</ele>
        <time>2018-06-09T06:26:06.000Z</time>
      </trkpt>
      <trkpt lat="42.989141" lon="-2.368996">
        <ele>1065.37848825161</ele>
        <time>2018-06-09T06:26:09.000Z</time>
      </trkpt>
      <trkpt lat="42.989124" lon="-2.368973">
        <ele>1066.25335997151</ele>
        <time>2018-06-09T06:26:13.000Z</time>
      </trkpt>
      <trkpt lat="42.98911" lon="-2.368964">
        <ele>1067.22127235313</ele>
        <time>2018-06-09T06:26:15.000Z</time>
      </trkpt>
      <trkpt lat="42.989089" lon="-2.368951">
        <ele>1067.42429377104</ele>
        <time>2018-06-09T06:26:18.000Z</time>
      </trkpt>
      <trkpt lat="42.989073" lon="-2.368939">
        <ele>1067.89243448716</ele>
        <time>2018-06-09T06:26:21.000Z</time>
      </trkpt>
      <trkpt lat="42.989058" lon="-2.36892">
        <ele>1068.48469468089</ele>
        <time>2018-06-09T06:26:24.000Z</time>
      </trkpt>
      <trkpt lat="42.989039" lon="-2.368907">
        <ele>1069.43250248906</ele>
        <time>2018-06-09T06:26:27.000Z</time>
      </trkpt>
      <trkpt lat="42.989026" lon="-2.368894">
        <ele>1070.36260154006</ele>
        <time>2018-06-09T06:26:29.000Z</time>
      </trkpt>
      <trkpt lat="42.989012" lon="-2.368872">
        <ele>1071.08498020781</ele>
        <time>2018-06-09T06:26:32.000Z</time>
      </trkpt>
      <trkpt lat="42.988996" lon="-2.368856">
        <ele>1071.3848023695</ele>
        <time>2018-06-09T06:26:34.000Z</time>
      </trkpt>
      <trkpt lat="42.98898" lon="-2.368848">
        <ele>1072.18477131807</ele>
        <time>2018-06-09T06:26:37.000Z</time>
      </trkpt>
      <trkpt lat="42.988957" lon="-2.368841">
        <ele>1072.69275292969</ele>
        <time>2018-06-09T06:26:41.000Z</time>
      </trkpt>
      <trkpt lat="42.98894" lon="-2.368833">
        <ele>1073.98520425312</ele>
        <time>2018-06-09T06:26:44.000Z</time>
      </trkpt>
      <trkpt lat="42.988922" lon="-2.368828">
        <ele>1074.67070053295</ele>
        <time>2018-06-09T06:26:46.000Z</time>
      </trkpt>
      <trkpt lat="42.988899" lon="-2.368814">
        <ele>1075.19189353311</ele>
        <time>2018-06-09T06:26:49.000Z</time>
      </trkpt>
      <trkpt lat="42.988899" lon="-2.368802">
        <ele>1076.98957130303</ele>
        <time>2018-06-09T06:26:53.000Z</time>
      </trkpt>
      <trkpt lat="42.988873" lon="-2.368801">
        <ele>1077.79081153559</ele>
        <time>2018-06-09T06:26:56.000Z</time>
      </trkpt>
      <trkpt lat="42.988847" lon="-2.3688">
        <ele>1078.90916077566</ele>
        <time>2018-06-09T06:26:59.000Z</time>
      </trkpt>
      <trkpt lat="42.988829" lon="-2.368808">
        <ele>1079.19995117188</ele>
        <time>2018-06-09T06:27:01.000Z</time>
      </trkpt>
      <trkpt lat="42.988807" lon="-2.368813">
        <ele>1079.68413892243</ele>
        <time>2018-06-09T06:27:04.000Z</time>
      </trkpt>
      <trkpt lat="42.988789" lon="-2.368819">
        <ele>1079.80004882813</ele>
        <time>2018-06-09T06:27:06.000Z</time>
      </trkpt>
      <trkpt lat="42.98877" lon="-2.368828">
        <ele>1080.0765569579</ele>
        <time>2018-06-09T06:27:08.000Z</time>
      </trkpt>
      <trkpt lat="42.988756" lon="-2.368844">
        <ele>1080.19260903776</ele>
        <time>2018-06-09T06:27:10.000Z</time>
      </trkpt>
      <trkpt lat="42.988749" lon="-2.368857">
        <ele>1081.76479967406</ele>
        <time>2018-06-09T06:27:18.000Z</time>
      </trkpt>
      <trkpt lat="42.988738" lon="-2.368855">
        <ele>1083.37310161884</ele>
        <time>2018-06-09T06:27:20.000Z</time>
      </trkpt>
      <trkpt lat="42.988714" lon="-2.368862">
        <ele>1083.40002441406</ele>
        <time>2018-06-09T06:27:22.000Z</time>
      </trkpt>
      <trkpt lat="42.988694" lon="-2.368877">
        <ele>1082.32861180485</ele>
        <time>2018-06-09T06:27:24.000Z</time>
      </trkpt>
      <trkpt lat="42.988677" lon="-2.368896">
        <ele>1082.19995117188</ele>
        <time>2018-06-09T06:27:26.000Z</time>
      </trkpt>
      <trkpt lat="42.988666" lon="-2.368919">
        <ele>1082.19995117188</ele>
        <time>2018-06-09T06:27:28.000Z</time>
      </trkpt>
      <trkpt lat="42.988645" lon="-2.368932">
        <ele>1082.57202514637</ele>
        <time>2018-06-09T06:27:30.000Z</time>
      </trkpt>
      <trkpt lat="42.988622" lon="-2.368947">
        <ele>1082.96592796966</ele>
        <time>2018-06-09T06:27:32.000Z</time>
      </trkpt>
      <trkpt lat="42.988603" lon="-2.368963">
        <ele>1083.09102279546</ele>
        <time>2018-06-09T06:27:34.000Z</time>
      </trkpt>
      <trkpt lat="42.988587" lon="-2.368987">
        <ele>1083.48287218027</ele>
        <time>2018-06-09T06:27:37.000Z</time>
      </trkpt>
      <trkpt lat="42.98857" lon="-2.369006">
        <ele>1084.47652491869</ele>
        <time>2018-06-09T06:27:41.000Z</time>
      </trkpt>
      <trkpt lat="42.98855" lon="-2.369011">
        <ele>1085.24744097457</ele>
        <time>2018-06-09T06:27:43.000Z</time>
      </trkpt>
      <trkpt lat="42.988534" lon="-2.369024">
        <ele>1086</ele>
        <time>2018-06-09T06:27:45.000Z</time>
      </trkpt>
      <trkpt lat="42.98851" lon="-2.369033">
        <ele>1086.87188093274</ele>
        <time>2018-06-09T06:27:48.000Z</time>
      </trkpt>
      <trkpt lat="42.988492" lon="-2.369036">
        <ele>1087.47082798315</ele>
        <time>2018-06-09T06:27:50.000Z</time>
      </trkpt>
      <trkpt lat="42.988474" lon="-2.369051">
        <ele>1087.99359516792</ele>
        <time>2018-06-09T06:27:53.000Z</time>
      </trkpt>
      <trkpt lat="42.988454" lon="-2.369063">
        <ele>1088.85400560104</ele>
        <time>2018-06-09T06:27:56.000Z</time>
      </trkpt>
      <trkpt lat="42.988436" lon="-2.369074">
        <ele>1089.19995117188</ele>
        <time>2018-06-09T06:27:58.000Z</time>
      </trkpt>
      <trkpt lat="42.988419" lon="-2.369096">
        <ele>1089.76508213887</ele>
        <time>2018-06-09T06:28:01.000Z</time>
      </trkpt>
      <trkpt lat="42.988399" lon="-2.369118">
        <ele>1090.57231675209</ele>
        <time>2018-06-09T06:28:03.000Z</time>
      </trkpt>
      <trkpt lat="42.98838" lon="-2.369132">
        <ele>1090.80004882813</ele>
        <time>2018-06-09T06:28:05.000Z</time>
      </trkpt>
      <trkpt lat="42.98836" lon="-2.369151">
        <ele>1091.7591157441</ele>
        <time>2018-06-09T06:28:07.000Z</time>
      </trkpt>
      <trkpt lat="42.988341" lon="-2.369175">
        <ele>1091.90002441406</ele>
        <time>2018-06-09T06:28:09.000Z</time>
      </trkpt>
      <trkpt lat="42.98833" lon="-2.369203">
        <ele>1092.08750325921</ele>
        <time>2018-06-09T06:28:11.000Z</time>
      </trkpt>
      <trkpt lat="42.988328" lon="-2.369233">
        <ele>1092.09997558594</ele>
        <time>2018-06-09T06:28:13.000Z</time>
      </trkpt>
      <trkpt lat="42.988319" lon="-2.369259">
        <ele>1091.51392751744</ele>
        <time>2018-06-09T06:28:15.000Z</time>
      </trkpt>
      <trkpt lat="42.988313" lon="-2.369284">
        <ele>1092.07237198125</ele>
        <time>2018-06-09T06:28:17.000Z</time>
      </trkpt>
      <trkpt lat="42.988307" lon="-2.369308">
        <ele>1092.47905861357</ele>
        <time>2018-06-09T06:28:19.000Z</time>
      </trkpt>
      <trkpt lat="42.98829" lon="-2.369338">
        <ele>1093.18013718334</ele>
        <time>2018-06-09T06:28:22.000Z</time>
      </trkpt>
      <trkpt lat="42.988276" lon="-2.369358">
        <ele>1094.15911537872</ele>
        <time>2018-06-09T06:28:24.000Z</time>
      </trkpt>
      <trkpt lat="42.988258" lon="-2.369382">
        <ele>1094.49338872987</ele>
        <time>2018-06-09T06:28:27.000Z</time>
      </trkpt>
      <trkpt lat="42.988245" lon="-2.369399">
        <ele>1094.5</ele>
        <time>2018-06-09T06:28:29.000Z</time>
      </trkpt>
      <trkpt lat="42.988227" lon="-2.369412">
        <ele>1095.17518067774</ele>
        <time>2018-06-09T06:28:31.000Z</time>
      </trkpt>
      <trkpt lat="42.988206" lon="-2.36942">
        <ele>1095.58078027344</ele>
        <time>2018-06-09T06:28:33.000Z</time>
      </trkpt>
      <trkpt lat="42.988195" lon="-2.369443">
        <ele>1095.99371393015</ele>
        <time>2018-06-09T06:28:35.000Z</time>
      </trkpt>
      <trkpt lat="42.988175" lon="-2.369461">
        <ele>1096.78668490886</ele>
        <time>2018-06-09T06:28:38.000Z</time>
      </trkpt>
      <trkpt lat="42.988153" lon="-2.369473">
        <ele>1097.08676626025</ele>
        <time>2018-06-09T06:28:40.000Z</time>
      </trkpt>
      <trkpt lat="42.988133" lon="-2.369483">
        <ele>1097.56741136169</ele>
        <time>2018-06-09T06:28:43.000Z</time>
      </trkpt>
      <trkpt lat="42.988115" lon="-2.369491">
        <ele>1097.79393017289</ele>
        <time>2018-06-09T06:28:45.000Z</time>
      </trkpt>
      <trkpt lat="42.988097" lon="-2.369499">
        <ele>1097.98761475293</ele>
        <time>2018-06-09T06:28:47.000Z</time>
      </trkpt>
      <trkpt lat="42.988076" lon="-2.369496">
        <ele>1098.99362066987</ele>
        <time>2018-06-09T06:28:50.000Z</time>
      </trkpt>
      <trkpt lat="42.988055" lon="-2.369498">
        <ele>1099.59997558594</ele>
        <time>2018-06-09T06:28:52.000Z</time>
      </trkpt>
      <trkpt lat="42.988036" lon="-2.369494">
        <ele>1100.18595395</ele>
        <time>2018-06-09T06:28:54.000Z</time>
      </trkpt>
      <trkpt lat="42.98801" lon="-2.369495">
        <ele>1101</ele>
        <time>2018-06-09T06:28:57.000Z</time>
      </trkpt>
      <trkpt lat="42.987987" lon="-2.369491">
        <ele>1102</ele>
        <time>2018-06-09T06:29:00.000Z</time>
      </trkpt>
      <trkpt lat="42.987968" lon="-2.369501">
        <ele>1102.84242089844</ele>
        <time>2018-06-09T06:29:03.000Z</time>
      </trkpt>
      <trkpt lat="42.987946" lon="-2.369497">
        <ele>1103.09314934497</ele>
        <time>2018-06-09T06:29:05.000Z</time>
      </trkpt>
      <trkpt lat="42.987928" lon="-2.369485">
        <ele>1103.09327100771</ele>
        <time>2018-06-09T06:29:07.000Z</time>
      </trkpt>
      <trkpt lat="42.987904" lon="-2.369487">
        <ele>1103.84967033133</ele>
        <time>2018-06-09T06:29:10.000Z</time>
      </trkpt>
      <trkpt lat="42.987882" lon="-2.369491">
        <ele>1104.19374617055</ele>
        <time>2018-06-09T06:29:12.000Z</time>
      </trkpt>
      <trkpt lat="42.987861" lon="-2.369493">
        <ele>1104.30004882813</ele>
        <time>2018-06-09T06:29:14.000Z</time>
      </trkpt>
      <trkpt lat="42.987841" lon="-2.369505">
        <ele>1104.59997558594</ele>
        <time>2018-06-09T06:29:16.000Z</time>
      </trkpt>
      <trkpt lat="42.987822" lon="-2.369513">
        <ele>1105.28925500936</ele>
        <time>2018-06-09T06:29:18.000Z</time>
      </trkpt>
      <trkpt lat="42.987796" lon="-2.369517">
        <ele>1105.90002441406</ele>
        <time>2018-06-09T06:29:21.000Z</time>
      </trkpt>
      <trkpt lat="42.987779" lon="-2.369514">
        <ele>1106.90002441406</ele>
        <time>2018-06-09T06:29:23.000Z</time>
      </trkpt>
      <trkpt lat="42.987758" lon="-2.369523">
        <ele>1107.98368823215</ele>
        <time>2018-06-09T06:29:26.000Z</time>
      </trkpt>
      <trkpt lat="42.987734" lon="-2.369517">
        <ele>1108.5</ele>
        <time>2018-06-09T06:29:31.000Z</time>
      </trkpt>
      <trkpt lat="42.987711" lon="-2.369515">
        <ele>1109.39972436421</ele>
        <time>2018-06-09T06:29:34.000Z</time>
      </trkpt>
      <trkpt lat="42.98769" lon="-2.369524">
        <ele>1109.90504292021</ele>
        <time>2018-06-09T06:29:38.000Z</time>
      </trkpt>
      <trkpt lat="42.987676" lon="-2.369525">
        <ele>1111.59997558594</ele>
        <time>2018-06-09T06:29:40.000Z</time>
      </trkpt>
      <trkpt lat="42.987657" lon="-2.369524">
        <ele>1112.40002441406</ele>
        <time>2018-06-09T06:29:45.000Z</time>
      </trkpt>
      <trkpt lat="42.987637" lon="-2.36952">
        <ele>1112.88989606356</ele>
        <time>2018-06-09T06:29:49.000Z</time>
      </trkpt>
      <trkpt lat="42.987618" lon="-2.369518">
        <ele>1113</ele>
        <time>2018-06-09T06:29:52.000Z</time>
      </trkpt>
      <trkpt lat="42.987593" lon="-2.369517">
        <ele>1113.48885849538</ele>
        <time>2018-06-09T06:29:56.000Z</time>
      </trkpt>
      <trkpt lat="42.987571" lon="-2.36952">
        <ele>1114.27942036861</ele>
        <time>2018-06-09T06:29:59.000Z</time>
      </trkpt>
      <trkpt lat="42.987558" lon="-2.369534">
        <ele>1115.1900142575</ele>
        <time>2018-06-09T06:30:02.000Z</time>
      </trkpt>
      <trkpt lat="42.987539" lon="-2.36955">
        <ele>1115.97206612957</ele>
        <time>2018-06-09T06:30:05.000Z</time>
      </trkpt>
      <trkpt lat="42.987519" lon="-2.369553">
        <ele>1116.28237178778</ele>
        <time>2018-06-09T06:30:08.000Z</time>
      </trkpt>
      <trkpt lat="42.987501" lon="-2.369552">
        <ele>1116.94834861094</ele>
        <time>2018-06-09T06:30:10.000Z</time>
      </trkpt>
      <trkpt lat="42.98748" lon="-2.369551">
        <ele>1117.58259686498</ele>
        <time>2018-06-09T06:30:12.000Z</time>
      </trkpt>
      <trkpt lat="42.98746" lon="-2.369543">
        <ele>1118.39200233947</ele>
        <time>2018-06-09T06:30:15.000Z</time>
      </trkpt>
      <trkpt lat="42.98744" lon="-2.369531">
        <ele>1119.07653352997</ele>
        <time>2018-06-09T06:30:17.000Z</time>
      </trkpt>
      <trkpt lat="42.987424" lon="-2.369524">
        <ele>1119.66888198497</ele>
        <time>2018-06-09T06:30:19.000Z</time>
      </trkpt>
      <trkpt lat="42.987406" lon="-2.369519">
        <ele>1120.09216937659</ele>
        <time>2018-06-09T06:30:21.000Z</time>
      </trkpt>
      <trkpt lat="42.987383" lon="-2.369504">
        <ele>1120.69995117188</ele>
        <time>2018-06-09T06:30:24.000Z</time>
      </trkpt>
      <trkpt lat="42.987358" lon="-2.369494">
        <ele>1121.28362706701</ele>
        <time>2018-06-09T06:30:27.000Z</time>
      </trkpt>
      <trkpt lat="42.987342" lon="-2.369483">
        <ele>1122.35032855301</ele>
        <time>2018-06-09T06:30:29.000Z</time>
      </trkpt>
      <trkpt lat="42.987325" lon="-2.369474">
        <ele>1122.99208596601</ele>
        <time>2018-06-09T06:30:32.000Z</time>
      </trkpt>
      <trkpt lat="42.987303" lon="-2.369465">
        <ele>1123.39242681213</ele>
        <time>2018-06-09T06:30:35.000Z</time>
      </trkpt>
      <trkpt lat="42.987282" lon="-2.369457">
        <ele>1123.96396402168</ele>
        <time>2018-06-09T06:30:38.000Z</time>
      </trkpt>
      <trkpt lat="42.987262" lon="-2.369447">
        <ele>1124.68730341806</ele>
        <time>2018-06-09T06:30:41.000Z</time>
      </trkpt>
      <trkpt lat="42.987247" lon="-2.369436">
        <ele>1125.83889755595</ele>
        <time>2018-06-09T06:30:43.000Z</time>
      </trkpt>
      <trkpt lat="42.98723" lon="-2.369425">
        <ele>1126</ele>
        <time>2018-06-09T06:30:45.000Z</time>
      </trkpt>
      <trkpt lat="42.987213" lon="-2.369412">
        <ele>1126.30004882813</ele>
        <time>2018-06-09T06:30:47.000Z</time>
      </trkpt>
      <trkpt lat="42.987194" lon="-2.369398">
        <ele>1126.48798965888</ele>
        <time>2018-06-09T06:30:50.000Z</time>
      </trkpt>
      <trkpt lat="42.987173" lon="-2.369387">
        <ele>1127.09436575141</ele>
        <time>2018-06-09T06:30:53.000Z</time>
      </trkpt>
      <trkpt lat="42.987156" lon="-2.36938">
        <ele>1127.87202441406</ele>
        <time>2018-06-09T06:30:55.000Z</time>
      </trkpt>
      <trkpt lat="42.98713" lon="-2.369369">
        <ele>1128.39453108142</ele>
        <time>2018-06-09T06:30:58.000Z</time>
      </trkpt>
      <trkpt lat="42.987107" lon="-2.369355">
        <ele>1129.29531566399</ele>
        <time>2018-06-09T06:31:01.000Z</time>
      </trkpt>
      <trkpt lat="42.987088" lon="-2.369335">
        <ele>1130.09528593773</ele>
        <time>2018-06-09T06:31:04.000Z</time>
      </trkpt>
      <trkpt lat="42.98707" lon="-2.36932">
        <ele>1130.88751041118</ele>
        <time>2018-06-09T06:31:07.000Z</time>
      </trkpt>
      <trkpt lat="42.987049" lon="-2.369301">
        <ele>1131.89098075234</ele>
        <time>2018-06-09T06:31:10.000Z</time>
      </trkpt>
      <trkpt lat="42.987029" lon="-2.369284">
        <ele>1132.29552956751</ele>
        <time>2018-06-09T06:31:13.000Z</time>
      </trkpt>
      <trkpt lat="42.987014" lon="-2.369269">
        <ele>1132.69664677667</ele>
        <time>2018-06-09T06:31:15.000Z</time>
      </trkpt>
      <trkpt lat="42.986996" lon="-2.369243">
        <ele>1133.69965112587</ele>
        <time>2018-06-09T06:31:18.000Z</time>
      </trkpt>
      <trkpt lat="42.986979" lon="-2.369217">
        <ele>1133.80085103558</ele>
        <time>2018-06-09T06:31:21.000Z</time>
      </trkpt>
      <trkpt lat="42.986969" lon="-2.369198">
        <ele>1134.30805352783</ele>
        <time>2018-06-09T06:31:23.000Z</time>
      </trkpt>
      <trkpt lat="42.986955" lon="-2.369173">
        <ele>1135.20416207865</ele>
        <time>2018-06-09T06:31:26.000Z</time>
      </trkpt>
      <trkpt lat="42.986935" lon="-2.369152">
        <ele>1135.60536047431</ele>
        <time>2018-06-09T06:31:29.000Z</time>
      </trkpt>
      <trkpt lat="42.986917" lon="-2.369138">
        <ele>1136.40283278194</ele>
        <time>2018-06-09T06:31:32.000Z</time>
      </trkpt>
      <trkpt lat="42.986894" lon="-2.369129">
        <ele>1136.90002441406</ele>
        <time>2018-06-09T06:31:36.000Z</time>
      </trkpt>
      <trkpt lat="42.986878" lon="-2.369115">
        <ele>1137.91682324219</ele>
        <time>2018-06-09T06:31:40.000Z</time>
      </trkpt>
      <trkpt lat="42.986864" lon="-2.369098">
        <ele>1138.90212438125</ele>
        <time>2018-06-09T06:31:43.000Z</time>
      </trkpt>
      <trkpt lat="42.986848" lon="-2.369084">
        <ele>1139.50750823685</ele>
        <time>2018-06-09T06:31:46.000Z</time>
      </trkpt>
      <trkpt lat="42.986825" lon="-2.369078">
        <ele>1140.30004882813</ele>
        <time>2018-06-09T06:31:49.000Z</time>
      </trkpt>
      <trkpt lat="42.986804" lon="-2.369064">
        <ele>1141.21555179063</ele>
        <time>2018-06-09T06:31:53.000Z</time>
      </trkpt>
      <trkpt lat="42.986784" lon="-2.36905">
        <ele>1142.31203521092</ele>
        <time>2018-06-09T06:31:56.000Z</time>
      </trkpt>
      <trkpt lat="42.986761" lon="-2.369039">
        <ele>1142.90002441406</ele>
        <time>2018-06-09T06:31:59.000Z</time>
      </trkpt>
      <trkpt lat="42.986744" lon="-2.369025">
        <ele>1143.80235072478</ele>
        <time>2018-06-09T06:32:02.000Z</time>
      </trkpt>
      <trkpt lat="42.986733" lon="-2.369002">
        <ele>1144.80756151853</ele>
        <time>2018-06-09T06:32:04.000Z</time>
      </trkpt>
      <trkpt lat="42.986714" lon="-2.369001">
        <ele>1145.51202400954</ele>
        <time>2018-06-09T06:32:08.000Z</time>
      </trkpt>
      <trkpt lat="42.986697" lon="-2.368998">
        <ele>1147</ele>
        <time>2018-06-09T06:32:11.000Z</time>
      </trkpt>
      <trkpt lat="42.986681" lon="-2.368988">
        <ele>1147.30756151853</ele>
        <time>2018-06-09T06:32:14.000Z</time>
      </trkpt>
      <trkpt lat="42.986661" lon="-2.368977">
        <ele>1147.7045485865</ele>
        <time>2018-06-09T06:32:17.000Z</time>
      </trkpt>
      <trkpt lat="42.986641" lon="-2.368974">
        <ele>1148.70995424384</ele>
        <time>2018-06-09T06:32:21.000Z</time>
      </trkpt>
      <trkpt lat="42.986621" lon="-2.368967">
        <ele>1149.5034056504</ele>
        <time>2018-06-09T06:32:24.000Z</time>
      </trkpt>
      <trkpt lat="42.986604" lon="-2.368957">
        <ele>1150.21194943795</ele>
        <time>2018-06-09T06:32:26.000Z</time>
      </trkpt>
      <trkpt lat="42.986585" lon="-2.368944">
        <ele>1151.5</ele>
        <time>2018-06-09T06:32:29.000Z</time>
      </trkpt>
      <trkpt lat="42.98657" lon="-2.368921">
        <ele>1152.70354825867</ele>
        <time>2018-06-09T06:32:32.000Z</time>
      </trkpt>
      <trkpt lat="42.98655" lon="-2.368895">
        <ele>1153.19995117188</ele>
        <time>2018-06-09T06:32:35.000Z</time>
      </trkpt>
      <trkpt lat="42.986533" lon="-2.368884">
        <ele>1153.80205298158</ele>
        <time>2018-06-09T06:32:37.000Z</time>
      </trkpt>
      <trkpt lat="42.986516" lon="-2.368866">
        <ele>1154.1068634354</ele>
        <time>2018-06-09T06:32:39.000Z</time>
      </trkpt>
      <trkpt lat="42.986504" lon="-2.368844">
        <ele>1154.40693701245</ele>
        <time>2018-06-09T06:32:41.000Z</time>
      </trkpt>
      <trkpt lat="42.986486" lon="-2.36882">
        <ele>1154.90814542488</ele>
        <time>2018-06-09T06:32:43.000Z</time>
      </trkpt>
      <trkpt lat="42.98647" lon="-2.368798">
        <ele>1155.20294541519</ele>
        <time>2018-06-09T06:32:45.000Z</time>
      </trkpt>
      <trkpt lat="42.986461" lon="-2.368775">
        <ele>1156.40002441406</ele>
        <time>2018-06-09T06:32:48.000Z</time>
      </trkpt>
      <trkpt lat="42.986444" lon="-2.36875">
        <ele>1156.81808163604</ele>
        <time>2018-06-09T06:32:51.000Z</time>
      </trkpt>
      <trkpt lat="42.986429" lon="-2.36873">
        <ele>1158</ele>
        <time>2018-06-09T06:32:53.000Z</time>
      </trkpt>
      <trkpt lat="42.986419" lon="-2.368708">
        <ele>1158.00662186819</ele>
        <time>2018-06-09T06:32:55.000Z</time>
      </trkpt>
      <trkpt lat="42.986415" lon="-2.368682">
        <ele>1158.41083408386</ele>
        <time>2018-06-09T06:32:57.000Z</time>
      </trkpt>
      <trkpt lat="42.98641" lon="-2.368658">
        <ele>1159.00278477497</ele>
        <time>2018-06-09T06:32:59.000Z</time>
      </trkpt>
      <trkpt lat="42.986401" lon="-2.368632">
        <ele>1159.70535758683</ele>
        <time>2018-06-09T06:33:02.000Z</time>
      </trkpt>
      <trkpt lat="42.986393" lon="-2.368607">
        <ele>1159.90581809924</ele>
        <time>2018-06-09T06:33:04.000Z</time>
      </trkpt>
      <trkpt lat="42.98638" lon="-2.368587">
        <ele>1160.30846550329</ele>
        <time>2018-06-09T06:33:06.000Z</time>
      </trkpt>
      <trkpt lat="42.986364" lon="-2.368565">
        <ele>1160.6115898097</ele>
        <time>2018-06-09T06:33:08.000Z</time>
      </trkpt>
      <trkpt lat="42.986347" lon="-2.368552">
        <ele>1161.30325124417</ele>
        <time>2018-06-09T06:33:11.000Z</time>
      </trkpt>
      <trkpt lat="42.986331" lon="-2.368526">
        <ele>1161.60697020563</ele>
        <time>2018-06-09T06:33:14.000Z</time>
      </trkpt>
      <trkpt lat="42.986316" lon="-2.368506">
        <ele>1161.80404386292</ele>
        <time>2018-06-09T06:33:16.000Z</time>
      </trkpt>
      <trkpt lat="42.986301" lon="-2.368488">
        <ele>1163.10377497813</ele>
        <time>2018-06-09T06:33:19.000Z</time>
      </trkpt>
      <trkpt lat="42.986278" lon="-2.368484">
        <ele>1163.71279040921</ele>
        <time>2018-06-09T06:33:22.000Z</time>
      </trkpt>
      <trkpt lat="42.986256" lon="-2.368483">
        <ele>1164.90864729231</ele>
        <time>2018-06-09T06:33:25.000Z</time>
      </trkpt>
      <trkpt lat="42.986239" lon="-2.368473">
        <ele>1165.804666466</ele>
        <time>2018-06-09T06:33:29.000Z</time>
      </trkpt>
      <trkpt lat="42.986228" lon="-2.368457">
        <ele>1166.81170368649</ele>
        <time>2018-06-09T06:33:32.000Z</time>
      </trkpt>
      <trkpt lat="42.986223" lon="-2.368427">
        <ele>1167.40002441406</ele>
        <time>2018-06-09T06:33:35.000Z</time>
      </trkpt>
      <trkpt lat="42.986219" lon="-2.368398">
        <ele>1167.80811137538</ele>
        <time>2018-06-09T06:33:38.000Z</time>
      </trkpt>
      <trkpt lat="42.986209" lon="-2.368369">
        <ele>1168.32775115692</ele>
        <time>2018-06-09T06:33:41.000Z</time>
      </trkpt>
      <trkpt lat="42.986196" lon="-2.368341">
        <ele>1169.09997558594</ele>
        <time>2018-06-09T06:33:44.000Z</time>
      </trkpt>
      <trkpt lat="42.986185" lon="-2.368319">
        <ele>1169.21086229687</ele>
        <time>2018-06-09T06:33:46.000Z</time>
      </trkpt>
      <trkpt lat="42.98617" lon="-2.368294">
        <ele>1169.53357195051</ele>
        <time>2018-06-09T06:33:48.000Z</time>
      </trkpt>
      <trkpt lat="42.986158" lon="-2.368266">
        <ele>1169.90002441406</ele>
        <time>2018-06-09T06:33:50.000Z</time>
      </trkpt>
      <trkpt lat="42.986139" lon="-2.368247">
        <ele>1170.1139968</ele>
        <time>2018-06-09T06:33:52.000Z</time>
      </trkpt>
      <trkpt lat="42.986126" lon="-2.368225">
        <ele>1171.12309048988</ele>
        <time>2018-06-09T06:33:54.000Z</time>
      </trkpt>
      <trkpt lat="42.986117" lon="-2.368193">
        <ele>1171.59997558594</ele>
        <time>2018-06-09T06:33:57.000Z</time>
      </trkpt>
      <trkpt lat="42.986108" lon="-2.368167">
        <ele>1172.08189764687</ele>
        <time>2018-06-09T06:33:59.000Z</time>
      </trkpt>
      <trkpt lat="42.986094" lon="-2.368144">
        <ele>1172.80004882813</ele>
        <time>2018-06-09T06:34:01.000Z</time>
      </trkpt>
      <trkpt lat="42.986073" lon="-2.368123">
        <ele>1172.80004882813</ele>
        <time>2018-06-09T06:34:03.000Z</time>
      </trkpt>
      <trkpt lat="42.986056" lon="-2.368107">
        <ele>1172.91183364346</ele>
        <time>2018-06-09T06:34:05.000Z</time>
      </trkpt>
      <trkpt lat="42.986041" lon="-2.368094">
        <ele>1173.1245590902</ele>
        <time>2018-06-09T06:34:07.000Z</time>
      </trkpt>
      <trkpt lat="42.986027" lon="-2.36807">
        <ele>1173.5</ele>
        <time>2018-06-09T06:34:09.000Z</time>
      </trkpt>
      <trkpt lat="42.986013" lon="-2.368052">
        <ele>1173.5614976</ele>
        <time>2018-06-09T06:34:11.000Z</time>
      </trkpt>
      <trkpt lat="42.985994" lon="-2.36803">
        <ele>1174.312583801</ele>
        <time>2018-06-09T06:34:13.000Z</time>
      </trkpt>
      <trkpt lat="42.985973" lon="-2.368009">
        <ele>1174.80004882813</ele>
        <time>2018-06-09T06:34:16.000Z</time>
      </trkpt>
      <trkpt lat="42.985962" lon="-2.367986">
        <ele>1175.5</ele>
        <time>2018-06-09T06:34:18.000Z</time>
      </trkpt>
      <trkpt lat="42.985949" lon="-2.367964">
        <ele>1176.06656886235</ele>
        <time>2018-06-09T06:34:20.000Z</time>
      </trkpt>
      <trkpt lat="42.985934" lon="-2.367943">
        <ele>1176.61324615022</ele>
        <time>2018-06-09T06:34:22.000Z</time>
      </trkpt>
      <trkpt lat="42.985925" lon="-2.367915">
        <ele>1176.83933779375</ele>
        <time>2018-06-09T06:34:24.000Z</time>
      </trkpt>
      <trkpt lat="42.985918" lon="-2.367887">
        <ele>1177.30004882813</ele>
        <time>2018-06-09T06:34:26.000Z</time>
      </trkpt>
      <trkpt lat="42.985903" lon="-2.367857">
        <ele>1177.47817637449</ele>
        <time>2018-06-09T06:34:28.000Z</time>
      </trkpt>
      <trkpt lat="42.985886" lon="-2.36783">
        <ele>1178.1191558834</ele>
        <time>2018-06-09T06:34:30.000Z</time>
      </trkpt>
      <trkpt lat="42.985869" lon="-2.367807">
        <ele>1178.91372090937</ele>
        <time>2018-06-09T06:34:32.000Z</time>
      </trkpt>
      <trkpt lat="42.985857" lon="-2.367778">
        <ele>1179.08031845849</ele>
        <time>2018-06-09T06:34:34.000Z</time>
      </trkpt>
      <trkpt lat="42.98584" lon="-2.367766">
        <ele>1179.62701278769</ele>
        <time>2018-06-09T06:34:36.000Z</time>
      </trkpt>
      <trkpt lat="42.985821" lon="-2.367755">
        <ele>1179.62810226838</ele>
        <time>2018-06-09T06:34:39.000Z</time>
      </trkpt>
      <trkpt lat="42.98581" lon="-2.367764">
        <ele>1180.88335937744</ele>
        <time>2018-06-09T06:34:42.000Z</time>
      </trkpt>
      <trkpt lat="42.985808" lon="-2.367735">
        <ele>1182.07203948437</ele>
        <time>2018-06-09T06:34:45.000Z</time>
      </trkpt>
      <trkpt lat="42.985805" lon="-2.367708">
        <ele>1182.2130504061</ele>
        <time>2018-06-09T06:34:48.000Z</time>
      </trkpt>
      <trkpt lat="42.98581" lon="-2.367707">
        <ele>1184.21167478298</ele>
        <time>2018-06-09T06:34:54.000Z</time>
      </trkpt>
      <trkpt lat="42.985816" lon="-2.367706">
        <ele>1182.93479591514</ele>
        <time>2018-06-09T06:35:00.000Z</time>
      </trkpt>
      <trkpt lat="42.98582" lon="-2.367699">
        <ele>1183.69385932558</ele>
        <time>2018-06-09T06:35:06.000Z</time>
      </trkpt>
      <trkpt lat="42.985801" lon="-2.367699">
        <ele>1184.97599487791</ele>
        <time>2018-06-09T06:35:09.000Z</time>
      </trkpt>
      <trkpt lat="42.985786" lon="-2.367714">
        <ele>1185.61148378823</ele>
        <time>2018-06-09T06:35:11.000Z</time>
      </trkpt>
      <trkpt lat="42.98577" lon="-2.367725">
        <ele>1184.69995117188</ele>
        <time>2018-06-09T06:35:14.000Z</time>
      </trkpt>
      <trkpt lat="42.985767" lon="-2.367759">
        <ele>1184.93406659354</ele>
        <time>2018-06-09T06:35:37.000Z</time>
      </trkpt>
      <trkpt lat="42.985765" lon="-2.367787">
        <ele>1184.26604193317</ele>
        <time>2018-06-09T06:35:39.000Z</time>
      </trkpt>
      <trkpt lat="42.985757" lon="-2.367814">
        <ele>1183.80004882813</ele>
        <time>2018-06-09T06:35:41.000Z</time>
      </trkpt>
      <trkpt lat="42.985745" lon="-2.367843">
        <ele>1183.80004882813</ele>
        <time>2018-06-09T06:35:43.000Z</time>
      </trkpt>
      <trkpt lat="42.98574" lon="-2.367875">
        <ele>1184.27383501447</ele>
        <time>2018-06-09T06:35:45.000Z</time>
      </trkpt>
      <trkpt lat="42.985739" lon="-2.367913">
        <ele>1185.5</ele>
        <time>2018-06-09T06:35:47.000Z</time>
      </trkpt>
      <trkpt lat="42.985738" lon="-2.367949">
        <ele>1185.52354881309</ele>
        <time>2018-06-09T06:35:49.000Z</time>
      </trkpt>
      <trkpt lat="42.985739" lon="-2.367993">
        <ele>1184.63614229223</ele>
        <time>2018-06-09T06:35:51.000Z</time>
      </trkpt>
      <trkpt lat="42.985732" lon="-2.368034">
        <ele>1184.17518323456</ele>
        <time>2018-06-09T06:35:53.000Z</time>
      </trkpt>
      <trkpt lat="42.985723" lon="-2.368077">
        <ele>1184.01227201243</ele>
        <time>2018-06-09T06:35:55.000Z</time>
      </trkpt>
      <trkpt lat="42.985715" lon="-2.368117">
        <ele>1184.08772982295</ele>
        <time>2018-06-09T06:35:57.000Z</time>
      </trkpt>
      <trkpt lat="42.985707" lon="-2.368164">
        <ele>1183.97468171458</ele>
        <time>2018-06-09T06:35:59.000Z</time>
      </trkpt>
      <trkpt lat="42.985702" lon="-2.368205">
        <ele>1183.35107547722</ele>
        <time>2018-06-09T06:36:01.000Z</time>
      </trkpt>
      <trkpt lat="42.9857" lon="-2.368249">
        <ele>1182.36417687902</ele>
        <time>2018-06-09T06:36:03.000Z</time>
      </trkpt>
      <trkpt lat="42.985693" lon="-2.368292">
        <ele>1182.70834259375</ele>
        <time>2018-06-09T06:36:05.000Z</time>
      </trkpt>
      <trkpt lat="42.985683" lon="-2.368329">
        <ele>1182.09997558594</ele>
        <time>2018-06-09T06:36:07.000Z</time>
      </trkpt>
      <trkpt lat="42.985676" lon="-2.368368">
        <ele>1182.11279806486</ele>
        <time>2018-06-09T06:36:09.000Z</time>
      </trkpt>
      <trkpt lat="42.985671" lon="-2.368406">
        <ele>1182.12601046041</ele>
        <time>2018-06-09T06:36:11.000Z</time>
      </trkpt>
      <trkpt lat="42.985667" lon="-2.368447">
        <ele>1182.30004882813</ele>
        <time>2018-06-09T06:36:13.000Z</time>
      </trkpt>
      <trkpt lat="42.985665" lon="-2.368491">
        <ele>1182.09997558594</ele>
        <time>2018-06-09T06:36:15.000Z</time>
      </trkpt>
      <trkpt lat="42.985654" lon="-2.368531">
        <ele>1181.91302092031</ele>
        <time>2018-06-09T06:36:17.000Z</time>
      </trkpt>
      <trkpt lat="42.985655" lon="-2.368556">
        <ele>1182</ele>
        <time>2018-06-09T06:36:18.000Z</time>
      </trkpt>
      <trkpt lat="42.985658" lon="-2.368601">
        <ele>1182.01348340223</ele>
        <time>2018-06-09T06:36:20.000Z</time>
      </trkpt>
      <trkpt lat="42.985643" lon="-2.368641">
        <ele>1181.98731560473</ele>
        <time>2018-06-09T06:36:22.000Z</time>
      </trkpt>
      <trkpt lat="42.985636" lon="-2.368663">
        <ele>1181.8113703844</ele>
        <time>2018-06-09T06:36:23.000Z</time>
      </trkpt>
      <trkpt lat="42.985627" lon="-2.368699">
        <ele>1180.40002441406</ele>
        <time>2018-06-09T06:36:25.000Z</time>
      </trkpt>
      <trkpt lat="42.985615" lon="-2.368738">
        <ele>1180.40002441406</ele>
        <time>2018-06-09T06:36:27.000Z</time>
      </trkpt>
      <trkpt lat="42.985609" lon="-2.368776">
        <ele>1180.30004882813</ele>
        <time>2018-06-09T06:36:29.000Z</time>
      </trkpt>
      <trkpt lat="42.985612" lon="-2.368801">
        <ele>1180.31257126104</ele>
        <time>2018-06-09T06:36:30.000Z</time>
      </trkpt>
      <trkpt lat="42.985614" lon="-2.368846">
        <ele>1180.38718909471</ele>
        <time>2018-06-09T06:36:32.000Z</time>
      </trkpt>
      <trkpt lat="42.985603" lon="-2.368886">
        <ele>1180.09997558594</ele>
        <time>2018-06-09T06:36:34.000Z</time>
      </trkpt>
      <trkpt lat="42.985597" lon="-2.36892">
        <ele>1180.43923508382</ele>
        <time>2018-06-09T06:36:36.000Z</time>
      </trkpt>
      <trkpt lat="42.985582" lon="-2.368955">
        <ele>1180.69995117188</ele>
        <time>2018-06-09T06:36:38.000Z</time>
      </trkpt>
      <trkpt lat="42.985579" lon="-2.36898">
        <ele>1180.73948010017</ele>
        <time>2018-06-09T06:36:39.000Z</time>
      </trkpt>
      <trkpt lat="42.985573" lon="-2.36902">
        <ele>1181.40002441406</ele>
        <time>2018-06-09T06:36:41.000Z</time>
      </trkpt>
      <trkpt lat="42.985562" lon="-2.369059">
        <ele>1181.51298354348</ele>
        <time>2018-06-09T06:36:43.000Z</time>
      </trkpt>
      <trkpt lat="42.985549" lon="-2.36909">
        <ele>1181.8612411529</ele>
        <time>2018-06-09T06:36:45.000Z</time>
      </trkpt>
      <trkpt lat="42.985535" lon="-2.369118">
        <ele>1181.58673141457</ele>
        <time>2018-06-09T06:36:47.000Z</time>
      </trkpt>
      <trkpt lat="42.985524" lon="-2.369153">
        <ele>1181.39839251875</ele>
        <time>2018-06-09T06:36:49.000Z</time>
      </trkpt>
      <trkpt lat="42.985514" lon="-2.369189">
        <ele>1180.55182844594</ele>
        <time>2018-06-09T06:36:51.000Z</time>
      </trkpt>
      <trkpt lat="42.985504" lon="-2.369224">
        <ele>1180.30004882813</ele>
        <time>2018-06-09T06:36:53.000Z</time>
      </trkpt>
      <trkpt lat="42.985495" lon="-2.369263">
        <ele>1180.58755429129</ele>
        <time>2018-06-09T06:36:55.000Z</time>
      </trkpt>
      <trkpt lat="42.985486" lon="-2.369284">
        <ele>1180.52529550764</ele>
        <time>2018-06-09T06:36:56.000Z</time>
      </trkpt>
      <trkpt lat="42.985479" lon="-2.369326">
        <ele>1180.69995117188</ele>
        <time>2018-06-09T06:36:58.000Z</time>
      </trkpt>
      <trkpt lat="42.985474" lon="-2.369364">
        <ele>1180.69995117188</ele>
        <time>2018-06-09T06:37:00.000Z</time>
      </trkpt>
      <trkpt lat="42.985476" lon="-2.369401">
        <ele>1180.66306162031</ele>
        <time>2018-06-09T06:37:02.000Z</time>
      </trkpt>
      <trkpt lat="42.985485" lon="-2.369431">
        <ele>1179.90002441406</ele>
        <time>2018-06-09T06:37:04.000Z</time>
      </trkpt>
      <trkpt lat="42.985496" lon="-2.369458">
        <ele>1180.012796875</ele>
        <time>2018-06-09T06:37:06.000Z</time>
      </trkpt>
      <trkpt lat="42.985505" lon="-2.369482">
        <ele>1180.16490915626</ele>
        <time>2018-06-09T06:37:08.000Z</time>
      </trkpt>
      <trkpt lat="42.98552" lon="-2.36951">
        <ele>1180.71288944452</ele>
        <time>2018-06-09T06:37:10.000Z</time>
      </trkpt>
      <trkpt lat="42.985535" lon="-2.369538">
        <ele>1181.49004735859</ele>
        <time>2018-06-09T06:37:12.000Z</time>
      </trkpt>
      <trkpt lat="42.985548" lon="-2.369562">
        <ele>1182.12503574168</ele>
        <time>2018-06-09T06:37:14.000Z</time>
      </trkpt>
      <trkpt lat="42.985559" lon="-2.369583">
        <ele>1182.41273416285</ele>
        <time>2018-06-09T06:37:16.000Z</time>
      </trkpt>
      <trkpt lat="42.985574" lon="-2.369603">
        <ele>1182.65197747969</ele>
        <time>2018-06-09T06:37:18.000Z</time>
      </trkpt>
      <trkpt lat="42.985592" lon="-2.369625">
        <ele>1183.11291118685</ele>
        <time>2018-06-09T06:37:20.000Z</time>
      </trkpt>
      <trkpt lat="42.985607" lon="-2.369654">
        <ele>1183.73775828438</ele>
        <time>2018-06-09T06:37:23.000Z</time>
      </trkpt>
      <trkpt lat="42.985626" lon="-2.369678">
        <ele>1184.21288944452</ele>
        <time>2018-06-09T06:37:25.000Z</time>
      </trkpt>
      <trkpt lat="42.985641" lon="-2.3697">
        <ele>1184.5</ele>
        <time>2018-06-09T06:37:27.000Z</time>
      </trkpt>
      <trkpt lat="42.985658" lon="-2.369717">
        <ele>1184.65077932656</ele>
        <time>2018-06-09T06:37:29.000Z</time>
      </trkpt>
      <trkpt lat="42.985672" lon="-2.369732">
        <ele>1185.69995117188</ele>
        <time>2018-06-09T06:37:31.000Z</time>
      </trkpt>
      <trkpt lat="42.985686" lon="-2.369755">
        <ele>1185.72491112797</ele>
        <time>2018-06-09T06:37:33.000Z</time>
      </trkpt>
      <trkpt lat="42.985695" lon="-2.369777">
        <ele>1185.91209719307</ele>
        <time>2018-06-09T06:37:35.000Z</time>
      </trkpt>
      <trkpt lat="42.985707" lon="-2.3698">
        <ele>1186.39345638661</ele>
        <time>2018-06-09T06:37:37.000Z</time>
      </trkpt>
      <trkpt lat="42.985718" lon="-2.369826">
        <ele>1187.30004882813</ele>
        <time>2018-06-09T06:37:39.000Z</time>
      </trkpt>
      <trkpt lat="42.985732" lon="-2.369859">
        <ele>1187.72176011563</ele>
        <time>2018-06-09T06:37:42.000Z</time>
      </trkpt>
      <trkpt lat="42.985746" lon="-2.369883">
        <ele>1188.61127266719</ele>
        <time>2018-06-09T06:37:44.000Z</time>
      </trkpt>
      <trkpt lat="42.98576" lon="-2.3699">
        <ele>1188.82204409688</ele>
        <time>2018-06-09T06:37:46.000Z</time>
      </trkpt>
      <trkpt lat="42.985774" lon="-2.369916">
        <ele>1189.30004882813</ele>
        <time>2018-06-09T06:37:48.000Z</time>
      </trkpt>
      <trkpt lat="42.985791" lon="-2.369936">
        <ele>1189.43364978251</ele>
        <time>2018-06-09T06:37:50.000Z</time>
      </trkpt>
      <trkpt lat="42.985806" lon="-2.36996">
        <ele>1190.1667070854</ele>
        <time>2018-06-09T06:37:53.000Z</time>
      </trkpt>
      <trkpt lat="42.985822" lon="-2.369987">
        <ele>1191.35816808065</ele>
        <time>2018-06-09T06:37:55.000Z</time>
      </trkpt>
      <trkpt lat="42.985834" lon="-2.370007">
        <ele>1191.81194608281</ele>
        <time>2018-06-09T06:37:57.000Z</time>
      </trkpt>
      <trkpt lat="42.985852" lon="-2.370023">
        <ele>1192.69995117188</ele>
        <time>2018-06-09T06:37:59.000Z</time>
      </trkpt>
      <trkpt lat="42.985872" lon="-2.370038">
        <ele>1192.71223816845</ele>
        <time>2018-06-09T06:38:01.000Z</time>
      </trkpt>
      <trkpt lat="42.985884" lon="-2.37006">
        <ele>1193.22453467614</ele>
        <time>2018-06-09T06:38:03.000Z</time>
      </trkpt>
      <trkpt lat="42.985908" lon="-2.37008">
        <ele>1194.11229686397</ele>
        <time>2018-06-09T06:38:06.000Z</time>
      </trkpt>
      <trkpt lat="42.985926" lon="-2.37009">
        <ele>1194.42539320461</ele>
        <time>2018-06-09T06:38:08.000Z</time>
      </trkpt>
      <trkpt lat="42.985947" lon="-2.370098">
        <ele>1195.69995117188</ele>
        <time>2018-06-09T06:38:11.000Z</time>
      </trkpt>
      <trkpt lat="42.985962" lon="-2.370111">
        <ele>1195.8248418111</ele>
        <time>2018-06-09T06:38:13.000Z</time>
      </trkpt>
      <trkpt lat="42.985975" lon="-2.370134">
        <ele>1196.81264607188</ele>
        <time>2018-06-09T06:38:16.000Z</time>
      </trkpt>
      <trkpt lat="42.985985" lon="-2.370159">
        <ele>1197.11291102078</ele>
        <time>2018-06-09T06:38:19.000Z</time>
      </trkpt>
      <trkpt lat="42.985996" lon="-2.370184">
        <ele>1197.97479931927</ele>
        <time>2018-06-09T06:38:22.000Z</time>
      </trkpt>
      <trkpt lat="42.986017" lon="-2.3702">
        <ele>1199.25315633906</ele>
        <time>2018-06-09T06:38:28.000Z</time>
      </trkpt>
      <trkpt lat="42.986036" lon="-2.370212">
        <ele>1199.90002441406</ele>
        <time>2018-06-09T06:38:31.000Z</time>
      </trkpt>
      <trkpt lat="42.986044" lon="-2.370233">
        <ele>1200.88068901004</ele>
        <time>2018-06-09T06:38:34.000Z</time>
      </trkpt>
      <trkpt lat="42.986061" lon="-2.370248">
        <ele>1201.52798821541</ele>
        <time>2018-06-09T06:38:36.000Z</time>
      </trkpt>
      <trkpt lat="42.986083" lon="-2.370259">
        <ele>1202.03046710205</ele>
        <time>2018-06-09T06:38:39.000Z</time>
      </trkpt>
      <trkpt lat="42.986098" lon="-2.370257">
        <ele>1202.91389479059</ele>
        <time>2018-06-09T06:38:41.000Z</time>
      </trkpt>
      <trkpt lat="42.986111" lon="-2.370282">
        <ele>1203.9142048438</ele>
        <time>2018-06-09T06:38:46.000Z</time>
      </trkpt>
      <trkpt lat="42.986125" lon="-2.370303">
        <ele>1204.95529849765</ele>
        <time>2018-06-09T06:38:48.000Z</time>
      </trkpt>
      <trkpt lat="42.986142" lon="-2.370323">
        <ele>1205.18039759534</ele>
        <time>2018-06-09T06:38:50.000Z</time>
      </trkpt>
      <trkpt lat="42.986168" lon="-2.370332">
        <ele>1205.12053263341</ele>
        <time>2018-06-09T06:38:53.000Z</time>
      </trkpt>
      <trkpt lat="42.986186" lon="-2.370332">
        <ele>1206.0630722651</ele>
        <time>2018-06-09T06:38:56.000Z</time>
      </trkpt>
      <trkpt lat="42.986203" lon="-2.370344">
        <ele>1206.64869103438</ele>
        <time>2018-06-09T06:38:59.000Z</time>
      </trkpt>
      <trkpt lat="42.986218" lon="-2.370353">
        <ele>1207.90002441406</ele>
        <time>2018-06-09T06:39:02.000Z</time>
      </trkpt>
      <trkpt lat="42.986237" lon="-2.370372">
        <ele>1208.40444380018</ele>
        <time>2018-06-09T06:39:05.000Z</time>
      </trkpt>
      <trkpt lat="42.986255" lon="-2.370373">
        <ele>1209.64194842088</ele>
        <time>2018-06-09T06:39:09.000Z</time>
      </trkpt>
      <trkpt lat="42.986265" lon="-2.370384">
        <ele>1211.18150068838</ele>
        <time>2018-06-09T06:39:12.000Z</time>
      </trkpt>
      <trkpt lat="42.986268" lon="-2.370414">
        <ele>1211.72085055593</ele>
        <time>2018-06-09T06:39:15.000Z</time>
      </trkpt>
      <trkpt lat="42.98628" lon="-2.370447">
        <ele>1212.09997558594</ele>
        <time>2018-06-09T06:39:18.000Z</time>
      </trkpt>
      <trkpt lat="42.986288" lon="-2.370479">
        <ele>1212.03094788587</ele>
        <time>2018-06-09T06:39:21.000Z</time>
      </trkpt>
      <trkpt lat="42.9863" lon="-2.370501">
        <ele>1212.66585286406</ele>
        <time>2018-06-09T06:39:23.000Z</time>
      </trkpt>
      <trkpt lat="42.98631" lon="-2.370522">
        <ele>1213.69995117188</ele>
        <time>2018-06-09T06:39:26.000Z</time>
      </trkpt>
      <trkpt lat="42.986333" lon="-2.370542">
        <ele>1213.90002441406</ele>
        <time>2018-06-09T06:39:29.000Z</time>
      </trkpt>
      <trkpt lat="42.986346" lon="-2.370566">
        <ele>1214.82209959927</ele>
        <time>2018-06-09T06:39:32.000Z</time>
      </trkpt>
      <trkpt lat="42.986346" lon="-2.370596">
        <ele>1216.09997558594</ele>
        <time>2018-06-09T06:39:34.000Z</time>
      </trkpt>
      <trkpt lat="42.986347" lon="-2.370622">
        <ele>1216.32204381534</ele>
        <time>2018-06-09T06:39:36.000Z</time>
      </trkpt>
      <trkpt lat="42.986369" lon="-2.370638">
        <ele>1216.93550615003</ele>
        <time>2018-06-09T06:39:39.000Z</time>
      </trkpt>
      <trkpt lat="42.986375" lon="-2.370664">
        <ele>1218.49046684505</ele>
        <time>2018-06-09T06:39:42.000Z</time>
      </trkpt>
      <trkpt lat="42.986373" lon="-2.370695">
        <ele>1218.99011921784</ele>
        <time>2018-06-09T06:39:44.000Z</time>
      </trkpt>
      <trkpt lat="42.98637" lon="-2.370719">
        <ele>1219.56714390103</ele>
        <time>2018-06-09T06:39:46.000Z</time>
      </trkpt>
      <trkpt lat="42.98637" lon="-2.370744">
        <ele>1220.06674507657</ele>
        <time>2018-06-09T06:39:48.000Z</time>
      </trkpt>
      <trkpt lat="42.98637" lon="-2.37078">
        <ele>1220.40002441406</ele>
        <time>2018-06-09T06:39:51.000Z</time>
      </trkpt>
      <trkpt lat="42.986374" lon="-2.370814">
        <ele>1220.5</ele>
        <time>2018-06-09T06:39:54.000Z</time>
      </trkpt>
      <trkpt lat="42.986395" lon="-2.370831">
        <ele>1220.54623520185</ele>
        <time>2018-06-09T06:39:57.000Z</time>
      </trkpt>
      <trkpt lat="42.986407" lon="-2.370853">
        <ele>1220.54683469413</ele>
        <time>2018-06-09T06:39:59.000Z</time>
      </trkpt>
      <trkpt lat="42.986423" lon="-2.370871">
        <ele>1220.84739034388</ele>
        <time>2018-06-09T06:40:02.000Z</time>
      </trkpt>
      <trkpt lat="42.986444" lon="-2.370897">
        <ele>1221.56991089687</ele>
        <time>2018-06-09T06:40:05.000Z</time>
      </trkpt>
      <trkpt lat="42.986453" lon="-2.370911">
        <ele>1222.14746084431</ele>
        <time>2018-06-09T06:40:06.000Z</time>
      </trkpt>
      <trkpt lat="42.986458" lon="-2.370941">
        <ele>1223.89069815129</ele>
        <time>2018-06-09T06:40:09.000Z</time>
      </trkpt>
      <trkpt lat="42.986471" lon="-2.370956">
        <ele>1224.5927130993</ele>
        <time>2018-06-09T06:40:12.000Z</time>
      </trkpt>
      <trkpt lat="42.986488" lon="-2.370986">
        <ele>1225.34737839233</ele>
        <time>2018-06-09T06:40:15.000Z</time>
      </trkpt>
      <trkpt lat="42.986499" lon="-2.371002">
        <ele>1226.42406656205</ele>
        <time>2018-06-09T06:40:17.000Z</time>
      </trkpt>
      <trkpt lat="42.986508" lon="-2.371025">
        <ele>1227.09997558594</ele>
        <time>2018-06-09T06:40:19.000Z</time>
      </trkpt>
      <trkpt lat="42.986522" lon="-2.371045">
        <ele>1227.31365836798</ele>
        <time>2018-06-09T06:40:21.000Z</time>
      </trkpt>
      <trkpt lat="42.986545" lon="-2.371066">
        <ele>1228.57156924054</ele>
        <time>2018-06-09T06:40:24.000Z</time>
      </trkpt>
      <trkpt lat="42.986555" lon="-2.371089">
        <ele>1228.92436166494</ele>
        <time>2018-06-09T06:40:26.000Z</time>
      </trkpt>
      <trkpt lat="42.986559" lon="-2.371117">
        <ele>1229.22522693861</ele>
        <time>2018-06-09T06:40:28.000Z</time>
      </trkpt>
      <trkpt lat="42.986559" lon="-2.371142">
        <ele>1229.30004882813</ele>
        <time>2018-06-09T06:40:30.000Z</time>
      </trkpt>
      <trkpt lat="42.986563" lon="-2.371174">
        <ele>1228.69995117188</ele>
        <time>2018-06-09T06:40:32.000Z</time>
      </trkpt>
      <trkpt lat="42.986573" lon="-2.371206">
        <ele>1229.19350979187</ele>
        <time>2018-06-09T06:40:34.000Z</time>
      </trkpt>
      <trkpt lat="42.98658" lon="-2.371229">
        <ele>1228.90002441406</ele>
        <time>2018-06-09T06:40:36.000Z</time>
      </trkpt>
      <trkpt lat="42.986581" lon="-2.371256">
        <ele>1229.3278535864</ele>
        <time>2018-06-09T06:40:38.000Z</time>
      </trkpt>
      <trkpt lat="42.986586" lon="-2.371284">
        <ele>1229.57213485676</ele>
        <time>2018-06-09T06:40:40.000Z</time>
      </trkpt>
      <trkpt lat="42.986585" lon="-2.371315">
        <ele>1230.71913911548</ele>
        <time>2018-06-09T06:40:42.000Z</time>
      </trkpt>
      <trkpt lat="42.986583" lon="-2.371352">
        <ele>1231.43911370174</ele>
        <time>2018-06-09T06:40:45.000Z</time>
      </trkpt>
      <trkpt lat="42.98659" lon="-2.37138">
        <ele>1232.66193706891</ele>
        <time>2018-06-09T06:40:47.000Z</time>
      </trkpt>
      <trkpt lat="42.986596" lon="-2.371415">
        <ele>1233</ele>
        <time>2018-06-09T06:40:50.000Z</time>
      </trkpt>
      <trkpt lat="42.986596" lon="-2.371448">
        <ele>1233.25897718594</ele>
        <time>2018-06-09T06:40:52.000Z</time>
      </trkpt>
      <trkpt lat="42.986597" lon="-2.371474">
        <ele>1233.76013548959</ele>
        <time>2018-06-09T06:40:54.000Z</time>
      </trkpt>
      <trkpt lat="42.986595" lon="-2.371507">
        <ele>1234.09997558594</ele>
        <time>2018-06-09T06:40:56.000Z</time>
      </trkpt>
      <trkpt lat="42.986594" lon="-2.371536">
        <ele>1234.30004882813</ele>
        <time>2018-06-09T06:40:58.000Z</time>
      </trkpt>
      <trkpt lat="42.986597" lon="-2.371569">
        <ele>1234.22745673688</ele>
        <time>2018-06-09T06:41:00.000Z</time>
      </trkpt>
      <trkpt lat="42.986597" lon="-2.3716">
        <ele>1234.59441967202</ele>
        <time>2018-06-09T06:41:02.000Z</time>
      </trkpt>
      <trkpt lat="42.986607" lon="-2.371632">
        <ele>1235.5</ele>
        <time>2018-06-09T06:41:05.000Z</time>
      </trkpt>
      <trkpt lat="42.986612" lon="-2.371666">
        <ele>1235.80004882813</ele>
        <time>2018-06-09T06:41:07.000Z</time>
      </trkpt>
      <trkpt lat="42.986616" lon="-2.371693">
        <ele>1236.46320851344</ele>
        <time>2018-06-09T06:41:09.000Z</time>
      </trkpt>
      <trkpt lat="42.986616" lon="-2.37173">
        <ele>1237.3638249629</ele>
        <time>2018-06-09T06:41:12.000Z</time>
      </trkpt>
      <trkpt lat="42.986615" lon="-2.371767">
        <ele>1237.91634461075</ele>
        <time>2018-06-09T06:41:15.000Z</time>
      </trkpt>
      <trkpt lat="42.986613" lon="-2.371803">
        <ele>1238.7251825875</ele>
        <time>2018-06-09T06:41:17.000Z</time>
      </trkpt>
      <trkpt lat="42.986613" lon="-2.371832">
        <ele>1239.52372496733</ele>
        <time>2018-06-09T06:41:20.000Z</time>
      </trkpt>
      <trkpt lat="42.986609" lon="-2.371851">
        <ele>1240.83140363584</ele>
        <time>2018-06-09T06:41:22.000Z</time>
      </trkpt>
      <trkpt lat="42.986613" lon="-2.371886">
        <ele>1241.19995117188</ele>
        <time>2018-06-09T06:41:25.000Z</time>
      </trkpt>
      <trkpt lat="42.986615" lon="-2.371912">
        <ele>1242.40002441406</ele>
        <time>2018-06-09T06:41:28.000Z</time>
      </trkpt>
      <trkpt lat="42.986606" lon="-2.371938">
        <ele>1242.86416122275</ele>
        <time>2018-06-09T06:41:31.000Z</time>
      </trkpt>
      <trkpt lat="42.98661" lon="-2.371963">
        <ele>1243.69995117188</ele>
        <time>2018-06-09T06:41:33.000Z</time>
      </trkpt>
      <trkpt lat="42.986622" lon="-2.37199">
        <ele>1244.40192729434</ele>
        <time>2018-06-09T06:41:37.000Z</time>
      </trkpt>
      <trkpt lat="42.986633" lon="-2.372024">
        <ele>1245.83508500146</ele>
        <time>2018-06-09T06:41:41.000Z</time>
      </trkpt>
      <trkpt lat="42.986632" lon="-2.372051">
        <ele>1245.93602363424</ele>
        <time>2018-06-09T06:41:43.000Z</time>
      </trkpt>
      <trkpt lat="42.986623" lon="-2.372077">
        <ele>1246.95151502084</ele>
        <time>2018-06-09T06:41:47.000Z</time>
      </trkpt>
      <trkpt lat="42.986625" lon="-2.372105">
        <ele>1247.75821790704</ele>
        <time>2018-06-09T06:41:52.000Z</time>
      </trkpt>
      <trkpt lat="42.986615" lon="-2.37213">
        <ele>1249.08173452936</ele>
        <time>2018-06-09T06:41:56.000Z</time>
      </trkpt>
      <trkpt lat="42.986606" lon="-2.37216">
        <ele>1249.64040672895</ele>
        <time>2018-06-09T06:41:59.000Z</time>
      </trkpt>
      <trkpt lat="42.986597" lon="-2.372193">
        <ele>1250.38938361339</ele>
        <time>2018-06-09T06:42:02.000Z</time>
      </trkpt>
      <trkpt lat="42.986599" lon="-2.37222">
        <ele>1251.19995117188</ele>
        <time>2018-06-09T06:42:04.000Z</time>
      </trkpt>
      <trkpt lat="42.986604" lon="-2.372244">
        <ele>1251.54568312409</ele>
        <time>2018-06-09T06:42:06.000Z</time>
      </trkpt>
      <trkpt lat="42.986615" lon="-2.372266">
        <ele>1252.19995117188</ele>
        <time>2018-06-09T06:42:09.000Z</time>
      </trkpt>
      <trkpt lat="42.986627" lon="-2.37229">
        <ele>1252.69995117188</ele>
        <time>2018-06-09T06:42:12.000Z</time>
      </trkpt>
      <trkpt lat="42.986633" lon="-2.372325">
        <ele>1253.40002441406</ele>
        <time>2018-06-09T06:42:17.000Z</time>
      </trkpt>
      <trkpt lat="42.986645" lon="-2.37235">
        <ele>1253.80004882813</ele>
        <time>2018-06-09T06:42:19.000Z</time>
      </trkpt>
      <trkpt lat="42.986658" lon="-2.372377">
        <ele>1254.30004882813</ele>
        <time>2018-06-09T06:42:22.000Z</time>
      </trkpt>
      <trkpt lat="42.986664" lon="-2.372403">
        <ele>1254.30004882813</ele>
        <time>2018-06-09T06:42:24.000Z</time>
      </trkpt>
      <trkpt lat="42.986679" lon="-2.372432">
        <ele>1254.40002441406</ele>
        <time>2018-06-09T06:42:27.000Z</time>
      </trkpt>
      <trkpt lat="42.986687" lon="-2.372463">
        <ele>1255.1582199388</ele>
        <time>2018-06-09T06:42:29.000Z</time>
      </trkpt>
      <trkpt lat="42.986697" lon="-2.372488">
        <ele>1257.09997558594</ele>
        <time>2018-06-09T06:42:32.000Z</time>
      </trkpt>
      <trkpt lat="42.98671" lon="-2.37251">
        <ele>1257.19995117188</ele>
        <time>2018-06-09T06:42:34.000Z</time>
      </trkpt>
      <trkpt lat="42.986724" lon="-2.372536">
        <ele>1257.35326956741</ele>
        <time>2018-06-09T06:42:36.000Z</time>
      </trkpt>
      <trkpt lat="42.986737" lon="-2.372568">
        <ele>1257.43542296195</ele>
        <time>2018-06-09T06:42:38.000Z</time>
      </trkpt>
      <trkpt lat="42.986745" lon="-2.3726">
        <ele>1258.69569819116</ele>
        <time>2018-06-09T06:42:40.000Z</time>
      </trkpt>
      <trkpt lat="42.986752" lon="-2.372633">
        <ele>1259.09997558594</ele>
        <time>2018-06-09T06:42:42.000Z</time>
      </trkpt>
      <trkpt lat="42.986768" lon="-2.372658">
        <ele>1259.59857408899</ele>
        <time>2018-06-09T06:42:44.000Z</time>
      </trkpt>
      <trkpt lat="42.98678" lon="-2.372686">
        <ele>1259.80018875249</ele>
        <time>2018-06-09T06:42:46.000Z</time>
      </trkpt>
      <trkpt lat="42.986783" lon="-2.372717">
        <ele>1260.30004882813</ele>
        <time>2018-06-09T06:42:48.000Z</time>
      </trkpt>
      <trkpt lat="42.986785" lon="-2.372758">
        <ele>1260.10384225267</ele>
        <time>2018-06-09T06:42:50.000Z</time>
      </trkpt>
      <trkpt lat="42.986793" lon="-2.37279">
        <ele>1260.80479726277</ele>
        <time>2018-06-09T06:42:52.000Z</time>
      </trkpt>
      <trkpt lat="42.986798" lon="-2.372818">
        <ele>1261.09997558594</ele>
        <time>2018-06-09T06:42:54.000Z</time>
      </trkpt>
      <trkpt lat="42.986798" lon="-2.372845">
        <ele>1261.09997558594</ele>
        <time>2018-06-09T06:42:56.000Z</time>
      </trkpt>
      <trkpt lat="42.986796" lon="-2.372872">
        <ele>1260.94776218952</ele>
        <time>2018-06-09T06:42:58.000Z</time>
      </trkpt>
      <trkpt lat="42.986794" lon="-2.372901">
        <ele>1260.80004882813</ele>
        <time>2018-06-09T06:43:00.000Z</time>
      </trkpt>
      <trkpt lat="42.98679" lon="-2.372934">
        <ele>1261.55700477714</ele>
        <time>2018-06-09T06:43:02.000Z</time>
      </trkpt>
      <trkpt lat="42.986786" lon="-2.37296">
        <ele>1261.59223789844</ele>
        <time>2018-06-09T06:43:04.000Z</time>
      </trkpt>
      <trkpt lat="42.986786" lon="-2.372983">
        <ele>1260.47030541189</ele>
        <time>2018-06-09T06:43:06.000Z</time>
      </trkpt>
      <trkpt lat="42.986777" lon="-2.372998">
        <ele>1261.55548591094</ele>
        <time>2018-06-09T06:43:32.000Z</time>
      </trkpt>
      <trkpt lat="42.986759" lon="-2.373">
        <ele>1261.59735061946</ele>
        <time>2018-06-09T06:43:50.000Z</time>
      </trkpt>
      <trkpt lat="42.986778" lon="-2.37302">
        <ele>1261.04580352098</ele>
        <time>2018-06-09T06:43:54.000Z</time>
      </trkpt>
      <trkpt lat="42.986774" lon="-2.372993">
        <ele>1261.66806042838</ele>
        <time>2018-06-09T06:43:59.000Z</time>
      </trkpt>
      <trkpt lat="42.98677" lon="-2.372967">
        <ele>1262.80536506976</ele>
        <time>2018-06-09T06:44:01.000Z</time>
      </trkpt>
      <trkpt lat="42.986765" lon="-2.372944">
        <ele>1263.59997558594</ele>
        <time>2018-06-09T06:44:04.000Z</time>
      </trkpt>
      <trkpt lat="42.986749" lon="-2.372957">
        <ele>1262.95066229749</ele>
        <time>2018-06-09T06:44:27.000Z</time>
      </trkpt>
      <trkpt lat="42.986755" lon="-2.37298">
        <ele>1261.84888336765</ele>
        <time>2018-06-09T06:44:39.000Z</time>
      </trkpt>
      <trkpt lat="42.986774" lon="-2.373003">
        <ele>1262.25164462246</ele>
        <time>2018-06-09T06:44:42.000Z</time>
      </trkpt>
      <trkpt lat="42.986791" lon="-2.37302">
        <ele>1262.55043715448</ele>
        <time>2018-06-09T06:44:50.000Z</time>
      </trkpt>
      <trkpt lat="42.986809" lon="-2.373043">
        <ele>1262.54938520532</ele>
        <time>2018-06-09T06:45:01.000Z</time>
      </trkpt>
      <trkpt lat="42.986824" lon="-2.373066">
        <ele>1262.19491804575</ele>
        <time>2018-06-09T06:45:04.000Z</time>
      </trkpt>
      <trkpt lat="42.986833" lon="-2.373094">
        <ele>1261.84933803591</ele>
        <time>2018-06-09T06:45:06.000Z</time>
      </trkpt>
      <trkpt lat="42.986842" lon="-2.373136">
        <ele>1261.59997558594</ele>
        <time>2018-06-09T06:45:08.000Z</time>
      </trkpt>
      <trkpt lat="42.98685" lon="-2.373175">
        <ele>1261.04755460858</ele>
        <time>2018-06-09T06:45:10.000Z</time>
      </trkpt>
      <trkpt lat="42.986855" lon="-2.373209">
        <ele>1259.89676322456</ele>
        <time>2018-06-09T06:45:12.000Z</time>
      </trkpt>
      <trkpt lat="42.986855" lon="-2.37324">
        <ele>1259.14906556285</ele>
        <time>2018-06-09T06:45:14.000Z</time>
      </trkpt>
      <trkpt lat="42.986855" lon="-2.373271">
        <ele>1259.09997558594</ele>
        <time>2018-06-09T06:45:16.000Z</time>
      </trkpt>
      <trkpt lat="42.986858" lon="-2.373301">
        <ele>1259.60599469768</ele>
        <time>2018-06-09T06:45:18.000Z</time>
      </trkpt>
      <trkpt lat="42.986866" lon="-2.373339">
        <ele>1260</ele>
        <time>2018-06-09T06:45:20.000Z</time>
      </trkpt>
      <trkpt lat="42.986874" lon="-2.373369">
        <ele>1259.94956194734</ele>
        <time>2018-06-09T06:45:22.000Z</time>
      </trkpt>
      <trkpt lat="42.986869" lon="-2.373397">
        <ele>1258.94745860048</ele>
        <time>2018-06-09T06:45:24.000Z</time>
      </trkpt>
      <trkpt lat="42.986865" lon="-2.37343">
        <ele>1257.69995117188</ele>
        <time>2018-06-09T06:45:26.000Z</time>
      </trkpt>
      <trkpt lat="42.986866" lon="-2.373464">
        <ele>1258.1612980853</ele>
        <time>2018-06-09T06:45:28.000Z</time>
      </trkpt>
      <trkpt lat="42.986868" lon="-2.373489">
        <ele>1258.23625432642</ele>
        <time>2018-06-09T06:45:29.000Z</time>
      </trkpt>
      <trkpt lat="42.986872" lon="-2.373513">
        <ele>1257.90002441406</ele>
        <time>2018-06-09T06:45:30.000Z</time>
      </trkpt>
      <trkpt lat="42.986882" lon="-2.37355">
        <ele>1257.90002441406</ele>
        <time>2018-06-09T06:45:32.000Z</time>
      </trkpt>
      <trkpt lat="42.986881" lon="-2.37358">
        <ele>1257.14599439933</ele>
        <time>2018-06-09T06:45:34.000Z</time>
      </trkpt>
      <trkpt lat="42.986883" lon="-2.373597">
        <ele>1256.01053067695</ele>
        <time>2018-06-09T06:45:35.000Z</time>
      </trkpt>
      <trkpt lat="42.986886" lon="-2.373621">
        <ele>1254.155749236</ele>
        <time>2018-06-09T06:45:37.000Z</time>
      </trkpt>
      <trkpt lat="42.986895" lon="-2.373642">
        <ele>1254.134837125</ele>
        <time>2018-06-09T06:45:39.000Z</time>
      </trkpt>
      <trkpt lat="42.986915" lon="-2.373649">
        <ele>1253.40002441406</ele>
        <time>2018-06-09T06:45:43.000Z</time>
      </trkpt>
      <trkpt lat="42.986929" lon="-2.373666">
        <ele>1253.69995117188</ele>
        <time>2018-06-09T06:45:46.000Z</time>
      </trkpt>
      <trkpt lat="42.986933" lon="-2.373696">
        <ele>1253.69995117188</ele>
        <time>2018-06-09T06:45:48.000Z</time>
      </trkpt>
      <trkpt lat="42.986941" lon="-2.37372">
        <ele>1253.2911796875</ele>
        <time>2018-06-09T06:45:50.000Z</time>
      </trkpt>
      <trkpt lat="42.98694" lon="-2.373752">
        <ele>1252.54053300901</ele>
        <time>2018-06-09T06:45:53.000Z</time>
      </trkpt>
      <trkpt lat="42.986947" lon="-2.373787">
        <ele>1252.03798959056</ele>
        <time>2018-06-09T06:45:55.000Z</time>
      </trkpt>
      <trkpt lat="42.986959" lon="-2.373812">
        <ele>1251.01436908125</ele>
        <time>2018-06-09T06:45:57.000Z</time>
      </trkpt>
      <trkpt lat="42.986967" lon="-2.373841">
        <ele>1250.136412875</ele>
        <time>2018-06-09T06:45:59.000Z</time>
      </trkpt>
      <trkpt lat="42.986978" lon="-2.373875">
        <ele>1249.71836043201</ele>
        <time>2018-06-09T06:46:01.000Z</time>
      </trkpt>
      <trkpt lat="42.986974" lon="-2.373906">
        <ele>1249.40002441406</ele>
        <time>2018-06-09T06:46:04.000Z</time>
      </trkpt>
      <trkpt lat="42.98697" lon="-2.373934">
        <ele>1248.30004882813</ele>
        <time>2018-06-09T06:46:19.000Z</time>
      </trkpt>
      <trkpt lat="42.986972" lon="-2.373966">
        <ele>1248.30004882813</ele>
        <time>2018-06-09T06:46:21.000Z</time>
      </trkpt>
      <trkpt lat="42.986975" lon="-2.373996">
        <ele>1248.30004882813</ele>
        <time>2018-06-09T06:46:23.000Z</time>
      </trkpt>
      <trkpt lat="42.98698" lon="-2.37403">
        <ele>1248.23908951563</ele>
        <time>2018-06-09T06:46:25.000Z</time>
      </trkpt>
      <trkpt lat="42.986987" lon="-2.374062">
        <ele>1247.90002441406</ele>
        <time>2018-06-09T06:46:27.000Z</time>
      </trkpt>
      <trkpt lat="42.986994" lon="-2.374092">
        <ele>1248</ele>
        <time>2018-06-09T06:46:29.000Z</time>
      </trkpt>
      <trkpt lat="42.987" lon="-2.374116">
        <ele>1247.96306146665</ele>
        <time>2018-06-09T06:46:31.000Z</time>
      </trkpt>
      <trkpt lat="42.987008" lon="-2.374145">
        <ele>1247.48022871973</ele>
        <time>2018-06-09T06:46:34.000Z</time>
      </trkpt>
      <trkpt lat="42.987015" lon="-2.374166">
        <ele>1246.20550392367</ele>
        <time>2018-06-09T06:46:44.000Z</time>
      </trkpt>
      <trkpt lat="42.987019" lon="-2.37419">
        <ele>1247.6631865603</ele>
        <time>2018-06-09T06:47:23.000Z</time>
      </trkpt>
      <trkpt lat="42.987027" lon="-2.374217">
        <ele>1247.50851412601</ele>
        <time>2018-06-09T06:47:25.000Z</time>
      </trkpt>
      <trkpt lat="42.98704" lon="-2.374243">
        <ele>1247.13549532886</ele>
        <time>2018-06-09T06:47:28.000Z</time>
      </trkpt>
      <trkpt lat="42.987045" lon="-2.374282">
        <ele>1247.13514291625</ele>
        <time>2018-06-09T06:47:30.000Z</time>
      </trkpt>
      <trkpt lat="42.987052" lon="-2.374318">
        <ele>1247.00499973906</ele>
        <time>2018-06-09T06:47:32.000Z</time>
      </trkpt>
      <trkpt lat="42.987059" lon="-2.374357">
        <ele>1246.80377852118</ele>
        <time>2018-06-09T06:47:34.000Z</time>
      </trkpt>
      <trkpt lat="42.987065" lon="-2.374384">
        <ele>1246.40002441406</ele>
        <time>2018-06-09T06:47:36.000Z</time>
      </trkpt>
      <trkpt lat="42.987068" lon="-2.374408">
        <ele>1246.19995117188</ele>
        <time>2018-06-09T06:47:38.000Z</time>
      </trkpt>
      <trkpt lat="42.98707" lon="-2.374431">
        <ele>1245.36745447778</ele>
        <time>2018-06-09T06:47:40.000Z</time>
      </trkpt>
      <trkpt lat="42.987077" lon="-2.374451">
        <ele>1244.19995117188</ele>
        <time>2018-06-09T06:48:06.000Z</time>
      </trkpt>
      <trkpt lat="42.987084" lon="-2.374482">
        <ele>1244.30004882813</ele>
        <time>2018-06-09T06:48:08.000Z</time>
      </trkpt>
      <trkpt lat="42.987089" lon="-2.374519">
        <ele>1244.30004882813</ele>
        <time>2018-06-09T06:48:10.000Z</time>
      </trkpt>
      <trkpt lat="42.987091" lon="-2.37455">
        <ele>1244.30004882813</ele>
        <time>2018-06-09T06:48:12.000Z</time>
      </trkpt>
      <trkpt lat="42.987095" lon="-2.374582">
        <ele>1243.52113189931</ele>
        <time>2018-06-09T06:48:14.000Z</time>
      </trkpt>
      <trkpt lat="42.9871" lon="-2.374611">
        <ele>1243.34226547699</ele>
        <time>2018-06-09T06:48:16.000Z</time>
      </trkpt>
      <trkpt lat="42.987108" lon="-2.374637">
        <ele>1242</ele>
        <time>2018-06-09T06:48:24.000Z</time>
      </trkpt>
      <trkpt lat="42.987116" lon="-2.374666">
        <ele>1241.55950475889</ele>
        <time>2018-06-09T06:48:26.000Z</time>
      </trkpt>
      <trkpt lat="42.987141" lon="-2.374667">
        <ele>1241.33987919789</ele>
        <time>2018-06-09T06:48:28.000Z</time>
      </trkpt>
      <trkpt lat="42.987165" lon="-2.374657">
        <ele>1240.65792368107</ele>
        <time>2018-06-09T06:48:30.000Z</time>
      </trkpt>
      <trkpt lat="42.987189" lon="-2.374644">
        <ele>1240.19995117188</ele>
        <time>2018-06-09T06:48:32.000Z</time>
      </trkpt>
      <trkpt lat="42.987215" lon="-2.374648">
        <ele>1239.93698686562</ele>
        <time>2018-06-09T06:48:34.000Z</time>
      </trkpt>
      <trkpt lat="42.987244" lon="-2.374651">
        <ele>1239.17171941638</ele>
        <time>2018-06-09T06:48:36.000Z</time>
      </trkpt>
      <trkpt lat="42.98727" lon="-2.374646">
        <ele>1238.16166888859</ele>
        <time>2018-06-09T06:48:38.000Z</time>
      </trkpt>
      <trkpt lat="42.987295" lon="-2.374656">
        <ele>1238.76586226812</ele>
        <time>2018-06-09T06:48:41.000Z</time>
      </trkpt>
      <trkpt lat="42.987324" lon="-2.374664">
        <ele>1239.19995117188</ele>
        <time>2018-06-09T06:48:44.000Z</time>
      </trkpt>
      <trkpt lat="42.987346" lon="-2.374675">
        <ele>1238.38559685781</ele>
        <time>2018-06-09T06:48:47.000Z</time>
      </trkpt>
      <trkpt lat="42.987366" lon="-2.374692">
        <ele>1237.80734613719</ele>
        <time>2018-06-09T06:48:49.000Z</time>
      </trkpt>
      <trkpt lat="42.987382" lon="-2.374706">
        <ele>1236.28269289641</ele>
        <time>2018-06-09T06:48:50.000Z</time>
      </trkpt>
      <trkpt lat="42.987402" lon="-2.374718">
        <ele>1235.24106590884</ele>
        <time>2018-06-09T06:48:51.000Z</time>
      </trkpt>
      <trkpt lat="42.987423" lon="-2.374721">
        <ele>1235.09997558594</ele>
        <time>2018-06-09T06:48:52.000Z</time>
      </trkpt>
      <trkpt lat="42.987442" lon="-2.374721">
        <ele>1235.1655907751</ele>
        <time>2018-06-09T06:48:53.000Z</time>
      </trkpt>
      <trkpt lat="42.987463" lon="-2.374718">
        <ele>1235.19995117188</ele>
        <time>2018-06-09T06:48:54.000Z</time>
      </trkpt>
      <trkpt lat="42.987483" lon="-2.374713">
        <ele>1235.13393358667</ele>
        <time>2018-06-09T06:48:55.000Z</time>
      </trkpt>
      <trkpt lat="42.987502" lon="-2.374712">
        <ele>1235.09997558594</ele>
        <time>2018-06-09T06:48:56.000Z</time>
      </trkpt>
      <trkpt lat="42.987522" lon="-2.374707">
        <ele>1234.54677481486</ele>
        <time>2018-06-09T06:48:57.000Z</time>
      </trkpt>
      <trkpt lat="42.987542" lon="-2.374705">
        <ele>1234.13601089185</ele>
        <time>2018-06-09T06:48:58.000Z</time>
      </trkpt>
      <trkpt lat="42.987562" lon="-2.374703">
        <ele>1233.65175550761</ele>
        <time>2018-06-09T06:48:59.000Z</time>
      </trkpt>
      <trkpt lat="42.98758" lon="-2.374703">
        <ele>1233.08002441406</ele>
        <time>2018-06-09T06:49:00.000Z</time>
      </trkpt>
      <trkpt lat="42.98761" lon="-2.374694">
        <ele>1231.78795386745</ele>
        <time>2018-06-09T06:49:02.000Z</time>
      </trkpt>
      <trkpt lat="42.987628" lon="-2.374681">
        <ele>1230.41481193302</ele>
        <time>2018-06-09T06:49:03.000Z</time>
      </trkpt>
      <trkpt lat="42.987647" lon="-2.37467">
        <ele>1229.35250620627</ele>
        <time>2018-06-09T06:49:04.000Z</time>
      </trkpt>
      <trkpt lat="42.987665" lon="-2.374664">
        <ele>1228.19945302563</ele>
        <time>2018-06-09T06:49:05.000Z</time>
      </trkpt>
      <trkpt lat="42.987683" lon="-2.374665">
        <ele>1227.18244453757</ele>
        <time>2018-06-09T06:49:06.000Z</time>
      </trkpt>
      <trkpt lat="42.987703" lon="-2.374672">
        <ele>1226.90002441406</ele>
        <time>2018-06-09T06:49:07.000Z</time>
      </trkpt>
      <trkpt lat="42.987737" lon="-2.374672">
        <ele>1226.76925377426</ele>
        <time>2018-06-09T06:49:09.000Z</time>
      </trkpt>
      <trkpt lat="42.987752" lon="-2.374662">
        <ele>1226.24148203437</ele>
        <time>2018-06-09T06:49:10.000Z</time>
      </trkpt>
      <trkpt lat="42.987786" lon="-2.374649">
        <ele>1225.30483241276</ele>
        <time>2018-06-09T06:49:12.000Z</time>
      </trkpt>
      <trkpt lat="42.987803" lon="-2.374645">
        <ele>1224.4711571063</ele>
        <time>2018-06-09T06:49:13.000Z</time>
      </trkpt>
      <trkpt lat="42.987821" lon="-2.374644">
        <ele>1223.86995014786</ele>
        <time>2018-06-09T06:49:14.000Z</time>
      </trkpt>
      <trkpt lat="42.987854" lon="-2.374654">
        <ele>1223.43401875736</ele>
        <time>2018-06-09T06:49:16.000Z</time>
      </trkpt>
      <trkpt lat="42.987888" lon="-2.374667">
        <ele>1222.73298207479</ele>
        <time>2018-06-09T06:49:18.000Z</time>
      </trkpt>
      <trkpt lat="42.987906" lon="-2.374674">
        <ele>1222.0276070351</ele>
        <time>2018-06-09T06:49:19.000Z</time>
      </trkpt>
      <trkpt lat="42.987932" lon="-2.374702">
        <ele>1220.41949886681</ele>
        <time>2018-06-09T06:49:21.000Z</time>
      </trkpt>
      <trkpt lat="42.987946" lon="-2.374719">
        <ele>1219.69789650432</ele>
        <time>2018-06-09T06:49:22.000Z</time>
      </trkpt>
      <trkpt lat="42.987979" lon="-2.374728">
        <ele>1218.8268204008</ele>
        <time>2018-06-09T06:49:24.000Z</time>
      </trkpt>
      <trkpt lat="42.987999" lon="-2.374728">
        <ele>1217.71988394842</ele>
        <time>2018-06-09T06:49:25.000Z</time>
      </trkpt>
      <trkpt lat="42.988023" lon="-2.374734">
        <ele>1217.09641145094</ele>
        <time>2018-06-09T06:49:26.000Z</time>
      </trkpt>
      <trkpt lat="42.988044" lon="-2.374739">
        <ele>1217</ele>
        <time>2018-06-09T06:49:27.000Z</time>
      </trkpt>
      <trkpt lat="42.988073" lon="-2.374744">
        <ele>1216.21158291409</ele>
        <time>2018-06-09T06:49:29.000Z</time>
      </trkpt>
      <trkpt lat="42.988092" lon="-2.374749">
        <ele>1215.41745791158</ele>
        <time>2018-06-09T06:49:30.000Z</time>
      </trkpt>
      <trkpt lat="42.988127" lon="-2.374745">
        <ele>1214.43876536307</ele>
        <time>2018-06-09T06:49:32.000Z</time>
      </trkpt>
      <trkpt lat="42.988157" lon="-2.374736">
        <ele>1213.55163147201</ele>
        <time>2018-06-09T06:49:34.000Z</time>
      </trkpt>
      <trkpt lat="42.988187" lon="-2.374745">
        <ele>1213.09997558594</ele>
        <time>2018-06-09T06:49:36.000Z</time>
      </trkpt>
      <trkpt lat="42.988224" lon="-2.374746">
        <ele>1212.62925589235</ele>
        <time>2018-06-09T06:49:38.000Z</time>
      </trkpt>
      <trkpt lat="42.988251" lon="-2.374754">
        <ele>1212.21661516922</ele>
        <time>2018-06-09T06:49:40.000Z</time>
      </trkpt>
      <trkpt lat="42.988263" lon="-2.374776">
        <ele>1210.88698869637</ele>
        <time>2018-06-09T06:49:42.000Z</time>
      </trkpt>
      <trkpt lat="42.988273" lon="-2.374793">
        <ele>1209.45451915975</ele>
        <time>2018-06-09T06:49:43.000Z</time>
      </trkpt>
      <trkpt lat="42.988292" lon="-2.374824">
        <ele>1208.75786209823</ele>
        <time>2018-06-09T06:49:45.000Z</time>
      </trkpt>
      <trkpt lat="42.98832" lon="-2.374843">
        <ele>1208.5717260203</ele>
        <time>2018-06-09T06:49:47.000Z</time>
      </trkpt>
      <trkpt lat="42.988339" lon="-2.374846">
        <ele>1208.38462721406</ele>
        <time>2018-06-09T06:49:48.000Z</time>
      </trkpt>
      <trkpt lat="42.98836" lon="-2.374846">
        <ele>1208.22810656347</ele>
        <time>2018-06-09T06:49:49.000Z</time>
      </trkpt>
      <trkpt lat="42.988378" lon="-2.374852">
        <ele>1207.98451844116</ele>
        <time>2018-06-09T06:49:50.000Z</time>
      </trkpt>
      <trkpt lat="42.988394" lon="-2.37486">
        <ele>1207.53994430211</ele>
        <time>2018-06-09T06:49:51.000Z</time>
      </trkpt>
      <trkpt lat="42.98842" lon="-2.374871">
        <ele>1206.85421521114</ele>
        <time>2018-06-09T06:49:53.000Z</time>
      </trkpt>
      <trkpt lat="42.988439" lon="-2.374885">
        <ele>1206.72693179679</ele>
        <time>2018-06-09T06:49:55.000Z</time>
      </trkpt>
      <trkpt lat="42.988455" lon="-2.374906">
        <ele>1206.6465255579</ele>
        <time>2018-06-09T06:49:57.000Z</time>
      </trkpt>
      <trkpt lat="42.988454" lon="-2.374947">
        <ele>1206.5</ele>
        <time>2018-06-09T06:49:59.000Z</time>
      </trkpt>
      <trkpt lat="42.988452" lon="-2.374974">
        <ele>1206.57390415056</ele>
        <time>2018-06-09T06:50:00.000Z</time>
      </trkpt>
      <trkpt lat="42.98845" lon="-2.374998">
        <ele>1206.52599395946</ele>
        <time>2018-06-09T06:50:01.000Z</time>
      </trkpt>
      <trkpt lat="42.988448" lon="-2.37504">
        <ele>1206.0256706387</ele>
        <time>2018-06-09T06:50:03.000Z</time>
      </trkpt>
      <trkpt lat="42.98845" lon="-2.375079">
        <ele>1205.40076536072</ele>
        <time>2018-06-09T06:50:05.000Z</time>
      </trkpt>
      <trkpt lat="42.988453" lon="-2.375118">
        <ele>1205.09997558594</ele>
        <time>2018-06-09T06:50:07.000Z</time>
      </trkpt>
      <trkpt lat="42.988458" lon="-2.37515">
        <ele>1204.92336517245</ele>
        <time>2018-06-09T06:50:09.000Z</time>
      </trkpt>
      <trkpt lat="42.988462" lon="-2.375176">
        <ele>1204.90002441406</ele>
        <time>2018-06-09T06:50:11.000Z</time>
      </trkpt>
      <trkpt lat="42.988467" lon="-2.375212">
        <ele>1204.52289488906</ele>
        <time>2018-06-09T06:50:13.000Z</time>
      </trkpt>
      <trkpt lat="42.988474" lon="-2.375248">
        <ele>1204.40002441406</ele>
        <time>2018-06-09T06:50:15.000Z</time>
      </trkpt>
      <trkpt lat="42.988485" lon="-2.375285">
        <ele>1204.12193581575</ele>
        <time>2018-06-09T06:50:17.000Z</time>
      </trkpt>
      <trkpt lat="42.988498" lon="-2.375324">
        <ele>1204.09997558594</ele>
        <time>2018-06-09T06:50:19.000Z</time>
      </trkpt>
      <trkpt lat="42.98851" lon="-2.375362">
        <ele>1203.84240727049</ele>
        <time>2018-06-09T06:50:21.000Z</time>
      </trkpt>
      <trkpt lat="42.988519" lon="-2.3754">
        <ele>1203.64187423666</ele>
        <time>2018-06-09T06:50:23.000Z</time>
      </trkpt>
      <trkpt lat="42.98853" lon="-2.375442">
        <ele>1203.52025567752</ele>
        <time>2018-06-09T06:50:25.000Z</time>
      </trkpt>
      <trkpt lat="42.988543" lon="-2.375482">
        <ele>1203.19995117188</ele>
        <time>2018-06-09T06:50:27.000Z</time>
      </trkpt>
      <trkpt lat="42.988559" lon="-2.375521">
        <ele>1203.11913264562</ele>
        <time>2018-06-09T06:50:29.000Z</time>
      </trkpt>
      <trkpt lat="42.988577" lon="-2.375561">
        <ele>1202.75568300903</ele>
        <time>2018-06-09T06:50:31.000Z</time>
      </trkpt>
      <trkpt lat="42.98859" lon="-2.375599">
        <ele>1202.08867626877</ele>
        <time>2018-06-09T06:50:33.000Z</time>
      </trkpt>
      <trkpt lat="42.988601" lon="-2.375635">
        <ele>1201.80004882813</ele>
        <time>2018-06-09T06:50:35.000Z</time>
      </trkpt>
      <trkpt lat="42.988612" lon="-2.375676">
        <ele>1201.69995117188</ele>
        <time>2018-06-09T06:50:37.000Z</time>
      </trkpt>
      <trkpt lat="42.988624" lon="-2.375715">
        <ele>1201.61581950414</ele>
        <time>2018-06-09T06:50:39.000Z</time>
      </trkpt>
      <trkpt lat="42.988638" lon="-2.375751">
        <ele>1201.41488077097</ele>
        <time>2018-06-09T06:50:41.000Z</time>
      </trkpt>
      <trkpt lat="42.988648" lon="-2.375772">
        <ele>1201.14361344863</ele>
        <time>2018-06-09T06:50:42.000Z</time>
      </trkpt>
      <trkpt lat="42.988655" lon="-2.375798">
        <ele>1200.92833153639</ele>
        <time>2018-06-09T06:50:43.000Z</time>
      </trkpt>
      <trkpt lat="42.988661" lon="-2.375823">
        <ele>1200.55674808958</ele>
        <time>2018-06-09T06:50:44.000Z</time>
      </trkpt>
      <trkpt lat="42.988667" lon="-2.375846">
        <ele>1200.0697072795</ele>
        <time>2018-06-09T06:50:45.000Z</time>
      </trkpt>
      <trkpt lat="42.98868" lon="-2.375887">
        <ele>1199.90002441406</ele>
        <time>2018-06-09T06:50:47.000Z</time>
      </trkpt>
      <trkpt lat="42.988689" lon="-2.375924">
        <ele>1199.5</ele>
        <time>2018-06-09T06:50:49.000Z</time>
      </trkpt>
      <trkpt lat="42.988703" lon="-2.375962">
        <ele>1199.69995117188</ele>
        <time>2018-06-09T06:50:51.000Z</time>
      </trkpt>
      <trkpt lat="42.988717" lon="-2.376">
        <ele>1199.69995117188</ele>
        <time>2018-06-09T06:50:53.000Z</time>
      </trkpt>
      <trkpt lat="42.988731" lon="-2.37604">
        <ele>1199.14868003134</ele>
        <time>2018-06-09T06:50:55.000Z</time>
      </trkpt>
      <trkpt lat="42.988746" lon="-2.376083">
        <ele>1199.09997558594</ele>
        <time>2018-06-09T06:50:57.000Z</time>
      </trkpt>
      <trkpt lat="42.988761" lon="-2.376119">
        <ele>1199.18772991047</ele>
        <time>2018-06-09T06:50:59.000Z</time>
      </trkpt>
      <trkpt lat="42.988781" lon="-2.376156">
        <ele>1199.19995117188</ele>
        <time>2018-06-09T06:51:01.000Z</time>
      </trkpt>
      <trkpt lat="42.988801" lon="-2.376195">
        <ele>1199.0238659928</ele>
        <time>2018-06-09T06:51:03.000Z</time>
      </trkpt>
      <trkpt lat="42.988819" lon="-2.37623">
        <ele>1199</ele>
        <time>2018-06-09T06:51:05.000Z</time>
      </trkpt>
      <trkpt lat="42.988832" lon="-2.376264">
        <ele>1199.17827086502</ele>
        <time>2018-06-09T06:51:07.000Z</time>
      </trkpt>
      <trkpt lat="42.988844" lon="-2.3763">
        <ele>1199.19995117188</ele>
        <time>2018-06-09T06:51:09.000Z</time>
      </trkpt>
      <trkpt lat="42.98886" lon="-2.376338">
        <ele>1199.30004882813</ele>
        <time>2018-06-09T06:51:11.000Z</time>
      </trkpt>
      <trkpt lat="42.988872" lon="-2.376374">
        <ele>1199.49017315335</ele>
        <time>2018-06-09T06:51:13.000Z</time>
      </trkpt>
      <trkpt lat="42.988879" lon="-2.376408">
        <ele>1199.97261462166</ele>
        <time>2018-06-09T06:51:15.000Z</time>
      </trkpt>
      <trkpt lat="42.988884" lon="-2.376442">
        <ele>1200.19995117188</ele>
        <time>2018-06-09T06:51:17.000Z</time>
      </trkpt>
      <trkpt lat="42.98889" lon="-2.376481">
        <ele>1200.19995117188</ele>
        <time>2018-06-09T06:51:19.000Z</time>
      </trkpt>
      <trkpt lat="42.988896" lon="-2.376521">
        <ele>1200</ele>
        <time>2018-06-09T06:51:21.000Z</time>
      </trkpt>
      <trkpt lat="42.988904" lon="-2.376559">
        <ele>1199.90002441406</ele>
        <time>2018-06-09T06:51:23.000Z</time>
      </trkpt>
      <trkpt lat="42.988907" lon="-2.376599">
        <ele>1199.99379499868</ele>
        <time>2018-06-09T06:51:25.000Z</time>
      </trkpt>
      <trkpt lat="42.988913" lon="-2.376639">
        <ele>1200.3886546142</ele>
        <time>2018-06-09T06:51:27.000Z</time>
      </trkpt>
      <trkpt lat="42.988921" lon="-2.37668">
        <ele>1200.58954560544</ele>
        <time>2018-06-09T06:51:29.000Z</time>
      </trkpt>
      <trkpt lat="42.988928" lon="-2.376722">
        <ele>1200.69515713012</ele>
        <time>2018-06-09T06:51:31.000Z</time>
      </trkpt>
      <trkpt lat="42.988936" lon="-2.376761">
        <ele>1200.69995117188</ele>
        <time>2018-06-09T06:51:33.000Z</time>
      </trkpt>
      <trkpt lat="42.988944" lon="-2.376805">
        <ele>1200.69995117188</ele>
        <time>2018-06-09T06:51:35.000Z</time>
      </trkpt>
      <trkpt lat="42.988952" lon="-2.376848">
        <ele>1200.79682635799</ele>
        <time>2018-06-09T06:51:37.000Z</time>
      </trkpt>
      <trkpt lat="42.988963" lon="-2.376889">
        <ele>1200.80004882813</ele>
        <time>2018-06-09T06:51:39.000Z</time>
      </trkpt>
      <trkpt lat="42.988976" lon="-2.376929">
        <ele>1200.59997558594</ele>
        <time>2018-06-09T06:51:41.000Z</time>
      </trkpt>
      <trkpt lat="42.988991" lon="-2.376964">
        <ele>1200.79522775517</ele>
        <time>2018-06-09T06:51:43.000Z</time>
      </trkpt>
      <trkpt lat="42.989006" lon="-2.376998">
        <ele>1201</ele>
        <time>2018-06-09T06:51:45.000Z</time>
      </trkpt>
      <trkpt lat="42.989025" lon="-2.377027">
        <ele>1201.09605945899</ele>
        <time>2018-06-09T06:51:47.000Z</time>
      </trkpt>
      <trkpt lat="42.989041" lon="-2.377056">
        <ele>1201.09997558594</ele>
        <time>2018-06-09T06:51:49.000Z</time>
      </trkpt>
      <trkpt lat="42.989055" lon="-2.377092">
        <ele>1201.20295754219</ele>
        <time>2018-06-09T06:51:51.000Z</time>
      </trkpt>
      <trkpt lat="42.989068" lon="-2.37713">
        <ele>1201.80105027657</ele>
        <time>2018-06-09T06:51:53.000Z</time>
      </trkpt>
      <trkpt lat="42.989081" lon="-2.377166">
        <ele>1202.09638069383</ele>
        <time>2018-06-09T06:51:55.000Z</time>
      </trkpt>
      <trkpt lat="42.989094" lon="-2.377199">
        <ele>1201.80205498854</ele>
        <time>2018-06-09T06:51:57.000Z</time>
      </trkpt>
      <trkpt lat="42.989106" lon="-2.37724">
        <ele>1202.1984909928</ele>
        <time>2018-06-09T06:51:59.000Z</time>
      </trkpt>
      <trkpt lat="42.989123" lon="-2.377279">
        <ele>1202.19844407971</ele>
        <time>2018-06-09T06:52:01.000Z</time>
      </trkpt>
      <trkpt lat="42.989133" lon="-2.377319">
        <ele>1201.90333211832</ele>
        <time>2018-06-09T06:52:03.000Z</time>
      </trkpt>
      <trkpt lat="42.989144" lon="-2.377349">
        <ele>1201.89832329066</ele>
        <time>2018-06-09T06:52:05.000Z</time>
      </trkpt>
      <trkpt lat="42.989159" lon="-2.377388">
        <ele>1201.79783530949</ele>
        <time>2018-06-09T06:52:07.000Z</time>
      </trkpt>
      <trkpt lat="42.989172" lon="-2.377422">
        <ele>1201.69692739415</ele>
        <time>2018-06-09T06:52:09.000Z</time>
      </trkpt>
      <trkpt lat="42.989185" lon="-2.377462">
        <ele>1201.69995117188</ele>
        <time>2018-06-09T06:52:11.000Z</time>
      </trkpt>
      <trkpt lat="42.989201" lon="-2.377498">
        <ele>1201.69995117188</ele>
        <time>2018-06-09T06:52:13.000Z</time>
      </trkpt>
      <trkpt lat="42.989218" lon="-2.377529">
        <ele>1201.69995117188</ele>
        <time>2018-06-09T06:52:15.000Z</time>
      </trkpt>
      <trkpt lat="42.989234" lon="-2.37756">
        <ele>1201.90622322031</ele>
        <time>2018-06-09T06:52:17.000Z</time>
      </trkpt>
      <trkpt lat="42.989252" lon="-2.377581">
        <ele>1202.0514084297</ele>
        <time>2018-06-09T06:52:19.000Z</time>
      </trkpt>
      <trkpt lat="42.989271" lon="-2.3776">
        <ele>1202.80676692052</ele>
        <time>2018-06-09T06:52:21.000Z</time>
      </trkpt>
      <trkpt lat="42.989287" lon="-2.377627">
        <ele>1202.90715130257</ele>
        <time>2018-06-09T06:52:23.000Z</time>
      </trkpt>
      <trkpt lat="42.989298" lon="-2.37766">
        <ele>1203.09997558594</ele>
        <time>2018-06-09T06:52:25.000Z</time>
      </trkpt>
      <trkpt lat="42.989312" lon="-2.37769">
        <ele>1203.35604492188</ele>
        <time>2018-06-09T06:52:27.000Z</time>
      </trkpt>
      <trkpt lat="42.989321" lon="-2.377715">
        <ele>1204.30766925506</ele>
        <time>2018-06-09T06:52:29.000Z</time>
      </trkpt>
      <trkpt lat="42.989332" lon="-2.37774">
        <ele>1204.50811406466</ele>
        <time>2018-06-09T06:52:31.000Z</time>
      </trkpt>
      <trkpt lat="42.989342" lon="-2.37777">
        <ele>1204.81751465151</ele>
        <time>2018-06-09T06:52:33.000Z</time>
      </trkpt>
      <trkpt lat="42.989351" lon="-2.3778">
        <ele>1205.35799434289</ele>
        <time>2018-06-09T06:52:35.000Z</time>
      </trkpt>
      <trkpt lat="42.989358" lon="-2.37783">
        <ele>1206.42108230934</ele>
        <time>2018-06-09T06:52:37.000Z</time>
      </trkpt>
      <trkpt lat="42.989361" lon="-2.377866">
        <ele>1206.92204463676</ele>
        <time>2018-06-09T06:52:39.000Z</time>
      </trkpt>
      <trkpt lat="42.989362" lon="-2.377896">
        <ele>1207.01123090443</ele>
        <time>2018-06-09T06:52:41.000Z</time>
      </trkpt>
      <trkpt lat="42.989363" lon="-2.377933">
        <ele>1207.09997558594</ele>
        <time>2018-06-09T06:52:43.000Z</time>
      </trkpt>
      <trkpt lat="42.989376" lon="-2.377972">
        <ele>1207.40002441406</ele>
        <time>2018-06-09T06:52:45.000Z</time>
      </trkpt>
      <trkpt lat="42.989388" lon="-2.378005">
        <ele>1207.63895431818</ele>
        <time>2018-06-09T06:52:47.000Z</time>
      </trkpt>
      <trkpt lat="42.989394" lon="-2.378031">
        <ele>1208.08356165206</ele>
        <time>2018-06-09T06:52:49.000Z</time>
      </trkpt>
      <trkpt lat="42.989398" lon="-2.378062">
        <ele>1209.15614981712</ele>
        <time>2018-06-09T06:52:52.000Z</time>
      </trkpt>
      <trkpt lat="42.989399" lon="-2.378099">
        <ele>1209.95837762003</ele>
        <time>2018-06-09T06:52:54.000Z</time>
      </trkpt>
      <trkpt lat="42.989412" lon="-2.378139">
        <ele>1210.61523280623</ele>
        <time>2018-06-09T06:52:56.000Z</time>
      </trkpt>
      <trkpt lat="42.989422" lon="-2.378162">
        <ele>1211.01609270146</ele>
        <time>2018-06-09T06:52:58.000Z</time>
      </trkpt>
      <trkpt lat="42.989427" lon="-2.378188">
        <ele>1211.90002441406</ele>
        <time>2018-06-09T06:53:00.000Z</time>
      </trkpt>
      <trkpt lat="42.98944" lon="-2.378217">
        <ele>1212.7499098738</ele>
        <time>2018-06-09T06:53:03.000Z</time>
      </trkpt>
      <trkpt lat="42.989456" lon="-2.378232">
        <ele>1213.2173205717</ele>
        <time>2018-06-09T06:53:05.000Z</time>
      </trkpt>
      <trkpt lat="42.989472" lon="-2.378244">
        <ele>1213.74756988449</ele>
        <time>2018-06-09T06:53:07.000Z</time>
      </trkpt>
      <trkpt lat="42.989486" lon="-2.378262">
        <ele>1215.31936006987</ele>
        <time>2018-06-09T06:53:09.000Z</time>
      </trkpt>
      <trkpt lat="42.989506" lon="-2.378284">
        <ele>1215.65968929826</ele>
        <time>2018-06-09T06:53:11.000Z</time>
      </trkpt>
      <trkpt lat="42.989525" lon="-2.378309">
        <ele>1216.40002441406</ele>
        <time>2018-06-09T06:53:13.000Z</time>
      </trkpt>
      <trkpt lat="42.989542" lon="-2.378328">
        <ele>1216.52182556542</ele>
        <time>2018-06-09T06:53:15.000Z</time>
      </trkpt>
      <trkpt lat="42.989559" lon="-2.378343">
        <ele>1216.92268674485</ele>
        <time>2018-06-09T06:53:17.000Z</time>
      </trkpt>
      <trkpt lat="42.989573" lon="-2.378366">
        <ele>1217.52300975375</ele>
        <time>2018-06-09T06:53:19.000Z</time>
      </trkpt>
      <trkpt lat="42.989595" lon="-2.378387">
        <ele>1217.84774224391</ele>
        <time>2018-06-09T06:53:21.000Z</time>
      </trkpt>
      <trkpt lat="42.989617" lon="-2.378403">
        <ele>1218.42027134796</ele>
        <time>2018-06-09T06:53:23.000Z</time>
      </trkpt>
      <trkpt lat="42.989634" lon="-2.378418">
        <ele>1218.9248928453</ele>
        <time>2018-06-09T06:53:25.000Z</time>
      </trkpt>
      <trkpt lat="42.989651" lon="-2.378437">
        <ele>1219.30196605978</ele>
        <time>2018-06-09T06:53:27.000Z</time>
      </trkpt>
      <trkpt lat="42.989666" lon="-2.378457">
        <ele>1219.75122110978</ele>
        <time>2018-06-09T06:53:29.000Z</time>
      </trkpt>
      <trkpt lat="42.989676" lon="-2.378479">
        <ele>1220</ele>
        <time>2018-06-09T06:53:31.000Z</time>
      </trkpt>
      <trkpt lat="42.989682" lon="-2.378512">
        <ele>1220.33535834344</ele>
        <time>2018-06-09T06:53:33.000Z</time>
      </trkpt>
      <trkpt lat="42.989693" lon="-2.378543">
        <ele>1220.69995117188</ele>
        <time>2018-06-09T06:53:35.000Z</time>
      </trkpt>
      <trkpt lat="42.989703" lon="-2.378569">
        <ele>1220.671942085</ele>
        <time>2018-06-09T06:53:37.000Z</time>
      </trkpt>
      <trkpt lat="42.989716" lon="-2.378598">
        <ele>1220.59997558594</ele>
        <time>2018-06-09T06:53:39.000Z</time>
      </trkpt>
      <trkpt lat="42.98973" lon="-2.378627">
        <ele>1220.82846999417</ele>
        <time>2018-06-09T06:53:41.000Z</time>
      </trkpt>
      <trkpt lat="42.989739" lon="-2.378656">
        <ele>1222.22899559796</ele>
        <time>2018-06-09T06:53:43.000Z</time>
      </trkpt>
      <trkpt lat="42.989754" lon="-2.378682">
        <ele>1222.30004882813</ele>
        <time>2018-06-09T06:53:45.000Z</time>
      </trkpt>
      <trkpt lat="42.98977" lon="-2.378713">
        <ele>1222.26061620312</ele>
        <time>2018-06-09T06:53:47.000Z</time>
      </trkpt>
      <trkpt lat="42.98978" lon="-2.378739">
        <ele>1222.33120360517</ele>
        <time>2018-06-09T06:53:49.000Z</time>
      </trkpt>
      <trkpt lat="42.989794" lon="-2.378763">
        <ele>1222.53201672455</ele>
        <time>2018-06-09T06:53:52.000Z</time>
      </trkpt>
      <trkpt lat="42.989804" lon="-2.378787">
        <ele>1222.89597310272</ele>
        <time>2018-06-09T06:53:57.000Z</time>
      </trkpt>
      <trkpt lat="42.989804" lon="-2.378813">
        <ele>1224.19995117188</ele>
        <time>2018-06-09T06:54:01.000Z</time>
      </trkpt>
      <trkpt lat="42.98978" lon="-2.378822">
        <ele>1224.30004882813</ele>
        <time>2018-06-09T06:54:04.000Z</time>
      </trkpt>
      <trkpt lat="42.989755" lon="-2.378825">
        <ele>1224.30004882813</ele>
        <time>2018-06-09T06:54:06.000Z</time>
      </trkpt>
      <trkpt lat="42.989731" lon="-2.378826">
        <ele>1224.34195791875</ele>
        <time>2018-06-09T06:54:08.000Z</time>
      </trkpt>
      <trkpt lat="42.989712" lon="-2.378826">
        <ele>1224.30796875</ele>
        <time>2018-06-09T06:54:10.000Z</time>
      </trkpt>
      <trkpt lat="42.989691" lon="-2.378814">
        <ele>1225.29116243475</ele>
        <time>2018-06-09T06:54:13.000Z</time>
      </trkpt>
      <trkpt lat="42.989668" lon="-2.37881">
        <ele>1225.17370758918</ele>
        <time>2018-06-09T06:54:15.000Z</time>
      </trkpt>
      <trkpt lat="42.989648" lon="-2.378814">
        <ele>1225.19995117188</ele>
        <time>2018-06-09T06:54:17.000Z</time>
      </trkpt>
      <trkpt lat="42.989621" lon="-2.378818">
        <ele>1224.77823236593</ele>
        <time>2018-06-09T06:54:19.000Z</time>
      </trkpt>
      <trkpt lat="42.989592" lon="-2.378814">
        <ele>1224.30004882813</ele>
        <time>2018-06-09T06:54:21.000Z</time>
      </trkpt>
      <trkpt lat="42.989566" lon="-2.378817">
        <ele>1224.56506237298</ele>
        <time>2018-06-09T06:54:23.000Z</time>
      </trkpt>
      <trkpt lat="42.989547" lon="-2.378815">
        <ele>1226.13804216735</ele>
        <time>2018-06-09T06:54:25.000Z</time>
      </trkpt>
      <trkpt lat="42.989536" lon="-2.378836">
        <ele>1226.43893133358</ele>
        <time>2018-06-09T06:54:28.000Z</time>
      </trkpt>
      <trkpt lat="42.989538" lon="-2.378862">
        <ele>1227.4603298147</ele>
        <time>2018-06-09T06:54:32.000Z</time>
      </trkpt>
      <trkpt lat="42.989528" lon="-2.378892">
        <ele>1228.28259392451</ele>
        <time>2018-06-09T06:54:36.000Z</time>
      </trkpt>
      <trkpt lat="42.989509" lon="-2.37892">
        <ele>1228.61534843187</ele>
        <time>2018-06-09T06:54:39.000Z</time>
      </trkpt>
      <trkpt lat="42.989493" lon="-2.378939">
        <ele>1229.4861483712</ele>
        <time>2018-06-09T06:54:41.000Z</time>
      </trkpt>
      <trkpt lat="42.989473" lon="-2.378948">
        <ele>1229.4133615944</ele>
        <time>2018-06-09T06:54:44.000Z</time>
      </trkpt>
      <trkpt lat="42.989461" lon="-2.378966">
        <ele>1229.15488172753</ele>
        <time>2018-06-09T06:54:48.000Z</time>
      </trkpt>
      <trkpt lat="42.989443" lon="-2.378985">
        <ele>1229.30004882813</ele>
        <time>2018-06-09T06:54:53.000Z</time>
      </trkpt>
      <trkpt lat="42.98943" lon="-2.379011">
        <ele>1229</ele>
        <time>2018-06-09T06:54:55.000Z</time>
      </trkpt>
      <trkpt lat="42.989427" lon="-2.379035">
        <ele>1228.81577075947</ele>
        <time>2018-06-09T06:54:57.000Z</time>
      </trkpt>
      <trkpt lat="42.989423" lon="-2.379052">
        <ele>1227.18905241868</ele>
        <time>2018-06-09T06:55:00.000Z</time>
      </trkpt>
      <trkpt lat="42.989417" lon="-2.379081">
        <ele>1226.30004882813</ele>
        <time>2018-06-09T06:55:04.000Z</time>
      </trkpt>
      <trkpt lat="42.989426" lon="-2.37911">
        <ele>1226.30004882813</ele>
        <time>2018-06-09T06:55:07.000Z</time>
      </trkpt>
      <trkpt lat="42.989431" lon="-2.379134">
        <ele>1226.30004882813</ele>
        <time>2018-06-09T06:55:09.000Z</time>
      </trkpt>
      <trkpt lat="42.989437" lon="-2.379162">
        <ele>1226.3497856906</ele>
        <time>2018-06-09T06:55:13.000Z</time>
      </trkpt>
      <trkpt lat="42.989434" lon="-2.379183">
        <ele>1227.80004882813</ele>
        <time>2018-06-09T06:55:17.000Z</time>
      </trkpt>
      <trkpt lat="42.989432" lon="-2.37921">
        <ele>1228</ele>
        <time>2018-06-09T06:55:20.000Z</time>
      </trkpt>
      <trkpt lat="42.989431" lon="-2.379239">
        <ele>1227.80004882813</ele>
        <time>2018-06-09T06:55:22.000Z</time>
      </trkpt>
      <trkpt lat="42.989433" lon="-2.37927">
        <ele>1227.40002441406</ele>
        <time>2018-06-09T06:55:24.000Z</time>
      </trkpt>
      <trkpt lat="42.989431" lon="-2.379305">
        <ele>1227</ele>
        <time>2018-06-09T06:55:27.000Z</time>
      </trkpt>
      <trkpt lat="42.989437" lon="-2.379332">
        <ele>1227.92744705034</ele>
        <time>2018-06-09T06:55:30.000Z</time>
      </trkpt>
      <trkpt lat="42.989461" lon="-2.379352">
        <ele>1228.7576650434</ele>
        <time>2018-06-09T06:55:33.000Z</time>
      </trkpt>
      <trkpt lat="42.989476" lon="-2.379372">
        <ele>1229.88999659873</ele>
        <time>2018-06-09T06:55:36.000Z</time>
      </trkpt>
      <trkpt lat="42.989487" lon="-2.379396">
        <ele>1231.46008098033</ele>
        <time>2018-06-09T06:55:39.000Z</time>
      </trkpt>
      <trkpt lat="42.989504" lon="-2.379417">
        <ele>1232.16084323735</ele>
        <time>2018-06-09T06:55:42.000Z</time>
      </trkpt>
      <trkpt lat="42.989526" lon="-2.379434">
        <ele>1233.08503399068</ele>
        <time>2018-06-09T06:55:45.000Z</time>
      </trkpt>
      <trkpt lat="42.989543" lon="-2.379457">
        <ele>1233.56230955409</ele>
        <time>2018-06-09T06:55:48.000Z</time>
      </trkpt>
      <trkpt lat="42.989554" lon="-2.379478">
        <ele>1234.21602441406</ele>
        <time>2018-06-09T06:55:51.000Z</time>
      </trkpt>
      <trkpt lat="42.989569" lon="-2.379502">
        <ele>1234.91774790897</ele>
        <time>2018-06-09T06:55:54.000Z</time>
      </trkpt>
      <trkpt lat="42.989595" lon="-2.379512">
        <ele>1235.22867896209</ele>
        <time>2018-06-09T06:55:57.000Z</time>
      </trkpt>
      <trkpt lat="42.989614" lon="-2.37952">
        <ele>1235.62387293411</ele>
        <time>2018-06-09T06:55:59.000Z</time>
      </trkpt>
      <trkpt lat="42.989629" lon="-2.379538">
        <ele>1236.06445501963</ele>
        <time>2018-06-09T06:56:01.000Z</time>
      </trkpt>
      <trkpt lat="42.989645" lon="-2.379555">
        <ele>1236.46503822896</ele>
        <time>2018-06-09T06:56:03.000Z</time>
      </trkpt>
      <trkpt lat="42.989658" lon="-2.379576">
        <ele>1237.831130435</ele>
        <time>2018-06-09T06:56:05.000Z</time>
      </trkpt>
      <trkpt lat="42.98967" lon="-2.379597">
        <ele>1238.03218882712</ele>
        <time>2018-06-09T06:56:07.000Z</time>
      </trkpt>
      <trkpt lat="42.989682" lon="-2.379626">
        <ele>1238.7046393238</ele>
        <time>2018-06-09T06:56:10.000Z</time>
      </trkpt>
      <trkpt lat="42.989695" lon="-2.37965">
        <ele>1239.66793092394</ele>
        <time>2018-06-09T06:56:12.000Z</time>
      </trkpt>
      <trkpt lat="42.989708" lon="-2.379673">
        <ele>1239.96906045867</ele>
        <time>2018-06-09T06:56:14.000Z</time>
      </trkpt>
      <trkpt lat="42.989716" lon="-2.379701">
        <ele>1240.23762841119</ele>
        <time>2018-06-09T06:56:16.000Z</time>
      </trkpt>
      <trkpt lat="42.989726" lon="-2.379732">
        <ele>1240.77790169139</ele>
        <time>2018-06-09T06:56:18.000Z</time>
      </trkpt>
      <trkpt lat="42.98974" lon="-2.379751">
        <ele>1241</ele>
        <time>2018-06-09T06:56:20.000Z</time>
      </trkpt>
      <trkpt lat="42.989754" lon="-2.379778">
        <ele>1240.90002441406</ele>
        <time>2018-06-09T06:56:22.000Z</time>
      </trkpt>
      <trkpt lat="42.989762" lon="-2.379811">
        <ele>1241.03987021597</ele>
        <time>2018-06-09T06:56:24.000Z</time>
      </trkpt>
      <trkpt lat="42.989778" lon="-2.37984">
        <ele>1241</ele>
        <time>2018-06-09T06:56:26.000Z</time>
      </trkpt>
      <trkpt lat="42.989789" lon="-2.37987">
        <ele>1241.06109090401</ele>
        <time>2018-06-09T06:56:28.000Z</time>
      </trkpt>
      <trkpt lat="42.989803" lon="-2.3799">
        <ele>1241.138281313</ele>
        <time>2018-06-09T06:56:30.000Z</time>
      </trkpt>
      <trkpt lat="42.989823" lon="-2.379929">
        <ele>1241.19995117188</ele>
        <time>2018-06-09T06:56:32.000Z</time>
      </trkpt>
      <trkpt lat="42.989839" lon="-2.37996">
        <ele>1241.26253708092</ele>
        <time>2018-06-09T06:56:34.000Z</time>
      </trkpt>
      <trkpt lat="42.989857" lon="-2.37999">
        <ele>1241.61486554113</ele>
        <time>2018-06-09T06:56:36.000Z</time>
      </trkpt>
      <trkpt lat="42.989871" lon="-2.380024">
        <ele>1241.6726927936</ele>
        <time>2018-06-09T06:56:38.000Z</time>
      </trkpt>
      <trkpt lat="42.989881" lon="-2.380057">
        <ele>1241.59997558594</ele>
        <time>2018-06-09T06:56:40.000Z</time>
      </trkpt>
      <trkpt lat="42.989896" lon="-2.380086">
        <ele>1241.59997558594</ele>
        <time>2018-06-09T06:56:42.000Z</time>
      </trkpt>
      <trkpt lat="42.989904" lon="-2.380115">
        <ele>1241.23685020688</ele>
        <time>2018-06-09T06:56:44.000Z</time>
      </trkpt>
      <trkpt lat="42.98991" lon="-2.38015">
        <ele>1240.84534122038</ele>
        <time>2018-06-09T06:56:46.000Z</time>
      </trkpt>
      <trkpt lat="42.989915" lon="-2.380183">
        <ele>1240.5</ele>
        <time>2018-06-09T06:56:48.000Z</time>
      </trkpt>
      <trkpt lat="42.989922" lon="-2.380218">
        <ele>1240.5</ele>
        <time>2018-06-09T06:56:50.000Z</time>
      </trkpt>
      <trkpt lat="42.98993" lon="-2.380257">
        <ele>1240.5</ele>
        <time>2018-06-09T06:56:52.000Z</time>
      </trkpt>
      <trkpt lat="42.989943" lon="-2.380298">
        <ele>1240.43755288718</ele>
        <time>2018-06-09T06:56:54.000Z</time>
      </trkpt>
      <trkpt lat="42.989958" lon="-2.380337">
        <ele>1239.89229751463</ele>
        <time>2018-06-09T06:56:56.000Z</time>
      </trkpt>
      <trkpt lat="42.989966" lon="-2.380376">
        <ele>1239.5</ele>
        <time>2018-06-09T06:56:58.000Z</time>
      </trkpt>
      <trkpt lat="42.989971" lon="-2.380404">
        <ele>1239</ele>
        <time>2018-06-09T06:57:00.000Z</time>
      </trkpt>
      <trkpt lat="42.989967" lon="-2.380379">
        <ele>1239.0626096001</ele>
        <time>2018-06-09T06:57:05.000Z</time>
      </trkpt>
      <trkpt lat="42.989968" lon="-2.380378">
        <ele>1241.16496698611</ele>
        <time>2018-06-09T06:57:06.000Z</time>
      </trkpt>
      <trkpt lat="42.989984" lon="-2.380406">
        <ele>1242.82537228946</ele>
        <time>2018-06-09T06:57:09.000Z</time>
      </trkpt>
      <trkpt lat="42.989996" lon="-2.380436">
        <ele>1242.811870825</ele>
        <time>2018-06-09T06:57:11.000Z</time>
      </trkpt>
      <trkpt lat="42.990009" lon="-2.380479">
        <ele>1242.27434998242</ele>
        <time>2018-06-09T06:57:13.000Z</time>
      </trkpt>
      <trkpt lat="42.990014" lon="-2.380498">
        <ele>1241.00539191156</ele>
        <time>2018-06-09T06:57:14.000Z</time>
      </trkpt>
      <trkpt lat="42.990021" lon="-2.380537">
        <ele>1239.53717953739</ele>
        <time>2018-06-09T06:57:16.000Z</time>
      </trkpt>
      <trkpt lat="42.990023" lon="-2.380575">
        <ele>1239.5</ele>
        <time>2018-06-09T06:57:18.000Z</time>
      </trkpt>
      <trkpt lat="42.990027" lon="-2.380609">
        <ele>1240.55398489687</ele>
        <time>2018-06-09T06:57:20.000Z</time>
      </trkpt>
      <trkpt lat="42.99003" lon="-2.380639">
        <ele>1242.04853751263</ele>
        <time>2018-06-09T06:57:22.000Z</time>
      </trkpt>
      <trkpt lat="42.990034" lon="-2.38067">
        <ele>1242.69995117188</ele>
        <time>2018-06-09T06:57:24.000Z</time>
      </trkpt>
      <trkpt lat="42.990039" lon="-2.380698">
        <ele>1243.06401237929</ele>
        <time>2018-06-09T06:57:27.000Z</time>
      </trkpt>
      <trkpt lat="42.99004" lon="-2.380725">
        <ele>1243.34324072656</ele>
        <time>2018-06-09T06:57:30.000Z</time>
      </trkpt>
      <trkpt lat="42.990051" lon="-2.380754">
        <ele>1243.90002441406</ele>
        <time>2018-06-09T06:57:33.000Z</time>
      </trkpt>
      <trkpt lat="42.99006" lon="-2.380776">
        <ele>1243.53436039678</ele>
        <time>2018-06-09T06:57:37.000Z</time>
      </trkpt>
      <trkpt lat="42.990077" lon="-2.380795">
        <ele>1243.33340787066</ele>
        <time>2018-06-09T06:57:41.000Z</time>
      </trkpt>
      <trkpt lat="42.990094" lon="-2.380813">
        <ele>1243.53566937119</ele>
        <time>2018-06-09T06:57:45.000Z</time>
      </trkpt>
      <trkpt lat="42.990112" lon="-2.380833">
        <ele>1244.71204533731</ele>
        <time>2018-06-09T06:57:48.000Z</time>
      </trkpt>
      <trkpt lat="42.990125" lon="-2.380859">
        <ele>1245.73823985884</ele>
        <time>2018-06-09T06:57:51.000Z</time>
      </trkpt>
      <trkpt lat="42.990136" lon="-2.380881">
        <ele>1246.40002441406</ele>
        <time>2018-06-09T06:57:53.000Z</time>
      </trkpt>
      <trkpt lat="42.990145" lon="-2.380903">
        <ele>1246.33010125742</ele>
        <time>2018-06-09T06:57:55.000Z</time>
      </trkpt>
      <trkpt lat="42.990157" lon="-2.380928">
        <ele>1247.01183159738</ele>
        <time>2018-06-09T06:57:58.000Z</time>
      </trkpt>
      <trkpt lat="42.990155" lon="-2.380957">
        <ele>1247.02797714558</ele>
        <time>2018-06-09T06:58:01.000Z</time>
      </trkpt>
      <trkpt lat="42.990163" lon="-2.380981">
        <ele>1247</ele>
        <time>2018-06-09T06:58:03.000Z</time>
      </trkpt>
      <trkpt lat="42.990169" lon="-2.381018">
        <ele>1246.40002441406</ele>
        <time>2018-06-09T06:58:06.000Z</time>
      </trkpt>
      <trkpt lat="42.990179" lon="-2.381048">
        <ele>1246.40002441406</ele>
        <time>2018-06-09T06:58:08.000Z</time>
      </trkpt>
      <trkpt lat="42.990181" lon="-2.381078">
        <ele>1246.3270883793</ele>
        <time>2018-06-09T06:58:10.000Z</time>
      </trkpt>
      <trkpt lat="42.990183" lon="-2.381111">
        <ele>1245.93341327706</ele>
        <time>2018-06-09T06:58:13.000Z</time>
      </trkpt>
      <trkpt lat="42.990179" lon="-2.381136">
        <ele>1245.22660343775</ele>
        <time>2018-06-09T06:58:15.000Z</time>
      </trkpt>
      <trkpt lat="42.990166" lon="-2.381166">
        <ele>1245</ele>
        <time>2018-06-09T06:58:17.000Z</time>
      </trkpt>
      <trkpt lat="42.990176" lon="-2.381206">
        <ele>1244.35568655019</ele>
        <time>2018-06-09T06:58:19.000Z</time>
      </trkpt>
      <trkpt lat="42.990181" lon="-2.381232">
        <ele>1244.19995117188</ele>
        <time>2018-06-09T06:58:20.000Z</time>
      </trkpt>
      <trkpt lat="42.990185" lon="-2.381261">
        <ele>1244.02524357364</ele>
        <time>2018-06-09T06:58:22.000Z</time>
      </trkpt>
      <trkpt lat="42.990193" lon="-2.381287">
        <ele>1244</ele>
        <time>2018-06-09T06:58:24.000Z</time>
      </trkpt>
      <trkpt lat="42.990216" lon="-2.38131">
        <ele>1244.15051355398</ele>
        <time>2018-06-09T06:58:26.000Z</time>
      </trkpt>
      <trkpt lat="42.990238" lon="-2.381334">
        <ele>1245.48516320104</ele>
        <time>2018-06-09T06:58:28.000Z</time>
      </trkpt>
      <trkpt lat="42.990258" lon="-2.381359">
        <ele>1246.68331653709</ele>
        <time>2018-06-09T06:58:30.000Z</time>
      </trkpt>
      <trkpt lat="42.99027" lon="-2.381384">
        <ele>1247.90002441406</ele>
        <time>2018-06-09T06:58:32.000Z</time>
      </trkpt>
      <trkpt lat="42.990287" lon="-2.381403">
        <ele>1248.09997558594</ele>
        <time>2018-06-09T06:58:34.000Z</time>
      </trkpt>
      <trkpt lat="42.9903" lon="-2.381422">
        <ele>1248.19995117188</ele>
        <time>2018-06-09T06:58:36.000Z</time>
      </trkpt>
      <trkpt lat="42.990314" lon="-2.381446">
        <ele>1248.90769013223</ele>
        <time>2018-06-09T06:58:38.000Z</time>
      </trkpt>
      <trkpt lat="42.990333" lon="-2.381468">
        <ele>1249.45788420945</ele>
        <time>2018-06-09T06:58:40.000Z</time>
      </trkpt>
      <trkpt lat="42.99035" lon="-2.381479">
        <ele>1249.81752327423</ele>
        <time>2018-06-09T06:58:42.000Z</time>
      </trkpt>
      <trkpt lat="42.990367" lon="-2.381498">
        <ele>1250.30004882813</ele>
        <time>2018-06-09T06:58:44.000Z</time>
      </trkpt>
      <trkpt lat="42.990382" lon="-2.381515">
        <ele>1250.32000389912</ele>
        <time>2018-06-09T06:58:46.000Z</time>
      </trkpt>
      <trkpt lat="42.990397" lon="-2.381533">
        <ele>1250.96138301406</ele>
        <time>2018-06-09T06:58:48.000Z</time>
      </trkpt>
      <trkpt lat="42.990417" lon="-2.381549">
        <ele>1251.09997558594</ele>
        <time>2018-06-09T06:58:50.000Z</time>
      </trkpt>
      <trkpt lat="42.99043" lon="-2.381566">
        <ele>1251.30004882813</ele>
        <time>2018-06-09T06:58:52.000Z</time>
      </trkpt>
      <trkpt lat="42.990425" lon="-2.381584">
        <ele>1252.62614808562</ele>
        <time>2018-06-09T06:58:55.000Z</time>
      </trkpt>
      <trkpt lat="42.990416" lon="-2.381618">
        <ele>1253.40002441406</ele>
        <time>2018-06-09T06:58:58.000Z</time>
      </trkpt>
      <trkpt lat="42.990413" lon="-2.38165">
        <ele>1253.64825863033</ele>
        <time>2018-06-09T06:59:00.000Z</time>
      </trkpt>
      <trkpt lat="42.99041" lon="-2.381677">
        <ele>1254.48144828249</ele>
        <time>2018-06-09T06:59:02.000Z</time>
      </trkpt>
      <trkpt lat="42.990401" lon="-2.381707">
        <ele>1254.98227545039</ele>
        <time>2018-06-09T06:59:05.000Z</time>
      </trkpt>
      <trkpt lat="42.990387" lon="-2.381723">
        <ele>1256.54998715056</ele>
        <time>2018-06-09T06:59:10.000Z</time>
      </trkpt>
      <trkpt lat="42.990373" lon="-2.38174">
        <ele>1257</ele>
        <time>2018-06-09T06:59:14.000Z</time>
      </trkpt>
      <trkpt lat="42.990367" lon="-2.381761">
        <ele>1258.30002719799</ele>
        <time>2018-06-09T06:59:17.000Z</time>
      </trkpt>
      <trkpt lat="42.990344" lon="-2.381785">
        <ele>1258.98499831403</ele>
        <time>2018-06-09T06:59:20.000Z</time>
      </trkpt>
      <trkpt lat="42.990329" lon="-2.3818">
        <ele>1259.19995117188</ele>
        <time>2018-06-09T06:59:24.000Z</time>
      </trkpt>
      <trkpt lat="42.990315" lon="-2.381788">
        <ele>1260.41114406779</ele>
        <time>2018-06-09T06:59:45.000Z</time>
      </trkpt>
      <trkpt lat="42.990323" lon="-2.381821">
        <ele>1260.61030416742</ele>
        <time>2018-06-09T06:59:54.000Z</time>
      </trkpt>
      <trkpt lat="42.990325" lon="-2.381861">
        <ele>1260.32931694612</ele>
        <time>2018-06-09T06:59:56.000Z</time>
      </trkpt>
      <trkpt lat="42.990319" lon="-2.381892">
        <ele>1260.23943608438</ele>
        <time>2018-06-09T06:59:58.000Z</time>
      </trkpt>
      <trkpt lat="42.990311" lon="-2.381917">
        <ele>1259.59997558594</ele>
        <time>2018-06-09T07:00:00.000Z</time>
      </trkpt>
      <trkpt lat="42.990305" lon="-2.381955">
        <ele>1260.47072504994</ele>
        <time>2018-06-09T07:00:02.000Z</time>
      </trkpt>
      <trkpt lat="42.990314" lon="-2.381984">
        <ele>1260.5</ele>
        <time>2018-06-09T07:00:04.000Z</time>
      </trkpt>
      <trkpt lat="42.990323" lon="-2.382015">
        <ele>1260.5</ele>
        <time>2018-06-09T07:00:06.000Z</time>
      </trkpt>
      <trkpt lat="42.990333" lon="-2.382046">
        <ele>1259.89220027142</ele>
        <time>2018-06-09T07:00:08.000Z</time>
      </trkpt>
      <trkpt lat="42.99035" lon="-2.382081">
        <ele>1259.30004882813</ele>
        <time>2018-06-09T07:00:10.000Z</time>
      </trkpt>
      <trkpt lat="42.990363" lon="-2.38212">
        <ele>1259.12440827485</ele>
        <time>2018-06-09T07:00:12.000Z</time>
      </trkpt>
      <trkpt lat="42.990375" lon="-2.382154">
        <ele>1258.14736901728</ele>
        <time>2018-06-09T07:00:14.000Z</time>
      </trkpt>
      <trkpt lat="42.990379" lon="-2.38217">
        <ele>1256.3253284241</ele>
        <time>2018-06-09T07:00:15.000Z</time>
      </trkpt>
      <trkpt lat="42.99039" lon="-2.382202">
        <ele>1255.92143988501</ele>
        <time>2018-06-09T07:00:17.000Z</time>
      </trkpt>
      <trkpt lat="42.990403" lon="-2.382229">
        <ele>1255.72060026805</ele>
        <time>2018-06-09T07:00:19.000Z</time>
      </trkpt>
      <trkpt lat="42.990431" lon="-2.38225">
        <ele>1255.69995117188</ele>
        <time>2018-06-09T07:00:21.000Z</time>
      </trkpt>
      <trkpt lat="42.990438" lon="-2.382257">
        <ele>1253.54509119718</ele>
        <time>2018-06-09T07:00:22.000Z</time>
      </trkpt>
      <trkpt lat="42.990447" lon="-2.382287">
        <ele>1253.30004882813</ele>
        <time>2018-06-09T07:00:24.000Z</time>
      </trkpt>
      <trkpt lat="42.990468" lon="-2.382318">
        <ele>1251.93562594688</ele>
        <time>2018-06-09T07:00:26.000Z</time>
      </trkpt>
      <trkpt lat="42.99048" lon="-2.382342">
        <ele>1250.79263111565</ele>
        <time>2018-06-09T07:00:28.000Z</time>
      </trkpt>
      <trkpt lat="42.990481" lon="-2.382356">
        <ele>1248.96311880395</ele>
        <time>2018-06-09T07:00:29.000Z</time>
      </trkpt>
      <trkpt lat="42.990486" lon="-2.38239">
        <ele>1248.80004882813</ele>
        <time>2018-06-09T07:00:31.000Z</time>
      </trkpt>
      <trkpt lat="42.990483" lon="-2.382425">
        <ele>1248.69188552036</ele>
        <time>2018-06-09T07:00:33.000Z</time>
      </trkpt>
      <trkpt lat="42.990497" lon="-2.382462">
        <ele>1248.69995117188</ele>
        <time>2018-06-09T07:00:35.000Z</time>
      </trkpt>
      <trkpt lat="42.990517" lon="-2.382489">
        <ele>1246.5038425702</ele>
        <time>2018-06-09T07:00:37.000Z</time>
      </trkpt>
      <trkpt lat="42.990546" lon="-2.382501">
        <ele>1245.92414403262</ele>
        <time>2018-06-09T07:00:39.000Z</time>
      </trkpt>
      <trkpt lat="42.990578" lon="-2.382508">
        <ele>1245.60629313012</ele>
        <time>2018-06-09T07:00:41.000Z</time>
      </trkpt>
      <trkpt lat="42.990594" lon="-2.382516">
        <ele>1244.28023226691</ele>
        <time>2018-06-09T07:00:42.000Z</time>
      </trkpt>
      <trkpt lat="42.99062" lon="-2.382537">
        <ele>1243.82291109895</ele>
        <time>2018-06-09T07:00:44.000Z</time>
      </trkpt>
      <trkpt lat="42.990648" lon="-2.382568">
        <ele>1243.40475655915</ele>
        <time>2018-06-09T07:00:46.000Z</time>
      </trkpt>
      <trkpt lat="42.99067" lon="-2.382604">
        <ele>1243.40002441406</ele>
        <time>2018-06-09T07:00:48.000Z</time>
      </trkpt>
      <trkpt lat="42.990679" lon="-2.382623">
        <ele>1242.24703862383</ele>
        <time>2018-06-09T07:00:49.000Z</time>
      </trkpt>
      <trkpt lat="42.990688" lon="-2.382642">
        <ele>1241.32904874897</ele>
        <time>2018-06-09T07:00:50.000Z</time>
      </trkpt>
      <trkpt lat="42.990707" lon="-2.382682">
        <ele>1241</ele>
        <time>2018-06-09T07:00:52.000Z</time>
      </trkpt>
      <trkpt lat="42.990726" lon="-2.382716">
        <ele>1241</ele>
        <time>2018-06-09T07:00:54.000Z</time>
      </trkpt>
      <trkpt lat="42.990743" lon="-2.382745">
        <ele>1240.59997558594</ele>
        <time>2018-06-09T07:00:56.000Z</time>
      </trkpt>
      <trkpt lat="42.990753" lon="-2.38276">
        <ele>1238.84702938697</ele>
        <time>2018-06-09T07:00:57.000Z</time>
      </trkpt>
      <trkpt lat="42.990768" lon="-2.38278">
        <ele>1238.60268258954</ele>
        <time>2018-06-09T07:00:59.000Z</time>
      </trkpt>
      <trkpt lat="42.990787" lon="-2.382812">
        <ele>1238.30004882813</ele>
        <time>2018-06-09T07:01:01.000Z</time>
      </trkpt>
      <trkpt lat="42.990803" lon="-2.382838">
        <ele>1238.5</ele>
        <time>2018-06-09T07:01:03.000Z</time>
      </trkpt>
      <trkpt lat="42.990812" lon="-2.38286">
        <ele>1239.67796991796</ele>
        <time>2018-06-09T07:01:05.000Z</time>
      </trkpt>
      <trkpt lat="42.990814" lon="-2.382874">
        <ele>1241.56377535188</ele>
        <time>2018-06-09T07:01:06.000Z</time>
      </trkpt>
      <trkpt lat="42.990822" lon="-2.382897">
        <ele>1242.09997558594</ele>
        <time>2018-06-09T07:01:08.000Z</time>
      </trkpt>
      <trkpt lat="42.990834" lon="-2.382926">
        <ele>1242.19854558038</ele>
        <time>2018-06-09T07:01:10.000Z</time>
      </trkpt>
      <trkpt lat="42.990845" lon="-2.382955">
        <ele>1242.19995117188</ele>
        <time>2018-06-09T07:01:12.000Z</time>
      </trkpt>
      <trkpt lat="42.990855" lon="-2.382975">
        <ele>1242.89352201406</ele>
        <time>2018-06-09T07:01:14.000Z</time>
      </trkpt>
      <trkpt lat="42.990859" lon="-2.382999">
        <ele>1243.89462019818</ele>
        <time>2018-06-09T07:01:16.000Z</time>
      </trkpt>
      <trkpt lat="42.990864" lon="-2.38304">
        <ele>1244.09877283741</ele>
        <time>2018-06-09T07:01:18.000Z</time>
      </trkpt>
      <trkpt lat="42.990863" lon="-2.383068">
        <ele>1244.49680936129</ele>
        <time>2018-06-09T07:01:20.000Z</time>
      </trkpt>
      <trkpt lat="42.990867" lon="-2.383093">
        <ele>1245.69634984089</ele>
        <time>2018-06-09T07:01:22.000Z</time>
      </trkpt>
      <trkpt lat="42.990872" lon="-2.383115">
        <ele>1246.79884947757</ele>
        <time>2018-06-09T07:01:25.000Z</time>
      </trkpt>
      <trkpt lat="42.99087" lon="-2.38314">
        <ele>1247</ele>
        <time>2018-06-09T07:01:28.000Z</time>
      </trkpt>
      <trkpt lat="42.990867" lon="-2.383155">
        <ele>1247.50601151752</ele>
        <time>2018-06-09T07:01:30.000Z</time>
      </trkpt>
      <trkpt lat="42.990865" lon="-2.383181">
        <ele>1248.70155543138</ele>
        <time>2018-06-09T07:01:33.000Z</time>
      </trkpt>
      <trkpt lat="42.990858" lon="-2.383213">
        <ele>1249.70155817554</ele>
        <time>2018-06-09T07:01:36.000Z</time>
      </trkpt>
      <trkpt lat="42.990852" lon="-2.383244">
        <ele>1250.20709900174</ele>
        <time>2018-06-09T07:01:38.000Z</time>
      </trkpt>
      <trkpt lat="42.990868" lon="-2.383261">
        <ele>1251.09997558594</ele>
        <time>2018-06-09T07:01:40.000Z</time>
      </trkpt>
      <trkpt lat="42.990878" lon="-2.383274">
        <ele>1251.52096075182</ele>
        <time>2018-06-09T07:01:42.000Z</time>
      </trkpt>
      <trkpt lat="42.99087" lon="-2.383297">
        <ele>1252.90002441406</ele>
        <time>2018-06-09T07:01:45.000Z</time>
      </trkpt>
      <trkpt lat="42.990869" lon="-2.383322">
        <ele>1253.31103945508</ele>
        <time>2018-06-09T07:01:47.000Z</time>
      </trkpt>
      <trkpt lat="42.990882" lon="-2.383348">
        <ele>1254.31689812326</ele>
        <time>2018-06-09T07:01:50.000Z</time>
      </trkpt>
      <trkpt lat="42.990884" lon="-2.383372">
        <ele>1255.1667861438</ele>
        <time>2018-06-09T07:01:53.000Z</time>
      </trkpt>
      <trkpt lat="42.990881" lon="-2.383407">
        <ele>1256.9057457846</ele>
        <time>2018-06-09T07:01:58.000Z</time>
      </trkpt>
      <trkpt lat="42.990889" lon="-2.383428">
        <ele>1257.52143261113</ele>
        <time>2018-06-09T07:02:02.000Z</time>
      </trkpt>
      <trkpt lat="42.990893" lon="-2.383432">
        <ele>1257.9842986048</ele>
        <time>2018-06-09T07:02:03.000Z</time>
      </trkpt>
      <trkpt lat="42.9909" lon="-2.383464">
        <ele>1260.40002441406</ele>
        <time>2018-06-09T07:02:07.000Z</time>
      </trkpt>
      <trkpt lat="42.990901" lon="-2.383493">
        <ele>1260.40002441406</ele>
        <time>2018-06-09T07:02:10.000Z</time>
      </trkpt>
      <trkpt lat="42.990908" lon="-2.383514">
        <ele>1260.92024062605</ele>
        <time>2018-06-09T07:02:14.000Z</time>
      </trkpt>
      <trkpt lat="42.990913" lon="-2.38351">
        <ele>1262.20449870324</ele>
        <time>2018-06-09T07:02:17.000Z</time>
      </trkpt>
      <trkpt lat="42.990931" lon="-2.38352">
        <ele>1263.55761337985</ele>
        <time>2018-06-09T07:02:20.000Z</time>
      </trkpt>
      <trkpt lat="42.99095" lon="-2.383532">
        <ele>1265</ele>
        <time>2018-06-09T07:02:26.000Z</time>
      </trkpt>
      <trkpt lat="42.990964" lon="-2.383555">
        <ele>1266.09997558594</ele>
        <time>2018-06-09T07:02:30.000Z</time>
      </trkpt>
      <trkpt lat="42.990966" lon="-2.383583">
        <ele>1266.13288530964</ele>
        <time>2018-06-09T07:02:32.000Z</time>
      </trkpt>
      <trkpt lat="42.990967" lon="-2.383612">
        <ele>1266.65053522529</ele>
        <time>2018-06-09T07:02:35.000Z</time>
      </trkpt>
      <trkpt lat="42.990974" lon="-2.383637">
        <ele>1266.93492108031</ele>
        <time>2018-06-09T07:02:37.000Z</time>
      </trkpt>
      <trkpt lat="42.990984" lon="-2.383652">
        <ele>1268.03534181094</ele>
        <time>2018-06-09T07:02:42.000Z</time>
      </trkpt>
      <trkpt lat="42.990995" lon="-2.383678">
        <ele>1269.81930180715</ele>
        <time>2018-06-09T07:02:48.000Z</time>
      </trkpt>
      <trkpt lat="42.99101" lon="-2.383697">
        <ele>1270.15663321657</ele>
        <time>2018-06-09T07:02:51.000Z</time>
      </trkpt>
      <trkpt lat="42.991016" lon="-2.383723">
        <ele>1272.12033138023</ele>
        <time>2018-06-09T07:02:56.000Z</time>
      </trkpt>
      <trkpt lat="42.991016" lon="-2.383754">
        <ele>1272.84305634616</ele>
        <time>2018-06-09T07:02:58.000Z</time>
      </trkpt>
      <trkpt lat="42.991023" lon="-2.383782">
        <ele>1273.69995117188</ele>
        <time>2018-06-09T07:03:01.000Z</time>
      </trkpt>
      <trkpt lat="42.991035" lon="-2.383808">
        <ele>1273.72095039375</ele>
        <time>2018-06-09T07:03:04.000Z</time>
      </trkpt>
      <trkpt lat="42.991048" lon="-2.383831">
        <ele>1273.59997558594</ele>
        <time>2018-06-09T07:03:06.000Z</time>
      </trkpt>
      <trkpt lat="42.991067" lon="-2.383836">
        <ele>1274.2419659125</ele>
        <time>2018-06-09T07:03:09.000Z</time>
      </trkpt>
      <trkpt lat="42.991084" lon="-2.383842">
        <ele>1275.37353141749</ele>
        <time>2018-06-09T07:03:12.000Z</time>
      </trkpt>
      <trkpt lat="42.991101" lon="-2.383854">
        <ele>1277.73406638781</ele>
        <time>2018-06-09T07:03:16.000Z</time>
      </trkpt>
      <trkpt lat="42.991109" lon="-2.383879">
        <ele>1278.59997558594</ele>
        <time>2018-06-09T07:03:20.000Z</time>
      </trkpt>
      <trkpt lat="42.991112" lon="-2.383903">
        <ele>1278.30004882813</ele>
        <time>2018-06-09T07:03:23.000Z</time>
      </trkpt>
      <trkpt lat="42.991113" lon="-2.383931">
        <ele>1278.66399442664</ele>
        <time>2018-06-09T07:03:25.000Z</time>
      </trkpt>
      <trkpt lat="42.991114" lon="-2.383962">
        <ele>1279</ele>
        <time>2018-06-09T07:03:27.000Z</time>
      </trkpt>
      <trkpt lat="42.991109" lon="-2.383987">
        <ele>1279.47817443458</ele>
        <time>2018-06-09T07:03:29.000Z</time>
      </trkpt>
      <trkpt lat="42.991088" lon="-2.383979">
        <ele>1279.3431781818</ele>
        <time>2018-06-09T07:03:37.000Z</time>
      </trkpt>
      <trkpt lat="42.991071" lon="-2.383987">
        <ele>1280.4486553459</ele>
        <time>2018-06-09T07:03:40.000Z</time>
      </trkpt>
      <trkpt lat="42.991057" lon="-2.384002">
        <ele>1281.02641993235</ele>
        <time>2018-06-09T07:03:45.000Z</time>
      </trkpt>
      <trkpt lat="42.991046" lon="-2.384027">
        <ele>1281.35459893536</ele>
        <time>2018-06-09T07:03:48.000Z</time>
      </trkpt>
      <trkpt lat="42.991037" lon="-2.38406">
        <ele>1281.52806495963</ele>
        <time>2018-06-09T07:03:52.000Z</time>
      </trkpt>
      <trkpt lat="42.99104" lon="-2.384086">
        <ele>1281.59997558594</ele>
        <time>2018-06-09T07:03:54.000Z</time>
      </trkpt>
      <trkpt lat="42.991041" lon="-2.384114">
        <ele>1281.57116738438</ele>
        <time>2018-06-09T07:03:56.000Z</time>
      </trkpt>
      <trkpt lat="42.991038" lon="-2.384148">
        <ele>1281.6867758786</ele>
        <time>2018-06-09T07:03:59.000Z</time>
      </trkpt>
      <trkpt lat="42.991022" lon="-2.384161">
        <ele>1282.72950965181</ele>
        <time>2018-06-09T07:04:04.000Z</time>
      </trkpt>
      <trkpt lat="42.991013" lon="-2.384184">
        <ele>1282.65885654613</ele>
        <time>2018-06-09T07:04:06.000Z</time>
      </trkpt>
      <trkpt lat="42.991003" lon="-2.384206">
        <ele>1282.67002907734</ele>
        <time>2018-06-09T07:04:08.000Z</time>
      </trkpt>
      <trkpt lat="42.990997" lon="-2.384238">
        <ele>1282.69995117188</ele>
        <time>2018-06-09T07:04:10.000Z</time>
      </trkpt>
      <trkpt lat="42.991" lon="-2.38427">
        <ele>1282.22716106958</ele>
        <time>2018-06-09T07:04:12.000Z</time>
      </trkpt>
      <trkpt lat="42.991004" lon="-2.384305">
        <ele>1281.40002441406</ele>
        <time>2018-06-09T07:04:14.000Z</time>
      </trkpt>
      <trkpt lat="42.991003" lon="-2.384348">
        <ele>1281.36800768951</ele>
        <time>2018-06-09T07:04:16.000Z</time>
      </trkpt>
      <trkpt lat="42.990998" lon="-2.384378">
        <ele>1281.40002441406</ele>
        <time>2018-06-09T07:04:18.000Z</time>
      </trkpt>
      <trkpt lat="42.991007" lon="-2.384413">
        <ele>1281.36659990019</ele>
        <time>2018-06-09T07:04:20.000Z</time>
      </trkpt>
      <trkpt lat="42.991024" lon="-2.384449">
        <ele>1281.30004882813</ele>
        <time>2018-06-09T07:04:22.000Z</time>
      </trkpt>
      <trkpt lat="42.991035" lon="-2.384482">
        <ele>1281.19995117188</ele>
        <time>2018-06-09T07:04:24.000Z</time>
      </trkpt>
      <trkpt lat="42.991042" lon="-2.384496">
        <ele>1280.68992421078</ele>
        <time>2018-06-09T07:04:25.000Z</time>
      </trkpt>
      <trkpt lat="42.991053" lon="-2.384521">
        <ele>1279.26118313931</ele>
        <time>2018-06-09T07:04:27.000Z</time>
      </trkpt>
      <trkpt lat="42.991064" lon="-2.384544">
        <ele>1279</ele>
        <time>2018-06-09T07:04:31.000Z</time>
      </trkpt>
      <trkpt lat="42.991082" lon="-2.384562">
        <ele>1279.09997558594</ele>
        <time>2018-06-09T07:04:37.000Z</time>
      </trkpt>
      <trkpt lat="42.991075" lon="-2.38458">
        <ele>1277.40002441406</ele>
        <time>2018-06-09T07:04:42.000Z</time>
      </trkpt>
      <trkpt lat="42.99108" lon="-2.384604">
        <ele>1277.28728049638</ele>
        <time>2018-06-09T07:04:45.000Z</time>
      </trkpt>
      <trkpt lat="42.991073" lon="-2.384629">
        <ele>1276.94791084238</ele>
        <time>2018-06-09T07:04:47.000Z</time>
      </trkpt>
      <trkpt lat="42.991073" lon="-2.384662">
        <ele>1276.36691691376</ele>
        <time>2018-06-09T07:04:50.000Z</time>
      </trkpt>
      <trkpt lat="42.99109" lon="-2.384692">
        <ele>1275.90002441406</ele>
        <time>2018-06-09T07:04:52.000Z</time>
      </trkpt>
      <trkpt lat="42.9911" lon="-2.384711">
        <ele>1274.90002441406</ele>
        <time>2018-06-09T07:04:54.000Z</time>
      </trkpt>
      <trkpt lat="42.991124" lon="-2.384745">
        <ele>1273.93908453506</ele>
        <time>2018-06-09T07:04:57.000Z</time>
      </trkpt>
      <trkpt lat="42.991123" lon="-2.384773">
        <ele>1273.5592632365</ele>
        <time>2018-06-09T07:04:59.000Z</time>
      </trkpt>
      <trkpt lat="42.991127" lon="-2.384799">
        <ele>1272.59997558594</ele>
        <time>2018-06-09T07:05:01.000Z</time>
      </trkpt>
      <trkpt lat="42.991134" lon="-2.384823">
        <ele>1272.31130828244</ele>
        <time>2018-06-09T07:05:03.000Z</time>
      </trkpt>
      <trkpt lat="42.991146" lon="-2.384851">
        <ele>1271.61780780738</ele>
        <time>2018-06-09T07:05:06.000Z</time>
      </trkpt>
      <trkpt lat="42.991151" lon="-2.384883">
        <ele>1270.73321487344</ele>
        <time>2018-06-09T07:05:10.000Z</time>
      </trkpt>
      <trkpt lat="42.99117" lon="-2.384905">
        <ele>1270.90002441406</ele>
        <time>2018-06-09T07:05:13.000Z</time>
      </trkpt>
      <trkpt lat="42.991182" lon="-2.384925">
        <ele>1271.24136780827</ele>
        <time>2018-06-09T07:05:15.000Z</time>
      </trkpt>
      <trkpt lat="42.99119" lon="-2.384948">
        <ele>1271.30004882813</ele>
        <time>2018-06-09T07:05:17.000Z</time>
      </trkpt>
      <trkpt lat="42.991208" lon="-2.384966">
        <ele>1271.59997558594</ele>
        <time>2018-06-09T07:05:19.000Z</time>
      </trkpt>
      <trkpt lat="42.991228" lon="-2.384983">
        <ele>1271.90002441406</ele>
        <time>2018-06-09T07:05:22.000Z</time>
      </trkpt>
      <trkpt lat="42.99124" lon="-2.385">
        <ele>1272.98660295156</ele>
        <time>2018-06-09T07:05:26.000Z</time>
      </trkpt>
      <trkpt lat="42.991251" lon="-2.385018">
        <ele>1273.71087823505</ele>
        <time>2018-06-09T07:05:29.000Z</time>
      </trkpt>
      <trkpt lat="42.991263" lon="-2.385041">
        <ele>1273.78506982587</ele>
        <time>2018-06-09T07:05:31.000Z</time>
      </trkpt>
      <trkpt lat="42.991277" lon="-2.385062">
        <ele>1273.5</ele>
        <time>2018-06-09T07:05:33.000Z</time>
      </trkpt>
      <trkpt lat="42.991295" lon="-2.38507">
        <ele>1274.30004882813</ele>
        <time>2018-06-09T07:05:35.000Z</time>
      </trkpt>
      <trkpt lat="42.991308" lon="-2.385085">
        <ele>1275.34659066388</ele>
        <time>2018-06-09T07:05:38.000Z</time>
      </trkpt>
      <trkpt lat="42.991323" lon="-2.385094">
        <ele>1276.52927527436</ele>
        <time>2018-06-09T07:05:41.000Z</time>
      </trkpt>
      <trkpt lat="42.991338" lon="-2.385107">
        <ele>1276.94745537859</ele>
        <time>2018-06-09T07:05:43.000Z</time>
      </trkpt>
      <trkpt lat="42.991353" lon="-2.385122">
        <ele>1277.40002441406</ele>
        <time>2018-06-09T07:05:45.000Z</time>
      </trkpt>
      <trkpt lat="42.991371" lon="-2.385137">
        <ele>1277.29728458549</ele>
        <time>2018-06-09T07:05:47.000Z</time>
      </trkpt>
      <trkpt lat="42.991385" lon="-2.385151">
        <ele>1279</ele>
        <time>2018-06-09T07:05:49.000Z</time>
      </trkpt>
      <trkpt lat="42.991398" lon="-2.385172">
        <ele>1279</ele>
        <time>2018-06-09T07:05:51.000Z</time>
      </trkpt>
      <trkpt lat="42.991419" lon="-2.385195">
        <ele>1279.34741771687</ele>
        <time>2018-06-09T07:05:54.000Z</time>
      </trkpt>
      <trkpt lat="42.991432" lon="-2.385222">
        <ele>1279.74984933973</ele>
        <time>2018-06-09T07:05:57.000Z</time>
      </trkpt>
      <trkpt lat="42.991441" lon="-2.385246">
        <ele>1280.8531216652</ele>
        <time>2018-06-09T07:06:00.000Z</time>
      </trkpt>
      <trkpt lat="42.991454" lon="-2.385266">
        <ele>1281.5</ele>
        <time>2018-06-09T07:06:02.000Z</time>
      </trkpt>
      <trkpt lat="42.991454" lon="-2.385295">
        <ele>1282.31169948983</ele>
        <time>2018-06-09T07:06:06.000Z</time>
      </trkpt>
      <trkpt lat="42.991465" lon="-2.385314">
        <ele>1283.21062440929</ele>
        <time>2018-06-09T07:06:09.000Z</time>
      </trkpt>
      <trkpt lat="42.991478" lon="-2.385335">
        <ele>1283.66925321603</ele>
        <time>2018-06-09T07:06:12.000Z</time>
      </trkpt>
      <trkpt lat="42.991496" lon="-2.385347">
        <ele>1284.65453555077</ele>
        <time>2018-06-09T07:06:16.000Z</time>
      </trkpt>
      <trkpt lat="42.991506" lon="-2.385355">
        <ele>1286.17171483017</ele>
        <time>2018-06-09T07:06:20.000Z</time>
      </trkpt>
      <trkpt lat="42.991522" lon="-2.385368">
        <ele>1287.30004882813</ele>
        <time>2018-06-09T07:06:24.000Z</time>
      </trkpt>
      <trkpt lat="42.991523" lon="-2.385396">
        <ele>1288.41870072232</ele>
        <time>2018-06-09T07:06:29.000Z</time>
      </trkpt>
      <trkpt lat="42.99154" lon="-2.38541">
        <ele>1289.05980532396</ele>
        <time>2018-06-09T07:06:34.000Z</time>
      </trkpt>
      <trkpt lat="42.991554" lon="-2.385413">
        <ele>1290.59997558594</ele>
        <time>2018-06-09T07:06:39.000Z</time>
      </trkpt>
      <trkpt lat="42.991572" lon="-2.385414">
        <ele>1291.11236064024</ele>
        <time>2018-06-09T07:06:43.000Z</time>
      </trkpt>
      <trkpt lat="42.99159" lon="-2.385435">
        <ele>1291.61618088061</ele>
        <time>2018-06-09T07:06:47.000Z</time>
      </trkpt>
      <trkpt lat="42.991611" lon="-2.385433">
        <ele>1292.89217433748</ele>
        <time>2018-06-09T07:06:51.000Z</time>
      </trkpt>
      <trkpt lat="42.99163" lon="-2.385433">
        <ele>1293.76469018824</ele>
        <time>2018-06-09T07:06:55.000Z</time>
      </trkpt>
      <trkpt lat="42.99162" lon="-2.385456">
        <ele>1294.9021897293</ele>
        <time>2018-06-09T07:07:03.000Z</time>
      </trkpt>
      <trkpt lat="42.991609" lon="-2.385484">
        <ele>1294.86282204684</ele>
        <time>2018-06-09T07:07:05.000Z</time>
      </trkpt>
      <trkpt lat="42.991612" lon="-2.385509">
        <ele>1294.80004882813</ele>
        <time>2018-06-09T07:07:08.000Z</time>
      </trkpt>
      <trkpt lat="42.991624" lon="-2.385529">
        <ele>1295.19995117188</ele>
        <time>2018-06-09T07:07:14.000Z</time>
      </trkpt>
      <trkpt lat="42.991614" lon="-2.385535">
        <ele>1297.3131830163</ele>
        <time>2018-06-09T07:07:19.000Z</time>
      </trkpt>
      <trkpt lat="42.991629" lon="-2.385541">
        <ele>1300.16474718906</ele>
        <time>2018-06-09T07:07:26.000Z</time>
      </trkpt>
      <trkpt lat="42.991636" lon="-2.385545">
        <ele>1302.29487954055</ele>
        <time>2018-06-09T07:07:28.000Z</time>
      </trkpt>
      <trkpt lat="42.991654" lon="-2.385547">
        <ele>1302.9748807064</ele>
        <time>2018-06-09T07:07:31.000Z</time>
      </trkpt>
      <trkpt lat="42.991671" lon="-2.385547">
        <ele>1303.67610905456</ele>
        <time>2018-06-09T07:07:35.000Z</time>
      </trkpt>
      <trkpt lat="42.991684" lon="-2.385565">
        <ele>1304.5</ele>
        <time>2018-06-09T07:07:39.000Z</time>
      </trkpt>
      <trkpt lat="42.991697" lon="-2.385582">
        <ele>1304.62312369972</ele>
        <time>2018-06-09T07:07:44.000Z</time>
      </trkpt>
      <trkpt lat="42.991695" lon="-2.385591">
        <ele>1306.4377488812</ele>
        <time>2018-06-09T07:07:54.000Z</time>
      </trkpt>
      <trkpt lat="42.991706" lon="-2.385616">
        <ele>1306.46928512771</ele>
        <time>2018-06-09T07:08:02.000Z</time>
      </trkpt>
      <trkpt lat="42.991722" lon="-2.385631">
        <ele>1305.74382991129</ele>
        <time>2018-06-09T07:08:18.000Z</time>
      </trkpt>
      <trkpt lat="42.991718" lon="-2.38566">
        <ele>1304.69995117188</ele>
        <time>2018-06-09T07:08:21.000Z</time>
      </trkpt>
      <trkpt lat="42.991723" lon="-2.385687">
        <ele>1304.0725266255</ele>
        <time>2018-06-09T07:08:23.000Z</time>
      </trkpt>
      <trkpt lat="42.991739" lon="-2.385711">
        <ele>1303.90002441406</ele>
        <time>2018-06-09T07:08:25.000Z</time>
      </trkpt>
      <trkpt lat="42.991737" lon="-2.385736">
        <ele>1303.92064028758</ele>
        <time>2018-06-09T07:08:27.000Z</time>
      </trkpt>
      <trkpt lat="42.991719" lon="-2.385761">
        <ele>1303.18270063594</ele>
        <time>2018-06-09T07:08:29.000Z</time>
      </trkpt>
      <trkpt lat="42.991705" lon="-2.385791">
        <ele>1303</ele>
        <time>2018-06-09T07:08:31.000Z</time>
      </trkpt>
      <trkpt lat="42.991704" lon="-2.38582">
        <ele>1302.96012978403</ele>
        <time>2018-06-09T07:08:34.000Z</time>
      </trkpt>
      <trkpt lat="42.991719" lon="-2.385847">
        <ele>1303.24494311803</ele>
        <time>2018-06-09T07:08:37.000Z</time>
      </trkpt>
      <trkpt lat="42.991741" lon="-2.385868">
        <ele>1303.30004882813</ele>
        <time>2018-06-09T07:08:39.000Z</time>
      </trkpt>
      <trkpt lat="42.991761" lon="-2.38588">
        <ele>1301.63056972319</ele>
        <time>2018-06-09T07:08:41.000Z</time>
      </trkpt>
      <trkpt lat="42.991777" lon="-2.385893">
        <ele>1301.06867740384</ele>
        <time>2018-06-09T07:08:43.000Z</time>
      </trkpt>
      <trkpt lat="42.991769" lon="-2.38592">
        <ele>1300.09997558594</ele>
        <time>2018-06-09T07:08:54.000Z</time>
      </trkpt>
      <trkpt lat="42.99175" lon="-2.38593">
        <ele>1299.91763770229</ele>
        <time>2018-06-09T07:08:57.000Z</time>
      </trkpt>
      <trkpt lat="42.991738" lon="-2.385948">
        <ele>1299.02354468365</ele>
        <time>2018-06-09T07:08:59.000Z</time>
      </trkpt>
      <trkpt lat="42.991724" lon="-2.385969">
        <ele>1298.38854802812</ele>
        <time>2018-06-09T07:09:01.000Z</time>
      </trkpt>
      <trkpt lat="42.99173" lon="-2.385991">
        <ele>1297.05171039534</ele>
        <time>2018-06-09T07:09:05.000Z</time>
      </trkpt>
      <trkpt lat="42.991744" lon="-2.386006">
        <ele>1296.93155351047</ele>
        <time>2018-06-09T07:09:13.000Z</time>
      </trkpt>
      <trkpt lat="42.991741" lon="-2.386033">
        <ele>1296.6180429366</ele>
        <time>2018-06-09T07:09:16.000Z</time>
      </trkpt>
      <trkpt lat="42.991731" lon="-2.386058">
        <ele>1296.08876620876</ele>
        <time>2018-06-09T07:09:18.000Z</time>
      </trkpt>
      <trkpt lat="42.991722" lon="-2.386078">
        <ele>1295.41735527658</ele>
        <time>2018-06-09T07:09:20.000Z</time>
      </trkpt>
      <trkpt lat="42.991709" lon="-2.386094">
        <ele>1294.55075844911</ele>
        <time>2018-06-09T07:09:23.000Z</time>
      </trkpt>
      <trkpt lat="42.991698" lon="-2.386107">
        <ele>1293.23456480313</ele>
        <time>2018-06-09T07:09:25.000Z</time>
      </trkpt>
      <trkpt lat="42.991694" lon="-2.386139">
        <ele>1292.53288964455</ele>
        <time>2018-06-09T07:09:28.000Z</time>
      </trkpt>
      <trkpt lat="42.991688" lon="-2.386166">
        <ele>1292.41613640965</ele>
        <time>2018-06-09T07:09:30.000Z</time>
      </trkpt>
      <trkpt lat="42.991672" lon="-2.386198">
        <ele>1290.85097320186</ele>
        <time>2018-06-09T07:09:32.000Z</time>
      </trkpt>
      <trkpt lat="42.991691" lon="-2.38621">
        <ele>1290.43341657969</ele>
        <time>2018-06-09T07:09:34.000Z</time>
      </trkpt>
      <trkpt lat="42.991712" lon="-2.386231">
        <ele>1289.54829775357</ele>
        <time>2018-06-09T07:09:37.000Z</time>
      </trkpt>
      <trkpt lat="42.991723" lon="-2.386254">
        <ele>1288.24927851402</ele>
        <time>2018-06-09T07:09:40.000Z</time>
      </trkpt>
      <trkpt lat="42.991732" lon="-2.38628">
        <ele>1287.17076067326</ele>
        <time>2018-06-09T07:09:43.000Z</time>
      </trkpt>
      <trkpt lat="42.991723" lon="-2.386305">
        <ele>1285.76621344505</ele>
        <time>2018-06-09T07:09:46.000Z</time>
      </trkpt>
      <trkpt lat="42.991707" lon="-2.386322">
        <ele>1285.23734244208</ele>
        <time>2018-06-09T07:09:49.000Z</time>
      </trkpt>
      <trkpt lat="42.9917" lon="-2.386344">
        <ele>1284.5</ele>
        <time>2018-06-09T07:09:52.000Z</time>
      </trkpt>
      <trkpt lat="42.991716" lon="-2.386361">
        <ele>1284.1342143762</ele>
        <time>2018-06-09T07:09:54.000Z</time>
      </trkpt>
      <trkpt lat="42.991719" lon="-2.386382">
        <ele>1282.3849232433</ele>
        <time>2018-06-09T07:09:57.000Z</time>
      </trkpt>
      <trkpt lat="42.991709" lon="-2.386404">
        <ele>1281.47880897755</ele>
        <time>2018-06-09T07:09:59.000Z</time>
      </trkpt>
      <trkpt lat="42.991715" lon="-2.386429">
        <ele>1281.00961685919</ele>
        <time>2018-06-09T07:10:02.000Z</time>
      </trkpt>
      <trkpt lat="42.991723" lon="-2.386436">
        <ele>1279.36457086363</ele>
        <time>2018-06-09T07:10:03.000Z</time>
      </trkpt>
      <trkpt lat="42.991739" lon="-2.386457">
        <ele>1277.96909652137</ele>
        <time>2018-06-09T07:10:05.000Z</time>
      </trkpt>
      <trkpt lat="42.991743" lon="-2.386474">
        <ele>1276.42971424764</ele>
        <time>2018-06-09T07:10:09.000Z</time>
      </trkpt>
      <trkpt lat="42.991734" lon="-2.386498">
        <ele>1276.47923298927</ele>
        <time>2018-06-09T07:10:11.000Z</time>
      </trkpt>
      <trkpt lat="42.991715" lon="-2.386529">
        <ele>1276.49280175781</ele>
        <time>2018-06-09T07:10:14.000Z</time>
      </trkpt>
      <trkpt lat="42.991705" lon="-2.386562">
        <ele>1276.58537947031</ele>
        <time>2018-06-09T07:10:16.000Z</time>
      </trkpt>
      <trkpt lat="42.991712" lon="-2.386584">
        <ele>1275.56532534026</ele>
        <time>2018-06-09T07:10:18.000Z</time>
      </trkpt>
      <trkpt lat="42.991699" lon="-2.386608">
        <ele>1275.39480017718</ele>
        <time>2018-06-09T07:10:20.000Z</time>
      </trkpt>
      <trkpt lat="42.991701" lon="-2.386642">
        <ele>1274.33901312177</ele>
        <time>2018-06-09T07:10:22.000Z</time>
      </trkpt>
      <trkpt lat="42.991698" lon="-2.386668">
        <ele>1274.104074425</ele>
        <time>2018-06-09T07:10:24.000Z</time>
      </trkpt>
      <trkpt lat="42.991708" lon="-2.386699">
        <ele>1273.41114535004</ele>
        <time>2018-06-09T07:10:26.000Z</time>
      </trkpt>
      <trkpt lat="42.991723" lon="-2.386713">
        <ele>1271.5529559258</ele>
        <time>2018-06-09T07:10:28.000Z</time>
      </trkpt>
      <trkpt lat="42.99175" lon="-2.386724">
        <ele>1269.54602897704</ele>
        <time>2018-06-09T07:10:30.000Z</time>
      </trkpt>
      <trkpt lat="42.99177" lon="-2.38672">
        <ele>1268.12168169882</ele>
        <time>2018-06-09T07:10:32.000Z</time>
      </trkpt>
      <trkpt lat="42.991785" lon="-2.386735">
        <ele>1267.50279716356</ele>
        <time>2018-06-09T07:10:34.000Z</time>
      </trkpt>
      <trkpt lat="42.991796" lon="-2.386745">
        <ele>1265.80847564626</ele>
        <time>2018-06-09T07:10:37.000Z</time>
      </trkpt>
      <trkpt lat="42.991804" lon="-2.386767">
        <ele>1264.3001489449</ele>
        <time>2018-06-09T07:10:40.000Z</time>
      </trkpt>
      <trkpt lat="42.991798" lon="-2.386808">
        <ele>1264.00019963125</ele>
        <time>2018-06-09T07:10:42.000Z</time>
      </trkpt>
      <trkpt lat="42.991799" lon="-2.386835">
        <ele>1263.69995117188</ele>
        <time>2018-06-09T07:10:45.000Z</time>
      </trkpt>
      <trkpt lat="42.991804" lon="-2.386852">
        <ele>1262.40002441406</ele>
        <time>2018-06-09T07:10:47.000Z</time>
      </trkpt>
      <trkpt lat="42.991816" lon="-2.386873">
        <ele>1262.08043558722</ele>
        <time>2018-06-09T07:10:49.000Z</time>
      </trkpt>
      <trkpt lat="42.991838" lon="-2.386872">
        <ele>1259.69394472035</ele>
        <time>2018-06-09T07:10:53.000Z</time>
      </trkpt>
      <trkpt lat="42.99185" lon="-2.386845">
        <ele>1259.49579166242</ele>
        <time>2018-06-09T07:10:55.000Z</time>
      </trkpt>
      <trkpt lat="42.991871" lon="-2.386826">
        <ele>1259.30004882813</ele>
        <time>2018-06-09T07:10:57.000Z</time>
      </trkpt>
      <trkpt lat="42.991887" lon="-2.38681">
        <ele>1259.29735205679</ele>
        <time>2018-06-09T07:11:00.000Z</time>
      </trkpt>
      <trkpt lat="42.991902" lon="-2.386794">
        <ele>1258.89742536875</ele>
        <time>2018-06-09T07:11:02.000Z</time>
      </trkpt>
      <trkpt lat="42.991918" lon="-2.386783">
        <ele>1258.68952362456</ele>
        <time>2018-06-09T07:11:04.000Z</time>
      </trkpt>
      <trkpt lat="42.991939" lon="-2.386774">
        <ele>1258.09380151548</ele>
        <time>2018-06-09T07:11:07.000Z</time>
      </trkpt>
      <trkpt lat="42.991956" lon="-2.386751">
        <ele>1257.8904324282</ele>
        <time>2018-06-09T07:11:09.000Z</time>
      </trkpt>
      <trkpt lat="42.991978" lon="-2.386742">
        <ele>1257.40002441406</ele>
        <time>2018-06-09T07:11:11.000Z</time>
      </trkpt>
      <trkpt lat="42.991997" lon="-2.386737">
        <ele>1257.28804681563</ele>
        <time>2018-06-09T07:11:14.000Z</time>
      </trkpt>
      <trkpt lat="42.99202" lon="-2.386735">
        <ele>1256</ele>
        <time>2018-06-09T07:11:17.000Z</time>
      </trkpt>
      <trkpt lat="42.992033" lon="-2.386709">
        <ele>1255.59337092309</ele>
        <time>2018-06-09T07:11:19.000Z</time>
      </trkpt>
      <trkpt lat="42.992045" lon="-2.386693">
        <ele>1255.27793094745</ele>
        <time>2018-06-09T07:11:21.000Z</time>
      </trkpt>
      <trkpt lat="42.992071" lon="-2.386694">
        <ele>1254.5</ele>
        <time>2018-06-09T07:11:23.000Z</time>
      </trkpt>
      <trkpt lat="42.992089" lon="-2.386702">
        <ele>1254.30354400417</ele>
        <time>2018-06-09T07:11:25.000Z</time>
      </trkpt>
      <trkpt lat="42.992082" lon="-2.386725">
        <ele>1253.09607248127</ele>
        <time>2018-06-09T07:11:28.000Z</time>
      </trkpt>
      <trkpt lat="42.992065" lon="-2.386755">
        <ele>1252.90432718026</ele>
        <time>2018-06-09T07:11:30.000Z</time>
      </trkpt>
      <trkpt lat="42.992053" lon="-2.386779">
        <ele>1252.9911768882</ele>
        <time>2018-06-09T07:11:31.000Z</time>
      </trkpt>
      <trkpt lat="42.992042" lon="-2.3868">
        <ele>1252.75761915527</ele>
        <time>2018-06-09T07:11:32.000Z</time>
      </trkpt>
      <trkpt lat="42.99203" lon="-2.386828">
        <ele>1251.49448466328</ele>
        <time>2018-06-09T07:11:34.000Z</time>
      </trkpt>
      <trkpt lat="42.992053" lon="-2.386863">
        <ele>1250.36380507071</ele>
        <time>2018-06-09T07:11:36.000Z</time>
      </trkpt>
      <trkpt lat="42.992073" lon="-2.386882">
        <ele>1249.76064102687</ele>
        <time>2018-06-09T07:11:37.000Z</time>
      </trkpt>
      <trkpt lat="42.992095" lon="-2.386898">
        <ele>1248.77988634814</ele>
        <time>2018-06-09T07:11:39.000Z</time>
      </trkpt>
      <trkpt lat="42.992085" lon="-2.386922">
        <ele>1248.14378551168</ele>
        <time>2018-06-09T07:11:41.000Z</time>
      </trkpt>
      <trkpt lat="42.992066" lon="-2.386951">
        <ele>1247.10741067049</ele>
        <time>2018-06-09T07:11:43.000Z</time>
      </trkpt>
      <trkpt lat="42.992053" lon="-2.386967">
        <ele>1246.6678628735</ele>
        <time>2018-06-09T07:11:45.000Z</time>
      </trkpt>
      <trkpt lat="42.992042" lon="-2.386993">
        <ele>1245.90002441406</ele>
        <time>2018-06-09T07:11:48.000Z</time>
      </trkpt>
      <trkpt lat="42.99203" lon="-2.387009">
        <ele>1245.82853493298</ele>
        <time>2018-06-09T07:11:49.000Z</time>
      </trkpt>
      <trkpt lat="42.992021" lon="-2.387038">
        <ele>1244.96298108166</ele>
        <time>2018-06-09T07:11:51.000Z</time>
      </trkpt>
      <trkpt lat="42.992025" lon="-2.387067">
        <ele>1244.39099073873</ele>
        <time>2018-06-09T07:11:53.000Z</time>
      </trkpt>
      <trkpt lat="42.992038" lon="-2.3871">
        <ele>1243.16084011883</ele>
        <time>2018-06-09T07:11:55.000Z</time>
      </trkpt>
      <trkpt lat="42.992055" lon="-2.387115">
        <ele>1242.70385675179</ele>
        <time>2018-06-09T07:11:56.000Z</time>
      </trkpt>
      <trkpt lat="42.992069" lon="-2.387133">
        <ele>1241.64037727045</ele>
        <time>2018-06-09T07:11:58.000Z</time>
      </trkpt>
      <trkpt lat="42.992071" lon="-2.387148">
        <ele>1240.92605419722</ele>
        <time>2018-06-09T07:11:59.000Z</time>
      </trkpt>
      <trkpt lat="42.992054" lon="-2.387175">
        <ele>1238.77797401276</ele>
        <time>2018-06-09T07:12:01.000Z</time>
      </trkpt>
      <trkpt lat="42.99204" lon="-2.3872">
        <ele>1238.14968965973</ele>
        <time>2018-06-09T07:12:03.000Z</time>
      </trkpt>
      <trkpt lat="42.992034" lon="-2.387219">
        <ele>1237.93851352884</ele>
        <time>2018-06-09T07:12:04.000Z</time>
      </trkpt>
      <trkpt lat="42.992034" lon="-2.387256">
        <ele>1236.18764236558</ele>
        <time>2018-06-09T07:12:06.000Z</time>
      </trkpt>
      <trkpt lat="42.992044" lon="-2.387288">
        <ele>1234.49568423902</ele>
        <time>2018-06-09T07:12:08.000Z</time>
      </trkpt>
      <trkpt lat="42.99204" lon="-2.387316">
        <ele>1233.77238718085</ele>
        <time>2018-06-09T07:12:10.000Z</time>
      </trkpt>
      <trkpt lat="42.992026" lon="-2.387342">
        <ele>1233.09017829844</ele>
        <time>2018-06-09T07:12:12.000Z</time>
      </trkpt>
      <trkpt lat="42.992006" lon="-2.38736">
        <ele>1232.72467640422</ele>
        <time>2018-06-09T07:12:14.000Z</time>
      </trkpt>
      <trkpt lat="42.991998" lon="-2.387392">
        <ele>1230.97797602845</ele>
        <time>2018-06-09T07:12:16.000Z</time>
      </trkpt>
      <trkpt lat="42.992" lon="-2.387426">
        <ele>1230.3883624404</ele>
        <time>2018-06-09T07:12:18.000Z</time>
      </trkpt>
      <trkpt lat="42.991992" lon="-2.387461">
        <ele>1229.18792881563</ele>
        <time>2018-06-09T07:12:20.000Z</time>
      </trkpt>
      <trkpt lat="42.991982" lon="-2.387491">
        <ele>1228.49598086158</ele>
        <time>2018-06-09T07:12:22.000Z</time>
      </trkpt>
      <trkpt lat="42.991964" lon="-2.387521">
        <ele>1227.87050831702</ele>
        <time>2018-06-09T07:12:25.000Z</time>
      </trkpt>
      <trkpt lat="42.991954" lon="-2.387536">
        <ele>1227.2363756146</ele>
        <time>2018-06-09T07:12:26.000Z</time>
      </trkpt>
      <trkpt lat="42.991956" lon="-2.387562">
        <ele>1225.61420798539</ele>
        <time>2018-06-09T07:12:28.000Z</time>
      </trkpt>
      <trkpt lat="42.991972" lon="-2.387593">
        <ele>1223.89330632167</ele>
        <time>2018-06-09T07:12:30.000Z</time>
      </trkpt>
      <trkpt lat="42.991995" lon="-2.387618">
        <ele>1223.67863460973</ele>
        <time>2018-06-09T07:12:32.000Z</time>
      </trkpt>
      <trkpt lat="42.992" lon="-2.387641">
        <ele>1222.08230910382</ele>
        <time>2018-06-09T07:12:35.000Z</time>
      </trkpt>
      <trkpt lat="42.991979" lon="-2.387661">
        <ele>1221.69995117188</ele>
        <time>2018-06-09T07:12:37.000Z</time>
      </trkpt>
      <trkpt lat="42.991969" lon="-2.387684">
        <ele>1221.7445201626</ele>
        <time>2018-06-09T07:12:40.000Z</time>
      </trkpt>
      <trkpt lat="42.991965" lon="-2.387714">
        <ele>1220.75596079314</ele>
        <time>2018-06-09T07:12:42.000Z</time>
      </trkpt>
      <trkpt lat="42.991975" lon="-2.387757">
        <ele>1220.09997558594</ele>
        <time>2018-06-09T07:12:44.000Z</time>
      </trkpt>
      <trkpt lat="42.991977" lon="-2.387793">
        <ele>1219.39710113423</ele>
        <time>2018-06-09T07:12:46.000Z</time>
      </trkpt>
      <trkpt lat="42.991967" lon="-2.387819">
        <ele>1217.93687748039</ele>
        <time>2018-06-09T07:12:48.000Z</time>
      </trkpt>
      <trkpt lat="42.99196" lon="-2.387845">
        <ele>1216.66695826875</ele>
        <time>2018-06-09T07:12:50.000Z</time>
      </trkpt>
      <trkpt lat="42.991959" lon="-2.387874">
        <ele>1215.80004882813</ele>
        <time>2018-06-09T07:12:52.000Z</time>
      </trkpt>
      <trkpt lat="42.99196" lon="-2.387902">
        <ele>1215.73830385306</ele>
        <time>2018-06-09T07:12:54.000Z</time>
      </trkpt>
      <trkpt lat="42.991972" lon="-2.387919">
        <ele>1214</ele>
        <time>2018-06-09T07:13:00.000Z</time>
      </trkpt>
      <trkpt lat="42.991987" lon="-2.387951">
        <ele>1213.88718909471</ele>
        <time>2018-06-09T07:13:02.000Z</time>
      </trkpt>
      <trkpt lat="42.991987" lon="-2.387995">
        <ele>1213.75970339619</ele>
        <time>2018-06-09T07:13:04.000Z</time>
      </trkpt>
      <trkpt lat="42.991992" lon="-2.388032">
        <ele>1212.41353476686</ele>
        <time>2018-06-09T07:13:06.000Z</time>
      </trkpt>
      <trkpt lat="42.992011" lon="-2.388069">
        <ele>1212.04460694801</ele>
        <time>2018-06-09T07:13:08.000Z</time>
      </trkpt>
      <trkpt lat="42.99203" lon="-2.388092">
        <ele>1211.5430571844</ele>
        <time>2018-06-09T07:13:10.000Z</time>
      </trkpt>
      <trkpt lat="42.992057" lon="-2.388116">
        <ele>1211.02542154873</ele>
        <time>2018-06-09T07:13:12.000Z</time>
      </trkpt>
      <trkpt lat="42.992079" lon="-2.388129">
        <ele>1210.17155746563</ele>
        <time>2018-06-09T07:13:14.000Z</time>
      </trkpt>
      <trkpt lat="42.992103" lon="-2.388132">
        <ele>1209.56935280278</ele>
        <time>2018-06-09T07:13:16.000Z</time>
      </trkpt>
      <trkpt lat="42.992128" lon="-2.38814">
        <ele>1209.18409137168</ele>
        <time>2018-06-09T07:13:18.000Z</time>
      </trkpt>
      <trkpt lat="42.992152" lon="-2.388163">
        <ele>1209.06701993701</ele>
        <time>2018-06-09T07:13:20.000Z</time>
      </trkpt>
      <trkpt lat="42.99217" lon="-2.388178">
        <ele>1208.68263762978</ele>
        <time>2018-06-09T07:13:22.000Z</time>
      </trkpt>
      <trkpt lat="42.992194" lon="-2.388195">
        <ele>1208.05546332333</ele>
        <time>2018-06-09T07:13:24.000Z</time>
      </trkpt>
      <trkpt lat="42.992215" lon="-2.388224">
        <ele>1206.90002441406</ele>
        <time>2018-06-09T07:13:26.000Z</time>
      </trkpt>
      <trkpt lat="42.992233" lon="-2.388257">
        <ele>1206.80004882813</ele>
        <time>2018-06-09T07:13:28.000Z</time>
      </trkpt>
      <trkpt lat="42.992248" lon="-2.38828">
        <ele>1206.80381338534</ele>
        <time>2018-06-09T07:13:30.000Z</time>
      </trkpt>
      <trkpt lat="42.992258" lon="-2.388307">
        <ele>1205.54125605388</ele>
        <time>2018-06-09T07:13:32.000Z</time>
      </trkpt>
      <trkpt lat="42.99226" lon="-2.388338">
        <ele>1205.21827323217</ele>
        <time>2018-06-09T07:13:34.000Z</time>
      </trkpt>
      <trkpt lat="42.992261" lon="-2.388374">
        <ele>1204.778828494</ele>
        <time>2018-06-09T07:13:36.000Z</time>
      </trkpt>
      <trkpt lat="42.992271" lon="-2.388406">
        <ele>1203.40002441406</ele>
        <time>2018-06-09T07:13:38.000Z</time>
      </trkpt>
      <trkpt lat="42.992283" lon="-2.388432">
        <ele>1203.40002441406</ele>
        <time>2018-06-09T07:13:40.000Z</time>
      </trkpt>
      <trkpt lat="42.992302" lon="-2.388464">
        <ele>1202.85762395175</ele>
        <time>2018-06-09T07:13:42.000Z</time>
      </trkpt>
      <trkpt lat="42.992324" lon="-2.388495">
        <ele>1203.42278686163</ele>
        <time>2018-06-09T07:13:44.000Z</time>
      </trkpt>
      <trkpt lat="42.99234" lon="-2.388506">
        <ele>1203.20038634082</ele>
        <time>2018-06-09T07:13:45.000Z</time>
      </trkpt>
      <trkpt lat="42.992369" lon="-2.388528">
        <ele>1201.56605202812</ele>
        <time>2018-06-09T07:13:47.000Z</time>
      </trkpt>
      <trkpt lat="42.992375" lon="-2.388557">
        <ele>1200.5</ele>
        <time>2018-06-09T07:13:49.000Z</time>
      </trkpt>
      <trkpt lat="42.992375" lon="-2.388589">
        <ele>1200.40002441406</ele>
        <time>2018-06-09T07:13:51.000Z</time>
      </trkpt>
      <trkpt lat="42.992376" lon="-2.388625">
        <ele>1200.25229002556</ele>
        <time>2018-06-09T07:13:53.000Z</time>
      </trkpt>
      <trkpt lat="42.992379" lon="-2.388639">
        <ele>1199.37289815412</ele>
        <time>2018-06-09T07:13:54.000Z</time>
      </trkpt>
      <trkpt lat="42.992395" lon="-2.38866">
        <ele>1197.94856151256</ele>
        <time>2018-06-09T07:13:56.000Z</time>
      </trkpt>
      <trkpt lat="42.99241" lon="-2.388671">
        <ele>1197.54179418669</ele>
        <time>2018-06-09T07:13:57.000Z</time>
      </trkpt>
      <trkpt lat="42.992434" lon="-2.38868">
        <ele>1195.91603520082</ele>
        <time>2018-06-09T07:13:59.000Z</time>
      </trkpt>
      <trkpt lat="42.992456" lon="-2.388698">
        <ele>1194.75956717188</ele>
        <time>2018-06-09T07:14:01.000Z</time>
      </trkpt>
      <trkpt lat="42.99248" lon="-2.388717">
        <ele>1195.06581873716</ele>
        <time>2018-06-09T07:14:03.000Z</time>
      </trkpt>
      <trkpt lat="42.992508" lon="-2.388736">
        <ele>1194.61804398923</ele>
        <time>2018-06-09T07:14:05.000Z</time>
      </trkpt>
      <trkpt lat="42.992535" lon="-2.388752">
        <ele>1193.82746919524</ele>
        <time>2018-06-09T07:14:07.000Z</time>
      </trkpt>
      <trkpt lat="42.992559" lon="-2.388772">
        <ele>1193.37911471017</ele>
        <time>2018-06-09T07:14:09.000Z</time>
      </trkpt>
      <trkpt lat="42.992578" lon="-2.388799">
        <ele>1192.59997558594</ele>
        <time>2018-06-09T07:14:11.000Z</time>
      </trkpt>
      <trkpt lat="42.992595" lon="-2.388838">
        <ele>1192.38433103316</ele>
        <time>2018-06-09T07:14:13.000Z</time>
      </trkpt>
      <trkpt lat="42.992599" lon="-2.388853">
        <ele>1191.54350675896</ele>
        <time>2018-06-09T07:14:14.000Z</time>
      </trkpt>
      <trkpt lat="42.992604" lon="-2.388883">
        <ele>1189.60961044025</ele>
        <time>2018-06-09T07:14:16.000Z</time>
      </trkpt>
      <trkpt lat="42.992608" lon="-2.388913">
        <ele>1189.43070892244</ele>
        <time>2018-06-09T07:14:18.000Z</time>
      </trkpt>
      <trkpt lat="42.992628" lon="-2.388949">
        <ele>1189.40002441406</ele>
        <time>2018-06-09T07:14:20.000Z</time>
      </trkpt>
      <trkpt lat="42.99265" lon="-2.388984">
        <ele>1189.20494662802</ele>
        <time>2018-06-09T07:14:22.000Z</time>
      </trkpt>
      <trkpt lat="42.99266" lon="-2.388998">
        <ele>1188.42405647771</ele>
        <time>2018-06-09T07:14:23.000Z</time>
      </trkpt>
      <trkpt lat="42.992678" lon="-2.389024">
        <ele>1187.00240053107</ele>
        <time>2018-06-09T07:14:25.000Z</time>
      </trkpt>
      <trkpt lat="42.992695" lon="-2.389047">
        <ele>1186.80004882813</ele>
        <time>2018-06-09T07:14:27.000Z</time>
      </trkpt>
      <trkpt lat="42.992712" lon="-2.38907">
        <ele>1186</ele>
        <time>2018-06-09T07:14:29.000Z</time>
      </trkpt>
      <trkpt lat="42.992721" lon="-2.389103">
        <ele>1185.90002441406</ele>
        <time>2018-06-09T07:14:31.000Z</time>
      </trkpt>
      <trkpt lat="42.992737" lon="-2.389135">
        <ele>1185.59997558594</ele>
        <time>2018-06-09T07:14:33.000Z</time>
      </trkpt>
      <trkpt lat="42.992753" lon="-2.389163">
        <ele>1185.76320436534</ele>
        <time>2018-06-09T07:14:35.000Z</time>
      </trkpt>
      <trkpt lat="42.992768" lon="-2.389186">
        <ele>1186</ele>
        <time>2018-06-09T07:14:37.000Z</time>
      </trkpt>
      <trkpt lat="42.992781" lon="-2.389214">
        <ele>1186</ele>
        <time>2018-06-09T07:14:39.000Z</time>
      </trkpt>
      <trkpt lat="42.992797" lon="-2.38924">
        <ele>1186</ele>
        <time>2018-06-09T07:14:41.000Z</time>
      </trkpt>
      <trkpt lat="42.992809" lon="-2.389265">
        <ele>1186.23604207051</ele>
        <time>2018-06-09T07:14:43.000Z</time>
      </trkpt>
      <trkpt lat="42.992823" lon="-2.389288">
        <ele>1186.54403320313</ele>
        <time>2018-06-09T07:14:45.000Z</time>
      </trkpt>
      <trkpt lat="42.992835" lon="-2.389306">
        <ele>1186.97166415445</ele>
        <time>2018-06-09T07:14:47.000Z</time>
      </trkpt>
      <trkpt lat="42.992849" lon="-2.389326">
        <ele>1187.40002441406</ele>
        <time>2018-06-09T07:14:49.000Z</time>
      </trkpt>
      <trkpt lat="42.992863" lon="-2.389343">
        <ele>1188.00922486245</ele>
        <time>2018-06-09T07:14:51.000Z</time>
      </trkpt>
      <trkpt lat="42.992879" lon="-2.389356">
        <ele>1188.42182929311</ele>
        <time>2018-06-09T07:14:53.000Z</time>
      </trkpt>
      <trkpt lat="42.992898" lon="-2.389354">
        <ele>1188.97483122229</ele>
        <time>2018-06-09T07:14:55.000Z</time>
      </trkpt>
      <trkpt lat="42.99292" lon="-2.389365">
        <ele>1189.87508064522</ele>
        <time>2018-06-09T07:14:58.000Z</time>
      </trkpt>
      <trkpt lat="42.99294" lon="-2.389375">
        <ele>1190.40002441406</ele>
        <time>2018-06-09T07:15:01.000Z</time>
      </trkpt>
      <trkpt lat="42.992955" lon="-2.389389">
        <ele>1191.5</ele>
        <time>2018-06-09T07:15:03.000Z</time>
      </trkpt>
      <trkpt lat="42.992973" lon="-2.3894">
        <ele>1191.79405698278</ele>
        <time>2018-06-09T07:15:05.000Z</time>
      </trkpt>
      <trkpt lat="42.992994" lon="-2.38941">
        <ele>1192.61887542415</ele>
        <time>2018-06-09T07:15:07.000Z</time>
      </trkpt>
      <trkpt lat="42.993012" lon="-2.389421">
        <ele>1193.12092430195</ele>
        <time>2018-06-09T07:15:09.000Z</time>
      </trkpt>
      <trkpt lat="42.993031" lon="-2.38944">
        <ele>1194.26601646513</ele>
        <time>2018-06-09T07:15:12.000Z</time>
      </trkpt>
      <trkpt lat="42.993048" lon="-2.389429">
        <ele>1194.72366627566</ele>
        <time>2018-06-09T07:15:14.000Z</time>
      </trkpt>
      <trkpt lat="42.993064" lon="-2.389402">
        <ele>1195.29364130624</ele>
        <time>2018-06-09T07:15:16.000Z</time>
      </trkpt>
      <trkpt lat="42.993079" lon="-2.389386">
        <ele>1196.22618153711</ele>
        <time>2018-06-09T07:15:18.000Z</time>
      </trkpt>
      <trkpt lat="42.993095" lon="-2.389373">
        <ele>1197.08669975094</ele>
        <time>2018-06-09T07:15:20.000Z</time>
      </trkpt>
      <trkpt lat="42.993113" lon="-2.389366">
        <ele>1197.6756896317</ele>
        <time>2018-06-09T07:15:23.000Z</time>
      </trkpt>
      <trkpt lat="42.993129" lon="-2.389378">
        <ele>1198.44439105363</ele>
        <time>2018-06-09T07:15:26.000Z</time>
      </trkpt>
      <trkpt lat="42.993131" lon="-2.389403">
        <ele>1199.11176029685</ele>
        <time>2018-06-09T07:15:29.000Z</time>
      </trkpt>
      <trkpt lat="42.993143" lon="-2.389427">
        <ele>1199.59997558594</ele>
        <time>2018-06-09T07:15:32.000Z</time>
      </trkpt>
      <trkpt lat="42.993156" lon="-2.389398">
        <ele>1200.77337210181</ele>
        <time>2018-06-09T07:15:36.000Z</time>
      </trkpt>
      <trkpt lat="42.993165" lon="-2.389371">
        <ele>1201.57719385632</ele>
        <time>2018-06-09T07:15:38.000Z</time>
      </trkpt>
      <trkpt lat="42.99318" lon="-2.389344">
        <ele>1202.59336303356</ele>
        <time>2018-06-09T07:15:41.000Z</time>
      </trkpt>
      <trkpt lat="42.993201" lon="-2.389332">
        <ele>1203.29036787484</ele>
        <time>2018-06-09T07:15:44.000Z</time>
      </trkpt>
      <trkpt lat="42.993218" lon="-2.389316">
        <ele>1204.09656306401</ele>
        <time>2018-06-09T07:15:47.000Z</time>
      </trkpt>
      <trkpt lat="42.993234" lon="-2.389301">
        <ele>1204.89781137426</ele>
        <time>2018-06-09T07:15:50.000Z</time>
      </trkpt>
      <trkpt lat="42.993246" lon="-2.389276">
        <ele>1205.2486432474</ele>
        <time>2018-06-09T07:15:53.000Z</time>
      </trkpt>
      <trkpt lat="42.993268" lon="-2.389268">
        <ele>1205.7506554643</ele>
        <time>2018-06-09T07:15:56.000Z</time>
      </trkpt>
      <trkpt lat="42.993277" lon="-2.389258">
        <ele>1207.36363883514</ele>
        <time>2018-06-09T07:16:00.000Z</time>
      </trkpt>
      <trkpt lat="42.99329" lon="-2.38928">
        <ele>1207.75361072552</ele>
        <time>2018-06-09T07:16:04.000Z</time>
      </trkpt>
      <trkpt lat="42.993299" lon="-2.389303">
        <ele>1207.96178047775</ele>
        <time>2018-06-09T07:16:07.000Z</time>
      </trkpt>
      <trkpt lat="42.993312" lon="-2.389322">
        <ele>1208.30004882813</ele>
        <time>2018-06-09T07:16:09.000Z</time>
      </trkpt>
      <trkpt lat="42.993322" lon="-2.389354">
        <ele>1209.16823166248</ele>
        <time>2018-06-09T07:16:13.000Z</time>
      </trkpt>
      <trkpt lat="42.993328" lon="-2.389383">
        <ele>1210.09997558594</ele>
        <time>2018-06-09T07:16:16.000Z</time>
      </trkpt>
      <trkpt lat="42.993343" lon="-2.389403">
        <ele>1210.59997558594</ele>
        <time>2018-06-09T07:16:19.000Z</time>
      </trkpt>
      <trkpt lat="42.993362" lon="-2.389387">
        <ele>1211.47470416728</ele>
        <time>2018-06-09T07:16:22.000Z</time>
      </trkpt>
      <trkpt lat="42.993373" lon="-2.389369">
        <ele>1212.87193942148</ele>
        <time>2018-06-09T07:16:24.000Z</time>
      </trkpt>
      <trkpt lat="42.993381" lon="-2.389345">
        <ele>1214.702369356</ele>
        <time>2018-06-09T07:16:28.000Z</time>
      </trkpt>
      <trkpt lat="42.993403" lon="-2.389352">
        <ele>1215.40002441406</ele>
        <time>2018-06-09T07:16:31.000Z</time>
      </trkpt>
      <trkpt lat="42.99342" lon="-2.389368">
        <ele>1215.40002441406</ele>
        <time>2018-06-09T07:16:33.000Z</time>
      </trkpt>
      <trkpt lat="42.993437" lon="-2.389386">
        <ele>1215.90002441406</ele>
        <time>2018-06-09T07:16:38.000Z</time>
      </trkpt>
      <trkpt lat="42.993445" lon="-2.38941">
        <ele>1216.25532730945</ele>
        <time>2018-06-09T07:16:40.000Z</time>
      </trkpt>
      <trkpt lat="42.99344" lon="-2.389435">
        <ele>1216.04271730094</ele>
        <time>2018-06-09T07:16:42.000Z</time>
      </trkpt>
      <trkpt lat="42.993451" lon="-2.389457">
        <ele>1216.23508560937</ele>
        <time>2018-06-09T07:16:45.000Z</time>
      </trkpt>
      <trkpt lat="42.99347" lon="-2.389458">
        <ele>1216.59378383453</ele>
        <time>2018-06-09T07:16:48.000Z</time>
      </trkpt>
      <trkpt lat="42.993486" lon="-2.389463">
        <ele>1218.25787904144</ele>
        <time>2018-06-09T07:16:50.000Z</time>
      </trkpt>
      <trkpt lat="42.993499" lon="-2.389481">
        <ele>1219.09997558594</ele>
        <time>2018-06-09T07:16:53.000Z</time>
      </trkpt>
      <trkpt lat="42.993496" lon="-2.389493">
        <ele>1220.86780042288</ele>
        <time>2018-06-09T07:16:56.000Z</time>
      </trkpt>
      <trkpt lat="42.993503" lon="-2.389519">
        <ele>1220.69995117188</ele>
        <time>2018-06-09T07:17:01.000Z</time>
      </trkpt>
      <trkpt lat="42.993527" lon="-2.389523">
        <ele>1220.76129543598</ele>
        <time>2018-06-09T07:17:05.000Z</time>
      </trkpt>
      <trkpt lat="42.99353" lon="-2.389525">
        <ele>1222.49853728249</ele>
        <time>2018-06-09T07:17:08.000Z</time>
      </trkpt>
      <trkpt lat="42.993542" lon="-2.389537">
        <ele>1224.25337559989</ele>
        <time>2018-06-09T07:17:12.000Z</time>
      </trkpt>
      <trkpt lat="42.993548" lon="-2.389565">
        <ele>1224.80004882813</ele>
        <time>2018-06-09T07:17:17.000Z</time>
      </trkpt>
      <trkpt lat="42.993552" lon="-2.38959">
        <ele>1225.04144736739</ele>
        <time>2018-06-09T07:17:20.000Z</time>
      </trkpt>
      <trkpt lat="42.993542" lon="-2.389604">
        <ele>1226.62802475859</ele>
        <time>2018-06-09T07:17:24.000Z</time>
      </trkpt>
      <trkpt lat="42.993527" lon="-2.389631">
        <ele>1227.16564774968</ele>
        <time>2018-06-09T07:17:27.000Z</time>
      </trkpt>
      <trkpt lat="42.993521" lon="-2.389655">
        <ele>1226.72654401416</ele>
        <time>2018-06-09T07:17:30.000Z</time>
      </trkpt>
      <trkpt lat="42.993518" lon="-2.389692">
        <ele>1226.95041307557</ele>
        <time>2018-06-09T07:17:33.000Z</time>
      </trkpt>
      <trkpt lat="42.993522" lon="-2.389717">
        <ele>1226.42363636999</ele>
        <time>2018-06-09T07:17:38.000Z</time>
      </trkpt>
      <trkpt lat="42.993525" lon="-2.389746">
        <ele>1226.55358691406</ele>
        <time>2018-06-09T07:17:43.000Z</time>
      </trkpt>
      <trkpt lat="42.993531" lon="-2.389756">
        <ele>1228.37760750177</ele>
        <time>2018-06-09T07:17:47.000Z</time>
      </trkpt>
      <trkpt lat="42.993541" lon="-2.389775">
        <ele>1230.15148755609</ele>
        <time>2018-06-09T07:17:52.000Z</time>
      </trkpt>
      <trkpt lat="42.993557" lon="-2.389788">
        <ele>1230.65959964188</ele>
        <time>2018-06-09T07:17:55.000Z</time>
      </trkpt>
      <trkpt lat="42.993556" lon="-2.389813">
        <ele>1231.59997558594</ele>
        <time>2018-06-09T07:18:03.000Z</time>
      </trkpt>
      <trkpt lat="42.993562" lon="-2.389837">
        <ele>1231.93165507702</ele>
        <time>2018-06-09T07:18:06.000Z</time>
      </trkpt>
      <trkpt lat="42.99356" lon="-2.389867">
        <ele>1233.33935639747</ele>
        <time>2018-06-09T07:18:10.000Z</time>
      </trkpt>
      <trkpt lat="42.993561" lon="-2.38989">
        <ele>1234.30004882813</ele>
        <time>2018-06-09T07:18:13.000Z</time>
      </trkpt>
      <trkpt lat="42.993566" lon="-2.389915">
        <ele>1234.51917357386</ele>
        <time>2018-06-09T07:18:20.000Z</time>
      </trkpt>
      <trkpt lat="42.993571" lon="-2.389937">
        <ele>1235.78680885931</ele>
        <time>2018-06-09T07:18:23.000Z</time>
      </trkpt>
      <trkpt lat="42.993592" lon="-2.389942">
        <ele>1236.40002441406</ele>
        <time>2018-06-09T07:18:26.000Z</time>
      </trkpt>
      <trkpt lat="42.993597" lon="-2.38994">
        <ele>1238.85579731058</ele>
        <time>2018-06-09T07:18:29.000Z</time>
      </trkpt>
      <trkpt lat="42.993587" lon="-2.389963">
        <ele>1237.90002441406</ele>
        <time>2018-06-09T07:18:37.000Z</time>
      </trkpt>
      <trkpt lat="42.993587" lon="-2.389992">
        <ele>1237.02286256434</ele>
        <time>2018-06-09T07:18:39.000Z</time>
      </trkpt>
      <trkpt lat="42.993587" lon="-2.390028">
        <ele>1237.08893385531</ele>
        <time>2018-06-09T07:18:42.000Z</time>
      </trkpt>
      <trkpt lat="42.993573" lon="-2.390056">
        <ele>1237.37951391471</ele>
        <time>2018-06-09T07:18:44.000Z</time>
      </trkpt>
      <trkpt lat="42.99357" lon="-2.39009">
        <ele>1237.87258407754</ele>
        <time>2018-06-09T07:18:47.000Z</time>
      </trkpt>
      <trkpt lat="42.993571" lon="-2.390122">
        <ele>1238.59997558594</ele>
        <time>2018-06-09T07:18:51.000Z</time>
      </trkpt>
      <trkpt lat="42.993564" lon="-2.390144">
        <ele>1239.18035835437</ele>
        <time>2018-06-09T07:18:54.000Z</time>
      </trkpt>
      <trkpt lat="42.99357" lon="-2.390162">
        <ele>1240.79120015241</ele>
        <time>2018-06-09T07:19:00.000Z</time>
      </trkpt>
      <trkpt lat="42.993573" lon="-2.390187">
        <ele>1241</ele>
        <time>2018-06-09T07:19:05.000Z</time>
      </trkpt>
      <trkpt lat="42.993568" lon="-2.390218">
        <ele>1241.49768651324</ele>
        <time>2018-06-09T07:19:08.000Z</time>
      </trkpt>
      <trkpt lat="42.993576" lon="-2.390247">
        <ele>1242.87904083266</ele>
        <time>2018-06-09T07:19:11.000Z</time>
      </trkpt>
      <trkpt lat="42.99358" lon="-2.39027">
        <ele>1243.989993081</ele>
        <time>2018-06-09T07:19:14.000Z</time>
      </trkpt>
      <trkpt lat="42.993571" lon="-2.390292">
        <ele>1244.5</ele>
        <time>2018-06-09T07:19:19.000Z</time>
      </trkpt>
      <trkpt lat="42.993574" lon="-2.390285">
        <ele>1246.00351716176</ele>
        <time>2018-06-09T07:19:26.000Z</time>
      </trkpt>
      <trkpt lat="42.993586" lon="-2.390303">
        <ele>1247.09997558594</ele>
        <time>2018-06-09T07:19:34.000Z</time>
      </trkpt>
      <trkpt lat="42.993577" lon="-2.390315">
        <ele>1247.82434187188</ele>
        <time>2018-06-09T07:19:39.000Z</time>
      </trkpt>
      <trkpt lat="42.993585" lon="-2.39034">
        <ele>1248.81493631638</ele>
        <time>2018-06-09T07:19:45.000Z</time>
      </trkpt>
      <trkpt lat="42.993586" lon="-2.390369">
        <ele>1249.65183250853</ele>
        <time>2018-06-09T07:19:49.000Z</time>
      </trkpt>
      <trkpt lat="42.993583" lon="-2.390395">
        <ele>1250.70638319112</ele>
        <time>2018-06-09T07:19:54.000Z</time>
      </trkpt>
      <trkpt lat="42.993571" lon="-2.390421">
        <ele>1251.12125828417</ele>
        <time>2018-06-09T07:19:58.000Z</time>
      </trkpt>
      <trkpt lat="42.993561" lon="-2.39044">
        <ele>1252.13197753906</ele>
        <time>2018-06-09T07:20:02.000Z</time>
      </trkpt>
      <trkpt lat="42.99355" lon="-2.390457">
        <ele>1253.90002441406</ele>
        <time>2018-06-09T07:20:07.000Z</time>
      </trkpt>
      <trkpt lat="42.993545" lon="-2.390479">
        <ele>1254.14054197782</ele>
        <time>2018-06-09T07:20:10.000Z</time>
      </trkpt>
      <trkpt lat="42.993545" lon="-2.390507">
        <ele>1255.19995117188</ele>
        <time>2018-06-09T07:20:13.000Z</time>
      </trkpt>
      <trkpt lat="42.993543" lon="-2.390539">
        <ele>1255.51138552956</ele>
        <time>2018-06-09T07:20:16.000Z</time>
      </trkpt>
      <trkpt lat="42.993552" lon="-2.390558">
        <ele>1255.94888340576</ele>
        <time>2018-06-09T07:20:19.000Z</time>
      </trkpt>
      <trkpt lat="42.993561" lon="-2.39058">
        <ele>1257.28317791423</ele>
        <time>2018-06-09T07:20:22.000Z</time>
      </trkpt>
      <trkpt lat="42.993568" lon="-2.390603">
        <ele>1258</ele>
        <time>2018-06-09T07:20:24.000Z</time>
      </trkpt>
      <trkpt lat="42.993567" lon="-2.390635">
        <ele>1257.90002441406</ele>
        <time>2018-06-09T07:20:27.000Z</time>
      </trkpt>
      <trkpt lat="42.993577" lon="-2.390663">
        <ele>1258.51393805222</ele>
        <time>2018-06-09T07:20:31.000Z</time>
      </trkpt>
      <trkpt lat="42.993581" lon="-2.390691">
        <ele>1258.74483915214</ele>
        <time>2018-06-09T07:20:34.000Z</time>
      </trkpt>
      <trkpt lat="42.993584" lon="-2.390722">
        <ele>1259.56513702657</ele>
        <time>2018-06-09T07:20:39.000Z</time>
      </trkpt>
      <trkpt lat="42.993569" lon="-2.390748">
        <ele>1259.93314960595</ele>
        <time>2018-06-09T07:20:42.000Z</time>
      </trkpt>
      <trkpt lat="42.993572" lon="-2.390771">
        <ele>1260.73567101404</ele>
        <time>2018-06-09T07:20:46.000Z</time>
      </trkpt>
      <trkpt lat="42.993595" lon="-2.390775">
        <ele>1262.11858261107</ele>
        <time>2018-06-09T07:20:49.000Z</time>
      </trkpt>
      <trkpt lat="42.99361" lon="-2.390784">
        <ele>1262.97874614247</ele>
        <time>2018-06-09T07:20:53.000Z</time>
      </trkpt>
      <trkpt lat="42.993626" lon="-2.390797">
        <ele>1263.87968898392</ele>
        <time>2018-06-09T07:20:57.000Z</time>
      </trkpt>
      <trkpt lat="42.993646" lon="-2.390811">
        <ele>1264.1206327489</ele>
        <time>2018-06-09T07:21:02.000Z</time>
      </trkpt>
      <trkpt lat="42.993655" lon="-2.390825">
        <ele>1265.32406888588</ele>
        <time>2018-06-09T07:21:04.000Z</time>
      </trkpt>
      <trkpt lat="42.993663" lon="-2.390848">
        <ele>1266.33999897616</ele>
        <time>2018-06-09T07:21:08.000Z</time>
      </trkpt>
      <trkpt lat="42.993681" lon="-2.390865">
        <ele>1267.06134189925</ele>
        <time>2018-06-09T07:21:11.000Z</time>
      </trkpt>
      <trkpt lat="42.993692" lon="-2.390885">
        <ele>1269.5204764164</ele>
        <time>2018-06-09T07:21:13.000Z</time>
      </trkpt>
      <trkpt lat="42.993702" lon="-2.390906">
        <ele>1269.90396462626</ele>
        <time>2018-06-09T07:21:15.000Z</time>
      </trkpt>
      <trkpt lat="42.993704" lon="-2.390931">
        <ele>1270.34140456766</ele>
        <time>2018-06-09T07:21:17.000Z</time>
      </trkpt>
      <trkpt lat="42.993696" lon="-2.390952">
        <ele>1271.09997558594</ele>
        <time>2018-06-09T07:21:21.000Z</time>
      </trkpt>
      <trkpt lat="42.993699" lon="-2.390978">
        <ele>1271.09997558594</ele>
        <time>2018-06-09T07:21:24.000Z</time>
      </trkpt>
      <trkpt lat="42.993706" lon="-2.390999">
        <ele>1271.80365905578</ele>
        <time>2018-06-09T07:21:28.000Z</time>
      </trkpt>
      <trkpt lat="42.993706" lon="-2.391025">
        <ele>1272.47940470938</ele>
        <time>2018-06-09T07:21:32.000Z</time>
      </trkpt>
      <trkpt lat="42.993701" lon="-2.391049">
        <ele>1273.26688567128</ele>
        <time>2018-06-09T07:21:37.000Z</time>
      </trkpt>
      <trkpt lat="42.993694" lon="-2.391069">
        <ele>1274.7209923669</ele>
        <time>2018-06-09T07:21:41.000Z</time>
      </trkpt>
      <trkpt lat="42.993681" lon="-2.39109">
        <ele>1275.80324571333</ele>
        <time>2018-06-09T07:21:45.000Z</time>
      </trkpt>
      <trkpt lat="42.993692" lon="-2.391123">
        <ele>1276.67925606562</ele>
        <time>2018-06-09T07:21:49.000Z</time>
      </trkpt>
      <trkpt lat="42.993698" lon="-2.391156">
        <ele>1276.82098537172</ele>
        <time>2018-06-09T07:21:52.000Z</time>
      </trkpt>
      <trkpt lat="42.993711" lon="-2.391178">
        <ele>1277.56397571398</ele>
        <time>2018-06-09T07:21:55.000Z</time>
      </trkpt>
      <trkpt lat="42.993726" lon="-2.391186">
        <ele>1278.69995117188</ele>
        <time>2018-06-09T07:21:59.000Z</time>
      </trkpt>
      <trkpt lat="42.993741" lon="-2.391201">
        <ele>1278.85844287277</ele>
        <time>2018-06-09T07:22:02.000Z</time>
      </trkpt>
      <trkpt lat="42.993748" lon="-2.391228">
        <ele>1278.44193997106</ele>
        <time>2018-06-09T07:22:06.000Z</time>
      </trkpt>
      <trkpt lat="42.993759" lon="-2.391254">
        <ele>1278.91434305697</ele>
        <time>2018-06-09T07:22:09.000Z</time>
      </trkpt>
      <trkpt lat="42.993771" lon="-2.39127">
        <ele>1280.80004882813</ele>
        <time>2018-06-09T07:22:13.000Z</time>
      </trkpt>
      <trkpt lat="42.993783" lon="-2.391288">
        <ele>1280.67462937813</ele>
        <time>2018-06-09T07:22:15.000Z</time>
      </trkpt>
      <trkpt lat="42.993798" lon="-2.391314">
        <ele>1279.88451171199</ele>
        <time>2018-06-09T07:22:18.000Z</time>
      </trkpt>
      <trkpt lat="42.993813" lon="-2.391336">
        <ele>1280.1369675125</ele>
        <time>2018-06-09T07:22:21.000Z</time>
      </trkpt>
      <trkpt lat="42.993831" lon="-2.391343">
        <ele>1280.84223756563</ele>
        <time>2018-06-09T07:22:24.000Z</time>
      </trkpt>
      <trkpt lat="42.993853" lon="-2.391346">
        <ele>1281.1920930918</ele>
        <time>2018-06-09T07:22:26.000Z</time>
      </trkpt>
      <trkpt lat="42.993865" lon="-2.391349">
        <ele>1283.40644500218</ele>
        <time>2018-06-09T07:22:28.000Z</time>
      </trkpt>
      <trkpt lat="42.993878" lon="-2.391363">
        <ele>1284.86273304063</ele>
        <time>2018-06-09T07:22:32.000Z</time>
      </trkpt>
      <trkpt lat="42.993881" lon="-2.391388">
        <ele>1285.43735282194</ele>
        <time>2018-06-09T07:22:37.000Z</time>
      </trkpt>
      <trkpt lat="42.993888" lon="-2.391409">
        <ele>1285.84248415946</ele>
        <time>2018-06-09T07:22:42.000Z</time>
      </trkpt>
      <trkpt lat="42.993901" lon="-2.39141">
        <ele>1287.86268453746</ele>
        <time>2018-06-09T07:22:46.000Z</time>
      </trkpt>
      <trkpt lat="42.99391" lon="-2.39143">
        <ele>1288.80004882813</ele>
        <time>2018-06-09T07:22:49.000Z</time>
      </trkpt>
      <trkpt lat="42.993914" lon="-2.39146">
        <ele>1288.94145599185</ele>
        <time>2018-06-09T07:22:52.000Z</time>
      </trkpt>
      <trkpt lat="42.993918" lon="-2.391485">
        <ele>1289.14142475835</ele>
        <time>2018-06-09T07:22:54.000Z</time>
      </trkpt>
      <trkpt lat="42.993927" lon="-2.39151">
        <ele>1289.5</ele>
        <time>2018-06-09T07:22:57.000Z</time>
      </trkpt>
      <trkpt lat="42.993939" lon="-2.39153">
        <ele>1289.90396743246</ele>
        <time>2018-06-09T07:23:01.000Z</time>
      </trkpt>
      <trkpt lat="42.993955" lon="-2.391551">
        <ele>1290.69995117188</ele>
        <time>2018-06-09T07:23:04.000Z</time>
      </trkpt>
      <trkpt lat="42.993978" lon="-2.39157">
        <ele>1290.86462265391</ele>
        <time>2018-06-09T07:23:08.000Z</time>
      </trkpt>
      <trkpt lat="42.99399" lon="-2.391589">
        <ele>1292.69995117188</ele>
        <time>2018-06-09T07:23:14.000Z</time>
      </trkpt>
      <trkpt lat="42.994003" lon="-2.391605">
        <ele>1292.19995117188</ele>
        <time>2018-06-09T07:23:16.000Z</time>
      </trkpt>
      <trkpt lat="42.994023" lon="-2.39161">
        <ele>1292.24100243223</ele>
        <time>2018-06-09T07:23:18.000Z</time>
      </trkpt>
      <trkpt lat="42.994039" lon="-2.391633">
        <ele>1292.90002441406</ele>
        <time>2018-06-09T07:23:22.000Z</time>
      </trkpt>
      <trkpt lat="42.994055" lon="-2.391668">
        <ele>1293</ele>
        <time>2018-06-09T07:23:25.000Z</time>
      </trkpt>
      <trkpt lat="42.994051" lon="-2.391696">
        <ele>1293.02053352578</ele>
        <time>2018-06-09T07:23:29.000Z</time>
      </trkpt>
      <trkpt lat="42.994052" lon="-2.391723">
        <ele>1293.69995117188</ele>
        <time>2018-06-09T07:23:33.000Z</time>
      </trkpt>
      <trkpt lat="42.994054" lon="-2.39176">
        <ele>1293.76098229189</ele>
        <time>2018-06-09T07:23:36.000Z</time>
      </trkpt>
      <trkpt lat="42.994062" lon="-2.391791">
        <ele>1293.76362398908</ele>
        <time>2018-06-09T07:23:38.000Z</time>
      </trkpt>
      <trkpt lat="42.994072" lon="-2.391817">
        <ele>1293.9163955375</ele>
        <time>2018-06-09T07:23:41.000Z</time>
      </trkpt>
      <trkpt lat="42.994091" lon="-2.391844">
        <ele>1293.59997558594</ele>
        <time>2018-06-09T07:23:43.000Z</time>
      </trkpt>
      <trkpt lat="42.994112" lon="-2.391871">
        <ele>1293.59997558594</ele>
        <time>2018-06-09T07:23:45.000Z</time>
      </trkpt>
      <trkpt lat="42.994132" lon="-2.391891">
        <ele>1293.80004882813</ele>
        <time>2018-06-09T07:23:47.000Z</time>
      </trkpt>
      <trkpt lat="42.994144" lon="-2.391914">
        <ele>1293.8793499492</ele>
        <time>2018-06-09T07:23:50.000Z</time>
      </trkpt>
      <trkpt lat="42.994152" lon="-2.391936">
        <ele>1294.09997558594</ele>
        <time>2018-06-09T07:23:53.000Z</time>
      </trkpt>
      <trkpt lat="42.994168" lon="-2.391956">
        <ele>1293.86250910843</ele>
        <time>2018-06-09T07:23:56.000Z</time>
      </trkpt>
      <trkpt lat="42.99418" lon="-2.391978">
        <ele>1292.97928421111</ele>
        <time>2018-06-09T07:24:00.000Z</time>
      </trkpt>
      <trkpt lat="42.994189" lon="-2.391998">
        <ele>1292.5184504835</ele>
        <time>2018-06-09T07:24:02.000Z</time>
      </trkpt>
      <trkpt lat="42.994192" lon="-2.392022">
        <ele>1291.30004882813</ele>
        <time>2018-06-09T07:24:04.000Z</time>
      </trkpt>
      <trkpt lat="42.994197" lon="-2.392051">
        <ele>1291.19995117188</ele>
        <time>2018-06-09T07:24:08.000Z</time>
      </trkpt>
      <trkpt lat="42.9942" lon="-2.39208">
        <ele>1291.28332272632</ele>
        <time>2018-06-09T07:24:11.000Z</time>
      </trkpt>
      <trkpt lat="42.99421" lon="-2.392102">
        <ele>1292.84356826191</ele>
        <time>2018-06-09T07:24:18.000Z</time>
      </trkpt>
      <trkpt lat="42.994221" lon="-2.392123">
        <ele>1293.09997558594</ele>
        <time>2018-06-09T07:24:21.000Z</time>
      </trkpt>
      <trkpt lat="42.99423" lon="-2.392146">
        <ele>1294.03852974578</ele>
        <time>2018-06-09T07:24:24.000Z</time>
      </trkpt>
      <trkpt lat="42.994242" lon="-2.392165">
        <ele>1295.07275706886</ele>
        <time>2018-06-09T07:24:28.000Z</time>
      </trkpt>
      <trkpt lat="42.99424" lon="-2.39219">
        <ele>1295.5</ele>
        <time>2018-06-09T07:24:31.000Z</time>
      </trkpt>
      <trkpt lat="42.994244" lon="-2.392214">
        <ele>1296.28025326754</ele>
        <time>2018-06-09T07:24:34.000Z</time>
      </trkpt>
      <trkpt lat="42.994261" lon="-2.392221">
        <ele>1297.53416153657</ele>
        <time>2018-06-09T07:24:38.000Z</time>
      </trkpt>
      <trkpt lat="42.994259" lon="-2.392242">
        <ele>1299</ele>
        <time>2018-06-09T07:24:44.000Z</time>
      </trkpt>
      <trkpt lat="42.994247" lon="-2.392257">
        <ele>1299.98541486282</ele>
        <time>2018-06-09T07:24:49.000Z</time>
      </trkpt>
      <trkpt lat="42.99427" lon="-2.392261">
        <ele>1300.33057169591</ele>
        <time>2018-06-09T07:24:59.000Z</time>
      </trkpt>
      <trkpt lat="42.994292" lon="-2.392255">
        <ele>1300.40002441406</ele>
        <time>2018-06-09T07:25:02.000Z</time>
      </trkpt>
      <trkpt lat="42.994313" lon="-2.392252">
        <ele>1300.90002441406</ele>
        <time>2018-06-09T07:25:07.000Z</time>
      </trkpt>
      <trkpt lat="42.994321" lon="-2.392231">
        <ele>1301.40002441406</ele>
        <time>2018-06-09T07:25:10.000Z</time>
      </trkpt>
      <trkpt lat="42.99434" lon="-2.392225">
        <ele>1301.82251201738</ele>
        <time>2018-06-09T07:25:13.000Z</time>
      </trkpt>
      <trkpt lat="42.994357" lon="-2.392208">
        <ele>1302.19995117188</ele>
        <time>2018-06-09T07:25:17.000Z</time>
      </trkpt>
      <trkpt lat="42.994378" lon="-2.392197">
        <ele>1303.01325972389</ele>
        <time>2018-06-09T07:25:20.000Z</time>
      </trkpt>
      <trkpt lat="42.994394" lon="-2.392188">
        <ele>1303.6555008</ele>
        <time>2018-06-09T07:25:22.000Z</time>
      </trkpt>
      <trkpt lat="42.994415" lon="-2.392175">
        <ele>1304.36164940546</ele>
        <time>2018-06-09T07:25:25.000Z</time>
      </trkpt>
      <trkpt lat="42.994433" lon="-2.392173">
        <ele>1305.19257479205</ele>
        <time>2018-06-09T07:25:28.000Z</time>
      </trkpt>
      <trkpt lat="42.994448" lon="-2.392178">
        <ele>1306.71466732614</ele>
        <time>2018-06-09T07:25:31.000Z</time>
      </trkpt>
      <trkpt lat="42.994452" lon="-2.392199">
        <ele>1307.96114780722</ele>
        <time>2018-06-09T07:25:36.000Z</time>
      </trkpt>
      <trkpt lat="42.99445" lon="-2.392225">
        <ele>1308.13072941383</ele>
        <time>2018-06-09T07:25:39.000Z</time>
      </trkpt>
      <trkpt lat="42.994454" lon="-2.392253">
        <ele>1308.5</ele>
        <time>2018-06-09T07:25:42.000Z</time>
      </trkpt>
      <trkpt lat="42.994458" lon="-2.392272">
        <ele>1309.89038955975</ele>
        <time>2018-06-09T07:25:46.000Z</time>
      </trkpt>
      <trkpt lat="42.994461" lon="-2.392262">
        <ele>1311.51347323315</ele>
        <time>2018-06-09T07:25:52.000Z</time>
      </trkpt>
      <trkpt lat="42.994477" lon="-2.392242">
        <ele>1312.30004882813</ele>
        <time>2018-06-09T07:26:27.000Z</time>
      </trkpt>
      <trkpt lat="42.994492" lon="-2.392258">
        <ele>1312.30004882813</ele>
        <time>2018-06-09T07:26:31.000Z</time>
      </trkpt>
      <trkpt lat="42.994512" lon="-2.392278">
        <ele>1312.19995117188</ele>
        <time>2018-06-09T07:26:34.000Z</time>
      </trkpt>
      <trkpt lat="42.994529" lon="-2.392283">
        <ele>1311.73071917183</ele>
        <time>2018-06-09T07:26:54.000Z</time>
      </trkpt>
      <trkpt lat="42.994534" lon="-2.392272">
        <ele>1313.42828880583</ele>
        <time>2018-06-09T07:27:13.000Z</time>
      </trkpt>
      <trkpt lat="42.994514" lon="-2.392276">
        <ele>1313.40002441406</ele>
        <time>2018-06-09T07:27:19.000Z</time>
      </trkpt>
      <trkpt lat="42.994497" lon="-2.392266">
        <ele>1312.51167303503</ele>
        <time>2018-06-09T07:27:23.000Z</time>
      </trkpt>
      <trkpt lat="42.994482" lon="-2.392244">
        <ele>1312.7096344564</ele>
        <time>2018-06-09T07:27:28.000Z</time>
      </trkpt>
      <trkpt lat="42.994462" lon="-2.39225">
        <ele>1312.40002441406</ele>
        <time>2018-06-09T07:27:33.000Z</time>
      </trkpt>
      <trkpt lat="42.994441" lon="-2.392258">
        <ele>1312.03919042969</ele>
        <time>2018-06-09T07:27:36.000Z</time>
      </trkpt>
      <trkpt lat="42.994428" lon="-2.392274">
        <ele>1311.1538602656</ele>
        <time>2018-06-09T07:27:38.000Z</time>
      </trkpt>
      <trkpt lat="42.994407" lon="-2.392284">
        <ele>1310.44531877658</ele>
        <time>2018-06-09T07:27:41.000Z</time>
      </trkpt>
      <trkpt lat="42.994389" lon="-2.392298">
        <ele>1309.9078403223</ele>
        <time>2018-06-09T07:27:44.000Z</time>
      </trkpt>
      <trkpt lat="42.994377" lon="-2.392328">
        <ele>1309.30004882813</ele>
        <time>2018-06-09T07:27:47.000Z</time>
      </trkpt>
      <trkpt lat="42.994394" lon="-2.392347">
        <ele>1310.09997558594</ele>
        <time>2018-06-09T07:27:52.000Z</time>
      </trkpt>
      <trkpt lat="42.994392" lon="-2.392376">
        <ele>1309.8819374628</ele>
        <time>2018-06-09T07:27:56.000Z</time>
      </trkpt>
      <trkpt lat="42.994408" lon="-2.392387">
        <ele>1309.14770173147</ele>
        <time>2018-06-09T07:27:58.000Z</time>
      </trkpt>
      <trkpt lat="42.994417" lon="-2.392398">
        <ele>1307.41521131822</ele>
        <time>2018-06-09T07:28:13.000Z</time>
      </trkpt>
      <trkpt lat="42.994436" lon="-2.392402">
        <ele>1307</ele>
        <time>2018-06-09T07:28:16.000Z</time>
      </trkpt>
      <trkpt lat="42.994454" lon="-2.392422">
        <ele>1307.01286124295</ele>
        <time>2018-06-09T07:28:19.000Z</time>
      </trkpt>
      <trkpt lat="42.994445" lon="-2.39244">
        <ele>1305.51415427706</ele>
        <time>2018-06-09T07:28:34.000Z</time>
      </trkpt>
      <trkpt lat="42.994426" lon="-2.392443">
        <ele>1304.44244129391</ele>
        <time>2018-06-09T07:28:37.000Z</time>
      </trkpt>
      <trkpt lat="42.994437" lon="-2.392463">
        <ele>1304.09997558594</ele>
        <time>2018-06-09T07:28:40.000Z</time>
      </trkpt>
      <trkpt lat="42.99443" lon="-2.392479">
        <ele>1302.63939838037</ele>
        <time>2018-06-09T07:28:44.000Z</time>
      </trkpt>
      <trkpt lat="42.994413" lon="-2.392487">
        <ele>1301.67058734653</ele>
        <time>2018-06-09T07:28:46.000Z</time>
      </trkpt>
      <trkpt lat="42.994392" lon="-2.392487">
        <ele>1300.82935848559</ele>
        <time>2018-06-09T07:28:50.000Z</time>
      </trkpt>
      <trkpt lat="42.994371" lon="-2.392494">
        <ele>1300.72020972705</ele>
        <time>2018-06-09T07:28:52.000Z</time>
      </trkpt>
      <trkpt lat="42.994376" lon="-2.392524">
        <ele>1300.17891391278</ele>
        <time>2018-06-09T07:28:55.000Z</time>
      </trkpt>
      <trkpt lat="42.994383" lon="-2.392548">
        <ele>1299.90002441406</ele>
        <time>2018-06-09T07:28:57.000Z</time>
      </trkpt>
      <trkpt lat="42.994389" lon="-2.392572">
        <ele>1299.43853727487</ele>
        <time>2018-06-09T07:28:59.000Z</time>
      </trkpt>
      <trkpt lat="42.994391" lon="-2.39258">
        <ele>1297.77724891474</ele>
        <time>2018-06-09T07:29:02.000Z</time>
      </trkpt>
      <trkpt lat="42.994368" lon="-2.392581">
        <ele>1297.30004882813</ele>
        <time>2018-06-09T07:29:05.000Z</time>
      </trkpt>
      <trkpt lat="42.99435" lon="-2.392579">
        <ele>1297.30004882813</ele>
        <time>2018-06-09T07:29:08.000Z</time>
      </trkpt>
      <trkpt lat="42.99433" lon="-2.392583">
        <ele>1297.0246442375</ele>
        <time>2018-06-09T07:29:11.000Z</time>
      </trkpt>
      <trkpt lat="42.994301" lon="-2.392595">
        <ele>1295.56343540469</ele>
        <time>2018-06-09T07:29:14.000Z</time>
      </trkpt>
      <trkpt lat="42.99429" lon="-2.392621">
        <ele>1293.90002441406</ele>
        <time>2018-06-09T07:29:16.000Z</time>
      </trkpt>
      <trkpt lat="42.994272" lon="-2.392624">
        <ele>1293.28727652565</ele>
        <time>2018-06-09T07:29:19.000Z</time>
      </trkpt>
      <trkpt lat="42.994242" lon="-2.392624">
        <ele>1292.69995117188</ele>
        <time>2018-06-09T07:29:21.000Z</time>
      </trkpt>
      <trkpt lat="42.994221" lon="-2.392658">
        <ele>1291.42884983086</ele>
        <time>2018-06-09T07:29:23.000Z</time>
      </trkpt>
      <trkpt lat="42.994213" lon="-2.39269">
        <ele>1290.50718262024</ele>
        <time>2018-06-09T07:29:24.000Z</time>
      </trkpt>
      <trkpt lat="42.994209" lon="-2.392722">
        <ele>1290.11428758927</ele>
        <time>2018-06-09T07:29:25.000Z</time>
      </trkpt>
      <trkpt lat="42.994208" lon="-2.392749">
        <ele>1289.60607457656</ele>
        <time>2018-06-09T07:29:26.000Z</time>
      </trkpt>
      <trkpt lat="42.994212" lon="-2.392785">
        <ele>1289.60558670272</ele>
        <time>2018-06-09T07:29:28.000Z</time>
      </trkpt>
      <trkpt lat="42.994196" lon="-2.392799">
        <ele>1289.69995117188</ele>
        <time>2018-06-09T07:29:32.000Z</time>
      </trkpt>
      <trkpt lat="42.994183" lon="-2.392815">
        <ele>1290.09997558594</ele>
        <time>2018-06-09T07:29:35.000Z</time>
      </trkpt>
      <trkpt lat="42.994162" lon="-2.392818">
        <ele>1290.19995117188</ele>
        <time>2018-06-09T07:29:39.000Z</time>
      </trkpt>
      <trkpt lat="42.994146" lon="-2.392838">
        <ele>1290.65777156907</ele>
        <time>2018-06-09T07:29:41.000Z</time>
      </trkpt>
      <trkpt lat="42.994142" lon="-2.392888">
        <ele>1290.19995117188</ele>
        <time>2018-06-09T07:29:43.000Z</time>
      </trkpt>
      <trkpt lat="42.994146" lon="-2.392912">
        <ele>1290.23522076003</ele>
        <time>2018-06-09T07:29:44.000Z</time>
      </trkpt>
      <trkpt lat="42.994151" lon="-2.392931">
        <ele>1289.76842131566</ele>
        <time>2018-06-09T07:29:45.000Z</time>
      </trkpt>
      <trkpt lat="42.994162" lon="-2.392971">
        <ele>1288.38419980554</ele>
        <time>2018-06-09T07:29:47.000Z</time>
      </trkpt>
      <trkpt lat="42.994159" lon="-2.393003">
        <ele>1287.7251963503</ele>
        <time>2018-06-09T07:29:51.000Z</time>
      </trkpt>
      <trkpt lat="42.99416" lon="-2.39304">
        <ele>1287.33880701822</ele>
        <time>2018-06-09T07:29:53.000Z</time>
      </trkpt>
      <trkpt lat="42.994167" lon="-2.393073">
        <ele>1286.19995117188</ele>
        <time>2018-06-09T07:29:55.000Z</time>
      </trkpt>
      <trkpt lat="42.994171" lon="-2.393102">
        <ele>1286.09997558594</ele>
        <time>2018-06-09T07:29:57.000Z</time>
      </trkpt>
      <trkpt lat="42.99417" lon="-2.39313">
        <ele>1286.08544899956</ele>
        <time>2018-06-09T07:29:59.000Z</time>
      </trkpt>
      <trkpt lat="42.994145" lon="-2.39314">
        <ele>1285.97796200547</ele>
        <time>2018-06-09T07:30:01.000Z</time>
      </trkpt>
      <trkpt lat="42.994139" lon="-2.393174">
        <ele>1286</ele>
        <time>2018-06-09T07:30:03.000Z</time>
      </trkpt>
      <trkpt lat="42.994146" lon="-2.393211">
        <ele>1284.59088044156</ele>
        <time>2018-06-09T07:30:05.000Z</time>
      </trkpt>
      <trkpt lat="42.994156" lon="-2.393262">
        <ele>1283.31875035857</ele>
        <time>2018-06-09T07:30:07.000Z</time>
      </trkpt>
      <trkpt lat="42.994162" lon="-2.393291">
        <ele>1282.79154341757</ele>
        <time>2018-06-09T07:30:08.000Z</time>
      </trkpt>
      <trkpt lat="42.994167" lon="-2.393315">
        <ele>1282.1591021009</ele>
        <time>2018-06-09T07:30:09.000Z</time>
      </trkpt>
      <trkpt lat="42.994177" lon="-2.393355">
        <ele>1281.69995117188</ele>
        <time>2018-06-09T07:30:11.000Z</time>
      </trkpt>
      <trkpt lat="42.994185" lon="-2.393396">
        <ele>1280.89345317323</ele>
        <time>2018-06-09T07:30:13.000Z</time>
      </trkpt>
      <trkpt lat="42.994193" lon="-2.393438">
        <ele>1280.09753770043</ele>
        <time>2018-06-09T07:30:15.000Z</time>
      </trkpt>
      <trkpt lat="42.994206" lon="-2.393476">
        <ele>1279.5</ele>
        <time>2018-06-09T07:30:17.000Z</time>
      </trkpt>
      <trkpt lat="42.994217" lon="-2.393516">
        <ele>1278.67727492368</ele>
        <time>2018-06-09T07:30:19.000Z</time>
      </trkpt>
      <trkpt lat="42.994223" lon="-2.393554">
        <ele>1277.93781469079</ele>
        <time>2018-06-09T07:30:21.000Z</time>
      </trkpt>
      <trkpt lat="42.994227" lon="-2.393592">
        <ele>1277.640765625</ele>
        <time>2018-06-09T07:30:23.000Z</time>
      </trkpt>
      <trkpt lat="42.994233" lon="-2.393628">
        <ele>1277.57650651433</ele>
        <time>2018-06-09T07:30:25.000Z</time>
      </trkpt>
      <trkpt lat="42.99424" lon="-2.393661">
        <ele>1277.19505084213</ele>
        <time>2018-06-09T07:30:27.000Z</time>
      </trkpt>
      <trkpt lat="42.994246" lon="-2.393697">
        <ele>1276.90002441406</ele>
        <time>2018-06-09T07:30:29.000Z</time>
      </trkpt>
      <trkpt lat="42.994244" lon="-2.393736">
        <ele>1276.85899377876</ele>
        <time>2018-06-09T07:30:31.000Z</time>
      </trkpt>
      <trkpt lat="42.994246" lon="-2.393765">
        <ele>1276.49161837401</ele>
        <time>2018-06-09T07:30:33.000Z</time>
      </trkpt>
      <trkpt lat="42.994254" lon="-2.393797">
        <ele>1275.9308881198</ele>
        <time>2018-06-09T07:30:35.000Z</time>
      </trkpt>
      <trkpt lat="42.994257" lon="-2.393825">
        <ele>1275.59997558594</ele>
        <time>2018-06-09T07:30:37.000Z</time>
      </trkpt>
      <trkpt lat="42.994257" lon="-2.393851">
        <ele>1275.41264558007</ele>
        <time>2018-06-09T07:30:39.000Z</time>
      </trkpt>
      <trkpt lat="42.994261" lon="-2.39388">
        <ele>1275.06758694109</ele>
        <time>2018-06-09T07:30:41.000Z</time>
      </trkpt>
      <trkpt lat="42.994272" lon="-2.393906">
        <ele>1274.27805638211</ele>
        <time>2018-06-09T07:30:43.000Z</time>
      </trkpt>
      <trkpt lat="42.994292" lon="-2.393925">
        <ele>1273.86503914533</ele>
        <time>2018-06-09T07:30:45.000Z</time>
      </trkpt>
      <trkpt lat="42.994316" lon="-2.393939">
        <ele>1273.59997558594</ele>
        <time>2018-06-09T07:30:47.000Z</time>
      </trkpt>
      <trkpt lat="42.994341" lon="-2.393946">
        <ele>1273.46175688434</ele>
        <time>2018-06-09T07:30:49.000Z</time>
      </trkpt>
      <trkpt lat="42.994365" lon="-2.393952">
        <ele>1273.11465178397</ele>
        <time>2018-06-09T07:30:51.000Z</time>
      </trkpt>
      <trkpt lat="42.994386" lon="-2.393969">
        <ele>1272.80004882813</ele>
        <time>2018-06-09T07:30:53.000Z</time>
      </trkpt>
      <trkpt lat="42.994408" lon="-2.393982">
        <ele>1272.16499292494</ele>
        <time>2018-06-09T07:30:55.000Z</time>
      </trkpt>
      <trkpt lat="42.994431" lon="-2.393993">
        <ele>1271.41704514869</ele>
        <time>2018-06-09T07:30:57.000Z</time>
      </trkpt>
      <trkpt lat="42.994453" lon="-2.394007">
        <ele>1270.20531992735</ele>
        <time>2018-06-09T07:30:59.000Z</time>
      </trkpt>
      <trkpt lat="42.994482" lon="-2.394012">
        <ele>1269.65765400722</ele>
        <time>2018-06-09T07:31:01.000Z</time>
      </trkpt>
      <trkpt lat="42.99451" lon="-2.394018">
        <ele>1269.40002441406</ele>
        <time>2018-06-09T07:31:03.000Z</time>
      </trkpt>
      <trkpt lat="42.994532" lon="-2.394026">
        <ele>1268.6875737928</ele>
        <time>2018-06-09T07:31:05.000Z</time>
      </trkpt>
      <trkpt lat="42.994561" lon="-2.394031">
        <ele>1268</ele>
        <time>2018-06-09T07:31:07.000Z</time>
      </trkpt>
      <trkpt lat="42.994581" lon="-2.394042">
        <ele>1267.95247384893</ele>
        <time>2018-06-09T07:31:09.000Z</time>
      </trkpt>
      <trkpt lat="42.994587" lon="-2.39407">
        <ele>1267.71323615558</ele>
        <time>2018-06-09T07:31:11.000Z</time>
      </trkpt>
      <trkpt lat="42.99459" lon="-2.394107">
        <ele>1266.95587858974</ele>
        <time>2018-06-09T07:31:13.000Z</time>
      </trkpt>
      <trkpt lat="42.994593" lon="-2.394158">
        <ele>1266.75150398754</ele>
        <time>2018-06-09T07:31:15.000Z</time>
      </trkpt>
      <trkpt lat="42.994594" lon="-2.394179">
        <ele>1265.91924006933</ele>
        <time>2018-06-09T07:31:16.000Z</time>
      </trkpt>
      <trkpt lat="42.994599" lon="-2.394198">
        <ele>1264.36498038594</ele>
        <time>2018-06-09T07:31:17.000Z</time>
      </trkpt>
      <trkpt lat="42.994619" lon="-2.394208">
        <ele>1263.35128250427</ele>
        <time>2018-06-09T07:31:19.000Z</time>
      </trkpt>
      <trkpt lat="42.994636" lon="-2.394184">
        <ele>1263.15131415799</ele>
        <time>2018-06-09T07:31:21.000Z</time>
      </trkpt>
      <trkpt lat="42.994658" lon="-2.394165">
        <ele>1262.70521188438</ele>
        <time>2018-06-09T07:31:23.000Z</time>
      </trkpt>
      <trkpt lat="42.99469" lon="-2.39416">
        <ele>1261.75561088501</ele>
        <time>2018-06-09T07:31:25.000Z</time>
      </trkpt>
      <trkpt lat="42.994716" lon="-2.39418">
        <ele>1260.65633553752</ele>
        <time>2018-06-09T07:31:27.000Z</time>
      </trkpt>
      <trkpt lat="42.994745" lon="-2.394202">
        <ele>1260.15081288311</ele>
        <time>2018-06-09T07:31:29.000Z</time>
      </trkpt>
      <trkpt lat="42.994769" lon="-2.394227">
        <ele>1260</ele>
        <time>2018-06-09T07:31:31.000Z</time>
      </trkpt>
      <trkpt lat="42.994795" lon="-2.394256">
        <ele>1260.00020131292</ele>
        <time>2018-06-09T07:31:33.000Z</time>
      </trkpt>
      <trkpt lat="42.994822" lon="-2.394287">
        <ele>1259.74945025199</ele>
        <time>2018-06-09T07:31:35.000Z</time>
      </trkpt>
      <trkpt lat="42.99485" lon="-2.394323">
        <ele>1259.34596753135</ele>
        <time>2018-06-09T07:31:37.000Z</time>
      </trkpt>
      <trkpt lat="42.99488" lon="-2.394335">
        <ele>1258.1981126075</ele>
        <time>2018-06-09T07:31:39.000Z</time>
      </trkpt>
      <trkpt lat="42.994908" lon="-2.394346">
        <ele>1258.14936384531</ele>
        <time>2018-06-09T07:31:41.000Z</time>
      </trkpt>
      <trkpt lat="42.994937" lon="-2.394354">
        <ele>1257.94941147389</ele>
        <time>2018-06-09T07:31:43.000Z</time>
      </trkpt>
      <trkpt lat="42.994966" lon="-2.394375">
        <ele>1257.54893676002</ele>
        <time>2018-06-09T07:31:45.000Z</time>
      </trkpt>
      <trkpt lat="42.994981" lon="-2.394402">
        <ele>1257.74920082477</ele>
        <time>2018-06-09T07:31:47.000Z</time>
      </trkpt>
      <trkpt lat="42.994993" lon="-2.394437">
        <ele>1257.44792061958</ele>
        <time>2018-06-09T07:31:49.000Z</time>
      </trkpt>
      <trkpt lat="42.995007" lon="-2.394466">
        <ele>1257.30004882813</ele>
        <time>2018-06-09T07:31:51.000Z</time>
      </trkpt>
      <trkpt lat="42.995017" lon="-2.394501">
        <ele>1257.59997558594</ele>
        <time>2018-06-09T07:31:53.000Z</time>
      </trkpt>
      <trkpt lat="42.995037" lon="-2.394532">
        <ele>1257</ele>
        <time>2018-06-09T07:31:55.000Z</time>
      </trkpt>
      <trkpt lat="42.995057" lon="-2.39456">
        <ele>1256.74929633709</ele>
        <time>2018-06-09T07:31:57.000Z</time>
      </trkpt>
      <trkpt lat="42.995067" lon="-2.394577">
        <ele>1255.88474201393</ele>
        <time>2018-06-09T07:31:58.000Z</time>
      </trkpt>
      <trkpt lat="42.995084" lon="-2.394611">
        <ele>1254.64891234596</ele>
        <time>2018-06-09T07:32:00.000Z</time>
      </trkpt>
      <trkpt lat="42.995104" lon="-2.394642">
        <ele>1254.34636056304</ele>
        <time>2018-06-09T07:32:02.000Z</time>
      </trkpt>
      <trkpt lat="42.995125" lon="-2.394673">
        <ele>1253.2456266843</ele>
        <time>2018-06-09T07:32:04.000Z</time>
      </trkpt>
      <trkpt lat="42.995136" lon="-2.394691">
        <ele>1252.73737342632</ele>
        <time>2018-06-09T07:32:05.000Z</time>
      </trkpt>
      <trkpt lat="42.995159" lon="-2.394732">
        <ele>1252.40002441406</ele>
        <time>2018-06-09T07:32:07.000Z</time>
      </trkpt>
      <trkpt lat="42.995169" lon="-2.394754">
        <ele>1252.45136029157</ele>
        <time>2018-06-09T07:32:08.000Z</time>
      </trkpt>
      <trkpt lat="42.995177" lon="-2.394775">
        <ele>1252.80902459175</ele>
        <time>2018-06-09T07:32:09.000Z</time>
      </trkpt>
      <trkpt lat="42.995188" lon="-2.394797">
        <ele>1253.15171510048</ele>
        <time>2018-06-09T07:32:10.000Z</time>
      </trkpt>
      <trkpt lat="42.995206" lon="-2.394826">
        <ele>1253.19995117188</ele>
        <time>2018-06-09T07:32:12.000Z</time>
      </trkpt>
      <trkpt lat="42.995225" lon="-2.394836">
        <ele>1253.19995117188</ele>
        <time>2018-06-09T07:32:13.000Z</time>
      </trkpt>
      <trkpt lat="42.995234" lon="-2.394864">
        <ele>1252.89393278501</ele>
        <time>2018-06-09T07:32:16.000Z</time>
      </trkpt>
      <trkpt lat="42.995248" lon="-2.394888">
        <ele>1252.5</ele>
        <time>2018-06-09T07:32:18.000Z</time>
      </trkpt>
      <trkpt lat="42.99527" lon="-2.394911">
        <ele>1252.6629787281</ele>
        <time>2018-06-09T07:32:20.000Z</time>
      </trkpt>
      <trkpt lat="42.995283" lon="-2.394938">
        <ele>1252.90942115937</ele>
        <time>2018-06-09T07:32:22.000Z</time>
      </trkpt>
      <trkpt lat="42.995295" lon="-2.394967">
        <ele>1253.30004882813</ele>
        <time>2018-06-09T07:32:24.000Z</time>
      </trkpt>
      <trkpt lat="42.995306" lon="-2.394997">
        <ele>1253.38911698502</ele>
        <time>2018-06-09T07:32:26.000Z</time>
      </trkpt>
      <trkpt lat="42.995317" lon="-2.395032">
        <ele>1253.59997558594</ele>
        <time>2018-06-09T07:32:28.000Z</time>
      </trkpt>
      <trkpt lat="42.995332" lon="-2.395051">
        <ele>1253.35601509297</ele>
        <time>2018-06-09T07:32:30.000Z</time>
      </trkpt>
      <trkpt lat="42.995357" lon="-2.395045">
        <ele>1253.57012357275</ele>
        <time>2018-06-09T07:32:33.000Z</time>
      </trkpt>
      <trkpt lat="42.995376" lon="-2.395068">
        <ele>1254.24441232031</ele>
        <time>2018-06-09T07:32:36.000Z</time>
      </trkpt>
      <trkpt lat="42.995389" lon="-2.395086">
        <ele>1254.75792379867</ele>
        <time>2018-06-09T07:32:38.000Z</time>
      </trkpt>
      <trkpt lat="42.995413" lon="-2.395095">
        <ele>1255.13169985483</ele>
        <time>2018-06-09T07:32:41.000Z</time>
      </trkpt>
      <trkpt lat="42.995428" lon="-2.395113">
        <ele>1256.55862665621</ele>
        <time>2018-06-09T07:32:44.000Z</time>
      </trkpt>
      <trkpt lat="42.995447" lon="-2.395122">
        <ele>1256.71757159442</ele>
        <time>2018-06-09T07:32:46.000Z</time>
      </trkpt>
      <trkpt lat="42.995463" lon="-2.395122">
        <ele>1257.57747129657</ele>
        <time>2018-06-09T07:32:48.000Z</time>
      </trkpt>
      <trkpt lat="42.995484" lon="-2.395129">
        <ele>1258.15980059214</ele>
        <time>2018-06-09T07:32:51.000Z</time>
      </trkpt>
      <trkpt lat="42.995506" lon="-2.395125">
        <ele>1258.92122488694</ele>
        <time>2018-06-09T07:32:54.000Z</time>
      </trkpt>
      <trkpt lat="42.995517" lon="-2.395101">
        <ele>1259.32239628292</ele>
        <time>2018-06-09T07:32:56.000Z</time>
      </trkpt>
      <trkpt lat="42.995525" lon="-2.395084">
        <ele>1260.54543587881</ele>
        <time>2018-06-09T07:32:59.000Z</time>
      </trkpt>
      <trkpt lat="42.995544" lon="-2.395086">
        <ele>1261.26233680601</ele>
        <time>2018-06-09T07:33:02.000Z</time>
      </trkpt>
      <trkpt lat="42.995552" lon="-2.395107">
        <ele>1261.75237318473</ele>
        <time>2018-06-09T07:33:04.000Z</time>
      </trkpt>
      <trkpt lat="42.995572" lon="-2.395112">
        <ele>1262.29239105114</ele>
        <time>2018-06-09T07:33:07.000Z</time>
      </trkpt>
      <trkpt lat="42.99558" lon="-2.395082">
        <ele>1262.69323199837</ele>
        <time>2018-06-09T07:33:10.000Z</time>
      </trkpt>
      <trkpt lat="42.995591" lon="-2.395064">
        <ele>1264.05930396503</ele>
        <time>2018-06-09T07:33:13.000Z</time>
      </trkpt>
      <trkpt lat="42.995597" lon="-2.395039">
        <ele>1264.66559387264</ele>
        <time>2018-06-09T07:33:16.000Z</time>
      </trkpt>
      <trkpt lat="42.995615" lon="-2.395023">
        <ele>1265.43341549735</ele>
        <time>2018-06-09T07:33:20.000Z</time>
      </trkpt>
      <trkpt lat="42.995636" lon="-2.395019">
        <ele>1265.69995117188</ele>
        <time>2018-06-09T07:33:23.000Z</time>
      </trkpt>
      <trkpt lat="42.995658" lon="-2.395021">
        <ele>1266.10447818289</ele>
        <time>2018-06-09T07:33:26.000Z</time>
      </trkpt>
      <trkpt lat="42.995673" lon="-2.395014">
        <ele>1267.26914941736</ele>
        <time>2018-06-09T07:33:31.000Z</time>
      </trkpt>
      <trkpt lat="42.99568" lon="-2.395037">
        <ele>1268.5</ele>
        <time>2018-06-09T07:33:36.000Z</time>
      </trkpt>
      <trkpt lat="42.995697" lon="-2.395055">
        <ele>1268.94134593624</ele>
        <time>2018-06-09T07:33:39.000Z</time>
      </trkpt>
      <trkpt lat="42.995712" lon="-2.395027">
        <ele>1269.30793342311</ele>
        <time>2018-06-09T07:33:44.000Z</time>
      </trkpt>
      <trkpt lat="42.995728" lon="-2.395025">
        <ele>1270.69995117188</ele>
        <time>2018-06-09T07:33:49.000Z</time>
      </trkpt>
      <trkpt lat="42.995734" lon="-2.39504">
        <ele>1272.75388269547</ele>
        <time>2018-06-09T07:33:51.000Z</time>
      </trkpt>
      <trkpt lat="42.995741" lon="-2.395069">
        <ele>1273.19995117188</ele>
        <time>2018-06-09T07:33:54.000Z</time>
      </trkpt>
      <trkpt lat="42.995757" lon="-2.395079">
        <ele>1272.52883520624</ele>
        <time>2018-06-09T07:33:57.000Z</time>
      </trkpt>
      <trkpt lat="42.995769" lon="-2.395059">
        <ele>1272.61134977084</ele>
        <time>2018-06-09T07:34:01.000Z</time>
      </trkpt>
      <trkpt lat="42.995793" lon="-2.395053">
        <ele>1273.4796864139</ele>
        <time>2018-06-09T07:34:07.000Z</time>
      </trkpt>
      <trkpt lat="42.995815" lon="-2.395059">
        <ele>1274.32360525781</ele>
        <time>2018-06-09T07:34:10.000Z</time>
      </trkpt>
      <trkpt lat="42.995834" lon="-2.395055">
        <ele>1274.84202911734</ele>
        <time>2018-06-09T07:34:14.000Z</time>
      </trkpt>
      <trkpt lat="42.995852" lon="-2.395054">
        <ele>1275.38410990467</ele>
        <time>2018-06-09T07:34:17.000Z</time>
      </trkpt>
      <trkpt lat="42.995869" lon="-2.39507">
        <ele>1276.22940961443</ele>
        <time>2018-06-09T07:34:21.000Z</time>
      </trkpt>
      <trkpt lat="42.99588" lon="-2.395042">
        <ele>1276.81219747779</ele>
        <time>2018-06-09T07:34:25.000Z</time>
      </trkpt>
      <trkpt lat="42.995896" lon="-2.395057">
        <ele>1278.48304915753</ele>
        <time>2018-06-09T07:34:31.000Z</time>
      </trkpt>
      <trkpt lat="42.995917" lon="-2.395058">
        <ele>1278.69995117188</ele>
        <time>2018-06-09T07:34:35.000Z</time>
      </trkpt>
      <trkpt lat="42.995926" lon="-2.395041">
        <ele>1279.87304174068</ele>
        <time>2018-06-09T07:34:38.000Z</time>
      </trkpt>
      <trkpt lat="42.99594" lon="-2.395026">
        <ele>1280.97485607859</ele>
        <time>2018-06-09T07:34:44.000Z</time>
      </trkpt>
      <trkpt lat="42.995953" lon="-2.395034">
        <ele>1282.45161245625</ele>
        <time>2018-06-09T07:34:48.000Z</time>
      </trkpt>
      <trkpt lat="42.995969" lon="-2.395044">
        <ele>1283.02898123963</ele>
        <time>2018-06-09T07:34:51.000Z</time>
      </trkpt>
      <trkpt lat="42.995984" lon="-2.395056">
        <ele>1283.73199388231</ele>
        <time>2018-06-09T07:34:54.000Z</time>
      </trkpt>
      <trkpt lat="42.996003" lon="-2.395082">
        <ele>1284</ele>
        <time>2018-06-09T07:34:58.000Z</time>
      </trkpt>
      <trkpt lat="42.996016" lon="-2.395099">
        <ele>1284.77477673709</ele>
        <time>2018-06-09T07:35:00.000Z</time>
      </trkpt>
      <trkpt lat="42.996028" lon="-2.395117">
        <ele>1285.09997558594</ele>
        <time>2018-06-09T07:35:02.000Z</time>
      </trkpt>
      <trkpt lat="42.996047" lon="-2.39514">
        <ele>1285.47904249057</ele>
        <time>2018-06-09T07:35:05.000Z</time>
      </trkpt>
      <trkpt lat="42.996068" lon="-2.395159">
        <ele>1286.13804167912</ele>
        <time>2018-06-09T07:35:08.000Z</time>
      </trkpt>
      <trkpt lat="42.996086" lon="-2.39518">
        <ele>1286.38006934307</ele>
        <time>2018-06-09T07:35:11.000Z</time>
      </trkpt>
      <trkpt lat="42.996098" lon="-2.395193">
        <ele>1288.0205081708</ele>
        <time>2018-06-09T07:35:13.000Z</time>
      </trkpt>
      <trkpt lat="42.996113" lon="-2.395206">
        <ele>1288.72253420165</ele>
        <time>2018-06-09T07:35:15.000Z</time>
      </trkpt>
      <trkpt lat="42.996134" lon="-2.395223">
        <ele>1288.71831413986</ele>
        <time>2018-06-09T07:35:18.000Z</time>
      </trkpt>
      <trkpt lat="42.996147" lon="-2.395245">
        <ele>1288.30004882813</ele>
        <time>2018-06-09T07:35:21.000Z</time>
      </trkpt>
      <trkpt lat="42.996156" lon="-2.395276">
        <ele>1288.30004882813</ele>
        <time>2018-06-09T07:35:24.000Z</time>
      </trkpt>
      <trkpt lat="42.99615" lon="-2.39529">
        <ele>1289.8201640966</ele>
        <time>2018-06-09T07:35:30.000Z</time>
      </trkpt>
      <trkpt lat="42.996158" lon="-2.395307">
        <ele>1291.09997558594</ele>
        <time>2018-06-09T07:35:46.000Z</time>
      </trkpt>
      <trkpt lat="42.996158" lon="-2.395319">
        <ele>1289.37466641063</ele>
        <time>2018-06-09T07:35:59.000Z</time>
      </trkpt>
      <trkpt lat="42.99617" lon="-2.395332">
        <ele>1290.46017210377</ele>
        <time>2018-06-09T07:36:06.000Z</time>
      </trkpt>
      <trkpt lat="42.996166" lon="-2.395308">
        <ele>1290.13088381503</ele>
        <time>2018-06-09T07:36:45.000Z</time>
      </trkpt>
      <trkpt lat="42.996183" lon="-2.395302">
        <ele>1289.40002441406</ele>
        <time>2018-06-09T07:36:48.000Z</time>
      </trkpt>
      <trkpt lat="42.9962" lon="-2.395323">
        <ele>1289.33899945857</ele>
        <time>2018-06-09T07:36:51.000Z</time>
      </trkpt>
      <trkpt lat="42.996206" lon="-2.395356">
        <ele>1289.30004882813</ele>
        <time>2018-06-09T07:36:54.000Z</time>
      </trkpt>
      <trkpt lat="42.996197" lon="-2.395386">
        <ele>1289.01232363128</ele>
        <time>2018-06-09T07:36:58.000Z</time>
      </trkpt>
      <trkpt lat="42.99619" lon="-2.395404">
        <ele>1287.62144704866</ele>
        <time>2018-06-09T07:37:16.000Z</time>
      </trkpt>
      <trkpt lat="42.996191" lon="-2.395432">
        <ele>1287.51018765833</ele>
        <time>2018-06-09T07:37:19.000Z</time>
      </trkpt>
      <trkpt lat="42.996202" lon="-2.395457">
        <ele>1287.18972270589</ele>
        <time>2018-06-09T07:37:23.000Z</time>
      </trkpt>
      <trkpt lat="42.996205" lon="-2.395491">
        <ele>1286.5</ele>
        <time>2018-06-09T07:37:27.000Z</time>
      </trkpt>
      <trkpt lat="42.996215" lon="-2.395515">
        <ele>1286.40906715398</ele>
        <time>2018-06-09T07:37:29.000Z</time>
      </trkpt>
      <trkpt lat="42.996224" lon="-2.395552">
        <ele>1285.91783753306</ele>
        <time>2018-06-09T07:37:31.000Z</time>
      </trkpt>
      <trkpt lat="42.996234" lon="-2.39559">
        <ele>1285.15485750963</ele>
        <time>2018-06-09T07:37:33.000Z</time>
      </trkpt>
      <trkpt lat="42.996246" lon="-2.395622">
        <ele>1284.81411627469</ele>
        <time>2018-06-09T07:37:35.000Z</time>
      </trkpt>
      <trkpt lat="42.996248" lon="-2.395657">
        <ele>1284.00601599141</ele>
        <time>2018-06-09T07:37:37.000Z</time>
      </trkpt>
      <trkpt lat="42.996252" lon="-2.395695">
        <ele>1283.90002441406</ele>
        <time>2018-06-09T07:37:39.000Z</time>
      </trkpt>
      <trkpt lat="42.996257" lon="-2.395728">
        <ele>1283.00963613914</ele>
        <time>2018-06-09T07:37:41.000Z</time>
      </trkpt>
      <trkpt lat="42.996268" lon="-2.395761">
        <ele>1282.22405163422</ele>
        <time>2018-06-09T07:37:43.000Z</time>
      </trkpt>
      <trkpt lat="42.996271" lon="-2.395787">
        <ele>1282.00391092181</ele>
        <time>2018-06-09T07:37:45.000Z</time>
      </trkpt>
      <trkpt lat="42.996266" lon="-2.395813">
        <ele>1282.09676996621</ele>
        <time>2018-06-09T07:37:48.000Z</time>
      </trkpt>
      <trkpt lat="42.996256" lon="-2.395831">
        <ele>1281.5</ele>
        <time>2018-06-09T07:37:52.000Z</time>
      </trkpt>
      <trkpt lat="42.996254" lon="-2.395859">
        <ele>1281.80474784062</ele>
        <time>2018-06-09T07:38:14.000Z</time>
      </trkpt>
      <trkpt lat="42.996251" lon="-2.395883">
        <ele>1281.11480802679</ele>
        <time>2018-06-09T07:38:17.000Z</time>
      </trkpt>
      <trkpt lat="42.99624" lon="-2.39591">
        <ele>1279.91626974094</ele>
        <time>2018-06-09T07:38:20.000Z</time>
      </trkpt>
      <trkpt lat="42.996237" lon="-2.395938">
        <ele>1279.50360572732</ele>
        <time>2018-06-09T07:38:22.000Z</time>
      </trkpt>
      <trkpt lat="42.996216" lon="-2.395944">
        <ele>1278.5</ele>
        <time>2018-06-09T07:38:30.000Z</time>
      </trkpt>
      <trkpt lat="42.996193" lon="-2.395964">
        <ele>1278.90002441406</ele>
        <time>2018-06-09T07:38:33.000Z</time>
      </trkpt>
      <trkpt lat="42.996181" lon="-2.395983">
        <ele>1278.99970204054</ele>
        <time>2018-06-09T07:38:35.000Z</time>
      </trkpt>
      <trkpt lat="42.996171" lon="-2.396015">
        <ele>1277.99640231432</ele>
        <time>2018-06-09T07:38:37.000Z</time>
      </trkpt>
      <trkpt lat="42.996161" lon="-2.396038">
        <ele>1276.79763495684</ele>
        <time>2018-06-09T07:38:39.000Z</time>
      </trkpt>
      <trkpt lat="42.996149" lon="-2.396057">
        <ele>1275.407222475</ele>
        <time>2018-06-09T07:38:41.000Z</time>
      </trkpt>
      <trkpt lat="42.996147" lon="-2.39608">
        <ele>1275.39642570237</ele>
        <time>2018-06-09T07:38:43.000Z</time>
      </trkpt>
      <trkpt lat="42.99614" lon="-2.396102">
        <ele>1275.09095003709</ele>
        <time>2018-06-09T07:38:46.000Z</time>
      </trkpt>
      <trkpt lat="42.99614" lon="-2.396135">
        <ele>1274.09997558594</ele>
        <time>2018-06-09T07:38:49.000Z</time>
      </trkpt>
      <trkpt lat="42.996132" lon="-2.396169">
        <ele>1273.28802286155</ele>
        <time>2018-06-09T07:38:52.000Z</time>
      </trkpt>
      <trkpt lat="42.996126" lon="-2.396207">
        <ele>1272.98616917636</ele>
        <time>2018-06-09T07:38:54.000Z</time>
      </trkpt>
      <trkpt lat="42.99611" lon="-2.396243">
        <ele>1272.68993412286</ele>
        <time>2018-06-09T07:38:56.000Z</time>
      </trkpt>
      <trkpt lat="42.996092" lon="-2.39628">
        <ele>1272.51041711549</ele>
        <time>2018-06-09T07:38:58.000Z</time>
      </trkpt>
      <trkpt lat="42.99608" lon="-2.396319">
        <ele>1272.09997558594</ele>
        <time>2018-06-09T07:39:00.000Z</time>
      </trkpt>
      <trkpt lat="42.996063" lon="-2.39635">
        <ele>1271.59997558594</ele>
        <time>2018-06-09T07:39:02.000Z</time>
      </trkpt>
      <trkpt lat="42.996043" lon="-2.396377">
        <ele>1271.59346433114</ele>
        <time>2018-06-09T07:39:04.000Z</time>
      </trkpt>
      <trkpt lat="42.996028" lon="-2.396397">
        <ele>1270.46542856776</ele>
        <time>2018-06-09T07:39:06.000Z</time>
      </trkpt>
      <trkpt lat="42.996011" lon="-2.396432">
        <ele>1269.80004882813</ele>
        <time>2018-06-09T07:39:08.000Z</time>
      </trkpt>
      <trkpt lat="42.996011" lon="-2.396459">
        <ele>1269.76494207638</ele>
        <time>2018-06-09T07:39:09.000Z</time>
      </trkpt>
      <trkpt lat="42.996019" lon="-2.396486">
        <ele>1269.27807994254</ele>
        <time>2018-06-09T07:39:10.000Z</time>
      </trkpt>
      <trkpt lat="42.996023" lon="-2.39651">
        <ele>1269</ele>
        <time>2018-06-09T07:39:11.000Z</time>
      </trkpt>
      <trkpt lat="42.996027" lon="-2.396555">
        <ele>1268.97594806685</ele>
        <time>2018-06-09T07:39:13.000Z</time>
      </trkpt>
      <trkpt lat="42.996037" lon="-2.396597">
        <ele>1268.69202921277</ele>
        <time>2018-06-09T07:39:15.000Z</time>
      </trkpt>
      <trkpt lat="42.996052" lon="-2.39664">
        <ele>1268.30847264821</ele>
        <time>2018-06-09T07:39:17.000Z</time>
      </trkpt>
      <trkpt lat="42.996069" lon="-2.396684">
        <ele>1268.28224262969</ele>
        <time>2018-06-09T07:39:19.000Z</time>
      </trkpt>
      <trkpt lat="42.996077" lon="-2.396706">
        <ele>1268.06430282175</ele>
        <time>2018-06-09T07:39:20.000Z</time>
      </trkpt>
      <trkpt lat="42.996089" lon="-2.396744">
        <ele>1267.80004882813</ele>
        <time>2018-06-09T07:39:22.000Z</time>
      </trkpt>
      <trkpt lat="42.996106" lon="-2.396789">
        <ele>1267.79103135633</ele>
        <time>2018-06-09T07:39:24.000Z</time>
      </trkpt>
      <trkpt lat="42.996124" lon="-2.396832">
        <ele>1267.48138499603</ele>
        <time>2018-06-09T07:39:26.000Z</time>
      </trkpt>
      <trkpt lat="42.996146" lon="-2.396866">
        <ele>1267.09997558594</ele>
        <time>2018-06-09T07:39:28.000Z</time>
      </trkpt>
      <trkpt lat="42.996167" lon="-2.396898">
        <ele>1266.90002441406</ele>
        <time>2018-06-09T07:39:30.000Z</time>
      </trkpt>
      <trkpt lat="42.996194" lon="-2.396931">
        <ele>1266.61604391519</ele>
        <time>2018-06-09T07:39:32.000Z</time>
      </trkpt>
      <trkpt lat="42.996214" lon="-2.396962">
        <ele>1265.19995117188</ele>
        <time>2018-06-09T07:39:34.000Z</time>
      </trkpt>
      <trkpt lat="42.996234" lon="-2.397">
        <ele>1264.90002441406</ele>
        <time>2018-06-09T07:39:36.000Z</time>
      </trkpt>
      <trkpt lat="42.996245" lon="-2.397019">
        <ele>1264.84747274648</ele>
        <time>2018-06-09T07:39:37.000Z</time>
      </trkpt>
      <trkpt lat="42.996268" lon="-2.397058">
        <ele>1264.27895695533</ele>
        <time>2018-06-09T07:39:39.000Z</time>
      </trkpt>
      <trkpt lat="42.996279" lon="-2.397079">
        <ele>1264.09997558594</ele>
        <time>2018-06-09T07:39:40.000Z</time>
      </trkpt>
      <trkpt lat="42.99629" lon="-2.397101">
        <ele>1264.03805349459</ele>
        <time>2018-06-09T07:39:41.000Z</time>
      </trkpt>
      <trkpt lat="42.996302" lon="-2.397119">
        <ele>1263.34234499725</ele>
        <time>2018-06-09T07:39:42.000Z</time>
      </trkpt>
      <trkpt lat="42.996318" lon="-2.397156">
        <ele>1261.77792899901</ele>
        <time>2018-06-09T07:39:44.000Z</time>
      </trkpt>
      <trkpt lat="42.996336" lon="-2.397202">
        <ele>1261.68943289241</ele>
        <time>2018-06-09T07:39:46.000Z</time>
      </trkpt>
      <trkpt lat="42.996352" lon="-2.397239">
        <ele>1261.24430853059</ele>
        <time>2018-06-09T07:39:48.000Z</time>
      </trkpt>
      <trkpt lat="42.996378" lon="-2.397275">
        <ele>1259.80004882813</ele>
        <time>2018-06-09T07:39:50.000Z</time>
      </trkpt>
      <trkpt lat="42.996391" lon="-2.397295">
        <ele>1259.71550989328</ele>
        <time>2018-06-09T07:39:51.000Z</time>
      </trkpt>
      <trkpt lat="42.996413" lon="-2.397327">
        <ele>1258.90002441406</ele>
        <time>2018-06-09T07:39:53.000Z</time>
      </trkpt>
      <trkpt lat="42.996439" lon="-2.397359">
        <ele>1258.65424662118</ele>
        <time>2018-06-09T07:39:55.000Z</time>
      </trkpt>
      <trkpt lat="42.996448" lon="-2.397378">
        <ele>1257.57719677917</ele>
        <time>2018-06-09T07:39:56.000Z</time>
      </trkpt>
      <trkpt lat="42.996469" lon="-2.39741">
        <ele>1256.80004882813</ele>
        <time>2018-06-09T07:39:58.000Z</time>
      </trkpt>
      <trkpt lat="42.99649" lon="-2.397438">
        <ele>1256.48574622299</ele>
        <time>2018-06-09T07:40:00.000Z</time>
      </trkpt>
      <trkpt lat="42.996512" lon="-2.397469">
        <ele>1255.89458409542</ele>
        <time>2018-06-09T07:40:02.000Z</time>
      </trkpt>
      <trkpt lat="42.996527" lon="-2.397487">
        <ele>1255.23813648957</ele>
        <time>2018-06-09T07:40:03.000Z</time>
      </trkpt>
      <trkpt lat="42.996541" lon="-2.397506">
        <ele>1254.86811687899</ele>
        <time>2018-06-09T07:40:04.000Z</time>
      </trkpt>
      <trkpt lat="42.996553" lon="-2.397523">
        <ele>1254.48830796495</ele>
        <time>2018-06-09T07:40:05.000Z</time>
      </trkpt>
      <trkpt lat="42.996573" lon="-2.397558">
        <ele>1253.19995117188</ele>
        <time>2018-06-09T07:40:07.000Z</time>
      </trkpt>
      <trkpt lat="42.996592" lon="-2.397595">
        <ele>1253.09997558594</ele>
        <time>2018-06-09T07:40:09.000Z</time>
      </trkpt>
      <trkpt lat="42.996605" lon="-2.39763">
        <ele>1252.6664251166</ele>
        <time>2018-06-09T07:40:11.000Z</time>
      </trkpt>
      <trkpt lat="42.996618" lon="-2.39766">
        <ele>1252.5</ele>
        <time>2018-06-09T07:40:13.000Z</time>
      </trkpt>
      <trkpt lat="42.996636" lon="-2.397691">
        <ele>1252.20565246713</ele>
        <time>2018-06-09T07:40:15.000Z</time>
      </trkpt>
      <trkpt lat="42.996656" lon="-2.397725">
        <ele>1250.92784897414</ele>
        <time>2018-06-09T07:40:17.000Z</time>
      </trkpt>
      <trkpt lat="42.996681" lon="-2.397753">
        <ele>1250.36421226406</ele>
        <time>2018-06-09T07:40:19.000Z</time>
      </trkpt>
      <trkpt lat="42.9967" lon="-2.39777">
        <ele>1250.07428526884</ele>
        <time>2018-06-09T07:40:20.000Z</time>
      </trkpt>
      <trkpt lat="42.996717" lon="-2.397785">
        <ele>1249.48184061653</ele>
        <time>2018-06-09T07:40:21.000Z</time>
      </trkpt>
      <trkpt lat="42.996736" lon="-2.397799">
        <ele>1249.40002441406</ele>
        <time>2018-06-09T07:40:22.000Z</time>
      </trkpt>
      <trkpt lat="42.996752" lon="-2.397813">
        <ele>1249.40002441406</ele>
        <time>2018-06-09T07:40:23.000Z</time>
      </trkpt>
      <trkpt lat="42.996768" lon="-2.397824">
        <ele>1249.28715427737</ele>
        <time>2018-06-09T07:40:24.000Z</time>
      </trkpt>
      <trkpt lat="42.996802" lon="-2.397841">
        <ele>1248.81874378281</ele>
        <time>2018-06-09T07:40:26.000Z</time>
      </trkpt>
      <trkpt lat="42.996818" lon="-2.397852">
        <ele>1248.88127305529</ele>
        <time>2018-06-09T07:40:27.000Z</time>
      </trkpt>
      <trkpt lat="42.996836" lon="-2.397862">
        <ele>1248.80004882813</ele>
        <time>2018-06-09T07:40:28.000Z</time>
      </trkpt>
      <trkpt lat="42.996864" lon="-2.397883">
        <ele>1248.24281000165</ele>
        <time>2018-06-09T07:40:30.000Z</time>
      </trkpt>
      <trkpt lat="42.996881" lon="-2.397897">
        <ele>1248.01941432701</ele>
        <time>2018-06-09T07:40:31.000Z</time>
      </trkpt>
      <trkpt lat="42.996896" lon="-2.397908">
        <ele>1247.96293944559</ele>
        <time>2018-06-09T07:40:32.000Z</time>
      </trkpt>
      <trkpt lat="42.996925" lon="-2.397932">
        <ele>1247.17993607161</ele>
        <time>2018-06-09T07:40:34.000Z</time>
      </trkpt>
      <trkpt lat="42.996943" lon="-2.39794">
        <ele>1247.01932873302</ele>
        <time>2018-06-09T07:40:35.000Z</time>
      </trkpt>
      <trkpt lat="42.996961" lon="-2.397945">
        <ele>1246.67961667866</ele>
        <time>2018-06-09T07:40:36.000Z</time>
      </trkpt>
      <trkpt lat="42.996995" lon="-2.397951">
        <ele>1246.64038974063</ele>
        <time>2018-06-09T07:40:38.000Z</time>
      </trkpt>
      <trkpt lat="42.997018" lon="-2.397974">
        <ele>1246.6401449519</ele>
        <time>2018-06-09T07:40:40.000Z</time>
      </trkpt>
      <trkpt lat="42.997037" lon="-2.398006">
        <ele>1246.30004882813</ele>
        <time>2018-06-09T07:40:42.000Z</time>
      </trkpt>
      <trkpt lat="42.997052" lon="-2.398044">
        <ele>1245.93359082031</ele>
        <time>2018-06-09T07:40:44.000Z</time>
      </trkpt>
      <trkpt lat="42.997066" lon="-2.39808">
        <ele>1245.25762199657</ele>
        <time>2018-06-09T07:40:46.000Z</time>
      </trkpt>
      <trkpt lat="42.997072" lon="-2.398112">
        <ele>1244.55661295983</ele>
        <time>2018-06-09T07:40:48.000Z</time>
      </trkpt>
      <trkpt lat="42.997076" lon="-2.398144">
        <ele>1244.2102137545</ele>
        <time>2018-06-09T07:40:50.000Z</time>
      </trkpt>
      <trkpt lat="42.997082" lon="-2.398175">
        <ele>1243.85336108008</ele>
        <time>2018-06-09T07:40:52.000Z</time>
      </trkpt>
      <trkpt lat="42.997092" lon="-2.398213">
        <ele>1243.59997558594</ele>
        <time>2018-06-09T07:40:54.000Z</time>
      </trkpt>
      <trkpt lat="42.997099" lon="-2.398236">
        <ele>1243.33655366004</ele>
        <time>2018-06-09T07:40:55.000Z</time>
      </trkpt>
      <trkpt lat="42.997104" lon="-2.39828">
        <ele>1242.42456792097</ele>
        <time>2018-06-09T07:40:57.000Z</time>
      </trkpt>
      <trkpt lat="42.997118" lon="-2.398318">
        <ele>1242.14956251037</ele>
        <time>2018-06-09T07:40:59.000Z</time>
      </trkpt>
      <trkpt lat="42.997131" lon="-2.398354">
        <ele>1241.32208860713</ele>
        <time>2018-06-09T07:41:01.000Z</time>
      </trkpt>
      <trkpt lat="42.997149" lon="-2.398389">
        <ele>1240.9957585776</ele>
        <time>2018-06-09T07:41:03.000Z</time>
      </trkpt>
      <trkpt lat="42.997151" lon="-2.398419">
        <ele>1240.59997558594</ele>
        <time>2018-06-09T07:41:06.000Z</time>
      </trkpt>
      <trkpt lat="42.997157" lon="-2.398456">
        <ele>1240.59997558594</ele>
        <time>2018-06-09T07:41:08.000Z</time>
      </trkpt>
      <trkpt lat="42.997167" lon="-2.39848">
        <ele>1240.57310849754</ele>
        <time>2018-06-09T07:41:09.000Z</time>
      </trkpt>
      <trkpt lat="42.997183" lon="-2.39852">
        <ele>1240.26425250471</ele>
        <time>2018-06-09T07:41:11.000Z</time>
      </trkpt>
      <trkpt lat="42.997194" lon="-2.398558">
        <ele>1239.26804655871</ele>
        <time>2018-06-09T07:41:13.000Z</time>
      </trkpt>
      <trkpt lat="42.997209" lon="-2.398595">
        <ele>1238.24477214457</ele>
        <time>2018-06-09T07:41:15.000Z</time>
      </trkpt>
      <trkpt lat="42.997232" lon="-2.398625">
        <ele>1238.09997558594</ele>
        <time>2018-06-09T07:41:17.000Z</time>
      </trkpt>
      <trkpt lat="42.997251" lon="-2.398663">
        <ele>1238.07273680134</ele>
        <time>2018-06-09T07:41:19.000Z</time>
      </trkpt>
      <trkpt lat="42.997258" lon="-2.398688">
        <ele>1237.31901027031</ele>
        <time>2018-06-09T07:41:21.000Z</time>
      </trkpt>
      <trkpt lat="42.997277" lon="-2.398719">
        <ele>1236.99073267281</ele>
        <time>2018-06-09T07:41:23.000Z</time>
      </trkpt>
      <trkpt lat="42.997298" lon="-2.398752">
        <ele>1236.59997558594</ele>
        <time>2018-06-09T07:41:25.000Z</time>
      </trkpt>
      <trkpt lat="42.99732" lon="-2.39879">
        <ele>1236.40002441406</ele>
        <time>2018-06-09T07:41:27.000Z</time>
      </trkpt>
      <trkpt lat="42.997337" lon="-2.39882">
        <ele>1236.19995117188</ele>
        <time>2018-06-09T07:41:29.000Z</time>
      </trkpt>
      <trkpt lat="42.997356" lon="-2.398849">
        <ele>1235.11302108898</ele>
        <time>2018-06-09T07:41:31.000Z</time>
      </trkpt>
      <trkpt lat="42.997374" lon="-2.398877">
        <ele>1234.69995117188</ele>
        <time>2018-06-09T07:41:33.000Z</time>
      </trkpt>
      <trkpt lat="42.997394" lon="-2.398891">
        <ele>1234.54221664887</ele>
        <time>2018-06-09T07:41:35.000Z</time>
      </trkpt>
      <trkpt lat="42.997407" lon="-2.398908">
        <ele>1234.40002441406</ele>
        <time>2018-06-09T07:41:37.000Z</time>
      </trkpt>
      <trkpt lat="42.997424" lon="-2.39892">
        <ele>1234.42934701631</ele>
        <time>2018-06-09T07:41:39.000Z</time>
      </trkpt>
      <trkpt lat="42.997439" lon="-2.398937">
        <ele>1234.5</ele>
        <time>2018-06-09T07:41:42.000Z</time>
      </trkpt>
      <trkpt lat="42.997437" lon="-2.398957">
        <ele>1233.65075231284</ele>
        <time>2018-06-09T07:41:46.000Z</time>
      </trkpt>
      <trkpt lat="42.997414" lon="-2.398941">
        <ele>1233.30004882813</ele>
        <time>2018-06-09T07:41:48.000Z</time>
      </trkpt>
      <trkpt lat="42.99739" lon="-2.398932">
        <ele>1233.23956568238</ele>
        <time>2018-06-09T07:41:50.000Z</time>
      </trkpt>
      <trkpt lat="42.997369" lon="-2.398928">
        <ele>1233.5305843916</ele>
        <time>2018-06-09T07:41:52.000Z</time>
      </trkpt>
      <trkpt lat="42.997339" lon="-2.398932">
        <ele>1233.5689898415</ele>
        <time>2018-06-09T07:41:54.000Z</time>
      </trkpt>
      <trkpt lat="42.997309" lon="-2.398956">
        <ele>1233.17524121094</ele>
        <time>2018-06-09T07:41:56.000Z</time>
      </trkpt>
      <trkpt lat="42.997287" lon="-2.398984">
        <ele>1232.86843757115</ele>
        <time>2018-06-09T07:41:58.000Z</time>
      </trkpt>
      <trkpt lat="42.997281" lon="-2.399008">
        <ele>1232.31968068252</ele>
        <time>2018-06-09T07:41:59.000Z</time>
      </trkpt>
      <trkpt lat="42.997283" lon="-2.399033">
        <ele>1231.26738616777</ele>
        <time>2018-06-09T07:42:00.000Z</time>
      </trkpt>
      <trkpt lat="42.997296" lon="-2.399066">
        <ele>1231</ele>
        <time>2018-06-09T07:42:02.000Z</time>
      </trkpt>
      <trkpt lat="42.997318" lon="-2.399094">
        <ele>1230.72688757635</ele>
        <time>2018-06-09T07:42:05.000Z</time>
      </trkpt>
      <trkpt lat="42.997343" lon="-2.399111">
        <ele>1230.19995117188</ele>
        <time>2018-06-09T07:42:07.000Z</time>
      </trkpt>
      <trkpt lat="42.99737" lon="-2.399127">
        <ele>1230.05824554298</ele>
        <time>2018-06-09T07:42:09.000Z</time>
      </trkpt>
      <trkpt lat="42.997389" lon="-2.399153">
        <ele>1229.29378946289</ele>
        <time>2018-06-09T07:42:11.000Z</time>
      </trkpt>
      <trkpt lat="42.9974" lon="-2.399195">
        <ele>1228.61238923572</ele>
        <time>2018-06-09T07:42:13.000Z</time>
      </trkpt>
      <trkpt lat="42.997413" lon="-2.399234">
        <ele>1227.3676153789</ele>
        <time>2018-06-09T07:42:15.000Z</time>
      </trkpt>
      <trkpt lat="42.997426" lon="-2.399278">
        <ele>1225.92529732432</ele>
        <time>2018-06-09T07:42:17.000Z</time>
      </trkpt>
      <trkpt lat="42.997442" lon="-2.399319">
        <ele>1224.92444019768</ele>
        <time>2018-06-09T07:42:19.000Z</time>
      </trkpt>
      <trkpt lat="42.997446" lon="-2.399356">
        <ele>1224.72462153594</ele>
        <time>2018-06-09T07:42:21.000Z</time>
      </trkpt>
      <trkpt lat="42.997449" lon="-2.399396">
        <ele>1223.86209579345</ele>
        <time>2018-06-09T07:42:23.000Z</time>
      </trkpt>
      <trkpt lat="42.997453" lon="-2.399421">
        <ele>1223.80004882813</ele>
        <time>2018-06-09T07:42:24.000Z</time>
      </trkpt>
      <trkpt lat="42.997467" lon="-2.399455">
        <ele>1223.4487676375</ele>
        <time>2018-06-09T07:42:26.000Z</time>
      </trkpt>
      <trkpt lat="42.997479" lon="-2.399475">
        <ele>1222.90002441406</ele>
        <time>2018-06-09T07:42:29.000Z</time>
      </trkpt>
      <trkpt lat="42.997484" lon="-2.399506">
        <ele>1223.19995117188</ele>
        <time>2018-06-09T07:42:33.000Z</time>
      </trkpt>
      <trkpt lat="42.997496" lon="-2.399527">
        <ele>1224.59312881756</ele>
        <time>2018-06-09T07:42:38.000Z</time>
      </trkpt>
      <trkpt lat="42.99752" lon="-2.399533">
        <ele>1225.23906768598</ele>
        <time>2018-06-09T07:42:41.000Z</time>
      </trkpt>
      <trkpt lat="42.997543" lon="-2.399539">
        <ele>1225.69995117188</ele>
        <time>2018-06-09T07:42:44.000Z</time>
      </trkpt>
      <trkpt lat="42.997554" lon="-2.399561">
        <ele>1226.69995117188</ele>
        <time>2018-06-09T07:42:48.000Z</time>
      </trkpt>
      <trkpt lat="42.997573" lon="-2.399577">
        <ele>1227.09997558594</ele>
        <time>2018-06-09T07:42:51.000Z</time>
      </trkpt>
      <trkpt lat="42.997595" lon="-2.399591">
        <ele>1227.69009604658</ele>
        <time>2018-06-09T07:42:55.000Z</time>
      </trkpt>
      <trkpt lat="42.997608" lon="-2.39961">
        <ele>1228.27259437508</ele>
        <time>2018-06-09T07:42:59.000Z</time>
      </trkpt>
      <trkpt lat="42.997598" lon="-2.399638">
        <ele>1227.97635791336</ele>
        <time>2018-06-09T07:43:04.000Z</time>
      </trkpt>
      <trkpt lat="42.997596" lon="-2.399668">
        <ele>1227.75615568296</ele>
        <time>2018-06-09T07:43:06.000Z</time>
      </trkpt>
      <trkpt lat="42.997609" lon="-2.399694">
        <ele>1227.69995117188</ele>
        <time>2018-06-09T07:43:08.000Z</time>
      </trkpt>
      <trkpt lat="42.997629" lon="-2.399713">
        <ele>1227.11099394208</ele>
        <time>2018-06-09T07:43:10.000Z</time>
      </trkpt>
      <trkpt lat="42.997644" lon="-2.39973">
        <ele>1226.6751737908</ele>
        <time>2018-06-09T07:43:12.000Z</time>
      </trkpt>
      <trkpt lat="42.997661" lon="-2.399741">
        <ele>1226.40002441406</ele>
        <time>2018-06-09T07:43:14.000Z</time>
      </trkpt>
      <trkpt lat="42.997688" lon="-2.399746">
        <ele>1226.34598300287</ele>
        <time>2018-06-09T07:43:16.000Z</time>
      </trkpt>
      <trkpt lat="42.997716" lon="-2.399752">
        <ele>1226.69259500652</ele>
        <time>2018-06-09T07:43:18.000Z</time>
      </trkpt>
      <trkpt lat="42.997737" lon="-2.399758">
        <ele>1227.19338355312</ele>
        <time>2018-06-09T07:43:20.000Z</time>
      </trkpt>
      <trkpt lat="42.997761" lon="-2.399763">
        <ele>1227.44175573799</ele>
        <time>2018-06-09T07:43:22.000Z</time>
      </trkpt>
      <trkpt lat="42.997782" lon="-2.399766">
        <ele>1227.69995117188</ele>
        <time>2018-06-09T07:43:24.000Z</time>
      </trkpt>
      <trkpt lat="42.997807" lon="-2.39977">
        <ele>1228.34868313667</ele>
        <time>2018-06-09T07:43:27.000Z</time>
      </trkpt>
      <trkpt lat="42.997833" lon="-2.399788">
        <ele>1228.59997558594</ele>
        <time>2018-06-09T07:43:30.000Z</time>
      </trkpt>
      <trkpt lat="42.997854" lon="-2.399793">
        <ele>1228.95020152494</ele>
        <time>2018-06-09T07:43:32.000Z</time>
      </trkpt>
      <trkpt lat="42.997871" lon="-2.399792">
        <ele>1229.85583061128</ele>
        <time>2018-06-09T07:43:34.000Z</time>
      </trkpt>
      <trkpt lat="42.997897" lon="-2.399797">
        <ele>1230.9062834925</ele>
        <time>2018-06-09T07:43:37.000Z</time>
      </trkpt>
      <trkpt lat="42.997922" lon="-2.399803">
        <ele>1231.30381241571</ele>
        <time>2018-06-09T07:43:39.000Z</time>
      </trkpt>
      <trkpt lat="42.997944" lon="-2.399804">
        <ele>1231.90585762137</ele>
        <time>2018-06-09T07:43:41.000Z</time>
      </trkpt>
      <trkpt lat="42.997967" lon="-2.399803">
        <ele>1232</ele>
        <time>2018-06-09T07:43:43.000Z</time>
      </trkpt>
      <trkpt lat="42.997992" lon="-2.399814">
        <ele>1232.15412464286</ele>
        <time>2018-06-09T07:43:45.000Z</time>
      </trkpt>
      <trkpt lat="42.998014" lon="-2.399822">
        <ele>1232.25497951523</ele>
        <time>2018-06-09T07:43:47.000Z</time>
      </trkpt>
      <trkpt lat="42.998039" lon="-2.399828">
        <ele>1233.26640272063</ele>
        <time>2018-06-09T07:43:49.000Z</time>
      </trkpt>
      <trkpt lat="42.998064" lon="-2.399837">
        <ele>1233.48797892601</ele>
        <time>2018-06-09T07:43:51.000Z</time>
      </trkpt>
      <trkpt lat="42.998084" lon="-2.399837">
        <ele>1233.5</ele>
        <time>2018-06-09T07:43:53.000Z</time>
      </trkpt>
      <trkpt lat="42.998102" lon="-2.399838">
        <ele>1234</ele>
        <time>2018-06-09T07:43:55.000Z</time>
      </trkpt>
      <trkpt lat="42.998119" lon="-2.399846">
        <ele>1233.90002441406</ele>
        <time>2018-06-09T07:43:57.000Z</time>
      </trkpt>
      <trkpt lat="42.998137" lon="-2.399855">
        <ele>1234.358426545</ele>
        <time>2018-06-09T07:43:59.000Z</time>
      </trkpt>
      <trkpt lat="42.998152" lon="-2.399868">
        <ele>1235.05326839383</ele>
        <time>2018-06-09T07:44:01.000Z</time>
      </trkpt>
      <trkpt lat="42.998154" lon="-2.399895">
        <ele>1235.55652011875</ele>
        <time>2018-06-09T07:44:04.000Z</time>
      </trkpt>
      <trkpt lat="42.998152" lon="-2.39987">
        <ele>1235.80004882813</ele>
        <time>2018-06-09T07:44:17.000Z</time>
      </trkpt>
      <trkpt lat="42.998221" lon="-2.400046">
        <ele>1234.5</ele>
        <time>2018-06-09T07:45:08.000Z</time>
      </trkpt>
      <trkpt lat="42.998175" lon="-2.399912">
        <ele>1235.30004882813</ele>
        <time>2018-06-09T07:45:17.000Z</time>
      </trkpt>
      <trkpt lat="42.998181" lon="-2.399885">
        <ele>1235.30004882813</ele>
        <time>2018-06-09T07:45:19.000Z</time>
      </trkpt>
      <trkpt lat="42.998199" lon="-2.399866">
        <ele>1235.09997558594</ele>
        <time>2018-06-09T07:45:23.000Z</time>
      </trkpt>
      <trkpt lat="42.998214" lon="-2.399877">
        <ele>1236</ele>
        <time>2018-06-09T07:45:25.000Z</time>
      </trkpt>
      <trkpt lat="42.998236" lon="-2.399898">
        <ele>1236</ele>
        <time>2018-06-09T07:45:27.000Z</time>
      </trkpt>
      <trkpt lat="42.998252" lon="-2.399912">
        <ele>1236.50450259696</ele>
        <time>2018-06-09T07:45:29.000Z</time>
      </trkpt>
      <trkpt lat="42.998266" lon="-2.399936">
        <ele>1236.69995117188</ele>
        <time>2018-06-09T07:45:31.000Z</time>
      </trkpt>
      <trkpt lat="42.998284" lon="-2.399964">
        <ele>1237.06259653897</ele>
        <time>2018-06-09T07:45:33.000Z</time>
      </trkpt>
      <trkpt lat="42.998299" lon="-2.399989">
        <ele>1237.13750405905</ele>
        <time>2018-06-09T07:45:35.000Z</time>
      </trkpt>
      <trkpt lat="42.998312" lon="-2.400011">
        <ele>1237.19995117188</ele>
        <time>2018-06-09T07:45:37.000Z</time>
      </trkpt>
      <trkpt lat="42.998321" lon="-2.400036">
        <ele>1237.66888961654</ele>
        <time>2018-06-09T07:45:39.000Z</time>
      </trkpt>
      <trkpt lat="42.998329" lon="-2.400059">
        <ele>1237.96871390909</ele>
        <time>2018-06-09T07:45:41.000Z</time>
      </trkpt>
      <trkpt lat="42.99834" lon="-2.400078">
        <ele>1238.61707108569</ele>
        <time>2018-06-09T07:45:43.000Z</time>
      </trkpt>
      <trkpt lat="42.998351" lon="-2.400092">
        <ele>1240.04725767026</ele>
        <time>2018-06-09T07:45:50.000Z</time>
      </trkpt>
      <trkpt lat="42.998361" lon="-2.400129">
        <ele>1240.30004882813</ele>
        <time>2018-06-09T07:45:54.000Z</time>
      </trkpt>
      <trkpt lat="42.99837" lon="-2.400159">
        <ele>1240.30004882813</ele>
        <time>2018-06-09T07:45:56.000Z</time>
      </trkpt>
      <trkpt lat="42.998379" lon="-2.400192">
        <ele>1240.16019859219</ele>
        <time>2018-06-09T07:45:58.000Z</time>
      </trkpt>
      <trkpt lat="42.998386" lon="-2.40022">
        <ele>1240.03001246224</ele>
        <time>2018-06-09T07:46:00.000Z</time>
      </trkpt>
      <trkpt lat="42.998395" lon="-2.400249">
        <ele>1239.69995117188</ele>
        <time>2018-06-09T07:46:02.000Z</time>
      </trkpt>
      <trkpt lat="42.9984" lon="-2.400273">
        <ele>1239.97880399968</ele>
        <time>2018-06-09T07:46:04.000Z</time>
      </trkpt>
      <trkpt lat="42.998403" lon="-2.40028">
        <ele>1242.22604103501</ele>
        <time>2018-06-09T07:46:10.000Z</time>
      </trkpt>
      <trkpt lat="42.998422" lon="-2.40029">
        <ele>1242.56942218315</ele>
        <time>2018-06-09T07:46:23.000Z</time>
      </trkpt>
      <trkpt lat="42.998436" lon="-2.400318">
        <ele>1242.59997558594</ele>
        <time>2018-06-09T07:46:25.000Z</time>
      </trkpt>
      <trkpt lat="42.998445" lon="-2.400347">
        <ele>1242.17879080469</ele>
        <time>2018-06-09T07:46:27.000Z</time>
      </trkpt>
      <trkpt lat="42.998451" lon="-2.400385">
        <ele>1241.24987741923</ele>
        <time>2018-06-09T07:46:29.000Z</time>
      </trkpt>
      <trkpt lat="42.998459" lon="-2.400419">
        <ele>1240.6599970464</ele>
        <time>2018-06-09T07:46:31.000Z</time>
      </trkpt>
      <trkpt lat="42.998465" lon="-2.400453">
        <ele>1240.30004882813</ele>
        <time>2018-06-09T07:46:33.000Z</time>
      </trkpt>
      <trkpt lat="42.998467" lon="-2.400486">
        <ele>1240.6702289081</ele>
        <time>2018-06-09T07:46:35.000Z</time>
      </trkpt>
      <trkpt lat="42.998467" lon="-2.400518">
        <ele>1240.72968001563</ele>
        <time>2018-06-09T07:46:37.000Z</time>
      </trkpt>
      <trkpt lat="42.998465" lon="-2.40055">
        <ele>1240.69995117188</ele>
        <time>2018-06-09T07:46:39.000Z</time>
      </trkpt>
      <trkpt lat="42.998467" lon="-2.400584">
        <ele>1240.5143828125</ele>
        <time>2018-06-09T07:46:41.000Z</time>
      </trkpt>
      <trkpt lat="42.998474" lon="-2.400615">
        <ele>1240.09997558594</ele>
        <time>2018-06-09T07:46:43.000Z</time>
      </trkpt>
      <trkpt lat="42.998481" lon="-2.400642">
        <ele>1240.30004882813</ele>
        <time>2018-06-09T07:46:45.000Z</time>
      </trkpt>
      <trkpt lat="42.998496" lon="-2.400664">
        <ele>1240.22860803288</ele>
        <time>2018-06-09T07:46:47.000Z</time>
      </trkpt>
      <trkpt lat="42.998501" lon="-2.400638">
        <ele>1240.30004882813</ele>
        <time>2018-06-09T07:47:33.000Z</time>
      </trkpt>
      <trkpt lat="42.998502" lon="-2.400631">
        <ele>1238.40002441406</ele>
        <time>2018-06-09T07:48:05.000Z</time>
      </trkpt>
      <trkpt lat="42.998498" lon="-2.400665">
        <ele>1239.08894010241</ele>
        <time>2018-06-09T07:48:16.000Z</time>
      </trkpt>
      <trkpt lat="42.998498" lon="-2.400699">
        <ele>1239</ele>
        <time>2018-06-09T07:48:19.000Z</time>
      </trkpt>
      <trkpt lat="42.998507" lon="-2.40072">
        <ele>1239.69623709121</ele>
        <time>2018-06-09T07:48:26.000Z</time>
      </trkpt>
      <trkpt lat="42.998517" lon="-2.400743">
        <ele>1239.52005518648</ele>
        <time>2018-06-09T07:48:32.000Z</time>
      </trkpt>
      <trkpt lat="42.998502" lon="-2.400729">
        <ele>1239.31851833216</ele>
        <time>2018-06-09T07:48:43.000Z</time>
      </trkpt>
      <trkpt lat="42.998508" lon="-2.400761">
        <ele>1239</ele>
        <time>2018-06-09T07:49:13.000Z</time>
      </trkpt>
      <trkpt lat="42.99851" lon="-2.400789">
        <ele>1238.90002441406</ele>
        <time>2018-06-09T07:49:15.000Z</time>
      </trkpt>
      <trkpt lat="42.998504" lon="-2.400825">
        <ele>1238.90002441406</ele>
        <time>2018-06-09T07:49:17.000Z</time>
      </trkpt>
      <trkpt lat="42.998502" lon="-2.400856">
        <ele>1238.90002441406</ele>
        <time>2018-06-09T07:49:19.000Z</time>
      </trkpt>
      <trkpt lat="42.998497" lon="-2.400888">
        <ele>1238.90002441406</ele>
        <time>2018-06-09T07:49:21.000Z</time>
      </trkpt>
      <trkpt lat="42.998498" lon="-2.400919">
        <ele>1235.40454388049</ele>
        <time>2018-06-09T07:49:23.000Z</time>
      </trkpt>
      <trkpt lat="42.998501" lon="-2.400946">
        <ele>1234.97152099343</ele>
        <time>2018-06-09T07:49:27.000Z</time>
      </trkpt>
      <trkpt lat="42.9985" lon="-2.400966">
        <ele>1236.12938047024</ele>
        <time>2018-06-09T07:50:00.000Z</time>
      </trkpt>
      <trkpt lat="42.998508" lon="-2.400988">
        <ele>1235.80004882813</ele>
        <time>2018-06-09T07:50:12.000Z</time>
      </trkpt>
      <trkpt lat="42.998511" lon="-2.401019">
        <ele>1235.33427043707</ele>
        <time>2018-06-09T07:50:52.000Z</time>
      </trkpt>
      <trkpt lat="42.998515" lon="-2.401048">
        <ele>1235.19995117188</ele>
        <time>2018-06-09T07:50:55.000Z</time>
      </trkpt>
      <trkpt lat="42.998512" lon="-2.401083">
        <ele>1234.90002441406</ele>
        <time>2018-06-09T07:50:59.000Z</time>
      </trkpt>
      <trkpt lat="42.998511" lon="-2.401109">
        <ele>1234.24800696328</ele>
        <time>2018-06-09T07:51:10.000Z</time>
      </trkpt>
      <trkpt lat="42.99851" lon="-2.401138">
        <ele>1233.59997558594</ele>
        <time>2018-06-09T07:51:19.000Z</time>
      </trkpt>
      <trkpt lat="42.998506" lon="-2.401166">
        <ele>1233.59997558594</ele>
        <time>2018-06-09T07:51:21.000Z</time>
      </trkpt>
      <trkpt lat="42.998497" lon="-2.401197">
        <ele>1233.59997558594</ele>
        <time>2018-06-09T07:51:23.000Z</time>
      </trkpt>
      <trkpt lat="42.998482" lon="-2.401226">
        <ele>1233.59997558594</ele>
        <time>2018-06-09T07:51:25.000Z</time>
      </trkpt>
      <trkpt lat="42.99847" lon="-2.401244">
        <ele>1232.49243213126</ele>
        <time>2018-06-09T07:51:26.000Z</time>
      </trkpt>
      <trkpt lat="42.998458" lon="-2.40126">
        <ele>1231.44633773782</ele>
        <time>2018-06-09T07:51:27.000Z</time>
      </trkpt>
      <trkpt lat="42.998445" lon="-2.401278">
        <ele>1231.30004882813</ele>
        <time>2018-06-09T07:51:28.000Z</time>
      </trkpt>
      <trkpt lat="42.99842" lon="-2.40131">
        <ele>1230.95796946173</ele>
        <time>2018-06-09T07:51:30.000Z</time>
      </trkpt>
      <trkpt lat="42.998392" lon="-2.401333">
        <ele>1230.4553369512</ele>
        <time>2018-06-09T07:51:32.000Z</time>
      </trkpt>
      <trkpt lat="42.998364" lon="-2.401357">
        <ele>1229.41423891645</ele>
        <time>2018-06-09T07:51:34.000Z</time>
      </trkpt>
      <trkpt lat="42.998356" lon="-2.401379">
        <ele>1228.9500793608</ele>
        <time>2018-06-09T07:51:35.000Z</time>
      </trkpt>
      <trkpt lat="42.998362" lon="-2.401425">
        <ele>1228.46158426338</ele>
        <time>2018-06-09T07:51:37.000Z</time>
      </trkpt>
      <trkpt lat="42.998369" lon="-2.401449">
        <ele>1228.13555994493</ele>
        <time>2018-06-09T07:51:38.000Z</time>
      </trkpt>
      <trkpt lat="42.998371" lon="-2.401475">
        <ele>1227.39444274531</ele>
        <time>2018-06-09T07:51:39.000Z</time>
      </trkpt>
      <trkpt lat="42.998365" lon="-2.401515">
        <ele>1227.12225075452</ele>
        <time>2018-06-09T07:51:41.000Z</time>
      </trkpt>
      <trkpt lat="42.998359" lon="-2.401557">
        <ele>1226.25957102079</ele>
        <time>2018-06-09T07:51:43.000Z</time>
      </trkpt>
      <trkpt lat="42.998365" lon="-2.401585">
        <ele>1225.84693294007</ele>
        <time>2018-06-09T07:51:44.000Z</time>
      </trkpt>
      <trkpt lat="42.998368" lon="-2.401609">
        <ele>1225.00849274898</ele>
        <time>2018-06-09T07:51:45.000Z</time>
      </trkpt>
      <trkpt lat="42.998364" lon="-2.401629">
        <ele>1223.84621024213</ele>
        <time>2018-06-09T07:51:46.000Z</time>
      </trkpt>
      <trkpt lat="42.998352" lon="-2.401658">
        <ele>1221.02600465048</ele>
        <time>2018-06-09T07:51:48.000Z</time>
      </trkpt>
      <trkpt lat="42.99833" lon="-2.401681">
        <ele>1220.40002441406</ele>
        <time>2018-06-09T07:51:50.000Z</time>
      </trkpt>
      <trkpt lat="42.998311" lon="-2.401717">
        <ele>1220.09997558594</ele>
        <time>2018-06-09T07:51:52.000Z</time>
      </trkpt>
      <trkpt lat="42.998313" lon="-2.401745">
        <ele>1219.29995516586</ele>
        <time>2018-06-09T07:51:53.000Z</time>
      </trkpt>
      <trkpt lat="42.998322" lon="-2.401773">
        <ele>1218.4895268517</ele>
        <time>2018-06-09T07:51:54.000Z</time>
      </trkpt>
      <trkpt lat="42.998324" lon="-2.401792">
        <ele>1216.71280273437</ele>
        <time>2018-06-09T07:51:55.000Z</time>
      </trkpt>
      <trkpt lat="42.998315" lon="-2.40183">
        <ele>1216.5</ele>
        <time>2018-06-09T07:51:57.000Z</time>
      </trkpt>
      <trkpt lat="42.998302" lon="-2.401873">
        <ele>1215.49902997969</ele>
        <time>2018-06-09T07:51:59.000Z</time>
      </trkpt>
      <trkpt lat="42.998308" lon="-2.401913">
        <ele>1215.04369182509</ele>
        <time>2018-06-09T07:52:01.000Z</time>
      </trkpt>
      <trkpt lat="42.998311" lon="-2.401955">
        <ele>1213.38629167822</ele>
        <time>2018-06-09T07:52:03.000Z</time>
      </trkpt>
      <trkpt lat="42.998309" lon="-2.401994">
        <ele>1212.64657102772</ele>
        <time>2018-06-09T07:52:05.000Z</time>
      </trkpt>
      <trkpt lat="42.998307" lon="-2.402013">
        <ele>1211.23537807663</ele>
        <time>2018-06-09T07:52:06.000Z</time>
      </trkpt>
      <trkpt lat="42.998306" lon="-2.402052">
        <ele>1211</ele>
        <time>2018-06-09T07:52:08.000Z</time>
      </trkpt>
      <trkpt lat="42.998301" lon="-2.402076">
        <ele>1210.35825839357</ele>
        <time>2018-06-09T07:52:09.000Z</time>
      </trkpt>
      <trkpt lat="42.998303" lon="-2.4021">
        <ele>1209.56419618667</ele>
        <time>2018-06-09T07:52:10.000Z</time>
      </trkpt>
      <trkpt lat="42.998318" lon="-2.402127">
        <ele>1209.03768621195</ele>
        <time>2018-06-09T07:52:11.000Z</time>
      </trkpt>
      <trkpt lat="42.998323" lon="-2.402154">
        <ele>1209</ele>
        <time>2018-06-09T07:52:12.000Z</time>
      </trkpt>
      <trkpt lat="42.998323" lon="-2.402179">
        <ele>1208.53610815113</ele>
        <time>2018-06-09T07:52:13.000Z</time>
      </trkpt>
      <trkpt lat="42.998325" lon="-2.402206">
        <ele>1208.12766211732</ele>
        <time>2018-06-09T07:52:14.000Z</time>
      </trkpt>
      <trkpt lat="42.998336" lon="-2.402231">
        <ele>1207.44832440469</ele>
        <time>2018-06-09T07:52:15.000Z</time>
      </trkpt>
      <trkpt lat="42.998347" lon="-2.402251">
        <ele>1206.00071957105</ele>
        <time>2018-06-09T07:52:16.000Z</time>
      </trkpt>
      <trkpt lat="42.99836" lon="-2.402274">
        <ele>1204.96421668275</ele>
        <time>2018-06-09T07:52:17.000Z</time>
      </trkpt>
      <trkpt lat="42.998377" lon="-2.402291">
        <ele>1204.43202441406</ele>
        <time>2018-06-09T07:52:18.000Z</time>
      </trkpt>
      <trkpt lat="42.998388" lon="-2.402312">
        <ele>1204.11861679621</ele>
        <time>2018-06-09T07:52:19.000Z</time>
      </trkpt>
      <trkpt lat="42.998395" lon="-2.402335">
        <ele>1204.09997558594</ele>
        <time>2018-06-09T07:52:20.000Z</time>
      </trkpt>
      <trkpt lat="42.998406" lon="-2.402357">
        <ele>1204.09997558594</ele>
        <time>2018-06-09T07:52:21.000Z</time>
      </trkpt>
      <trkpt lat="42.998415" lon="-2.402379">
        <ele>1204.09997558594</ele>
        <time>2018-06-09T07:52:22.000Z</time>
      </trkpt>
      <trkpt lat="42.998414" lon="-2.402411">
        <ele>1204.19523331815</ele>
        <time>2018-06-09T07:52:24.000Z</time>
      </trkpt>
      <trkpt lat="42.998411" lon="-2.402446">
        <ele>1201.42510688401</ele>
        <time>2018-06-09T07:52:26.000Z</time>
      </trkpt>
      <trkpt lat="42.998397" lon="-2.402482">
        <ele>1199.82202980097</ele>
        <time>2018-06-09T07:52:28.000Z</time>
      </trkpt>
      <trkpt lat="42.998398" lon="-2.402523">
        <ele>1198.54491453974</ele>
        <time>2018-06-09T07:52:30.000Z</time>
      </trkpt>
      <trkpt lat="42.998392" lon="-2.402562">
        <ele>1198.20895542812</ele>
        <time>2018-06-09T07:52:32.000Z</time>
      </trkpt>
      <trkpt lat="42.998391" lon="-2.402581">
        <ele>1196.85901762502</ele>
        <time>2018-06-09T07:52:33.000Z</time>
      </trkpt>
      <trkpt lat="42.998397" lon="-2.402604">
        <ele>1196.22572675628</ele>
        <time>2018-06-09T07:52:34.000Z</time>
      </trkpt>
      <trkpt lat="42.998403" lon="-2.402623">
        <ele>1194.66723659402</ele>
        <time>2018-06-09T07:52:35.000Z</time>
      </trkpt>
      <trkpt lat="42.998405" lon="-2.402655">
        <ele>1194.40353363543</ele>
        <time>2018-06-09T07:52:37.000Z</time>
      </trkpt>
      <trkpt lat="42.998392" lon="-2.40267">
        <ele>1193.62797345469</ele>
        <time>2018-06-09T07:52:38.000Z</time>
      </trkpt>
      <trkpt lat="42.998382" lon="-2.4027">
        <ele>1193.40302699934</ele>
        <time>2018-06-09T07:52:40.000Z</time>
      </trkpt>
      <trkpt lat="42.998398" lon="-2.402736">
        <ele>1192.71191719059</ele>
        <time>2018-06-09T07:52:42.000Z</time>
      </trkpt>
      <trkpt lat="42.998401" lon="-2.402762">
        <ele>1190.92789878117</ele>
        <time>2018-06-09T07:52:44.000Z</time>
      </trkpt>
      <trkpt lat="42.998397" lon="-2.402794">
        <ele>1190.31441406861</ele>
        <time>2018-06-09T07:52:46.000Z</time>
      </trkpt>
      <trkpt lat="42.998408" lon="-2.402819">
        <ele>1189.62178786345</ele>
        <time>2018-06-09T07:52:47.000Z</time>
      </trkpt>
      <trkpt lat="42.99843" lon="-2.402854">
        <ele>1189.10500730328</ele>
        <time>2018-06-09T07:52:49.000Z</time>
      </trkpt>
      <trkpt lat="42.998443" lon="-2.402871">
        <ele>1188.61149939668</ele>
        <time>2018-06-09T07:52:50.000Z</time>
      </trkpt>
      <trkpt lat="42.998462" lon="-2.402905">
        <ele>1187.61260003415</ele>
        <time>2018-06-09T07:52:52.000Z</time>
      </trkpt>
      <trkpt lat="42.998461" lon="-2.40293">
        <ele>1186.41805537721</ele>
        <time>2018-06-09T07:52:54.000Z</time>
      </trkpt>
      <trkpt lat="42.998435" lon="-2.402938">
        <ele>1186.20155754579</ele>
        <time>2018-06-09T07:52:57.000Z</time>
      </trkpt>
      <trkpt lat="42.998425" lon="-2.402972">
        <ele>1186.09997558594</ele>
        <time>2018-06-09T07:52:59.000Z</time>
      </trkpt>
      <trkpt lat="42.998425" lon="-2.403005">
        <ele>1183.7107788457</ele>
        <time>2018-06-09T07:53:01.000Z</time>
      </trkpt>
      <trkpt lat="42.998423" lon="-2.403045">
        <ele>1183.30004882813</ele>
        <time>2018-06-09T07:53:03.000Z</time>
      </trkpt>
      <trkpt lat="42.998411" lon="-2.403087">
        <ele>1183.29884706008</ele>
        <time>2018-06-09T07:53:05.000Z</time>
      </trkpt>
      <trkpt lat="42.998412" lon="-2.403112">
        <ele>1182.89822675051</ele>
        <time>2018-06-09T07:53:06.000Z</time>
      </trkpt>
      <trkpt lat="42.998419" lon="-2.403136">
        <ele>1182.59957424235</ele>
        <time>2018-06-09T07:53:07.000Z</time>
      </trkpt>
      <trkpt lat="42.998431" lon="-2.403161">
        <ele>1182.49518753735</ele>
        <time>2018-06-09T07:53:08.000Z</time>
      </trkpt>
      <trkpt lat="42.99844" lon="-2.403183">
        <ele>1181.68464478392</ele>
        <time>2018-06-09T07:53:09.000Z</time>
      </trkpt>
      <trkpt lat="42.99845" lon="-2.403205">
        <ele>1179.78656048863</ele>
        <time>2018-06-09T07:53:10.000Z</time>
      </trkpt>
      <trkpt lat="42.99846" lon="-2.403226">
        <ele>1178.89580169048</ele>
        <time>2018-06-09T07:53:11.000Z</time>
      </trkpt>
      <trkpt lat="42.998469" lon="-2.403249">
        <ele>1178.59807080009</ele>
        <time>2018-06-09T07:53:12.000Z</time>
      </trkpt>
      <trkpt lat="42.998478" lon="-2.403286">
        <ele>1177.59475658591</ele>
        <time>2018-06-09T07:53:14.000Z</time>
      </trkpt>
      <trkpt lat="42.998476" lon="-2.403323">
        <ele>1176.98194473337</ele>
        <time>2018-06-09T07:53:16.000Z</time>
      </trkpt>
      <trkpt lat="42.998495" lon="-2.403358">
        <ele>1175.82950316538</ele>
        <time>2018-06-09T07:53:18.000Z</time>
      </trkpt>
      <trkpt lat="42.998499" lon="-2.403392">
        <ele>1174.09596454864</ele>
        <time>2018-06-09T07:53:20.000Z</time>
      </trkpt>
      <trkpt lat="42.998488" lon="-2.403428">
        <ele>1173.90002441406</ele>
        <time>2018-06-09T07:53:22.000Z</time>
      </trkpt>
      <trkpt lat="42.998489" lon="-2.403466">
        <ele>1173.84701961406</ele>
        <time>2018-06-09T07:53:24.000Z</time>
      </trkpt>
      <trkpt lat="42.998497" lon="-2.403498">
        <ele>1172.16270164027</ele>
        <time>2018-06-09T07:53:26.000Z</time>
      </trkpt>
      <trkpt lat="42.998489" lon="-2.403531">
        <ele>1170.90629790184</ele>
        <time>2018-06-09T07:53:28.000Z</time>
      </trkpt>
      <trkpt lat="42.998501" lon="-2.403579">
        <ele>1170.36742716153</ele>
        <time>2018-06-09T07:53:30.000Z</time>
      </trkpt>
      <trkpt lat="42.998514" lon="-2.403605">
        <ele>1169.85222405762</ele>
        <time>2018-06-09T07:53:31.000Z</time>
      </trkpt>
      <trkpt lat="42.998517" lon="-2.403625">
        <ele>1169.11381268948</ele>
        <time>2018-06-09T07:53:32.000Z</time>
      </trkpt>
      <trkpt lat="42.998506" lon="-2.403663">
        <ele>1167.58616420603</ele>
        <time>2018-06-09T07:53:34.000Z</time>
      </trkpt>
      <trkpt lat="42.998495" lon="-2.403701">
        <ele>1167.47352001696</ele>
        <time>2018-06-09T07:53:36.000Z</time>
      </trkpt>
      <trkpt lat="42.998486" lon="-2.403727">
        <ele>1166.55604675248</ele>
        <time>2018-06-09T07:53:38.000Z</time>
      </trkpt>
      <trkpt lat="42.998483" lon="-2.403769">
        <ele>1165.40793844806</ele>
        <time>2018-06-09T07:53:40.000Z</time>
      </trkpt>
      <trkpt lat="42.998484" lon="-2.403815">
        <ele>1164.88301722813</ele>
        <time>2018-06-09T07:53:42.000Z</time>
      </trkpt>
      <trkpt lat="42.998492" lon="-2.403841">
        <ele>1164.31742957188</ele>
        <time>2018-06-09T07:53:43.000Z</time>
      </trkpt>
      <trkpt lat="42.998492" lon="-2.403878">
        <ele>1160.19995117188</ele>
        <time>2018-06-09T07:53:45.000Z</time>
      </trkpt>
      <trkpt lat="42.998492" lon="-2.403913">
        <ele>1160.1661543592</ele>
        <time>2018-06-09T07:53:47.000Z</time>
      </trkpt>
      <trkpt lat="42.998504" lon="-2.403962">
        <ele>1159.90894892618</ele>
        <time>2018-06-09T07:53:49.000Z</time>
      </trkpt>
      <trkpt lat="42.998507" lon="-2.403987">
        <ele>1160.00924454251</ele>
        <time>2018-06-09T07:53:50.000Z</time>
      </trkpt>
      <trkpt lat="42.99851" lon="-2.404014">
        <ele>1159.99317308244</ele>
        <time>2018-06-09T07:53:51.000Z</time>
      </trkpt>
      <trkpt lat="42.998516" lon="-2.40404">
        <ele>1158.9510016</ele>
        <time>2018-06-09T07:53:52.000Z</time>
      </trkpt>
      <trkpt lat="42.998528" lon="-2.404073">
        <ele>1158.36197348674</ele>
        <time>2018-06-09T07:53:53.000Z</time>
      </trkpt>
      <trkpt lat="42.998536" lon="-2.404104">
        <ele>1157.1103523266</ele>
        <time>2018-06-09T07:53:54.000Z</time>
      </trkpt>
      <trkpt lat="42.998546" lon="-2.404131">
        <ele>1157.21015126935</ele>
        <time>2018-06-09T07:53:55.000Z</time>
      </trkpt>
      <trkpt lat="42.998555" lon="-2.404155">
        <ele>1157.28989794581</ele>
        <time>2018-06-09T07:53:56.000Z</time>
      </trkpt>
      <trkpt lat="42.998562" lon="-2.404178">
        <ele>1157.16836432896</ele>
        <time>2018-06-09T07:53:57.000Z</time>
      </trkpt>
      <trkpt lat="42.998571" lon="-2.404201">
        <ele>1156.8891063648</ele>
        <time>2018-06-09T07:53:58.000Z</time>
      </trkpt>
      <trkpt lat="42.998582" lon="-2.404221">
        <ele>1156.70465124761</ele>
        <time>2018-06-09T07:53:59.000Z</time>
      </trkpt>
      <trkpt lat="42.998593" lon="-2.404254">
        <ele>1155.47535830135</ele>
        <time>2018-06-09T07:54:01.000Z</time>
      </trkpt>
      <trkpt lat="42.998596" lon="-2.404293">
        <ele>1154.50737436583</ele>
        <time>2018-06-09T07:54:03.000Z</time>
      </trkpt>
      <trkpt lat="42.998599" lon="-2.404319">
        <ele>1153.19995117188</ele>
        <time>2018-06-09T07:54:04.000Z</time>
      </trkpt>
      <trkpt lat="42.998601" lon="-2.404343">
        <ele>1153.172821666</ele>
        <time>2018-06-09T07:54:05.000Z</time>
      </trkpt>
      <trkpt lat="42.998602" lon="-2.404367">
        <ele>1152.88798947748</ele>
        <time>2018-06-09T07:54:06.000Z</time>
      </trkpt>
      <trkpt lat="42.998605" lon="-2.404395">
        <ele>1152.19995117188</ele>
        <time>2018-06-09T07:54:07.000Z</time>
      </trkpt>
      <trkpt lat="42.99861" lon="-2.404421">
        <ele>1151.98264664937</ele>
        <time>2018-06-09T07:54:08.000Z</time>
      </trkpt>
      <trkpt lat="42.998619" lon="-2.40446">
        <ele>1150.55899773523</ele>
        <time>2018-06-09T07:54:10.000Z</time>
      </trkpt>
      <trkpt lat="42.998603" lon="-2.404493">
        <ele>1149.81636086348</ele>
        <time>2018-06-09T07:54:12.000Z</time>
      </trkpt>
      <trkpt lat="42.9986" lon="-2.404539">
        <ele>1149.1999315165</ele>
        <time>2018-06-09T07:54:14.000Z</time>
      </trkpt>
      <trkpt lat="42.998609" lon="-2.404587">
        <ele>1148.41566319253</ele>
        <time>2018-06-09T07:54:16.000Z</time>
      </trkpt>
      <trkpt lat="42.998611" lon="-2.404611">
        <ele>1147.81005022428</ele>
        <time>2018-06-09T07:54:17.000Z</time>
      </trkpt>
      <trkpt lat="42.998614" lon="-2.404637">
        <ele>1146.7406634414</ele>
        <time>2018-06-09T07:54:18.000Z</time>
      </trkpt>
      <trkpt lat="42.998618" lon="-2.404661">
        <ele>1146</ele>
        <time>2018-06-09T07:54:19.000Z</time>
      </trkpt>
      <trkpt lat="42.998627" lon="-2.404683">
        <ele>1145.85373581454</ele>
        <time>2018-06-09T07:54:20.000Z</time>
      </trkpt>
      <trkpt lat="42.998637" lon="-2.404709">
        <ele>1145.1272402602</ele>
        <time>2018-06-09T07:54:21.000Z</time>
      </trkpt>
      <trkpt lat="42.998648" lon="-2.404754">
        <ele>1144.54593289378</ele>
        <time>2018-06-09T07:54:23.000Z</time>
      </trkpt>
      <trkpt lat="42.998655" lon="-2.404775">
        <ele>1144.13665067893</ele>
        <time>2018-06-09T07:54:24.000Z</time>
      </trkpt>
      <trkpt lat="42.99866" lon="-2.404799">
        <ele>1143.36328430016</ele>
        <time>2018-06-09T07:54:25.000Z</time>
      </trkpt>
      <trkpt lat="42.998674" lon="-2.404837">
        <ele>1142.98958007813</ele>
        <time>2018-06-09T07:54:27.000Z</time>
      </trkpt>
      <trkpt lat="42.998693" lon="-2.404875">
        <ele>1141.86208690938</ele>
        <time>2018-06-09T07:54:29.000Z</time>
      </trkpt>
      <trkpt lat="42.998704" lon="-2.404896">
        <ele>1140.76343510469</ele>
        <time>2018-06-09T07:54:30.000Z</time>
      </trkpt>
      <trkpt lat="42.99872" lon="-2.404934">
        <ele>1140.32557359434</ele>
        <time>2018-06-09T07:54:32.000Z</time>
      </trkpt>
      <trkpt lat="42.998737" lon="-2.40498">
        <ele>1139.82396223682</ele>
        <time>2018-06-09T07:54:34.000Z</time>
      </trkpt>
      <trkpt lat="42.998746" lon="-2.405">
        <ele>1139.28464725137</ele>
        <time>2018-06-09T07:54:35.000Z</time>
      </trkpt>
      <trkpt lat="42.998758" lon="-2.405022">
        <ele>1138.2805089883</ele>
        <time>2018-06-09T07:54:36.000Z</time>
      </trkpt>
      <trkpt lat="42.998769" lon="-2.405042">
        <ele>1137.75987322013</ele>
        <time>2018-06-09T07:54:37.000Z</time>
      </trkpt>
      <trkpt lat="42.99878" lon="-2.405062">
        <ele>1137.47720901613</ele>
        <time>2018-06-09T07:54:38.000Z</time>
      </trkpt>
      <trkpt lat="42.998793" lon="-2.405086">
        <ele>1137</ele>
        <time>2018-06-09T07:54:39.000Z</time>
      </trkpt>
      <trkpt lat="42.998806" lon="-2.405107">
        <ele>1137</ele>
        <time>2018-06-09T07:54:40.000Z</time>
      </trkpt>
      <trkpt lat="42.998814" lon="-2.405129">
        <ele>1136.91316011028</ele>
        <time>2018-06-09T07:54:41.000Z</time>
      </trkpt>
      <trkpt lat="42.998822" lon="-2.405152">
        <ele>1136.55556371312</ele>
        <time>2018-06-09T07:54:42.000Z</time>
      </trkpt>
      <trkpt lat="42.998845" lon="-2.40519">
        <ele>1136.3091654456</ele>
        <time>2018-06-09T07:54:44.000Z</time>
      </trkpt>
      <trkpt lat="42.998862" lon="-2.40523">
        <ele>1135.75963204687</ele>
        <time>2018-06-09T07:54:46.000Z</time>
      </trkpt>
      <trkpt lat="42.99887" lon="-2.405249">
        <ele>1135.01668571505</ele>
        <time>2018-06-09T07:54:47.000Z</time>
      </trkpt>
      <trkpt lat="42.998887" lon="-2.405289">
        <ele>1133.82636392567</ele>
        <time>2018-06-09T07:54:49.000Z</time>
      </trkpt>
      <trkpt lat="42.998903" lon="-2.405331">
        <ele>1133.02476863374</ele>
        <time>2018-06-09T07:54:51.000Z</time>
      </trkpt>
      <trkpt lat="42.998915" lon="-2.405351">
        <ele>1132.67316638985</ele>
        <time>2018-06-09T07:54:52.000Z</time>
      </trkpt>
      <trkpt lat="42.998927" lon="-2.405374">
        <ele>1132.22315956188</ele>
        <time>2018-06-09T07:54:53.000Z</time>
      </trkpt>
      <trkpt lat="42.998941" lon="-2.405395">
        <ele>1132</ele>
        <time>2018-06-09T07:54:54.000Z</time>
      </trkpt>
      <trkpt lat="42.99895" lon="-2.405416">
        <ele>1131.76532660954</ele>
        <time>2018-06-09T07:54:55.000Z</time>
      </trkpt>
      <trkpt lat="42.998963" lon="-2.405461">
        <ele>1130.94745476965</ele>
        <time>2018-06-09T07:54:57.000Z</time>
      </trkpt>
      <trkpt lat="42.998974" lon="-2.405505">
        <ele>1130.1920412405</ele>
        <time>2018-06-09T07:54:59.000Z</time>
      </trkpt>
      <trkpt lat="42.998993" lon="-2.405542">
        <ele>1128.37237530275</ele>
        <time>2018-06-09T07:55:01.000Z</time>
      </trkpt>
      <trkpt lat="42.99901" lon="-2.405582">
        <ele>1127.64560129563</ele>
        <time>2018-06-09T07:55:03.000Z</time>
      </trkpt>
      <trkpt lat="42.999026" lon="-2.405622">
        <ele>1127.08928820552</ele>
        <time>2018-06-09T07:55:05.000Z</time>
      </trkpt>
      <trkpt lat="42.99904" lon="-2.40566">
        <ele>1126.40219413371</ele>
        <time>2018-06-09T07:55:07.000Z</time>
      </trkpt>
      <trkpt lat="42.999056" lon="-2.4057">
        <ele>1125.7853284613</ele>
        <time>2018-06-09T07:55:09.000Z</time>
      </trkpt>
      <trkpt lat="42.999063" lon="-2.405724">
        <ele>1125.47087813635</ele>
        <time>2018-06-09T07:55:10.000Z</time>
      </trkpt>
      <trkpt lat="42.999069" lon="-2.405748">
        <ele>1125.13668569024</ele>
        <time>2018-06-09T07:55:11.000Z</time>
      </trkpt>
      <trkpt lat="42.999078" lon="-2.405772">
        <ele>1124.14650465612</ele>
        <time>2018-06-09T07:55:12.000Z</time>
      </trkpt>
      <trkpt lat="42.999089" lon="-2.405796">
        <ele>1123.06228178512</ele>
        <time>2018-06-09T07:55:13.000Z</time>
      </trkpt>
      <trkpt lat="42.999108" lon="-2.405838">
        <ele>1122.43983495166</ele>
        <time>2018-06-09T07:55:15.000Z</time>
      </trkpt>
      <trkpt lat="42.999114" lon="-2.405885">
        <ele>1122.23842577784</ele>
        <time>2018-06-09T07:55:17.000Z</time>
      </trkpt>
      <trkpt lat="42.999119" lon="-2.405912">
        <ele>1122.03795768012</ele>
        <time>2018-06-09T07:55:18.000Z</time>
      </trkpt>
      <trkpt lat="42.999125" lon="-2.405937">
        <ele>1121.74236739128</ele>
        <time>2018-06-09T07:55:19.000Z</time>
      </trkpt>
      <trkpt lat="42.999132" lon="-2.405962">
        <ele>1121.36836827809</ele>
        <time>2018-06-09T07:55:20.000Z</time>
      </trkpt>
      <trkpt lat="42.999141" lon="-2.405983">
        <ele>1121.17220157087</ele>
        <time>2018-06-09T07:55:21.000Z</time>
      </trkpt>
      <trkpt lat="42.999159" lon="-2.406018">
        <ele>1120.00726589991</ele>
        <time>2018-06-09T07:55:23.000Z</time>
      </trkpt>
      <trkpt lat="42.999157" lon="-2.406063">
        <ele>1119.00333988577</ele>
        <time>2018-06-09T07:55:25.000Z</time>
      </trkpt>
      <trkpt lat="42.99916" lon="-2.406089">
        <ele>1118.30111132002</ele>
        <time>2018-06-09T07:55:26.000Z</time>
      </trkpt>
      <trkpt lat="42.999163" lon="-2.406112">
        <ele>1117.83440483192</ele>
        <time>2018-06-09T07:55:27.000Z</time>
      </trkpt>
      <trkpt lat="42.999171" lon="-2.406152">
        <ele>1116.32634499358</ele>
        <time>2018-06-09T07:55:29.000Z</time>
      </trkpt>
      <trkpt lat="42.999178" lon="-2.406178">
        <ele>1115.43425326509</ele>
        <time>2018-06-09T07:55:30.000Z</time>
      </trkpt>
      <trkpt lat="42.999186" lon="-2.4062">
        <ele>1115.3961713177</ele>
        <time>2018-06-09T07:55:31.000Z</time>
      </trkpt>
      <trkpt lat="42.999202" lon="-2.406236">
        <ele>1114.4597064213</ele>
        <time>2018-06-09T07:55:33.000Z</time>
      </trkpt>
      <trkpt lat="42.999218" lon="-2.406269">
        <ele>1113.51437066176</ele>
        <time>2018-06-09T07:55:35.000Z</time>
      </trkpt>
      <trkpt lat="42.999238" lon="-2.406293">
        <ele>1112.09116001861</ele>
        <time>2018-06-09T07:55:37.000Z</time>
      </trkpt>
      <trkpt lat="42.999253" lon="-2.406321">
        <ele>1111.56325788821</ele>
        <time>2018-06-09T07:55:39.000Z</time>
      </trkpt>
      <trkpt lat="42.999272" lon="-2.406356">
        <ele>1111.35144454473</ele>
        <time>2018-06-09T07:55:41.000Z</time>
      </trkpt>
      <trkpt lat="42.999284" lon="-2.40639">
        <ele>1110.6371666677</ele>
        <time>2018-06-09T07:55:43.000Z</time>
      </trkpt>
      <trkpt lat="42.999292" lon="-2.40641">
        <ele>1110.40268033271</ele>
        <time>2018-06-09T07:55:44.000Z</time>
      </trkpt>
      <trkpt lat="42.999313" lon="-2.406439">
        <ele>1109.11436346308</ele>
        <time>2018-06-09T07:55:46.000Z</time>
      </trkpt>
      <trkpt lat="42.999336" lon="-2.406472">
        <ele>1108.26392664812</ele>
        <time>2018-06-09T07:55:48.000Z</time>
      </trkpt>
      <trkpt lat="42.999356" lon="-2.406508">
        <ele>1107.27146837775</ele>
        <time>2018-06-09T07:55:50.000Z</time>
      </trkpt>
      <trkpt lat="42.999363" lon="-2.40653">
        <ele>1106.43919628906</ele>
        <time>2018-06-09T07:55:51.000Z</time>
      </trkpt>
      <trkpt lat="42.99938" lon="-2.406564">
        <ele>1105.6386044092</ele>
        <time>2018-06-09T07:55:53.000Z</time>
      </trkpt>
      <trkpt lat="42.999397" lon="-2.406597">
        <ele>1104.98775399151</ele>
        <time>2018-06-09T07:55:55.000Z</time>
      </trkpt>
      <trkpt lat="42.999417" lon="-2.406629">
        <ele>1104.18135501511</ele>
        <time>2018-06-09T07:55:57.000Z</time>
      </trkpt>
      <trkpt lat="42.999432" lon="-2.406658">
        <ele>1103.29889846067</ele>
        <time>2018-06-09T07:55:59.000Z</time>
      </trkpt>
      <trkpt lat="42.999451" lon="-2.406688">
        <ele>1101.90002441406</ele>
        <time>2018-06-09T07:56:01.000Z</time>
      </trkpt>
      <trkpt lat="42.999468" lon="-2.406718">
        <ele>1101.44858722886</ele>
        <time>2018-06-09T07:56:03.000Z</time>
      </trkpt>
      <trkpt lat="42.999484" lon="-2.40675">
        <ele>1101.69995117188</ele>
        <time>2018-06-09T07:56:05.000Z</time>
      </trkpt>
      <trkpt lat="42.999503" lon="-2.40678">
        <ele>1101.23279410058</ele>
        <time>2018-06-09T07:56:07.000Z</time>
      </trkpt>
      <trkpt lat="42.999526" lon="-2.406808">
        <ele>1099.51362388386</ele>
        <time>2018-06-09T07:56:09.000Z</time>
      </trkpt>
      <trkpt lat="42.999547" lon="-2.406841">
        <ele>1099</ele>
        <time>2018-06-09T07:56:11.000Z</time>
      </trkpt>
      <trkpt lat="42.999567" lon="-2.406877">
        <ele>1098.21279121384</ele>
        <time>2018-06-09T07:56:13.000Z</time>
      </trkpt>
      <trkpt lat="42.999586" lon="-2.406908">
        <ele>1097.96898408157</ele>
        <time>2018-06-09T07:56:15.000Z</time>
      </trkpt>
      <trkpt lat="42.999596" lon="-2.406942">
        <ele>1097.66769249538</ele>
        <time>2018-06-09T07:56:17.000Z</time>
      </trkpt>
      <trkpt lat="42.999601" lon="-2.406963">
        <ele>1097.0586781528</ele>
        <time>2018-06-09T07:56:18.000Z</time>
      </trkpt>
      <trkpt lat="42.999609" lon="-2.406987">
        <ele>1096.4115109381</ele>
        <time>2018-06-09T07:56:19.000Z</time>
      </trkpt>
      <trkpt lat="42.99962" lon="-2.407012">
        <ele>1095.76748663815</ele>
        <time>2018-06-09T07:56:20.000Z</time>
      </trkpt>
      <trkpt lat="42.999628" lon="-2.407036">
        <ele>1095.01106416898</ele>
        <time>2018-06-09T07:56:21.000Z</time>
      </trkpt>
      <trkpt lat="42.999637" lon="-2.407074">
        <ele>1094.47650339135</ele>
        <time>2018-06-09T07:56:23.000Z</time>
      </trkpt>
      <trkpt lat="42.99966" lon="-2.407112">
        <ele>1094.19995117188</ele>
        <time>2018-06-09T07:56:25.000Z</time>
      </trkpt>
      <trkpt lat="42.999673" lon="-2.40713">
        <ele>1094.19995117188</ele>
        <time>2018-06-09T07:56:26.000Z</time>
      </trkpt>
      <trkpt lat="42.999685" lon="-2.407148">
        <ele>1093.42569765404</ele>
        <time>2018-06-09T07:56:27.000Z</time>
      </trkpt>
      <trkpt lat="42.9997" lon="-2.407176">
        <ele>1091.832113572</ele>
        <time>2018-06-09T07:56:29.000Z</time>
      </trkpt>
      <trkpt lat="42.999717" lon="-2.407201">
        <ele>1091.40002441406</ele>
        <time>2018-06-09T07:56:31.000Z</time>
      </trkpt>
      <trkpt lat="42.999729" lon="-2.407218">
        <ele>1091.16779255377</ele>
        <time>2018-06-09T07:56:32.000Z</time>
      </trkpt>
      <trkpt lat="42.999749" lon="-2.407247">
        <ele>1090.75286127321</ele>
        <time>2018-06-09T07:56:34.000Z</time>
      </trkpt>
      <trkpt lat="42.999764" lon="-2.407279">
        <ele>1090.21441143678</ele>
        <time>2018-06-09T07:56:36.000Z</time>
      </trkpt>
      <trkpt lat="42.999778" lon="-2.407302">
        <ele>1089.05238717632</ele>
        <time>2018-06-09T07:56:38.000Z</time>
      </trkpt>
      <trkpt lat="42.999796" lon="-2.407335">
        <ele>1088.55764476973</ele>
        <time>2018-06-09T07:56:40.000Z</time>
      </trkpt>
      <trkpt lat="42.999814" lon="-2.407371">
        <ele>1088.40002441406</ele>
        <time>2018-06-09T07:56:42.000Z</time>
      </trkpt>
      <trkpt lat="42.999827" lon="-2.407391">
        <ele>1087.92639517124</ele>
        <time>2018-06-09T07:56:43.000Z</time>
      </trkpt>
      <trkpt lat="42.999839" lon="-2.407413">
        <ele>1086.69281593712</ele>
        <time>2018-06-09T07:56:44.000Z</time>
      </trkpt>
      <trkpt lat="42.99985" lon="-2.407436">
        <ele>1085.80540089952</ele>
        <time>2018-06-09T07:56:45.000Z</time>
      </trkpt>
      <trkpt lat="42.999869" lon="-2.407474">
        <ele>1085.35763567909</ele>
        <time>2018-06-09T07:56:47.000Z</time>
      </trkpt>
      <trkpt lat="42.999881" lon="-2.407493">
        <ele>1084.9622162173</ele>
        <time>2018-06-09T07:56:48.000Z</time>
      </trkpt>
      <trkpt lat="42.999893" lon="-2.407511">
        <ele>1084.4155026066</ele>
        <time>2018-06-09T07:56:49.000Z</time>
      </trkpt>
      <trkpt lat="42.999905" lon="-2.407533">
        <ele>1083.81565163324</ele>
        <time>2018-06-09T07:56:50.000Z</time>
      </trkpt>
      <trkpt lat="42.999915" lon="-2.407554">
        <ele>1083.2620001536</ele>
        <time>2018-06-09T07:56:51.000Z</time>
      </trkpt>
      <trkpt lat="42.999939" lon="-2.407595">
        <ele>1082.46547802083</ele>
        <time>2018-06-09T07:56:53.000Z</time>
      </trkpt>
      <trkpt lat="42.999951" lon="-2.407619">
        <ele>1081.85925457838</ele>
        <time>2018-06-09T07:56:54.000Z</time>
      </trkpt>
      <trkpt lat="42.999962" lon="-2.407643">
        <ele>1081.59997558594</ele>
        <time>2018-06-09T07:56:55.000Z</time>
      </trkpt>
      <trkpt lat="42.999966" lon="-2.407661">
        <ele>1080.82558773002</ele>
        <time>2018-06-09T07:56:56.000Z</time>
      </trkpt>
      <trkpt lat="42.999977" lon="-2.407702">
        <ele>1079.5</ele>
        <time>2018-06-09T07:56:58.000Z</time>
      </trkpt>
      <trkpt lat="43" lon="-2.407742">
        <ele>1079.25105231626</ele>
        <time>2018-06-09T07:57:00.000Z</time>
      </trkpt>
      <trkpt lat="43.000011" lon="-2.407761">
        <ele>1078.95396726194</ele>
        <time>2018-06-09T07:57:01.000Z</time>
      </trkpt>
      <trkpt lat="43.000031" lon="-2.407788">
        <ele>1078.55013860797</ele>
        <time>2018-06-09T07:57:03.000Z</time>
      </trkpt>
      <trkpt lat="43.000042" lon="-2.407821">
        <ele>1077.45172044063</ele>
        <time>2018-06-09T07:57:05.000Z</time>
      </trkpt>
      <trkpt lat="43.000052" lon="-2.407845">
        <ele>1076.64906013986</ele>
        <time>2018-06-09T07:57:07.000Z</time>
      </trkpt>
      <trkpt lat="43.000064" lon="-2.40786">
        <ele>1075.93304748876</ele>
        <time>2018-06-09T07:57:08.000Z</time>
      </trkpt>
      <trkpt lat="43.000086" lon="-2.407872">
        <ele>1075.19690909404</ele>
        <time>2018-06-09T07:57:09.000Z</time>
      </trkpt>
      <trkpt lat="43.000103" lon="-2.407888">
        <ele>1075.09997558594</ele>
        <time>2018-06-09T07:57:10.000Z</time>
      </trkpt>
      <trkpt lat="43.000111" lon="-2.407923">
        <ele>1075.19995117188</ele>
        <time>2018-06-09T07:57:12.000Z</time>
      </trkpt>
      <trkpt lat="43.000124" lon="-2.407958">
        <ele>1074.6843797069</ele>
        <time>2018-06-09T07:57:14.000Z</time>
      </trkpt>
      <trkpt lat="43.000151" lon="-2.407994">
        <ele>1073.29677749891</ele>
        <time>2018-06-09T07:57:16.000Z</time>
      </trkpt>
      <trkpt lat="43.000159" lon="-2.408019">
        <ele>1072.39219462919</ele>
        <time>2018-06-09T07:57:18.000Z</time>
      </trkpt>
      <trkpt lat="43.00017" lon="-2.40805">
        <ele>1071.46472741927</ele>
        <time>2018-06-09T07:57:20.000Z</time>
      </trkpt>
      <trkpt lat="43.000188" lon="-2.408077">
        <ele>1070.48998179722</ele>
        <time>2018-06-09T07:57:22.000Z</time>
      </trkpt>
      <trkpt lat="43.000212" lon="-2.408107">
        <ele>1068.82300370862</ele>
        <time>2018-06-09T07:57:24.000Z</time>
      </trkpt>
      <trkpt lat="43.000226" lon="-2.408131">
        <ele>1067.43208818295</ele>
        <time>2018-06-09T07:57:26.000Z</time>
      </trkpt>
      <trkpt lat="43.000245" lon="-2.408165">
        <ele>1067.30004882813</ele>
        <time>2018-06-09T07:57:28.000Z</time>
      </trkpt>
      <trkpt lat="43.000267" lon="-2.408202">
        <ele>1067.07288916897</ele>
        <time>2018-06-09T07:57:30.000Z</time>
      </trkpt>
      <trkpt lat="43.00028" lon="-2.408221">
        <ele>1066.90002441406</ele>
        <time>2018-06-09T07:57:31.000Z</time>
      </trkpt>
      <trkpt lat="43.000291" lon="-2.408241">
        <ele>1066.72942635459</ele>
        <time>2018-06-09T07:57:32.000Z</time>
      </trkpt>
      <trkpt lat="43.000302" lon="-2.408264">
        <ele>1066.48608998568</ele>
        <time>2018-06-09T07:57:33.000Z</time>
      </trkpt>
      <trkpt lat="43.000319" lon="-2.408289">
        <ele>1066.40002441406</ele>
        <time>2018-06-09T07:57:34.000Z</time>
      </trkpt>
      <trkpt lat="43.000333" lon="-2.408309">
        <ele>1066.28666914485</ele>
        <time>2018-06-09T07:57:35.000Z</time>
      </trkpt>
      <trkpt lat="43.000342" lon="-2.40835">
        <ele>1065.52942251763</ele>
        <time>2018-06-09T07:57:37.000Z</time>
      </trkpt>
      <trkpt lat="43.00035" lon="-2.408374">
        <ele>1065.05931958503</ele>
        <time>2018-06-09T07:57:38.000Z</time>
      </trkpt>
      <trkpt lat="43.000365" lon="-2.408406">
        <ele>1063.19300050097</ele>
        <time>2018-06-09T07:57:40.000Z</time>
      </trkpt>
      <trkpt lat="43.000375" lon="-2.408432">
        <ele>1062.33013177901</ele>
        <time>2018-06-09T07:57:42.000Z</time>
      </trkpt>
      <trkpt lat="43.000388" lon="-2.408458">
        <ele>1061.64425220483</ele>
        <time>2018-06-09T07:57:44.000Z</time>
      </trkpt>
      <trkpt lat="43.000407" lon="-2.40849">
        <ele>1059.87236233438</ele>
        <time>2018-06-09T07:57:46.000Z</time>
      </trkpt>
      <trkpt lat="43.000424" lon="-2.408528">
        <ele>1058.81153408597</ele>
        <time>2018-06-09T07:57:48.000Z</time>
      </trkpt>
      <trkpt lat="43.000435" lon="-2.408549">
        <ele>1058.59997558594</ele>
        <time>2018-06-09T07:57:49.000Z</time>
      </trkpt>
      <trkpt lat="43.000447" lon="-2.408571">
        <ele>1058.59997558594</ele>
        <time>2018-06-09T07:57:50.000Z</time>
      </trkpt>
      <trkpt lat="43.000458" lon="-2.408592">
        <ele>1058.30939214893</ele>
        <time>2018-06-09T07:57:51.000Z</time>
      </trkpt>
      <trkpt lat="43.00047" lon="-2.408615">
        <ele>1057.98325375885</ele>
        <time>2018-06-09T07:57:52.000Z</time>
      </trkpt>
      <trkpt lat="43.000477" lon="-2.408636">
        <ele>1057.54798070878</ele>
        <time>2018-06-09T07:57:53.000Z</time>
      </trkpt>
      <trkpt lat="43.000494" lon="-2.408675">
        <ele>1057.30004882813</ele>
        <time>2018-06-09T07:57:55.000Z</time>
      </trkpt>
      <trkpt lat="43.000512" lon="-2.408721">
        <ele>1056.55723336875</ele>
        <time>2018-06-09T07:57:57.000Z</time>
      </trkpt>
      <trkpt lat="43.000526" lon="-2.408763">
        <ele>1056</ele>
        <time>2018-06-09T07:57:59.000Z</time>
      </trkpt>
      <trkpt lat="43.000532" lon="-2.408787">
        <ele>1055.63157389792</ele>
        <time>2018-06-09T07:58:00.000Z</time>
      </trkpt>
      <trkpt lat="43.00055" lon="-2.408838">
        <ele>1054.60393949482</ele>
        <time>2018-06-09T07:58:02.000Z</time>
      </trkpt>
      <trkpt lat="43.00056" lon="-2.408866">
        <ele>1053.61441549298</ele>
        <time>2018-06-09T07:58:03.000Z</time>
      </trkpt>
      <trkpt lat="43.00057" lon="-2.408887">
        <ele>1053.19995117188</ele>
        <time>2018-06-09T07:58:04.000Z</time>
      </trkpt>
      <trkpt lat="43.000594" lon="-2.40892">
        <ele>1052.58552201406</ele>
        <time>2018-06-09T07:58:06.000Z</time>
      </trkpt>
      <trkpt lat="43.000613" lon="-2.408948">
        <ele>1051.5901991268</ele>
        <time>2018-06-09T07:58:08.000Z</time>
      </trkpt>
      <trkpt lat="43.000625" lon="-2.408965">
        <ele>1050.78961511563</ele>
        <time>2018-06-09T07:58:09.000Z</time>
      </trkpt>
      <trkpt lat="43.000632" lon="-2.408987">
        <ele>1049.98905616117</ele>
        <time>2018-06-09T07:58:10.000Z</time>
      </trkpt>
      <trkpt lat="43.000642" lon="-2.409027">
        <ele>1049.44307235219</ele>
        <time>2018-06-09T07:58:12.000Z</time>
      </trkpt>
      <trkpt lat="43.000654" lon="-2.409074">
        <ele>1048.90643573575</ele>
        <time>2018-06-09T07:58:14.000Z</time>
      </trkpt>
      <trkpt lat="43.000665" lon="-2.409095">
        <ele>1047.89200220155</ele>
        <time>2018-06-09T07:58:15.000Z</time>
      </trkpt>
      <trkpt lat="43.000679" lon="-2.409132">
        <ele>1047.13870195837</ele>
        <time>2018-06-09T07:58:17.000Z</time>
      </trkpt>
      <trkpt lat="43.000691" lon="-2.409176">
        <ele>1046.37080728559</ele>
        <time>2018-06-09T07:58:19.000Z</time>
      </trkpt>
      <trkpt lat="43.000712" lon="-2.409209">
        <ele>1045.8015757576</ele>
        <time>2018-06-09T07:58:21.000Z</time>
      </trkpt>
      <trkpt lat="43.000727" lon="-2.409244">
        <ele>1045</ele>
        <time>2018-06-09T07:58:23.000Z</time>
      </trkpt>
      <trkpt lat="43.000738" lon="-2.409284">
        <ele>1045</ele>
        <time>2018-06-09T07:58:25.000Z</time>
      </trkpt>
      <trkpt lat="43.000753" lon="-2.409325">
        <ele>1044.2985043186</ele>
        <time>2018-06-09T07:58:27.000Z</time>
      </trkpt>
      <trkpt lat="43.000761" lon="-2.409347">
        <ele>1043.79936514866</ele>
        <time>2018-06-09T07:58:28.000Z</time>
      </trkpt>
      <trkpt lat="43.000768" lon="-2.40937">
        <ele>1043.43241458438</ele>
        <time>2018-06-09T07:58:29.000Z</time>
      </trkpt>
      <trkpt lat="43.00078" lon="-2.409388">
        <ele>1043.16579675695</ele>
        <time>2018-06-09T07:58:30.000Z</time>
      </trkpt>
      <trkpt lat="43.000792" lon="-2.409408">
        <ele>1043.09997558594</ele>
        <time>2018-06-09T07:58:31.000Z</time>
      </trkpt>
      <trkpt lat="43.000808" lon="-2.409423">
        <ele>1042.68994004161</ele>
        <time>2018-06-09T07:58:32.000Z</time>
      </trkpt>
      <trkpt lat="43.000824" lon="-2.409439">
        <ele>1042.15577925002</ele>
        <time>2018-06-09T07:58:33.000Z</time>
      </trkpt>
      <trkpt lat="43.000846" lon="-2.409466">
        <ele>1041.52360464125</ele>
        <time>2018-06-09T07:58:35.000Z</time>
      </trkpt>
      <trkpt lat="43.000867" lon="-2.409497">
        <ele>1041.06104573556</ele>
        <time>2018-06-09T07:58:37.000Z</time>
      </trkpt>
      <trkpt lat="43.000884" lon="-2.409532">
        <ele>1039.89038686625</ele>
        <time>2018-06-09T07:58:39.000Z</time>
      </trkpt>
      <trkpt lat="43.00091" lon="-2.409568">
        <ele>1039.23479145708</ele>
        <time>2018-06-09T07:58:41.000Z</time>
      </trkpt>
      <trkpt lat="43.000923" lon="-2.409592">
        <ele>1038.85885859673</ele>
        <time>2018-06-09T07:58:42.000Z</time>
      </trkpt>
      <trkpt lat="43.000931" lon="-2.40963">
        <ele>1038.37235228465</ele>
        <time>2018-06-09T07:58:44.000Z</time>
      </trkpt>
      <trkpt lat="43.000948" lon="-2.409664">
        <ele>1037.92880376711</ele>
        <time>2018-06-09T07:58:46.000Z</time>
      </trkpt>
      <trkpt lat="43.000955" lon="-2.409681">
        <ele>1036.82514726893</ele>
        <time>2018-06-09T07:58:47.000Z</time>
      </trkpt>
      <trkpt lat="43.000968" lon="-2.409706">
        <ele>1036.30004882813</ele>
        <time>2018-06-09T07:58:49.000Z</time>
      </trkpt>
      <trkpt lat="43.000988" lon="-2.409731">
        <ele>1036.12725063955</ele>
        <time>2018-06-09T07:58:51.000Z</time>
      </trkpt>
      <trkpt lat="43.001014" lon="-2.409755">
        <ele>1035.52693993446</ele>
        <time>2018-06-09T07:58:53.000Z</time>
      </trkpt>
      <trkpt lat="43.001037" lon="-2.40978">
        <ele>1035.13363272942</ele>
        <time>2018-06-09T07:58:55.000Z</time>
      </trkpt>
      <trkpt lat="43.001058" lon="-2.40981">
        <ele>1033.82959843047</ele>
        <time>2018-06-09T07:58:57.000Z</time>
      </trkpt>
      <trkpt lat="43.001076" lon="-2.409838">
        <ele>1033.25267621731</ele>
        <time>2018-06-09T07:58:59.000Z</time>
      </trkpt>
      <trkpt lat="43.001097" lon="-2.409865">
        <ele>1033.09997558594</ele>
        <time>2018-06-09T07:59:01.000Z</time>
      </trkpt>
      <trkpt lat="43.001121" lon="-2.409894">
        <ele>1032.87442825888</ele>
        <time>2018-06-09T07:59:03.000Z</time>
      </trkpt>
      <trkpt lat="43.001135" lon="-2.409923">
        <ele>1032.34953590329</ele>
        <time>2018-06-09T07:59:05.000Z</time>
      </trkpt>
      <trkpt lat="43.001151" lon="-2.409956">
        <ele>1032.12406593378</ele>
        <time>2018-06-09T07:59:07.000Z</time>
      </trkpt>
      <trkpt lat="43.001164" lon="-2.409994">
        <ele>1031.46594061563</ele>
        <time>2018-06-09T07:59:09.000Z</time>
      </trkpt>
      <trkpt lat="43.001179" lon="-2.410026">
        <ele>1030.99118622218</ele>
        <time>2018-06-09T07:59:11.000Z</time>
      </trkpt>
      <trkpt lat="43.001201" lon="-2.410059">
        <ele>1030.75187352441</ele>
        <time>2018-06-09T07:59:13.000Z</time>
      </trkpt>
      <trkpt lat="43.001214" lon="-2.410085">
        <ele>1030.12582057446</ele>
        <time>2018-06-09T07:59:15.000Z</time>
      </trkpt>
      <trkpt lat="43.001231" lon="-2.410124">
        <ele>1029.80004882813</ele>
        <time>2018-06-09T07:59:17.000Z</time>
      </trkpt>
      <trkpt lat="43.001245" lon="-2.410162">
        <ele>1029.64848954298</ele>
        <time>2018-06-09T07:59:19.000Z</time>
      </trkpt>
      <trkpt lat="43.001258" lon="-2.410197">
        <ele>1029.09591010273</ele>
        <time>2018-06-09T07:59:21.000Z</time>
      </trkpt>
      <trkpt lat="43.00128" lon="-2.410231">
        <ele>1028.01284766241</ele>
        <time>2018-06-09T07:59:23.000Z</time>
      </trkpt>
      <trkpt lat="43.001293" lon="-2.410248">
        <ele>1027.80004882813</ele>
        <time>2018-06-09T07:59:24.000Z</time>
      </trkpt>
      <trkpt lat="43.00131" lon="-2.410283">
        <ele>1027.36947101128</ele>
        <time>2018-06-09T07:59:26.000Z</time>
      </trkpt>
      <trkpt lat="43.001324" lon="-2.410322">
        <ele>1026.69149172716</ele>
        <time>2018-06-09T07:59:28.000Z</time>
      </trkpt>
      <trkpt lat="43.001336" lon="-2.410348">
        <ele>1026.36826785546</ele>
        <time>2018-06-09T07:59:29.000Z</time>
      </trkpt>
      <trkpt lat="43.001348" lon="-2.410371">
        <ele>1026.22244040663</ele>
        <time>2018-06-09T07:59:30.000Z</time>
      </trkpt>
      <trkpt lat="43.00136" lon="-2.410393">
        <ele>1025.80921539627</ele>
        <time>2018-06-09T07:59:31.000Z</time>
      </trkpt>
      <trkpt lat="43.001372" lon="-2.410413">
        <ele>1025.62159189422</ele>
        <time>2018-06-09T07:59:32.000Z</time>
      </trkpt>
      <trkpt lat="43.001387" lon="-2.410435">
        <ele>1025.36341287454</ele>
        <time>2018-06-09T07:59:33.000Z</time>
      </trkpt>
      <trkpt lat="43.001399" lon="-2.410458">
        <ele>1025.22089232953</ele>
        <time>2018-06-09T07:59:34.000Z</time>
      </trkpt>
      <trkpt lat="43.00141" lon="-2.410484">
        <ele>1025.19995117188</ele>
        <time>2018-06-09T07:59:35.000Z</time>
      </trkpt>
      <trkpt lat="43.001421" lon="-2.410506">
        <ele>1024.64585181963</ele>
        <time>2018-06-09T07:59:36.000Z</time>
      </trkpt>
      <trkpt lat="43.001434" lon="-2.410529">
        <ele>1024.26170925897</ele>
        <time>2018-06-09T07:59:37.000Z</time>
      </trkpt>
      <trkpt lat="43.001444" lon="-2.410572">
        <ele>1023.91951437947</ele>
        <time>2018-06-09T07:59:39.000Z</time>
      </trkpt>
      <trkpt lat="43.001458" lon="-2.41061">
        <ele>1023.00520838792</ele>
        <time>2018-06-09T07:59:41.000Z</time>
      </trkpt>
      <trkpt lat="43.001471" lon="-2.410649">
        <ele>1021.85379229349</ele>
        <time>2018-06-09T07:59:43.000Z</time>
      </trkpt>
      <trkpt lat="43.001484" lon="-2.410691">
        <ele>1021.61741710535</ele>
        <time>2018-06-09T07:59:45.000Z</time>
      </trkpt>
      <trkpt lat="43.001497" lon="-2.410711">
        <ele>1021.35143903095</ele>
        <time>2018-06-09T07:59:46.000Z</time>
      </trkpt>
      <trkpt lat="43.001509" lon="-2.410732">
        <ele>1021.13417671328</ele>
        <time>2018-06-09T07:59:47.000Z</time>
      </trkpt>
      <trkpt lat="43.001522" lon="-2.410776">
        <ele>1020.61641505837</ele>
        <time>2018-06-09T07:59:49.000Z</time>
      </trkpt>
      <trkpt lat="43.001526" lon="-2.410799">
        <ele>1020.0968865441</ele>
        <time>2018-06-09T07:59:50.000Z</time>
      </trkpt>
      <trkpt lat="43.001533" lon="-2.410827">
        <ele>1019.91645503797</ele>
        <time>2018-06-09T07:59:51.000Z</time>
      </trkpt>
      <trkpt lat="43.001544" lon="-2.410853">
        <ele>1019.3974850773</ele>
        <time>2018-06-09T07:59:52.000Z</time>
      </trkpt>
      <trkpt lat="43.001555" lon="-2.410875">
        <ele>1018.96481720156</ele>
        <time>2018-06-09T07:59:53.000Z</time>
      </trkpt>
      <trkpt lat="43.001563" lon="-2.410898">
        <ele>1018.90002441406</ele>
        <time>2018-06-09T07:59:54.000Z</time>
      </trkpt>
      <trkpt lat="43.001574" lon="-2.410923">
        <ele>1018.39889669894</ele>
        <time>2018-06-09T07:59:55.000Z</time>
      </trkpt>
      <trkpt lat="43.001592" lon="-2.410959">
        <ele>1018.13147280296</ele>
        <time>2018-06-09T07:59:57.000Z</time>
      </trkpt>
      <trkpt lat="43.001607" lon="-2.411004">
        <ele>1017.19256537391</ele>
        <time>2018-06-09T07:59:59.000Z</time>
      </trkpt>
      <trkpt lat="43.001628" lon="-2.411038">
        <ele>1016.65516293885</ele>
        <time>2018-06-09T08:00:01.000Z</time>
      </trkpt>
      <trkpt lat="43.001638" lon="-2.411059">
        <ele>1016.45468421928</ele>
        <time>2018-06-09T08:00:02.000Z</time>
      </trkpt>
      <trkpt lat="43.001646" lon="-2.411082">
        <ele>1016.30745654359</ele>
        <time>2018-06-09T08:00:03.000Z</time>
      </trkpt>
      <trkpt lat="43.001659" lon="-2.411122">
        <ele>1014.90773100903</ele>
        <time>2018-06-09T08:00:05.000Z</time>
      </trkpt>
      <trkpt lat="43.001675" lon="-2.411157">
        <ele>1014.72661861297</ele>
        <time>2018-06-09T08:00:07.000Z</time>
      </trkpt>
      <trkpt lat="43.001683" lon="-2.41119">
        <ele>1014.33098826455</ele>
        <time>2018-06-09T08:00:09.000Z</time>
      </trkpt>
      <trkpt lat="43.001701" lon="-2.411226">
        <ele>1013.22613239324</ele>
        <time>2018-06-09T08:00:11.000Z</time>
      </trkpt>
      <trkpt lat="43.001724" lon="-2.411268">
        <ele>1012.8506939885</ele>
        <time>2018-06-09T08:00:13.000Z</time>
      </trkpt>
      <trkpt lat="43.001736" lon="-2.411292">
        <ele>1012.79998779297</ele>
        <time>2018-06-09T08:00:14.000Z</time>
      </trkpt>
      <trkpt lat="43.001751" lon="-2.411332">
        <ele>1012.04700347409</ele>
        <time>2018-06-09T08:00:16.000Z</time>
      </trkpt>
      <trkpt lat="43.001767" lon="-2.411369">
        <ele>1011.64832363876</ele>
        <time>2018-06-09T08:00:18.000Z</time>
      </trkpt>
      <trkpt lat="43.001779" lon="-2.411412">
        <ele>1011.34733376456</ele>
        <time>2018-06-09T08:00:20.000Z</time>
      </trkpt>
      <trkpt lat="43.00179" lon="-2.411432">
        <ele>1010.53903314147</ele>
        <time>2018-06-09T08:00:21.000Z</time>
      </trkpt>
      <trkpt lat="43.001811" lon="-2.411471">
        <ele>1010.2233766388</ele>
        <time>2018-06-09T08:00:23.000Z</time>
      </trkpt>
      <trkpt lat="43.001822" lon="-2.41149">
        <ele>1010.20001220703</ele>
        <time>2018-06-09T08:00:24.000Z</time>
      </trkpt>
      <trkpt lat="43.001837" lon="-2.411523">
        <ele>1009.70001220703</ele>
        <time>2018-06-09T08:00:26.000Z</time>
      </trkpt>
      <trkpt lat="43.001852" lon="-2.411563">
        <ele>1009.1129984</ele>
        <time>2018-06-09T08:00:28.000Z</time>
      </trkpt>
      <trkpt lat="43.00186" lon="-2.411584">
        <ele>1008.37832416366</ele>
        <time>2018-06-09T08:00:29.000Z</time>
      </trkpt>
      <trkpt lat="43.001879" lon="-2.41162">
        <ele>1007.77267243507</ele>
        <time>2018-06-09T08:00:31.000Z</time>
      </trkpt>
      <trkpt lat="43.001903" lon="-2.411658">
        <ele>1007.24860922017</ele>
        <time>2018-06-09T08:00:33.000Z</time>
      </trkpt>
      <trkpt lat="43.001918" lon="-2.411691">
        <ele>1006.70001220703</ele>
        <time>2018-06-09T08:00:35.000Z</time>
      </trkpt>
      <trkpt lat="43.001933" lon="-2.411734">
        <ele>1006.59997558594</ele>
        <time>2018-06-09T08:00:37.000Z</time>
      </trkpt>
      <trkpt lat="43.001939" lon="-2.411755">
        <ele>1006.00439411871</ele>
        <time>2018-06-09T08:00:38.000Z</time>
      </trkpt>
      <trkpt lat="43.001948" lon="-2.411777">
        <ele>1005.57582307973</ele>
        <time>2018-06-09T08:00:39.000Z</time>
      </trkpt>
      <trkpt lat="43.001958" lon="-2.411796">
        <ele>1004.97586309077</ele>
        <time>2018-06-09T08:00:40.000Z</time>
      </trkpt>
      <trkpt lat="43.001977" lon="-2.411841">
        <ele>1004.5496526005</ele>
        <time>2018-06-09T08:00:42.000Z</time>
      </trkpt>
      <trkpt lat="43.001996" lon="-2.411878">
        <ele>1004.40002441406</ele>
        <time>2018-06-09T08:00:44.000Z</time>
      </trkpt>
      <trkpt lat="43.002009" lon="-2.4119">
        <ele>1004.32459551873</ele>
        <time>2018-06-09T08:00:45.000Z</time>
      </trkpt>
      <trkpt lat="43.002015" lon="-2.411924">
        <ele>1003.99710629417</ele>
        <time>2018-06-09T08:00:46.000Z</time>
      </trkpt>
      <trkpt lat="43.002035" lon="-2.411964">
        <ele>1003.41666189371</ele>
        <time>2018-06-09T08:00:48.000Z</time>
      </trkpt>
      <trkpt lat="43.002047" lon="-2.411985">
        <ele>1003.20001220703</ele>
        <time>2018-06-09T08:00:49.000Z</time>
      </trkpt>
      <trkpt lat="43.002059" lon="-2.412023">
        <ele>1003.20001220703</ele>
        <time>2018-06-09T08:00:51.000Z</time>
      </trkpt>
      <trkpt lat="43.002077" lon="-2.412063">
        <ele>1002.60344932049</ele>
        <time>2018-06-09T08:00:53.000Z</time>
      </trkpt>
      <trkpt lat="43.002086" lon="-2.412086">
        <ele>1002.32527197092</ele>
        <time>2018-06-09T08:00:54.000Z</time>
      </trkpt>
      <trkpt lat="43.002098" lon="-2.412122">
        <ele>1002.12480946211</ele>
        <time>2018-06-09T08:00:56.000Z</time>
      </trkpt>
      <trkpt lat="43.002111" lon="-2.412155">
        <ele>1001.79998779297</ele>
        <time>2018-06-09T08:00:58.000Z</time>
      </trkpt>
      <trkpt lat="43.002119" lon="-2.41219">
        <ele>1001.12383225888</ele>
        <time>2018-06-09T08:01:00.000Z</time>
      </trkpt>
      <trkpt lat="43.002126" lon="-2.412211">
        <ele>1000.41761272649</ele>
        <time>2018-06-09T08:01:01.000Z</time>
      </trkpt>
      <trkpt lat="43.002135" lon="-2.412249">
        <ele>999.871685355469</ele>
        <time>2018-06-09T08:01:03.000Z</time>
      </trkpt>
      <trkpt lat="43.002148" lon="-2.412289">
        <ele>999.423818923437</ele>
        <time>2018-06-09T08:01:05.000Z</time>
      </trkpt>
      <trkpt lat="43.002153" lon="-2.412313">
        <ele>999.1706983544</ele>
        <time>2018-06-09T08:01:06.000Z</time>
      </trkpt>
      <trkpt lat="43.002158" lon="-2.412336">
        <ele>998.869563309909</ele>
        <time>2018-06-09T08:01:07.000Z</time>
      </trkpt>
      <trkpt lat="43.002177" lon="-2.412374">
        <ele>998.723106727344</ele>
        <time>2018-06-09T08:01:09.000Z</time>
      </trkpt>
      <trkpt lat="43.002189" lon="-2.412397">
        <ele>998.700012207031</ele>
        <time>2018-06-09T08:01:10.000Z</time>
      </trkpt>
      <trkpt lat="43.002203" lon="-2.41242">
        <ele>998.622328546892</ele>
        <time>2018-06-09T08:01:11.000Z</time>
      </trkpt>
      <trkpt lat="43.002214" lon="-2.41244">
        <ele>998.599975585938</ele>
        <time>2018-06-09T08:01:12.000Z</time>
      </trkpt>
      <trkpt lat="43.002226" lon="-2.41246">
        <ele>998.132124393249</ele>
        <time>2018-06-09T08:01:13.000Z</time>
      </trkpt>
      <trkpt lat="43.002237" lon="-2.412483">
        <ele>997.764833651149</ele>
        <time>2018-06-09T08:01:14.000Z</time>
      </trkpt>
      <trkpt lat="43.002246" lon="-2.412507">
        <ele>997.621483619531</ele>
        <time>2018-06-09T08:01:15.000Z</time>
      </trkpt>
      <trkpt lat="43.002262" lon="-2.412551">
        <ele>997.127453162537</ele>
        <time>2018-06-09T08:01:17.000Z</time>
      </trkpt>
      <trkpt lat="43.002271" lon="-2.412575">
        <ele>997</ele>
        <time>2018-06-09T08:01:18.000Z</time>
      </trkpt>
      <trkpt lat="43.002285" lon="-2.412615">
        <ele>997</ele>
        <time>2018-06-09T08:01:20.000Z</time>
      </trkpt>
      <trkpt lat="43.002299" lon="-2.412657">
        <ele>996.320274492634</ele>
        <time>2018-06-09T08:01:22.000Z</time>
      </trkpt>
      <trkpt lat="43.002311" lon="-2.412699">
        <ele>995.62023520284</ele>
        <time>2018-06-09T08:01:24.000Z</time>
      </trkpt>
      <trkpt lat="43.00232" lon="-2.412734">
        <ele>995.420039514326</ele>
        <time>2018-06-09T08:01:26.000Z</time>
      </trkpt>
      <trkpt lat="43.002326" lon="-2.412761">
        <ele>994.398181923894</ele>
        <time>2018-06-09T08:01:28.000Z</time>
      </trkpt>
      <trkpt lat="43.002336" lon="-2.412783">
        <ele>993.799987792969</ele>
        <time>2018-06-09T08:01:31.000Z</time>
      </trkpt>
      <trkpt lat="43.002341" lon="-2.412808">
        <ele>993.299987792969</ele>
        <time>2018-06-09T08:01:36.000Z</time>
      </trkpt>
      <trkpt lat="43.002354" lon="-2.412838">
        <ele>993.05517367307</ele>
        <time>2018-06-09T08:01:38.000Z</time>
      </trkpt>
      <trkpt lat="43.002362" lon="-2.412864">
        <ele>992.918256696847</ele>
        <time>2018-06-09T08:01:40.000Z</time>
      </trkpt>
      <trkpt lat="43.00237" lon="-2.412888">
        <ele>991.919342210262</ele>
        <time>2018-06-09T08:01:50.000Z</time>
      </trkpt>
      <trkpt lat="43.002378" lon="-2.412922">
        <ele>991.799987792969</ele>
        <time>2018-06-09T08:01:52.000Z</time>
      </trkpt>
      <trkpt lat="43.002392" lon="-2.412954">
        <ele>991.356500262067</ele>
        <time>2018-06-09T08:01:54.000Z</time>
      </trkpt>
      <trkpt lat="43.002403" lon="-2.412986">
        <ele>991.136651374057</ele>
        <time>2018-06-09T08:01:56.000Z</time>
      </trkpt>
      <trkpt lat="43.002414" lon="-2.413021">
        <ele>990.754720186205</ele>
        <time>2018-06-09T08:01:58.000Z</time>
      </trkpt>
      <trkpt lat="43.002432" lon="-2.413057">
        <ele>990.099975585938</ele>
        <time>2018-06-09T08:02:00.000Z</time>
      </trkpt>
      <trkpt lat="43.00244" lon="-2.413074">
        <ele>989.023397586962</ele>
        <time>2018-06-09T08:02:01.000Z</time>
      </trkpt>
      <trkpt lat="43.002457" lon="-2.413111">
        <ele>988.366659385453</ele>
        <time>2018-06-09T08:02:03.000Z</time>
      </trkpt>
      <trkpt lat="43.002473" lon="-2.413141">
        <ele>988.016328354085</ele>
        <time>2018-06-09T08:02:05.000Z</time>
      </trkpt>
      <trkpt lat="43.002487" lon="-2.413182">
        <ele>987.732014160156</ele>
        <time>2018-06-09T08:02:07.000Z</time>
      </trkpt>
      <trkpt lat="43.002499" lon="-2.413218">
        <ele>987.5</ele>
        <time>2018-06-09T08:02:09.000Z</time>
      </trkpt>
      <trkpt lat="43.002507" lon="-2.413238">
        <ele>986.567722993911</ele>
        <time>2018-06-09T08:02:10.000Z</time>
      </trkpt>
      <trkpt lat="43.002523" lon="-2.413279">
        <ele>985.662318913115</ele>
        <time>2018-06-09T08:02:12.000Z</time>
      </trkpt>
      <trkpt lat="43.002535" lon="-2.41332">
        <ele>985.515041710745</ele>
        <time>2018-06-09T08:02:14.000Z</time>
      </trkpt>
      <trkpt lat="43.002542" lon="-2.413353">
        <ele>984.991403168221</ele>
        <time>2018-06-09T08:02:16.000Z</time>
      </trkpt>
      <trkpt lat="43.002549" lon="-2.41338">
        <ele>984.214537511158</ele>
        <time>2018-06-09T08:02:18.000Z</time>
      </trkpt>
      <trkpt lat="43.00256" lon="-2.413432">
        <ele>983.342442012785</ele>
        <time>2018-06-09T08:02:20.000Z</time>
      </trkpt>
      <trkpt lat="43.00256" lon="-2.413458">
        <ele>982.597591893133</ele>
        <time>2018-06-09T08:02:21.000Z</time>
      </trkpt>
      <trkpt lat="43.002555" lon="-2.413503">
        <ele>982.227551387465</ele>
        <time>2018-06-09T08:02:23.000Z</time>
      </trkpt>
      <trkpt lat="43.00256" lon="-2.413542">
        <ele>981.552911436369</ele>
        <time>2018-06-09T08:02:25.000Z</time>
      </trkpt>
      <trkpt lat="43.002561" lon="-2.413566">
        <ele>980.207045798325</ele>
        <time>2018-06-09T08:02:26.000Z</time>
      </trkpt>
      <trkpt lat="43.002567" lon="-2.41361">
        <ele>979.040279754833</ele>
        <time>2018-06-09T08:02:28.000Z</time>
      </trkpt>
      <trkpt lat="43.002576" lon="-2.413654">
        <ele>977.99623122442</ele>
        <time>2018-06-09T08:02:30.000Z</time>
      </trkpt>
      <trkpt lat="43.00259" lon="-2.413699">
        <ele>977.41324712392</ele>
        <time>2018-06-09T08:02:32.000Z</time>
      </trkpt>
      <trkpt lat="43.002597" lon="-2.41372">
        <ele>976.365648425205</ele>
        <time>2018-06-09T08:02:33.000Z</time>
      </trkpt>
      <trkpt lat="43.002605" lon="-2.413742">
        <ele>976.200012207031</ele>
        <time>2018-06-09T08:02:34.000Z</time>
      </trkpt>
      <trkpt lat="43.002618" lon="-2.41378">
        <ele>975.726895002161</ele>
        <time>2018-06-09T08:02:36.000Z</time>
      </trkpt>
      <trkpt lat="43.002633" lon="-2.413821">
        <ele>975.439740348343</ele>
        <time>2018-06-09T08:02:38.000Z</time>
      </trkpt>
      <trkpt lat="43.002644" lon="-2.413858">
        <ele>975.299987792969</ele>
        <time>2018-06-09T08:02:40.000Z</time>
      </trkpt>
      <trkpt lat="43.002655" lon="-2.413896">
        <ele>974.824588334375</ele>
        <time>2018-06-09T08:02:42.000Z</time>
      </trkpt>
      <trkpt lat="43.002662" lon="-2.413917">
        <ele>973.473871663937</ele>
        <time>2018-06-09T08:02:43.000Z</time>
      </trkpt>
      <trkpt lat="43.002677" lon="-2.413958">
        <ele>973.033932018352</ele>
        <time>2018-06-09T08:02:45.000Z</time>
      </trkpt>
      <trkpt lat="43.002694" lon="-2.413995">
        <ele>972.810544311388</ele>
        <time>2018-06-09T08:02:47.000Z</time>
      </trkpt>
      <trkpt lat="43.002703" lon="-2.414036">
        <ele>972.420860942317</ele>
        <time>2018-06-09T08:02:49.000Z</time>
      </trkpt>
      <trkpt lat="43.002712" lon="-2.414082">
        <ele>971.810271191111</ele>
        <time>2018-06-09T08:02:51.000Z</time>
      </trkpt>
      <trkpt lat="43.002719" lon="-2.414106">
        <ele>970.903884062933</ele>
        <time>2018-06-09T08:02:52.000Z</time>
      </trkpt>
      <trkpt lat="43.002728" lon="-2.414131">
        <ele>969.631699473294</ele>
        <time>2018-06-09T08:02:53.000Z</time>
      </trkpt>
      <trkpt lat="43.002737" lon="-2.414155">
        <ele>969.409760894171</ele>
        <time>2018-06-09T08:02:54.000Z</time>
      </trkpt>
      <trkpt lat="43.002747" lon="-2.41418">
        <ele>969.309328983886</ele>
        <time>2018-06-09T08:02:55.000Z</time>
      </trkpt>
      <trkpt lat="43.002754" lon="-2.414203">
        <ele>968.845121956533</ele>
        <time>2018-06-09T08:02:56.000Z</time>
      </trkpt>
      <trkpt lat="43.002763" lon="-2.414224">
        <ele>968.799987792969</ele>
        <time>2018-06-09T08:02:57.000Z</time>
      </trkpt>
      <trkpt lat="43.002768" lon="-2.41425">
        <ele>968.799987792969</ele>
        <time>2018-06-09T08:02:58.000Z</time>
      </trkpt>
      <trkpt lat="43.002777" lon="-2.414274">
        <ele>968.253143164403</ele>
        <time>2018-06-09T08:02:59.000Z</time>
      </trkpt>
      <trkpt lat="43.002783" lon="-2.414297">
        <ele>967.925627063146</ele>
        <time>2018-06-09T08:03:00.000Z</time>
      </trkpt>
      <trkpt lat="43.0028" lon="-2.414338">
        <ele>967.607709773188</ele>
        <time>2018-06-09T08:03:02.000Z</time>
      </trkpt>
      <trkpt lat="43.002808" lon="-2.414378">
        <ele>967.016216859663</ele>
        <time>2018-06-09T08:03:04.000Z</time>
      </trkpt>
      <trkpt lat="43.002817" lon="-2.414422">
        <ele>966.229786960991</ele>
        <time>2018-06-09T08:03:06.000Z</time>
      </trkpt>
      <trkpt lat="43.00283" lon="-2.414465">
        <ele>965.353246374149</ele>
        <time>2018-06-09T08:03:08.000Z</time>
      </trkpt>
      <trkpt lat="43.002842" lon="-2.414502">
        <ele>964.707038879689</ele>
        <time>2018-06-09T08:03:10.000Z</time>
      </trkpt>
      <trkpt lat="43.002852" lon="-2.414542">
        <ele>964.406828994855</ele>
        <time>2018-06-09T08:03:12.000Z</time>
      </trkpt>
      <trkpt lat="43.002856" lon="-2.414589">
        <ele>964.118598166222</ele>
        <time>2018-06-09T08:03:14.000Z</time>
      </trkpt>
      <trkpt lat="43.002856" lon="-2.414629">
        <ele>963.906229415386</ele>
        <time>2018-06-09T08:03:16.000Z</time>
      </trkpt>
      <trkpt lat="43.00286" lon="-2.414674">
        <ele>963.310068408203</ele>
        <time>2018-06-09T08:03:18.000Z</time>
      </trkpt>
      <trkpt lat="43.002864" lon="-2.414699">
        <ele>962.91887980849</ele>
        <time>2018-06-09T08:03:19.000Z</time>
      </trkpt>
      <trkpt lat="43.002869" lon="-2.414724">
        <ele>961.657357926273</ele>
        <time>2018-06-09T08:03:20.000Z</time>
      </trkpt>
      <trkpt lat="43.002874" lon="-2.41475">
        <ele>961.599975585938</ele>
        <time>2018-06-09T08:03:21.000Z</time>
      </trkpt>
      <trkpt lat="43.00288" lon="-2.414775">
        <ele>961.504675611997</ele>
        <time>2018-06-09T08:03:22.000Z</time>
      </trkpt>
      <trkpt lat="43.002888" lon="-2.414822">
        <ele>960.922848193511</ele>
        <time>2018-06-09T08:03:24.000Z</time>
      </trkpt>
      <trkpt lat="43.002895" lon="-2.414849">
        <ele>960.900024414063</ele>
        <time>2018-06-09T08:03:25.000Z</time>
      </trkpt>
      <trkpt lat="43.002902" lon="-2.414872">
        <ele>961.092391944578</ele>
        <time>2018-06-09T08:03:26.000Z</time>
      </trkpt>
      <trkpt lat="43.002911" lon="-2.414913">
        <ele>960.803302119926</ele>
        <time>2018-06-09T08:03:28.000Z</time>
      </trkpt>
      <trkpt lat="43.00292" lon="-2.414953">
        <ele>960.307015415624</ele>
        <time>2018-06-09T08:03:30.000Z</time>
      </trkpt>
      <trkpt lat="43.002924" lon="-2.414977">
        <ele>960.299987792969</ele>
        <time>2018-06-09T08:03:31.000Z</time>
      </trkpt>
      <trkpt lat="43.002937" lon="-2.415018">
        <ele>960.299987792969</ele>
        <time>2018-06-09T08:03:33.000Z</time>
      </trkpt>
      <trkpt lat="43.002949" lon="-2.415059">
        <ele>960.299987792969</ele>
        <time>2018-06-09T08:03:35.000Z</time>
      </trkpt>
      <trkpt lat="43.002958" lon="-2.415099">
        <ele>960.299987792969</ele>
        <time>2018-06-09T08:03:37.000Z</time>
      </trkpt>
      <trkpt lat="43.002969" lon="-2.415142">
        <ele>960.002208020432</ele>
        <time>2018-06-09T08:03:39.000Z</time>
      </trkpt>
      <trkpt lat="43.002977" lon="-2.415186">
        <ele>959.800990816901</ele>
        <time>2018-06-09T08:03:41.000Z</time>
      </trkpt>
      <trkpt lat="43.002984" lon="-2.415209">
        <ele>959.5006008229</ele>
        <time>2018-06-09T08:03:42.000Z</time>
      </trkpt>
      <trkpt lat="43.002992" lon="-2.415247">
        <ele>959.098378271742</ele>
        <time>2018-06-09T08:03:44.000Z</time>
      </trkpt>
      <trkpt lat="43.003001" lon="-2.415287">
        <ele>958.700012207031</ele>
        <time>2018-06-09T08:03:46.000Z</time>
      </trkpt>
      <trkpt lat="43.003009" lon="-2.415328">
        <ele>958.601182691496</ele>
        <time>2018-06-09T08:03:48.000Z</time>
      </trkpt>
      <trkpt lat="43.003015" lon="-2.415352">
        <ele>958.698306636005</ele>
        <time>2018-06-09T08:03:49.000Z</time>
      </trkpt>
      <trkpt lat="43.003021" lon="-2.415378">
        <ele>958.601983723528</ele>
        <time>2018-06-09T08:03:50.000Z</time>
      </trkpt>
      <trkpt lat="43.00303" lon="-2.415405">
        <ele>958.690363330396</ele>
        <time>2018-06-09T08:03:51.000Z</time>
      </trkpt>
      <trkpt lat="43.00304" lon="-2.415431">
        <ele>958.299987792969</ele>
        <time>2018-06-09T08:03:52.000Z</time>
      </trkpt>
      <trkpt lat="43.003049" lon="-2.415472">
        <ele>958.602888762186</ele>
        <time>2018-06-09T08:03:54.000Z</time>
      </trkpt>
      <trkpt lat="43.003052" lon="-2.415513">
        <ele>959.200012207031</ele>
        <time>2018-06-09T08:03:56.000Z</time>
      </trkpt>
      <trkpt lat="43.003059" lon="-2.415554">
        <ele>959.200012207031</ele>
        <time>2018-06-09T08:03:58.000Z</time>
      </trkpt>
      <trkpt lat="43.003067" lon="-2.415595">
        <ele>958.738027183242</ele>
        <time>2018-06-09T08:04:00.000Z</time>
      </trkpt>
      <trkpt lat="43.003072" lon="-2.415638">
        <ele>957.807212067836</ele>
        <time>2018-06-09T08:04:02.000Z</time>
      </trkpt>
      <trkpt lat="43.003082" lon="-2.415661">
        <ele>957.799987792969</ele>
        <time>2018-06-09T08:04:03.000Z</time>
      </trkpt>
      <trkpt lat="43.003091" lon="-2.415686">
        <ele>957.707131958674</ele>
        <time>2018-06-09T08:04:04.000Z</time>
      </trkpt>
      <trkpt lat="43.003099" lon="-2.415727">
        <ele>957.793570133294</ele>
        <time>2018-06-09T08:04:06.000Z</time>
      </trkpt>
      <trkpt lat="43.003105" lon="-2.415767">
        <ele>957.799987792969</ele>
        <time>2018-06-09T08:04:08.000Z</time>
      </trkpt>
      <trkpt lat="43.003112" lon="-2.415808">
        <ele>956.567170854006</ele>
        <time>2018-06-09T08:04:10.000Z</time>
      </trkpt>
      <trkpt lat="43.003115" lon="-2.415835">
        <ele>956.5</ele>
        <time>2018-06-09T08:04:11.000Z</time>
      </trkpt>
      <trkpt lat="43.003118" lon="-2.41586">
        <ele>956.133642734063</ele>
        <time>2018-06-09T08:04:12.000Z</time>
      </trkpt>
      <trkpt lat="43.003127" lon="-2.4159">
        <ele>956.099975585938</ele>
        <time>2018-06-09T08:04:14.000Z</time>
      </trkpt>
      <trkpt lat="43.003134" lon="-2.415943">
        <ele>955.807126187993</ele>
        <time>2018-06-09T08:04:16.000Z</time>
      </trkpt>
      <trkpt lat="43.003147" lon="-2.415983">
        <ele>955.799987792969</ele>
        <time>2018-06-09T08:04:18.000Z</time>
      </trkpt>
      <trkpt lat="43.003157" lon="-2.416017">
        <ele>955.414879677063</ele>
        <time>2018-06-09T08:04:20.000Z</time>
      </trkpt>
      <trkpt lat="43.003168" lon="-2.416057">
        <ele>954.612814823271</ele>
        <time>2018-06-09T08:04:22.000Z</time>
      </trkpt>
      <trkpt lat="43.003182" lon="-2.416092">
        <ele>953.626459206553</ele>
        <time>2018-06-09T08:04:24.000Z</time>
      </trkpt>
      <trkpt lat="43.003188" lon="-2.416115">
        <ele>953.326113294638</ele>
        <time>2018-06-09T08:04:25.000Z</time>
      </trkpt>
      <trkpt lat="43.003196" lon="-2.416139">
        <ele>953.299987792969</ele>
        <time>2018-06-09T08:04:26.000Z</time>
      </trkpt>
      <trkpt lat="43.003207" lon="-2.416183">
        <ele>953.024872713957</ele>
        <time>2018-06-09T08:04:28.000Z</time>
      </trkpt>
      <trkpt lat="43.003214" lon="-2.416229">
        <ele>952.615050990793</ele>
        <time>2018-06-09T08:04:30.000Z</time>
      </trkpt>
      <trkpt lat="43.003219" lon="-2.416256">
        <ele>952.599975585938</ele>
        <time>2018-06-09T08:04:31.000Z</time>
      </trkpt>
      <trkpt lat="43.003223" lon="-2.41628">
        <ele>952.599975585938</ele>
        <time>2018-06-09T08:04:32.000Z</time>
      </trkpt>
      <trkpt lat="43.003225" lon="-2.416306">
        <ele>952.599975585938</ele>
        <time>2018-06-09T08:04:33.000Z</time>
      </trkpt>
      <trkpt lat="43.00323" lon="-2.416334">
        <ele>952.599975585938</ele>
        <time>2018-06-09T08:04:34.000Z</time>
      </trkpt>
      <trkpt lat="43.003235" lon="-2.416357">
        <ele>952.146018944982</ele>
        <time>2018-06-09T08:04:35.000Z</time>
      </trkpt>
      <trkpt lat="43.003238" lon="-2.416382">
        <ele>952.008924397543</ele>
        <time>2018-06-09T08:04:36.000Z</time>
      </trkpt>
      <trkpt lat="43.003242" lon="-2.41641">
        <ele>951.542672818167</ele>
        <time>2018-06-09T08:04:37.000Z</time>
      </trkpt>
      <trkpt lat="43.003244" lon="-2.416435">
        <ele>951.408430223392</ele>
        <time>2018-06-09T08:04:38.000Z</time>
      </trkpt>
      <trkpt lat="43.003253" lon="-2.416471">
        <ele>951.315157513331</ele>
        <time>2018-06-09T08:04:40.000Z</time>
      </trkpt>
      <trkpt lat="43.003255" lon="-2.416516">
        <ele>951</ele>
        <time>2018-06-09T08:04:42.000Z</time>
      </trkpt>
      <trkpt lat="43.00326" lon="-2.41654">
        <ele>950.909650903574</ele>
        <time>2018-06-09T08:04:43.000Z</time>
      </trkpt>
      <trkpt lat="43.003277" lon="-2.416582">
        <ele>950.50892451212</ele>
        <time>2018-06-09T08:04:45.000Z</time>
      </trkpt>
      <trkpt lat="43.00328" lon="-2.416608">
        <ele>950.5</ele>
        <time>2018-06-09T08:04:46.000Z</time>
      </trkpt>
      <trkpt lat="43.003283" lon="-2.41665">
        <ele>950.008833127541</ele>
        <time>2018-06-09T08:04:48.000Z</time>
      </trkpt>
      <trkpt lat="43.003286" lon="-2.416692">
        <ele>948.508888142299</ele>
        <time>2018-06-09T08:04:50.000Z</time>
      </trkpt>
      <trkpt lat="43.003288" lon="-2.416734">
        <ele>947.799987792969</ele>
        <time>2018-06-09T08:04:52.000Z</time>
      </trkpt>
      <trkpt lat="43.003292" lon="-2.416761">
        <ele>947.616994575353</ele>
        <time>2018-06-09T08:04:53.000Z</time>
      </trkpt>
      <trkpt lat="43.003294" lon="-2.416786">
        <ele>947.232906871369</ele>
        <time>2018-06-09T08:04:54.000Z</time>
      </trkpt>
      <trkpt lat="43.003304" lon="-2.416831">
        <ele>947</ele>
        <time>2018-06-09T08:04:56.000Z</time>
      </trkpt>
      <trkpt lat="43.003314" lon="-2.416872">
        <ele>946.607221722664</ele>
        <time>2018-06-09T08:04:58.000Z</time>
      </trkpt>
      <trkpt lat="43.003317" lon="-2.416916">
        <ele>945.706348869156</ele>
        <time>2018-06-09T08:05:00.000Z</time>
      </trkpt>
      <trkpt lat="43.003318" lon="-2.416957">
        <ele>944.840708749575</ele>
        <time>2018-06-09T08:05:02.000Z</time>
      </trkpt>
      <trkpt lat="43.00332" lon="-2.417008">
        <ele>944.605654832642</ele>
        <time>2018-06-09T08:05:04.000Z</time>
      </trkpt>
      <trkpt lat="43.003324" lon="-2.417052">
        <ele>944.104801496467</ele>
        <time>2018-06-09T08:05:06.000Z</time>
      </trkpt>
      <trkpt lat="43.003329" lon="-2.417093">
        <ele>943.5</ele>
        <time>2018-06-09T08:05:08.000Z</time>
      </trkpt>
      <trkpt lat="43.003334" lon="-2.417128">
        <ele>942.104189479297</ele>
        <time>2018-06-09T08:05:10.000Z</time>
      </trkpt>
      <trkpt lat="43.003342" lon="-2.41717">
        <ele>942.004512898283</ele>
        <time>2018-06-09T08:05:12.000Z</time>
      </trkpt>
      <trkpt lat="43.003345" lon="-2.417215">
        <ele>941.607599525066</ele>
        <time>2018-06-09T08:05:14.000Z</time>
      </trkpt>
      <trkpt lat="43.00335" lon="-2.417239">
        <ele>941.310517599439</ele>
        <time>2018-06-09T08:05:15.000Z</time>
      </trkpt>
      <trkpt lat="43.003354" lon="-2.417265">
        <ele>941.203317842098</ele>
        <time>2018-06-09T08:05:16.000Z</time>
      </trkpt>
      <trkpt lat="43.003358" lon="-2.417309">
        <ele>941.006394006849</ele>
        <time>2018-06-09T08:05:18.000Z</time>
      </trkpt>
      <trkpt lat="43.003359" lon="-2.417338">
        <ele>941</ele>
        <time>2018-06-09T08:05:19.000Z</time>
      </trkpt>
      <trkpt lat="43.003365" lon="-2.417384">
        <ele>940.603545376435</ele>
        <time>2018-06-09T08:05:21.000Z</time>
      </trkpt>
      <trkpt lat="43.003365" lon="-2.417412">
        <ele>940.116524565267</ele>
        <time>2018-06-09T08:05:22.000Z</time>
      </trkpt>
      <trkpt lat="43.003369" lon="-2.41744">
        <ele>939.615991576302</ele>
        <time>2018-06-09T08:05:23.000Z</time>
      </trkpt>
      <trkpt lat="43.003372" lon="-2.417467">
        <ele>938.628094280757</ele>
        <time>2018-06-09T08:05:24.000Z</time>
      </trkpt>
      <trkpt lat="43.003382" lon="-2.41751">
        <ele>937.526452233883</ele>
        <time>2018-06-09T08:05:26.000Z</time>
      </trkpt>
      <trkpt lat="43.003386" lon="-2.417534">
        <ele>937.108403261323</ele>
        <time>2018-06-09T08:05:27.000Z</time>
      </trkpt>
      <trkpt lat="43.003387" lon="-2.417561">
        <ele>936.70880390362</ele>
        <time>2018-06-09T08:05:28.000Z</time>
      </trkpt>
      <trkpt lat="43.003385" lon="-2.417586">
        <ele>936.700012207031</ele>
        <time>2018-06-09T08:05:29.000Z</time>
      </trkpt>
      <trkpt lat="43.003385" lon="-2.417613">
        <ele>936.700012207031</ele>
        <time>2018-06-09T08:05:30.000Z</time>
      </trkpt>
      <trkpt lat="43.00339" lon="-2.417654">
        <ele>936.601177865981</ele>
        <time>2018-06-09T08:05:32.000Z</time>
      </trkpt>
      <trkpt lat="43.003392" lon="-2.417698">
        <ele>936.599975585938</ele>
        <time>2018-06-09T08:05:34.000Z</time>
      </trkpt>
      <trkpt lat="43.003394" lon="-2.417722">
        <ele>936.599975585938</ele>
        <time>2018-06-09T08:05:35.000Z</time>
      </trkpt>
      <trkpt lat="43.003397" lon="-2.417747">
        <ele>935.900723245313</ele>
        <time>2018-06-09T08:05:36.000Z</time>
      </trkpt>
      <trkpt lat="43.003406" lon="-2.41779">
        <ele>935.699210225221</ele>
        <time>2018-06-09T08:05:38.000Z</time>
      </trkpt>
      <trkpt lat="43.003412" lon="-2.417834">
        <ele>935.399018370801</ele>
        <time>2018-06-09T08:05:40.000Z</time>
      </trkpt>
      <trkpt lat="43.003421" lon="-2.417878">
        <ele>934.596078245678</ele>
        <time>2018-06-09T08:05:42.000Z</time>
      </trkpt>
      <trkpt lat="43.003431" lon="-2.41792">
        <ele>933.997388451771</ele>
        <time>2018-06-09T08:05:44.000Z</time>
      </trkpt>
      <trkpt lat="43.003436" lon="-2.417959">
        <ele>933.889987401776</ele>
        <time>2018-06-09T08:05:46.000Z</time>
      </trkpt>
      <trkpt lat="43.00344" lon="-2.417999">
        <ele>933.384979395755</ele>
        <time>2018-06-09T08:05:48.000Z</time>
      </trkpt>
      <trkpt lat="43.003446" lon="-2.41804">
        <ele>932.599975585938</ele>
        <time>2018-06-09T08:05:50.000Z</time>
      </trkpt>
      <trkpt lat="43.003449" lon="-2.418082">
        <ele>932.599975585938</ele>
        <time>2018-06-09T08:05:52.000Z</time>
      </trkpt>
      <trkpt lat="43.003453" lon="-2.418127">
        <ele>932.599975585938</ele>
        <time>2018-06-09T08:05:54.000Z</time>
      </trkpt>
      <trkpt lat="43.003455" lon="-2.418171">
        <ele>932.45105047121</ele>
        <time>2018-06-09T08:05:56.000Z</time>
      </trkpt>
      <trkpt lat="43.003463" lon="-2.418214">
        <ele>931.016536109367</ele>
        <time>2018-06-09T08:05:58.000Z</time>
      </trkpt>
      <trkpt lat="43.00347" lon="-2.418242">
        <ele>929.5</ele>
        <time>2018-06-09T08:05:59.000Z</time>
      </trkpt>
      <trkpt lat="43.00347" lon="-2.418271">
        <ele>929.478085814182</ele>
        <time>2018-06-09T08:06:00.000Z</time>
      </trkpt>
      <trkpt lat="43.003468" lon="-2.418296">
        <ele>929.099975585938</ele>
        <time>2018-06-09T08:06:01.000Z</time>
      </trkpt>
      <trkpt lat="43.003468" lon="-2.418321">
        <ele>929.094554936469</ele>
        <time>2018-06-09T08:06:02.000Z</time>
      </trkpt>
      <trkpt lat="43.003467" lon="-2.418348">
        <ele>929</ele>
        <time>2018-06-09T08:06:03.000Z</time>
      </trkpt>
      <trkpt lat="43.003472" lon="-2.418397">
        <ele>928.887798296263</ele>
        <time>2018-06-09T08:06:05.000Z</time>
      </trkpt>
      <trkpt lat="43.003478" lon="-2.418421">
        <ele>928.700012207031</ele>
        <time>2018-06-09T08:06:06.000Z</time>
      </trkpt>
      <trkpt lat="43.003484" lon="-2.418445">
        <ele>928.687063445767</ele>
        <time>2018-06-09T08:06:07.000Z</time>
      </trkpt>
      <trkpt lat="43.003487" lon="-2.41847">
        <ele>928.487761638974</ele>
        <time>2018-06-09T08:06:08.000Z</time>
      </trkpt>
      <trkpt lat="43.003496" lon="-2.418517">
        <ele>927.900024414063</ele>
        <time>2018-06-09T08:06:10.000Z</time>
      </trkpt>
      <trkpt lat="43.003503" lon="-2.418563">
        <ele>927.400024414063</ele>
        <time>2018-06-09T08:06:12.000Z</time>
      </trkpt>
      <trkpt lat="43.003503" lon="-2.418607">
        <ele>926.963537204455</ele>
        <time>2018-06-09T08:06:14.000Z</time>
      </trkpt>
      <trkpt lat="43.003505" lon="-2.418651">
        <ele>926.292989182031</ele>
        <time>2018-06-09T08:06:16.000Z</time>
      </trkpt>
      <trkpt lat="43.003506" lon="-2.418697">
        <ele>926.057679232854</ele>
        <time>2018-06-09T08:06:18.000Z</time>
      </trkpt>
      <trkpt lat="43.003508" lon="-2.418736">
        <ele>925.077174885599</ele>
        <time>2018-06-09T08:06:20.000Z</time>
      </trkpt>
      <trkpt lat="43.003508" lon="-2.418762">
        <ele>924.777121859898</ele>
        <time>2018-06-09T08:06:21.000Z</time>
      </trkpt>
      <trkpt lat="43.003506" lon="-2.418787">
        <ele>924.5</ele>
        <time>2018-06-09T08:06:22.000Z</time>
      </trkpt>
      <trkpt lat="43.003506" lon="-2.418815">
        <ele>924.467998046875</ele>
        <time>2018-06-09T08:06:23.000Z</time>
      </trkpt>
      <trkpt lat="43.003507" lon="-2.418844">
        <ele>924.091977539063</ele>
        <time>2018-06-09T08:06:24.000Z</time>
      </trkpt>
      <trkpt lat="43.003509" lon="-2.418871">
        <ele>923.992009930411</ele>
        <time>2018-06-09T08:06:25.000Z</time>
      </trkpt>
      <trkpt lat="43.003507" lon="-2.418899">
        <ele>923.8207854776</ele>
        <time>2018-06-09T08:06:26.000Z</time>
      </trkpt>
      <trkpt lat="43.003506" lon="-2.41894">
        <ele>922.400024414063</ele>
        <time>2018-06-09T08:06:28.000Z</time>
      </trkpt>
      <trkpt lat="43.003514" lon="-2.418979">
        <ele>922.172577452352</ele>
        <time>2018-06-09T08:06:30.000Z</time>
      </trkpt>
      <trkpt lat="43.003516" lon="-2.419016">
        <ele>921.900024414063</ele>
        <time>2018-06-09T08:06:32.000Z</time>
      </trkpt>
      <trkpt lat="43.00352" lon="-2.419051">
        <ele>921.900024414063</ele>
        <time>2018-06-09T08:06:34.000Z</time>
      </trkpt>
      <trkpt lat="43.003519" lon="-2.4191">
        <ele>921.76662204324</ele>
        <time>2018-06-09T08:06:36.000Z</time>
      </trkpt>
      <trkpt lat="43.00352" lon="-2.419125">
        <ele>921.432000045286</ele>
        <time>2018-06-09T08:06:37.000Z</time>
      </trkpt>
      <trkpt lat="43.003521" lon="-2.419153">
        <ele>920.830283855624</ele>
        <time>2018-06-09T08:06:38.000Z</time>
      </trkpt>
      <trkpt lat="43.003525" lon="-2.419194">
        <ele>920.075030858612</ele>
        <time>2018-06-09T08:06:40.000Z</time>
      </trkpt>
      <trkpt lat="43.003526" lon="-2.419239">
        <ele>919.287629424619</ele>
        <time>2018-06-09T08:06:42.000Z</time>
      </trkpt>
      <trkpt lat="43.00353" lon="-2.419282">
        <ele>919.099975585938</ele>
        <time>2018-06-09T08:06:44.000Z</time>
      </trkpt>
      <trkpt lat="43.003536" lon="-2.419324">
        <ele>918.686224580118</ele>
        <time>2018-06-09T08:06:46.000Z</time>
      </trkpt>
      <trkpt lat="43.003539" lon="-2.419365">
        <ele>918.341045336246</ele>
        <time>2018-06-09T08:06:48.000Z</time>
      </trkpt>
      <trkpt lat="43.003546" lon="-2.419411">
        <ele>918</ele>
        <time>2018-06-09T08:06:50.000Z</time>
      </trkpt>
      <trkpt lat="43.003548" lon="-2.419439">
        <ele>917.953409704173</ele>
        <time>2018-06-09T08:06:51.000Z</time>
      </trkpt>
      <trkpt lat="43.003546" lon="-2.419482">
        <ele>917.636280425535</ele>
        <time>2018-06-09T08:06:53.000Z</time>
      </trkpt>
      <trkpt lat="43.003546" lon="-2.419506">
        <ele>917.283907937721</ele>
        <time>2018-06-09T08:06:54.000Z</time>
      </trkpt>
      <trkpt lat="43.003554" lon="-2.41955">
        <ele>917.200012207031</ele>
        <time>2018-06-09T08:06:56.000Z</time>
      </trkpt>
      <trkpt lat="43.003564" lon="-2.419573">
        <ele>917.183708721447</ele>
        <time>2018-06-09T08:06:57.000Z</time>
      </trkpt>
      <trkpt lat="43.003566" lon="-2.419598">
        <ele>917.066484102753</ele>
        <time>2018-06-09T08:06:58.000Z</time>
      </trkpt>
      <trkpt lat="43.003566" lon="-2.419624">
        <ele>916.900024414063</ele>
        <time>2018-06-09T08:06:59.000Z</time>
      </trkpt>
      <trkpt lat="43.003565" lon="-2.419671">
        <ele>916.782775226684</ele>
        <time>2018-06-09T08:07:01.000Z</time>
      </trkpt>
      <trkpt lat="43.003566" lon="-2.419694">
        <ele>916.544148048505</ele>
        <time>2018-06-09T08:07:02.000Z</time>
      </trkpt>
      <trkpt lat="43.003567" lon="-2.419742">
        <ele>915.764207185371</ele>
        <time>2018-06-09T08:07:04.000Z</time>
      </trkpt>
      <trkpt lat="43.003567" lon="-2.419784">
        <ele>915.564113216921</ele>
        <time>2018-06-09T08:07:06.000Z</time>
      </trkpt>
      <trkpt lat="43.003567" lon="-2.41983">
        <ele>915.163047174638</ele>
        <time>2018-06-09T08:07:08.000Z</time>
      </trkpt>
      <trkpt lat="43.00357" lon="-2.419872">
        <ele>914.762636518353</ele>
        <time>2018-06-09T08:07:10.000Z</time>
      </trkpt>
      <trkpt lat="43.003569" lon="-2.419915">
        <ele>914.200012207031</ele>
        <time>2018-06-09T08:07:12.000Z</time>
      </trkpt>
      <trkpt lat="43.003564" lon="-2.419961">
        <ele>914</ele>
        <time>2018-06-09T08:07:14.000Z</time>
      </trkpt>
      <trkpt lat="43.003555" lon="-2.420002">
        <ele>913.95879082128</ele>
        <time>2018-06-09T08:07:16.000Z</time>
      </trkpt>
      <trkpt lat="43.003544" lon="-2.420042">
        <ele>913.578594920424</ele>
        <time>2018-06-09T08:07:18.000Z</time>
      </trkpt>
      <trkpt lat="43.003533" lon="-2.42008">
        <ele>913.256367151476</ele>
        <time>2018-06-09T08:07:20.000Z</time>
      </trkpt>
      <trkpt lat="43.003518" lon="-2.420116">
        <ele>912.622642369376</ele>
        <time>2018-06-09T08:07:22.000Z</time>
      </trkpt>
      <trkpt lat="43.003506" lon="-2.420155">
        <ele>912.599975585938</ele>
        <time>2018-06-09T08:07:24.000Z</time>
      </trkpt>
      <trkpt lat="43.003497" lon="-2.420193">
        <ele>912.293978825673</ele>
        <time>2018-06-09T08:07:26.000Z</time>
      </trkpt>
      <trkpt lat="43.003488" lon="-2.420231">
        <ele>912.771553114603</ele>
        <time>2018-06-09T08:07:28.000Z</time>
      </trkpt>
      <trkpt lat="43.003485" lon="-2.420266">
        <ele>913.12405650216</ele>
        <time>2018-06-09T08:07:30.000Z</time>
      </trkpt>
      <trkpt lat="43.003485" lon="-2.420301">
        <ele>913.200012207031</ele>
        <time>2018-06-09T08:07:32.000Z</time>
      </trkpt>
      <trkpt lat="43.003479" lon="-2.420342">
        <ele>913.075407501173</ele>
        <time>2018-06-09T08:07:34.000Z</time>
      </trkpt>
      <trkpt lat="43.003482" lon="-2.42038">
        <ele>913</ele>
        <time>2018-06-09T08:07:36.000Z</time>
      </trkpt>
      <trkpt lat="43.003487" lon="-2.420417">
        <ele>912.900024414063</ele>
        <time>2018-06-09T08:07:38.000Z</time>
      </trkpt>
      <trkpt lat="43.003493" lon="-2.420454">
        <ele>912.900024414063</ele>
        <time>2018-06-09T08:07:40.000Z</time>
      </trkpt>
      <trkpt lat="43.003503" lon="-2.420492">
        <ele>912.549034770507</ele>
        <time>2018-06-09T08:07:42.000Z</time>
      </trkpt>
      <trkpt lat="43.003508" lon="-2.420527">
        <ele>912.400024414063</ele>
        <time>2018-06-09T08:07:44.000Z</time>
      </trkpt>
      <trkpt lat="43.003507" lon="-2.420563">
        <ele>912.400024414063</ele>
        <time>2018-06-09T08:07:46.000Z</time>
      </trkpt>
      <trkpt lat="43.003512" lon="-2.420601">
        <ele>912.37398920601</ele>
        <time>2018-06-09T08:07:48.000Z</time>
      </trkpt>
      <trkpt lat="43.003521" lon="-2.420638">
        <ele>912.5</ele>
        <time>2018-06-09T08:07:50.000Z</time>
      </trkpt>
      <trkpt lat="43.003537" lon="-2.420673">
        <ele>912.373635582829</ele>
        <time>2018-06-09T08:07:52.000Z</time>
      </trkpt>
      <trkpt lat="43.003554" lon="-2.420708">
        <ele>912.299987792969</ele>
        <time>2018-06-09T08:07:54.000Z</time>
      </trkpt>
      <trkpt lat="43.003569" lon="-2.420741">
        <ele>912.299987792969</ele>
        <time>2018-06-09T08:07:56.000Z</time>
      </trkpt>
      <trkpt lat="43.003587" lon="-2.420773">
        <ele>911.782477584238</ele>
        <time>2018-06-09T08:07:58.000Z</time>
      </trkpt>
      <trkpt lat="43.003605" lon="-2.420808">
        <ele>912</ele>
        <time>2018-06-09T08:08:00.000Z</time>
      </trkpt>
      <trkpt lat="43.003624" lon="-2.420838">
        <ele>912</ele>
        <time>2018-06-09T08:08:02.000Z</time>
      </trkpt>
      <trkpt lat="43.003641" lon="-2.420868">
        <ele>912.099975585938</ele>
        <time>2018-06-09T08:08:04.000Z</time>
      </trkpt>
      <trkpt lat="43.003659" lon="-2.420904">
        <ele>912.099975585938</ele>
        <time>2018-06-09T08:08:06.000Z</time>
      </trkpt>
      <trkpt lat="43.003678" lon="-2.420944">
        <ele>912.072437951212</ele>
        <time>2018-06-09T08:08:08.000Z</time>
      </trkpt>
      <trkpt lat="43.003698" lon="-2.420978">
        <ele>912</ele>
        <time>2018-06-09T08:08:10.000Z</time>
      </trkpt>
      <trkpt lat="43.003718" lon="-2.421009">
        <ele>911.92769050942</ele>
        <time>2018-06-09T08:08:12.000Z</time>
      </trkpt>
      <trkpt lat="43.003741" lon="-2.421043">
        <ele>911.916685614676</ele>
        <time>2018-06-09T08:08:14.000Z</time>
      </trkpt>
      <trkpt lat="43.003761" lon="-2.421077">
        <ele>911.672592515278</ele>
        <time>2018-06-09T08:08:16.000Z</time>
      </trkpt>
      <trkpt lat="43.003782" lon="-2.421113">
        <ele>911.5</ele>
        <time>2018-06-09T08:08:18.000Z</time>
      </trkpt>
      <trkpt lat="43.003793" lon="-2.421135">
        <ele>911.5</ele>
        <time>2018-06-09T08:08:19.000Z</time>
      </trkpt>
      <trkpt lat="43.003814" lon="-2.421171">
        <ele>911.400024414063</ele>
        <time>2018-06-09T08:08:21.000Z</time>
      </trkpt>
      <trkpt lat="43.003834" lon="-2.421206">
        <ele>911.400024414063</ele>
        <time>2018-06-09T08:08:23.000Z</time>
      </trkpt>
      <trkpt lat="43.003854" lon="-2.421239">
        <ele>911.5</ele>
        <time>2018-06-09T08:08:25.000Z</time>
      </trkpt>
      <trkpt lat="43.003877" lon="-2.421275">
        <ele>911.341704622422</ele>
        <time>2018-06-09T08:08:27.000Z</time>
      </trkpt>
      <trkpt lat="43.003901" lon="-2.42131">
        <ele>911</ele>
        <time>2018-06-09T08:08:29.000Z</time>
      </trkpt>
      <trkpt lat="43.003924" lon="-2.421341">
        <ele>910.869893350877</ele>
        <time>2018-06-09T08:08:31.000Z</time>
      </trkpt>
      <trkpt lat="43.003945" lon="-2.421372">
        <ele>910</ele>
        <time>2018-06-09T08:08:33.000Z</time>
      </trkpt>
      <trkpt lat="43.003967" lon="-2.421406">
        <ele>909.900024414063</ele>
        <time>2018-06-09T08:08:35.000Z</time>
      </trkpt>
      <trkpt lat="43.003989" lon="-2.421434">
        <ele>909.667534850778</ele>
        <time>2018-06-09T08:08:37.000Z</time>
      </trkpt>
      <trkpt lat="43.004011" lon="-2.421469">
        <ele>909.632553018586</ele>
        <time>2018-06-09T08:08:39.000Z</time>
      </trkpt>
      <trkpt lat="43.004031" lon="-2.4215">
        <ele>909.533057252751</ele>
        <time>2018-06-09T08:08:41.000Z</time>
      </trkpt>
      <trkpt lat="43.004052" lon="-2.421536">
        <ele>909.599975585938</ele>
        <time>2018-06-09T08:08:43.000Z</time>
      </trkpt>
      <trkpt lat="43.004071" lon="-2.421566">
        <ele>909.566450132875</ele>
        <time>2018-06-09T08:08:45.000Z</time>
      </trkpt>
      <trkpt lat="43.00409" lon="-2.421595">
        <ele>909.431658412863</ele>
        <time>2018-06-09T08:08:47.000Z</time>
      </trkpt>
      <trkpt lat="43.004107" lon="-2.421616">
        <ele>908.830958740805</ele>
        <time>2018-06-09T08:08:49.000Z</time>
      </trkpt>
      <trkpt lat="43.004125" lon="-2.421641">
        <ele>908.248271703625</ele>
        <time>2018-06-09T08:08:51.000Z</time>
      </trkpt>
      <trkpt lat="43.004145" lon="-2.421671">
        <ele>907.364941222446</ele>
        <time>2018-06-09T08:08:53.000Z</time>
      </trkpt>
      <trkpt lat="43.004167" lon="-2.421694">
        <ele>907.200012207031</ele>
        <time>2018-06-09T08:08:55.000Z</time>
      </trkpt>
      <trkpt lat="43.004186" lon="-2.421728">
        <ele>907.064169142582</ele>
        <time>2018-06-09T08:08:57.000Z</time>
      </trkpt>
      <trkpt lat="43.004209" lon="-2.421763">
        <ele>906.96350843125</ele>
        <time>2018-06-09T08:08:59.000Z</time>
      </trkpt>
      <trkpt lat="43.004231" lon="-2.421802">
        <ele>906.863702220185</ele>
        <time>2018-06-09T08:09:01.000Z</time>
      </trkpt>
      <trkpt lat="43.004249" lon="-2.421838">
        <ele>906.799987792969</ele>
        <time>2018-06-09T08:09:03.000Z</time>
      </trkpt>
      <trkpt lat="43.00427" lon="-2.421872">
        <ele>906.799987792969</ele>
        <time>2018-06-09T08:09:05.000Z</time>
      </trkpt>
      <trkpt lat="43.004291" lon="-2.421903">
        <ele>906.700012207031</ele>
        <time>2018-06-09T08:09:07.000Z</time>
      </trkpt>
      <trkpt lat="43.004315" lon="-2.421936">
        <ele>906.663024997847</ele>
        <time>2018-06-09T08:09:09.000Z</time>
      </trkpt>
      <trkpt lat="43.004339" lon="-2.421963">
        <ele>906.524819421805</ele>
        <time>2018-06-09T08:09:11.000Z</time>
      </trkpt>
      <trkpt lat="43.004361" lon="-2.421989">
        <ele>906.262359404473</ele>
        <time>2018-06-09T08:09:13.000Z</time>
      </trkpt>
      <trkpt lat="43.004383" lon="-2.422016">
        <ele>906.162247135518</ele>
        <time>2018-06-09T08:09:15.000Z</time>
      </trkpt>
      <trkpt lat="43.004404" lon="-2.422041">
        <ele>906.223629710212</ele>
        <time>2018-06-09T08:09:17.000Z</time>
      </trkpt>
      <trkpt lat="43.004424" lon="-2.42206">
        <ele>905.961981314666</ele>
        <time>2018-06-09T08:09:19.000Z</time>
      </trkpt>
      <trkpt lat="43.004447" lon="-2.422076">
        <ele>905.86113190428</ele>
        <time>2018-06-09T08:09:21.000Z</time>
      </trkpt>
      <trkpt lat="43.00447" lon="-2.422097">
        <ele>905.700012207031</ele>
        <time>2018-06-09T08:09:23.000Z</time>
      </trkpt>
      <trkpt lat="43.00449" lon="-2.422123">
        <ele>905.941920045601</ele>
        <time>2018-06-09T08:09:25.000Z</time>
      </trkpt>
      <trkpt lat="43.004514" lon="-2.422149">
        <ele>906.299987792969</ele>
        <time>2018-06-09T08:09:27.000Z</time>
      </trkpt>
      <trkpt lat="43.004528" lon="-2.422172">
        <ele>906.5</ele>
        <time>2018-06-09T08:09:29.000Z</time>
      </trkpt>
      <trkpt lat="43.004546" lon="-2.422182">
        <ele>906.275605930155</ele>
        <time>2018-06-09T08:09:31.000Z</time>
      </trkpt>
      <trkpt lat="43.004566" lon="-2.422166">
        <ele>905.900024414063</ele>
        <time>2018-06-09T08:09:33.000Z</time>
      </trkpt>
      <trkpt lat="43.004585" lon="-2.422142">
        <ele>906.299987792969</ele>
        <time>2018-06-09T08:09:35.000Z</time>
      </trkpt>
      <trkpt lat="43.004601" lon="-2.422116">
        <ele>906.442684792666</ele>
        <time>2018-06-09T08:09:37.000Z</time>
      </trkpt>
      <trkpt lat="43.004607" lon="-2.422081">
        <ele>907.016703361793</ele>
        <time>2018-06-09T08:09:40.000Z</time>
      </trkpt>
      <trkpt lat="43.004601" lon="-2.422054">
        <ele>907.5</ele>
        <time>2018-06-09T08:09:45.000Z</time>
      </trkpt>
      <trkpt lat="43.004581" lon="-2.422042">
        <ele>907.799987792969</ele>
        <time>2018-06-09T08:09:47.000Z</time>
      </trkpt>
      <trkpt lat="43.004591" lon="-2.422018">
        <ele>907.799987792969</ele>
        <time>2018-06-09T08:09:51.000Z</time>
      </trkpt>
      <trkpt lat="43.004608" lon="-2.421989">
        <ele>907.180414615454</ele>
        <time>2018-06-09T08:09:53.000Z</time>
      </trkpt>
      <trkpt lat="43.004612" lon="-2.421955">
        <ele>906.062204231422</ele>
        <time>2018-06-09T08:09:55.000Z</time>
      </trkpt>
      <trkpt lat="43.004624" lon="-2.421932">
        <ele>905.366208770941</ele>
        <time>2018-06-09T08:09:57.000Z</time>
      </trkpt>
      <trkpt lat="43.004651" lon="-2.421932">
        <ele>904.65314194677</ele>
        <time>2018-06-09T08:09:59.000Z</time>
      </trkpt>
      <trkpt lat="43.004666" lon="-2.421919">
        <ele>904.30625645783</ele>
        <time>2018-06-09T08:10:01.000Z</time>
      </trkpt>
      <trkpt lat="43.004675" lon="-2.421885">
        <ele>903.480811523438</ele>
        <time>2018-06-09T08:10:03.000Z</time>
      </trkpt>
      <trkpt lat="43.004685" lon="-2.421851">
        <ele>902.362740330258</ele>
        <time>2018-06-09T08:10:05.000Z</time>
      </trkpt>
      <trkpt lat="43.004704" lon="-2.421836">
        <ele>900.413764361729</ele>
        <time>2018-06-09T08:10:07.000Z</time>
      </trkpt>
      <trkpt lat="43.004724" lon="-2.421844">
        <ele>898.862660898485</ele>
        <time>2018-06-09T08:10:10.000Z</time>
      </trkpt>
      <trkpt lat="43.004741" lon="-2.421869">
        <ele>898.105711988161</ele>
        <time>2018-06-09T08:10:12.000Z</time>
      </trkpt>
      <trkpt lat="43.004763" lon="-2.421871">
        <ele>896.967183170571</ele>
        <time>2018-06-09T08:10:14.000Z</time>
      </trkpt>
      <trkpt lat="43.004779" lon="-2.421845">
        <ele>896.204476676268</ele>
        <time>2018-06-09T08:10:16.000Z</time>
      </trkpt>
      <trkpt lat="43.004799" lon="-2.421827">
        <ele>895.056018066406</ele>
        <time>2018-06-09T08:10:18.000Z</time>
      </trkpt>
      <trkpt lat="43.004817" lon="-2.421818">
        <ele>894.851855174981</ele>
        <time>2018-06-09T08:10:20.000Z</time>
      </trkpt>
      <trkpt lat="43.00483" lon="-2.421833">
        <ele>894.102713898669</ele>
        <time>2018-06-09T08:10:22.000Z</time>
      </trkpt>
      <trkpt lat="43.004848" lon="-2.421856">
        <ele>893.604816062578</ele>
        <time>2018-06-09T08:10:24.000Z</time>
      </trkpt>
      <trkpt lat="43.004875" lon="-2.421868">
        <ele>892.049416172651</ele>
        <time>2018-06-09T08:10:26.000Z</time>
      </trkpt>
      <trkpt lat="43.004904" lon="-2.421857">
        <ele>891.648946835376</ele>
        <time>2018-06-09T08:10:28.000Z</time>
      </trkpt>
      <trkpt lat="43.004919" lon="-2.42185">
        <ele>890.846096252967</ele>
        <time>2018-06-09T08:10:29.000Z</time>
      </trkpt>
      <trkpt lat="43.004946" lon="-2.421836">
        <ele>889.896388397415</ele>
        <time>2018-06-09T08:10:31.000Z</time>
      </trkpt>
      <trkpt lat="43.00496" lon="-2.421823">
        <ele>888.990998098439</ele>
        <time>2018-06-09T08:10:32.000Z</time>
      </trkpt>
      <trkpt lat="43.004988" lon="-2.421809">
        <ele>887.488976388052</ele>
        <time>2018-06-09T08:10:34.000Z</time>
      </trkpt>
      <trkpt lat="43.005016" lon="-2.421814">
        <ele>886.148296183743</ele>
        <time>2018-06-09T08:10:36.000Z</time>
      </trkpt>
      <trkpt lat="43.005037" lon="-2.421832">
        <ele>885.323902098703</ele>
        <time>2018-06-09T08:10:38.000Z</time>
      </trkpt>
      <trkpt lat="43.005058" lon="-2.421862">
        <ele>884.079162239911</ele>
        <time>2018-06-09T08:10:40.000Z</time>
      </trkpt>
      <trkpt lat="43.005074" lon="-2.42189">
        <ele>882.88284195933</ele>
        <time>2018-06-09T08:10:42.000Z</time>
      </trkpt>
      <trkpt lat="43.005101" lon="-2.421917">
        <ele>881.925757030583</ele>
        <time>2018-06-09T08:10:44.000Z</time>
      </trkpt>
      <trkpt lat="43.005124" lon="-2.421937">
        <ele>881.167419858376</ele>
        <time>2018-06-09T08:10:46.000Z</time>
      </trkpt>
      <trkpt lat="43.005148" lon="-2.421945">
        <ele>880.445704495236</ele>
        <time>2018-06-09T08:10:48.000Z</time>
      </trkpt>
      <trkpt lat="43.005161" lon="-2.421978">
        <ele>879.909185540282</ele>
        <time>2018-06-09T08:10:50.000Z</time>
      </trkpt>
      <trkpt lat="43.005165" lon="-2.42202">
        <ele>878.696988787754</ele>
        <time>2018-06-09T08:10:52.000Z</time>
      </trkpt>
      <trkpt lat="43.005167" lon="-2.422064">
        <ele>877.977239581277</ele>
        <time>2018-06-09T08:10:54.000Z</time>
      </trkpt>
      <trkpt lat="43.005164" lon="-2.422111">
        <ele>877.443544406575</ele>
        <time>2018-06-09T08:10:56.000Z</time>
      </trkpt>
      <trkpt lat="43.005165" lon="-2.422135">
        <ele>876.892135445642</ele>
        <time>2018-06-09T08:10:57.000Z</time>
      </trkpt>
      <trkpt lat="43.005172" lon="-2.422178">
        <ele>875.876219491834</ele>
        <time>2018-06-09T08:10:59.000Z</time>
      </trkpt>
      <trkpt lat="43.005174" lon="-2.422201">
        <ele>874.799282627558</ele>
        <time>2018-06-09T08:11:00.000Z</time>
      </trkpt>
      <trkpt lat="43.00518" lon="-2.422237">
        <ele>873.943700901958</ele>
        <time>2018-06-09T08:11:02.000Z</time>
      </trkpt>
      <trkpt lat="43.005187" lon="-2.422267">
        <ele>873.729514870273</ele>
        <time>2018-06-09T08:11:04.000Z</time>
      </trkpt>
      <trkpt lat="43.005193" lon="-2.422304">
        <ele>873.599975585938</ele>
        <time>2018-06-09T08:11:06.000Z</time>
      </trkpt>
      <trkpt lat="43.005201" lon="-2.42234">
        <ele>873.599975585938</ele>
        <time>2018-06-09T08:11:08.000Z</time>
      </trkpt>
      <trkpt lat="43.005206" lon="-2.422365">
        <ele>873.31418899854</ele>
        <time>2018-06-09T08:11:09.000Z</time>
      </trkpt>
      <trkpt lat="43.005211" lon="-2.422387">
        <ele>872.641920125866</ele>
        <time>2018-06-09T08:11:10.000Z</time>
      </trkpt>
      <trkpt lat="43.005219" lon="-2.422429">
        <ele>872.142633456024</ele>
        <time>2018-06-09T08:11:12.000Z</time>
      </trkpt>
      <trkpt lat="43.005223" lon="-2.422465">
        <ele>871.380711767187</ele>
        <time>2018-06-09T08:11:14.000Z</time>
      </trkpt>
      <trkpt lat="43.005225" lon="-2.422509">
        <ele>870.741927764027</ele>
        <time>2018-06-09T08:11:16.000Z</time>
      </trkpt>
      <trkpt lat="43.005234" lon="-2.422542">
        <ele>869.912001126386</ele>
        <time>2018-06-09T08:11:18.000Z</time>
      </trkpt>
      <trkpt lat="43.005252" lon="-2.422566">
        <ele>869.240765366662</ele>
        <time>2018-06-09T08:11:20.000Z</time>
      </trkpt>
      <trkpt lat="43.00527" lon="-2.422572">
        <ele>868.603027618563</ele>
        <time>2018-06-09T08:11:21.000Z</time>
      </trkpt>
      <trkpt lat="43.005284" lon="-2.4226">
        <ele>867.777613693219</ele>
        <time>2018-06-09T08:11:23.000Z</time>
      </trkpt>
      <trkpt lat="43.00529" lon="-2.422625">
        <ele>865.948810058594</ele>
        <time>2018-06-09T08:11:25.000Z</time>
      </trkpt>
      <trkpt lat="43.005294" lon="-2.422659">
        <ele>865.099975585938</ele>
        <time>2018-06-09T08:11:27.000Z</time>
      </trkpt>
      <trkpt lat="43.005303" lon="-2.42269">
        <ele>864.539029765756</ele>
        <time>2018-06-09T08:11:29.000Z</time>
      </trkpt>
      <trkpt lat="43.005319" lon="-2.422697">
        <ele>864.133379983893</ele>
        <time>2018-06-09T08:11:31.000Z</time>
      </trkpt>
      <trkpt lat="43.00533" lon="-2.422718">
        <ele>863.238187364874</ele>
        <time>2018-06-09T08:11:34.000Z</time>
      </trkpt>
      <trkpt lat="43.005325" lon="-2.422745">
        <ele>862.710948954201</ele>
        <time>2018-06-09T08:11:36.000Z</time>
      </trkpt>
      <trkpt lat="43.005328" lon="-2.422787">
        <ele>861.354142298315</ele>
        <time>2018-06-09T08:11:38.000Z</time>
      </trkpt>
      <trkpt lat="43.005327" lon="-2.42283">
        <ele>860.871679418614</ele>
        <time>2018-06-09T08:11:40.000Z</time>
      </trkpt>
      <trkpt lat="43.00533" lon="-2.422863">
        <ele>860.635789016406</ele>
        <time>2018-06-09T08:11:42.000Z</time>
      </trkpt>
      <trkpt lat="43.005349" lon="-2.422893">
        <ele>859.467441557911</ele>
        <time>2018-06-09T08:11:44.000Z</time>
      </trkpt>
      <trkpt lat="43.005377" lon="-2.422923">
        <ele>858.235203613281</ele>
        <time>2018-06-09T08:11:46.000Z</time>
      </trkpt>
      <trkpt lat="43.0054" lon="-2.422941">
        <ele>858.099975585938</ele>
        <time>2018-06-09T08:11:48.000Z</time>
      </trkpt>
      <trkpt lat="43.005414" lon="-2.422973">
        <ele>857.106429228615</ele>
        <time>2018-06-09T08:11:50.000Z</time>
      </trkpt>
      <trkpt lat="43.005429" lon="-2.423004">
        <ele>855.568783691406</ele>
        <time>2018-06-09T08:11:52.000Z</time>
      </trkpt>
      <trkpt lat="43.005442" lon="-2.423039">
        <ele>854.933864552457</ele>
        <time>2018-06-09T08:11:54.000Z</time>
      </trkpt>
      <trkpt lat="43.00546" lon="-2.423073">
        <ele>853.767476385937</ele>
        <time>2018-06-09T08:11:56.000Z</time>
      </trkpt>
      <trkpt lat="43.005472" lon="-2.423093">
        <ele>853.46674233641</ele>
        <time>2018-06-09T08:11:57.000Z</time>
      </trkpt>
      <trkpt lat="43.005484" lon="-2.423109">
        <ele>852.730346215327</ele>
        <time>2018-06-09T08:11:58.000Z</time>
      </trkpt>
      <trkpt lat="43.005499" lon="-2.423129">
        <ele>852.063852345676</ele>
        <time>2018-06-09T08:11:59.000Z</time>
      </trkpt>
      <trkpt lat="43.005511" lon="-2.423148">
        <ele>851.697890222035</ele>
        <time>2018-06-09T08:12:00.000Z</time>
      </trkpt>
      <trkpt lat="43.005517" lon="-2.423172">
        <ele>851.465074450644</ele>
        <time>2018-06-09T08:12:01.000Z</time>
      </trkpt>
      <trkpt lat="43.005521" lon="-2.423219">
        <ele>850.49162744636</ele>
        <time>2018-06-09T08:12:03.000Z</time>
      </trkpt>
      <trkpt lat="43.005526" lon="-2.423246">
        <ele>849.997521886719</ele>
        <time>2018-06-09T08:12:04.000Z</time>
      </trkpt>
      <trkpt lat="43.00553" lon="-2.423272">
        <ele>849.764609807238</ele>
        <time>2018-06-09T08:12:05.000Z</time>
      </trkpt>
      <trkpt lat="43.005537" lon="-2.423297">
        <ele>849.700012207031</ele>
        <time>2018-06-09T08:12:06.000Z</time>
      </trkpt>
      <trkpt lat="43.005548" lon="-2.423327">
        <ele>849.161360784112</ele>
        <time>2018-06-09T08:12:07.000Z</time>
      </trkpt>
      <trkpt lat="43.005557" lon="-2.423356">
        <ele>847.483875361697</ele>
        <time>2018-06-09T08:12:08.000Z</time>
      </trkpt>
      <trkpt lat="43.005562" lon="-2.42338">
        <ele>846.529470801084</ele>
        <time>2018-06-09T08:12:09.000Z</time>
      </trkpt>
      <trkpt lat="43.00557" lon="-2.423402">
        <ele>845.252559564112</ele>
        <time>2018-06-09T08:12:10.000Z</time>
      </trkpt>
      <trkpt lat="43.00559" lon="-2.423431">
        <ele>843.426341654181</ele>
        <time>2018-06-09T08:12:12.000Z</time>
      </trkpt>
      <trkpt lat="43.005616" lon="-2.423469">
        <ele>841.947403251562</ele>
        <time>2018-06-09T08:12:14.000Z</time>
      </trkpt>
      <trkpt lat="43.005632" lon="-2.423484">
        <ele>841.400024414063</ele>
        <time>2018-06-09T08:12:15.000Z</time>
      </trkpt>
      <trkpt lat="43.005649" lon="-2.423522">
        <ele>839.949854731839</ele>
        <time>2018-06-09T08:12:17.000Z</time>
      </trkpt>
      <trkpt lat="43.005658" lon="-2.423553">
        <ele>838.582001306823</ele>
        <time>2018-06-09T08:12:19.000Z</time>
      </trkpt>
      <trkpt lat="43.00566" lon="-2.423579">
        <ele>837.160179353866</ele>
        <time>2018-06-09T08:12:21.000Z</time>
      </trkpt>
      <trkpt lat="43.005669" lon="-2.423615">
        <ele>836.596295601562</ele>
        <time>2018-06-09T08:12:23.000Z</time>
      </trkpt>
      <trkpt lat="43.005686" lon="-2.423627">
        <ele>836.158795909179</ele>
        <time>2018-06-09T08:12:24.000Z</time>
      </trkpt>
      <trkpt lat="43.005702" lon="-2.423638">
        <ele>835.312565929966</ele>
        <time>2018-06-09T08:12:25.000Z</time>
      </trkpt>
      <trkpt lat="43.005702" lon="-2.423666">
        <ele>833.574692274662</ele>
        <time>2018-06-09T08:12:27.000Z</time>
      </trkpt>
      <trkpt lat="43.005698" lon="-2.423697">
        <ele>833.129089855847</ele>
        <time>2018-06-09T08:12:29.000Z</time>
      </trkpt>
      <trkpt lat="43.0057" lon="-2.423744">
        <ele>831.710670515358</ele>
        <time>2018-06-09T08:12:31.000Z</time>
      </trkpt>
      <trkpt lat="43.0057" lon="-2.423769">
        <ele>831.110669162868</ele>
        <time>2018-06-09T08:12:32.000Z</time>
      </trkpt>
      <trkpt lat="43.005703" lon="-2.423818">
        <ele>829.761786363599</ele>
        <time>2018-06-09T08:12:34.000Z</time>
      </trkpt>
      <trkpt lat="43.005705" lon="-2.42385">
        <ele>829.254889871265</ele>
        <time>2018-06-09T08:12:35.000Z</time>
      </trkpt>
      <trkpt lat="43.00571" lon="-2.423881">
        <ele>828.691609801462</ele>
        <time>2018-06-09T08:12:36.000Z</time>
      </trkpt>
      <trkpt lat="43.005714" lon="-2.42391">
        <ele>827.99229578954</ele>
        <time>2018-06-09T08:12:37.000Z</time>
      </trkpt>
      <trkpt lat="43.005715" lon="-2.423937">
        <ele>827.436031898709</ele>
        <time>2018-06-09T08:12:38.000Z</time>
      </trkpt>
      <trkpt lat="43.005714" lon="-2.423969">
        <ele>827.299987792969</ele>
        <time>2018-06-09T08:12:39.000Z</time>
      </trkpt>
      <trkpt lat="43.005714" lon="-2.424004">
        <ele>827.299987792969</ele>
        <time>2018-06-09T08:12:40.000Z</time>
      </trkpt>
      <trkpt lat="43.005719" lon="-2.424041">
        <ele>827.080594305681</ele>
        <time>2018-06-09T08:12:41.000Z</time>
      </trkpt>
      <trkpt lat="43.005724" lon="-2.424081">
        <ele>826.707102421898</ele>
        <time>2018-06-09T08:12:42.000Z</time>
      </trkpt>
      <trkpt lat="43.005729" lon="-2.424121">
        <ele>826.160190601562</ele>
        <time>2018-06-09T08:12:43.000Z</time>
      </trkpt>
      <trkpt lat="43.005735" lon="-2.424159">
        <ele>825.926497260219</ele>
        <time>2018-06-09T08:12:44.000Z</time>
      </trkpt>
      <trkpt lat="43.005737" lon="-2.424197">
        <ele>824.501606445313</ele>
        <time>2018-06-09T08:12:45.000Z</time>
      </trkpt>
      <trkpt lat="43.005733" lon="-2.424235">
        <ele>822.671229049624</ele>
        <time>2018-06-09T08:12:46.000Z</time>
      </trkpt>
      <trkpt lat="43.005734" lon="-2.424271">
        <ele>821.977207575348</ele>
        <time>2018-06-09T08:12:47.000Z</time>
      </trkpt>
      <trkpt lat="43.005738" lon="-2.424303">
        <ele>821.527280118253</ele>
        <time>2018-06-09T08:12:48.000Z</time>
      </trkpt>
      <trkpt lat="43.005749" lon="-2.42434">
        <ele>820.505712029141</ele>
        <time>2018-06-09T08:12:49.000Z</time>
      </trkpt>
      <trkpt lat="43.005759" lon="-2.424376">
        <ele>819.306896719315</ele>
        <time>2018-06-09T08:12:50.000Z</time>
      </trkpt>
      <trkpt lat="43.005768" lon="-2.424411">
        <ele>818.252257699334</ele>
        <time>2018-06-09T08:12:51.000Z</time>
      </trkpt>
      <trkpt lat="43.005775" lon="-2.424444">
        <ele>817.84958921637</ele>
        <time>2018-06-09T08:12:52.000Z</time>
      </trkpt>
      <trkpt lat="43.005782" lon="-2.424475">
        <ele>817.423488592969</ele>
        <time>2018-06-09T08:12:53.000Z</time>
      </trkpt>
      <trkpt lat="43.005787" lon="-2.424503">
        <ele>816.846844080431</ele>
        <time>2018-06-09T08:12:54.000Z</time>
      </trkpt>
      <trkpt lat="43.005793" lon="-2.424529">
        <ele>816.016174270866</ele>
        <time>2018-06-09T08:12:55.000Z</time>
      </trkpt>
      <trkpt lat="43.005805" lon="-2.424573">
        <ele>815.099975585938</ele>
        <time>2018-06-09T08:12:57.000Z</time>
      </trkpt>
      <trkpt lat="43.005811" lon="-2.424599">
        <ele>814.947355937692</ele>
        <time>2018-06-09T08:12:58.000Z</time>
      </trkpt>
      <trkpt lat="43.005818" lon="-2.424625">
        <ele>814.900024414063</ele>
        <time>2018-06-09T08:12:59.000Z</time>
      </trkpt>
      <trkpt lat="43.005826" lon="-2.424655">
        <ele>814.746707973356</ele>
        <time>2018-06-09T08:13:00.000Z</time>
      </trkpt>
      <trkpt lat="43.005831" lon="-2.424687">
        <ele>813.162939780811</ele>
        <time>2018-06-09T08:13:01.000Z</time>
      </trkpt>
      <trkpt lat="43.005835" lon="-2.424713">
        <ele>811.775358391104</ele>
        <time>2018-06-09T08:13:02.000Z</time>
      </trkpt>
      <trkpt lat="43.005838" lon="-2.424741">
        <ele>811.423225908138</ele>
        <time>2018-06-09T08:13:03.000Z</time>
      </trkpt>
      <trkpt lat="43.005843" lon="-2.424772">
        <ele>811.170576661652</ele>
        <time>2018-06-09T08:13:04.000Z</time>
      </trkpt>
      <trkpt lat="43.005853" lon="-2.424799">
        <ele>811.023441074371</ele>
        <time>2018-06-09T08:13:05.000Z</time>
      </trkpt>
      <trkpt lat="43.005861" lon="-2.424826">
        <ele>809.611481741184</ele>
        <time>2018-06-09T08:13:06.000Z</time>
      </trkpt>
      <trkpt lat="43.005863" lon="-2.424858">
        <ele>809.122838507017</ele>
        <time>2018-06-09T08:13:07.000Z</time>
      </trkpt>
      <trkpt lat="43.005866" lon="-2.424893">
        <ele>808.790365318048</ele>
        <time>2018-06-09T08:13:08.000Z</time>
      </trkpt>
      <trkpt lat="43.005868" lon="-2.42493">
        <ele>807.612820140976</ele>
        <time>2018-06-09T08:13:09.000Z</time>
      </trkpt>
      <trkpt lat="43.005872" lon="-2.424962">
        <ele>807.066897757813</ele>
        <time>2018-06-09T08:13:10.000Z</time>
      </trkpt>
      <trkpt lat="43.005874" lon="-2.424994">
        <ele>806.922396608913</ele>
        <time>2018-06-09T08:13:11.000Z</time>
      </trkpt>
      <trkpt lat="43.005878" lon="-2.425026">
        <ele>806.589295236739</ele>
        <time>2018-06-09T08:13:12.000Z</time>
      </trkpt>
      <trkpt lat="43.00588" lon="-2.425054">
        <ele>806.422163706176</ele>
        <time>2018-06-09T08:13:13.000Z</time>
      </trkpt>
      <trkpt lat="43.005885" lon="-2.425083">
        <ele>805.382198602566</ele>
        <time>2018-06-09T08:13:14.000Z</time>
      </trkpt>
      <trkpt lat="43.005893" lon="-2.425113">
        <ele>805.099975585938</ele>
        <time>2018-06-09T08:13:15.000Z</time>
      </trkpt>
      <trkpt lat="43.005906" lon="-2.425146">
        <ele>803.678265885952</ele>
        <time>2018-06-09T08:13:16.000Z</time>
      </trkpt>
      <trkpt lat="43.005914" lon="-2.425179">
        <ele>803.299987792969</ele>
        <time>2018-06-09T08:13:17.000Z</time>
      </trkpt>
      <trkpt lat="43.00592" lon="-2.425213">
        <ele>803.062108490899</ele>
        <time>2018-06-09T08:13:18.000Z</time>
      </trkpt>
      <trkpt lat="43.005923" lon="-2.425245">
        <ele>802.440835772969</ele>
        <time>2018-06-09T08:13:19.000Z</time>
      </trkpt>
      <trkpt lat="43.005932" lon="-2.425275">
        <ele>802.299987792969</ele>
        <time>2018-06-09T08:13:20.000Z</time>
      </trkpt>
      <trkpt lat="43.005943" lon="-2.425308">
        <ele>800.445227509499</ele>
        <time>2018-06-09T08:13:21.000Z</time>
      </trkpt>
      <trkpt lat="43.005951" lon="-2.425337">
        <ele>799.756447275377</ele>
        <time>2018-06-09T08:13:22.000Z</time>
      </trkpt>
      <trkpt lat="43.005964" lon="-2.425361">
        <ele>799.537238809696</ele>
        <time>2018-06-09T08:13:23.000Z</time>
      </trkpt>
      <trkpt lat="43.00598" lon="-2.425399">
        <ele>799.299987792969</ele>
        <time>2018-06-09T08:13:25.000Z</time>
      </trkpt>
      <trkpt lat="43.005991" lon="-2.425422">
        <ele>799.135154103633</ele>
        <time>2018-06-09T08:13:26.000Z</time>
      </trkpt>
      <trkpt lat="43.006008" lon="-2.425449">
        <ele>798.6049966875</ele>
        <time>2018-06-09T08:13:27.000Z</time>
      </trkpt>
      <trkpt lat="43.006016" lon="-2.425472">
        <ele>797.920756097883</ele>
        <time>2018-06-09T08:13:28.000Z</time>
      </trkpt>
      <trkpt lat="43.006023" lon="-2.425495">
        <ele>797.468153821451</ele>
        <time>2018-06-09T08:13:29.000Z</time>
      </trkpt>
      <trkpt lat="43.006034" lon="-2.425516">
        <ele>796.819012042188</ele>
        <time>2018-06-09T08:13:30.000Z</time>
      </trkpt>
      <trkpt lat="43.006046" lon="-2.425556">
        <ele>796.334425555318</ele>
        <time>2018-06-09T08:13:32.000Z</time>
      </trkpt>
      <trkpt lat="43.006046" lon="-2.425585">
        <ele>795.222516681525</ele>
        <time>2018-06-09T08:13:33.000Z</time>
      </trkpt>
      <trkpt lat="43.006046" lon="-2.425627">
        <ele>794.63364486754</ele>
        <time>2018-06-09T08:13:35.000Z</time>
      </trkpt>
      <trkpt lat="43.006044" lon="-2.425646">
        <ele>793.100889054194</ele>
        <time>2018-06-09T08:13:36.000Z</time>
      </trkpt>
      <trkpt lat="43.006056" lon="-2.42568">
        <ele>791.857488680565</ele>
        <time>2018-06-09T08:13:38.000Z</time>
      </trkpt>
      <trkpt lat="43.006075" lon="-2.425711">
        <ele>790.7358807125</ele>
        <time>2018-06-09T08:13:40.000Z</time>
      </trkpt>
      <trkpt lat="43.006087" lon="-2.425748">
        <ele>789.875263128284</ele>
        <time>2018-06-09T08:13:42.000Z</time>
      </trkpt>
      <trkpt lat="43.006099" lon="-2.425786">
        <ele>789.628663577836</ele>
        <time>2018-06-09T08:13:44.000Z</time>
      </trkpt>
      <trkpt lat="43.006109" lon="-2.425807">
        <ele>789.342110870279</ele>
        <time>2018-06-09T08:13:45.000Z</time>
      </trkpt>
      <trkpt lat="43.006111" lon="-2.425846">
        <ele>788.327844510547</ele>
        <time>2018-06-09T08:13:47.000Z</time>
      </trkpt>
      <trkpt lat="43.006113" lon="-2.42589">
        <ele>787.22004277838</ele>
        <time>2018-06-09T08:13:49.000Z</time>
      </trkpt>
      <trkpt lat="43.006122" lon="-2.425925">
        <ele>786.128384537366</ele>
        <time>2018-06-09T08:13:51.000Z</time>
      </trkpt>
      <trkpt lat="43.00612" lon="-2.425955">
        <ele>784.715063806858</ele>
        <time>2018-06-09T08:13:53.000Z</time>
      </trkpt>
      <trkpt lat="43.006132" lon="-2.425994">
        <ele>784.160155837828</ele>
        <time>2018-06-09T08:13:55.000Z</time>
      </trkpt>
      <trkpt lat="43.006146" lon="-2.426022">
        <ele>783.624376435156</ele>
        <time>2018-06-09T08:13:57.000Z</time>
      </trkpt>
      <trkpt lat="43.006149" lon="-2.426052">
        <ele>782.895986328125</ele>
        <time>2018-06-09T08:13:59.000Z</time>
      </trkpt>
      <trkpt lat="43.00616" lon="-2.426084">
        <ele>781.031448122472</ele>
        <time>2018-06-09T08:14:01.000Z</time>
      </trkpt>
      <trkpt lat="43.006169" lon="-2.426106">
        <ele>780.37033542797</ele>
        <time>2018-06-09T08:14:02.000Z</time>
      </trkpt>
      <trkpt lat="43.006181" lon="-2.426127">
        <ele>780.211709830469</ele>
        <time>2018-06-09T08:14:03.000Z</time>
      </trkpt>
      <trkpt lat="43.0062" lon="-2.426168">
        <ele>779.8222561662</ele>
        <time>2018-06-09T08:14:05.000Z</time>
      </trkpt>
      <trkpt lat="43.006211" lon="-2.426204">
        <ele>778.763735758067</ele>
        <time>2018-06-09T08:14:07.000Z</time>
      </trkpt>
      <trkpt lat="43.006218" lon="-2.426237">
        <ele>776.504128351434</ele>
        <time>2018-06-09T08:14:09.000Z</time>
      </trkpt>
      <trkpt lat="43.006225" lon="-2.426269">
        <ele>775.299987792969</ele>
        <time>2018-06-09T08:14:11.000Z</time>
      </trkpt>
      <trkpt lat="43.006226" lon="-2.426308">
        <ele>775.121197427731</ele>
        <time>2018-06-09T08:14:13.000Z</time>
      </trkpt>
      <trkpt lat="43.006224" lon="-2.426349">
        <ele>774.640181294397</ele>
        <time>2018-06-09T08:14:15.000Z</time>
      </trkpt>
      <trkpt lat="43.006221" lon="-2.426393">
        <ele>773.567470622553</ele>
        <time>2018-06-09T08:14:17.000Z</time>
      </trkpt>
      <trkpt lat="43.006221" lon="-2.426418">
        <ele>772.955447344829</ele>
        <time>2018-06-09T08:14:18.000Z</time>
      </trkpt>
      <trkpt lat="43.006228" lon="-2.426442">
        <ele>772.990893493063</ele>
        <time>2018-06-09T08:14:19.000Z</time>
      </trkpt>
      <trkpt lat="43.006241" lon="-2.42647">
        <ele>771.009559788949</ele>
        <time>2018-06-09T08:14:21.000Z</time>
      </trkpt>
      <trkpt lat="43.006234" lon="-2.426505">
        <ele>770.700012207031</ele>
        <time>2018-06-09T08:14:23.000Z</time>
      </trkpt>
      <trkpt lat="43.006229" lon="-2.426524">
        <ele>769.501834209474</ele>
        <time>2018-06-09T08:14:24.000Z</time>
      </trkpt>
      <trkpt lat="43.006225" lon="-2.42657">
        <ele>769</ele>
        <time>2018-06-09T08:14:26.000Z</time>
      </trkpt>
      <trkpt lat="43.006221" lon="-2.426611">
        <ele>768.90741490883</ele>
        <time>2018-06-09T08:14:28.000Z</time>
      </trkpt>
      <trkpt lat="43.006227" lon="-2.426646">
        <ele>768.700012207031</ele>
        <time>2018-06-09T08:14:30.000Z</time>
      </trkpt>
      <trkpt lat="43.006235" lon="-2.426664">
        <ele>767.283616321274</ele>
        <time>2018-06-09T08:14:32.000Z</time>
      </trkpt>
      <trkpt lat="43.006254" lon="-2.42669">
        <ele>766.200012207031</ele>
        <time>2018-06-09T08:14:37.000Z</time>
      </trkpt>
      <trkpt lat="43.006261" lon="-2.426718">
        <ele>766.200012207031</ele>
        <time>2018-06-09T08:14:40.000Z</time>
      </trkpt>
      <trkpt lat="43.006266" lon="-2.426751">
        <ele>766.200012207031</ele>
        <time>2018-06-09T08:14:56.000Z</time>
      </trkpt>
      <trkpt lat="43.006268" lon="-2.42678">
        <ele>766.200012207031</ele>
        <time>2018-06-09T08:14:58.000Z</time>
      </trkpt>
      <trkpt lat="43.006268" lon="-2.426806">
        <ele>764.738931945223</ele>
        <time>2018-06-09T08:15:00.000Z</time>
      </trkpt>
      <trkpt lat="43.006284" lon="-2.426819">
        <ele>763.299987792969</ele>
        <time>2018-06-09T08:15:10.000Z</time>
      </trkpt>
      <trkpt lat="43.006305" lon="-2.426815">
        <ele>763</ele>
        <time>2018-06-09T08:15:12.000Z</time>
      </trkpt>
      <trkpt lat="43.006325" lon="-2.426801">
        <ele>762.332620169472</ele>
        <time>2018-06-09T08:15:14.000Z</time>
      </trkpt>
      <trkpt lat="43.006335" lon="-2.426824">
        <ele>761.43438952181</ele>
        <time>2018-06-09T08:15:16.000Z</time>
      </trkpt>
      <trkpt lat="43.006341" lon="-2.426854">
        <ele>760.725285283132</ele>
        <time>2018-06-09T08:15:19.000Z</time>
      </trkpt>
      <trkpt lat="43.006354" lon="-2.426876">
        <ele>759.509657585794</ele>
        <time>2018-06-09T08:15:21.000Z</time>
      </trkpt>
      <trkpt lat="43.006358" lon="-2.426908">
        <ele>758.510820483907</ele>
        <time>2018-06-09T08:15:23.000Z</time>
      </trkpt>
      <trkpt lat="43.006357" lon="-2.426939">
        <ele>757.802886441146</ele>
        <time>2018-06-09T08:15:25.000Z</time>
      </trkpt>
      <trkpt lat="43.006356" lon="-2.42697">
        <ele>755.812999183541</ele>
        <time>2018-06-09T08:15:27.000Z</time>
      </trkpt>
      <trkpt lat="43.006354" lon="-2.427004">
        <ele>754.41755708267</ele>
        <time>2018-06-09T08:15:29.000Z</time>
      </trkpt>
      <trkpt lat="43.006357" lon="-2.42704">
        <ele>754.002299598438</ele>
        <time>2018-06-09T08:15:31.000Z</time>
      </trkpt>
      <trkpt lat="43.00636" lon="-2.427076">
        <ele>752.331589646842</ele>
        <time>2018-06-09T08:15:33.000Z</time>
      </trkpt>
      <trkpt lat="43.006366" lon="-2.427113">
        <ele>751.505217866052</ele>
        <time>2018-06-09T08:15:35.000Z</time>
      </trkpt>
      <trkpt lat="43.006368" lon="-2.427139">
        <ele>750.904233608044</ele>
        <time>2018-06-09T08:15:37.000Z</time>
      </trkpt>
      <trkpt lat="43.006376" lon="-2.427162">
        <ele>749.701014658342</ele>
        <time>2018-06-09T08:15:39.000Z</time>
      </trkpt>
      <trkpt lat="43.006388" lon="-2.427193">
        <ele>747.705419796498</ele>
        <time>2018-06-09T08:15:41.000Z</time>
      </trkpt>
      <trkpt lat="43.006396" lon="-2.427233">
        <ele>747.297176180921</ele>
        <time>2018-06-09T08:15:43.000Z</time>
      </trkpt>
      <trkpt lat="43.006408" lon="-2.427262">
        <ele>746.294760253341</ele>
        <time>2018-06-09T08:15:45.000Z</time>
      </trkpt>
      <trkpt lat="43.006403" lon="-2.427284">
        <ele>744.873323696558</ele>
        <time>2018-06-09T08:15:47.000Z</time>
      </trkpt>
      <trkpt lat="43.006392" lon="-2.427311">
        <ele>743.269868738834</ele>
        <time>2018-06-09T08:15:49.000Z</time>
      </trkpt>
      <trkpt lat="43.006391" lon="-2.427336">
        <ele>742.082608315329</ele>
        <time>2018-06-09T08:15:50.000Z</time>
      </trkpt>
      <trkpt lat="43.006388" lon="-2.427366">
        <ele>741.489136042427</ele>
        <time>2018-06-09T08:15:51.000Z</time>
      </trkpt>
      <trkpt lat="43.006408" lon="-2.427391">
        <ele>740.400024414063</ele>
        <time>2018-06-09T08:15:53.000Z</time>
      </trkpt>
      <trkpt lat="43.006424" lon="-2.427432">
        <ele>740.395403957118</ele>
        <time>2018-06-09T08:15:55.000Z</time>
      </trkpt>
      <trkpt lat="43.006439" lon="-2.427458">
        <ele>740.279829638672</ele>
        <time>2018-06-09T08:15:56.000Z</time>
      </trkpt>
      <trkpt lat="43.006456" lon="-2.427476">
        <ele>739.882587500967</ele>
        <time>2018-06-09T08:15:57.000Z</time>
      </trkpt>
      <trkpt lat="43.00647" lon="-2.42749">
        <ele>739.509785895163</ele>
        <time>2018-06-09T08:15:58.000Z</time>
      </trkpt>
      <trkpt lat="43.006482" lon="-2.427511">
        <ele>738.093764377146</ele>
        <time>2018-06-09T08:15:59.000Z</time>
      </trkpt>
      <trkpt lat="43.006493" lon="-2.427536">
        <ele>738</ele>
        <time>2018-06-09T08:16:00.000Z</time>
      </trkpt>
      <trkpt lat="43.006504" lon="-2.427561">
        <ele>737.973280315175</ele>
        <time>2018-06-09T08:16:01.000Z</time>
      </trkpt>
      <trkpt lat="43.006514" lon="-2.427587">
        <ele>737.516693218071</ele>
        <time>2018-06-09T08:16:02.000Z</time>
      </trkpt>
      <trkpt lat="43.00652" lon="-2.427614">
        <ele>736.247885829205</ele>
        <time>2018-06-09T08:16:03.000Z</time>
      </trkpt>
      <trkpt lat="43.00653" lon="-2.427648">
        <ele>735.419281551797</ele>
        <time>2018-06-09T08:16:04.000Z</time>
      </trkpt>
      <trkpt lat="43.006543" lon="-2.427677">
        <ele>734.165221903389</ele>
        <time>2018-06-09T08:16:05.000Z</time>
      </trkpt>
      <trkpt lat="43.006561" lon="-2.427704">
        <ele>732.393014531802</ele>
        <time>2018-06-09T08:16:06.000Z</time>
      </trkpt>
      <trkpt lat="43.006574" lon="-2.427733">
        <ele>732.271446911723</ele>
        <time>2018-06-09T08:16:07.000Z</time>
      </trkpt>
      <trkpt lat="43.006575" lon="-2.427759">
        <ele>731.846712553126</ele>
        <time>2018-06-09T08:16:08.000Z</time>
      </trkpt>
      <trkpt lat="43.006575" lon="-2.427802">
        <ele>731.019895634114</ele>
        <time>2018-06-09T08:16:10.000Z</time>
      </trkpt>
      <trkpt lat="43.006578" lon="-2.427823">
        <ele>729.978356561503</ele>
        <time>2018-06-09T08:16:11.000Z</time>
      </trkpt>
      <trkpt lat="43.006578" lon="-2.427848">
        <ele>728.599975585938</ele>
        <time>2018-06-09T08:16:12.000Z</time>
      </trkpt>
      <trkpt lat="43.006578" lon="-2.427873">
        <ele>728.566308876659</ele>
        <time>2018-06-09T08:16:13.000Z</time>
      </trkpt>
      <trkpt lat="43.006581" lon="-2.427898">
        <ele>728.053219485776</ele>
        <time>2018-06-09T08:16:14.000Z</time>
      </trkpt>
      <trkpt lat="43.006583" lon="-2.427943">
        <ele>726.337599798183</ele>
        <time>2018-06-09T08:16:16.000Z</time>
      </trkpt>
      <trkpt lat="43.006574" lon="-2.427966">
        <ele>725.700012207031</ele>
        <time>2018-06-09T08:16:17.000Z</time>
      </trkpt>
      <trkpt lat="43.006569" lon="-2.427989">
        <ele>725.559805093119</ele>
        <time>2018-06-09T08:16:18.000Z</time>
      </trkpt>
      <trkpt lat="43.006562" lon="-2.428017">
        <ele>724.092426964494</ele>
        <time>2018-06-09T08:16:19.000Z</time>
      </trkpt>
      <trkpt lat="43.006553" lon="-2.428047">
        <ele>723.032847294324</ele>
        <time>2018-06-09T08:16:20.000Z</time>
      </trkpt>
      <trkpt lat="43.006547" lon="-2.428076">
        <ele>722.400024414063</ele>
        <time>2018-06-09T08:16:21.000Z</time>
      </trkpt>
      <trkpt lat="43.006549" lon="-2.428101">
        <ele>722.389960979376</ele>
        <time>2018-06-09T08:16:22.000Z</time>
      </trkpt>
      <trkpt lat="43.006553" lon="-2.428125">
        <ele>722.05692447014</ele>
        <time>2018-06-09T08:16:23.000Z</time>
      </trkpt>
      <trkpt lat="43.006558" lon="-2.42815">
        <ele>719.95867306287</ele>
        <time>2018-06-09T08:16:24.000Z</time>
      </trkpt>
      <trkpt lat="43.006562" lon="-2.428179">
        <ele>719.557367502721</ele>
        <time>2018-06-09T08:16:25.000Z</time>
      </trkpt>
      <trkpt lat="43.006569" lon="-2.428208">
        <ele>719.177810532031</ele>
        <time>2018-06-09T08:16:26.000Z</time>
      </trkpt>
      <trkpt lat="43.006579" lon="-2.428238">
        <ele>718.844904744207</ele>
        <time>2018-06-09T08:16:27.000Z</time>
      </trkpt>
      <trkpt lat="43.00659" lon="-2.428267">
        <ele>717.545364137798</ele>
        <time>2018-06-09T08:16:28.000Z</time>
      </trkpt>
      <trkpt lat="43.006595" lon="-2.428304">
        <ele>716.91052168283</ele>
        <time>2018-06-09T08:16:29.000Z</time>
      </trkpt>
      <trkpt lat="43.006595" lon="-2.428342">
        <ele>715.285143910757</ele>
        <time>2018-06-09T08:16:30.000Z</time>
      </trkpt>
      <trkpt lat="43.006599" lon="-2.428381">
        <ele>714.400024414063</ele>
        <time>2018-06-09T08:16:31.000Z</time>
      </trkpt>
      <trkpt lat="43.006603" lon="-2.428424">
        <ele>714.376908278678</ele>
        <time>2018-06-09T08:16:32.000Z</time>
      </trkpt>
      <trkpt lat="43.006605" lon="-2.428463">
        <ele>714.200012207031</ele>
        <time>2018-06-09T08:16:33.000Z</time>
      </trkpt>
      <trkpt lat="43.006615" lon="-2.428506">
        <ele>714.187683406856</ele>
        <time>2018-06-09T08:16:34.000Z</time>
      </trkpt>
      <trkpt lat="43.006628" lon="-2.428537">
        <ele>713.772678745655</ele>
        <time>2018-06-09T08:16:35.000Z</time>
      </trkpt>
      <trkpt lat="43.006637" lon="-2.428565">
        <ele>711.380963321391</ele>
        <time>2018-06-09T08:16:36.000Z</time>
      </trkpt>
      <trkpt lat="43.006639" lon="-2.428591">
        <ele>710.39775682628</ele>
        <time>2018-06-09T08:16:37.000Z</time>
      </trkpt>
      <trkpt lat="43.006644" lon="-2.428614">
        <ele>709.001683537845</ele>
        <time>2018-06-09T08:16:38.000Z</time>
      </trkpt>
      <trkpt lat="43.00664" lon="-2.428663">
        <ele>708.32830881149</ele>
        <time>2018-06-09T08:16:40.000Z</time>
      </trkpt>
      <trkpt lat="43.006639" lon="-2.428688">
        <ele>707.841387205575</ele>
        <time>2018-06-09T08:16:41.000Z</time>
      </trkpt>
      <trkpt lat="43.006648" lon="-2.428719">
        <ele>707.140347734634</ele>
        <time>2018-06-09T08:16:42.000Z</time>
      </trkpt>
      <trkpt lat="43.006664" lon="-2.428751">
        <ele>705.099975585938</ele>
        <time>2018-06-09T08:16:43.000Z</time>
      </trkpt>
      <trkpt lat="43.00668" lon="-2.428782">
        <ele>704.93321152354</ele>
        <time>2018-06-09T08:16:44.000Z</time>
      </trkpt>
      <trkpt lat="43.006697" lon="-2.428818">
        <ele>703.891501467969</ele>
        <time>2018-06-09T08:16:45.000Z</time>
      </trkpt>
      <trkpt lat="43.006718" lon="-2.42885">
        <ele>703.16035838306</ele>
        <time>2018-06-09T08:16:46.000Z</time>
      </trkpt>
      <trkpt lat="43.006729" lon="-2.428872">
        <ele>702.321713870702</ele>
        <time>2018-06-09T08:16:47.000Z</time>
      </trkpt>
      <trkpt lat="43.006748" lon="-2.428904">
        <ele>700.620156118667</ele>
        <time>2018-06-09T08:16:49.000Z</time>
      </trkpt>
      <trkpt lat="43.006766" lon="-2.428932">
        <ele>699.599975585938</ele>
        <time>2018-06-09T08:16:51.000Z</time>
      </trkpt>
      <trkpt lat="43.006769" lon="-2.428951">
        <ele>698.514892238724</ele>
        <time>2018-06-09T08:16:53.000Z</time>
      </trkpt>
      <trkpt lat="43.006758" lon="-2.428976">
        <ele>697.382901317156</ele>
        <time>2018-06-09T08:16:55.000Z</time>
      </trkpt>
      <trkpt lat="43.006751" lon="-2.429002">
        <ele>695.782622185429</ele>
        <time>2018-06-09T08:16:57.000Z</time>
      </trkpt>
      <trkpt lat="43.006749" lon="-2.429027">
        <ele>695.664610366406</ele>
        <time>2018-06-09T08:16:58.000Z</time>
      </trkpt>
      <trkpt lat="43.006754" lon="-2.429065">
        <ele>694.758133724233</ele>
        <time>2018-06-09T08:17:00.000Z</time>
      </trkpt>
      <trkpt lat="43.006765" lon="-2.429095">
        <ele>693.226866858628</ele>
        <time>2018-06-09T08:17:02.000Z</time>
      </trkpt>
      <trkpt lat="43.006778" lon="-2.429121">
        <ele>693.018820463321</ele>
        <time>2018-06-09T08:17:05.000Z</time>
      </trkpt>
      <trkpt lat="43.006794" lon="-2.429151">
        <ele>692.799987792969</ele>
        <time>2018-06-09T08:17:08.000Z</time>
      </trkpt>
      <trkpt lat="43.006806" lon="-2.429182">
        <ele>692.588567723197</ele>
        <time>2018-06-09T08:17:13.000Z</time>
      </trkpt>
      <trkpt lat="43.006824" lon="-2.429203">
        <ele>691.091687753628</ele>
        <time>2018-06-09T08:17:15.000Z</time>
      </trkpt>
      <trkpt lat="43.006848" lon="-2.429227">
        <ele>690.378085044357</ele>
        <time>2018-06-09T08:17:17.000Z</time>
      </trkpt>
      <trkpt lat="43.006869" lon="-2.429247">
        <ele>690.299987792969</ele>
        <time>2018-06-09T08:17:18.000Z</time>
      </trkpt>
      <trkpt lat="43.006891" lon="-2.429261">
        <ele>690.186763306314</ele>
        <time>2018-06-09T08:17:19.000Z</time>
      </trkpt>
      <trkpt lat="43.006913" lon="-2.42927">
        <ele>689.731317374931</ele>
        <time>2018-06-09T08:17:20.000Z</time>
      </trkpt>
      <trkpt lat="43.006931" lon="-2.429275">
        <ele>689.360245752646</ele>
        <time>2018-06-09T08:17:21.000Z</time>
      </trkpt>
      <trkpt lat="43.006955" lon="-2.429304">
        <ele>688.5</ele>
        <time>2018-06-09T08:17:23.000Z</time>
      </trkpt>
      <trkpt lat="43.006967" lon="-2.429323">
        <ele>687.946344621097</ele>
        <time>2018-06-09T08:17:24.000Z</time>
      </trkpt>
      <trkpt lat="43.00698" lon="-2.429344">
        <ele>686.126823389603</ele>
        <time>2018-06-09T08:17:25.000Z</time>
      </trkpt>
      <trkpt lat="43.006995" lon="-2.42936">
        <ele>685.826059566445</ele>
        <time>2018-06-09T08:17:26.000Z</time>
      </trkpt>
      <trkpt lat="43.007011" lon="-2.429374">
        <ele>685.575407501173</ele>
        <time>2018-06-09T08:17:27.000Z</time>
      </trkpt>
      <trkpt lat="43.007023" lon="-2.429386">
        <ele>685.151401783475</ele>
        <time>2018-06-09T08:17:28.000Z</time>
      </trkpt>
      <trkpt lat="43.007031" lon="-2.429391">
        <ele>682.386786671719</ele>
        <time>2018-06-09T08:17:32.000Z</time>
      </trkpt>
      <trkpt lat="43.007048" lon="-2.429414">
        <ele>680.873963160117</ele>
        <time>2018-06-09T08:17:34.000Z</time>
      </trkpt>
      <trkpt lat="43.007061" lon="-2.429434">
        <ele>680.747373835587</ele>
        <time>2018-06-09T08:17:35.000Z</time>
      </trkpt>
      <trkpt lat="43.007076" lon="-2.429472">
        <ele>680.573155648429</ele>
        <time>2018-06-09T08:17:37.000Z</time>
      </trkpt>
      <trkpt lat="43.007078" lon="-2.429504">
        <ele>680.07195399719</ele>
        <time>2018-06-09T08:17:39.000Z</time>
      </trkpt>
      <trkpt lat="43.007078" lon="-2.429536">
        <ele>677.891484401777</ele>
        <time>2018-06-09T08:17:41.000Z</time>
      </trkpt>
      <trkpt lat="43.007084" lon="-2.429564">
        <ele>677.145500036817</ele>
        <time>2018-06-09T08:17:43.000Z</time>
      </trkpt>
      <trkpt lat="43.007081" lon="-2.429587">
        <ele>676.661570004007</ele>
        <time>2018-06-09T08:17:45.000Z</time>
      </trkpt>
      <trkpt lat="43.007081" lon="-2.429627">
        <ele>675.951102686062</ele>
        <time>2018-06-09T08:17:47.000Z</time>
      </trkpt>
      <trkpt lat="43.007082" lon="-2.429661">
        <ele>674.816094537776</ele>
        <time>2018-06-09T08:17:49.000Z</time>
      </trkpt>
      <trkpt lat="43.007092" lon="-2.429678">
        <ele>673.744561794482</ele>
        <time>2018-06-09T08:17:51.000Z</time>
      </trkpt>
      <trkpt lat="43.007113" lon="-2.429628">
        <ele>672.787269722138</ele>
        <time>2018-06-09T08:17:53.000Z</time>
      </trkpt>
      <trkpt lat="43.007123" lon="-2.429602">
        <ele>672.527949157315</ele>
        <time>2018-06-09T08:17:54.000Z</time>
      </trkpt>
      <trkpt lat="43.007131" lon="-2.429577">
        <ele>672.374502071763</ele>
        <time>2018-06-09T08:17:55.000Z</time>
      </trkpt>
      <trkpt lat="43.007138" lon="-2.429534">
        <ele>671.700012207031</ele>
        <time>2018-06-09T08:17:57.000Z</time>
      </trkpt>
      <trkpt lat="43.007157" lon="-2.429494">
        <ele>671.599975585938</ele>
        <time>2018-06-09T08:17:59.000Z</time>
      </trkpt>
      <trkpt lat="43.007176" lon="-2.429459">
        <ele>671.253032749122</ele>
        <time>2018-06-09T08:18:01.000Z</time>
      </trkpt>
      <trkpt lat="43.007186" lon="-2.429423">
        <ele>670.371056146789</ele>
        <time>2018-06-09T08:18:03.000Z</time>
      </trkpt>
      <trkpt lat="43.007194" lon="-2.429386">
        <ele>669.900024414063</ele>
        <time>2018-06-09T08:18:05.000Z</time>
      </trkpt>
      <trkpt lat="43.007202" lon="-2.429366">
        <ele>669.500416004622</ele>
        <time>2018-06-09T08:18:06.000Z</time>
      </trkpt>
      <trkpt lat="43.007215" lon="-2.429333">
        <ele>667.785216767188</ele>
        <time>2018-06-09T08:18:08.000Z</time>
      </trkpt>
      <trkpt lat="43.007228" lon="-2.429302">
        <ele>666.700012207031</ele>
        <time>2018-06-09T08:18:10.000Z</time>
      </trkpt>
      <trkpt lat="43.007241" lon="-2.429272">
        <ele>666.341419877344</ele>
        <time>2018-06-09T08:18:12.000Z</time>
      </trkpt>
      <trkpt lat="43.007282" lon="-2.429144">
        <ele>665.147069795647</ele>
        <time>2018-06-09T08:18:19.000Z</time>
      </trkpt>
      <trkpt lat="43.007307" lon="-2.429015">
        <ele>664.102123807262</ele>
        <time>2018-06-09T08:18:25.000Z</time>
      </trkpt>
      <trkpt lat="43.007352" lon="-2.428907">
        <ele>663.200012207031</ele>
        <time>2018-06-09T08:18:31.000Z</time>
      </trkpt>
      <trkpt lat="43.007368" lon="-2.428785">
        <ele>664.572220710002</ele>
        <time>2018-06-09T08:18:36.000Z</time>
      </trkpt>
      <trkpt lat="43.007364" lon="-2.428658">
        <ele>663.861826322144</ele>
        <time>2018-06-09T08:18:42.000Z</time>
      </trkpt>
      <trkpt lat="43.007376" lon="-2.428529">
        <ele>663.200012207031</ele>
        <time>2018-06-09T08:18:48.000Z</time>
      </trkpt>
      <trkpt lat="43.00745" lon="-2.428451">
        <ele>662.220022928502</ele>
        <time>2018-06-09T08:18:55.000Z</time>
      </trkpt>
      <trkpt lat="43.00752" lon="-2.428363">
        <ele>658.471409388951</ele>
        <time>2018-06-09T08:19:02.000Z</time>
      </trkpt>
      <trkpt lat="43.007573" lon="-2.428266">
        <ele>656.904122951631</ele>
        <time>2018-06-09T08:19:08.000Z</time>
      </trkpt>
      <trkpt lat="43.00762" lon="-2.428151">
        <ele>654.764028011133</ele>
        <time>2018-06-09T08:19:15.000Z</time>
      </trkpt>
      <trkpt lat="43.007681" lon="-2.428051">
        <ele>652.752246807569</ele>
        <time>2018-06-09T08:19:22.000Z</time>
      </trkpt>
      <trkpt lat="43.007706" lon="-2.428011">
        <ele>652</ele>
        <time>2018-06-09T08:19:24.000Z</time>
      </trkpt>
      <trkpt lat="43.007718" lon="-2.427992">
        <ele>651.761785851842</ele>
        <time>2018-06-09T08:19:25.000Z</time>
      </trkpt>
      <trkpt lat="43.00773" lon="-2.427965">
        <ele>651.5</ele>
        <time>2018-06-09T08:19:26.000Z</time>
      </trkpt>
      <trkpt lat="43.007747" lon="-2.427943">
        <ele>651.020956553953</ele>
        <time>2018-06-09T08:19:27.000Z</time>
      </trkpt>
      <trkpt lat="43.007749" lon="-2.4279">
        <ele>650.30819616868</ele>
        <time>2018-06-09T08:19:29.000Z</time>
      </trkpt>
      <trkpt lat="43.007752" lon="-2.427856">
        <ele>649.761244267784</ele>
        <time>2018-06-09T08:19:31.000Z</time>
      </trkpt>
      <trkpt lat="43.007767" lon="-2.427814">
        <ele>649.099975585938</ele>
        <time>2018-06-09T08:19:33.000Z</time>
      </trkpt>
      <trkpt lat="43.007784" lon="-2.427776">
        <ele>648.106607466406</ele>
        <time>2018-06-09T08:19:35.000Z</time>
      </trkpt>
      <trkpt lat="43.007797" lon="-2.427757">
        <ele>647.555488592969</ele>
        <time>2018-06-09T08:19:36.000Z</time>
      </trkpt>
      <trkpt lat="43.007817" lon="-2.427721">
        <ele>646.400024414063</ele>
        <time>2018-06-09T08:19:38.000Z</time>
      </trkpt>
      <trkpt lat="43.007837" lon="-2.427694">
        <ele>645.850908715617</ele>
        <time>2018-06-09T08:19:40.000Z</time>
      </trkpt>
      <trkpt lat="43.007854" lon="-2.427677">
        <ele>645.799987792969</ele>
        <time>2018-06-09T08:19:41.000Z</time>
      </trkpt>
      <trkpt lat="43.007874" lon="-2.427655">
        <ele>645.799987792969</ele>
        <time>2018-06-09T08:19:42.000Z</time>
      </trkpt>
      <trkpt lat="43.007884" lon="-2.427613">
        <ele>645.599405746875</ele>
        <time>2018-06-09T08:19:44.000Z</time>
      </trkpt>
      <trkpt lat="43.007893" lon="-2.427584">
        <ele>645.348652343656</ele>
        <time>2018-06-09T08:19:45.000Z</time>
      </trkpt>
      <trkpt lat="43.007902" lon="-2.427553">
        <ele>644.996990444131</ele>
        <time>2018-06-09T08:19:46.000Z</time>
      </trkpt>
      <trkpt lat="43.007909" lon="-2.427526">
        <ele>644.799987792969</ele>
        <time>2018-06-09T08:19:47.000Z</time>
      </trkpt>
      <trkpt lat="43.007919" lon="-2.427487">
        <ele>644.400024414063</ele>
        <time>2018-06-09T08:19:49.000Z</time>
      </trkpt>
      <trkpt lat="43.007917" lon="-2.427454">
        <ele>644.605835708429</ele>
        <time>2018-06-09T08:19:51.000Z</time>
      </trkpt>
      <trkpt lat="43.007909" lon="-2.42742">
        <ele>644.799987792969</ele>
        <time>2018-06-09T08:19:53.000Z</time>
      </trkpt>
      <trkpt lat="43.007902" lon="-2.427386">
        <ele>644.799987792969</ele>
        <time>2018-06-09T08:19:55.000Z</time>
      </trkpt>
      <trkpt lat="43.007938" lon="-2.42726">
        <ele>643.430202218586</ele>
        <time>2018-06-09T08:20:02.000Z</time>
      </trkpt>
      <trkpt lat="43.007968" lon="-2.427171">
        <ele>642.782097719315</ele>
        <time>2018-06-09T08:20:05.000Z</time>
      </trkpt>
      <trkpt lat="43.007964" lon="-2.427136">
        <ele>642.490273270122</ele>
        <time>2018-06-09T08:20:06.000Z</time>
      </trkpt>
      <trkpt lat="43.007973" lon="-2.427113">
        <ele>642.400024414063</ele>
        <time>2018-06-09T08:20:07.000Z</time>
      </trkpt>
      <trkpt lat="43.007988" lon="-2.427091">
        <ele>642.289107552011</ele>
        <time>2018-06-09T08:20:08.000Z</time>
      </trkpt>
      <trkpt lat="43.007989" lon="-2.427062">
        <ele>642.200012207031</ele>
        <time>2018-06-09T08:20:09.000Z</time>
      </trkpt>
      <trkpt lat="43.007994" lon="-2.427034">
        <ele>642.200012207031</ele>
        <time>2018-06-09T08:20:10.000Z</time>
      </trkpt>
      <trkpt lat="43.007998" lon="-2.427006">
        <ele>642.200012207031</ele>
        <time>2018-06-09T08:20:11.000Z</time>
      </trkpt>
      <trkpt lat="43.008001" lon="-2.42698">
        <ele>642.087406294531</ele>
        <time>2018-06-09T08:20:12.000Z</time>
      </trkpt>
      <trkpt lat="43.008001" lon="-2.426955">
        <ele>642</ele>
        <time>2018-06-09T08:20:13.000Z</time>
      </trkpt>
      <trkpt lat="43.007999" lon="-2.426928">
        <ele>641.886338532344</ele>
        <time>2018-06-09T08:20:14.000Z</time>
      </trkpt>
      <trkpt lat="43.008003" lon="-2.426887">
        <ele>641.111511004793</ele>
        <time>2018-06-09T08:20:16.000Z</time>
      </trkpt>
      <trkpt lat="43.008005" lon="-2.426853">
        <ele>640.441923771341</ele>
        <time>2018-06-09T08:20:18.000Z</time>
      </trkpt>
      <trkpt lat="43.008007" lon="-2.426819">
        <ele>640.123789493194</ele>
        <time>2018-06-09T08:20:20.000Z</time>
      </trkpt>
      <trkpt lat="43.008007" lon="-2.426782">
        <ele>639.003987792969</ele>
        <time>2018-06-09T08:20:22.000Z</time>
      </trkpt>
      <trkpt lat="43.008006" lon="-2.426745">
        <ele>638.421489525464</ele>
        <time>2018-06-09T08:20:24.000Z</time>
      </trkpt>
      <trkpt lat="43.008023" lon="-2.426706">
        <ele>638.200012207031</ele>
        <time>2018-06-09T08:20:26.000Z</time>
      </trkpt>
      <trkpt lat="43.008045" lon="-2.426667">
        <ele>637.840142408337</ele>
        <time>2018-06-09T08:20:28.000Z</time>
      </trkpt>
      <trkpt lat="43.00808" lon="-2.426548">
        <ele>636.939311147498</ele>
        <time>2018-06-09T08:20:34.000Z</time>
      </trkpt>
      <trkpt lat="43.008078" lon="-2.426422">
        <ele>635.274639948214</ele>
        <time>2018-06-09T08:20:40.000Z</time>
      </trkpt>
      <trkpt lat="43.0081" lon="-2.426283">
        <ele>634.271243504003</ele>
        <time>2018-06-09T08:20:47.000Z</time>
      </trkpt>
      <trkpt lat="43.00815" lon="-2.426166">
        <ele>632.307194147168</ele>
        <time>2018-06-09T08:20:53.000Z</time>
      </trkpt>
      <trkpt lat="43.008174" lon="-2.426043">
        <ele>631.099975585938</ele>
        <time>2018-06-09T08:20:59.000Z</time>
      </trkpt>
      <trkpt lat="43.008263" lon="-2.425966">
        <ele>630.064999922925</ele>
        <time>2018-06-09T08:21:07.000Z</time>
      </trkpt>
      <trkpt lat="43.008353" lon="-2.425948">
        <ele>626.190169567889</ele>
        <time>2018-06-09T08:21:19.000Z</time>
      </trkpt>
      <trkpt lat="43.008455" lon="-2.425916">
        <ele>623.047026014062</ele>
        <time>2018-06-09T08:21:27.000Z</time>
      </trkpt>
      <trkpt lat="43.008553" lon="-2.425877">
        <ele>620.099975585938</ele>
        <time>2018-06-09T08:21:33.000Z</time>
      </trkpt>
      <trkpt lat="43.008643" lon="-2.425865">
        <ele>616.473669918625</ele>
        <time>2018-06-09T08:21:42.000Z</time>
      </trkpt>
      <trkpt lat="43.008751" lon="-2.425852">
        <ele>614.493920142786</ele>
        <time>2018-06-09T08:21:48.000Z</time>
      </trkpt>
      <trkpt lat="43.00885" lon="-2.42587">
        <ele>612.62250616015</ele>
        <time>2018-06-09T08:21:52.000Z</time>
      </trkpt>
      <trkpt lat="43.008955" lon="-2.425827">
        <ele>611.064927009534</ele>
        <time>2018-06-09T08:21:56.000Z</time>
      </trkpt>
      <trkpt lat="43.00902" lon="-2.425836">
        <ele>609.120542382221</ele>
        <time>2018-06-09T08:22:01.000Z</time>
      </trkpt>
      <trkpt lat="43.009077" lon="-2.425836">
        <ele>606.514849994657</ele>
        <time>2018-06-09T08:22:06.000Z</time>
      </trkpt>
      <trkpt lat="43.009101" lon="-2.425819">
        <ele>605.509387189565</ele>
        <time>2018-06-09T08:22:08.000Z</time>
      </trkpt>
      <trkpt lat="43.009129" lon="-2.425802">
        <ele>604.787450297981</ele>
        <time>2018-06-09T08:22:10.000Z</time>
      </trkpt>
      <trkpt lat="43.009133" lon="-2.425766">
        <ele>604.033967521982</ele>
        <time>2018-06-09T08:22:12.000Z</time>
      </trkpt>
      <trkpt lat="43.009166" lon="-2.425726">
        <ele>603.092535589403</ele>
        <time>2018-06-09T08:22:15.000Z</time>
      </trkpt>
      <trkpt lat="43.009208" lon="-2.425712">
        <ele>602.599975585938</ele>
        <time>2018-06-09T08:22:18.000Z</time>
      </trkpt>
      <trkpt lat="43.009231" lon="-2.425719">
        <ele>600.5</ele>
        <time>2018-06-09T08:22:23.000Z</time>
      </trkpt>
      <trkpt lat="43.009252" lon="-2.425718">
        <ele>599.94926778474</ele>
        <time>2018-06-09T08:22:27.000Z</time>
      </trkpt>
      <trkpt lat="43.00923" lon="-2.42571">
        <ele>599.888272717644</ele>
        <time>2018-06-09T08:22:29.000Z</time>
      </trkpt>
      <trkpt lat="43.00921" lon="-2.425715">
        <ele>599.599975585938</ele>
        <time>2018-06-09T08:23:41.000Z</time>
      </trkpt>
      <trkpt lat="43.009194" lon="-2.425724">
        <ele>598.779531881901</ele>
        <time>2018-06-09T08:24:11.000Z</time>
      </trkpt>
      <trkpt lat="43.009167" lon="-2.42572">
        <ele>598.599975585938</ele>
        <time>2018-06-09T08:24:22.000Z</time>
      </trkpt>
      <trkpt lat="43.009152" lon="-2.425721">
        <ele>597.5</ele>
        <time>2018-06-09T08:25:21.000Z</time>
      </trkpt>
      <trkpt lat="43.009133" lon="-2.425704">
        <ele>596.617552349249</ele>
        <time>2018-06-09T08:25:33.000Z</time>
      </trkpt>
      <trkpt lat="43.009113" lon="-2.425692">
        <ele>596.400024414063</ele>
        <time>2018-06-09T08:25:38.000Z</time>
      </trkpt>
      <trkpt lat="43.009131" lon="-2.425695">
        <ele>595.917036929045</ele>
        <time>2018-06-09T08:25:46.000Z</time>
      </trkpt>
      <trkpt lat="43.009159" lon="-2.425685">
        <ele>595.799987792969</ele>
        <time>2018-06-09T08:25:49.000Z</time>
      </trkpt>
      <trkpt lat="43.009179" lon="-2.425687">
        <ele>595.616248581083</ele>
        <time>2018-06-09T08:25:52.000Z</time>
      </trkpt>
      <trkpt lat="43.009202" lon="-2.425699">
        <ele>595.416352768148</ele>
        <time>2018-06-09T08:25:56.000Z</time>
      </trkpt>
      <trkpt lat="43.00922" lon="-2.425689">
        <ele>595.215029185043</ele>
        <time>2018-06-09T08:25:59.000Z</time>
      </trkpt>
      <trkpt lat="43.009239" lon="-2.425684">
        <ele>595.114524312283</ele>
        <time>2018-06-09T08:26:01.000Z</time>
      </trkpt>
      <trkpt lat="43.009267" lon="-2.425676">
        <ele>595.013996121338</ele>
        <time>2018-06-09T08:26:03.000Z</time>
      </trkpt>
      <trkpt lat="43.009286" lon="-2.425671">
        <ele>595</ele>
        <time>2018-06-09T08:26:04.000Z</time>
      </trkpt>
      <trkpt lat="43.009306" lon="-2.425661">
        <ele>594.913762232734</ele>
        <time>2018-06-09T08:26:05.000Z</time>
      </trkpt>
      <trkpt lat="43.009323" lon="-2.42565">
        <ele>594.900024414063</ele>
        <time>2018-06-09T08:26:06.000Z</time>
      </trkpt>
      <trkpt lat="43.009349" lon="-2.425646">
        <ele>594.799987792969</ele>
        <time>2018-06-09T08:26:08.000Z</time>
      </trkpt>
      <trkpt lat="43.009371" lon="-2.425635">
        <ele>594.599975585938</ele>
        <time>2018-06-09T08:26:13.000Z</time>
      </trkpt>
      <trkpt lat="43.009378" lon="-2.425624">
        <ele>593.02204560145</ele>
        <time>2018-06-09T08:26:14.000Z</time>
      </trkpt>
      <trkpt lat="43.009366" lon="-2.425616">
        <ele>591.21114299597</ele>
        <time>2018-06-09T08:26:23.000Z</time>
      </trkpt>
      <trkpt lat="43.009351" lon="-2.425633">
        <ele>591.200012207031</ele>
        <time>2018-06-09T08:26:25.000Z</time>
      </trkpt>
      <trkpt lat="43.009333" lon="-2.425651">
        <ele>591.279282590226</ele>
        <time>2018-06-09T08:26:27.000Z</time>
      </trkpt>
      <trkpt lat="43.009311" lon="-2.425652">
        <ele>591.659526980193</ele>
        <time>2018-06-09T08:26:28.000Z</time>
      </trkpt>
      <trkpt lat="43.009269" lon="-2.425657">
        <ele>593.400024414063</ele>
        <time>2018-06-09T08:26:30.000Z</time>
      </trkpt>
      <trkpt lat="43.009232" lon="-2.425671">
        <ele>593.400024414063</ele>
        <time>2018-06-09T08:26:32.000Z</time>
      </trkpt>
      <trkpt lat="43.009159" lon="-2.425721">
        <ele>596.091460177683</ele>
        <time>2018-06-09T08:26:37.000Z</time>
      </trkpt>
      <trkpt lat="43.009151" lon="-2.42576">
        <ele>596.483164076559</ele>
        <time>2018-06-09T08:26:39.000Z</time>
      </trkpt>
      <trkpt lat="43.009159" lon="-2.425793">
        <ele>596.115761110045</ele>
        <time>2018-06-09T08:26:42.000Z</time>
      </trkpt>
      <trkpt lat="43.009168" lon="-2.42583">
        <ele>595.807327037702</ele>
        <time>2018-06-09T08:26:44.000Z</time>
      </trkpt>
      <trkpt lat="43.009171" lon="-2.425868">
        <ele>595.422987064678</ele>
        <time>2018-06-09T08:26:46.000Z</time>
      </trkpt>
      <trkpt lat="43.00918" lon="-2.4259">
        <ele>594.607285397334</ele>
        <time>2018-06-09T08:26:48.000Z</time>
      </trkpt>
      <trkpt lat="43.009178" lon="-2.425928">
        <ele>594.400024414063</ele>
        <time>2018-06-09T08:26:50.000Z</time>
      </trkpt>
      <trkpt lat="43.009181" lon="-2.425968">
        <ele>594.212676679244</ele>
        <time>2018-06-09T08:26:52.000Z</time>
      </trkpt>
      <trkpt lat="43.009176" lon="-2.426043">
        <ele>593.405339519805</ele>
        <time>2018-06-09T08:26:55.000Z</time>
      </trkpt>
      <trkpt lat="43.009177" lon="-2.426085">
        <ele>592.913275044357</ele>
        <time>2018-06-09T08:26:57.000Z</time>
      </trkpt>
      <trkpt lat="43.009174" lon="-2.426115">
        <ele>592.503903104672</ele>
        <time>2018-06-09T08:26:59.000Z</time>
      </trkpt>
      <trkpt lat="43.009174" lon="-2.426142">
        <ele>592</ele>
        <time>2018-06-09T08:27:01.000Z</time>
      </trkpt>
      <trkpt lat="43.009165" lon="-2.426174">
        <ele>591.902834348346</ele>
        <time>2018-06-09T08:27:03.000Z</time>
      </trkpt>
      <trkpt lat="43.009157" lon="-2.426199">
        <ele>591.705633791064</ele>
        <time>2018-06-09T08:27:05.000Z</time>
      </trkpt>
      <trkpt lat="43.00916" lon="-2.426228">
        <ele>591.204622012672</ele>
        <time>2018-06-09T08:27:07.000Z</time>
      </trkpt>
      <trkpt lat="43.009154" lon="-2.426258">
        <ele>590.8029973102</ele>
        <time>2018-06-09T08:27:09.000Z</time>
      </trkpt>
      <trkpt lat="43.009147" lon="-2.426282">
        <ele>590.30320408518</ele>
        <time>2018-06-09T08:27:11.000Z</time>
      </trkpt>
      <trkpt lat="43.009143" lon="-2.42631">
        <ele>590.100678810742</ele>
        <time>2018-06-09T08:27:13.000Z</time>
      </trkpt>
      <trkpt lat="43.009136" lon="-2.426333">
        <ele>589.700311953173</ele>
        <time>2018-06-09T08:27:15.000Z</time>
      </trkpt>
      <trkpt lat="43.009128" lon="-2.42637">
        <ele>589.69880793124</ele>
        <time>2018-06-09T08:27:17.000Z</time>
      </trkpt>
      <trkpt lat="43.009123" lon="-2.426396">
        <ele>589.3976229875</ele>
        <time>2018-06-09T08:27:18.000Z</time>
      </trkpt>
      <trkpt lat="43.009115" lon="-2.42642">
        <ele>588.998794472323</ele>
        <time>2018-06-09T08:27:19.000Z</time>
      </trkpt>
      <trkpt lat="43.009112" lon="-2.426446">
        <ele>588.796976811805</ele>
        <time>2018-06-09T08:27:20.000Z</time>
      </trkpt>
      <trkpt lat="43.009116" lon="-2.426485">
        <ele>588.498400390625</ele>
        <time>2018-06-09T08:27:22.000Z</time>
      </trkpt>
      <trkpt lat="43.009121" lon="-2.426517">
        <ele>588.099975585938</ele>
        <time>2018-06-09T08:27:24.000Z</time>
      </trkpt>
      <trkpt lat="43.009151" lon="-2.426575">
        <ele>586.571147976327</ele>
        <time>2018-06-09T08:27:29.000Z</time>
      </trkpt>
      <trkpt lat="43.009211" lon="-2.426669">
        <ele>584.397323905469</ele>
        <time>2018-06-09T08:27:33.000Z</time>
      </trkpt>
      <trkpt lat="43.009255" lon="-2.426779">
        <ele>582.08013773935</ele>
        <time>2018-06-09T08:27:38.000Z</time>
      </trkpt>
      <trkpt lat="43.009298" lon="-2.426888">
        <ele>579.795868336852</ele>
        <time>2018-06-09T08:27:42.000Z</time>
      </trkpt>
      <trkpt lat="43.009341" lon="-2.427007">
        <ele>578.781031303554</ele>
        <time>2018-06-09T08:27:47.000Z</time>
      </trkpt>
      <trkpt lat="43.009372" lon="-2.427054">
        <ele>577.099975585938</ele>
        <time>2018-06-09T08:27:50.000Z</time>
      </trkpt>
      <trkpt lat="43.00939" lon="-2.427069">
        <ele>577.071920849834</ele>
        <time>2018-06-09T08:27:51.000Z</time>
      </trkpt>
      <trkpt lat="43.009403" lon="-2.427087">
        <ele>576.678282638995</ele>
        <time>2018-06-09T08:27:52.000Z</time>
      </trkpt>
      <trkpt lat="43.009418" lon="-2.427105">
        <ele>576.392244639063</ele>
        <time>2018-06-09T08:27:53.000Z</time>
      </trkpt>
      <trkpt lat="43.009445" lon="-2.427147">
        <ele>575.584115785739</ele>
        <time>2018-06-09T08:27:55.000Z</time>
      </trkpt>
      <trkpt lat="43.00946" lon="-2.427171">
        <ele>575.375220857048</ele>
        <time>2018-06-09T08:27:56.000Z</time>
      </trkpt>
      <trkpt lat="43.009471" lon="-2.427191">
        <ele>575.092037728905</ele>
        <time>2018-06-09T08:27:57.000Z</time>
      </trkpt>
      <trkpt lat="43.009487" lon="-2.42722">
        <ele>574.873815016086</ele>
        <time>2018-06-09T08:27:59.000Z</time>
      </trkpt>
      <trkpt lat="43.009499" lon="-2.427242">
        <ele>574.599975585938</ele>
        <time>2018-06-09T08:28:00.000Z</time>
      </trkpt>
      <trkpt lat="43.009516" lon="-2.427266">
        <ele>574.563907679654</ele>
        <time>2018-06-09T08:28:01.000Z</time>
      </trkpt>
      <trkpt lat="43.009524" lon="-2.427349">
        <ele>573.390321021875</ele>
        <time>2018-06-09T08:28:05.000Z</time>
      </trkpt>
      <trkpt lat="43.009515" lon="-2.427315">
        <ele>572.309017931406</ele>
        <time>2018-06-09T08:28:20.000Z</time>
      </trkpt>
      <trkpt lat="43.009505" lon="-2.42728">
        <ele>572.509516843859</ele>
        <time>2018-06-09T08:28:22.000Z</time>
      </trkpt>
      <trkpt lat="43.009489" lon="-2.427248">
        <ele>573</ele>
        <time>2018-06-09T08:28:24.000Z</time>
      </trkpt>
      <trkpt lat="43.009463" lon="-2.427225">
        <ele>573.011019638389</ele>
        <time>2018-06-09T08:28:26.000Z</time>
      </trkpt>
      <trkpt lat="43.009442" lon="-2.427217">
        <ele>573.222258303036</ele>
        <time>2018-06-09T08:28:28.000Z</time>
      </trkpt>
      <trkpt lat="43.009422" lon="-2.427219">
        <ele>573.822011764514</ele>
        <time>2018-06-09T08:28:30.000Z</time>
      </trkpt>
      <trkpt lat="43.009398" lon="-2.427215">
        <ele>574.222346678011</ele>
        <time>2018-06-09T08:28:32.000Z</time>
      </trkpt>
      <trkpt lat="43.009367" lon="-2.427188">
        <ele>574.422463752183</ele>
        <time>2018-06-09T08:28:34.000Z</time>
      </trkpt>
      <trkpt lat="43.009307" lon="-2.427088">
        <ele>577.312092064063</ele>
        <time>2018-06-09T08:28:42.000Z</time>
      </trkpt>
      <trkpt lat="43.009236" lon="-2.427005">
        <ele>579.313218575299</ele>
        <time>2018-06-09T08:28:50.000Z</time>
      </trkpt>
      <trkpt lat="43.009191" lon="-2.426955">
        <ele>580.599975585938</ele>
        <time>2018-06-09T08:28:56.000Z</time>
      </trkpt>
      <trkpt lat="43.009167" lon="-2.426931">
        <ele>581.015011645439</ele>
        <time>2018-06-09T08:28:58.000Z</time>
      </trkpt>
      <trkpt lat="43.009152" lon="-2.426908">
        <ele>581.315408508542</ele>
        <time>2018-06-09T08:29:00.000Z</time>
      </trkpt>
      <trkpt lat="43.00915" lon="-2.426882">
        <ele>581.416100967748</ele>
        <time>2018-06-09T08:29:02.000Z</time>
      </trkpt>
      <trkpt lat="43.009139" lon="-2.426863">
        <ele>581.833456982841</ele>
        <time>2018-06-09T08:29:04.000Z</time>
      </trkpt>
      <trkpt lat="43.009125" lon="-2.426822">
        <ele>582.887076342176</ele>
        <time>2018-06-09T08:29:08.000Z</time>
      </trkpt>
      <trkpt lat="43.009115" lon="-2.426797">
        <ele>583.299987792969</ele>
        <time>2018-06-09T08:29:10.000Z</time>
      </trkpt>
      <trkpt lat="43.009126" lon="-2.426769">
        <ele>584.400024414063</ele>
        <time>2018-06-09T08:29:14.000Z</time>
      </trkpt>
      <trkpt lat="43.009134" lon="-2.42674">
        <ele>584.299987792969</ele>
        <time>2018-06-09T08:29:17.000Z</time>
      </trkpt>
      <trkpt lat="43.009137" lon="-2.426666">
        <ele>585.683663602553</ele>
        <time>2018-06-09T08:29:24.000Z</time>
      </trkpt>
      <trkpt lat="43.009149" lon="-2.426565">
        <ele>586.721650140219</ele>
        <time>2018-06-09T08:29:29.000Z</time>
      </trkpt>
      <trkpt lat="43.009162" lon="-2.426504">
        <ele>587.389058552137</ele>
        <time>2018-06-09T08:29:32.000Z</time>
      </trkpt>
      <trkpt lat="43.009161" lon="-2.426466">
        <ele>587.934002359213</ele>
        <time>2018-06-09T08:29:34.000Z</time>
      </trkpt>
      <trkpt lat="43.009168" lon="-2.426437">
        <ele>588.56139203582</ele>
        <time>2018-06-09T08:29:36.000Z</time>
      </trkpt>
      <trkpt lat="43.009178" lon="-2.426414">
        <ele>589.099975585938</ele>
        <time>2018-06-09T08:29:38.000Z</time>
      </trkpt>
      <trkpt lat="43.009184" lon="-2.426363">
        <ele>589.299987792969</ele>
        <time>2018-06-09T08:29:41.000Z</time>
      </trkpt>
      <trkpt lat="43.009185" lon="-2.426329">
        <ele>589.299987792969</ele>
        <time>2018-06-09T08:29:43.000Z</time>
      </trkpt>
      <trkpt lat="43.0092" lon="-2.426293">
        <ele>589.425594937269</ele>
        <time>2018-06-09T08:29:45.000Z</time>
      </trkpt>
      <trkpt lat="43.009201" lon="-2.426236">
        <ele>589.853257311097</ele>
        <time>2018-06-09T08:29:48.000Z</time>
      </trkpt>
      <trkpt lat="43.009198" lon="-2.426109">
        <ele>591.099975585938</ele>
        <time>2018-06-09T08:29:54.000Z</time>
      </trkpt>
      <trkpt lat="43.009195" lon="-2.426067">
        <ele>591.22786134901</ele>
        <time>2018-06-09T08:29:56.000Z</time>
      </trkpt>
      <trkpt lat="43.009193" lon="-2.426028">
        <ele>591.442275112288</ele>
        <time>2018-06-09T08:29:58.000Z</time>
      </trkpt>
      <trkpt lat="43.009189" lon="-2.425994">
        <ele>591.828512783547</ele>
        <time>2018-06-09T08:30:00.000Z</time>
      </trkpt>
      <trkpt lat="43.0092" lon="-2.425955">
        <ele>592.200012207031</ele>
        <time>2018-06-09T08:30:02.000Z</time>
      </trkpt>
      <trkpt lat="43.009214" lon="-2.42592">
        <ele>592</ele>
        <time>2018-06-09T08:30:04.000Z</time>
      </trkpt>
      <trkpt lat="43.009209" lon="-2.425881">
        <ele>591.941822100879</ele>
        <time>2018-06-09T08:30:06.000Z</time>
      </trkpt>
      <trkpt lat="43.009193" lon="-2.425857">
        <ele>591.770606463448</ele>
        <time>2018-06-09T08:30:07.000Z</time>
      </trkpt>
      <trkpt lat="43.009176" lon="-2.425834">
        <ele>591.599975585938</ele>
        <time>2018-06-09T08:30:09.000Z</time>
      </trkpt>
      <trkpt lat="43.009158" lon="-2.425815">
        <ele>592.13060932633</ele>
        <time>2018-06-09T08:30:11.000Z</time>
      </trkpt>
      <trkpt lat="43.009162" lon="-2.425789">
        <ele>592.200012207031</ele>
        <time>2018-06-09T08:30:14.000Z</time>
      </trkpt>
      <trkpt lat="43.009144" lon="-2.425764">
        <ele>592.299987792969</ele>
        <time>2018-06-09T08:30:16.000Z</time>
      </trkpt>
      <trkpt lat="43.009116" lon="-2.425738">
        <ele>592.558343746105</ele>
        <time>2018-06-09T08:30:18.000Z</time>
      </trkpt>
      <trkpt lat="43.009094" lon="-2.425711">
        <ele>593.232165314403</ele>
        <time>2018-06-09T08:30:20.000Z</time>
      </trkpt>
      <trkpt lat="43.009082" lon="-2.425677">
        <ele>593.400024414063</ele>
        <time>2018-06-09T08:30:23.000Z</time>
      </trkpt>
      <trkpt lat="43.009069" lon="-2.425644">
        <ele>593.868130448505</ele>
        <time>2018-06-09T08:30:25.000Z</time>
      </trkpt>
      <trkpt lat="43.009064" lon="-2.425609">
        <ele>594.834205016744</ele>
        <time>2018-06-09T08:30:28.000Z</time>
      </trkpt>
      <trkpt lat="43.009052" lon="-2.425579">
        <ele>594.799987792969</ele>
        <time>2018-06-09T08:30:30.000Z</time>
      </trkpt>
      <trkpt lat="43.009039" lon="-2.425558">
        <ele>594.900024414063</ele>
        <time>2018-06-09T08:30:32.000Z</time>
      </trkpt>
      <trkpt lat="43.00903" lon="-2.425533">
        <ele>595.011842663078</ele>
        <time>2018-06-09T08:30:34.000Z</time>
      </trkpt>
      <trkpt lat="43.00902" lon="-2.425506">
        <ele>595.913464426049</ele>
        <time>2018-06-09T08:30:36.000Z</time>
      </trkpt>
      <trkpt lat="43.009007" lon="-2.425468">
        <ele>596.177179657813</ele>
        <time>2018-06-09T08:30:38.000Z</time>
      </trkpt>
      <trkpt lat="43.008996" lon="-2.425437">
        <ele>596.794477985938</ele>
        <time>2018-06-09T08:30:40.000Z</time>
      </trkpt>
      <trkpt lat="43.008988" lon="-2.425401">
        <ele>597.179017513587</ele>
        <time>2018-06-09T08:30:42.000Z</time>
      </trkpt>
      <trkpt lat="43.008982" lon="-2.425367">
        <ele>597.34034458788</ele>
        <time>2018-06-09T08:30:44.000Z</time>
      </trkpt>
      <trkpt lat="43.008972" lon="-2.425336">
        <ele>597.523018449219</ele>
        <time>2018-06-09T08:30:46.000Z</time>
      </trkpt>
      <trkpt lat="43.00896" lon="-2.425301">
        <ele>598.082004364844</ele>
        <time>2018-06-09T08:30:48.000Z</time>
      </trkpt>
      <trkpt lat="43.008949" lon="-2.425264">
        <ele>598.200012207031</ele>
        <time>2018-06-09T08:30:50.000Z</time>
      </trkpt>
      <trkpt lat="43.008938" lon="-2.42523">
        <ele>598.241426648441</ele>
        <time>2018-06-09T08:30:52.000Z</time>
      </trkpt>
      <trkpt lat="43.008928" lon="-2.425203">
        <ele>598.299987792969</ele>
        <time>2018-06-09T08:30:54.000Z</time>
      </trkpt>
      <trkpt lat="43.008919" lon="-2.425175">
        <ele>598.799987792969</ele>
        <time>2018-06-09T08:30:56.000Z</time>
      </trkpt>
      <trkpt lat="43.008912" lon="-2.425148">
        <ele>599.028806838493</ele>
        <time>2018-06-09T08:30:58.000Z</time>
      </trkpt>
      <trkpt lat="43.008913" lon="-2.425122">
        <ele>599.432787144778</ele>
        <time>2018-06-09T08:31:00.000Z</time>
      </trkpt>
      <trkpt lat="43.008927" lon="-2.425095">
        <ele>599.882239883996</ele>
        <time>2018-06-09T08:31:03.000Z</time>
      </trkpt>
      <trkpt lat="43.008931" lon="-2.425068">
        <ele>600.61053744233</ele>
        <time>2018-06-09T08:31:05.000Z</time>
      </trkpt>
      <trkpt lat="43.008923" lon="-2.425019">
        <ele>601</ele>
        <time>2018-06-09T08:31:08.000Z</time>
      </trkpt>
      <trkpt lat="43.008916" lon="-2.42499">
        <ele>600.938415039063</ele>
        <time>2018-06-09T08:31:10.000Z</time>
      </trkpt>
      <trkpt lat="43.008911" lon="-2.424937">
        <ele>601.299987792969</ele>
        <time>2018-06-09T08:31:13.000Z</time>
      </trkpt>
      <trkpt lat="43.008906" lon="-2.424904">
        <ele>601.524375037709</ele>
        <time>2018-06-09T08:31:15.000Z</time>
      </trkpt>
      <trkpt lat="43.008901" lon="-2.424876">
        <ele>601.831497490926</ele>
        <time>2018-06-09T08:31:17.000Z</time>
      </trkpt>
      <trkpt lat="43.008891" lon="-2.424852">
        <ele>602.329516806757</ele>
        <time>2018-06-09T08:31:19.000Z</time>
      </trkpt>
      <trkpt lat="43.008879" lon="-2.424821">
        <ele>602.470087754894</ele>
        <time>2018-06-09T08:31:21.000Z</time>
      </trkpt>
      <trkpt lat="43.008873" lon="-2.424796">
        <ele>602.452752349019</ele>
        <time>2018-06-09T08:31:23.000Z</time>
      </trkpt>
      <trkpt lat="43.008869" lon="-2.424764">
        <ele>603.169201173588</ele>
        <time>2018-06-09T08:31:26.000Z</time>
      </trkpt>
      <trkpt lat="43.008866" lon="-2.424729">
        <ele>603.062528665834</ele>
        <time>2018-06-09T08:31:29.000Z</time>
      </trkpt>
      <trkpt lat="43.008868" lon="-2.424701">
        <ele>603.400024414063</ele>
        <time>2018-06-09T08:31:31.000Z</time>
      </trkpt>
      <trkpt lat="43.008867" lon="-2.424673">
        <ele>603.495199947978</ele>
        <time>2018-06-09T08:31:33.000Z</time>
      </trkpt>
      <trkpt lat="43.008871" lon="-2.42465">
        <ele>604.900024414063</ele>
        <time>2018-06-09T08:31:36.000Z</time>
      </trkpt>
      <trkpt lat="43.008861" lon="-2.424627">
        <ele>605.19398424731</ele>
        <time>2018-06-09T08:31:38.000Z</time>
      </trkpt>
      <trkpt lat="43.00885" lon="-2.424609">
        <ele>605.525486373936</ele>
        <time>2018-06-09T08:31:40.000Z</time>
      </trkpt>
      <trkpt lat="43.008845" lon="-2.42458">
        <ele>605.86305364307</ele>
        <time>2018-06-09T08:31:42.000Z</time>
      </trkpt>
      <trkpt lat="43.008833" lon="-2.424543">
        <ele>606.099975585938</ele>
        <time>2018-06-09T08:31:44.000Z</time>
      </trkpt>
      <trkpt lat="43.00882" lon="-2.424505">
        <ele>606.599697405077</ele>
        <time>2018-06-09T08:31:46.000Z</time>
      </trkpt>
      <trkpt lat="43.008812" lon="-2.42448">
        <ele>607.099975585938</ele>
        <time>2018-06-09T08:31:48.000Z</time>
      </trkpt>
      <trkpt lat="43.008827" lon="-2.42446">
        <ele>607.47076125028</ele>
        <time>2018-06-09T08:31:51.000Z</time>
      </trkpt>
      <trkpt lat="43.008831" lon="-2.424436">
        <ele>607.708920006379</ele>
        <time>2018-06-09T08:31:53.000Z</time>
      </trkpt>
      <trkpt lat="43.008844" lon="-2.424418">
        <ele>606.962483890057</ele>
        <time>2018-06-09T08:32:04.000Z</time>
      </trkpt>
      <trkpt lat="43.008862" lon="-2.424404">
        <ele>606.900024414063</ele>
        <time>2018-06-09T08:32:06.000Z</time>
      </trkpt>
      <trkpt lat="43.008879" lon="-2.424383">
        <ele>606.761203428733</ele>
        <time>2018-06-09T08:32:08.000Z</time>
      </trkpt>
      <trkpt lat="43.008902" lon="-2.424366">
        <ele>606.120891046482</ele>
        <time>2018-06-09T08:32:10.000Z</time>
      </trkpt>
      <trkpt lat="43.008924" lon="-2.424353">
        <ele>605.760374729047</ele>
        <time>2018-06-09T08:32:12.000Z</time>
      </trkpt>
      <trkpt lat="43.00892" lon="-2.424379">
        <ele>604.200012207031</ele>
        <time>2018-06-09T08:32:18.000Z</time>
      </trkpt>
      <trkpt lat="43.008903" lon="-2.424397">
        <ele>604.200012207031</ele>
        <time>2018-06-09T08:32:20.000Z</time>
      </trkpt>
      <trkpt lat="43.008878" lon="-2.4244">
        <ele>604.522308772784</ele>
        <time>2018-06-09T08:32:23.000Z</time>
      </trkpt>
      <trkpt lat="43.008861" lon="-2.424381">
        <ele>605.523866337573</ele>
        <time>2018-06-09T08:32:25.000Z</time>
      </trkpt>
      <trkpt lat="43.008844" lon="-2.424352">
        <ele>605.842314987982</ele>
        <time>2018-06-09T08:32:27.000Z</time>
      </trkpt>
      <trkpt lat="43.008833" lon="-2.424325">
        <ele>606.343250081905</ele>
        <time>2018-06-09T08:32:29.000Z</time>
      </trkpt>
      <trkpt lat="43.008836" lon="-2.424291">
        <ele>606.644011774748</ele>
        <time>2018-06-09T08:32:31.000Z</time>
      </trkpt>
      <trkpt lat="43.008831" lon="-2.424264">
        <ele>606.655763115921</ele>
        <time>2018-06-09T08:32:33.000Z</time>
      </trkpt>
      <trkpt lat="43.008818" lon="-2.424229">
        <ele>607.299987792969</ele>
        <time>2018-06-09T08:32:36.000Z</time>
      </trkpt>
      <trkpt lat="43.008805" lon="-2.42421">
        <ele>607.391560235208</ele>
        <time>2018-06-09T08:32:37.000Z</time>
      </trkpt>
      <trkpt lat="43.008785" lon="-2.424179">
        <ele>607.792341633807</ele>
        <time>2018-06-09T08:32:39.000Z</time>
      </trkpt>
      <trkpt lat="43.008778" lon="-2.424152">
        <ele>607.853568152643</ele>
        <time>2018-06-09T08:32:41.000Z</time>
      </trkpt>
      <trkpt lat="43.008768" lon="-2.424119">
        <ele>608.352965808659</ele>
        <time>2018-06-09T08:32:44.000Z</time>
      </trkpt>
      <trkpt lat="43.008756" lon="-2.424098">
        <ele>608.299987792969</ele>
        <time>2018-06-09T08:32:46.000Z</time>
      </trkpt>
      <trkpt lat="43.008719" lon="-2.424018">
        <ele>608.948064547668</ele>
        <time>2018-06-09T08:32:51.000Z</time>
      </trkpt>
      <trkpt lat="43.008708" lon="-2.423981">
        <ele>609.445774419235</ele>
        <time>2018-06-09T08:32:53.000Z</time>
      </trkpt>
      <trkpt lat="43.008702" lon="-2.423946">
        <ele>609.749446966553</ele>
        <time>2018-06-09T08:32:55.000Z</time>
      </trkpt>
      <trkpt lat="43.0087" lon="-2.423917">
        <ele>610.099975585938</ele>
        <time>2018-06-09T08:32:57.000Z</time>
      </trkpt>
      <trkpt lat="43.008692" lon="-2.423892">
        <ele>610.602211547935</ele>
        <time>2018-06-09T08:32:59.000Z</time>
      </trkpt>
      <trkpt lat="43.008682" lon="-2.423865">
        <ele>610.850858899977</ele>
        <time>2018-06-09T08:33:01.000Z</time>
      </trkpt>
      <trkpt lat="43.00866" lon="-2.423844">
        <ele>611.551085492489</ele>
        <time>2018-06-09T08:33:03.000Z</time>
      </trkpt>
      <trkpt lat="43.00865" lon="-2.423816">
        <ele>612.054909686307</ele>
        <time>2018-06-09T08:33:06.000Z</time>
      </trkpt>
      <trkpt lat="43.008614" lon="-2.423696">
        <ele>613.85572920735</ele>
        <time>2018-06-09T08:33:17.000Z</time>
      </trkpt>
      <trkpt lat="43.008554" lon="-2.423594">
        <ele>615.799987792969</ele>
        <time>2018-06-09T08:33:22.000Z</time>
      </trkpt>
      <trkpt lat="43.008494" lon="-2.423488">
        <ele>618.490433162862</ele>
        <time>2018-06-09T08:33:29.000Z</time>
      </trkpt>
      <trkpt lat="43.008473" lon="-2.423467">
        <ele>619.681934517749</ele>
        <time>2018-06-09T08:33:31.000Z</time>
      </trkpt>
      <trkpt lat="43.008472" lon="-2.423436">
        <ele>620.299987792969</ele>
        <time>2018-06-09T08:33:34.000Z</time>
      </trkpt>
      <trkpt lat="43.008469" lon="-2.42341">
        <ele>620.24182764725</ele>
        <time>2018-06-09T08:33:36.000Z</time>
      </trkpt>
      <trkpt lat="43.008469" lon="-2.423385">
        <ele>620.141291190625</ele>
        <time>2018-06-09T08:33:38.000Z</time>
      </trkpt>
      <trkpt lat="43.008432" lon="-2.423263">
        <ele>621.599975585938</ele>
        <time>2018-06-09T08:33:47.000Z</time>
      </trkpt>
      <trkpt lat="43.008435" lon="-2.42322">
        <ele>622.924769772767</ele>
        <time>2018-06-09T08:33:51.000Z</time>
      </trkpt>
      <trkpt lat="43.008427" lon="-2.423208">
        <ele>624.652002622656</ele>
        <time>2018-06-09T08:33:54.000Z</time>
      </trkpt>
      <trkpt lat="43.008412" lon="-2.423179">
        <ele>625.33625490437</ele>
        <time>2018-06-09T08:33:57.000Z</time>
      </trkpt>
      <trkpt lat="43.008409" lon="-2.423153">
        <ele>625.235044069653</ele>
        <time>2018-06-09T08:33:59.000Z</time>
      </trkpt>
      <trkpt lat="43.008427" lon="-2.42313">
        <ele>625.200012207031</ele>
        <time>2018-06-09T08:34:02.000Z</time>
      </trkpt>
      <trkpt lat="43.00844" lon="-2.423087">
        <ele>625.94088568134</ele>
        <time>2018-06-09T08:34:05.000Z</time>
      </trkpt>
      <trkpt lat="43.008437" lon="-2.423056">
        <ele>626.200012207031</ele>
        <time>2018-06-09T08:34:07.000Z</time>
      </trkpt>
      <trkpt lat="43.008441" lon="-2.423029">
        <ele>626.743396901597</ele>
        <time>2018-06-09T08:34:09.000Z</time>
      </trkpt>
      <trkpt lat="43.00844" lon="-2.422986">
        <ele>627.206110420055</ele>
        <time>2018-06-09T08:34:11.000Z</time>
      </trkpt>
      <trkpt lat="43.008436" lon="-2.422949">
        <ele>627.400024414063</ele>
        <time>2018-06-09T08:34:13.000Z</time>
      </trkpt>
      <trkpt lat="43.008432" lon="-2.422922">
        <ele>628.430794074433</ele>
        <time>2018-06-09T08:34:15.000Z</time>
      </trkpt>
      <trkpt lat="43.008418" lon="-2.422886">
        <ele>628.81700840625</ele>
        <time>2018-06-09T08:34:17.000Z</time>
      </trkpt>
      <trkpt lat="43.008405" lon="-2.422848">
        <ele>629.477465758063</ele>
        <time>2018-06-09T08:34:19.000Z</time>
      </trkpt>
      <trkpt lat="43.008383" lon="-2.422809">
        <ele>629.599975585938</ele>
        <time>2018-06-09T08:34:21.000Z</time>
      </trkpt>
      <trkpt lat="43.008362" lon="-2.422772">
        <ele>629.53049239375</ele>
        <time>2018-06-09T08:34:23.000Z</time>
      </trkpt>
      <trkpt lat="43.008349" lon="-2.422735">
        <ele>629.939474816752</ele>
        <time>2018-06-09T08:34:25.000Z</time>
      </trkpt>
      <trkpt lat="43.008339" lon="-2.422707">
        <ele>631.079324048963</ele>
        <time>2018-06-09T08:34:27.000Z</time>
      </trkpt>
      <trkpt lat="43.008324" lon="-2.422681">
        <ele>631.200012207031</ele>
        <time>2018-06-09T08:34:29.000Z</time>
      </trkpt>
      <trkpt lat="43.008308" lon="-2.422658">
        <ele>631.5</ele>
        <time>2018-06-09T08:34:31.000Z</time>
      </trkpt>
      <trkpt lat="43.008308" lon="-2.422621">
        <ele>631.778974047566</ele>
        <time>2018-06-09T08:34:33.000Z</time>
      </trkpt>
      <trkpt lat="43.008297" lon="-2.422597">
        <ele>632.727455681766</ele>
        <time>2018-06-09T08:34:35.000Z</time>
      </trkpt>
      <trkpt lat="43.00827" lon="-2.422572">
        <ele>633.099975585938</ele>
        <time>2018-06-09T08:34:37.000Z</time>
      </trkpt>
      <trkpt lat="43.008254" lon="-2.422555">
        <ele>633.752376202088</ele>
        <time>2018-06-09T08:34:39.000Z</time>
      </trkpt>
      <trkpt lat="43.008238" lon="-2.422536">
        <ele>633.900024414063</ele>
        <time>2018-06-09T08:34:41.000Z</time>
      </trkpt>
      <trkpt lat="43.008226" lon="-2.422522">
        <ele>634.627704826213</ele>
        <time>2018-06-09T08:34:43.000Z</time>
      </trkpt>
      <trkpt lat="43.008222" lon="-2.422487">
        <ele>635.17223599368</ele>
        <time>2018-06-09T08:34:46.000Z</time>
      </trkpt>
      <trkpt lat="43.008222" lon="-2.422458">
        <ele>635.782550724054</ele>
        <time>2018-06-09T08:34:48.000Z</time>
      </trkpt>
      <trkpt lat="43.008215" lon="-2.422337">
        <ele>638.397969808762</ele>
        <time>2018-06-09T08:34:56.000Z</time>
      </trkpt>
      <trkpt lat="43.008224" lon="-2.422205">
        <ele>638.5</ele>
        <time>2018-06-09T08:35:03.000Z</time>
      </trkpt>
      <trkpt lat="43.008206" lon="-2.422155">
        <ele>638.876869558917</ele>
        <time>2018-06-09T08:35:05.000Z</time>
      </trkpt>
      <trkpt lat="43.008228" lon="-2.422021">
        <ele>638.921583899972</ele>
        <time>2018-06-09T08:35:12.000Z</time>
      </trkpt>
      <trkpt lat="43.008235" lon="-2.421886">
        <ele>639.34127338673</ele>
        <time>2018-06-09T08:35:20.000Z</time>
      </trkpt>
      <trkpt lat="43.008189" lon="-2.421772">
        <ele>639.840254542948</ele>
        <time>2018-06-09T08:35:25.000Z</time>
      </trkpt>
      <trkpt lat="43.008196" lon="-2.421634">
        <ele>640.081543272481</ele>
        <time>2018-06-09T08:35:32.000Z</time>
      </trkpt>
      <trkpt lat="43.008183" lon="-2.4215">
        <ele>641.315038686687</ele>
        <time>2018-06-09T08:35:40.000Z</time>
      </trkpt>
      <trkpt lat="43.008169" lon="-2.421465">
        <ele>641.270957358983</ele>
        <time>2018-06-09T08:35:42.000Z</time>
      </trkpt>
      <trkpt lat="43.00816" lon="-2.421439">
        <ele>641.299987792969</ele>
        <time>2018-06-09T08:35:43.000Z</time>
      </trkpt>
      <trkpt lat="43.00815" lon="-2.421412">
        <ele>641.557633592942</ele>
        <time>2018-06-09T08:35:44.000Z</time>
      </trkpt>
      <trkpt lat="43.008145" lon="-2.421379">
        <ele>641.799987792969</ele>
        <time>2018-06-09T08:35:46.000Z</time>
      </trkpt>
      <trkpt lat="43.008132" lon="-2.421353">
        <ele>641.900024414063</ele>
        <time>2018-06-09T08:35:48.000Z</time>
      </trkpt>
      <trkpt lat="43.008133" lon="-2.421327">
        <ele>642.087629605815</ele>
        <time>2018-06-09T08:35:50.000Z</time>
      </trkpt>
      <trkpt lat="43.008125" lon="-2.421301">
        <ele>642.462762415746</ele>
        <time>2018-06-09T08:35:52.000Z</time>
      </trkpt>
      <trkpt lat="43.008123" lon="-2.42127">
        <ele>642.700012207031</ele>
        <time>2018-06-09T08:35:54.000Z</time>
      </trkpt>
      <trkpt lat="43.008106" lon="-2.42124">
        <ele>643.5</ele>
        <time>2018-06-09T08:35:56.000Z</time>
      </trkpt>
      <trkpt lat="43.008084" lon="-2.421213">
        <ele>643.400024414063</ele>
        <time>2018-06-09T08:35:58.000Z</time>
      </trkpt>
      <trkpt lat="43.008059" lon="-2.42119">
        <ele>644</ele>
        <time>2018-06-09T08:36:00.000Z</time>
      </trkpt>
      <trkpt lat="43.008036" lon="-2.421158">
        <ele>643.990023003317</ele>
        <time>2018-06-09T08:36:02.000Z</time>
      </trkpt>
      <trkpt lat="43.00802" lon="-2.421119">
        <ele>645.019172978906</ele>
        <time>2018-06-09T08:36:04.000Z</time>
      </trkpt>
      <trkpt lat="43.008017" lon="-2.421099">
        <ele>646.271066666824</ele>
        <time>2018-06-09T08:36:05.000Z</time>
      </trkpt>
      <trkpt lat="43.008011" lon="-2.421065">
        <ele>646.400024414063</ele>
        <time>2018-06-09T08:36:07.000Z</time>
      </trkpt>
      <trkpt lat="43.008004" lon="-2.421039">
        <ele>646.400024414063</ele>
        <time>2018-06-09T08:36:09.000Z</time>
      </trkpt>
      <trkpt lat="43.007983" lon="-2.421016">
        <ele>646.490875254328</ele>
        <time>2018-06-09T08:36:11.000Z</time>
      </trkpt>
      <trkpt lat="43.007968" lon="-2.421">
        <ele>646.5</ele>
        <time>2018-06-09T08:36:12.000Z</time>
      </trkpt>
      <trkpt lat="43.007952" lon="-2.420974">
        <ele>647.331342510387</ele>
        <time>2018-06-09T08:36:14.000Z</time>
      </trkpt>
      <trkpt lat="43.007928" lon="-2.420948">
        <ele>647.400024414063</ele>
        <time>2018-06-09T08:36:16.000Z</time>
      </trkpt>
      <trkpt lat="43.007907" lon="-2.420929">
        <ele>647.593438086898</ele>
        <time>2018-06-09T08:36:18.000Z</time>
      </trkpt>
      <trkpt lat="43.007888" lon="-2.420898">
        <ele>647.318868653255</ele>
        <time>2018-06-09T08:36:20.000Z</time>
      </trkpt>
      <trkpt lat="43.007872" lon="-2.420862">
        <ele>647.782022708103</ele>
        <time>2018-06-09T08:36:22.000Z</time>
      </trkpt>
      <trkpt lat="43.007864" lon="-2.420832">
        <ele>647.900024414063</ele>
        <time>2018-06-09T08:36:24.000Z</time>
      </trkpt>
      <trkpt lat="43.007858" lon="-2.420803">
        <ele>648.37793298975</ele>
        <time>2018-06-09T08:36:26.000Z</time>
      </trkpt>
      <trkpt lat="43.007851" lon="-2.420764">
        <ele>648.492576352974</ele>
        <time>2018-06-09T08:36:28.000Z</time>
      </trkpt>
      <trkpt lat="43.007841" lon="-2.420732">
        <ele>648.691889543591</ele>
        <time>2018-06-09T08:36:30.000Z</time>
      </trkpt>
      <trkpt lat="43.007828" lon="-2.420702">
        <ele>649.291552956826</ele>
        <time>2018-06-09T08:36:32.000Z</time>
      </trkpt>
      <trkpt lat="43.007821" lon="-2.420657">
        <ele>649.895599501993</ele>
        <time>2018-06-09T08:36:35.000Z</time>
      </trkpt>
      <trkpt lat="43.007815" lon="-2.420625">
        <ele>650.099975585938</ele>
        <time>2018-06-09T08:36:37.000Z</time>
      </trkpt>
      <trkpt lat="43.00779" lon="-2.420581">
        <ele>650.200012207031</ele>
        <time>2018-06-09T08:36:40.000Z</time>
      </trkpt>
      <trkpt lat="43.007784" lon="-2.420527">
        <ele>651.299987792969</ele>
        <time>2018-06-09T08:36:44.000Z</time>
      </trkpt>
      <trkpt lat="43.007749" lon="-2.420483">
        <ele>651.705227572193</ele>
        <time>2018-06-09T08:36:47.000Z</time>
      </trkpt>
      <trkpt lat="43.007737" lon="-2.420466">
        <ele>651.953694864065</ele>
        <time>2018-06-09T08:36:49.000Z</time>
      </trkpt>
      <trkpt lat="43.007717" lon="-2.420446">
        <ele>653.80802036011</ele>
        <time>2018-06-09T08:36:52.000Z</time>
      </trkpt>
      <trkpt lat="43.007706" lon="-2.420426">
        <ele>653.900024414063</ele>
        <time>2018-06-09T08:36:54.000Z</time>
      </trkpt>
      <trkpt lat="43.007698" lon="-2.420398">
        <ele>654.405434217921</ele>
        <time>2018-06-09T08:36:57.000Z</time>
      </trkpt>
      <trkpt lat="43.007694" lon="-2.420357">
        <ele>654.705822146749</ele>
        <time>2018-06-09T08:36:59.000Z</time>
      </trkpt>
      <trkpt lat="43.007693" lon="-2.420325">
        <ele>654.900024414063</ele>
        <time>2018-06-09T08:37:01.000Z</time>
      </trkpt>
      <trkpt lat="43.007686" lon="-2.420274">
        <ele>654.920182792653</ele>
        <time>2018-06-09T08:37:04.000Z</time>
      </trkpt>
      <trkpt lat="43.007674" lon="-2.420239">
        <ele>655</ele>
        <time>2018-06-09T08:37:06.000Z</time>
      </trkpt>
      <trkpt lat="43.007664" lon="-2.420213">
        <ele>655</ele>
        <time>2018-06-09T08:37:08.000Z</time>
      </trkpt>
      <trkpt lat="43.007658" lon="-2.420186">
        <ele>654.900024414063</ele>
        <time>2018-06-09T08:37:10.000Z</time>
      </trkpt>
      <trkpt lat="43.007646" lon="-2.420157">
        <ele>654.299987792969</ele>
        <time>2018-06-09T08:37:12.000Z</time>
      </trkpt>
      <trkpt lat="43.00763" lon="-2.420131">
        <ele>654.299987792969</ele>
        <time>2018-06-09T08:37:14.000Z</time>
      </trkpt>
      <trkpt lat="43.007608" lon="-2.420043">
        <ele>655.5</ele>
        <time>2018-06-09T08:37:18.000Z</time>
      </trkpt>
      <trkpt lat="43.007619" lon="-2.41992">
        <ele>654.955785132146</ele>
        <time>2018-06-09T08:37:24.000Z</time>
      </trkpt>
      <trkpt lat="43.007601" lon="-2.419789">
        <ele>655.911542812065</ele>
        <time>2018-06-09T08:37:30.000Z</time>
      </trkpt>
      <trkpt lat="43.007569" lon="-2.419713">
        <ele>657.364585393175</ele>
        <time>2018-06-09T08:37:34.000Z</time>
      </trkpt>
      <trkpt lat="43.007566" lon="-2.419688">
        <ele>658.200012207031</ele>
        <time>2018-06-09T08:37:36.000Z</time>
      </trkpt>
      <trkpt lat="43.007559" lon="-2.419655">
        <ele>658.383655660968</ele>
        <time>2018-06-09T08:37:38.000Z</time>
      </trkpt>
      <trkpt lat="43.007551" lon="-2.419628">
        <ele>659.400024414063</ele>
        <time>2018-06-09T08:37:40.000Z</time>
      </trkpt>
      <trkpt lat="43.007538" lon="-2.419599">
        <ele>659.417572862676</ele>
        <time>2018-06-09T08:37:42.000Z</time>
      </trkpt>
      <trkpt lat="43.007531" lon="-2.419563">
        <ele>659.881662554903</ele>
        <time>2018-06-09T08:37:45.000Z</time>
      </trkpt>
      <trkpt lat="43.007523" lon="-2.419528">
        <ele>659.799987792969</ele>
        <time>2018-06-09T08:37:47.000Z</time>
      </trkpt>
      <trkpt lat="43.007516" lon="-2.419501">
        <ele>659.936334179256</ele>
        <time>2018-06-09T08:37:48.000Z</time>
      </trkpt>
      <trkpt lat="43.007521" lon="-2.419463">
        <ele>660.701380253598</ele>
        <time>2018-06-09T08:37:50.000Z</time>
      </trkpt>
      <trkpt lat="43.007523" lon="-2.419423">
        <ele>661.400024414063</ele>
        <time>2018-06-09T08:37:52.000Z</time>
      </trkpt>
      <trkpt lat="43.007524" lon="-2.419385">
        <ele>661.299987792969</ele>
        <time>2018-06-09T08:37:54.000Z</time>
      </trkpt>
      <trkpt lat="43.007523" lon="-2.419349">
        <ele>661.700012207031</ele>
        <time>2018-06-09T08:37:56.000Z</time>
      </trkpt>
      <trkpt lat="43.007529" lon="-2.419316">
        <ele>661.722765680249</ele>
        <time>2018-06-09T08:37:58.000Z</time>
      </trkpt>
      <trkpt lat="43.007525" lon="-2.419282">
        <ele>662.476110083856</ele>
        <time>2018-06-09T08:38:00.000Z</time>
      </trkpt>
      <trkpt lat="43.007526" lon="-2.419236">
        <ele>662.5</ele>
        <time>2018-06-09T08:38:02.000Z</time>
      </trkpt>
      <trkpt lat="43.007515" lon="-2.419197">
        <ele>662.550353567437</ele>
        <time>2018-06-09T08:38:04.000Z</time>
      </trkpt>
      <trkpt lat="43.007504" lon="-2.419156">
        <ele>662.700012207031</ele>
        <time>2018-06-09T08:38:06.000Z</time>
      </trkpt>
      <trkpt lat="43.007491" lon="-2.419136">
        <ele>662.725983525633</ele>
        <time>2018-06-09T08:38:07.000Z</time>
      </trkpt>
      <trkpt lat="43.007488" lon="-2.419092">
        <ele>662.799987792969</ele>
        <time>2018-06-09T08:38:09.000Z</time>
      </trkpt>
      <trkpt lat="43.007486" lon="-2.419068">
        <ele>662.879404788197</ele>
        <time>2018-06-09T08:38:10.000Z</time>
      </trkpt>
      <trkpt lat="43.007479" lon="-2.419019">
        <ele>663.073255907448</ele>
        <time>2018-06-09T08:38:12.000Z</time>
      </trkpt>
      <trkpt lat="43.007475" lon="-2.418994">
        <ele>663</ele>
        <time>2018-06-09T08:38:13.000Z</time>
      </trkpt>
      <trkpt lat="43.00747" lon="-2.418955">
        <ele>662.900024414063</ele>
        <time>2018-06-09T08:38:15.000Z</time>
      </trkpt>
      <trkpt lat="43.007471" lon="-2.41893">
        <ele>662.900024414063</ele>
        <time>2018-06-09T08:38:16.000Z</time>
      </trkpt>
      <trkpt lat="43.00747" lon="-2.418904">
        <ele>662.900024414063</ele>
        <time>2018-06-09T08:38:17.000Z</time>
      </trkpt>
      <trkpt lat="43.007464" lon="-2.418867">
        <ele>662.845402957501</ele>
        <time>2018-06-09T08:38:19.000Z</time>
      </trkpt>
      <trkpt lat="43.007457" lon="-2.418823">
        <ele>662.799987792969</ele>
        <time>2018-06-09T08:38:21.000Z</time>
      </trkpt>
      <trkpt lat="43.00744" lon="-2.418781">
        <ele>662.799987792969</ele>
        <time>2018-06-09T08:38:23.000Z</time>
      </trkpt>
      <trkpt lat="43.007422" lon="-2.418733">
        <ele>662.742869299699</ele>
        <time>2018-06-09T08:38:25.000Z</time>
      </trkpt>
      <trkpt lat="43.007411" lon="-2.41871">
        <ele>662.628657620107</ele>
        <time>2018-06-09T08:38:26.000Z</time>
      </trkpt>
      <trkpt lat="43.007403" lon="-2.418687">
        <ele>662.700012207031</ele>
        <time>2018-06-09T08:38:27.000Z</time>
      </trkpt>
      <trkpt lat="43.007382" lon="-2.418643">
        <ele>662.671345133128</ele>
        <time>2018-06-09T08:38:29.000Z</time>
      </trkpt>
      <trkpt lat="43.007378" lon="-2.418601">
        <ele>662.471449468424</ele>
        <time>2018-06-09T08:38:31.000Z</time>
      </trkpt>
      <trkpt lat="43.007366" lon="-2.418579">
        <ele>662.400024414063</ele>
        <time>2018-06-09T08:38:32.000Z</time>
      </trkpt>
      <trkpt lat="43.007358" lon="-2.418553">
        <ele>662.400024414063</ele>
        <time>2018-06-09T08:38:34.000Z</time>
      </trkpt>
      <trkpt lat="43.00735" lon="-2.41852">
        <ele>662.200012207031</ele>
        <time>2018-06-09T08:38:37.000Z</time>
      </trkpt>
      <trkpt lat="43.007336" lon="-2.418486">
        <ele>662.130818298833</ele>
        <time>2018-06-09T08:38:39.000Z</time>
      </trkpt>
      <trkpt lat="43.007322" lon="-2.418468">
        <ele>662.107129070014</ele>
        <time>2018-06-09T08:38:40.000Z</time>
      </trkpt>
      <trkpt lat="43.007309" lon="-2.418437">
        <ele>662.026922180483</ele>
        <time>2018-06-09T08:38:42.000Z</time>
      </trkpt>
      <trkpt lat="43.007302" lon="-2.418395">
        <ele>662.36592178331</ele>
        <time>2018-06-09T08:38:44.000Z</time>
      </trkpt>
      <trkpt lat="43.007324" lon="-2.418276">
        <ele>663.099975585938</ele>
        <time>2018-06-09T08:38:51.000Z</time>
      </trkpt>
      <trkpt lat="43.00727" lon="-2.418125">
        <ele>663.799987792969</ele>
        <time>2018-06-09T08:38:58.000Z</time>
      </trkpt>
      <trkpt lat="43.007217" lon="-2.41802">
        <ele>665</ele>
        <time>2018-06-09T08:39:03.000Z</time>
      </trkpt>
      <trkpt lat="43.007229" lon="-2.417874">
        <ele>665.439914832813</ele>
        <time>2018-06-09T08:39:10.000Z</time>
      </trkpt>
      <trkpt lat="43.007265" lon="-2.417745">
        <ele>665.700012207031</ele>
        <time>2018-06-09T08:39:17.000Z</time>
      </trkpt>
      <trkpt lat="43.007265" lon="-2.417609">
        <ele>666.900024414063</ele>
        <time>2018-06-09T08:39:24.000Z</time>
      </trkpt>
      <trkpt lat="43.007216" lon="-2.417498">
        <ele>667.732129012293</ele>
        <time>2018-06-09T08:39:30.000Z</time>
      </trkpt>
      <trkpt lat="43.007202" lon="-2.417465">
        <ele>668.133394438022</ele>
        <time>2018-06-09T08:39:32.000Z</time>
      </trkpt>
      <trkpt lat="43.007194" lon="-2.417433">
        <ele>668.544689246875</ele>
        <time>2018-06-09T08:39:34.000Z</time>
      </trkpt>
      <trkpt lat="43.00719" lon="-2.417392">
        <ele>668.700012207031</ele>
        <time>2018-06-09T08:39:36.000Z</time>
      </trkpt>
      <trkpt lat="43.007177" lon="-2.41737">
        <ele>668.799987792969</ele>
        <time>2018-06-09T08:39:39.000Z</time>
      </trkpt>
      <trkpt lat="43.007166" lon="-2.417349">
        <ele>669.094112108003</ele>
        <time>2018-06-09T08:39:43.000Z</time>
      </trkpt>
      <trkpt lat="43.007174" lon="-2.417317">
        <ele>669.200012207031</ele>
        <time>2018-06-09T08:39:46.000Z</time>
      </trkpt>
      <trkpt lat="43.007183" lon="-2.417247">
        <ele>669.200012207031</ele>
        <time>2018-06-09T08:39:51.000Z</time>
      </trkpt>
      <trkpt lat="43.007193" lon="-2.41721">
        <ele>669.104492141544</ele>
        <time>2018-06-09T08:39:53.000Z</time>
      </trkpt>
      <trkpt lat="43.007175" lon="-2.417083">
        <ele>669.200012207031</ele>
        <time>2018-06-09T08:39:58.000Z</time>
      </trkpt>
      <trkpt lat="43.007153" lon="-2.41695">
        <ele>669.547531081305</ele>
        <time>2018-06-09T08:40:03.000Z</time>
      </trkpt>
      <trkpt lat="43.007149" lon="-2.416895">
        <ele>669.647588183056</ele>
        <time>2018-06-09T08:40:05.000Z</time>
      </trkpt>
      <trkpt lat="43.007148" lon="-2.416846">
        <ele>669.89549890967</ele>
        <time>2018-06-09T08:40:07.000Z</time>
      </trkpt>
      <trkpt lat="43.007138" lon="-2.416713">
        <ele>671.700012207031</ele>
        <time>2018-06-09T08:40:13.000Z</time>
      </trkpt>
      <trkpt lat="43.007119" lon="-2.416573">
        <ele>672.451369068162</ele>
        <time>2018-06-09T08:40:18.000Z</time>
      </trkpt>
      <trkpt lat="43.007083" lon="-2.416442">
        <ele>673.505798264062</ele>
        <time>2018-06-09T08:40:24.000Z</time>
      </trkpt>
      <trkpt lat="43.007061" lon="-2.416341">
        <ele>673.5</ele>
        <time>2018-06-09T08:40:29.000Z</time>
      </trkpt>
      <trkpt lat="43.007051" lon="-2.416299">
        <ele>673.400024414063</ele>
        <time>2018-06-09T08:40:31.000Z</time>
      </trkpt>
      <trkpt lat="43.007043" lon="-2.416275">
        <ele>673.400024414063</ele>
        <time>2018-06-09T08:40:32.000Z</time>
      </trkpt>
      <trkpt lat="43.007007" lon="-2.416153">
        <ele>673.400024414063</ele>
        <time>2018-06-09T08:40:38.000Z</time>
      </trkpt>
      <trkpt lat="43.007014" lon="-2.41603">
        <ele>673.200012207031</ele>
        <time>2018-06-09T08:40:44.000Z</time>
      </trkpt>
      <trkpt lat="43.006967" lon="-2.415906">
        <ele>673.900024414063</ele>
        <time>2018-06-09T08:40:51.000Z</time>
      </trkpt>
      <trkpt lat="43.006931" lon="-2.415775">
        <ele>672.900024414063</ele>
        <time>2018-06-09T08:41:01.000Z</time>
      </trkpt>
      <trkpt lat="43.006913" lon="-2.415644">
        <ele>672.864805913547</ele>
        <time>2018-06-09T08:41:09.000Z</time>
      </trkpt>
      <trkpt lat="43.00689" lon="-2.41552">
        <ele>673.133688868649</ele>
        <time>2018-06-09T08:41:15.000Z</time>
      </trkpt>
      <trkpt lat="43.006895" lon="-2.415392">
        <ele>673.599975585938</ele>
        <time>2018-06-09T08:41:24.000Z</time>
      </trkpt>
      <trkpt lat="43.006919" lon="-2.415272">
        <ele>674.767863717167</ele>
        <time>2018-06-09T08:41:32.000Z</time>
      </trkpt>
      <trkpt lat="43.006965" lon="-2.415161">
        <ele>675.599975585938</ele>
        <time>2018-06-09T08:41:40.000Z</time>
      </trkpt>
      <trkpt lat="43.007017" lon="-2.415059">
        <ele>676.700012207031</ele>
        <time>2018-06-09T08:41:48.000Z</time>
      </trkpt>
      <trkpt lat="43.007068" lon="-2.414952">
        <ele>677.969876793741</ele>
        <time>2018-06-09T08:41:54.000Z</time>
      </trkpt>
      <trkpt lat="43.007074" lon="-2.414819">
        <ele>679.513499220852</ele>
        <time>2018-06-09T08:42:00.000Z</time>
      </trkpt>
      <trkpt lat="43.007081" lon="-2.414796">
        <ele>679.671358249287</ele>
        <time>2018-06-09T08:42:01.000Z</time>
      </trkpt>
      <trkpt lat="43.007082" lon="-2.414758">
        <ele>679.771709937868</ele>
        <time>2018-06-09T08:42:02.000Z</time>
      </trkpt>
      <trkpt lat="43.007112" lon="-2.414637">
        <ele>681.700012207031</ele>
        <time>2018-06-09T08:42:11.000Z</time>
      </trkpt>
      <trkpt lat="43.007141" lon="-2.414508">
        <ele>682.622350931134</ele>
        <time>2018-06-09T08:42:18.000Z</time>
      </trkpt>
      <trkpt lat="43.007195" lon="-2.414393">
        <ele>683.865336572819</ele>
        <time>2018-06-09T08:42:25.000Z</time>
      </trkpt>
      <trkpt lat="43.007207" lon="-2.41427">
        <ele>685.079339088354</ele>
        <time>2018-06-09T08:42:31.000Z</time>
      </trkpt>
      <trkpt lat="43.007195" lon="-2.414211">
        <ele>685.599975585938</ele>
        <time>2018-06-09T08:42:34.000Z</time>
      </trkpt>
      <trkpt lat="43.007205" lon="-2.414183">
        <ele>685.980224258163</ele>
        <time>2018-06-09T08:42:36.000Z</time>
      </trkpt>
      <trkpt lat="43.007215" lon="-2.414146">
        <ele>686</ele>
        <time>2018-06-09T08:42:38.000Z</time>
      </trkpt>
      <trkpt lat="43.00721" lon="-2.414105">
        <ele>685.658719016869</ele>
        <time>2018-06-09T08:42:40.000Z</time>
      </trkpt>
      <trkpt lat="43.007197" lon="-2.414076">
        <ele>685.599975585938</ele>
        <time>2018-06-09T08:42:41.000Z</time>
      </trkpt>
      <trkpt lat="43.007197" lon="-2.414049">
        <ele>685.5</ele>
        <time>2018-06-09T08:42:43.000Z</time>
      </trkpt>
      <trkpt lat="43.007179" lon="-2.41403">
        <ele>685.827254809132</ele>
        <time>2018-06-09T08:42:45.000Z</time>
      </trkpt>
      <trkpt lat="43.00716" lon="-2.414019">
        <ele>686.581933794708</ele>
        <time>2018-06-09T08:42:47.000Z</time>
      </trkpt>
      <trkpt lat="43.007144" lon="-2.414011">
        <ele>687.361853750397</ele>
        <time>2018-06-09T08:42:49.000Z</time>
      </trkpt>
      <trkpt lat="43.007127" lon="-2.413985">
        <ele>687.816727494586</ele>
        <time>2018-06-09T08:42:55.000Z</time>
      </trkpt>
      <trkpt lat="43.00716" lon="-2.413865">
        <ele>687.400024414063</ele>
        <time>2018-06-09T08:43:05.000Z</time>
      </trkpt>
      <trkpt lat="43.007167" lon="-2.413736">
        <ele>686.829015050274</ele>
        <time>2018-06-09T08:43:13.000Z</time>
      </trkpt>
      <trkpt lat="43.007132" lon="-2.413686">
        <ele>686.599975585938</ele>
        <time>2018-06-09T08:43:17.000Z</time>
      </trkpt>
      <trkpt lat="43.00713" lon="-2.413656">
        <ele>686.253715815052</ele>
        <time>2018-06-09T08:43:19.000Z</time>
      </trkpt>
      <trkpt lat="43.007114" lon="-2.413619">
        <ele>686.5</ele>
        <time>2018-06-09T08:43:21.000Z</time>
      </trkpt>
      <trkpt lat="43.007098" lon="-2.413579">
        <ele>686.799987792969</ele>
        <time>2018-06-09T08:43:23.000Z</time>
      </trkpt>
      <trkpt lat="43.007085" lon="-2.413545">
        <ele>687</ele>
        <time>2018-06-09T08:43:25.000Z</time>
      </trkpt>
      <trkpt lat="43.007091" lon="-2.413494">
        <ele>686.727503462485</ele>
        <time>2018-06-09T08:43:27.000Z</time>
      </trkpt>
      <trkpt lat="43.007089" lon="-2.413468">
        <ele>686.700012207031</ele>
        <time>2018-06-09T08:43:28.000Z</time>
      </trkpt>
      <trkpt lat="43.007102" lon="-2.413428">
        <ele>686.526802275781</ele>
        <time>2018-06-09T08:43:30.000Z</time>
      </trkpt>
      <trkpt lat="43.007101" lon="-2.413395">
        <ele>686.5</ele>
        <time>2018-06-09T08:43:32.000Z</time>
      </trkpt>
      <trkpt lat="43.007098" lon="-2.413352">
        <ele>686.700012207031</ele>
        <time>2018-06-09T08:43:34.000Z</time>
      </trkpt>
      <trkpt lat="43.007053" lon="-2.413221">
        <ele>686.400024414063</ele>
        <time>2018-06-09T08:43:41.000Z</time>
      </trkpt>
      <trkpt lat="43.007044" lon="-2.413196">
        <ele>686.400024414063</ele>
        <time>2018-06-09T08:43:42.000Z</time>
      </trkpt>
      <trkpt lat="43.007029" lon="-2.413148">
        <ele>686.400024414063</ele>
        <time>2018-06-09T08:43:44.000Z</time>
      </trkpt>
      <trkpt lat="43.007005" lon="-2.413112">
        <ele>687.642523484887</ele>
        <time>2018-06-09T08:43:46.000Z</time>
      </trkpt>
      <trkpt lat="43.00694" lon="-2.413003">
        <ele>687.107207195376</ele>
        <time>2018-06-09T08:43:53.000Z</time>
      </trkpt>
      <trkpt lat="43.00687" lon="-2.412919">
        <ele>686.894245688076</ele>
        <time>2018-06-09T08:44:02.000Z</time>
      </trkpt>
      <trkpt lat="43.006833" lon="-2.412856">
        <ele>686.710062476935</ele>
        <time>2018-06-09T08:44:06.000Z</time>
      </trkpt>
      <trkpt lat="43.006818" lon="-2.412838">
        <ele>686.900024414063</ele>
        <time>2018-06-09T08:44:08.000Z</time>
      </trkpt>
      <trkpt lat="43.006795" lon="-2.412826">
        <ele>686.599975585938</ele>
        <time>2018-06-09T08:44:10.000Z</time>
      </trkpt>
      <trkpt lat="43.006778" lon="-2.412779">
        <ele>686.299987792969</ele>
        <time>2018-06-09T08:44:13.000Z</time>
      </trkpt>
      <trkpt lat="43.00677" lon="-2.412755">
        <ele>686.299987792969</ele>
        <time>2018-06-09T08:44:14.000Z</time>
      </trkpt>
      <trkpt lat="43.006758" lon="-2.412736">
        <ele>686.299987792969</ele>
        <time>2018-06-09T08:44:16.000Z</time>
      </trkpt>
      <trkpt lat="43.006754" lon="-2.412706">
        <ele>686.200012207031</ele>
        <time>2018-06-09T08:44:19.000Z</time>
      </trkpt>
      <trkpt lat="43.006698" lon="-2.412576">
        <ele>686.299987792969</ele>
        <time>2018-06-09T08:44:24.000Z</time>
      </trkpt>
      <trkpt lat="43.00663" lon="-2.412484">
        <ele>685.799987792969</ele>
        <time>2018-06-09T08:44:27.000Z</time>
      </trkpt>
      <trkpt lat="43.006566" lon="-2.412396">
        <ele>686.700012207031</ele>
        <time>2018-06-09T08:44:30.000Z</time>
      </trkpt>
      <trkpt lat="43.006482" lon="-2.412303">
        <ele>687.400024414063</ele>
        <time>2018-06-09T08:44:34.000Z</time>
      </trkpt>
      <trkpt lat="43.006386" lon="-2.412226">
        <ele>687.293638199095</ele>
        <time>2018-06-09T08:44:38.000Z</time>
      </trkpt>
      <trkpt lat="43.006329" lon="-2.412106">
        <ele>686.183164343502</ele>
        <time>2018-06-09T08:44:43.000Z</time>
      </trkpt>
      <trkpt lat="43.006332" lon="-2.411971">
        <ele>685.099975585938</ele>
        <time>2018-06-09T08:44:48.000Z</time>
      </trkpt>
      <trkpt lat="43.006348" lon="-2.411812">
        <ele>684</ele>
        <time>2018-06-09T08:44:52.000Z</time>
      </trkpt>
      <trkpt lat="43.00637" lon="-2.411689">
        <ele>684</ele>
        <time>2018-06-09T08:44:56.000Z</time>
      </trkpt>
      <trkpt lat="43.006391" lon="-2.411558">
        <ele>684.805603747479</ele>
        <time>2018-06-09T08:45:01.000Z</time>
      </trkpt>
      <trkpt lat="43.006399" lon="-2.411511">
        <ele>685.003008598855</ele>
        <time>2018-06-09T08:45:03.000Z</time>
      </trkpt>
      <trkpt lat="43.006401" lon="-2.411477">
        <ele>685.003699576563</ele>
        <time>2018-06-09T08:45:05.000Z</time>
      </trkpt>
      <trkpt lat="43.006395" lon="-2.41143">
        <ele>685</ele>
        <time>2018-06-09T08:45:07.000Z</time>
      </trkpt>
      <trkpt lat="43.006387" lon="-2.411404">
        <ele>684.996096895328</ele>
        <time>2018-06-09T08:45:08.000Z</time>
      </trkpt>
      <trkpt lat="43.006389" lon="-2.411371">
        <ele>684.900024414063</ele>
        <time>2018-06-09T08:45:09.000Z</time>
      </trkpt>
      <trkpt lat="43.006395" lon="-2.411342">
        <ele>684.900024414063</ele>
        <time>2018-06-09T08:45:10.000Z</time>
      </trkpt>
      <trkpt lat="43.006405" lon="-2.411318">
        <ele>684.907042856788</ele>
        <time>2018-06-09T08:45:11.000Z</time>
      </trkpt>
      <trkpt lat="43.006409" lon="-2.411291">
        <ele>685.141822277393</ele>
        <time>2018-06-09T08:45:12.000Z</time>
      </trkpt>
      <trkpt lat="43.006422" lon="-2.411254">
        <ele>686.204327968009</ele>
        <time>2018-06-09T08:45:14.000Z</time>
      </trkpt>
      <trkpt lat="43.006434" lon="-2.411217">
        <ele>686.299987792969</ele>
        <time>2018-06-09T08:45:16.000Z</time>
      </trkpt>
      <trkpt lat="43.006435" lon="-2.411168">
        <ele>686.299987792969</ele>
        <time>2018-06-09T08:45:19.000Z</time>
      </trkpt>
      <trkpt lat="43.006453" lon="-2.41103">
        <ele>686.900024414063</ele>
        <time>2018-06-09T08:45:26.000Z</time>
      </trkpt>
      <trkpt lat="43.006457" lon="-2.410896">
        <ele>686.400024414063</ele>
        <time>2018-06-09T08:45:36.000Z</time>
      </trkpt>
      <trkpt lat="43.006447" lon="-2.41077">
        <ele>686.400024414063</ele>
        <time>2018-06-09T08:45:42.000Z</time>
      </trkpt>
      <trkpt lat="43.006434" lon="-2.410639">
        <ele>686.413260365304</ele>
        <time>2018-06-09T08:45:48.000Z</time>
      </trkpt>
      <trkpt lat="43.006436" lon="-2.410509">
        <ele>686.599975585938</ele>
        <time>2018-06-09T08:45:56.000Z</time>
      </trkpt>
      <trkpt lat="43.006424" lon="-2.410376">
        <ele>686.700012207031</ele>
        <time>2018-06-09T08:46:02.000Z</time>
      </trkpt>
      <trkpt lat="43.006429" lon="-2.410264">
        <ele>692</ele>
        <time>2018-06-09T08:46:07.000Z</time>
      </trkpt>
      <trkpt lat="43.006398" lon="-2.410129">
        <ele>692</ele>
        <time>2018-06-09T08:46:13.000Z</time>
      </trkpt>
      <trkpt lat="43.006356" lon="-2.409999">
        <ele>691.599975585938</ele>
        <time>2018-06-09T08:46:18.000Z</time>
      </trkpt>
      <trkpt lat="43.006298" lon="-2.409897">
        <ele>691.876516288281</ele>
        <time>2018-06-09T08:46:25.000Z</time>
      </trkpt>
      <trkpt lat="43.006265" lon="-2.409762">
        <ele>692.200012207031</ele>
        <time>2018-06-09T08:46:33.000Z</time>
      </trkpt>
      <trkpt lat="43.006262" lon="-2.40973">
        <ele>692.1749783781</ele>
        <time>2018-06-09T08:46:35.000Z</time>
      </trkpt>
      <trkpt lat="43.006258" lon="-2.409699">
        <ele>692.074581467188</ele>
        <time>2018-06-09T08:46:37.000Z</time>
      </trkpt>
      <trkpt lat="43.006255" lon="-2.409666">
        <ele>691.923126374372</ele>
        <time>2018-06-09T08:46:39.000Z</time>
      </trkpt>
      <trkpt lat="43.006248" lon="-2.409635">
        <ele>691.700012207031</ele>
        <time>2018-06-09T08:46:41.000Z</time>
      </trkpt>
      <trkpt lat="43.006238" lon="-2.409601">
        <ele>691.700012207031</ele>
        <time>2018-06-09T08:46:43.000Z</time>
      </trkpt>
      <trkpt lat="43.006223" lon="-2.409568">
        <ele>691.880024335858</ele>
        <time>2018-06-09T08:46:45.000Z</time>
      </trkpt>
      <trkpt lat="43.006204" lon="-2.409544">
        <ele>692.099975585938</ele>
        <time>2018-06-09T08:46:46.000Z</time>
      </trkpt>
      <trkpt lat="43.006185" lon="-2.409526">
        <ele>692.099975585938</ele>
        <time>2018-06-09T08:46:47.000Z</time>
      </trkpt>
      <trkpt lat="43.006166" lon="-2.409506">
        <ele>692.01594291886</ele>
        <time>2018-06-09T08:46:48.000Z</time>
      </trkpt>
      <trkpt lat="43.006144" lon="-2.409485">
        <ele>691.714579967241</ele>
        <time>2018-06-09T08:46:49.000Z</time>
      </trkpt>
      <trkpt lat="43.00612" lon="-2.40947">
        <ele>691.470844866068</ele>
        <time>2018-06-09T08:46:50.000Z</time>
      </trkpt>
      <trkpt lat="43.006096" lon="-2.409454">
        <ele>691.25087710539</ele>
        <time>2018-06-09T08:46:51.000Z</time>
      </trkpt>
      <trkpt lat="43.006072" lon="-2.409438">
        <ele>690.810040583325</ele>
        <time>2018-06-09T08:46:52.000Z</time>
      </trkpt>
      <trkpt lat="43.006052" lon="-2.409416">
        <ele>690.539589692188</ele>
        <time>2018-06-09T08:46:53.000Z</time>
      </trkpt>
      <trkpt lat="43.006035" lon="-2.409399">
        <ele>690.400024414063</ele>
        <time>2018-06-09T08:46:54.000Z</time>
      </trkpt>
      <trkpt lat="43.005955" lon="-2.40934">
        <ele>689.636471124573</ele>
        <time>2018-06-09T08:46:58.000Z</time>
      </trkpt>
      <trkpt lat="43.005865" lon="-2.409296">
        <ele>689.5</ele>
        <time>2018-06-09T08:47:03.000Z</time>
      </trkpt>
      <trkpt lat="43.005777" lon="-2.409231">
        <ele>689.400024414063</ele>
        <time>2018-06-09T08:47:08.000Z</time>
      </trkpt>
      <trkpt lat="43.005697" lon="-2.409148">
        <ele>689.342087245316</ele>
        <time>2018-06-09T08:47:15.000Z</time>
      </trkpt>
      <trkpt lat="43.005619" lon="-2.409062">
        <ele>688.700012207031</ele>
        <time>2018-06-09T08:47:21.000Z</time>
      </trkpt>
      <trkpt lat="43.005529" lon="-2.408998">
        <ele>690</ele>
        <time>2018-06-09T08:47:28.000Z</time>
      </trkpt>
      <trkpt lat="43.005444" lon="-2.408929">
        <ele>689.438143901602</ele>
        <time>2018-06-09T08:47:35.000Z</time>
      </trkpt>
      <trkpt lat="43.005411" lon="-2.408902">
        <ele>689.241343869438</ele>
        <time>2018-06-09T08:47:38.000Z</time>
      </trkpt>
      <trkpt lat="43.005339" lon="-2.408849">
        <ele>689.284902136919</ele>
        <time>2018-06-09T08:47:42.000Z</time>
      </trkpt>
      <trkpt lat="43.005308" lon="-2.408831">
        <ele>689.400024414063</ele>
        <time>2018-06-09T08:47:43.000Z</time>
      </trkpt>
      <trkpt lat="43.005278" lon="-2.408818">
        <ele>689.52987843313</ele>
        <time>2018-06-09T08:47:45.000Z</time>
      </trkpt>
      <trkpt lat="43.005188" lon="-2.408793">
        <ele>688.700012207031</ele>
        <time>2018-06-09T08:47:53.000Z</time>
      </trkpt>
      <trkpt lat="43.005133" lon="-2.408714">
        <ele>689.93158825218</ele>
        <time>2018-06-09T08:48:02.000Z</time>
      </trkpt>
      <trkpt lat="43.005117" lon="-2.408694">
        <ele>690.200012207031</ele>
        <time>2018-06-09T08:48:04.000Z</time>
      </trkpt>
      <trkpt lat="43.005097" lon="-2.408663">
        <ele>690.299987792969</ele>
        <time>2018-06-09T08:48:06.000Z</time>
      </trkpt>
      <trkpt lat="43.005087" lon="-2.408627">
        <ele>690.826814907075</ele>
        <time>2018-06-09T08:48:08.000Z</time>
      </trkpt>
      <trkpt lat="43.005079" lon="-2.408604">
        <ele>691.085518251134</ele>
        <time>2018-06-09T08:48:09.000Z</time>
      </trkpt>
      <trkpt lat="43.005066" lon="-2.408563">
        <ele>691.286190176263</ele>
        <time>2018-06-09T08:48:11.000Z</time>
      </trkpt>
      <trkpt lat="43.005054" lon="-2.408543">
        <ele>691.52987843313</ele>
        <time>2018-06-09T08:48:12.000Z</time>
      </trkpt>
      <trkpt lat="43.00504" lon="-2.40851">
        <ele>691.843678284554</ele>
        <time>2018-06-09T08:48:14.000Z</time>
      </trkpt>
      <trkpt lat="43.005028" lon="-2.408479">
        <ele>691.900024414063</ele>
        <time>2018-06-09T08:48:17.000Z</time>
      </trkpt>
      <trkpt lat="43.005024" lon="-2.408444">
        <ele>692.200012207031</ele>
        <time>2018-06-09T08:48:19.000Z</time>
      </trkpt>
      <trkpt lat="43.005006" lon="-2.408409">
        <ele>692.400024414063</ele>
        <time>2018-06-09T08:48:21.000Z</time>
      </trkpt>
      <trkpt lat="43.004996" lon="-2.40838">
        <ele>692.536355945432</ele>
        <time>2018-06-09T08:48:23.000Z</time>
      </trkpt>
      <trkpt lat="43.004985" lon="-2.408358">
        <ele>692.791924776678</ele>
        <time>2018-06-09T08:48:25.000Z</time>
      </trkpt>
      <trkpt lat="43.004973" lon="-2.408329">
        <ele>693.245501258594</ele>
        <time>2018-06-09T08:48:27.000Z</time>
      </trkpt>
      <trkpt lat="43.00495" lon="-2.408295">
        <ele>693.491568912315</ele>
        <time>2018-06-09T08:48:29.000Z</time>
      </trkpt>
      <trkpt lat="43.004939" lon="-2.408248">
        <ele>693.900024414063</ele>
        <time>2018-06-09T08:48:31.000Z</time>
      </trkpt>
      <trkpt lat="43.004932" lon="-2.408219">
        <ele>693.945821280941</ele>
        <time>2018-06-09T08:48:32.000Z</time>
      </trkpt>
      <trkpt lat="43.004912" lon="-2.408181">
        <ele>694</ele>
        <time>2018-06-09T08:48:34.000Z</time>
      </trkpt>
      <trkpt lat="43.004887" lon="-2.408126">
        <ele>694.346142832797</ele>
        <time>2018-06-09T08:48:37.000Z</time>
      </trkpt>
      <trkpt lat="43.004878" lon="-2.408095">
        <ele>694.734971591274</ele>
        <time>2018-06-09T08:48:39.000Z</time>
      </trkpt>
      <trkpt lat="43.00487" lon="-2.408058">
        <ele>695.296695000654</ele>
        <time>2018-06-09T08:48:42.000Z</time>
      </trkpt>
      <trkpt lat="43.004859" lon="-2.408037">
        <ele>695.79780903328</ele>
        <time>2018-06-09T08:48:44.000Z</time>
      </trkpt>
      <trkpt lat="43.004834" lon="-2.408021">
        <ele>696</ele>
        <time>2018-06-09T08:48:46.000Z</time>
      </trkpt>
      <trkpt lat="43.004802" lon="-2.408002">
        <ele>696.299987792969</ele>
        <time>2018-06-09T08:48:48.000Z</time>
      </trkpt>
      <trkpt lat="43.004775" lon="-2.407989">
        <ele>696.299987792969</ele>
        <time>2018-06-09T08:48:49.000Z</time>
      </trkpt>
      <trkpt lat="43.004753" lon="-2.407976">
        <ele>696.35105988441</ele>
        <time>2018-06-09T08:48:50.000Z</time>
      </trkpt>
      <trkpt lat="43.004734" lon="-2.407965">
        <ele>696.913562563528</ele>
        <time>2018-06-09T08:48:51.000Z</time>
      </trkpt>
      <trkpt lat="43.004704" lon="-2.407953">
        <ele>697.400024414063</ele>
        <time>2018-06-09T08:48:52.000Z</time>
      </trkpt>
      <trkpt lat="43.004686" lon="-2.407943">
        <ele>697.451763928606</ele>
        <time>2018-06-09T08:48:53.000Z</time>
      </trkpt>
      <trkpt lat="43.004666" lon="-2.407926">
        <ele>698.1057234159</ele>
        <time>2018-06-09T08:48:56.000Z</time>
      </trkpt>
      <trkpt lat="43.004652" lon="-2.407901">
        <ele>698.353307792187</ele>
        <time>2018-06-09T08:48:58.000Z</time>
      </trkpt>
      <trkpt lat="43.004639" lon="-2.407883">
        <ele>698.507720444588</ele>
        <time>2018-06-09T08:49:00.000Z</time>
      </trkpt>
      <trkpt lat="43.004623" lon="-2.407856">
        <ele>699.054705707321</ele>
        <time>2018-06-09T08:49:03.000Z</time>
      </trkpt>
      <trkpt lat="43.00457" lon="-2.407792">
        <ele>699.412306460051</ele>
        <time>2018-06-09T08:49:08.000Z</time>
      </trkpt>
      <trkpt lat="43.004558" lon="-2.407772">
        <ele>699.670304145759</ele>
        <time>2018-06-09T08:49:10.000Z</time>
      </trkpt>
      <trkpt lat="43.004542" lon="-2.407746">
        <ele>699.799987792969</ele>
        <time>2018-06-09T08:49:13.000Z</time>
      </trkpt>
      <trkpt lat="43.004522" lon="-2.407729">
        <ele>699.799987792969</ele>
        <time>2018-06-09T08:49:15.000Z</time>
      </trkpt>
      <trkpt lat="43.004515" lon="-2.407706">
        <ele>699.584374578377</ele>
        <time>2018-06-09T08:49:17.000Z</time>
      </trkpt>
      <trkpt lat="43.004517" lon="-2.407663">
        <ele>699.148064854513</ele>
        <time>2018-06-09T08:49:20.000Z</time>
      </trkpt>
      <trkpt lat="43.00452" lon="-2.407627">
        <ele>698.900024414063</ele>
        <time>2018-06-09T08:49:22.000Z</time>
      </trkpt>
      <trkpt lat="43.004513" lon="-2.407591">
        <ele>698.799987792969</ele>
        <time>2018-06-09T08:49:24.000Z</time>
      </trkpt>
      <trkpt lat="43.004494" lon="-2.407558">
        <ele>698.520681977012</ele>
        <time>2018-06-09T08:49:26.000Z</time>
      </trkpt>
      <trkpt lat="43.004495" lon="-2.407585">
        <ele>697.848584806105</ele>
        <time>2018-06-09T08:49:38.000Z</time>
      </trkpt>
      <trkpt lat="43.004503" lon="-2.407608">
        <ele>698.388558999337</ele>
        <time>2018-06-09T08:49:40.000Z</time>
      </trkpt>
      <trkpt lat="43.004506" lon="-2.407638">
        <ele>698.700012207031</ele>
        <time>2018-06-09T08:49:42.000Z</time>
      </trkpt>
      <trkpt lat="43.004518" lon="-2.40767">
        <ele>698.700012207031</ele>
        <time>2018-06-09T08:49:45.000Z</time>
      </trkpt>
      <trkpt lat="43.004567" lon="-2.40778">
        <ele>699.191174500683</ele>
        <time>2018-06-09T08:49:57.000Z</time>
      </trkpt>
      <trkpt lat="43.004478" lon="-2.407761">
        <ele>699.665637013585</ele>
        <time>2018-06-09T08:50:07.000Z</time>
      </trkpt>
      <trkpt lat="43.004436" lon="-2.407738">
        <ele>700.799987792969</ele>
        <time>2018-06-09T08:50:13.000Z</time>
      </trkpt>
      <trkpt lat="43.00442" lon="-2.407721">
        <ele>701.700012207031</ele>
        <time>2018-06-09T08:50:20.000Z</time>
      </trkpt>
      <trkpt lat="43.004411" lon="-2.407693">
        <ele>702.336092540836</ele>
        <time>2018-06-09T08:50:25.000Z</time>
      </trkpt>
      <trkpt lat="43.004396" lon="-2.407674">
        <ele>702.099975585938</ele>
        <time>2018-06-09T08:50:28.000Z</time>
      </trkpt>
      <trkpt lat="43.004376" lon="-2.407657">
        <ele>702.469516116547</ele>
        <time>2018-06-09T08:50:30.000Z</time>
      </trkpt>
      <trkpt lat="43.004358" lon="-2.407642">
        <ele>703.099975585938</ele>
        <time>2018-06-09T08:50:34.000Z</time>
      </trkpt>
      <trkpt lat="43.00434" lon="-2.407626">
        <ele>703.471334761883</ele>
        <time>2018-06-09T08:50:36.000Z</time>
      </trkpt>
      <trkpt lat="43.004328" lon="-2.407607">
        <ele>704.435359339548</ele>
        <time>2018-06-09T08:50:40.000Z</time>
      </trkpt>
      <trkpt lat="43.004294" lon="-2.407587">
        <ele>705.5</ele>
        <time>2018-06-09T08:50:46.000Z</time>
      </trkpt>
      <trkpt lat="43.004271" lon="-2.407563">
        <ele>706.448750684762</ele>
        <time>2018-06-09T08:50:49.000Z</time>
      </trkpt>
      <trkpt lat="43.004254" lon="-2.40754">
        <ele>706.599975585938</ele>
        <time>2018-06-09T08:50:51.000Z</time>
      </trkpt>
      <trkpt lat="43.004239" lon="-2.407526">
        <ele>706.899595792187</ele>
        <time>2018-06-09T08:50:52.000Z</time>
      </trkpt>
      <trkpt lat="43.00422" lon="-2.407502">
        <ele>707.877129578514</ele>
        <time>2018-06-09T08:50:54.000Z</time>
      </trkpt>
      <trkpt lat="43.00421" lon="-2.40748">
        <ele>708.226938556122</ele>
        <time>2018-06-09T08:50:56.000Z</time>
      </trkpt>
      <trkpt lat="43.004207" lon="-2.407447">
        <ele>708.676179376396</ele>
        <time>2018-06-09T08:50:59.000Z</time>
      </trkpt>
      <trkpt lat="43.004143" lon="-2.407337">
        <ele>709.020577653919</ele>
        <time>2018-06-09T08:51:09.000Z</time>
      </trkpt>
      <trkpt lat="43.004119" lon="-2.407312">
        <ele>708.819713777475</ele>
        <time>2018-06-09T08:51:11.000Z</time>
      </trkpt>
      <trkpt lat="43.004098" lon="-2.407302">
        <ele>708.799987792969</ele>
        <time>2018-06-09T08:51:13.000Z</time>
      </trkpt>
      <trkpt lat="43.004071" lon="-2.40728">
        <ele>709</ele>
        <time>2018-06-09T08:51:16.000Z</time>
      </trkpt>
      <trkpt lat="43.004061" lon="-2.407257">
        <ele>708.900024414063</ele>
        <time>2018-06-09T08:51:18.000Z</time>
      </trkpt>
      <trkpt lat="43.004039" lon="-2.407245">
        <ele>708.817911763261</ele>
        <time>2018-06-09T08:51:21.000Z</time>
      </trkpt>
      <trkpt lat="43.004016" lon="-2.407238">
        <ele>708.782806458514</ele>
        <time>2018-06-09T08:51:23.000Z</time>
      </trkpt>
      <trkpt lat="43.003989" lon="-2.407228">
        <ele>708.966530810128</ele>
        <time>2018-06-09T08:51:25.000Z</time>
      </trkpt>
      <trkpt lat="43.00395" lon="-2.407189">
        <ele>709.767811739326</ele>
        <time>2018-06-09T08:51:31.000Z</time>
      </trkpt>
      <trkpt lat="43.003934" lon="-2.407176">
        <ele>709.915868332266</ele>
        <time>2018-06-09T08:51:33.000Z</time>
      </trkpt>
      <trkpt lat="43.003911" lon="-2.407166">
        <ele>710</ele>
        <time>2018-06-09T08:51:35.000Z</time>
      </trkpt>
      <trkpt lat="43.003891" lon="-2.407156">
        <ele>710.855437203704</ele>
        <time>2018-06-09T08:51:37.000Z</time>
      </trkpt>
      <trkpt lat="43.003876" lon="-2.407142">
        <ele>711.299987792969</ele>
        <time>2018-06-09T08:51:39.000Z</time>
      </trkpt>
      <trkpt lat="43.00386" lon="-2.407126">
        <ele>711.299987792969</ele>
        <time>2018-06-09T08:51:41.000Z</time>
      </trkpt>
      <trkpt lat="43.003839" lon="-2.407109">
        <ele>711.385188730012</ele>
        <time>2018-06-09T08:51:43.000Z</time>
      </trkpt>
      <trkpt lat="43.003822" lon="-2.407097">
        <ele>712.457530675757</ele>
        <time>2018-06-09T08:51:45.000Z</time>
      </trkpt>
      <trkpt lat="43.003806" lon="-2.407085">
        <ele>712.872139800426</ele>
        <time>2018-06-09T08:51:47.000Z</time>
      </trkpt>
      <trkpt lat="43.003783" lon="-2.407069">
        <ele>713.200012207031</ele>
        <time>2018-06-09T08:51:50.000Z</time>
      </trkpt>
      <trkpt lat="43.003764" lon="-2.407054">
        <ele>713.387168219505</ele>
        <time>2018-06-09T08:51:52.000Z</time>
      </trkpt>
      <trkpt lat="43.003742" lon="-2.407035">
        <ele>714.063568496454</ele>
        <time>2018-06-09T08:51:54.000Z</time>
      </trkpt>
      <trkpt lat="43.003711" lon="-2.407018">
        <ele>714.689165435683</ele>
        <time>2018-06-09T08:51:57.000Z</time>
      </trkpt>
      <trkpt lat="43.003695" lon="-2.407002">
        <ele>715.070218434403</ele>
        <time>2018-06-09T08:51:59.000Z</time>
      </trkpt>
      <trkpt lat="43.003673" lon="-2.406989">
        <ele>715.190608444531</ele>
        <time>2018-06-09T08:52:01.000Z</time>
      </trkpt>
      <trkpt lat="43.003642" lon="-2.406967">
        <ele>715.575278600874</ele>
        <time>2018-06-09T08:52:04.000Z</time>
      </trkpt>
      <trkpt lat="43.003593" lon="-2.406866">
        <ele>717.299987792969</ele>
        <time>2018-06-09T08:52:13.000Z</time>
      </trkpt>
      <trkpt lat="43.003556" lon="-2.406744">
        <ele>718.873448243805</ele>
        <time>2018-06-09T08:52:21.000Z</time>
      </trkpt>
      <trkpt lat="43.003497" lon="-2.406702">
        <ele>718.900024414063</ele>
        <time>2018-06-09T08:52:25.000Z</time>
      </trkpt>
      <trkpt lat="43.003477" lon="-2.40667">
        <ele>719.593341778565</ele>
        <time>2018-06-09T08:52:28.000Z</time>
      </trkpt>
      <trkpt lat="43.003463" lon="-2.40665">
        <ele>719.599975585938</ele>
        <time>2018-06-09T08:52:30.000Z</time>
      </trkpt>
      <trkpt lat="43.003444" lon="-2.406628">
        <ele>720.096961583489</ele>
        <time>2018-06-09T08:52:32.000Z</time>
      </trkpt>
      <trkpt lat="43.003425" lon="-2.406601">
        <ele>720.399824258705</ele>
        <time>2018-06-09T08:52:34.000Z</time>
      </trkpt>
      <trkpt lat="43.003411" lon="-2.406541">
        <ele>721.101377818739</ele>
        <time>2018-06-09T08:52:40.000Z</time>
      </trkpt>
      <trkpt lat="43.003396" lon="-2.406519">
        <ele>721.502004153456</ele>
        <time>2018-06-09T08:52:43.000Z</time>
      </trkpt>
      <trkpt lat="43.00338" lon="-2.406504">
        <ele>721.700012207031</ele>
        <time>2018-06-09T08:52:45.000Z</time>
      </trkpt>
      <trkpt lat="43.003358" lon="-2.406478">
        <ele>722.403742551567</ele>
        <time>2018-06-09T08:52:48.000Z</time>
      </trkpt>
      <trkpt lat="43.003287" lon="-2.406395">
        <ele>723.400024414063</ele>
        <time>2018-06-09T08:52:56.000Z</time>
      </trkpt>
      <trkpt lat="43.003248" lon="-2.406311">
        <ele>724.113188943779</ele>
        <time>2018-06-09T08:53:02.000Z</time>
      </trkpt>
      <trkpt lat="43.003226" lon="-2.406279">
        <ele>724.392399334855</ele>
        <time>2018-06-09T08:53:05.000Z</time>
      </trkpt>
      <trkpt lat="43.003158" lon="-2.406232">
        <ele>724.720234590027</ele>
        <time>2018-06-09T08:53:12.000Z</time>
      </trkpt>
      <trkpt lat="43.003071" lon="-2.406177">
        <ele>724.78805479657</ele>
        <time>2018-06-09T08:53:21.000Z</time>
      </trkpt>
      <trkpt lat="43.002966" lon="-2.406155">
        <ele>724.142968897482</ele>
        <time>2018-06-09T08:53:28.000Z</time>
      </trkpt>
      <trkpt lat="43.002892" lon="-2.40606">
        <ele>724.368022460937</ele>
        <time>2018-06-09T08:53:34.000Z</time>
      </trkpt>
      <trkpt lat="43.002844" lon="-2.405949">
        <ele>723.782221093715</ele>
        <time>2018-06-09T08:53:41.000Z</time>
      </trkpt>
      <trkpt lat="43.002817" lon="-2.405824">
        <ele>723.799987792969</ele>
        <time>2018-06-09T08:53:50.000Z</time>
      </trkpt>
      <trkpt lat="43.002798" lon="-2.405688">
        <ele>724.091260361733</ele>
        <time>2018-06-09T08:53:58.000Z</time>
      </trkpt>
      <trkpt lat="43.00274" lon="-2.405586">
        <ele>724.5</ele>
        <time>2018-06-09T08:54:04.000Z</time>
      </trkpt>
      <trkpt lat="43.00272" lon="-2.405564">
        <ele>724.5</ele>
        <time>2018-06-09T08:54:06.000Z</time>
      </trkpt>
      <trkpt lat="43.002696" lon="-2.405539">
        <ele>724.774693489844</ele>
        <time>2018-06-09T08:54:08.000Z</time>
      </trkpt>
      <trkpt lat="43.002654" lon="-2.405465">
        <ele>726.253108790804</ele>
        <time>2018-06-09T08:54:13.000Z</time>
      </trkpt>
      <trkpt lat="43.002638" lon="-2.405404">
        <ele>726.964560216139</ele>
        <time>2018-06-09T08:54:17.000Z</time>
      </trkpt>
      <trkpt lat="43.002619" lon="-2.405379">
        <ele>727.697095871192</ele>
        <time>2018-06-09T08:54:19.000Z</time>
      </trkpt>
      <trkpt lat="43.002603" lon="-2.405346">
        <ele>728.228604827687</ele>
        <time>2018-06-09T08:54:21.000Z</time>
      </trkpt>
      <trkpt lat="43.002593" lon="-2.405317">
        <ele>728.599975585938</ele>
        <time>2018-06-09T08:54:23.000Z</time>
      </trkpt>
      <trkpt lat="43.002584" lon="-2.405294">
        <ele>729.189448070374</ele>
        <time>2018-06-09T08:54:25.000Z</time>
      </trkpt>
      <trkpt lat="43.002555" lon="-2.405193">
        <ele>730.431511140197</ele>
        <time>2018-06-09T08:54:32.000Z</time>
      </trkpt>
      <trkpt lat="43.002547" lon="-2.405154">
        <ele>730.829187695024</ele>
        <time>2018-06-09T08:54:35.000Z</time>
      </trkpt>
      <trkpt lat="43.002524" lon="-2.405117">
        <ele>731.265306234409</ele>
        <time>2018-06-09T08:54:37.000Z</time>
      </trkpt>
      <trkpt lat="43.002503" lon="-2.405091">
        <ele>731.733604003906</ele>
        <time>2018-06-09T08:54:39.000Z</time>
      </trkpt>
      <trkpt lat="43.002489" lon="-2.405076">
        <ele>732.23638583125</ele>
        <time>2018-06-09T08:54:41.000Z</time>
      </trkpt>
      <trkpt lat="43.00246" lon="-2.405063">
        <ele>732.840561294512</ele>
        <time>2018-06-09T08:54:43.000Z</time>
      </trkpt>
      <trkpt lat="43.002438" lon="-2.40505">
        <ele>733.299987792969</ele>
        <time>2018-06-09T08:54:44.000Z</time>
      </trkpt>
      <trkpt lat="43.002427" lon="-2.40504">
        <ele>733.995097896908</ele>
        <time>2018-06-09T08:54:46.000Z</time>
      </trkpt>
      <trkpt lat="43.002374" lon="-2.404933">
        <ele>737.299987792969</ele>
        <time>2018-06-09T08:55:02.000Z</time>
      </trkpt>
      <trkpt lat="43.002314" lon="-2.404877">
        <ele>740.158873768076</ele>
        <time>2018-06-09T08:55:12.000Z</time>
      </trkpt>
      <trkpt lat="43.00229" lon="-2.404853">
        <ele>740.700012207031</ele>
        <time>2018-06-09T08:55:15.000Z</time>
      </trkpt>
      <trkpt lat="43.002274" lon="-2.404817">
        <ele>741.900024414063</ele>
        <time>2018-06-09T08:55:20.000Z</time>
      </trkpt>
      <trkpt lat="43.002254" lon="-2.404804">
        <ele>741.885793989844</ele>
        <time>2018-06-09T08:55:22.000Z</time>
      </trkpt>
      <trkpt lat="43.00224" lon="-2.404781">
        <ele>742.244233732783</ele>
        <time>2018-06-09T08:55:26.000Z</time>
      </trkpt>
      <trkpt lat="43.002165" lon="-2.40471">
        <ele>744.591989505078</ele>
        <time>2018-06-09T08:55:36.000Z</time>
      </trkpt>
      <trkpt lat="43.002126" lon="-2.404603">
        <ele>747.700682591969</ele>
        <time>2018-06-09T08:55:53.000Z</time>
      </trkpt>
      <trkpt lat="43.00218" lon="-2.404511">
        <ele>751.263392044665</ele>
        <time>2018-06-09T08:56:08.000Z</time>
      </trkpt>
      <trkpt lat="43.002128" lon="-2.404406">
        <ele>751.557057577631</ele>
        <time>2018-06-09T08:56:21.000Z</time>
      </trkpt>
      <trkpt lat="43.00207" lon="-2.404299">
        <ele>753.696523614062</ele>
        <time>2018-06-09T08:56:30.000Z</time>
      </trkpt>
      <trkpt lat="43.00201" lon="-2.404212">
        <ele>755.984849898277</ele>
        <time>2018-06-09T08:56:40.000Z</time>
      </trkpt>
      <trkpt lat="43.002001" lon="-2.404077">
        <ele>757.989941129163</ele>
        <time>2018-06-09T08:56:52.000Z</time>
      </trkpt>
      <trkpt lat="43.002045" lon="-2.403965">
        <ele>755.867458949922</ele>
        <time>2018-06-09T08:57:16.000Z</time>
      </trkpt>
      <trkpt lat="43.002106" lon="-2.403872">
        <ele>755.131011326364</ele>
        <time>2018-06-09T08:57:27.000Z</time>
      </trkpt>
      <trkpt lat="43.002103" lon="-2.403746">
        <ele>755.799987792969</ele>
        <time>2018-06-09T08:57:41.000Z</time>
      </trkpt>
      <trkpt lat="43.002086" lon="-2.403724">
        <ele>755.871716079962</ele>
        <time>2018-06-09T08:57:44.000Z</time>
      </trkpt>
      <trkpt lat="43.002014" lon="-2.40365">
        <ele>754.851991581226</ele>
        <time>2018-06-09T08:57:57.000Z</time>
      </trkpt>
      <trkpt lat="43.001957" lon="-2.403552">
        <ele>755.428616375482</ele>
        <time>2018-06-09T08:58:10.000Z</time>
      </trkpt>
      <trkpt lat="43.001998" lon="-2.40344">
        <ele>756.734013642188</ele>
        <time>2018-06-09T08:58:34.000Z</time>
      </trkpt>
      <trkpt lat="43.001988" lon="-2.403316">
        <ele>756.885304626288</ele>
        <time>2018-06-09T08:58:46.000Z</time>
      </trkpt>
      <trkpt lat="43.001936" lon="-2.403218">
        <ele>758.686193677017</ele>
        <time>2018-06-09T08:59:03.000Z</time>
      </trkpt>
      <trkpt lat="43.001963" lon="-2.40309">
        <ele>759.900024414063</ele>
        <time>2018-06-09T08:59:24.000Z</time>
      </trkpt>
      <trkpt lat="43.001954" lon="-2.402969">
        <ele>762.406995097653</ele>
        <time>2018-06-09T08:59:45.000Z</time>
      </trkpt>
      <trkpt lat="43.002033" lon="-2.402887">
        <ele>760.518994531639</ele>
        <time>2018-06-09T09:00:11.000Z</time>
      </trkpt>
      <trkpt lat="43.00212" lon="-2.40281">
        <ele>760.184011230469</ele>
        <time>2018-06-09T09:00:20.000Z</time>
      </trkpt>
      <trkpt lat="43.002171" lon="-2.402721">
        <ele>763.498998564396</ele>
        <time>2018-06-09T09:00:36.000Z</time>
      </trkpt>
      <trkpt lat="43.002125" lon="-2.402619">
        <ele>767.400024414063</ele>
        <time>2018-06-09T09:00:57.000Z</time>
      </trkpt>
      <trkpt lat="43.002094" lon="-2.402513">
        <ele>771.299987792969</ele>
        <time>2018-06-09T09:01:32.000Z</time>
      </trkpt>
      <trkpt lat="43.002065" lon="-2.402384">
        <ele>772.519838101023</ele>
        <time>2018-06-09T09:01:58.000Z</time>
      </trkpt>
      <trkpt lat="43.002021" lon="-2.402276">
        <ele>773.989159846572</ele>
        <time>2018-06-09T09:02:17.000Z</time>
      </trkpt>
      <trkpt lat="43.002009" lon="-2.40215">
        <ele>775.318788253482</ele>
        <time>2018-06-09T09:02:41.000Z</time>
      </trkpt>
      <trkpt lat="43.001983" lon="-2.402043">
        <ele>779.180167246166</ele>
        <time>2018-06-09T09:03:02.000Z</time>
      </trkpt>
      <trkpt lat="43.001953" lon="-2.40193">
        <ele>782.345944823937</ele>
        <time>2018-06-09T09:03:26.000Z</time>
      </trkpt>
      <trkpt lat="43.001979" lon="-2.401817">
        <ele>785.229564174212</ele>
        <time>2018-06-09T09:03:47.000Z</time>
      </trkpt>
      <trkpt lat="43.001991" lon="-2.401694">
        <ele>787.196881842457</ele>
        <time>2018-06-09T09:03:58.000Z</time>
      </trkpt>
      <trkpt lat="43.001948" lon="-2.40163">
        <ele>789.377722585893</ele>
        <time>2018-06-09T09:04:13.000Z</time>
      </trkpt>
      <trkpt lat="43.001937" lon="-2.401616">
        <ele>790.963083068853</ele>
        <time>2018-06-09T09:04:21.000Z</time>
      </trkpt>
      <trkpt lat="43.001926" lon="-2.401592">
        <ele>791.416063549226</ele>
        <time>2018-06-09T09:04:28.000Z</time>
      </trkpt>
      <trkpt lat="43.001912" lon="-2.401575">
        <ele>791.857596498437</ele>
        <time>2018-06-09T09:04:31.000Z</time>
      </trkpt>
      <trkpt lat="43.00192" lon="-2.401551">
        <ele>792.799987792969</ele>
        <time>2018-06-09T09:04:34.000Z</time>
      </trkpt>
      <trkpt lat="43.001934" lon="-2.401525">
        <ele>793.306180900752</ele>
        <time>2018-06-09T09:04:37.000Z</time>
      </trkpt>
      <trkpt lat="43.001916" lon="-2.401502">
        <ele>793.65857248208</ele>
        <time>2018-06-09T09:04:39.000Z</time>
      </trkpt>
      <trkpt lat="43.001912" lon="-2.401477">
        <ele>794.169488451894</ele>
        <time>2018-06-09T09:04:42.000Z</time>
      </trkpt>
      <trkpt lat="43.00189" lon="-2.40146">
        <ele>794.400024414063</ele>
        <time>2018-06-09T09:04:46.000Z</time>
      </trkpt>
      <trkpt lat="43.001869" lon="-2.40145">
        <ele>794.98771574741</ele>
        <time>2018-06-09T09:04:51.000Z</time>
      </trkpt>
      <trkpt lat="43.001854" lon="-2.40144">
        <ele>795.644425032842</ele>
        <time>2018-06-09T09:04:54.000Z</time>
      </trkpt>
      <trkpt lat="43.00184" lon="-2.401422">
        <ele>795.955354128339</ele>
        <time>2018-06-09T09:04:57.000Z</time>
      </trkpt>
      <trkpt lat="43.001842" lon="-2.401396">
        <ele>796.343791744293</ele>
        <time>2018-06-09T09:05:05.000Z</time>
      </trkpt>
      <trkpt lat="43.001837" lon="-2.401364">
        <ele>796.200012207031</ele>
        <time>2018-06-09T09:05:10.000Z</time>
      </trkpt>
      <trkpt lat="43.001848" lon="-2.401339">
        <ele>797.08193622755</ele>
        <time>2018-06-09T09:05:14.000Z</time>
      </trkpt>
      <trkpt lat="43.00187" lon="-2.401272">
        <ele>799.650997965279</ele>
        <time>2018-06-09T09:05:39.000Z</time>
      </trkpt>
      <trkpt lat="43.001873" lon="-2.40123">
        <ele>800.558150939404</ele>
        <time>2018-06-09T09:05:43.000Z</time>
      </trkpt>
      <trkpt lat="43.001852" lon="-2.401218">
        <ele>801.307433248335</ele>
        <time>2018-06-09T09:05:46.000Z</time>
      </trkpt>
      <trkpt lat="43.001862" lon="-2.401192">
        <ele>801.755431608595</ele>
        <time>2018-06-09T09:05:50.000Z</time>
      </trkpt>
      <trkpt lat="43.001851" lon="-2.401172">
        <ele>802.056298375972</ele>
        <time>2018-06-09T09:05:53.000Z</time>
      </trkpt>
      <trkpt lat="43.001835" lon="-2.401152">
        <ele>803.058050340222</ele>
        <time>2018-06-09T09:05:59.000Z</time>
      </trkpt>
      <trkpt lat="43.001803" lon="-2.401146">
        <ele>803.640954706091</ele>
        <time>2018-06-09T09:06:03.000Z</time>
      </trkpt>
      <trkpt lat="43.001767" lon="-2.401148">
        <ele>803.87695215896</ele>
        <time>2018-06-09T09:06:05.000Z</time>
      </trkpt>
      <trkpt lat="43.00177" lon="-2.401099">
        <ele>804.376176554674</ele>
        <time>2018-06-09T09:06:08.000Z</time>
      </trkpt>
      <trkpt lat="43.00176" lon="-2.401074">
        <ele>804.5</ele>
        <time>2018-06-09T09:06:11.000Z</time>
      </trkpt>
      <trkpt lat="43.001763" lon="-2.401047">
        <ele>805.041007601958</ele>
        <time>2018-06-09T09:06:15.000Z</time>
      </trkpt>
      <trkpt lat="43.001759" lon="-2.401017">
        <ele>805.233780236</ele>
        <time>2018-06-09T09:06:19.000Z</time>
      </trkpt>
      <trkpt lat="43.001755" lon="-2.400987">
        <ele>806.407816508533</ele>
        <time>2018-06-09T09:06:22.000Z</time>
      </trkpt>
      <trkpt lat="43.001769" lon="-2.400962">
        <ele>807.099975585938</ele>
        <time>2018-06-09T09:06:25.000Z</time>
      </trkpt>
      <trkpt lat="43.001748" lon="-2.400945">
        <ele>807.200012207031</ele>
        <time>2018-06-09T09:06:27.000Z</time>
      </trkpt>
      <trkpt lat="43.00173" lon="-2.400923">
        <ele>807.41696073468</ele>
        <time>2018-06-09T09:06:29.000Z</time>
      </trkpt>
      <trkpt lat="43.001716" lon="-2.400906">
        <ele>808.400024414063</ele>
        <time>2018-06-09T09:06:31.000Z</time>
      </trkpt>
      <trkpt lat="43.0017" lon="-2.400881">
        <ele>808.716350644938</ele>
        <time>2018-06-09T09:06:34.000Z</time>
      </trkpt>
      <trkpt lat="43.001683" lon="-2.400865">
        <ele>808.799987792969</ele>
        <time>2018-06-09T09:06:36.000Z</time>
      </trkpt>
      <trkpt lat="43.001693" lon="-2.400834">
        <ele>809.415164531495</ele>
        <time>2018-06-09T09:06:39.000Z</time>
      </trkpt>
      <trkpt lat="43.001681" lon="-2.400816">
        <ele>809.799987792969</ele>
        <time>2018-06-09T09:06:41.000Z</time>
      </trkpt>
      <trkpt lat="43.001679" lon="-2.400791">
        <ele>809.827760801116</ele>
        <time>2018-06-09T09:06:44.000Z</time>
      </trkpt>
      <trkpt lat="43.001679" lon="-2.400766">
        <ele>810</ele>
        <time>2018-06-09T09:06:47.000Z</time>
      </trkpt>
      <trkpt lat="43.001665" lon="-2.400747">
        <ele>810.713668700513</ele>
        <time>2018-06-09T09:06:52.000Z</time>
      </trkpt>
      <trkpt lat="43.001658" lon="-2.400715">
        <ele>811.143291282812</ele>
        <time>2018-06-09T09:06:56.000Z</time>
      </trkpt>
      <trkpt lat="43.001639" lon="-2.400703">
        <ele>812.139011364063</ele>
        <time>2018-06-09T09:07:00.000Z</time>
      </trkpt>
      <trkpt lat="43.001619" lon="-2.40069">
        <ele>812.8695457668</ele>
        <time>2018-06-09T09:07:03.000Z</time>
      </trkpt>
      <trkpt lat="43.0016" lon="-2.400676">
        <ele>813.756598708594</ele>
        <time>2018-06-09T09:07:07.000Z</time>
      </trkpt>
      <trkpt lat="43.001583" lon="-2.400657">
        <ele>814.282564641904</ele>
        <time>2018-06-09T09:07:10.000Z</time>
      </trkpt>
      <trkpt lat="43.001575" lon="-2.400633">
        <ele>814.784215439305</ele>
        <time>2018-06-09T09:07:13.000Z</time>
      </trkpt>
      <trkpt lat="43.00156" lon="-2.400613">
        <ele>814.95671073125</ele>
        <time>2018-06-09T09:07:16.000Z</time>
      </trkpt>
      <trkpt lat="43.001551" lon="-2.400583">
        <ele>815.4565111</ele>
        <time>2018-06-09T09:07:19.000Z</time>
      </trkpt>
      <trkpt lat="43.001541" lon="-2.400554">
        <ele>815.799987792969</ele>
        <time>2018-06-09T09:07:23.000Z</time>
      </trkpt>
      <trkpt lat="43.001529" lon="-2.400536">
        <ele>816.525199617969</ele>
        <time>2018-06-09T09:07:26.000Z</time>
      </trkpt>
      <trkpt lat="43.001519" lon="-2.400512">
        <ele>816.981229040145</ele>
        <time>2018-06-09T09:07:28.000Z</time>
      </trkpt>
      <trkpt lat="43.001501" lon="-2.40049">
        <ele>817.412568596308</ele>
        <time>2018-06-09T09:07:32.000Z</time>
      </trkpt>
      <trkpt lat="43.001498" lon="-2.400455">
        <ele>817.612094612864</ele>
        <time>2018-06-09T09:07:34.000Z</time>
      </trkpt>
      <trkpt lat="43.001477" lon="-2.400429">
        <ele>817.700012207031</ele>
        <time>2018-06-09T09:07:36.000Z</time>
      </trkpt>
      <trkpt lat="43.001524" lon="-2.400262">
        <ele>818.355908424219</ele>
        <time>2018-06-09T09:07:38.000Z</time>
      </trkpt>
      <trkpt lat="43.001602" lon="-2.399871">
        <ele>819.067286048704</ele>
        <time>2018-06-09T09:07:40.000Z</time>
      </trkpt>
      <trkpt lat="43.001574" lon="-2.399753">
        <ele>819.255798903906</ele>
        <time>2018-06-09T09:07:41.000Z</time>
      </trkpt>
      <trkpt lat="43.001561" lon="-2.399633">
        <ele>820.5</ele>
        <time>2018-06-09T09:07:48.000Z</time>
      </trkpt>
      <trkpt lat="43.001563" lon="-2.3996">
        <ele>820.765870417762</ele>
        <time>2018-06-09T09:07:51.000Z</time>
      </trkpt>
      <trkpt lat="43.001556" lon="-2.399566">
        <ele>820.900024414063</ele>
        <time>2018-06-09T09:07:53.000Z</time>
      </trkpt>
      <trkpt lat="43.001548" lon="-2.399537">
        <ele>821.120804199219</ele>
        <time>2018-06-09T09:07:55.000Z</time>
      </trkpt>
      <trkpt lat="43.001543" lon="-2.399508">
        <ele>821.465581054688</ele>
        <time>2018-06-09T09:07:57.000Z</time>
      </trkpt>
      <trkpt lat="43.00153" lon="-2.399478">
        <ele>821.655216658403</ele>
        <time>2018-06-09T09:07:59.000Z</time>
      </trkpt>
      <trkpt lat="43.001516" lon="-2.399455">
        <ele>822.299987792969</ele>
        <time>2018-06-09T09:08:02.000Z</time>
      </trkpt>
      <trkpt lat="43.001495" lon="-2.399439">
        <ele>822.299987792969</ele>
        <time>2018-06-09T09:08:04.000Z</time>
      </trkpt>
      <trkpt lat="43.001473" lon="-2.399416">
        <ele>822.599975585938</ele>
        <time>2018-06-09T09:08:06.000Z</time>
      </trkpt>
      <trkpt lat="43.00146" lon="-2.399389">
        <ele>822.799987792969</ele>
        <time>2018-06-09T09:08:08.000Z</time>
      </trkpt>
      <trkpt lat="43.001445" lon="-2.399357">
        <ele>823.00876285622</ele>
        <time>2018-06-09T09:08:10.000Z</time>
      </trkpt>
      <trkpt lat="43.001433" lon="-2.399325">
        <ele>823.400024414063</ele>
        <time>2018-06-09T09:08:12.000Z</time>
      </trkpt>
      <trkpt lat="43.001418" lon="-2.399293">
        <ele>823.654905401019</ele>
        <time>2018-06-09T09:08:14.000Z</time>
      </trkpt>
      <trkpt lat="43.001402" lon="-2.399268">
        <ele>823.799987792969</ele>
        <time>2018-06-09T09:08:16.000Z</time>
      </trkpt>
      <trkpt lat="43.001391" lon="-2.399242">
        <ele>823.700012207031</ele>
        <time>2018-06-09T09:08:19.000Z</time>
      </trkpt>
      <trkpt lat="43.001373" lon="-2.399225">
        <ele>823.643434548804</ele>
        <time>2018-06-09T09:08:21.000Z</time>
      </trkpt>
      <trkpt lat="43.001363" lon="-2.399197">
        <ele>823.48488843918</ele>
        <time>2018-06-09T09:08:24.000Z</time>
      </trkpt>
      <trkpt lat="43.001351" lon="-2.399177">
        <ele>823.28371979857</ele>
        <time>2018-06-09T09:08:26.000Z</time>
      </trkpt>
      <trkpt lat="43.001335" lon="-2.399158">
        <ele>822.84124395886</ele>
        <time>2018-06-09T09:08:29.000Z</time>
      </trkpt>
      <trkpt lat="43.001318" lon="-2.399139">
        <ele>822.799987792969</ele>
        <time>2018-06-09T09:08:32.000Z</time>
      </trkpt>
      <trkpt lat="43.001301" lon="-2.399119">
        <ele>822.522241947767</ele>
        <time>2018-06-09T09:08:34.000Z</time>
      </trkpt>
      <trkpt lat="43.001283" lon="-2.399096">
        <ele>822.5</ele>
        <time>2018-06-09T09:08:37.000Z</time>
      </trkpt>
      <trkpt lat="43.001253" lon="-2.399083">
        <ele>822.119271093804</ele>
        <time>2018-06-09T09:08:39.000Z</time>
      </trkpt>
      <trkpt lat="43.001226" lon="-2.399068">
        <ele>822</ele>
        <time>2018-06-09T09:08:41.000Z</time>
      </trkpt>
      <trkpt lat="43.001196" lon="-2.399047">
        <ele>822.242901099916</ele>
        <time>2018-06-09T09:08:43.000Z</time>
      </trkpt>
      <trkpt lat="43.001176" lon="-2.399024">
        <ele>821.838997378036</ele>
        <time>2018-06-09T09:08:45.000Z</time>
      </trkpt>
      <trkpt lat="43.001165" lon="-2.399006">
        <ele>822.170209428125</ele>
        <time>2018-06-09T09:08:47.000Z</time>
      </trkpt>
      <trkpt lat="43.001146" lon="-2.398995">
        <ele>822.091832912458</ele>
        <time>2018-06-09T09:08:48.000Z</time>
      </trkpt>
      <trkpt lat="43.001128" lon="-2.398971">
        <ele>821.900024414063</ele>
        <time>2018-06-09T09:08:50.000Z</time>
      </trkpt>
      <trkpt lat="43.001116" lon="-2.398941">
        <ele>822.5</ele>
        <time>2018-06-09T09:08:52.000Z</time>
      </trkpt>
      <trkpt lat="43.001096" lon="-2.39892">
        <ele>822.5</ele>
        <time>2018-06-09T09:08:53.000Z</time>
      </trkpt>
      <trkpt lat="43.001078" lon="-2.398905">
        <ele>822.314079765927</ele>
        <time>2018-06-09T09:08:54.000Z</time>
      </trkpt>
      <trkpt lat="43.00106" lon="-2.398871">
        <ele>822.400024414063</ele>
        <time>2018-06-09T09:08:56.000Z</time>
      </trkpt>
      <trkpt lat="43.00105" lon="-2.398844">
        <ele>822.237615842127</ele>
        <time>2018-06-09T09:08:58.000Z</time>
      </trkpt>
      <trkpt lat="43.001032" lon="-2.398822">
        <ele>822.200012207031</ele>
        <time>2018-06-09T09:09:00.000Z</time>
      </trkpt>
      <trkpt lat="43.001017" lon="-2.398797">
        <ele>821.971492079618</ele>
        <time>2018-06-09T09:09:02.000Z</time>
      </trkpt>
      <trkpt lat="43.001018" lon="-2.398764">
        <ele>821.900024414063</ele>
        <time>2018-06-09T09:09:04.000Z</time>
      </trkpt>
      <trkpt lat="43.001004" lon="-2.398743">
        <ele>821.900024414063</ele>
        <time>2018-06-09T09:09:05.000Z</time>
      </trkpt>
      <trkpt lat="43.000976" lon="-2.398715">
        <ele>821.400024414063</ele>
        <time>2018-06-09T09:09:07.000Z</time>
      </trkpt>
      <trkpt lat="43.000963" lon="-2.39869">
        <ele>821.334337817759</ele>
        <time>2018-06-09T09:09:08.000Z</time>
      </trkpt>
      <trkpt lat="43.00095" lon="-2.398671">
        <ele>821.299987792969</ele>
        <time>2018-06-09T09:09:09.000Z</time>
      </trkpt>
      <trkpt lat="43.000941" lon="-2.398642">
        <ele>821.299987792969</ele>
        <time>2018-06-09T09:09:11.000Z</time>
      </trkpt>
      <trkpt lat="43.000923" lon="-2.398609">
        <ele>821.099975585938</ele>
        <time>2018-06-09T09:09:13.000Z</time>
      </trkpt>
      <trkpt lat="43.000914" lon="-2.398583">
        <ele>821.233984404687</ele>
        <time>2018-06-09T09:09:15.000Z</time>
      </trkpt>
      <trkpt lat="43.000897" lon="-2.39855">
        <ele>821.332497672027</ele>
        <time>2018-06-09T09:09:17.000Z</time>
      </trkpt>
      <trkpt lat="43.000887" lon="-2.398518">
        <ele>821.400024414063</ele>
        <time>2018-06-09T09:09:19.000Z</time>
      </trkpt>
      <trkpt lat="43.000866" lon="-2.398502">
        <ele>821.636363990334</ele>
        <time>2018-06-09T09:09:21.000Z</time>
      </trkpt>
      <trkpt lat="43.00084" lon="-2.398478">
        <ele>821.700012207031</ele>
        <time>2018-06-09T09:09:23.000Z</time>
      </trkpt>
      <trkpt lat="43.00084" lon="-2.398449">
        <ele>822.542856903176</ele>
        <time>2018-06-09T09:09:27.000Z</time>
      </trkpt>
      <trkpt lat="43.00084" lon="-2.398426">
        <ele>823.481128040202</ele>
        <time>2018-06-09T09:09:29.000Z</time>
      </trkpt>
      <trkpt lat="43.000826" lon="-2.3984">
        <ele>824.037866062516</ele>
        <time>2018-06-09T09:09:31.000Z</time>
      </trkpt>
      <trkpt lat="43.00082" lon="-2.398371">
        <ele>824.408321138775</ele>
        <time>2018-06-09T09:09:33.000Z</time>
      </trkpt>
      <trkpt lat="43.0008" lon="-2.398356">
        <ele>824.569761792884</ele>
        <time>2018-06-09T09:09:34.000Z</time>
      </trkpt>
      <trkpt lat="43.000784" lon="-2.398341">
        <ele>824.599975585938</ele>
        <time>2018-06-09T09:09:35.000Z</time>
      </trkpt>
      <trkpt lat="43.00077" lon="-2.398318">
        <ele>825.180121014055</ele>
        <time>2018-06-09T09:09:37.000Z</time>
      </trkpt>
      <trkpt lat="43.000749" lon="-2.398289">
        <ele>825.700012207031</ele>
        <time>2018-06-09T09:09:39.000Z</time>
      </trkpt>
      <trkpt lat="43.00074" lon="-2.398264">
        <ele>825.900024414063</ele>
        <time>2018-06-09T09:09:41.000Z</time>
      </trkpt>
      <trkpt lat="43.000735" lon="-2.398228">
        <ele>825.700012207031</ele>
        <time>2018-06-09T09:09:44.000Z</time>
      </trkpt>
      <trkpt lat="43.000728" lon="-2.398198">
        <ele>825.700012207031</ele>
        <time>2018-06-09T09:09:46.000Z</time>
      </trkpt>
      <trkpt lat="43.000722" lon="-2.398168">
        <ele>825.770807603333</ele>
        <time>2018-06-09T09:09:48.000Z</time>
      </trkpt>
      <trkpt lat="43.000712" lon="-2.398145">
        <ele>826.013319549402</ele>
        <time>2018-06-09T09:09:49.000Z</time>
      </trkpt>
      <trkpt lat="43.0007" lon="-2.398112">
        <ele>826.242983353906</ele>
        <time>2018-06-09T09:09:51.000Z</time>
      </trkpt>
      <trkpt lat="43.000685" lon="-2.398081">
        <ele>826.471722144899</ele>
        <time>2018-06-09T09:09:53.000Z</time>
      </trkpt>
      <trkpt lat="43.000668" lon="-2.398057">
        <ele>826.5</ele>
        <time>2018-06-09T09:09:55.000Z</time>
      </trkpt>
      <trkpt lat="43.000646" lon="-2.398043">
        <ele>826.646100312009</ele>
        <time>2018-06-09T09:09:56.000Z</time>
      </trkpt>
      <trkpt lat="43.000621" lon="-2.398021">
        <ele>827.81475794745</ele>
        <time>2018-06-09T09:09:58.000Z</time>
      </trkpt>
      <trkpt lat="43.000597" lon="-2.398001">
        <ele>828.17616016438</ele>
        <time>2018-06-09T09:10:00.000Z</time>
      </trkpt>
      <trkpt lat="43.000576" lon="-2.39798">
        <ele>828.477314952124</ele>
        <time>2018-06-09T09:10:02.000Z</time>
      </trkpt>
      <trkpt lat="43.000575" lon="-2.39795">
        <ele>828.776970107424</ele>
        <time>2018-06-09T09:10:04.000Z</time>
      </trkpt>
      <trkpt lat="43.000591" lon="-2.397928">
        <ele>828.799987792969</ele>
        <time>2018-06-09T09:10:05.000Z</time>
      </trkpt>
      <trkpt lat="43.000572" lon="-2.397894">
        <ele>828.799987792969</ele>
        <time>2018-06-09T09:10:07.000Z</time>
      </trkpt>
      <trkpt lat="43.000556" lon="-2.397862">
        <ele>828.599975585938</ele>
        <time>2018-06-09T09:10:09.000Z</time>
      </trkpt>
      <trkpt lat="43.000552" lon="-2.397838">
        <ele>828.178490521356</ele>
        <time>2018-06-09T09:10:11.000Z</time>
      </trkpt>
      <trkpt lat="43.000548" lon="-2.397812">
        <ele>828.578780393173</ele>
        <time>2018-06-09T09:10:13.000Z</time>
      </trkpt>
      <trkpt lat="43.000538" lon="-2.39779">
        <ele>828.678962535298</ele>
        <time>2018-06-09T09:10:14.000Z</time>
      </trkpt>
      <trkpt lat="43.000517" lon="-2.397765">
        <ele>828.900024414063</ele>
        <time>2018-06-09T09:10:16.000Z</time>
      </trkpt>
      <trkpt lat="43.000503" lon="-2.397745">
        <ele>828.978963441074</ele>
        <time>2018-06-09T09:10:17.000Z</time>
      </trkpt>
      <trkpt lat="43.000487" lon="-2.397725">
        <ele>829.078981032813</ele>
        <time>2018-06-09T09:10:18.000Z</time>
      </trkpt>
      <trkpt lat="43.000481" lon="-2.397693">
        <ele>829.337252017101</ele>
        <time>2018-06-09T09:10:20.000Z</time>
      </trkpt>
      <trkpt lat="43.000472" lon="-2.397668">
        <ele>829.478968624426</ele>
        <time>2018-06-09T09:10:22.000Z</time>
      </trkpt>
      <trkpt lat="43.000453" lon="-2.397657">
        <ele>829.578801533077</ele>
        <time>2018-06-09T09:10:23.000Z</time>
      </trkpt>
      <trkpt lat="43.000453" lon="-2.397617">
        <ele>829.758502107477</ele>
        <time>2018-06-09T09:10:25.000Z</time>
      </trkpt>
      <trkpt lat="43.000444" lon="-2.397583">
        <ele>829.900024414063</ele>
        <time>2018-06-09T09:10:27.000Z</time>
      </trkpt>
      <trkpt lat="43.000427" lon="-2.397567">
        <ele>830.14079492681</ele>
        <time>2018-06-09T09:10:28.000Z</time>
      </trkpt>
      <trkpt lat="43.000413" lon="-2.397548">
        <ele>830.3611056182</ele>
        <time>2018-06-09T09:10:29.000Z</time>
      </trkpt>
      <trkpt lat="43.000409" lon="-2.397523">
        <ele>830.400024414063</ele>
        <time>2018-06-09T09:10:30.000Z</time>
      </trkpt>
      <trkpt lat="43.000392" lon="-2.39748">
        <ele>830.799987792969</ele>
        <time>2018-06-09T09:10:32.000Z</time>
      </trkpt>
      <trkpt lat="43.000373" lon="-2.397439">
        <ele>830.961797348437</ele>
        <time>2018-06-09T09:10:34.000Z</time>
      </trkpt>
      <trkpt lat="43.000353" lon="-2.397414">
        <ele>830.918775772837</ele>
        <time>2018-06-09T09:10:36.000Z</time>
      </trkpt>
      <trkpt lat="43.00034" lon="-2.397372">
        <ele>830.981241646787</ele>
        <time>2018-06-09T09:10:38.000Z</time>
      </trkpt>
      <trkpt lat="43.000325" lon="-2.397349">
        <ele>831.081506081904</ele>
        <time>2018-06-09T09:10:39.000Z</time>
      </trkpt>
      <trkpt lat="43.000315" lon="-2.397326">
        <ele>831.181850701095</ele>
        <time>2018-06-09T09:10:40.000Z</time>
      </trkpt>
      <trkpt lat="43.000306" lon="-2.397304">
        <ele>831.200012207031</ele>
        <time>2018-06-09T09:10:41.000Z</time>
      </trkpt>
      <trkpt lat="43.000295" lon="-2.397279">
        <ele>831.200012207031</ele>
        <time>2018-06-09T09:10:43.000Z</time>
      </trkpt>
      <trkpt lat="43.000284" lon="-2.397255">
        <ele>831.700012207031</ele>
        <time>2018-06-09T09:10:45.000Z</time>
      </trkpt>
      <trkpt lat="43.000276" lon="-2.397225">
        <ele>831.947644348415</ele>
        <time>2018-06-09T09:10:47.000Z</time>
      </trkpt>
      <trkpt lat="43.000269" lon="-2.397195">
        <ele>832.650968112081</ele>
        <time>2018-06-09T09:10:50.000Z</time>
      </trkpt>
      <trkpt lat="43.000268" lon="-2.397161">
        <ele>833.152218232961</ele>
        <time>2018-06-09T09:10:52.000Z</time>
      </trkpt>
      <trkpt lat="43.000272" lon="-2.397127">
        <ele>833.4514029375</ele>
        <time>2018-06-09T09:10:54.000Z</time>
      </trkpt>
      <trkpt lat="43.00027" lon="-2.397098">
        <ele>833.5</ele>
        <time>2018-06-09T09:10:56.000Z</time>
      </trkpt>
      <trkpt lat="43.000262" lon="-2.39707">
        <ele>833.200012207031</ele>
        <time>2018-06-09T09:10:58.000Z</time>
      </trkpt>
      <trkpt lat="43.000257" lon="-2.397043">
        <ele>833.200012207031</ele>
        <time>2018-06-09T09:11:00.000Z</time>
      </trkpt>
      <trkpt lat="43.000241" lon="-2.397018">
        <ele>833.285920346401</ele>
        <time>2018-06-09T09:11:02.000Z</time>
      </trkpt>
      <trkpt lat="43.00022" lon="-2.39699">
        <ele>833.560703163016</ele>
        <time>2018-06-09T09:11:04.000Z</time>
      </trkpt>
      <trkpt lat="43.000203" lon="-2.396942">
        <ele>833.687169051712</ele>
        <time>2018-06-09T09:11:06.000Z</time>
      </trkpt>
      <trkpt lat="43.00018" lon="-2.396907">
        <ele>833.700012207031</ele>
        <time>2018-06-09T09:11:08.000Z</time>
      </trkpt>
      <trkpt lat="43.00017" lon="-2.396881">
        <ele>833.987791109081</ele>
        <time>2018-06-09T09:11:10.000Z</time>
      </trkpt>
      <trkpt lat="43.000161" lon="-2.396846">
        <ele>834.176919243633</ele>
        <time>2018-06-09T09:11:12.000Z</time>
      </trkpt>
      <trkpt lat="43.000141" lon="-2.396821">
        <ele>834.75594657065</ele>
        <time>2018-06-09T09:11:14.000Z</time>
      </trkpt>
      <trkpt lat="43.000125" lon="-2.396784">
        <ele>835.088789488512</ele>
        <time>2018-06-09T09:11:16.000Z</time>
      </trkpt>
      <trkpt lat="43.000109" lon="-2.396757">
        <ele>835.467870668169</ele>
        <time>2018-06-09T09:11:18.000Z</time>
      </trkpt>
      <trkpt lat="43.000095" lon="-2.396725">
        <ele>835.868756900967</ele>
        <time>2018-06-09T09:11:20.000Z</time>
      </trkpt>
      <trkpt lat="43.000082" lon="-2.396684">
        <ele>836.369211589663</ele>
        <time>2018-06-09T09:11:23.000Z</time>
      </trkpt>
      <trkpt lat="43.00007" lon="-2.396657">
        <ele>836.700012207031</ele>
        <time>2018-06-09T09:11:25.000Z</time>
      </trkpt>
      <trkpt lat="43.000062" lon="-2.396609">
        <ele>836.799987792969</ele>
        <time>2018-06-09T09:11:27.000Z</time>
      </trkpt>
      <trkpt lat="43.000054" lon="-2.396583">
        <ele>836.799987792969</ele>
        <time>2018-06-09T09:11:28.000Z</time>
      </trkpt>
      <trkpt lat="43.000037" lon="-2.396541">
        <ele>836.799987792969</ele>
        <time>2018-06-09T09:11:30.000Z</time>
      </trkpt>
      <trkpt lat="43.000015" lon="-2.396506">
        <ele>836.799987792969</ele>
        <time>2018-06-09T09:11:32.000Z</time>
      </trkpt>
      <trkpt lat="42.999999" lon="-2.39648">
        <ele>836.787876800918</ele>
        <time>2018-06-09T09:11:34.000Z</time>
      </trkpt>
      <trkpt lat="42.999981" lon="-2.39646">
        <ele>837.494769295676</ele>
        <time>2018-06-09T09:11:37.000Z</time>
      </trkpt>
      <trkpt lat="42.999972" lon="-2.396438">
        <ele>837.796277102145</ele>
        <time>2018-06-09T09:11:40.000Z</time>
      </trkpt>
      <trkpt lat="42.999952" lon="-2.396411">
        <ele>838.599975585938</ele>
        <time>2018-06-09T09:11:43.000Z</time>
      </trkpt>
      <trkpt lat="42.999939" lon="-2.396393">
        <ele>838.697300835599</ele>
        <time>2018-06-09T09:11:45.000Z</time>
      </trkpt>
      <trkpt lat="42.999925" lon="-2.396376">
        <ele>839.485586195195</ele>
        <time>2018-06-09T09:11:47.000Z</time>
      </trkpt>
      <trkpt lat="42.999908" lon="-2.396354">
        <ele>839.897630704794</ele>
        <time>2018-06-09T09:11:49.000Z</time>
      </trkpt>
      <trkpt lat="42.999883" lon="-2.396331">
        <ele>840.163291728911</ele>
        <time>2018-06-09T09:11:51.000Z</time>
      </trkpt>
      <trkpt lat="42.999877" lon="-2.396306">
        <ele>841.200012207031</ele>
        <time>2018-06-09T09:11:54.000Z</time>
      </trkpt>
      <trkpt lat="42.999873" lon="-2.396282">
        <ele>842.235400878179</ele>
        <time>2018-06-09T09:11:57.000Z</time>
      </trkpt>
      <trkpt lat="42.999861" lon="-2.396261">
        <ele>842.400024414063</ele>
        <time>2018-06-09T09:11:59.000Z</time>
      </trkpt>
      <trkpt lat="42.999868" lon="-2.396231">
        <ele>843.252805039041</ele>
        <time>2018-06-09T09:12:02.000Z</time>
      </trkpt>
      <trkpt lat="42.999871" lon="-2.396204">
        <ele>843.806214932835</ele>
        <time>2018-06-09T09:12:05.000Z</time>
      </trkpt>
      <trkpt lat="42.999861" lon="-2.396174">
        <ele>844.88115493261</ele>
        <time>2018-06-09T09:12:07.000Z</time>
      </trkpt>
      <trkpt lat="42.999854" lon="-2.39615">
        <ele>845.262623774549</ele>
        <time>2018-06-09T09:12:09.000Z</time>
      </trkpt>
      <trkpt lat="42.999853" lon="-2.396125">
        <ele>845.463287484768</ele>
        <time>2018-06-09T09:12:11.000Z</time>
      </trkpt>
      <trkpt lat="42.999827" lon="-2.396109">
        <ele>845.964656704578</ele>
        <time>2018-06-09T09:12:13.000Z</time>
      </trkpt>
      <trkpt lat="42.999804" lon="-2.396084">
        <ele>846</ele>
        <time>2018-06-09T09:12:15.000Z</time>
      </trkpt>
      <trkpt lat="42.999789" lon="-2.39607">
        <ele>846</ele>
        <time>2018-06-09T09:12:16.000Z</time>
      </trkpt>
      <trkpt lat="42.999763" lon="-2.396043">
        <ele>846.284243990256</ele>
        <time>2018-06-09T09:12:18.000Z</time>
      </trkpt>
      <trkpt lat="42.999755" lon="-2.396007">
        <ele>846.385130221559</ele>
        <time>2018-06-09T09:12:20.000Z</time>
      </trkpt>
      <trkpt lat="42.999745" lon="-2.395969">
        <ele>846.485574711208</ele>
        <time>2018-06-09T09:12:22.000Z</time>
      </trkpt>
      <trkpt lat="42.999722" lon="-2.395947">
        <ele>846.900024414063</ele>
        <time>2018-06-09T09:12:24.000Z</time>
      </trkpt>
      <trkpt lat="42.999698" lon="-2.395932">
        <ele>847.074479646604</ele>
        <time>2018-06-09T09:12:26.000Z</time>
      </trkpt>
      <trkpt lat="42.999684" lon="-2.395903">
        <ele>847.400024414063</ele>
        <time>2018-06-09T09:12:29.000Z</time>
      </trkpt>
      <trkpt lat="42.999655" lon="-2.395888">
        <ele>847.753855157251</ele>
        <time>2018-06-09T09:12:31.000Z</time>
      </trkpt>
      <trkpt lat="42.999632" lon="-2.39588">
        <ele>849.000778657949</ele>
        <time>2018-06-09T09:12:35.000Z</time>
      </trkpt>
      <trkpt lat="42.99962" lon="-2.395859">
        <ele>850.188985841146</ele>
        <time>2018-06-09T09:12:38.000Z</time>
      </trkpt>
      <trkpt lat="42.999602" lon="-2.395846">
        <ele>850.489292401721</ele>
        <time>2018-06-09T09:12:40.000Z</time>
      </trkpt>
      <trkpt lat="42.999585" lon="-2.395833">
        <ele>851.21902351647</ele>
        <time>2018-06-09T09:12:42.000Z</time>
      </trkpt>
      <trkpt lat="42.999563" lon="-2.395827">
        <ele>851.479797807031</ele>
        <time>2018-06-09T09:12:43.000Z</time>
      </trkpt>
      <trkpt lat="42.999541" lon="-2.395821">
        <ele>851.5</ele>
        <time>2018-06-09T09:12:44.000Z</time>
      </trkpt>
      <trkpt lat="42.999529" lon="-2.395801">
        <ele>851.5</ele>
        <time>2018-06-09T09:12:45.000Z</time>
      </trkpt>
      <trkpt lat="42.999509" lon="-2.39577">
        <ele>851.318883909884</ele>
        <time>2018-06-09T09:12:47.000Z</time>
      </trkpt>
      <trkpt lat="42.999484" lon="-2.39574">
        <ele>851</ele>
        <time>2018-06-09T09:12:49.000Z</time>
      </trkpt>
      <trkpt lat="42.999475" lon="-2.395711">
        <ele>851.091168941821</ele>
        <time>2018-06-09T09:12:51.000Z</time>
      </trkpt>
      <trkpt lat="42.999442" lon="-2.395686">
        <ele>851</ele>
        <time>2018-06-09T09:12:53.000Z</time>
      </trkpt>
      <trkpt lat="42.999424" lon="-2.395679">
        <ele>851.799987792969</ele>
        <time>2018-06-09T09:12:55.000Z</time>
      </trkpt>
      <trkpt lat="42.999401" lon="-2.395676">
        <ele>852.175965166463</ele>
        <time>2018-06-09T09:12:57.000Z</time>
      </trkpt>
      <trkpt lat="42.999387" lon="-2.395655">
        <ele>852.207146338495</ele>
        <time>2018-06-09T09:12:59.000Z</time>
      </trkpt>
      <trkpt lat="42.999368" lon="-2.395629">
        <ele>852.693597053503</ele>
        <time>2018-06-09T09:13:02.000Z</time>
      </trkpt>
      <trkpt lat="42.999347" lon="-2.395617">
        <ele>852.799987792969</ele>
        <time>2018-06-09T09:13:04.000Z</time>
      </trkpt>
      <trkpt lat="42.999328" lon="-2.39559">
        <ele>853</ele>
        <time>2018-06-09T09:13:06.000Z</time>
      </trkpt>
      <trkpt lat="42.999316" lon="-2.395561">
        <ele>853.871130994367</ele>
        <time>2018-06-09T09:13:09.000Z</time>
      </trkpt>
      <trkpt lat="42.99929" lon="-2.395562">
        <ele>854.200012207031</ele>
        <time>2018-06-09T09:13:12.000Z</time>
      </trkpt>
      <trkpt lat="42.999275" lon="-2.395545">
        <ele>854.799987792969</ele>
        <time>2018-06-09T09:13:15.000Z</time>
      </trkpt>
      <trkpt lat="42.999252" lon="-2.395535">
        <ele>855.586653100571</ele>
        <time>2018-06-09T09:13:17.000Z</time>
      </trkpt>
      <trkpt lat="42.999227" lon="-2.395526">
        <ele>855.798484998439</ele>
        <time>2018-06-09T09:13:19.000Z</time>
      </trkpt>
      <trkpt lat="42.999207" lon="-2.395508">
        <ele>856.397818604769</ele>
        <time>2018-06-09T09:13:21.000Z</time>
      </trkpt>
      <trkpt lat="42.999196" lon="-2.39548">
        <ele>857.096362992059</ele>
        <time>2018-06-09T09:13:23.000Z</time>
      </trkpt>
      <trkpt lat="42.999187" lon="-2.395455">
        <ele>857.799787901209</ele>
        <time>2018-06-09T09:13:25.000Z</time>
      </trkpt>
      <trkpt lat="42.999169" lon="-2.395444">
        <ele>857.900024414063</ele>
        <time>2018-06-09T09:13:27.000Z</time>
      </trkpt>
      <trkpt lat="42.999146" lon="-2.395428">
        <ele>857.903233733648</ele>
        <time>2018-06-09T09:13:29.000Z</time>
      </trkpt>
      <trkpt lat="42.999125" lon="-2.395408">
        <ele>858.299987792969</ele>
        <time>2018-06-09T09:13:31.000Z</time>
      </trkpt>
      <trkpt lat="42.999105" lon="-2.395398">
        <ele>858.400024414063</ele>
        <time>2018-06-09T09:13:33.000Z</time>
      </trkpt>
      <trkpt lat="42.999078" lon="-2.395402">
        <ele>858.299987792969</ele>
        <time>2018-06-09T09:13:35.000Z</time>
      </trkpt>
      <trkpt lat="42.99906" lon="-2.3954">
        <ele>858.299987792969</ele>
        <time>2018-06-09T09:13:37.000Z</time>
      </trkpt>
      <trkpt lat="42.999036" lon="-2.39539">
        <ele>858.396513050318</ele>
        <time>2018-06-09T09:13:39.000Z</time>
      </trkpt>
      <trkpt lat="42.999004" lon="-2.39538">
        <ele>858.400024414063</ele>
        <time>2018-06-09T09:13:41.000Z</time>
      </trkpt>
      <trkpt lat="42.998974" lon="-2.39538">
        <ele>858.400024414063</ele>
        <time>2018-06-09T09:13:42.000Z</time>
      </trkpt>
      <trkpt lat="42.998944" lon="-2.395373">
        <ele>858.431282120174</ele>
        <time>2018-06-09T09:13:44.000Z</time>
      </trkpt>
    </trkseg>
  </trk>
</gpx>
